<?xml version="1.0" encoding="utf-8"?>
<gpx xmlns:xsi="http://www.w3.org/2001/XMLSchema-instance" xmlns:xsd="http://www.w3.org/2001/XMLSchema" version="1.1" creator="Shapelink.com" xmlns="http://www.topografix.com/GPX/1/1" xmlns:gpxtpx="http://www.garmin.com/xmlschemas/TrackPointExtension/v1">
  <metadata>
    <name>Löpning 26.87 km, 2017-10-28</name>
    <desc></desc>
    <author><name>Bengt-Åke Forslund</name></author> 
    <time>2017-10-28T12:40:50Z</time>
  </metadata>
  <trk>
    <name>Löpning 26.87 km, 2017-10-28</name>
    <trkseg>
      <trkpt lat="62.637781707013" lon="17.920851054678">
        <ele>77.4</ele>
        <time>2017-10-28T12:40:50Z</time>
      </trkpt>
      <trkpt lat="62.637808026179" lon="17.92090369301">
        <ele>73.8</ele>
        <time>2017-10-28T12:40:51Z</time>
      </trkpt>
      <trkpt lat="62.637839542123" lon="17.920954571143">
        <ele>72</ele>
        <time>2017-10-28T12:40:52Z</time>
      </trkpt>
      <trkpt lat="62.637872147714" lon="17.921004359629">
        <ele>71.8</ele>
        <time>2017-10-28T12:40:53Z</time>
      </trkpt>
      <trkpt lat="62.637900394717" lon="17.921052471735">
        <ele>72</ele>
        <time>2017-10-28T12:40:54Z</time>
      </trkpt>
      <trkpt lat="62.637950602298" lon="17.921142744798">
        <ele>71.8</ele>
        <time>2017-10-28T12:40:55Z</time>
      </trkpt>
      <trkpt lat="62.637985471002" lon="17.921212733663">
        <ele>71.8</ele>
        <time>2017-10-28T12:40:56Z</time>
      </trkpt>
      <trkpt lat="62.638018663326" lon="17.921290769152">
        <ele>71.8</ele>
        <time>2017-10-28T12:40:57Z</time>
      </trkpt>
      <trkpt lat="62.638053783487" lon="17.92135966837">
        <ele>71.8</ele>
        <time>2017-10-28T12:40:58Z</time>
      </trkpt>
      <trkpt lat="62.638091921132" lon="17.92142839995">
        <ele>71.6</ele>
        <time>2017-10-28T12:40:59Z</time>
      </trkpt>
      <trkpt lat="62.638134920279" lon="17.92150383705">
        <ele>71.6</ele>
        <time>2017-10-28T12:41:00Z</time>
      </trkpt>
      <trkpt lat="62.638175823951" lon="17.921579022693">
        <ele>71.6</ele>
        <time>2017-10-28T12:41:01Z</time>
      </trkpt>
      <trkpt lat="62.638214967424" lon="17.921658650743">
        <ele>71.6</ele>
        <time>2017-10-28T12:41:02Z</time>
      </trkpt>
      <trkpt lat="62.638255284363" lon="17.92173685387">
        <ele>71.4</ele>
        <time>2017-10-28T12:41:03Z</time>
      </trkpt>
      <trkpt lat="62.638291410352" lon="17.921806172183">
        <ele>71.6</ele>
        <time>2017-10-28T12:41:04Z</time>
      </trkpt>
      <trkpt lat="62.638322171925" lon="17.921874484668">
        <ele>71.6</ele>
        <time>2017-10-28T12:41:05Z</time>
      </trkpt>
      <trkpt lat="62.638375648447" lon="17.92198411992">
        <ele>71.8</ele>
        <time>2017-10-28T12:41:06Z</time>
      </trkpt>
      <trkpt lat="62.638418647594" lon="17.922060730486">
        <ele>71.8</ele>
        <time>2017-10-28T12:41:07Z</time>
      </trkpt>
      <trkpt lat="62.638460305637" lon="17.922146644961">
        <ele>71.6</ele>
        <time>2017-10-28T12:41:08Z</time>
      </trkpt>
      <trkpt lat="62.638490815753" lon="17.922218729301">
        <ele>71.4</ele>
        <time>2017-10-28T12:41:09Z</time>
      </trkpt>
      <trkpt lat="62.638522666973" lon="17.922306152518">
        <ele>71</ele>
        <time>2017-10-28T12:41:10Z</time>
      </trkpt>
      <trkpt lat="62.638548986139" lon="17.922376225202">
        <ele>70.8</ele>
        <time>2017-10-28T12:41:11Z</time>
      </trkpt>
      <trkpt lat="62.638575053848" lon="17.922434982321">
        <ele>70.2</ele>
        <time>2017-10-28T12:41:12Z</time>
      </trkpt>
      <trkpt lat="62.638595924779" lon="17.922487285377">
        <ele>69.8</ele>
        <time>2017-10-28T12:41:13Z</time>
      </trkpt>
      <trkpt lat="62.638609922552" lon="17.922526345031">
        <ele>69.6</ele>
        <time>2017-10-28T12:41:14Z</time>
      </trkpt>
      <trkpt lat="62.638620483746" lon="17.92257420568">
        <ele>69.2</ele>
        <time>2017-10-28T12:41:15Z</time>
      </trkpt>
      <trkpt lat="62.638620483746" lon="17.922609744936">
        <ele>68.8</ele>
        <time>2017-10-28T12:41:16Z</time>
      </trkpt>
      <trkpt lat="62.63862014847" lon="17.922640925604">
        <ele>68.4</ele>
        <time>2017-10-28T12:41:17Z</time>
      </trkpt>
      <trkpt lat="62.638616628072" lon="17.922676045765">
        <ele>68</ele>
        <time>2017-10-28T12:41:18Z</time>
      </trkpt>
      <trkpt lat="62.638608162353" lon="17.922716446523">
        <ele>67.8</ele>
        <time>2017-10-28T12:41:19Z</time>
      </trkpt>
      <trkpt lat="62.638589386897" lon="17.922760032403">
        <ele>67.6</ele>
        <time>2017-10-28T12:41:20Z</time>
      </trkpt>
      <trkpt lat="62.638565917577" lon="17.922817867513">
        <ele>67.4</ele>
        <time>2017-10-28T12:41:21Z</time>
      </trkpt>
      <trkpt lat="62.638538089669" lon="17.922884838894">
        <ele>67.4</ele>
        <time>2017-10-28T12:41:22Z</time>
      </trkpt>
      <trkpt lat="62.638508417743" lon="17.922965305134">
        <ele>67.2</ele>
        <time>2017-10-28T12:41:23Z</time>
      </trkpt>
      <trkpt lat="62.63848100893" lon="17.923049627048">
        <ele>67.2</ele>
        <time>2017-10-28T12:41:24Z</time>
      </trkpt>
      <trkpt lat="62.638443709475" lon="17.923140654482">
        <ele>67.2</ele>
        <time>2017-10-28T12:41:25Z</time>
      </trkpt>
      <trkpt lat="62.638401632337" lon="17.923223383835">
        <ele>67</ele>
        <time>2017-10-28T12:41:26Z</time>
      </trkpt>
      <trkpt lat="62.638357627362" lon="17.923306951378">
        <ele>66.8</ele>
        <time>2017-10-28T12:41:27Z</time>
      </trkpt>
      <trkpt lat="62.638310521084" lon="17.92339227912">
        <ele>66.6</ele>
        <time>2017-10-28T12:41:28Z</time>
      </trkpt>
      <trkpt lat="62.638266935204" lon="17.923490850264">
        <ele>66.4</ele>
        <time>2017-10-28T12:41:29Z</time>
      </trkpt>
      <trkpt lat="62.638218823098" lon="17.923603000086">
        <ele>66</ele>
        <time>2017-10-28T12:41:30Z</time>
      </trkpt>
      <trkpt lat="62.638168531698" lon="17.923702325601">
        <ele>65.6</ele>
        <time>2017-10-28T12:41:31Z</time>
      </trkpt>
      <trkpt lat="62.638121676877" lon="17.923797627804">
        <ele>65.2</ele>
        <time>2017-10-28T12:41:32Z</time>
      </trkpt>
      <trkpt lat="62.638083120137" lon="17.923909274712">
        <ele>64.8</ele>
        <time>2017-10-28T12:41:33Z</time>
      </trkpt>
      <trkpt lat="62.638064009405" lon="17.924028800606">
        <ele>64.6</ele>
        <time>2017-10-28T12:41:34Z</time>
      </trkpt>
      <trkpt lat="62.638051436555" lon="17.924177830788">
        <ele>64.2</ele>
        <time>2017-10-28T12:41:35Z</time>
      </trkpt>
      <trkpt lat="62.638049760175" lon="17.924320574545">
        <ele>63.8</ele>
        <time>2017-10-28T12:41:36Z</time>
      </trkpt>
      <trkpt lat="62.638058728808" lon="17.924454098212">
        <ele>63.8</ele>
        <time>2017-10-28T12:41:37Z</time>
      </trkpt>
      <trkpt lat="62.638070044373" lon="17.924584688214">
        <ele>63.6</ele>
        <time>2017-10-28T12:41:38Z</time>
      </trkpt>
      <trkpt lat="62.638081108481" lon="17.924715194397">
        <ele>63.4</ele>
        <time>2017-10-28T12:41:39Z</time>
      </trkpt>
      <trkpt lat="62.638081276119" lon="17.924850562082">
        <ele>63.4</ele>
        <time>2017-10-28T12:41:40Z</time>
      </trkpt>
      <trkpt lat="62.638081276119" lon="17.924989701622">
        <ele>63.4</ele>
        <time>2017-10-28T12:41:41Z</time>
      </trkpt>
      <trkpt lat="62.63808454506" lon="17.925121632728">
        <ele>63.6</ele>
        <time>2017-10-28T12:41:42Z</time>
      </trkpt>
      <trkpt lat="62.638091166761" lon="17.925242667364">
        <ele>63.4</ele>
        <time>2017-10-28T12:41:43Z</time>
      </trkpt>
      <trkpt lat="62.63810047067" lon="17.925347022019">
        <ele>63.4</ele>
        <time>2017-10-28T12:41:44Z</time>
      </trkpt>
      <trkpt lat="62.638103655792" lon="17.925448191552">
        <ele>63.2</ele>
        <time>2017-10-28T12:41:45Z</time>
      </trkpt>
      <trkpt lat="62.638099464842" lon="17.925490436328">
        <ele>63.2</ele>
        <time>2017-10-28T12:41:46Z</time>
      </trkpt>
      <trkpt lat="62.638083958327" lon="17.925580709391">
        <ele>63</ele>
        <time>2017-10-28T12:41:47Z</time>
      </trkpt>
      <trkpt lat="62.638058812627" lon="17.925632341895">
        <ele>62.8</ele>
        <time>2017-10-28T12:41:48Z</time>
      </trkpt>
      <trkpt lat="62.638024111561" lon="17.925651117351">
        <ele>62.8</ele>
        <time>2017-10-28T12:41:49Z</time>
      </trkpt>
      <trkpt lat="62.63798312407" lon="17.925642064899">
        <ele>62.6</ele>
        <time>2017-10-28T12:41:50Z</time>
      </trkpt>
      <trkpt lat="62.637942136579" lon="17.925628150945">
        <ele>62.4</ele>
        <time>2017-10-28T12:41:51Z</time>
      </trkpt>
      <trkpt lat="62.63791271611" lon="17.92561180624">
        <ele>62.4</ele>
        <time>2017-10-28T12:41:52Z</time>
      </trkpt>
      <trkpt lat="62.637845996186" lon="17.925582804866">
        <ele>62.4</ele>
        <time>2017-10-28T12:41:53Z</time>
      </trkpt>
      <trkpt lat="62.637792435845" lon="17.925572076034">
        <ele>62.4</ele>
        <time>2017-10-28T12:41:54Z</time>
      </trkpt>
      <trkpt lat="62.637729320138" lon="17.925560592831">
        <ele>62.2</ele>
        <time>2017-10-28T12:41:55Z</time>
      </trkpt>
      <trkpt lat="62.637666874983" lon="17.925550199275">
        <ele>62</ele>
        <time>2017-10-28T12:41:56Z</time>
      </trkpt>
      <trkpt lat="62.637601999077" lon="17.92554391285">
        <ele>61.8</ele>
        <time>2017-10-28T12:41:57Z</time>
      </trkpt>
      <trkpt lat="62.637539302465" lon="17.925537542606">
        <ele>61.6</ele>
        <time>2017-10-28T12:41:58Z</time>
      </trkpt>
      <trkpt lat="62.637472247265" lon="17.925518431874">
        <ele>61.4</ele>
        <time>2017-10-28T12:41:59Z</time>
      </trkpt>
      <trkpt lat="62.637397480717" lon="17.925490687785">
        <ele>61</ele>
        <time>2017-10-28T12:42:00Z</time>
      </trkpt>
      <trkpt lat="62.637337047218" lon="17.925466212637">
        <ele>60.8</ele>
        <time>2017-10-28T12:42:01Z</time>
      </trkpt>
      <trkpt lat="62.63726479524" lon="17.925420950377">
        <ele>60.6</ele>
        <time>2017-10-28T12:42:02Z</time>
      </trkpt>
      <trkpt lat="62.637197991497" lon="17.925348363123">
        <ele>60.4</ele>
        <time>2017-10-28T12:42:03Z</time>
      </trkpt>
      <trkpt lat="62.637183155534" lon="17.925312404772">
        <ele>60</ele>
        <time>2017-10-28T12:42:04Z</time>
      </trkpt>
      <trkpt lat="62.637100426181" lon="17.925187598281">
        <ele>59.8</ele>
        <time>2017-10-28T12:42:05Z</time>
      </trkpt>
      <trkpt lat="62.637049967143" lon="17.925153400129">
        <ele>59.6</ele>
        <time>2017-10-28T12:42:06Z</time>
      </trkpt>
      <trkpt lat="62.637001268304" lon="17.925157842536">
        <ele>59.2</ele>
        <time>2017-10-28T12:42:07Z</time>
      </trkpt>
      <trkpt lat="62.636957850062" lon="17.925194806715">
        <ele>59</ele>
        <time>2017-10-28T12:42:08Z</time>
      </trkpt>
      <trkpt lat="62.636925579747" lon="17.925260017897">
        <ele>58.8</ele>
        <time>2017-10-28T12:42:09Z</time>
      </trkpt>
      <trkpt lat="62.636903702988" lon="17.925353559901">
        <ele>58.8</ele>
        <time>2017-10-28T12:42:10Z</time>
      </trkpt>
      <trkpt lat="62.636902948617" lon="17.925462943696">
        <ele>58.8</ele>
        <time>2017-10-28T12:42:11Z</time>
      </trkpt>
      <trkpt lat="62.636913425992" lon="17.925578530097">
        <ele>58.6</ele>
        <time>2017-10-28T12:42:12Z</time>
      </trkpt>
      <trkpt lat="62.63693454838" lon="17.925696966344">
        <ele>58.4</ele>
        <time>2017-10-28T12:42:13Z</time>
      </trkpt>
      <trkpt lat="62.636961873374" lon="17.925806685415">
        <ele>58.2</ele>
        <time>2017-10-28T12:42:14Z</time>
      </trkpt>
      <trkpt lat="62.636994646603" lon="17.925929312612">
        <ele>58.2</ele>
        <time>2017-10-28T12:42:15Z</time>
      </trkpt>
      <trkpt lat="62.637015266077" lon="17.926040875701">
        <ele>58</ele>
        <time>2017-10-28T12:42:16Z</time>
      </trkpt>
      <trkpt lat="62.637035466456" lon="17.92621362666">
        <ele>58</ele>
        <time>2017-10-28T12:42:17Z</time>
      </trkpt>
      <trkpt lat="62.637048206944" lon="17.926353772028">
        <ele>58</ele>
        <time>2017-10-28T12:42:18Z</time>
      </trkpt>
      <trkpt lat="62.637062623812" lon="17.926497437794">
        <ele>58</ele>
        <time>2017-10-28T12:42:19Z</time>
      </trkpt>
      <trkpt lat="62.637076789223" lon="17.926661387758">
        <ele>58</ele>
        <time>2017-10-28T12:42:20Z</time>
      </trkpt>
      <trkpt lat="62.637095229403" lon="17.926815614718">
        <ele>58</ele>
        <time>2017-10-28T12:42:21Z</time>
      </trkpt>
      <trkpt lat="62.637109059538" lon="17.926962717063">
        <ele>57.8</ele>
        <time>2017-10-28T12:42:22Z</time>
      </trkpt>
      <trkpt lat="62.637125571881" lon="17.927122559896">
        <ele>57.8</ele>
        <time>2017-10-28T12:42:23Z</time>
      </trkpt>
      <trkpt lat="62.637141246034" lon="17.927267902042">
        <ele>57.6</ele>
        <time>2017-10-28T12:42:24Z</time>
      </trkpt>
      <trkpt lat="62.637159099481" lon="17.927431097635">
        <ele>57.4</ele>
        <time>2017-10-28T12:42:25Z</time>
      </trkpt>
      <trkpt lat="62.637176869109" lon="17.927586162785">
        <ele>57.2</ele>
        <time>2017-10-28T12:42:26Z</time>
      </trkpt>
      <trkpt lat="62.637187178846" lon="17.927743239591">
        <ele>57</ele>
        <time>2017-10-28T12:42:27Z</time>
      </trkpt>
      <trkpt lat="62.637206708673" lon="17.927898220922">
        <ele>56.8</ele>
        <time>2017-10-28T12:42:28Z</time>
      </trkpt>
      <trkpt lat="62.637223221016" lon="17.928058818126">
        <ele>56.6</ele>
        <time>2017-10-28T12:42:29Z</time>
      </trkpt>
      <trkpt lat="62.637240152454" lon="17.928226791402">
        <ele>56.6</ele>
        <time>2017-10-28T12:42:30Z</time>
      </trkpt>
      <trkpt lat="62.637256580978" lon="17.92838034781">
        <ele>56.4</ele>
        <time>2017-10-28T12:42:31Z</time>
      </trkpt>
      <trkpt lat="62.637275021158" lon="17.928557624995">
        <ele>56.4</ele>
        <time>2017-10-28T12:42:32Z</time>
      </trkpt>
      <trkpt lat="62.63729161732" lon="17.928723838072">
        <ele>56.4</ele>
        <time>2017-10-28T12:42:33Z</time>
      </trkpt>
      <trkpt lat="62.637306956197" lon="17.928885524923">
        <ele>56.4</ele>
        <time>2017-10-28T12:42:34Z</time>
      </trkpt>
      <trkpt lat="62.637322546531" lon="17.929072022198">
        <ele>56.2</ele>
        <time>2017-10-28T12:42:35Z</time>
      </trkpt>
      <trkpt lat="62.637335454657" lon="17.929240666026">
        <ele>56</ele>
        <time>2017-10-28T12:42:36Z</time>
      </trkpt>
      <trkpt lat="62.637344926204" lon="17.929440322884">
        <ele>56</ele>
        <time>2017-10-28T12:42:37Z</time>
      </trkpt>
      <trkpt lat="62.637349033335" lon="17.92962673634">
        <ele>55.8</ele>
        <time>2017-10-28T12:42:38Z</time>
      </trkpt>
      <trkpt lat="62.637352889009" lon="17.929803426792">
        <ele>55.6</ele>
        <time>2017-10-28T12:42:39Z</time>
      </trkpt>
      <trkpt lat="62.63735448157" lon="17.930006687867">
        <ele>55.2</ele>
        <time>2017-10-28T12:42:40Z</time>
      </trkpt>
      <trkpt lat="62.63735280519" lon="17.930218833756">
        <ele>55</ele>
        <time>2017-10-28T12:42:41Z</time>
      </trkpt>
      <trkpt lat="62.637349033335" lon="17.930427291609">
        <ele>54.8</ele>
        <time>2017-10-28T12:42:42Z</time>
      </trkpt>
      <trkpt lat="62.637340148521" lon="17.930641197697">
        <ele>54.2</ele>
        <time>2017-10-28T12:42:43Z</time>
      </trkpt>
      <trkpt lat="62.637327240395" lon="17.930827192058">
        <ele>53.8</ele>
        <time>2017-10-28T12:42:44Z</time>
      </trkpt>
      <trkpt lat="62.637306537102" lon="17.931049731503">
        <ele>53</ele>
        <time>2017-10-28T12:42:45Z</time>
      </trkpt>
      <trkpt lat="62.63729245551" lon="17.931212172725">
        <ele>52.2</ele>
        <time>2017-10-28T12:42:46Z</time>
      </trkpt>
      <trkpt lat="62.637268231819" lon="17.931385342779">
        <ele>51.8</ele>
        <time>2017-10-28T12:42:47Z</time>
      </trkpt>
      <trkpt lat="62.637243672852" lon="17.931554070426">
        <ele>51.6</ele>
        <time>2017-10-28T12:42:48Z</time>
      </trkpt>
      <trkpt lat="62.637220706446" lon="17.931694970165">
        <ele>51.8</ele>
        <time>2017-10-28T12:42:49Z</time>
      </trkpt>
      <trkpt lat="62.637195309289" lon="17.931840982863">
        <ele>52</ele>
        <time>2017-10-28T12:42:50Z</time>
      </trkpt>
      <trkpt lat="62.637168068114" lon="17.931972578693">
        <ele>52.6</ele>
        <time>2017-10-28T12:42:51Z</time>
      </trkpt>
      <trkpt lat="62.637140072568" lon="17.932093948605">
        <ele>53.2</ele>
        <time>2017-10-28T12:42:52Z</time>
      </trkpt>
      <trkpt lat="62.637104281855" lon="17.932216659621">
        <ele>53.6</ele>
        <time>2017-10-28T12:42:53Z</time>
      </trkpt>
      <trkpt lat="62.637060863613" lon="17.932309111978">
        <ele>54</ele>
        <time>2017-10-28T12:42:54Z</time>
      </trkpt>
      <trkpt lat="62.637005123978" lon="17.932385974001">
        <ele>54.2</ele>
        <time>2017-10-28T12:42:55Z</time>
      </trkpt>
      <trkpt lat="62.636958604433" lon="17.932458477436">
        <ele>54.4</ele>
        <time>2017-10-28T12:42:56Z</time>
      </trkpt>
      <trkpt lat="62.636924238643" lon="17.932557216218">
        <ele>54.6</ele>
        <time>2017-10-28T12:42:57Z</time>
      </trkpt>
      <trkpt lat="62.636907307205" lon="17.932664923633">
        <ele>54.8</ele>
        <time>2017-10-28T12:42:58Z</time>
      </trkpt>
      <trkpt lat="62.636903702988" lon="17.932743378217">
        <ele>54.8</ele>
        <time>2017-10-28T12:42:59Z</time>
      </trkpt>
      <trkpt lat="62.636904541178" lon="17.932805655734">
        <ele>55</ele>
        <time>2017-10-28T12:43:00Z</time>
      </trkpt>
      <trkpt lat="62.63690437354" lon="17.932851756184">
        <ele>55</ele>
        <time>2017-10-28T12:43:01Z</time>
      </trkpt>
      <trkpt lat="62.6368993444" lon="17.932903304869">
        <ele>55</ele>
        <time>2017-10-28T12:43:02Z</time>
      </trkpt>
      <trkpt lat="62.636893896165" lon="17.932951249337">
        <ele>55.2</ele>
        <time>2017-10-28T12:43:03Z</time>
      </trkpt>
      <trkpt lat="62.636888364111" lon="17.932998355615">
        <ele>55.2</ele>
        <time>2017-10-28T12:43:04Z</time>
      </trkpt>
      <trkpt lat="62.636878892564" lon="17.93307085905">
        <ele>55.2</ele>
        <time>2017-10-28T12:43:05Z</time>
      </trkpt>
      <trkpt lat="62.636867828456" lon="17.933144955046">
        <ele>55.2</ele>
        <time>2017-10-28T12:43:06Z</time>
      </trkpt>
      <trkpt lat="62.636850645561" lon="17.933223744906">
        <ele>55.4</ele>
        <time>2017-10-28T12:43:07Z</time>
      </trkpt>
      <trkpt lat="62.636830445182" lon="17.933308988829">
        <ele>55.4</ele>
        <time>2017-10-28T12:43:08Z</time>
      </trkpt>
      <trkpt lat="62.636810244803" lon="17.933389287431">
        <ele>55.4</ele>
        <time>2017-10-28T12:43:09Z</time>
      </trkpt>
      <trkpt lat="62.636782668352" lon="17.933471178594">
        <ele>55.6</ele>
        <time>2017-10-28T12:43:10Z</time>
      </trkpt>
      <trkpt lat="62.63675098477" lon="17.933533707568">
        <ele>55.6</ele>
        <time>2017-10-28T12:43:11Z</time>
      </trkpt>
      <trkpt lat="62.636710332555" lon="17.933556925431">
        <ele>55.6</ele>
        <time>2017-10-28T12:43:12Z</time>
      </trkpt>
      <trkpt lat="62.636666830494" lon="17.933540916002">
        <ele>55.4</ele>
        <time>2017-10-28T12:43:13Z</time>
      </trkpt>
      <trkpt lat="62.636629028125" lon="17.933495569923">
        <ele>55.4</ele>
        <time>2017-10-28T12:43:14Z</time>
      </trkpt>
      <trkpt lat="62.636591058118" lon="17.933428682361">
        <ele>55.4</ele>
        <time>2017-10-28T12:43:15Z</time>
      </trkpt>
      <trkpt lat="62.636568929902" lon="17.933388113965">
        <ele>55.6</ele>
        <time>2017-10-28T12:43:16Z</time>
      </trkpt>
      <trkpt lat="62.636519895787" lon="17.933306474259">
        <ele>55.6</ele>
        <time>2017-10-28T12:43:17Z</time>
      </trkpt>
      <trkpt lat="62.636481171409" lon="17.933257104868">
        <ele>55.6</ele>
        <time>2017-10-28T12:43:18Z</time>
      </trkpt>
      <trkpt lat="62.636444710144" lon="17.933206813468">
        <ele>55.6</ele>
        <time>2017-10-28T12:43:19Z</time>
      </trkpt>
      <trkpt lat="62.636402968282" lon="17.933148559263">
        <ele>55.8</ele>
        <time>2017-10-28T12:43:20Z</time>
      </trkpt>
      <trkpt lat="62.636366171741" lon="17.933085192099">
        <ele>55.8</ele>
        <time>2017-10-28T12:43:21Z</time>
      </trkpt>
      <trkpt lat="62.636327363544" lon="17.933032889043">
        <ele>55.8</ele>
        <time>2017-10-28T12:43:22Z</time>
      </trkpt>
      <trkpt lat="62.636291237555" lon="17.932972455544">
        <ele>56</ele>
        <time>2017-10-28T12:43:23Z</time>
      </trkpt>
      <trkpt lat="62.636257374679" lon="17.93292249942">
        <ele>56</ele>
        <time>2017-10-28T12:43:24Z</time>
      </trkpt>
      <trkpt lat="62.636223847079" lon="17.932872962391">
        <ele>56</ele>
        <time>2017-10-28T12:43:25Z</time>
      </trkpt>
      <trkpt lat="62.636196354447" lon="17.932846056492">
        <ele>56</ele>
        <time>2017-10-28T12:43:26Z</time>
      </trkpt>
      <trkpt lat="62.636166431064" lon="17.932859551351">
        <ele>56</ele>
        <time>2017-10-28T12:43:27Z</time>
      </trkpt>
      <trkpt lat="62.636144302848" lon="17.932871537468">
        <ele>56</ele>
        <time>2017-10-28T12:43:28Z</time>
      </trkpt>
      <trkpt lat="62.63610222571" lon="17.932933144433">
        <ele>55.8</ele>
        <time>2017-10-28T12:43:29Z</time>
      </trkpt>
      <trkpt lat="62.636071547956" lon="17.933002714203">
        <ele>55.8</ele>
        <time>2017-10-28T12:43:30Z</time>
      </trkpt>
      <trkpt lat="62.636048749188" lon="17.93307505">
        <ele>56</ele>
        <time>2017-10-28T12:43:31Z</time>
      </trkpt>
      <trkpt lat="62.636024022583" lon="17.933155851516">
        <ele>56.2</ele>
        <time>2017-10-28T12:43:32Z</time>
      </trkpt>
      <trkpt lat="62.635999715073" lon="17.933240927801">
        <ele>56.2</ele>
        <time>2017-10-28T12:43:33Z</time>
      </trkpt>
      <trkpt lat="62.635977419219" lon="17.9333181251">
        <ele>56.4</ele>
        <time>2017-10-28T12:43:34Z</time>
      </trkpt>
      <trkpt lat="62.635946406189" lon="17.933410493638">
        <ele>56.4</ele>
        <time>2017-10-28T12:43:35Z</time>
      </trkpt>
      <trkpt lat="62.635912710951" lon="17.933488612946">
        <ele>56.6</ele>
        <time>2017-10-28T12:43:36Z</time>
      </trkpt>
      <trkpt lat="62.635880692093" lon="17.933565894064">
        <ele>56.6</ele>
        <time>2017-10-28T12:43:37Z</time>
      </trkpt>
      <trkpt lat="62.635850265796" lon="17.933649461607">
        <ele>56.6</ele>
        <time>2017-10-28T12:43:38Z</time>
      </trkpt>
      <trkpt lat="62.635823611354" lon="17.933731939503">
        <ele>56.6</ele>
        <time>2017-10-28T12:43:39Z</time>
      </trkpt>
      <trkpt lat="62.635795112894" lon="17.933818105435">
        <ele>56.6</ele>
        <time>2017-10-28T12:43:40Z</time>
      </trkpt>
      <trkpt lat="62.635774661058" lon="17.933891866155">
        <ele>56.8</ele>
        <time>2017-10-28T12:43:41Z</time>
      </trkpt>
      <trkpt lat="62.635738870345" lon="17.934003596882">
        <ele>56.8</ele>
        <time>2017-10-28T12:43:42Z</time>
      </trkpt>
      <trkpt lat="62.635709198419" lon="17.934087164425">
        <ele>56.8</ele>
        <time>2017-10-28T12:43:43Z</time>
      </trkpt>
      <trkpt lat="62.635685477642" lon="17.934167043932">
        <ele>57</ele>
        <time>2017-10-28T12:43:44Z</time>
      </trkpt>
      <trkpt lat="62.635656140992" lon="17.934255305339">
        <ele>57.2</ele>
        <time>2017-10-28T12:43:45Z</time>
      </trkpt>
      <trkpt lat="62.635632168758" lon="17.934331664448">
        <ele>57.2</ele>
        <time>2017-10-28T12:43:46Z</time>
      </trkpt>
      <trkpt lat="62.635603418841" lon="17.934420428769">
        <ele>57.4</ele>
        <time>2017-10-28T12:43:47Z</time>
      </trkpt>
      <trkpt lat="62.635575590933" lon="17.934508103443">
        <ele>57.8</ele>
        <time>2017-10-28T12:43:48Z</time>
      </trkpt>
      <trkpt lat="62.635552959803" lon="17.934574488091">
        <ele>58</ele>
        <time>2017-10-28T12:43:49Z</time>
      </trkpt>
      <trkpt lat="62.63551884547" lon="17.934640286006">
        <ele>58.2</ele>
        <time>2017-10-28T12:43:50Z</time>
      </trkpt>
      <trkpt lat="62.63547777416" lon="17.934677753099">
        <ele>58.2</ele>
        <time>2017-10-28T12:43:51Z</time>
      </trkpt>
      <trkpt lat="62.635429662054" lon="17.934677753099">
        <ele>58.4</ele>
        <time>2017-10-28T12:43:52Z</time>
      </trkpt>
      <trkpt lat="62.635378197188" lon="17.934640872739">
        <ele>58.4</ele>
        <time>2017-10-28T12:43:53Z</time>
      </trkpt>
      <trkpt lat="62.635331258548" lon="17.934575074824">
        <ele>58.4</ele>
        <time>2017-10-28T12:43:54Z</time>
      </trkpt>
      <trkpt lat="62.635281889157" lon="17.934488489797">
        <ele>58.6</ele>
        <time>2017-10-28T12:43:55Z</time>
      </trkpt>
      <trkpt lat="62.635236794535" lon="17.934403162055">
        <ele>58.6</ele>
        <time>2017-10-28T12:43:56Z</time>
      </trkpt>
      <trkpt lat="62.635184742936" lon="17.934318421046">
        <ele>58.6</ele>
        <time>2017-10-28T12:43:57Z</time>
      </trkpt>
      <trkpt lat="62.635133194251" lon="17.934238290082">
        <ele>58.4</ele>
        <time>2017-10-28T12:43:58Z</time>
      </trkpt>
      <trkpt lat="62.635077203159" lon="17.934156147462">
        <ele>58.2</ele>
        <time>2017-10-28T12:43:59Z</time>
      </trkpt>
      <trkpt lat="62.635017356393" lon="17.934068975702">
        <ele>58</ele>
        <time>2017-10-28T12:44:00Z</time>
      </trkpt>
      <trkpt lat="62.634966394441" lon="17.933997729552">
        <ele>57.8</ele>
        <time>2017-10-28T12:44:01Z</time>
      </trkpt>
      <trkpt lat="62.634907721141" lon="17.933915084018">
        <ele>57.6</ele>
        <time>2017-10-28T12:44:02Z</time>
      </trkpt>
      <trkpt lat="62.634850556583" lon="17.933831348837">
        <ele>57.4</ele>
        <time>2017-10-28T12:44:03Z</time>
      </trkpt>
      <trkpt lat="62.634801857744" lon="17.933758510126">
        <ele>57.2</ele>
        <time>2017-10-28T12:44:04Z</time>
      </trkpt>
      <trkpt lat="62.634745950471" lon="17.933667734149">
        <ele>57.2</ele>
        <time>2017-10-28T12:44:05Z</time>
      </trkpt>
      <trkpt lat="62.634721894418" lon="17.933630350875">
        <ele>57</ele>
        <time>2017-10-28T12:44:06Z</time>
      </trkpt>
      <trkpt lat="62.634673698493" lon="17.933550555187">
        <ele>57</ele>
        <time>2017-10-28T12:44:07Z</time>
      </trkpt>
      <trkpt lat="62.634631788993" lon="17.933486685109">
        <ele>56.8</ele>
        <time>2017-10-28T12:44:08Z</time>
      </trkpt>
      <trkpt lat="62.634593232253" lon="17.93342373704">
        <ele>56.6</ele>
        <time>2017-10-28T12:44:09Z</time>
      </trkpt>
      <trkpt lat="62.634564649974" lon="17.933376882219">
        <ele>56.2</ele>
        <time>2017-10-28T12:44:10Z</time>
      </trkpt>
      <trkpt lat="62.634537157342" lon="17.933329775941">
        <ele>56.2</ele>
        <time>2017-10-28T12:44:11Z</time>
      </trkpt>
      <trkpt lat="62.634509161796" lon="17.933281999111">
        <ele>56</ele>
        <time>2017-10-28T12:44:12Z</time>
      </trkpt>
      <trkpt lat="62.634479573689" lon="17.933234138462">
        <ele>55.8</ele>
        <time>2017-10-28T12:44:13Z</time>
      </trkpt>
      <trkpt lat="62.634455266179" lon="17.933189630573">
        <ele>55.8</ele>
        <time>2017-10-28T12:44:14Z</time>
      </trkpt>
      <trkpt lat="62.63443590399" lon="17.933121737183">
        <ele>55.8</ele>
        <time>2017-10-28T12:44:15Z</time>
      </trkpt>
      <trkpt lat="62.63441997838" lon="17.933055017259">
        <ele>55.8</ele>
        <time>2017-10-28T12:44:16Z</time>
      </trkpt>
      <trkpt lat="62.634398855992" lon="17.932971282078">
        <ele>55.8</ele>
        <time>2017-10-28T12:44:17Z</time>
      </trkpt>
      <trkpt lat="62.634374967577" lon="17.932890899657">
        <ele>55.6</ele>
        <time>2017-10-28T12:44:18Z</time>
      </trkpt>
      <trkpt lat="62.63434621766" lon="17.932832393995">
        <ele>55.6</ele>
        <time>2017-10-28T12:44:19Z</time>
      </trkpt>
      <trkpt lat="62.634304894893" lon="17.932796603282">
        <ele>55.6</ele>
        <time>2017-10-28T12:44:20Z</time>
      </trkpt>
      <trkpt lat="62.634260219366" lon="17.932796351825">
        <ele>55.6</ele>
        <time>2017-10-28T12:44:21Z</time>
      </trkpt>
      <trkpt lat="62.634218058409" lon="17.932829879425">
        <ele>55.6</ele>
        <time>2017-10-28T12:44:22Z</time>
      </trkpt>
      <trkpt lat="62.634181680963" lon="17.932897521358">
        <ele>55.6</ele>
        <time>2017-10-28T12:44:23Z</time>
      </trkpt>
      <trkpt lat="62.634157457272" lon="17.932995254312">
        <ele>55.6</ele>
        <time>2017-10-28T12:44:24Z</time>
      </trkpt>
      <trkpt lat="62.634145974069" lon="17.933112014179">
        <ele>55.8</ele>
        <time>2017-10-28T12:44:25Z</time>
      </trkpt>
      <trkpt lat="62.634146057888" lon="17.933230869521">
        <ele>55.8</ele>
        <time>2017-10-28T12:44:26Z</time>
      </trkpt>
      <trkpt lat="62.634143878594" lon="17.933356765659">
        <ele>55.6</ele>
        <time>2017-10-28T12:44:27Z</time>
      </trkpt>
      <trkpt lat="62.634136753979" lon="17.933481991245">
        <ele>55.4</ele>
        <time>2017-10-28T12:44:28Z</time>
      </trkpt>
      <trkpt lat="62.634125103138" lon="17.933608474116">
        <ele>55.4</ele>
        <time>2017-10-28T12:44:29Z</time>
      </trkpt>
      <trkpt lat="62.634108423157" lon="17.933749960588">
        <ele>55.2</ele>
        <time>2017-10-28T12:44:30Z</time>
      </trkpt>
      <trkpt lat="62.634089480063" lon="17.933876946373">
        <ele>55.2</ele>
        <time>2017-10-28T12:44:31Z</time>
      </trkpt>
      <trkpt lat="62.634064418182" lon="17.934011643506">
        <ele>55.2</ele>
        <time>2017-10-28T12:44:32Z</time>
      </trkpt>
      <trkpt lat="62.634040194491" lon="17.93414877139">
        <ele>55.4</ele>
        <time>2017-10-28T12:44:33Z</time>
      </trkpt>
      <trkpt lat="62.634018569189" lon="17.934275505718">
        <ele>55.4</ele>
        <time>2017-10-28T12:44:34Z</time>
      </trkpt>
      <trkpt lat="62.633992417661" lon="17.93442369771">
        <ele>55.4</ele>
        <time>2017-10-28T12:44:35Z</time>
      </trkpt>
      <trkpt lat="62.633968361608" lon="17.93456535182">
        <ele>55.6</ele>
        <time>2017-10-28T12:44:36Z</time>
      </trkpt>
      <trkpt lat="62.63394723922" lon="17.934707341206">
        <ele>55.8</ele>
        <time>2017-10-28T12:44:37Z</time>
      </trkpt>
      <trkpt lat="62.633929972506" lon="17.934836171009">
        <ele>55.8</ele>
        <time>2017-10-28T12:44:38Z</time>
      </trkpt>
      <trkpt lat="62.633911616145" lon="17.934977322205">
        <ele>55.8</ele>
        <time>2017-10-28T12:44:39Z</time>
      </trkpt>
      <trkpt lat="62.633889907024" lon="17.935118138125">
        <ele>55.8</ele>
        <time>2017-10-28T12:44:40Z</time>
      </trkpt>
      <trkpt lat="62.633864593686" lon="17.93526775504">
        <ele>56</ele>
        <time>2017-10-28T12:44:41Z</time>
      </trkpt>
      <trkpt lat="62.633839447986" lon="17.935408235684">
        <ele>56</ele>
        <time>2017-10-28T12:44:42Z</time>
      </trkpt>
      <trkpt lat="62.633814302286" lon="17.935544022464">
        <ele>56</ele>
        <time>2017-10-28T12:44:43Z</time>
      </trkpt>
      <trkpt lat="62.633792928441" lon="17.935672014077">
        <ele>56</ele>
        <time>2017-10-28T12:44:44Z</time>
      </trkpt>
      <trkpt lat="62.63377876303" lon="17.935806040658">
        <ele>56.2</ele>
        <time>2017-10-28T12:44:45Z</time>
      </trkpt>
      <trkpt lat="62.633759400841" lon="17.935930008959">
        <ele>56.2</ele>
        <time>2017-10-28T12:44:46Z</time>
      </trkpt>
      <trkpt lat="62.633741128299" lon="17.936077698037">
        <ele>56.8</ele>
        <time>2017-10-28T12:44:47Z</time>
      </trkpt>
      <trkpt lat="62.633719670635" lon="17.93623083535">
        <ele>57.2</ele>
        <time>2017-10-28T12:44:48Z</time>
      </trkpt>
      <trkpt lat="62.63370164955" lon="17.936354216918">
        <ele>57.8</ele>
        <time>2017-10-28T12:44:49Z</time>
      </trkpt>
      <trkpt lat="62.633678264049" lon="17.936495871028">
        <ele>58</ele>
        <time>2017-10-28T12:44:50Z</time>
      </trkpt>
      <trkpt lat="62.633654291815" lon="17.936633669464">
        <ele>58.2</ele>
        <time>2017-10-28T12:44:51Z</time>
      </trkpt>
      <trkpt lat="62.63363124159" lon="17.936762415448">
        <ele>58.2</ele>
        <time>2017-10-28T12:44:52Z</time>
      </trkpt>
      <trkpt lat="62.633608861917" lon="17.936887473396">
        <ele>58.2</ele>
        <time>2017-10-28T12:44:53Z</time>
      </trkpt>
      <trkpt lat="62.633586314606" lon="17.937023427814">
        <ele>58</ele>
        <time>2017-10-28T12:44:54Z</time>
      </trkpt>
      <trkpt lat="62.63356167182" lon="17.937158376404">
        <ele>58</ele>
        <time>2017-10-28T12:44:55Z</time>
      </trkpt>
      <trkpt lat="62.633540046518" lon="17.937288882587">
        <ele>58</ele>
        <time>2017-10-28T12:44:56Z</time>
      </trkpt>
      <trkpt lat="62.633518253578" lon="17.937418718218">
        <ele>58</ele>
        <time>2017-10-28T12:44:57Z</time>
      </trkpt>
      <trkpt lat="62.633497634104" lon="17.937542435062">
        <ele>58</ele>
        <time>2017-10-28T12:44:58Z</time>
      </trkpt>
      <trkpt lat="62.633479445381" lon="17.937661206585">
        <ele>57.8</ele>
        <time>2017-10-28T12:44:59Z</time>
      </trkpt>
      <trkpt lat="62.633471063481" lon="17.937786348352">
        <ele>57.8</ele>
        <time>2017-10-28T12:45:00Z</time>
      </trkpt>
      <trkpt lat="62.633479026286" lon="17.937901767115">
        <ele>57.6</ele>
        <time>2017-10-28T12:45:01Z</time>
      </trkpt>
      <trkpt lat="62.633501741235" lon="17.937987178676">
        <ele>57.4</ele>
        <time>2017-10-28T12:45:02Z</time>
      </trkpt>
      <trkpt lat="62.633542561088" lon="17.938057418998">
        <ele>57.2</ele>
        <time>2017-10-28T12:45:03Z</time>
      </trkpt>
      <trkpt lat="62.633583632398" lon="17.938101423973">
        <ele>57.2</ele>
        <time>2017-10-28T12:45:04Z</time>
      </trkpt>
      <trkpt lat="62.63363794711" lon="17.938160935463">
        <ele>57.4</ele>
        <time>2017-10-28T12:45:05Z</time>
      </trkpt>
      <trkpt lat="62.633686394492" lon="17.93821902203">
        <ele>57.4</ele>
        <time>2017-10-28T12:45:06Z</time>
      </trkpt>
      <trkpt lat="62.633734506598" lon="17.938285993411">
        <ele>57.4</ele>
        <time>2017-10-28T12:45:07Z</time>
      </trkpt>
      <trkpt lat="62.633781109962" lon="17.938347516557">
        <ele>57.4</ele>
        <time>2017-10-28T12:45:08Z</time>
      </trkpt>
      <trkpt lat="62.63383408357" lon="17.938411218997">
        <ele>57.2</ele>
        <time>2017-10-28T12:45:09Z</time>
      </trkpt>
      <trkpt lat="62.633883033866" lon="17.938470143754">
        <ele>57</ele>
        <time>2017-10-28T12:45:10Z</time>
      </trkpt>
      <trkpt lat="62.633947071582" lon="17.938551112908">
        <ele>56.8</ele>
        <time>2017-10-28T12:45:11Z</time>
      </trkpt>
      <trkpt lat="62.634005828701" lon="17.938627807293">
        <ele>56.8</ele>
        <time>2017-10-28T12:45:12Z</time>
      </trkpt>
      <trkpt lat="62.634061400698" lon="17.938699723995">
        <ele>56.8</ele>
        <time>2017-10-28T12:45:13Z</time>
      </trkpt>
      <trkpt lat="62.634109931899" lon="17.938764180806">
        <ele>56.6</ele>
        <time>2017-10-28T12:45:14Z</time>
      </trkpt>
      <trkpt lat="62.634167180276" lon="17.938840204639">
        <ele>56.6</ele>
        <time>2017-10-28T12:45:15Z</time>
      </trkpt>
      <trkpt lat="62.634216046753" lon="17.938902901251">
        <ele>56.4</ele>
        <time>2017-10-28T12:45:16Z</time>
      </trkpt>
      <trkpt lat="62.634273378949" lon="17.938977667799">
        <ele>56.2</ele>
        <time>2017-10-28T12:45:17Z</time>
      </trkpt>
      <trkpt lat="62.634329370041" lon="17.939052434347">
        <ele>56.2</ele>
        <time>2017-10-28T12:45:18Z</time>
      </trkpt>
      <trkpt lat="62.634380331993" lon="17.939124937782">
        <ele>56</ele>
        <time>2017-10-28T12:45:19Z</time>
      </trkpt>
      <trkpt lat="62.634438837655" lon="17.939212863913">
        <ele>56.2</ele>
        <time>2017-10-28T12:45:20Z</time>
      </trkpt>
      <trkpt lat="62.634490470159" lon="17.939290396488">
        <ele>56.4</ele>
        <time>2017-10-28T12:45:21Z</time>
      </trkpt>
      <trkpt lat="62.634542940853" lon="17.939367677606">
        <ele>56.4</ele>
        <time>2017-10-28T12:45:22Z</time>
      </trkpt>
      <trkpt lat="62.634599183402" lon="17.939454933185">
        <ele>56.4</ele>
        <time>2017-10-28T12:45:23Z</time>
      </trkpt>
      <trkpt lat="62.634659030168" lon="17.939538668366">
        <ele>56.4</ele>
        <time>2017-10-28T12:45:24Z</time>
      </trkpt>
      <trkpt lat="62.634722732608" lon="17.939630366352">
        <ele>56.6</ele>
        <time>2017-10-28T12:45:25Z</time>
      </trkpt>
      <trkpt lat="62.634779729528" lon="17.939714855904">
        <ele>56.6</ele>
        <time>2017-10-28T12:45:26Z</time>
      </trkpt>
      <trkpt lat="62.634838486647" lon="17.939805631881">
        <ele>56.4</ele>
        <time>2017-10-28T12:45:27Z</time>
      </trkpt>
      <trkpt lat="62.634893639549" lon="17.939895821125">
        <ele>56.4</ele>
        <time>2017-10-28T12:45:28Z</time>
      </trkpt>
      <trkpt lat="62.634948540994" lon="17.939983831075">
        <ele>56.2</ele>
        <time>2017-10-28T12:45:29Z</time>
      </trkpt>
      <trkpt lat="62.635011572882" lon="17.940082905133">
        <ele>56.2</ele>
        <time>2017-10-28T12:45:30Z</time>
      </trkpt>
      <trkpt lat="62.635068905078" lon="17.940170579807">
        <ele>56</ele>
        <time>2017-10-28T12:45:31Z</time>
      </trkpt>
      <trkpt lat="62.635127913654" lon="17.940254231169">
        <ele>56</ele>
        <time>2017-10-28T12:45:32Z</time>
      </trkpt>
      <trkpt lat="62.635183150375" lon="17.940342660214">
        <ele>56</ele>
        <time>2017-10-28T12:45:33Z</time>
      </trkpt>
      <trkpt lat="62.635230089015" lon="17.94042849087">
        <ele>56.2</ele>
        <time>2017-10-28T12:45:34Z</time>
      </trkpt>
      <trkpt lat="62.635282559709" lon="17.940517758105">
        <ele>56</ele>
        <time>2017-10-28T12:45:35Z</time>
      </trkpt>
      <trkpt lat="62.635335533317" lon="17.940606690064">
        <ele>56</ele>
        <time>2017-10-28T12:45:36Z</time>
      </trkpt>
      <trkpt lat="62.635391859685" lon="17.940701908448">
        <ele>56</ele>
        <time>2017-10-28T12:45:37Z</time>
      </trkpt>
      <trkpt lat="62.635435110289" lon="17.940778267557">
        <ele>56</ele>
        <time>2017-10-28T12:45:38Z</time>
      </trkpt>
      <trkpt lat="62.635485485508" lon="17.940867115697">
        <ele>55.8</ele>
        <time>2017-10-28T12:45:39Z</time>
      </trkpt>
      <trkpt lat="62.635533346157" lon="17.940949342136">
        <ele>55.6</ele>
        <time>2017-10-28T12:45:40Z</time>
      </trkpt>
      <trkpt lat="62.635582715548" lon="17.941000555545">
        <ele>55.6</ele>
        <time>2017-10-28T12:45:41Z</time>
      </trkpt>
      <trkpt lat="62.635638119907" lon="17.941088230219">
        <ele>55.6</ele>
        <time>2017-10-28T12:45:42Z</time>
      </trkpt>
      <trkpt lat="62.635690422963" lon="17.941170372839">
        <ele>55.6</ele>
        <time>2017-10-28T12:45:43Z</time>
      </trkpt>
      <trkpt lat="62.63573593668" lon="17.941253353649">
        <ele>55.6</ele>
        <time>2017-10-28T12:45:44Z</time>
      </trkpt>
      <trkpt lat="62.635786479537" lon="17.941350164594">
        <ele>55.6</ele>
        <time>2017-10-28T12:45:45Z</time>
      </trkpt>
      <trkpt lat="62.635816235282" lon="17.941412777387">
        <ele>55.6</ele>
        <time>2017-10-28T12:45:46Z</time>
      </trkpt>
      <trkpt lat="62.63587759079" lon="17.941530207806">
        <ele>55.6</ele>
        <time>2017-10-28T12:45:47Z</time>
      </trkpt>
      <trkpt lat="62.635926038172" lon="17.941615535548">
        <ele>55.6</ele>
        <time>2017-10-28T12:45:48Z</time>
      </trkpt>
      <trkpt lat="62.635970965156" lon="17.941701869118">
        <ele>55.6</ele>
        <time>2017-10-28T12:45:49Z</time>
      </trkpt>
      <trkpt lat="62.636023687307" lon="17.941796165493">
        <ele>55.4</ele>
        <time>2017-10-28T12:45:50Z</time>
      </trkpt>
      <trkpt lat="62.636074481621" lon="17.941890126592">
        <ele>55.4</ele>
        <time>2017-10-28T12:45:51Z</time>
      </trkpt>
      <trkpt lat="62.636119743881" lon="17.941972604488">
        <ele>55.4</ele>
        <time>2017-10-28T12:45:52Z</time>
      </trkpt>
      <trkpt lat="62.63616844272" lon="17.94205457947">
        <ele>55.4</ele>
        <time>2017-10-28T12:45:53Z</time>
      </trkpt>
      <trkpt lat="62.6362204105" lon="17.942143176153">
        <ele>55.4</ele>
        <time>2017-10-28T12:45:54Z</time>
      </trkpt>
      <trkpt lat="62.63627321647" lon="17.942243758953">
        <ele>55.6</ele>
        <time>2017-10-28T12:45:55Z</time>
      </trkpt>
      <trkpt lat="62.636323424051" lon="17.942336295129">
        <ele>55.6</ele>
        <time>2017-10-28T12:45:56Z</time>
      </trkpt>
      <trkpt lat="62.636372625804" lon="17.942433525169">
        <ele>55.6</ele>
        <time>2017-10-28T12:45:57Z</time>
      </trkpt>
      <trkpt lat="62.636421157005" lon="17.942519942558">
        <ele>55.6</ele>
        <time>2017-10-28T12:45:58Z</time>
      </trkpt>
      <trkpt lat="62.636470777853" lon="17.942618765159">
        <ele>55.6</ele>
        <time>2017-10-28T12:45:59Z</time>
      </trkpt>
      <trkpt lat="62.636522913271" lon="17.942716079018">
        <ele>55.8</ele>
        <time>2017-10-28T12:46:00Z</time>
      </trkpt>
      <trkpt lat="62.636574545775" lon="17.942811967954">
        <ele>55.8</ele>
        <time>2017-10-28T12:46:01Z</time>
      </trkpt>
      <trkpt lat="62.636628441392" lon="17.942901821922">
        <ele>55.8</ele>
        <time>2017-10-28T12:46:02Z</time>
      </trkpt>
      <trkpt lat="62.636682337009" lon="17.942989245139">
        <ele>55.8</ele>
        <time>2017-10-28T12:46:03Z</time>
      </trkpt>
      <trkpt lat="62.636730281477" lon="17.943060491289">
        <ele>55.8</ele>
        <time>2017-10-28T12:46:04Z</time>
      </trkpt>
      <trkpt lat="62.636787613673" lon="17.943154787664">
        <ele>55.6</ele>
        <time>2017-10-28T12:46:05Z</time>
      </trkpt>
      <trkpt lat="62.636840503462" lon="17.943252017704">
        <ele>55.6</ele>
        <time>2017-10-28T12:46:06Z</time>
      </trkpt>
      <trkpt lat="62.63688928612" lon="17.94334790664">
        <ele>55.4</ele>
        <time>2017-10-28T12:46:07Z</time>
      </trkpt>
      <trkpt lat="62.636936140941" lon="17.943434826943">
        <ele>55.4</ele>
        <time>2017-10-28T12:46:08Z</time>
      </trkpt>
      <trkpt lat="62.636987773445" lon="17.943524345635">
        <ele>55.4</ele>
        <time>2017-10-28T12:46:09Z</time>
      </trkpt>
      <trkpt lat="62.637036891379" lon="17.943624006426">
        <ele>55.4</ele>
        <time>2017-10-28T12:46:10Z</time>
      </trkpt>
      <trkpt lat="62.637085590218" lon="17.943729953642">
        <ele>55.6</ele>
        <time>2017-10-28T12:46:11Z</time>
      </trkpt>
      <trkpt lat="62.637132696496" lon="17.943826680768">
        <ele>55.6</ele>
        <time>2017-10-28T12:46:12Z</time>
      </trkpt>
      <trkpt lat="62.63718349081" lon="17.943912427605">
        <ele>55.6</ele>
        <time>2017-10-28T12:46:13Z</time>
      </trkpt>
      <trkpt lat="62.637230345631" lon="17.943995156958">
        <ele>55.6</ele>
        <time>2017-10-28T12:46:14Z</time>
      </trkpt>
      <trkpt lat="62.637279966479" lon="17.944093476645">
        <ele>55.6</ele>
        <time>2017-10-28T12:46:15Z</time>
      </trkpt>
      <trkpt lat="62.637323636178" lon="17.944180816043">
        <ele>55.6</ele>
        <time>2017-10-28T12:46:16Z</time>
      </trkpt>
      <trkpt lat="62.637373592302" lon="17.944278046083">
        <ele>55.6</ele>
        <time>2017-10-28T12:46:17Z</time>
      </trkpt>
      <trkpt lat="62.637422123503" lon="17.944369408793">
        <ele>55.6</ele>
        <time>2017-10-28T12:46:18Z</time>
      </trkpt>
      <trkpt lat="62.637467218125" lon="17.94445012649">
        <ele>55.6</ele>
        <time>2017-10-28T12:46:19Z</time>
      </trkpt>
      <trkpt lat="62.637518850629" lon="17.944546769797">
        <ele>55.6</ele>
        <time>2017-10-28T12:46:20Z</time>
      </trkpt>
      <trkpt lat="62.637565034898" lon="17.944636037032">
        <ele>55.4</ele>
        <time>2017-10-28T12:46:21Z</time>
      </trkpt>
      <trkpt lat="62.637607782588" lon="17.944722705878">
        <ele>55.4</ele>
        <time>2017-10-28T12:46:22Z</time>
      </trkpt>
      <trkpt lat="62.637656313789" lon="17.944810212914">
        <ele>55.4</ele>
        <time>2017-10-28T12:46:23Z</time>
      </trkpt>
      <trkpt lat="62.637704509714" lon="17.944895959751">
        <ele>55.2</ele>
        <time>2017-10-28T12:46:24Z</time>
      </trkpt>
      <trkpt lat="62.637756142218" lon="17.944993022153">
        <ele>55.2</ele>
        <time>2017-10-28T12:46:25Z</time>
      </trkpt>
      <trkpt lat="62.637803248496" lon="17.945086480338">
        <ele>55.2</ele>
        <time>2017-10-28T12:46:26Z</time>
      </trkpt>
      <trkpt lat="62.637848929851" lon="17.945186979319">
        <ele>55</ele>
        <time>2017-10-28T12:46:27Z</time>
      </trkpt>
      <trkpt lat="62.637891006989" lon="17.945283035893">
        <ele>55</ele>
        <time>2017-10-28T12:46:28Z</time>
      </trkpt>
      <trkpt lat="62.637937777991" lon="17.945377080811">
        <ele>55</ele>
        <time>2017-10-28T12:46:29Z</time>
      </trkpt>
      <trkpt lat="62.637989326676" lon="17.945474310851">
        <ele>54.8</ele>
        <time>2017-10-28T12:46:30Z</time>
      </trkpt>
      <trkpt lat="62.638041378275" lon="17.945583191732">
        <ele>54.8</ele>
        <time>2017-10-28T12:46:31Z</time>
      </trkpt>
      <trkpt lat="62.638080940843" lon="17.945706657119">
        <ele>54.6</ele>
        <time>2017-10-28T12:46:32Z</time>
      </trkpt>
      <trkpt lat="62.638107343828" lon="17.945840096967">
        <ele>54.4</ele>
        <time>2017-10-28T12:46:33Z</time>
      </trkpt>
      <trkpt lat="62.638118575574" lon="17.94597060315">
        <ele>54.4</ele>
        <time>2017-10-28T12:46:34Z</time>
      </trkpt>
      <trkpt lat="62.638121593058" lon="17.946127260861">
        <ele>54.4</ele>
        <time>2017-10-28T12:46:35Z</time>
      </trkpt>
      <trkpt lat="62.638123604714" lon="17.946276291043">
        <ele>54.4</ele>
        <time>2017-10-28T12:46:36Z</time>
      </trkpt>
      <trkpt lat="62.638128550035" lon="17.946418615705">
        <ele>54.4</ele>
        <time>2017-10-28T12:46:37Z</time>
      </trkpt>
      <trkpt lat="62.638134249727" lon="17.94655398339">
        <ele>54.4</ele>
        <time>2017-10-28T12:46:38Z</time>
      </trkpt>
      <trkpt lat="62.638139278867" lon="17.946690524541">
        <ele>54.6</ele>
        <time>2017-10-28T12:46:39Z</time>
      </trkpt>
      <trkpt lat="62.638142212532" lon="17.946827400968">
        <ele>54.6</ele>
        <time>2017-10-28T12:46:40Z</time>
      </trkpt>
      <trkpt lat="62.638145146197" lon="17.946964947947">
        <ele>54.8</ele>
        <time>2017-10-28T12:46:41Z</time>
      </trkpt>
      <trkpt lat="62.638150845889" lon="17.947093442474">
        <ele>55</ele>
        <time>2017-10-28T12:46:42Z</time>
      </trkpt>
      <trkpt lat="62.63815411483" lon="17.947215147662">
        <ele>55.2</ele>
        <time>2017-10-28T12:46:43Z</time>
      </trkpt>
      <trkpt lat="62.638156461762" lon="17.947330063511">
        <ele>55.4</ele>
        <time>2017-10-28T12:46:44Z</time>
      </trkpt>
      <trkpt lat="62.638159060151" lon="17.947449840862">
        <ele>55.8</ele>
        <time>2017-10-28T12:46:45Z</time>
      </trkpt>
      <trkpt lat="62.638164927481" lon="17.947537766993">
        <ele>56</ele>
        <time>2017-10-28T12:46:46Z</time>
      </trkpt>
      <trkpt lat="62.638180266358" lon="17.947679085827">
        <ele>56.2</ele>
        <time>2017-10-28T12:46:47Z</time>
      </trkpt>
      <trkpt lat="62.638202143117" lon="17.947789810726">
        <ele>56.6</ele>
        <time>2017-10-28T12:46:48Z</time>
      </trkpt>
      <trkpt lat="62.638234413432" lon="17.947882011626">
        <ele>56.8</ele>
        <time>2017-10-28T12:46:49Z</time>
      </trkpt>
      <trkpt lat="62.638276239113" lon="17.947982845883">
        <ele>57</ele>
        <time>2017-10-28T12:46:50Z</time>
      </trkpt>
      <trkpt lat="62.638312365102" lon="17.948075801154">
        <ele>57</ele>
        <time>2017-10-28T12:46:51Z</time>
      </trkpt>
      <trkpt lat="62.638343881046" lon="17.948167080045">
        <ele>57.2</ele>
        <time>2017-10-28T12:46:52Z</time>
      </trkpt>
      <trkpt lat="62.638376067542" lon="17.948262549886">
        <ele>57.2</ele>
        <time>2017-10-28T12:46:53Z</time>
      </trkpt>
      <trkpt lat="62.638411774436" lon="17.948353912596">
        <ele>57.2</ele>
        <time>2017-10-28T12:46:54Z</time>
      </trkpt>
      <trkpt lat="62.638449325348" lon="17.948447203143">
        <ele>57.4</ele>
        <time>2017-10-28T12:46:55Z</time>
      </trkpt>
      <trkpt lat="62.638482769129" lon="17.948535548369">
        <ele>57.4</ele>
        <time>2017-10-28T12:46:56Z</time>
      </trkpt>
      <trkpt lat="62.638511519046" lon="17.948619702645">
        <ele>57.6</ele>
        <time>2017-10-28T12:46:57Z</time>
      </trkpt>
      <trkpt lat="62.638541693886" lon="17.948702515817">
        <ele>57.6</ele>
        <time>2017-10-28T12:46:58Z</time>
      </trkpt>
      <trkpt lat="62.638571952545" lon="17.948784071704">
        <ele>57.8</ele>
        <time>2017-10-28T12:46:59Z</time>
      </trkpt>
      <trkpt lat="62.63860506105" lon="17.94886822598">
        <ele>57.8</ele>
        <time>2017-10-28T12:47:00Z</time>
      </trkpt>
      <trkpt lat="62.638634062424" lon="17.948962187079">
        <ele>58</ele>
        <time>2017-10-28T12:47:01Z</time>
      </trkpt>
      <trkpt lat="62.638672535345" lon="17.94905178959">
        <ele>58.2</ele>
        <time>2017-10-28T12:47:02Z</time>
      </trkpt>
      <trkpt lat="62.63870732023" lon="17.949146756517">
        <ele>58.4</ele>
        <time>2017-10-28T12:47:03Z</time>
      </trkpt>
      <trkpt lat="62.638739842002" lon="17.949233844458">
        <ele>58.6</ele>
        <time>2017-10-28T12:47:04Z</time>
      </trkpt>
      <trkpt lat="62.638781332407" lon="17.949344485538">
        <ele>58.8</ele>
        <time>2017-10-28T12:47:05Z</time>
      </trkpt>
      <trkpt lat="62.638819972966" lon="17.949435848248">
        <ele>58.8</ele>
        <time>2017-10-28T12:47:06Z</time>
      </trkpt>
      <trkpt lat="62.638858697344" lon="17.94953626341">
        <ele>59</ele>
        <time>2017-10-28T12:47:07Z</time>
      </trkpt>
      <trkpt lat="62.638895829161" lon="17.949628715767">
        <ele>59</ele>
        <time>2017-10-28T12:47:08Z</time>
      </trkpt>
      <trkpt lat="62.638930781684" lon="17.949730472033">
        <ele>59</ele>
        <time>2017-10-28T12:47:09Z</time>
      </trkpt>
      <trkpt lat="62.638967494406" lon="17.949836922163">
        <ele>58.8</ele>
        <time>2017-10-28T12:47:10Z</time>
      </trkpt>
      <trkpt lat="62.639008146621" lon="17.949945132492">
        <ele>58.8</ele>
        <time>2017-10-28T12:47:11Z</time>
      </trkpt>
      <trkpt lat="62.639045613714" lon="17.950047391672">
        <ele>58.6</ele>
        <time>2017-10-28T12:47:12Z</time>
      </trkpt>
      <trkpt lat="62.639080566237" lon="17.950148812662">
        <ele>58.4</ele>
        <time>2017-10-28T12:47:13Z</time>
      </trkpt>
      <trkpt lat="62.63911300419" lon="17.950241600295">
        <ele>58.2</ele>
        <time>2017-10-28T12:47:14Z</time>
      </trkpt>
      <trkpt lat="62.639150471283" lon="17.950341344905">
        <ele>58.2</ele>
        <time>2017-10-28T12:47:15Z</time>
      </trkpt>
      <trkpt lat="62.639180227028" lon="17.950422481697">
        <ele>58.2</ele>
        <time>2017-10-28T12:47:16Z</time>
      </trkpt>
      <trkpt lat="62.639212664981" lon="17.950512587122">
        <ele>58.4</ele>
        <time>2017-10-28T12:47:17Z</time>
      </trkpt>
      <trkpt lat="62.639246360219" lon="17.950596070846">
        <ele>58.4</ele>
        <time>2017-10-28T12:47:18Z</time>
      </trkpt>
      <trkpt lat="62.639277624706" lon="17.950669328652">
        <ele>58.4</ele>
        <time>2017-10-28T12:47:19Z</time>
      </trkpt>
      <trkpt lat="62.639313080143" lon="17.950754907851">
        <ele>58.8</ele>
        <time>2017-10-28T12:47:20Z</time>
      </trkpt>
      <trkpt lat="62.639350966331" lon="17.950824142345">
        <ele>59.2</ele>
        <time>2017-10-28T12:47:21Z</time>
      </trkpt>
      <trkpt lat="62.639387259958" lon="17.950884575844">
        <ele>59.4</ele>
        <time>2017-10-28T12:47:22Z</time>
      </trkpt>
      <trkpt lat="62.639426151974" lon="17.950944590248">
        <ele>59.8</ele>
        <time>2017-10-28T12:47:23Z</time>
      </trkpt>
      <trkpt lat="62.6394642058" lon="17.951000497521">
        <ele>60</ele>
        <time>2017-10-28T12:47:24Z</time>
      </trkpt>
      <trkpt lat="62.63950779168" lon="17.951056823889">
        <ele>60.2</ele>
        <time>2017-10-28T12:47:25Z</time>
      </trkpt>
      <trkpt lat="62.639537547425" lon="17.95109781138">
        <ele>60.4</ele>
        <time>2017-10-28T12:47:26Z</time>
      </trkpt>
      <trkpt lat="62.63957736145" lon="17.951141732536">
        <ele>60.6</ele>
        <time>2017-10-28T12:47:27Z</time>
      </trkpt>
      <trkpt lat="62.639616588742" lon="17.951179786362">
        <ele>60.6</ele>
        <time>2017-10-28T12:47:28Z</time>
      </trkpt>
      <trkpt lat="62.639654977844" lon="17.951224713346">
        <ele>60.6</ele>
        <time>2017-10-28T12:47:29Z</time>
      </trkpt>
      <trkpt lat="62.639698312267" lon="17.95127131671">
        <ele>60.6</ele>
        <time>2017-10-28T12:47:30Z</time>
      </trkpt>
      <trkpt lat="62.639738210111" lon="17.951316243694">
        <ele>60.6</ele>
        <time>2017-10-28T12:47:31Z</time>
      </trkpt>
      <trkpt lat="62.639777521222" lon="17.951357817918">
        <ele>60.8</ele>
        <time>2017-10-28T12:47:32Z</time>
      </trkpt>
      <trkpt lat="62.639815491229" lon="17.951406852033">
        <ele>61.2</ele>
        <time>2017-10-28T12:47:33Z</time>
      </trkpt>
      <trkpt lat="62.639851030485" lon="17.951446330782">
        <ele>61.4</ele>
        <time>2017-10-28T12:47:34Z</time>
      </trkpt>
      <trkpt lat="62.639897717668" lon="17.951493185603">
        <ele>61.8</ele>
        <time>2017-10-28T12:47:35Z</time>
      </trkpt>
      <trkpt lat="62.639941638824" lon="17.951532496714">
        <ele>62.2</ele>
        <time>2017-10-28T12:47:36Z</time>
      </trkpt>
      <trkpt lat="62.639980111745" lon="17.951573568024">
        <ele>62.6</ele>
        <time>2017-10-28T12:47:37Z</time>
      </trkpt>
      <trkpt lat="62.640029229679" lon="17.951624949071">
        <ele>62.6</ele>
        <time>2017-10-28T12:47:38Z</time>
      </trkpt>
      <trkpt lat="62.640073989025" lon="17.951667864399">
        <ele>62.6</ele>
        <time>2017-10-28T12:47:39Z</time>
      </trkpt>
      <trkpt lat="62.640122352588" lon="17.95171136646">
        <ele>62.4</ele>
        <time>2017-10-28T12:47:40Z</time>
      </trkpt>
      <trkpt lat="62.640169877961" lon="17.951759897661">
        <ele>62.4</ele>
        <time>2017-10-28T12:47:41Z</time>
      </trkpt>
      <trkpt lat="62.640216816601" lon="17.951813541821">
        <ele>62.4</ele>
        <time>2017-10-28T12:47:42Z</time>
      </trkpt>
      <trkpt lat="62.640262414137" lon="17.951864419954">
        <ele>62.6</ele>
        <time>2017-10-28T12:47:43Z</time>
      </trkpt>
      <trkpt lat="62.640305580922" lon="17.951919824313">
        <ele>62.8</ele>
        <time>2017-10-28T12:47:44Z</time>
      </trkpt>
      <trkpt lat="62.640351932829" lon="17.9519762345">
        <ele>63</ele>
        <time>2017-10-28T12:47:45Z</time>
      </trkpt>
      <trkpt lat="62.640384957515" lon="17.952016970534">
        <ele>63</ele>
        <time>2017-10-28T12:47:46Z</time>
      </trkpt>
      <trkpt lat="62.64044404991" lon="17.952088971055">
        <ele>63</ele>
        <time>2017-10-28T12:47:47Z</time>
      </trkpt>
      <trkpt lat="62.640492581111" lon="17.952141441749">
        <ele>63.2</ele>
        <time>2017-10-28T12:47:48Z</time>
      </trkpt>
      <trkpt lat="62.640539184475" lon="17.952188883303">
        <ele>63.2</ele>
        <time>2017-10-28T12:47:49Z</time>
      </trkpt>
      <trkpt lat="62.640594840291" lon="17.952246634594">
        <ele>63</ele>
        <time>2017-10-28T12:47:50Z</time>
      </trkpt>
      <trkpt lat="62.640646221338" lon="17.952299524383">
        <ele>62.8</ele>
        <time>2017-10-28T12:47:51Z</time>
      </trkpt>
      <trkpt lat="62.64069550691" lon="17.952353922914">
        <ele>62.6</ele>
        <time>2017-10-28T12:47:52Z</time>
      </trkpt>
      <trkpt lat="62.640744876301" lon="17.952410249282">
        <ele>62.6</ele>
        <time>2017-10-28T12:47:53Z</time>
      </trkpt>
      <trkpt lat="62.640796592624" lon="17.952465569822">
        <ele>62.4</ele>
        <time>2017-10-28T12:47:54Z</time>
      </trkpt>
      <trkpt lat="62.640852416078" lon="17.952522399104">
        <ele>62.4</ele>
        <time>2017-10-28T12:47:55Z</time>
      </trkpt>
      <trkpt lat="62.64090673079" lon="17.952583000241">
        <ele>62.4</ele>
        <time>2017-10-28T12:47:56Z</time>
      </trkpt>
      <trkpt lat="62.640957525104" lon="17.952647457052">
        <ele>62.4</ele>
        <time>2017-10-28T12:47:57Z</time>
      </trkpt>
      <trkpt lat="62.641005553391" lon="17.952709986026">
        <ele>62.4</ele>
        <time>2017-10-28T12:47:58Z</time>
      </trkpt>
      <trkpt lat="62.64105592861" lon="17.952773772285">
        <ele>62.6</ele>
        <time>2017-10-28T12:47:59Z</time>
      </trkpt>
      <trkpt lat="62.6411154401" lon="17.952834876336">
        <ele>62.6</ele>
        <time>2017-10-28T12:48:00Z</time>
      </trkpt>
      <trkpt lat="62.64116740788" lon="17.952894220188">
        <ele>62.6</ele>
        <time>2017-10-28T12:48:01Z</time>
      </trkpt>
      <trkpt lat="62.641220968221" lon="17.952955156601">
        <ele>62.6</ele>
        <time>2017-10-28T12:48:02Z</time>
      </trkpt>
      <trkpt lat="62.641276121123" lon="17.953022714715">
        <ele>62.8</ele>
        <time>2017-10-28T12:48:03Z</time>
      </trkpt>
      <trkpt lat="62.641323059763" lon="17.953076191237">
        <ele>62.6</ele>
        <time>2017-10-28T12:48:04Z</time>
      </trkpt>
      <trkpt lat="62.641381397787" lon="17.953143246437">
        <ele>62.6</ele>
        <time>2017-10-28T12:48:05Z</time>
      </trkpt>
      <trkpt lat="62.641439735811" lon="17.953209463447">
        <ele>62.6</ele>
        <time>2017-10-28T12:48:06Z</time>
      </trkpt>
      <trkpt lat="62.641495810722" lon="17.953273082068">
        <ele>62.6</ele>
        <time>2017-10-28T12:48:07Z</time>
      </trkpt>
      <trkpt lat="62.641550293072" lon="17.95333577868">
        <ele>62.6</ele>
        <time>2017-10-28T12:48:08Z</time>
      </trkpt>
      <trkpt lat="62.64160242849" lon="17.95340031931">
        <ele>62.6</ele>
        <time>2017-10-28T12:48:09Z</time>
      </trkpt>
      <trkpt lat="62.641654060994" lon="17.953460333714">
        <ele>62.6</ele>
        <time>2017-10-28T12:48:10Z</time>
      </trkpt>
      <trkpt lat="62.641709381534" lon="17.953524539068">
        <ele>62.6</ele>
        <time>2017-10-28T12:48:11Z</time>
      </trkpt>
      <trkpt lat="62.641759924391" lon="17.95358388292">
        <ele>62.4</ele>
        <time>2017-10-28T12:48:12Z</time>
      </trkpt>
      <trkpt lat="62.64180694685" lon="17.953645154609">
        <ele>62.4</ele>
        <time>2017-10-28T12:48:13Z</time>
      </trkpt>
      <trkpt lat="62.641851957653" lon="17.953701732434">
        <ele>62.2</ele>
        <time>2017-10-28T12:48:14Z</time>
      </trkpt>
      <trkpt lat="62.641901410863" lon="17.953757974983">
        <ele>62.2</ele>
        <time>2017-10-28T12:48:15Z</time>
      </trkpt>
      <trkpt lat="62.641947176037" lon="17.95382444345">
        <ele>62.2</ele>
        <time>2017-10-28T12:48:16Z</time>
      </trkpt>
      <trkpt lat="62.641998137989" lon="17.953891750107">
        <ele>62.4</ele>
        <time>2017-10-28T12:48:17Z</time>
      </trkpt>
      <trkpt lat="62.642048261751" lon="17.953961403696">
        <ele>62.4</ele>
        <time>2017-10-28T12:48:18Z</time>
      </trkpt>
      <trkpt lat="62.642094362201" lon="17.954018149159">
        <ele>62.6</ele>
        <time>2017-10-28T12:48:19Z</time>
      </trkpt>
      <trkpt lat="62.642152532587" lon="17.954083947074">
        <ele>62.6</ele>
        <time>2017-10-28T12:48:20Z</time>
      </trkpt>
      <trkpt lat="62.642206512023" lon="17.954144380573">
        <ele>62.6</ele>
        <time>2017-10-28T12:48:21Z</time>
      </trkpt>
      <trkpt lat="62.642263508943" lon="17.954199365837">
        <ele>62.6</ele>
        <time>2017-10-28T12:48:22Z</time>
      </trkpt>
      <trkpt lat="62.642318326569" lon="17.954249992513">
        <ele>62.6</ele>
        <time>2017-10-28T12:48:23Z</time>
      </trkpt>
      <trkpt lat="62.642373814747" lon="17.954296595877">
        <ele>62.6</ele>
        <time>2017-10-28T12:48:24Z</time>
      </trkpt>
      <trkpt lat="62.642435337893" lon="17.954358873394">
        <ele>62.6</ele>
        <time>2017-10-28T12:48:25Z</time>
      </trkpt>
      <trkpt lat="62.642491077528" lon="17.954423414024">
        <ele>62.8</ele>
        <time>2017-10-28T12:48:26Z</time>
      </trkpt>
      <trkpt lat="62.642544470231" lon="17.954490469224">
        <ele>62.8</ele>
        <time>2017-10-28T12:48:27Z</time>
      </trkpt>
      <trkpt lat="62.642597443839" lon="17.954558111157">
        <ele>63</ele>
        <time>2017-10-28T12:48:28Z</time>
      </trkpt>
      <trkpt lat="62.642649663076" lon="17.954620137217">
        <ele>63</ele>
        <time>2017-10-28T12:48:29Z</time>
      </trkpt>
      <trkpt lat="62.64270464834" lon="17.954696663964">
        <ele>63</ele>
        <time>2017-10-28T12:48:30Z</time>
      </trkpt>
      <trkpt lat="62.642763740735" lon="17.954774699453">
        <ele>63</ele>
        <time>2017-10-28T12:48:31Z</time>
      </trkpt>
      <trkpt lat="62.642815457058" lon="17.954850136553">
        <ele>62.8</ele>
        <time>2017-10-28T12:48:32Z</time>
      </trkpt>
      <trkpt lat="62.64287144815" lon="17.954907468749">
        <ele>62.8</ele>
        <time>2017-10-28T12:48:33Z</time>
      </trkpt>
      <trkpt lat="62.642922661559" lon="17.954950467896">
        <ele>62.8</ele>
        <time>2017-10-28T12:48:34Z</time>
      </trkpt>
      <trkpt lat="62.642982759782" lon="17.955014254155">
        <ele>62.4</ele>
        <time>2017-10-28T12:48:35Z</time>
      </trkpt>
      <trkpt lat="62.643038918512" lon="17.955063539727">
        <ele>61.8</ele>
        <time>2017-10-28T12:48:36Z</time>
      </trkpt>
      <trkpt lat="62.643093317043" lon="17.955116597154">
        <ele>61.4</ele>
        <time>2017-10-28T12:48:37Z</time>
      </trkpt>
      <trkpt lat="62.643146458289" lon="17.955174935178">
        <ele>61</ele>
        <time>2017-10-28T12:48:38Z</time>
      </trkpt>
      <trkpt lat="62.643193816024" lon="17.95523176446">
        <ele>60.6</ele>
        <time>2017-10-28T12:48:39Z</time>
      </trkpt>
      <trkpt lat="62.643245532347" lon="17.955304519352">
        <ele>60.4</ele>
        <time>2017-10-28T12:48:40Z</time>
      </trkpt>
      <trkpt lat="62.643297500127" lon="17.955367886516">
        <ele>60.4</ele>
        <time>2017-10-28T12:48:41Z</time>
      </trkpt>
      <trkpt lat="62.643347037156" lon="17.955440054675">
        <ele>60.2</ele>
        <time>2017-10-28T12:48:42Z</time>
      </trkpt>
      <trkpt lat="62.643399004936" lon="17.955505265857">
        <ele>60</ele>
        <time>2017-10-28T12:48:43Z</time>
      </trkpt>
      <trkpt lat="62.643447955232" lon="17.955560837854">
        <ele>60</ele>
        <time>2017-10-28T12:48:44Z</time>
      </trkpt>
      <trkpt lat="62.643498917184" lon="17.955621774267">
        <ele>60</ele>
        <time>2017-10-28T12:48:45Z</time>
      </trkpt>
      <trkpt lat="62.643536803372" lon="17.955675083151">
        <ele>59.8</ele>
        <time>2017-10-28T12:48:46Z</time>
      </trkpt>
      <trkpt lat="62.643598326518" lon="17.955755717029">
        <ele>59.6</ele>
        <time>2017-10-28T12:48:47Z</time>
      </trkpt>
      <trkpt lat="62.643648953194" lon="17.955809445008">
        <ele>59.8</ele>
        <time>2017-10-28T12:48:48Z</time>
      </trkpt>
      <trkpt lat="62.643685246821" lon="17.955881277891">
        <ele>59.6</ele>
        <time>2017-10-28T12:48:49Z</time>
      </trkpt>
      <trkpt lat="62.643723719742" lon="17.955974903714">
        <ele>59.4</ele>
        <time>2017-10-28T12:48:50Z</time>
      </trkpt>
      <trkpt lat="62.643752888754" lon="17.956079593645">
        <ele>59.4</ele>
        <time>2017-10-28T12:48:51Z</time>
      </trkpt>
      <trkpt lat="62.643776190436" lon="17.956190318544">
        <ele>59.4</ele>
        <time>2017-10-28T12:48:52Z</time>
      </trkpt>
      <trkpt lat="62.643798067195" lon="17.956320489451">
        <ele>59.4</ele>
        <time>2017-10-28T12:48:53Z</time>
      </trkpt>
      <trkpt lat="62.643817597022" lon="17.956434818567">
        <ele>59.2</ele>
        <time>2017-10-28T12:48:54Z</time>
      </trkpt>
      <trkpt lat="62.643837126849" lon="17.956571946451">
        <ele>59</ele>
        <time>2017-10-28T12:48:55Z</time>
      </trkpt>
      <trkpt lat="62.643846095482" lon="17.956710834534">
        <ele>59</ele>
        <time>2017-10-28T12:48:56Z</time>
      </trkpt>
      <trkpt lat="62.643855734667" lon="17.956847627142">
        <ele>59</ele>
        <time>2017-10-28T12:48:57Z</time>
      </trkpt>
      <trkpt lat="62.643866463499" lon="17.956983665379">
        <ele>58.8</ele>
        <time>2017-10-28T12:48:58Z</time>
      </trkpt>
      <trkpt lat="62.643878449616" lon="17.957123894566">
        <ele>58.8</ele>
        <time>2017-10-28T12:48:59Z</time>
      </trkpt>
      <trkpt lat="62.643887502068" lon="17.957255825672">
        <ele>58.8</ele>
        <time>2017-10-28T12:49:00Z</time>
      </trkpt>
      <trkpt lat="62.643895883968" lon="17.957417009609">
        <ele>58.8</ele>
        <time>2017-10-28T12:49:01Z</time>
      </trkpt>
      <trkpt lat="62.643902002755" lon="17.957565955972">
        <ele>58.8</ele>
        <time>2017-10-28T12:49:02Z</time>
      </trkpt>
      <trkpt lat="62.643907534809" lon="17.957712555403">
        <ele>58.8</ele>
        <time>2017-10-28T12:49:03Z</time>
      </trkpt>
      <trkpt lat="62.643912731587" lon="17.957845492337">
        <ele>58.8</ele>
        <time>2017-10-28T12:49:04Z</time>
      </trkpt>
      <trkpt lat="62.643915162338" lon="17.958002401505">
        <ele>58.6</ele>
        <time>2017-10-28T12:49:05Z</time>
      </trkpt>
      <trkpt lat="62.643913402139" lon="17.95815034204">
        <ele>58.4</ele>
        <time>2017-10-28T12:49:06Z</time>
      </trkpt>
      <trkpt lat="62.643910217017" lon="17.958296270919">
        <ele>58.2</ele>
        <time>2017-10-28T12:49:07Z</time>
      </trkpt>
      <trkpt lat="62.643905942248" lon="17.958418227564">
        <ele>58</ele>
        <time>2017-10-28T12:49:08Z</time>
      </trkpt>
      <trkpt lat="62.643902170393" lon="17.958517217803">
        <ele>58</ele>
        <time>2017-10-28T12:49:09Z</time>
      </trkpt>
      <trkpt lat="62.643894961959" lon="17.95862140482">
        <ele>57.6</ele>
        <time>2017-10-28T12:49:10Z</time>
      </trkpt>
      <trkpt lat="62.643882892023" lon="17.958718215765">
        <ele>57.4</ele>
        <time>2017-10-28T12:49:11Z</time>
      </trkpt>
      <trkpt lat="62.643877862883" lon="17.958812344502">
        <ele>57.2</ele>
        <time>2017-10-28T12:49:12Z</time>
      </trkpt>
      <trkpt lat="62.64387476158" lon="17.958901025004">
        <ele>57.2</ele>
        <time>2017-10-28T12:49:13Z</time>
      </trkpt>
      <trkpt lat="62.64387057063" lon="17.958990627515">
        <ele>57.2</ele>
        <time>2017-10-28T12:49:14Z</time>
      </trkpt>
      <trkpt lat="62.643862272549" lon="17.959079391836">
        <ele>57</ele>
        <time>2017-10-28T12:49:15Z</time>
      </trkpt>
      <trkpt lat="62.643854225925" lon="17.959182070111">
        <ele>56.8</ele>
        <time>2017-10-28T12:49:16Z</time>
      </trkpt>
      <trkpt lat="62.643850956984" lon="17.959288939336">
        <ele>57</ele>
        <time>2017-10-28T12:49:17Z</time>
      </trkpt>
      <trkpt lat="62.643846095482" lon="17.959393210172">
        <ele>56.8</ele>
        <time>2017-10-28T12:49:18Z</time>
      </trkpt>
      <trkpt lat="62.6438395576" lon="17.959493541515">
        <ele>57</ele>
        <time>2017-10-28T12:49:19Z</time>
      </trkpt>
      <trkpt lat="62.643831259519" lon="17.959605858975">
        <ele>57</ele>
        <time>2017-10-28T12:49:20Z</time>
      </trkpt>
      <trkpt lat="62.643826230379" lon="17.959710800363">
        <ele>57</ele>
        <time>2017-10-28T12:49:21Z</time>
      </trkpt>
      <trkpt lat="62.643821368877" lon="17.959819429787">
        <ele>57.2</ele>
        <time>2017-10-28T12:49:22Z</time>
      </trkpt>
      <trkpt lat="62.643818435212" lon="17.959932836894">
        <ele>57.2</ele>
        <time>2017-10-28T12:49:23Z</time>
      </trkpt>
      <trkpt lat="62.643814747176" lon="17.960039035567">
        <ele>57.2</ele>
        <time>2017-10-28T12:49:24Z</time>
      </trkpt>
      <trkpt lat="62.643807622561" lon="17.960160992212">
        <ele>57.2</ele>
        <time>2017-10-28T12:49:25Z</time>
      </trkpt>
      <trkpt lat="62.643799575937" lon="17.960273561129">
        <ele>57.2</ele>
        <time>2017-10-28T12:49:26Z</time>
      </trkpt>
      <trkpt lat="62.643795049711" lon="17.960388728435">
        <ele>57.4</ele>
        <time>2017-10-28T12:49:27Z</time>
      </trkpt>
      <trkpt lat="62.643790691123" lon="17.9605006268">
        <ele>57.4</ele>
        <time>2017-10-28T12:49:28Z</time>
      </trkpt>
      <trkpt lat="62.643786416354" lon="17.960612441346">
        <ele>57.4</ele>
        <time>2017-10-28T12:49:29Z</time>
      </trkpt>
      <trkpt lat="62.643783147413" lon="17.960729201213">
        <ele>57.4</ele>
        <time>2017-10-28T12:49:30Z</time>
      </trkpt>
      <trkpt lat="62.643778872644" lon="17.960857192826">
        <ele>57.4</ele>
        <time>2017-10-28T12:49:31Z</time>
      </trkpt>
      <trkpt lat="62.643773256771" lon="17.960977976005">
        <ele>57.6</ele>
        <time>2017-10-28T12:49:32Z</time>
      </trkpt>
      <trkpt lat="62.643768814364" lon="17.961099262098">
        <ele>57.6</ele>
        <time>2017-10-28T12:49:33Z</time>
      </trkpt>
      <trkpt lat="62.643761941206" lon="17.961203700572">
        <ele>57.8</ele>
        <time>2017-10-28T12:49:34Z</time>
      </trkpt>
      <trkpt lat="62.64374987127" lon="17.961335883135">
        <ele>58</ele>
        <time>2017-10-28T12:49:35Z</time>
      </trkpt>
      <trkpt lat="62.643743081931" lon="17.961451469536">
        <ele>58.2</ele>
        <time>2017-10-28T12:49:36Z</time>
      </trkpt>
      <trkpt lat="62.643743081931" lon="17.961564122272">
        <ele>58.2</ele>
        <time>2017-10-28T12:49:37Z</time>
      </trkpt>
      <trkpt lat="62.643743249569" lon="17.961678116112">
        <ele>58.4</ele>
        <time>2017-10-28T12:49:38Z</time>
      </trkpt>
      <trkpt lat="62.64374819489" lon="17.961781464939">
        <ele>58.6</ele>
        <time>2017-10-28T12:49:39Z</time>
      </trkpt>
      <trkpt lat="62.643755654781" lon="17.961862769369">
        <ele>58.8</ele>
        <time>2017-10-28T12:49:40Z</time>
      </trkpt>
      <trkpt lat="62.643767221803" lon="17.962012134827">
        <ele>59</ele>
        <time>2017-10-28T12:49:41Z</time>
      </trkpt>
      <trkpt lat="62.643775352246" lon="17.962121434803">
        <ele>59</ele>
        <time>2017-10-28T12:49:42Z</time>
      </trkpt>
      <trkpt lat="62.643785326707" lon="17.962228890761">
        <ele>59</ele>
        <time>2017-10-28T12:49:43Z</time>
      </trkpt>
      <trkpt lat="62.643797899557" lon="17.962330647027">
        <ele>59.2</ele>
        <time>2017-10-28T12:49:44Z</time>
      </trkpt>
      <trkpt lat="62.64381357371" lon="17.962438857356">
        <ele>59.2</ele>
        <time>2017-10-28T12:49:45Z</time>
      </trkpt>
      <trkpt lat="62.643832516804" lon="17.96255586868">
        <ele>59.2</ele>
        <time>2017-10-28T12:49:46Z</time>
      </trkpt>
      <trkpt lat="62.643853052459" lon="17.962675143117">
        <ele>59.4</ele>
        <time>2017-10-28T12:49:47Z</time>
      </trkpt>
      <trkpt lat="62.643872414648" lon="17.962783521084">
        <ele>59.4</ele>
        <time>2017-10-28T12:49:48Z</time>
      </trkpt>
      <trkpt lat="62.643898649995" lon="17.962898772209">
        <ele>59.6</ele>
        <time>2017-10-28T12:49:49Z</time>
      </trkpt>
      <trkpt lat="62.64392840574" lon="17.963039336672">
        <ele>59.8</ele>
        <time>2017-10-28T12:49:50Z</time>
      </trkpt>
      <trkpt lat="62.643955982191" lon="17.963182667162">
        <ele>59.8</ele>
        <time>2017-10-28T12:49:51Z</time>
      </trkpt>
      <trkpt lat="62.643982971909" lon="17.963312418974">
        <ele>59.6</ele>
        <time>2017-10-28T12:49:52Z</time>
      </trkpt>
      <trkpt lat="62.644009458713" lon="17.963447116107">
        <ele>59.2</ele>
        <time>2017-10-28T12:49:53Z</time>
      </trkpt>
      <trkpt lat="62.644037202802" lon="17.963582567611">
        <ele>58.8</ele>
        <time>2017-10-28T12:49:54Z</time>
      </trkpt>
      <trkpt lat="62.644064443977" lon="17.963739728236">
        <ele>58.2</ele>
        <time>2017-10-28T12:49:55Z</time>
      </trkpt>
      <trkpt lat="62.6440826327" lon="17.963887165857">
        <ele>57.8</ele>
        <time>2017-10-28T12:49:56Z</time>
      </trkpt>
      <trkpt lat="62.644094786455" lon="17.964037537143">
        <ele>57.4</ele>
        <time>2017-10-28T12:49:57Z</time>
      </trkpt>
      <trkpt lat="62.644103168355" lon="17.964178520701">
        <ele>57.2</ele>
        <time>2017-10-28T12:49:58Z</time>
      </trkpt>
      <trkpt lat="62.644108784228" lon="17.964331825652">
        <ele>57</ele>
        <time>2017-10-28T12:49:59Z</time>
      </trkpt>
      <trkpt lat="62.64411364573" lon="17.964473898857">
        <ele>56.8</ele>
        <time>2017-10-28T12:50:00Z</time>
      </trkpt>
      <trkpt lat="62.644120518888" lon="17.964638267916">
        <ele>56.8</ele>
        <time>2017-10-28T12:50:01Z</time>
      </trkpt>
      <trkpt lat="62.64412538039" lon="17.964776820723">
        <ele>56.8</ele>
        <time>2017-10-28T12:50:02Z</time>
      </trkpt>
      <trkpt lat="62.644130744806" lon="17.964918893928">
        <ele>56.8</ele>
        <time>2017-10-28T12:50:03Z</time>
      </trkpt>
      <trkpt lat="62.644126805313" lon="17.965142942115">
        <ele>57</ele>
        <time>2017-10-28T12:50:05Z</time>
      </trkpt>
      <trkpt lat="62.644127643503" lon="17.96524813496">
        <ele>57.2</ele>
        <time>2017-10-28T12:50:06Z</time>
      </trkpt>
      <trkpt lat="62.644127811141" lon="17.9653537469">
        <ele>57.4</ele>
        <time>2017-10-28T12:50:07Z</time>
      </trkpt>
      <trkpt lat="62.644129152245" lon="17.965475955002">
        <ele>57.8</ele>
        <time>2017-10-28T12:50:08Z</time>
      </trkpt>
      <trkpt lat="62.6441329241" lon="17.965594223611">
        <ele>58.2</ele>
        <time>2017-10-28T12:50:09Z</time>
      </trkpt>
      <trkpt lat="62.644138875249" lon="17.965725987079">
        <ele>58.2</ele>
        <time>2017-10-28T12:50:10Z</time>
      </trkpt>
      <trkpt lat="62.644146586597" lon="17.96586420461">
        <ele>58.6</ele>
        <time>2017-10-28T12:50:11Z</time>
      </trkpt>
      <trkpt lat="62.644157734524" lon="17.966005104349">
        <ele>59</ele>
        <time>2017-10-28T12:50:12Z</time>
      </trkpt>
      <trkpt lat="62.644168295718" lon="17.966144076251">
        <ele>59.4</ele>
        <time>2017-10-28T12:50:13Z</time>
      </trkpt>
      <trkpt lat="62.644177515808" lon="17.96627910866">
        <ele>59.4</ele>
        <time>2017-10-28T12:50:14Z</time>
      </trkpt>
      <trkpt lat="62.644189669563" lon="17.966425288996">
        <ele>59.4</ele>
        <time>2017-10-28T12:50:15Z</time>
      </trkpt>
      <trkpt lat="62.644201990956" lon="17.96657163697">
        <ele>59.4</ele>
        <time>2017-10-28T12:50:16Z</time>
      </trkpt>
      <trkpt lat="62.644213725616" lon="17.96673173126">
        <ele>59.2</ele>
        <time>2017-10-28T12:50:17Z</time>
      </trkpt>
      <trkpt lat="62.644226298466" lon="17.966881180537">
        <ele>59</ele>
        <time>2017-10-28T12:50:18Z</time>
      </trkpt>
      <trkpt lat="62.644237949307" lon="17.967022499371">
        <ele>59</ele>
        <time>2017-10-28T12:50:19Z</time>
      </trkpt>
      <trkpt lat="62.644250605976" lon="17.967184605317">
        <ele>58.8</ele>
        <time>2017-10-28T12:50:20Z</time>
      </trkpt>
      <trkpt lat="62.644262340636" lon="17.967338329363">
        <ele>58.8</ele>
        <time>2017-10-28T12:50:21Z</time>
      </trkpt>
      <trkpt lat="62.644272650373" lon="17.96748191131">
        <ele>58.6</ele>
        <time>2017-10-28T12:50:22Z</time>
      </trkpt>
      <trkpt lat="62.644286480508" lon="17.967645442179">
        <ele>58.6</ele>
        <time>2017-10-28T12:50:23Z</time>
      </trkpt>
      <trkpt lat="62.644298466625" lon="17.967792125429">
        <ele>58.6</ele>
        <time>2017-10-28T12:50:24Z</time>
      </trkpt>
      <trkpt lat="62.64430978219" lon="17.967960014886">
        <ele>58.6</ele>
        <time>2017-10-28T12:50:25Z</time>
      </trkpt>
      <trkpt lat="62.644319337556" lon="17.968120528271">
        <ele>58.4</ele>
        <time>2017-10-28T12:50:26Z</time>
      </trkpt>
      <trkpt lat="62.644331826587" lon="17.968281293113">
        <ele>58.4</ele>
        <time>2017-10-28T12:50:27Z</time>
      </trkpt>
      <trkpt lat="62.644348506568" lon="17.968426970535">
        <ele>58.4</ele>
        <time>2017-10-28T12:50:28Z</time>
      </trkpt>
      <trkpt lat="62.644363091074" lon="17.96858496935">
        <ele>58.2</ele>
        <time>2017-10-28T12:50:29Z</time>
      </trkpt>
      <trkpt lat="62.644370299508" lon="17.968748081124">
        <ele>58.2</ele>
        <time>2017-10-28T12:50:30Z</time>
      </trkpt>
      <trkpt lat="62.644378597589" lon="17.968920077712">
        <ele>58.2</ele>
        <time>2017-10-28T12:50:31Z</time>
      </trkpt>
      <trkpt lat="62.644387901498" lon="17.969081764563">
        <ele>58.2</ele>
        <time>2017-10-28T12:50:32Z</time>
      </trkpt>
      <trkpt lat="62.644398378873" lon="17.969243702871">
        <ele>58.2</ele>
        <time>2017-10-28T12:50:33Z</time>
      </trkpt>
      <trkpt lat="62.644410113533" lon="17.96938627899">
        <ele>58.2</ele>
        <time>2017-10-28T12:50:34Z</time>
      </trkpt>
      <trkpt lat="62.644417154329" lon="17.969467415782">
        <ele>58.2</ele>
        <time>2017-10-28T12:50:35Z</time>
      </trkpt>
      <trkpt lat="62.644436265061" lon="17.969701103154">
        <ele>58</ele>
        <time>2017-10-28T12:50:36Z</time>
      </trkpt>
      <trkpt lat="62.644450262834" lon="17.96988919299">
        <ele>57.8</ele>
        <time>2017-10-28T12:50:37Z</time>
      </trkpt>
      <trkpt lat="62.644459650562" lon="17.970059010284">
        <ele>57.8</ele>
        <time>2017-10-28T12:50:38Z</time>
      </trkpt>
      <trkpt lat="62.644468451557" lon="17.970212985787">
        <ele>57.8</ele>
        <time>2017-10-28T12:50:39Z</time>
      </trkpt>
      <trkpt lat="62.644481694959" lon="17.970384144185">
        <ele>57.8</ele>
        <time>2017-10-28T12:50:40Z</time>
      </trkpt>
      <trkpt lat="62.644495441275" lon="17.970561672827">
        <ele>57.8</ele>
        <time>2017-10-28T12:50:41Z</time>
      </trkpt>
      <trkpt lat="62.644508265582" lon="17.970733837053">
        <ele>57.8</ele>
        <time>2017-10-28T12:50:42Z</time>
      </trkpt>
      <trkpt lat="62.644518826776" lon="17.970905246908">
        <ele>57.8</ele>
        <time>2017-10-28T12:50:43Z</time>
      </trkpt>
      <trkpt lat="62.644528214504" lon="17.971060060601">
        <ele>57.8</ele>
        <time>2017-10-28T12:50:44Z</time>
      </trkpt>
      <trkpt lat="62.644536428766" lon="17.971230883723">
        <ele>57.8</ele>
        <time>2017-10-28T12:50:45Z</time>
      </trkpt>
      <trkpt lat="62.644542296096" lon="17.971398605542">
        <ele>57.8</ele>
        <time>2017-10-28T12:50:46Z</time>
      </trkpt>
      <trkpt lat="62.644546403227" lon="17.971576637098">
        <ele>57.8</ele>
        <time>2017-10-28T12:50:47Z</time>
      </trkpt>
      <trkpt lat="62.644547995788" lon="17.971752740817">
        <ele>57.8</ele>
        <time>2017-10-28T12:50:48Z</time>
      </trkpt>
      <trkpt lat="62.64455118091" lon="17.971903531198">
        <ele>57.8</ele>
        <time>2017-10-28T12:50:49Z</time>
      </trkpt>
      <trkpt lat="62.64455621005" lon="17.972071253017">
        <ele>57.8</ele>
        <time>2017-10-28T12:50:50Z</time>
      </trkpt>
      <trkpt lat="62.644563837579" lon="17.972246602365">
        <ele>57.8</ele>
        <time>2017-10-28T12:50:51Z</time>
      </trkpt>
      <trkpt lat="62.64457465023" lon="17.972400074954">
        <ele>57.6</ele>
        <time>2017-10-28T12:50:52Z</time>
      </trkpt>
      <trkpt lat="62.644584289415" lon="17.972575424302">
        <ele>57.4</ele>
        <time>2017-10-28T12:50:53Z</time>
      </trkpt>
      <trkpt lat="62.644592922772" lon="17.972730237995">
        <ele>57</ele>
        <time>2017-10-28T12:50:54Z</time>
      </trkpt>
      <trkpt lat="62.644602059043" lon="17.972906257895">
        <ele>56.8</ele>
        <time>2017-10-28T12:50:55Z</time>
      </trkpt>
      <trkpt lat="62.644608848382" lon="17.973068699117">
        <ele>56.8</ele>
        <time>2017-10-28T12:50:56Z</time>
      </trkpt>
      <trkpt lat="62.644612787875" lon="17.973233654909">
        <ele>56.8</ele>
        <time>2017-10-28T12:50:57Z</time>
      </trkpt>
      <trkpt lat="62.644614464255" lon="17.973390647896">
        <ele>56.8</ele>
        <time>2017-10-28T12:50:58Z</time>
      </trkpt>
      <trkpt lat="62.644613039332" lon="17.973555938964">
        <ele>57</ele>
        <time>2017-10-28T12:50:59Z</time>
      </trkpt>
      <trkpt lat="62.644610189486" lon="17.973725923896">
        <ele>57</ele>
        <time>2017-10-28T12:51:00Z</time>
      </trkpt>
      <trkpt lat="62.644607172002" lon="17.973905128918">
        <ele>57</ele>
        <time>2017-10-28T12:51:01Z</time>
      </trkpt>
      <trkpt lat="62.644603819242" lon="17.974046112476">
        <ele>57</ele>
        <time>2017-10-28T12:51:02Z</time>
      </trkpt>
      <trkpt lat="62.644599628292" lon="17.974238979995">
        <ele>57</ele>
        <time>2017-10-28T12:51:03Z</time>
      </trkpt>
      <trkpt lat="62.644598706283" lon="17.974379460639">
        <ele>57</ele>
        <time>2017-10-28T12:51:04Z</time>
      </trkpt>
      <trkpt lat="62.644599209197" lon="17.974565790276">
        <ele>57</ele>
        <time>2017-10-28T12:51:05Z</time>
      </trkpt>
      <trkpt lat="62.644599544473" lon="17.974732506267">
        <ele>56.8</ele>
        <time>2017-10-28T12:51:06Z</time>
      </trkpt>
      <trkpt lat="62.644596694627" lon="17.974894360756">
        <ele>56.8</ele>
        <time>2017-10-28T12:51:07Z</time>
      </trkpt>
      <trkpt lat="62.644592671315" lon="17.975056969616">
        <ele>56.8</ele>
        <time>2017-10-28T12:51:08Z</time>
      </trkpt>
      <trkpt lat="62.644587725994" lon="17.975206502712">
        <ele>56.8</ele>
        <time>2017-10-28T12:51:09Z</time>
      </trkpt>
      <trkpt lat="62.644581271931" lon="17.975370201219">
        <ele>57</ele>
        <time>2017-10-28T12:51:10Z</time>
      </trkpt>
      <trkpt lat="62.64457465023" lon="17.975540353789">
        <ele>57</ele>
        <time>2017-10-28T12:51:11Z</time>
      </trkpt>
      <trkpt lat="62.644569537271" lon="17.975701873002">
        <ele>57</ele>
        <time>2017-10-28T12:51:12Z</time>
      </trkpt>
      <trkpt lat="62.644563083208" lon="17.975867750803">
        <ele>57</ele>
        <time>2017-10-28T12:51:13Z</time>
      </trkpt>
      <trkpt lat="62.644560065724" lon="17.97601803827">
        <ele>57.2</ele>
        <time>2017-10-28T12:51:14Z</time>
      </trkpt>
      <trkpt lat="62.644553611661" lon="17.976182574967">
        <ele>57.2</ele>
        <time>2017-10-28T12:51:15Z</time>
      </trkpt>
      <trkpt lat="62.644544978304" lon="17.97630553744">
        <ele>57.2</ele>
        <time>2017-10-28T12:51:16Z</time>
      </trkpt>
      <trkpt lat="62.644530896712" lon="17.976524891763">
        <ele>57.2</ele>
        <time>2017-10-28T12:51:17Z</time>
      </trkpt>
      <trkpt lat="62.644520754613" lon="17.976696469256">
        <ele>57.2</ele>
        <time>2017-10-28T12:51:18Z</time>
      </trkpt>
      <trkpt lat="62.644512456532" lon="17.976855306261">
        <ele>57.2</ele>
        <time>2017-10-28T12:51:19Z</time>
      </trkpt>
      <trkpt lat="62.644501811519" lon="17.977035014197">
        <ele>56.8</ele>
        <time>2017-10-28T12:51:20Z</time>
      </trkpt>
      <trkpt lat="62.644489657764" lon="17.97720491531">
        <ele>56.8</ele>
        <time>2017-10-28T12:51:21Z</time>
      </trkpt>
      <trkpt lat="62.644473815973" lon="17.977363668496">
        <ele>56.8</ele>
        <time>2017-10-28T12:51:22Z</time>
      </trkpt>
      <trkpt lat="62.644455375793" lon="17.977535665084">
        <ele>56.6</ele>
        <time>2017-10-28T12:51:23Z</time>
      </trkpt>
      <trkpt lat="62.644436432699" lon="17.9776919037">
        <ele>56.6</ele>
        <time>2017-10-28T12:51:24Z</time>
      </trkpt>
      <trkpt lat="62.644409694438" lon="17.977863397374">
        <ele>56.4</ele>
        <time>2017-10-28T12:51:25Z</time>
      </trkpt>
      <trkpt lat="62.644384548738" lon="17.978022653474">
        <ele>56.4</ele>
        <time>2017-10-28T12:51:26Z</time>
      </trkpt>
      <trkpt lat="62.644358816305" lon="17.978180652289">
        <ele>56.4</ele>
        <time>2017-10-28T12:51:27Z</time>
      </trkpt>
      <trkpt lat="62.644332497139" lon="17.978332699955">
        <ele>56.6</ele>
        <time>2017-10-28T12:51:28Z</time>
      </trkpt>
      <trkpt lat="62.644309027819" lon="17.978471923314">
        <ele>56.6</ele>
        <time>2017-10-28T12:51:29Z</time>
      </trkpt>
      <trkpt lat="62.644281954282" lon="17.978626234093">
        <ele>56.8</ele>
        <time>2017-10-28T12:51:30Z</time>
      </trkpt>
      <trkpt lat="62.644250019243" lon="17.978783729994">
        <ele>56.8</ele>
        <time>2017-10-28T12:51:31Z</time>
      </trkpt>
      <trkpt lat="62.644222694249" lon="17.978932173443">
        <ele>56.8</ele>
        <time>2017-10-28T12:51:32Z</time>
      </trkpt>
      <trkpt lat="62.644194279608" lon="17.979078018503">
        <ele>56.8</ele>
        <time>2017-10-28T12:51:33Z</time>
      </trkpt>
      <trkpt lat="62.64416477532" lon="17.979208524686">
        <ele>56.6</ele>
        <time>2017-10-28T12:51:34Z</time>
      </trkpt>
      <trkpt lat="62.644132840281" lon="17.979361494361">
        <ele>56.8</ele>
        <time>2017-10-28T12:51:35Z</time>
      </trkpt>
      <trkpt lat="62.644103755088" lon="17.979494263657">
        <ele>56.8</ele>
        <time>2017-10-28T12:51:36Z</time>
      </trkpt>
      <trkpt lat="62.644076094818" lon="17.97961471156">
        <ele>57</ele>
        <time>2017-10-28T12:51:37Z</time>
      </trkpt>
      <trkpt lat="62.644048350729" lon="17.979742703173">
        <ele>57</ele>
        <time>2017-10-28T12:51:38Z</time>
      </trkpt>
      <trkpt lat="62.644024546133" lon="17.979855439728">
        <ele>57.2</ele>
        <time>2017-10-28T12:51:39Z</time>
      </trkpt>
      <trkpt lat="62.643998310786" lon="17.979974714165">
        <ele>57.4</ele>
        <time>2017-10-28T12:51:40Z</time>
      </trkpt>
      <trkpt lat="62.643972745991" lon="17.980087366901">
        <ele>57.6</ele>
        <time>2017-10-28T12:51:41Z</time>
      </trkpt>
      <trkpt lat="62.643946091549" lon="17.980192978841">
        <ele>57.8</ele>
        <time>2017-10-28T12:51:42Z</time>
      </trkpt>
      <trkpt lat="62.643924885342" lon="17.980294986564">
        <ele>58</ele>
        <time>2017-10-28T12:51:43Z</time>
      </trkpt>
      <trkpt lat="62.643900577832" lon="17.98038919912">
        <ele>58</ele>
        <time>2017-10-28T12:51:44Z</time>
      </trkpt>
      <trkpt lat="62.643877779064" lon="17.980486177703">
        <ele>58.4</ele>
        <time>2017-10-28T12:51:45Z</time>
      </trkpt>
      <trkpt lat="62.643854728839" lon="17.980585251761">
        <ele>58.4</ele>
        <time>2017-10-28T12:51:46Z</time>
      </trkpt>
      <trkpt lat="62.643833187356" lon="17.980678542308">
        <ele>58.6</ele>
        <time>2017-10-28T12:51:47Z</time>
      </trkpt>
      <trkpt lat="62.643815166271" lon="17.980768396276">
        <ele>59</ele>
        <time>2017-10-28T12:51:48Z</time>
      </trkpt>
      <trkpt lat="62.643798989204" lon="17.980849784525">
        <ele>59.4</ele>
        <time>2017-10-28T12:51:49Z</time>
      </trkpt>
      <trkpt lat="62.643780381386" lon="17.980941650149">
        <ele>59.6</ele>
        <time>2017-10-28T12:51:50Z</time>
      </trkpt>
      <trkpt lat="62.643762108844" lon="17.981027396986">
        <ele>59.8</ele>
        <time>2017-10-28T12:51:51Z</time>
      </trkpt>
      <trkpt lat="62.643743249569" lon="17.981108785235">
        <ele>60</ele>
        <time>2017-10-28T12:51:52Z</time>
      </trkpt>
      <trkpt lat="62.643723803561" lon="17.981194867348">
        <ele>60.2</ele>
        <time>2017-10-28T12:51:53Z</time>
      </trkpt>
      <trkpt lat="62.643706872123" lon="17.981273405751">
        <ele>60.4</ele>
        <time>2017-10-28T12:51:54Z</time>
      </trkpt>
      <trkpt lat="62.643684240993" lon="17.981354542543">
        <ele>60.6</ele>
        <time>2017-10-28T12:51:55Z</time>
      </trkpt>
      <trkpt lat="62.643670159401" lon="17.981447246357">
        <ele>60.6</ele>
        <time>2017-10-28T12:51:56Z</time>
      </trkpt>
      <trkpt lat="62.643647779728" lon="17.981527880235">
        <ele>60.6</ele>
        <time>2017-10-28T12:51:57Z</time>
      </trkpt>
      <trkpt lat="62.643630345376" lon="17.981610190493">
        <ele>60.8</ele>
        <time>2017-10-28T12:51:58Z</time>
      </trkpt>
      <trkpt lat="62.643614671223" lon="17.98168923181">
        <ele>60.8</ele>
        <time>2017-10-28T12:51:59Z</time>
      </trkpt>
      <trkpt lat="62.643593465016" lon="17.981780343063">
        <ele>61</ele>
        <time>2017-10-28T12:52:00Z</time>
      </trkpt>
      <trkpt lat="62.643564044547" lon="17.981852343584">
        <ele>61.2</ele>
        <time>2017-10-28T12:52:01Z</time>
      </trkpt>
      <trkpt lat="62.643535546087" lon="17.981915291653">
        <ele>61.4</ele>
        <time>2017-10-28T12:52:02Z</time>
      </trkpt>
      <trkpt lat="62.643507466722" lon="17.981980586654">
        <ele>61.6</ele>
        <time>2017-10-28T12:52:03Z</time>
      </trkpt>
      <trkpt lat="62.643481063737" lon="17.982032302977">
        <ele>61.8</ele>
        <time>2017-10-28T12:52:04Z</time>
      </trkpt>
      <trkpt lat="62.643455331304" lon="17.982090305725">
        <ele>62.2</ele>
        <time>2017-10-28T12:52:05Z</time>
      </trkpt>
      <trkpt lat="62.64343219726" lon="17.9821426926">
        <ele>62.6</ele>
        <time>2017-10-28T12:52:06Z</time>
      </trkpt>
      <trkpt lat="62.643409482311" lon="17.98219214581">
        <ele>62.8</ele>
        <time>2017-10-28T12:52:07Z</time>
      </trkpt>
      <trkpt lat="62.643387354095" lon="17.982228355618">
        <ele>63.2</ele>
        <time>2017-10-28T12:52:08Z</time>
      </trkpt>
      <trkpt lat="62.643361034929" lon="17.982264733064">
        <ele>63.6</ele>
        <time>2017-10-28T12:52:09Z</time>
      </trkpt>
      <trkpt lat="62.643331865917" lon="17.982310414419">
        <ele>63.8</ele>
        <time>2017-10-28T12:52:10Z</time>
      </trkpt>
      <trkpt lat="62.643306552579" lon="17.982358191249">
        <ele>64.2</ele>
        <time>2017-10-28T12:52:11Z</time>
      </trkpt>
      <trkpt lat="62.643280065775" lon="17.982411332495">
        <ele>64.4</ele>
        <time>2017-10-28T12:52:12Z</time>
      </trkpt>
      <trkpt lat="62.643252740781" lon="17.982459109325">
        <ele>64.6</ele>
        <time>2017-10-28T12:52:13Z</time>
      </trkpt>
      <trkpt lat="62.643226086339" lon="17.982502024653">
        <ele>64.8</ele>
        <time>2017-10-28T12:52:14Z</time>
      </trkpt>
      <trkpt lat="62.643199850992" lon="17.982555501175">
        <ele>65</ele>
        <time>2017-10-28T12:52:15Z</time>
      </trkpt>
      <trkpt lat="62.64317403474" lon="17.982611659905">
        <ele>65</ele>
        <time>2017-10-28T12:52:16Z</time>
      </trkpt>
      <trkpt lat="62.64314888904" lon="17.982663627685">
        <ele>65.2</ele>
        <time>2017-10-28T12:52:17Z</time>
      </trkpt>
      <trkpt lat="62.643128101928" lon="17.982718864406">
        <ele>65.4</ele>
        <time>2017-10-28T12:52:18Z</time>
      </trkpt>
      <trkpt lat="62.643110835214" lon="17.982774436403">
        <ele>65.6</ele>
        <time>2017-10-28T12:52:19Z</time>
      </trkpt>
      <trkpt lat="62.643097172717" lon="17.98283922849">
        <ele>65.6</ele>
        <time>2017-10-28T12:52:20Z</time>
      </trkpt>
      <trkpt lat="62.643081666202" lon="17.982910726097">
        <ele>65.8</ele>
        <time>2017-10-28T12:52:21Z</time>
      </trkpt>
      <trkpt lat="62.643062136375" lon="17.982978200392">
        <ele>66</ele>
        <time>2017-10-28T12:52:22Z</time>
      </trkpt>
      <trkpt lat="62.643047300412" lon="17.983047434886">
        <ele>66.2</ele>
        <time>2017-10-28T12:52:23Z</time>
      </trkpt>
      <trkpt lat="62.643026429481" lon="17.983119603045">
        <ele>66.4</ele>
        <time>2017-10-28T12:52:24Z</time>
      </trkpt>
      <trkpt lat="62.64300220579" lon="17.983197638534">
        <ele>66.8</ele>
        <time>2017-10-28T12:52:25Z</time>
      </trkpt>
      <trkpt lat="62.642984436162" lon="17.98328011643">
        <ele>67</ele>
        <time>2017-10-28T12:52:26Z</time>
      </trkpt>
      <trkpt lat="62.642970270751" lon="17.983368713113">
        <ele>67.2</ele>
        <time>2017-10-28T12:52:27Z</time>
      </trkpt>
      <trkpt lat="62.642952333485" lon="17.983456387787">
        <ele>67.2</ele>
        <time>2017-10-28T12:52:28Z</time>
      </trkpt>
      <trkpt lat="62.642938168074" lon="17.983537021665">
        <ele>67.4</ele>
        <time>2017-10-28T12:52:29Z</time>
      </trkpt>
      <trkpt lat="62.642918638247" lon="17.983630898945">
        <ele>67.4</ele>
        <time>2017-10-28T12:52:30Z</time>
      </trkpt>
      <trkpt lat="62.642903467008" lon="17.983732236116">
        <ele>67.4</ele>
        <time>2017-10-28T12:52:31Z</time>
      </trkpt>
      <trkpt lat="62.642888379588" lon="17.983826783948">
        <ele>67.6</ele>
        <time>2017-10-28T12:52:32Z</time>
      </trkpt>
      <trkpt lat="62.642870358503" lon="17.983918649572">
        <ele>67.6</ele>
        <time>2017-10-28T12:52:33Z</time>
      </trkpt>
      <trkpt lat="62.642854851988" lon="17.984002552391">
        <ele>67.8</ele>
        <time>2017-10-28T12:52:34Z</time>
      </trkpt>
      <trkpt lat="62.64283792055" lon="17.984100033888">
        <ele>67.8</ele>
        <time>2017-10-28T12:52:35Z</time>
      </trkpt>
      <trkpt lat="62.642821827302" lon="17.984192653883">
        <ele>68</ele>
        <time>2017-10-28T12:52:36Z</time>
      </trkpt>
      <trkpt lat="62.642804225312" lon="17.984277897806">
        <ele>68</ele>
        <time>2017-10-28T12:52:37Z</time>
      </trkpt>
      <trkpt lat="62.642788383521" lon="17.98436976343">
        <ele>68.2</ele>
        <time>2017-10-28T12:52:38Z</time>
      </trkpt>
      <trkpt lat="62.642777738508" lon="17.984451822231">
        <ele>68.2</ele>
        <time>2017-10-28T12:52:39Z</time>
      </trkpt>
      <trkpt lat="62.642755861749" lon="17.984544274588">
        <ele>68.4</ele>
        <time>2017-10-28T12:52:40Z</time>
      </trkpt>
      <trkpt lat="62.642740439053" lon="17.984637648954">
        <ele>68.6</ele>
        <time>2017-10-28T12:52:41Z</time>
      </trkpt>
      <trkpt lat="62.642725351633" lon="17.984734292261">
        <ele>68.8</ele>
        <time>2017-10-28T12:52:42Z</time>
      </trkpt>
      <trkpt lat="62.64271722119" lon="17.984821296383">
        <ele>69</ele>
        <time>2017-10-28T12:52:43Z</time>
      </trkpt>
      <trkpt lat="62.642700541209" lon="17.984899415691">
        <ele>69.2</ele>
        <time>2017-10-28T12:52:44Z</time>
      </trkpt>
      <trkpt lat="62.642679335002" lon="17.984985330166">
        <ele>69.2</ele>
        <time>2017-10-28T12:52:45Z</time>
      </trkpt>
      <trkpt lat="62.642662319745" lon="17.985078285437">
        <ele>69.4</ele>
        <time>2017-10-28T12:52:46Z</time>
      </trkpt>
      <trkpt lat="62.642645639764" lon="17.985169648147">
        <ele>69.6</ele>
        <time>2017-10-28T12:52:47Z</time>
      </trkpt>
      <trkpt lat="62.642627115765" lon="17.985266291454">
        <ele>69.8</ele>
        <time>2017-10-28T12:52:48Z</time>
      </trkpt>
      <trkpt lat="62.642610854879" lon="17.985353966128">
        <ele>70</ele>
        <time>2017-10-28T12:52:49Z</time>
      </trkpt>
      <trkpt lat="62.642591241233" lon="17.985462427914">
        <ele>70.2</ele>
        <time>2017-10-28T12:52:50Z</time>
      </trkpt>
      <trkpt lat="62.642575231804" lon="17.985553622986">
        <ele>70.2</ele>
        <time>2017-10-28T12:52:51Z</time>
      </trkpt>
      <trkpt lat="62.642560563479" lon="17.985634843597">
        <ele>70.2</ele>
        <time>2017-10-28T12:52:52Z</time>
      </trkpt>
      <trkpt lat="62.642540698376" lon="17.985729642886">
        <ele>70.2</ele>
        <time>2017-10-28T12:52:53Z</time>
      </trkpt>
      <trkpt lat="62.642520917092" lon="17.985822598157">
        <ele>70.4</ele>
        <time>2017-10-28T12:52:54Z</time>
      </trkpt>
      <trkpt lat="62.64250096817" lon="17.985923851509">
        <ele>70.4</ele>
        <time>2017-10-28T12:52:55Z</time>
      </trkpt>
      <trkpt lat="62.642480767791" lon="17.98601764497">
        <ele>70.4</ele>
        <time>2017-10-28T12:52:56Z</time>
      </trkpt>
      <trkpt lat="62.642459645403" lon="17.986109929689">
        <ele>70.6</ele>
        <time>2017-10-28T12:52:57Z</time>
      </trkpt>
      <trkpt lat="62.642440199395" lon="17.98620288496">
        <ele>70.6</ele>
        <time>2017-10-28T12:52:58Z</time>
      </trkpt>
      <trkpt lat="62.64242385469" lon="17.986297181335">
        <ele>70.6</ele>
        <time>2017-10-28T12:52:59Z</time>
      </trkpt>
      <trkpt lat="62.64240289994" lon="17.9864006978">
        <ele>70.6</ele>
        <time>2017-10-28T12:53:00Z</time>
      </trkpt>
      <trkpt lat="62.642384375941" lon="17.986501196781">
        <ele>70.6</ele>
        <time>2017-10-28T12:53:01Z</time>
      </trkpt>
      <trkpt lat="62.642368115055" lon="17.986605551436">
        <ele>70.6</ele>
        <time>2017-10-28T12:53:02Z</time>
      </trkpt>
      <trkpt lat="62.642351183617" lon="17.986704876951">
        <ele>70.6</ele>
        <time>2017-10-28T12:53:03Z</time>
      </trkpt>
      <trkpt lat="62.642335341826" lon="17.986794479462">
        <ele>70.8</ele>
        <time>2017-10-28T12:53:04Z</time>
      </trkpt>
      <trkpt lat="62.642316985465" lon="17.986898079746">
        <ele>71</ele>
        <time>2017-10-28T12:53:05Z</time>
      </trkpt>
      <trkpt lat="62.642300892217" lon="17.987001596211">
        <ele>71.2</ele>
        <time>2017-10-28T12:53:06Z</time>
      </trkpt>
      <trkpt lat="62.642284631331" lon="17.987100334993">
        <ele>71.4</ele>
        <time>2017-10-28T12:53:07Z</time>
      </trkpt>
      <trkpt lat="62.642265604418" lon="17.987210305521">
        <ele>71.4</ele>
        <time>2017-10-28T12:53:08Z</time>
      </trkpt>
      <trkpt lat="62.64224867298" lon="17.987310385407">
        <ele>71.4</ele>
        <time>2017-10-28T12:53:09Z</time>
      </trkpt>
      <trkpt lat="62.64222520366" lon="17.98742077503">
        <ele>71.4</ele>
        <time>2017-10-28T12:53:10Z</time>
      </trkpt>
      <trkpt lat="62.642202991625" lon="17.987528733902">
        <ele>71.6</ele>
        <time>2017-10-28T12:53:11Z</time>
      </trkpt>
      <trkpt lat="62.642179606124" lon="17.987635100213">
        <ele>71.4</ele>
        <time>2017-10-28T12:53:12Z</time>
      </trkpt>
      <trkpt lat="62.64215731027" lon="17.987737862307">
        <ele>71.4</ele>
        <time>2017-10-28T12:53:13Z</time>
      </trkpt>
      <trkpt lat="62.642133338036" lon="17.987833583605">
        <ele>71.2</ele>
        <time>2017-10-28T12:53:14Z</time>
      </trkpt>
      <trkpt lat="62.642106348318" lon="17.9879345855">
        <ele>71.2</ele>
        <time>2017-10-28T12:53:15Z</time>
      </trkpt>
      <trkpt lat="62.642076592573" lon="17.988037766689">
        <ele>71.2</ele>
        <time>2017-10-28T12:53:16Z</time>
      </trkpt>
      <trkpt lat="62.642051446873" lon="17.98813826567">
        <ele>71.2</ele>
        <time>2017-10-28T12:53:17Z</time>
      </trkpt>
      <trkpt lat="62.642023786603" lon="17.988238764651">
        <ele>71.2</ele>
        <time>2017-10-28T12:53:18Z</time>
      </trkpt>
      <trkpt lat="62.6419955396" lon="17.988327193696">
        <ele>71.2</ele>
        <time>2017-10-28T12:53:19Z</time>
      </trkpt>
      <trkpt lat="62.641964023656" lon="17.988420651881">
        <ele>71.2</ele>
        <time>2017-10-28T12:53:20Z</time>
      </trkpt>
      <trkpt lat="62.641930579875" lon="17.988506985451">
        <ele>71.2</ele>
        <time>2017-10-28T12:53:21Z</time>
      </trkpt>
      <trkpt lat="62.641899734483" lon="17.988574208289">
        <ele>71.4</ele>
        <time>2017-10-28T12:53:22Z</time>
      </trkpt>
      <trkpt lat="62.641862518847" lon="17.988649980665">
        <ele>71.4</ele>
        <time>2017-10-28T12:53:23Z</time>
      </trkpt>
      <trkpt lat="62.641829494161" lon="17.988708653965">
        <ele>71.6</ele>
        <time>2017-10-28T12:53:24Z</time>
      </trkpt>
      <trkpt lat="62.64179102124" lon="17.988768836007">
        <ele>71.8</ele>
        <time>2017-10-28T12:53:25Z</time>
      </trkpt>
      <trkpt lat="62.6417608464" lon="17.988823402176">
        <ele>72</ele>
        <time>2017-10-28T12:53:26Z</time>
      </trkpt>
      <trkpt lat="62.64172396604" lon="17.988876040508">
        <ele>72.2</ele>
        <time>2017-10-28T12:53:27Z</time>
      </trkpt>
      <trkpt lat="62.641694294114" lon="17.988922727691">
        <ele>72.6</ele>
        <time>2017-10-28T12:53:28Z</time>
      </trkpt>
      <trkpt lat="62.641667052939" lon="17.988972516177">
        <ele>72.8</ele>
        <time>2017-10-28T12:53:29Z</time>
      </trkpt>
      <trkpt lat="62.64163763247" lon="17.989022891396">
        <ele>73</ele>
        <time>2017-10-28T12:53:30Z</time>
      </trkpt>
      <trkpt lat="62.641608798734" lon="17.989076451737">
        <ele>73</ele>
        <time>2017-10-28T12:53:31Z</time>
      </trkpt>
      <trkpt lat="62.641581976654" lon="17.989131939915">
        <ele>73.2</ele>
        <time>2017-10-28T12:53:32Z</time>
      </trkpt>
      <trkpt lat="62.641553478194" lon="17.989190780853">
        <ele>73.4</ele>
        <time>2017-10-28T12:53:33Z</time>
      </trkpt>
      <trkpt lat="62.641528751589" lon="17.98924132371">
        <ele>73.6</ele>
        <time>2017-10-28T12:53:34Z</time>
      </trkpt>
      <trkpt lat="62.641502851518" lon="17.989299494096">
        <ele>73.8</ele>
        <time>2017-10-28T12:53:35Z</time>
      </trkpt>
      <trkpt lat="62.641478795465" lon="17.989362442165">
        <ele>74</ele>
        <time>2017-10-28T12:53:36Z</time>
      </trkpt>
      <trkpt lat="62.641461864027" lon="17.989423881492">
        <ele>74.4</ele>
        <time>2017-10-28T12:53:37Z</time>
      </trkpt>
      <trkpt lat="62.64144149601" lon="17.989493115986">
        <ele>74.6</ele>
        <time>2017-10-28T12:53:38Z</time>
      </trkpt>
      <trkpt lat="62.641424313115" lon="17.989552962752">
        <ele>75</ele>
        <time>2017-10-28T12:53:39Z</time>
      </trkpt>
      <trkpt lat="62.641406208211" lon="17.989623454531">
        <ele>75.4</ele>
        <time>2017-10-28T12:53:40Z</time>
      </trkpt>
      <trkpt lat="62.641389276773" lon="17.989692353749">
        <ele>75.8</ele>
        <time>2017-10-28T12:53:41Z</time>
      </trkpt>
      <trkpt lat="62.641382571253" lon="17.98976435427">
        <ele>76</ele>
        <time>2017-10-28T12:53:42Z</time>
      </trkpt>
      <trkpt lat="62.641371507145" lon="17.989840964836">
        <ele>76.4</ele>
        <time>2017-10-28T12:53:43Z</time>
      </trkpt>
      <trkpt lat="62.6413668971" lon="17.989915899022">
        <ele>76.6</ele>
        <time>2017-10-28T12:53:44Z</time>
      </trkpt>
      <trkpt lat="62.641351390585" lon="17.99000156204">
        <ele>76.6</ele>
        <time>2017-10-28T12:53:45Z</time>
      </trkpt>
      <trkpt lat="62.64133839864" lon="17.990083117927">
        <ele>76.8</ele>
        <time>2017-10-28T12:53:46Z</time>
      </trkpt>
      <trkpt lat="62.641331441663" lon="17.99016836185">
        <ele>77</ele>
        <time>2017-10-28T12:53:47Z</time>
      </trkpt>
      <trkpt lat="62.641327418351" lon="17.990255114515">
        <ele>77</ele>
        <time>2017-10-28T12:53:48Z</time>
      </trkpt>
      <trkpt lat="62.641318030623" lon="17.990342789189">
        <ele>77</ele>
        <time>2017-10-28T12:53:49Z</time>
      </trkpt>
      <trkpt lat="62.641305960687" lon="17.990437085564">
        <ele>77.2</ele>
        <time>2017-10-28T12:53:50Z</time>
      </trkpt>
      <trkpt lat="62.641298668434" lon="17.990530795206">
        <ele>77.4</ele>
        <time>2017-10-28T12:53:51Z</time>
      </trkpt>
      <trkpt lat="62.64129146" lon="17.990611848179">
        <ele>77.4</ele>
        <time>2017-10-28T12:53:52Z</time>
      </trkpt>
      <trkpt lat="62.641283748652" lon="17.990712179522">
        <ele>77.4</ele>
        <time>2017-10-28T12:53:53Z</time>
      </trkpt>
      <trkpt lat="62.641275618209" lon="17.990801027662">
        <ele>77.4</ele>
        <time>2017-10-28T12:53:54Z</time>
      </trkpt>
      <trkpt lat="62.641265308472" lon="17.990895407856">
        <ele>77.6</ele>
        <time>2017-10-28T12:53:55Z</time>
      </trkpt>
      <trkpt lat="62.641260614608" lon="17.990992470258">
        <ele>77.6</ele>
        <time>2017-10-28T12:53:56Z</time>
      </trkpt>
      <trkpt lat="62.641254663459" lon="17.991089616479">
        <ele>77.8</ele>
        <time>2017-10-28T12:53:57Z</time>
      </trkpt>
      <trkpt lat="62.641243934627" lon="17.991177710248">
        <ele>77.8</ele>
        <time>2017-10-28T12:53:58Z</time>
      </trkpt>
      <trkpt lat="62.641234882175" lon="17.991264630551">
        <ele>78</ele>
        <time>2017-10-28T12:53:59Z</time>
      </trkpt>
      <trkpt lat="62.641228679569" lon="17.991364626618">
        <ele>78.2</ele>
        <time>2017-10-28T12:54:00Z</time>
      </trkpt>
      <trkpt lat="62.641217615461" lon="17.991454396767">
        <ele>78.4</ele>
        <time>2017-10-28T12:54:01Z</time>
      </trkpt>
      <trkpt lat="62.641205880801" lon="17.991540143604">
        <ele>78.6</ele>
        <time>2017-10-28T12:54:02Z</time>
      </trkpt>
      <trkpt lat="62.641194062322" lon="17.991624130242">
        <ele>78.8</ele>
        <time>2017-10-28T12:54:03Z</time>
      </trkpt>
      <trkpt lat="62.641182160024" lon="17.991701578998">
        <ele>79</ele>
        <time>2017-10-28T12:54:04Z</time>
      </trkpt>
      <trkpt lat="62.641170509183" lon="17.991790510957">
        <ele>79.2</ele>
        <time>2017-10-28T12:54:05Z</time>
      </trkpt>
      <trkpt lat="62.641157936333" lon="17.991876341613">
        <ele>79.6</ele>
        <time>2017-10-28T12:54:06Z</time>
      </trkpt>
      <trkpt lat="62.641144441474" lon="17.991951946351">
        <ele>79.8</ele>
        <time>2017-10-28T12:54:07Z</time>
      </trkpt>
      <trkpt lat="62.641128515864" lon="17.992036100627">
        <ele>80.2</ele>
        <time>2017-10-28T12:54:08Z</time>
      </trkpt>
      <trkpt lat="62.641121223611" lon="17.992118243247">
        <ele>80.2</ele>
        <time>2017-10-28T12:54:09Z</time>
      </trkpt>
      <trkpt lat="62.641110913874" lon="17.992211282337">
        <ele>80.4</ele>
        <time>2017-10-28T12:54:10Z</time>
      </trkpt>
      <trkpt lat="62.641101945241" lon="17.99229568807">
        <ele>80.6</ele>
        <time>2017-10-28T12:54:11Z</time>
      </trkpt>
      <trkpt lat="62.641086438726" lon="17.992383781839">
        <ele>80.6</ele>
        <time>2017-10-28T12:54:12Z</time>
      </trkpt>
      <trkpt lat="62.641065483976" lon="17.992463912803">
        <ele>80.8</ele>
        <time>2017-10-28T12:54:13Z</time>
      </trkpt>
      <trkpt lat="62.641050564194" lon="17.992540774826">
        <ele>80.8</ele>
        <time>2017-10-28T12:54:14Z</time>
      </trkpt>
      <trkpt lat="62.64103748843" lon="17.99262928769">
        <ele>81</ele>
        <time>2017-10-28T12:54:15Z</time>
      </trkpt>
      <trkpt lat="62.641028855073" lon="17.992712771414">
        <ele>81.2</ele>
        <time>2017-10-28T12:54:16Z</time>
      </trkpt>
      <trkpt lat="62.641019383526" lon="17.992772366723">
        <ele>81.2</ele>
        <time>2017-10-28T12:54:17Z</time>
      </trkpt>
      <trkpt lat="62.641005804848" lon="17.992868507116">
        <ele>81.6</ele>
        <time>2017-10-28T12:54:18Z</time>
      </trkpt>
      <trkpt lat="62.640996752396" lon="17.992934724126">
        <ele>81.8</ele>
        <time>2017-10-28T12:54:19Z</time>
      </trkpt>
      <trkpt lat="62.64098468246" lon="17.993010077407">
        <ele>82.2</ele>
        <time>2017-10-28T12:54:20Z</time>
      </trkpt>
      <trkpt lat="62.640975294732" lon="17.993087358525">
        <ele>82.6</ele>
        <time>2017-10-28T12:54:21Z</time>
      </trkpt>
      <trkpt lat="62.640967248108" lon="17.993152234431">
        <ele>82.6</ele>
        <time>2017-10-28T12:54:22Z</time>
      </trkpt>
      <trkpt lat="62.640953417973" lon="17.993236388707">
        <ele>83</ele>
        <time>2017-10-28T12:54:23Z</time>
      </trkpt>
      <trkpt lat="62.64094109658" lon="17.993314172739">
        <ele>83.2</ele>
        <time>2017-10-28T12:54:24Z</time>
      </trkpt>
      <trkpt lat="62.640922069667" lon="17.993401176861">
        <ele>83.6</ele>
        <time>2017-10-28T12:54:25Z</time>
      </trkpt>
      <trkpt lat="62.640905389686" lon="17.993483151843">
        <ele>83.6</ele>
        <time>2017-10-28T12:54:26Z</time>
      </trkpt>
      <trkpt lat="62.640892649198" lon="17.993578621684">
        <ele>83.6</ele>
        <time>2017-10-28T12:54:27Z</time>
      </trkpt>
      <trkpt lat="62.640877645597" lon="17.993670906403">
        <ele>83.8</ele>
        <time>2017-10-28T12:54:28Z</time>
      </trkpt>
      <trkpt lat="62.640866413851" lon="17.993764783683">
        <ele>83.8</ele>
        <time>2017-10-28T12:54:29Z</time>
      </trkpt>
      <trkpt lat="62.640854176277" lon="17.993872826374">
        <ele>83.8</ele>
        <time>2017-10-28T12:54:30Z</time>
      </trkpt>
      <trkpt lat="62.640837496296" lon="17.993975253192">
        <ele>83.8</ele>
        <time>2017-10-28T12:54:31Z</time>
      </trkpt>
      <trkpt lat="62.640818553202" lon="17.994072399413">
        <ele>83.8</ele>
        <time>2017-10-28T12:54:32Z</time>
      </trkpt>
      <trkpt lat="62.640805477438" lon="17.994181280294">
        <ele>83.8</ele>
        <time>2017-10-28T12:54:33Z</time>
      </trkpt>
      <trkpt lat="62.640791982579" lon="17.994288317157">
        <ele>83.8</ele>
        <time>2017-10-28T12:54:34Z</time>
      </trkpt>
      <trkpt lat="62.640780331738" lon="17.994413626562">
        <ele>83.6</ele>
        <time>2017-10-28T12:54:35Z</time>
      </trkpt>
      <trkpt lat="62.64076256211" lon="17.99454203727">
        <ele>83.6</ele>
        <time>2017-10-28T12:54:36Z</time>
      </trkpt>
      <trkpt lat="62.640745127758" lon="17.994662904268">
        <ele>83.4</ele>
        <time>2017-10-28T12:54:37Z</time>
      </trkpt>
      <trkpt lat="62.64072819632" lon="17.994804474559">
        <ele>82.8</ele>
        <time>2017-10-28T12:54:38Z</time>
      </trkpt>
      <trkpt lat="62.640707409208" lon="17.994935316018">
        <ele>82.4</ele>
        <time>2017-10-28T12:54:39Z</time>
      </trkpt>
      <trkpt lat="62.640685280992" lon="17.995079568517">
        <ele>82</ele>
        <time>2017-10-28T12:54:40Z</time>
      </trkpt>
      <trkpt lat="62.640664410061" lon="17.99521594203">
        <ele>81.4</ele>
        <time>2017-10-28T12:54:41Z</time>
      </trkpt>
      <trkpt lat="62.640636498334" lon="17.995354075742">
        <ele>80.8</ele>
        <time>2017-10-28T12:54:42Z</time>
      </trkpt>
      <trkpt lat="62.640605904399" lon="17.995487683228">
        <ele>81</ele>
        <time>2017-10-28T12:54:43Z</time>
      </trkpt>
      <trkpt lat="62.640577405939" lon="17.995596731747">
        <ele>80.8</ele>
        <time>2017-10-28T12:54:44Z</time>
      </trkpt>
      <trkpt lat="62.640546644366" lon="17.995727321749">
        <ele>80.4</ele>
        <time>2017-10-28T12:54:45Z</time>
      </trkpt>
      <trkpt lat="62.640517056259" lon="17.995840058304">
        <ele>80</ele>
        <time>2017-10-28T12:54:46Z</time>
      </trkpt>
      <trkpt lat="62.64048763579" lon="17.995964194243">
        <ele>80</ele>
        <time>2017-10-28T12:54:47Z</time>
      </trkpt>
      <trkpt lat="62.640445474833" lon="17.996087994906">
        <ele>79.8</ele>
        <time>2017-10-28T12:54:48Z</time>
      </trkpt>
      <trkpt lat="62.640420245314" lon="17.996212801397">
        <ele>79.4</ele>
        <time>2017-10-28T12:54:49Z</time>
      </trkpt>
      <trkpt lat="62.640383197316" lon="17.996358730276">
        <ele>79.2</ele>
        <time>2017-10-28T12:54:50Z</time>
      </trkpt>
      <trkpt lat="62.640364002765" lon="17.996513627788">
        <ele>78.8</ele>
        <time>2017-10-28T12:54:51Z</time>
      </trkpt>
      <trkpt lat="62.640337851237" lon="17.996649833663">
        <ele>78.4</ele>
        <time>2017-10-28T12:54:52Z</time>
      </trkpt>
      <trkpt lat="62.640321003618" lon="17.996817387844">
        <ele>78.2</ele>
        <time>2017-10-28T12:54:53Z</time>
      </trkpt>
      <trkpt lat="62.64030910132" lon="17.996955689194">
        <ele>77.4</ele>
        <time>2017-10-28T12:54:54Z</time>
      </trkpt>
      <trkpt lat="62.640297534298" lon="17.997120142072">
        <ele>76.8</ele>
        <time>2017-10-28T12:54:55Z</time>
      </trkpt>
      <trkpt lat="62.640288817122" lon="17.997280320181">
        <ele>75.6</ele>
        <time>2017-10-28T12:54:56Z</time>
      </trkpt>
      <trkpt lat="62.640278507385" lon="17.997439408643">
        <ele>74.8</ele>
        <time>2017-10-28T12:54:57Z</time>
      </trkpt>
      <trkpt lat="62.640268365286" lon="17.997590450481">
        <ele>74.6</ele>
        <time>2017-10-28T12:54:58Z</time>
      </trkpt>
      <trkpt lat="62.640254199875" lon="17.9977414085">
        <ele>74</ele>
        <time>2017-10-28T12:54:59Z</time>
      </trkpt>
      <trkpt lat="62.64023031146" lon="17.997920697341">
        <ele>73.6</ele>
        <time>2017-10-28T12:55:00Z</time>
      </trkpt>
      <trkpt lat="62.640215559316" lon="17.998086575142">
        <ele>73.2</ele>
        <time>2017-10-28T12:55:01Z</time>
      </trkpt>
      <trkpt lat="62.640199549887" lon="17.998252285305">
        <ele>72.8</ele>
        <time>2017-10-28T12:55:02Z</time>
      </trkpt>
      <trkpt lat="62.640183456639" lon="17.998408943016">
        <ele>71.6</ele>
        <time>2017-10-28T12:55:03Z</time>
      </trkpt>
      <trkpt lat="62.640168201581" lon="17.998559398121">
        <ele>71</ele>
        <time>2017-10-28T12:55:04Z</time>
      </trkpt>
      <trkpt lat="62.640156383102" lon="17.998721504067">
        <ele>70.4</ele>
        <time>2017-10-28T12:55:05Z</time>
      </trkpt>
      <trkpt lat="62.640142804424" lon="17.998870534249">
        <ele>70.4</ele>
        <time>2017-10-28T12:55:06Z</time>
      </trkpt>
      <trkpt lat="62.640132746144" lon="17.999018139508">
        <ele>70</ele>
        <time>2017-10-28T12:55:07Z</time>
      </trkpt>
      <trkpt lat="62.640121179122" lon="17.999175048676">
        <ele>69.6</ele>
        <time>2017-10-28T12:55:08Z</time>
      </trkpt>
      <trkpt lat="62.640105588788" lon="17.999308488524">
        <ele>69.4</ele>
        <time>2017-10-28T12:55:09Z</time>
      </trkpt>
      <trkpt lat="62.64008865735" lon="17.999451148462">
        <ele>69.2</ele>
        <time>2017-10-28T12:55:10Z</time>
      </trkpt>
      <trkpt lat="62.640068456971" lon="17.999601938843">
        <ele>68.8</ele>
        <time>2017-10-28T12:55:11Z</time>
      </trkpt>
      <trkpt lat="62.640046161117" lon="17.999747616265">
        <ele>68.2</ele>
        <time>2017-10-28T12:55:12Z</time>
      </trkpt>
      <trkpt lat="62.640023697625" lon="17.999892455497">
        <ele>67.4</ele>
        <time>2017-10-28T12:55:13Z</time>
      </trkpt>
      <trkpt lat="62.640000060667" lon="18.000033522874">
        <ele>66.8</ele>
        <time>2017-10-28T12:55:14Z</time>
      </trkpt>
      <trkpt lat="62.639969047637" lon="18.000196886105">
        <ele>66.2</ele>
        <time>2017-10-28T12:55:15Z</time>
      </trkpt>
      <trkpt lat="62.639940716815" lon="18.000345497192">
        <ele>65.2</ele>
        <time>2017-10-28T12:55:16Z</time>
      </trkpt>
      <trkpt lat="62.639906602482" lon="18.000502573998">
        <ele>64.6</ele>
        <time>2017-10-28T12:55:17Z</time>
      </trkpt>
      <trkpt lat="62.639869135389" lon="18.000655878949">
        <ele>64</ele>
        <time>2017-10-28T12:55:18Z</time>
      </trkpt>
      <trkpt lat="62.639834099047" lon="18.000801556371">
        <ele>63</ele>
        <time>2017-10-28T12:55:19Z</time>
      </trkpt>
      <trkpt lat="62.639793782108" lon="18.000952262933">
        <ele>62.2</ele>
        <time>2017-10-28T12:55:20Z</time>
      </trkpt>
      <trkpt lat="62.63975338135" lon="18.001095593423">
        <ele>61.4</ele>
        <time>2017-10-28T12:55:21Z</time>
      </trkpt>
      <trkpt lat="62.639715746619" lon="18.001229703823">
        <ele>61</ele>
        <time>2017-10-28T12:55:22Z</time>
      </trkpt>
      <trkpt lat="62.639673837119" lon="18.001370184467">
        <ele>60.6</ele>
        <time>2017-10-28T12:55:23Z</time>
      </trkpt>
      <trkpt lat="62.639635699474" lon="18.001508569636">
        <ele>60.2</ele>
        <time>2017-10-28T12:55:24Z</time>
      </trkpt>
      <trkpt lat="62.639590940128" lon="18.001653492687">
        <ele>60.4</ele>
        <time>2017-10-28T12:55:25Z</time>
      </trkpt>
      <trkpt lat="62.639555149415" lon="18.001790536752">
        <ele>60.2</ele>
        <time>2017-10-28T12:55:26Z</time>
      </trkpt>
      <trkpt lat="62.63951617358" lon="18.001927413179">
        <ele>60.6</ele>
        <time>2017-10-28T12:55:27Z</time>
      </trkpt>
      <trkpt lat="62.639478874125" lon="18.002062194131">
        <ele>60.4</ele>
        <time>2017-10-28T12:55:28Z</time>
      </trkpt>
      <trkpt lat="62.63944073648" lon="18.002180378921">
        <ele>60.4</ele>
        <time>2017-10-28T12:55:29Z</time>
      </trkpt>
      <trkpt lat="62.639399162256" lon="18.002329576741">
        <ele>60.2</ele>
        <time>2017-10-28T12:55:30Z</time>
      </trkpt>
      <trkpt lat="62.639359683507" lon="18.002456981621">
        <ele>60.2</ele>
        <time>2017-10-28T12:55:31Z</time>
      </trkpt>
      <trkpt lat="62.639323808975" lon="18.002581788112">
        <ele>60</ele>
        <time>2017-10-28T12:55:32Z</time>
      </trkpt>
      <trkpt lat="62.639289443185" lon="18.002707265155">
        <ele>60</ele>
        <time>2017-10-28T12:55:33Z</time>
      </trkpt>
      <trkpt lat="62.639264548942" lon="18.002816397493">
        <ele>60</ele>
        <time>2017-10-28T12:55:34Z</time>
      </trkpt>
      <trkpt lat="62.639230099333" lon="18.00293902469">
        <ele>60</ele>
        <time>2017-10-28T12:55:35Z</time>
      </trkpt>
      <trkpt lat="62.639192296964" lon="18.003057293299">
        <ele>60.2</ele>
        <time>2017-10-28T12:55:36Z</time>
      </trkpt>
      <trkpt lat="62.63916497197" lon="18.003159133384">
        <ele>60.2</ele>
        <time>2017-10-28T12:55:37Z</time>
      </trkpt>
      <trkpt lat="62.639131779646" lon="18.003279078373">
        <ele>60.4</ele>
        <time>2017-10-28T12:55:38Z</time>
      </trkpt>
      <trkpt lat="62.639107472136" lon="18.003387707797">
        <ele>60.4</ele>
        <time>2017-10-28T12:55:39Z</time>
      </trkpt>
      <trkpt lat="62.639077464934" lon="18.003505976406">
        <ele>60.6</ele>
        <time>2017-10-28T12:55:40Z</time>
      </trkpt>
      <trkpt lat="62.639051061949" lon="18.003615611658">
        <ele>60.6</ele>
        <time>2017-10-28T12:55:41Z</time>
      </trkpt>
      <trkpt lat="62.639029771923" lon="18.003738825588">
        <ele>60.6</ele>
        <time>2017-10-28T12:55:42Z</time>
      </trkpt>
      <trkpt lat="62.639010325915" lon="18.00385265179">
        <ele>60.6</ele>
        <time>2017-10-28T12:55:43Z</time>
      </trkpt>
      <trkpt lat="62.638992975382" lon="18.003963711965">
        <ele>60.6</ele>
        <time>2017-10-28T12:55:44Z</time>
      </trkpt>
      <trkpt lat="62.638972272089" lon="18.004096648899">
        <ele>60.8</ele>
        <time>2017-10-28T12:55:45Z</time>
      </trkpt>
      <trkpt lat="62.638949724778" lon="18.004209553092">
        <ele>60.8</ele>
        <time>2017-10-28T12:55:46Z</time>
      </trkpt>
      <trkpt lat="62.638932206607" lon="18.004331845013">
        <ele>60.8</ele>
        <time>2017-10-28T12:55:47Z</time>
      </trkpt>
      <trkpt lat="62.63891435316" lon="18.004458495522">
        <ele>61</ele>
        <time>2017-10-28T12:55:48Z</time>
      </trkpt>
      <trkpt lat="62.638899181921" lon="18.004571483534">
        <ele>61</ele>
        <time>2017-10-28T12:55:49Z</time>
      </trkpt>
      <trkpt lat="62.638880993198" lon="18.004705174839">
        <ele>61</ele>
        <time>2017-10-28T12:55:50Z</time>
      </trkpt>
      <trkpt lat="62.638862804475" lon="18.004823443448">
        <ele>61.2</ele>
        <time>2017-10-28T12:55:51Z</time>
      </trkpt>
      <trkpt lat="62.638846040675" lon="18.004925032076">
        <ele>61.2</ele>
        <time>2017-10-28T12:55:52Z</time>
      </trkpt>
      <trkpt lat="62.638829276875" lon="18.005048916558">
        <ele>61.2</ele>
        <time>2017-10-28T12:55:53Z</time>
      </trkpt>
      <trkpt lat="62.63881460855" lon="18.005156623973">
        <ele>61.2</ele>
        <time>2017-10-28T12:55:54Z</time>
      </trkpt>
      <trkpt lat="62.638798347664" lon="18.00527757479">
        <ele>61.4</ele>
        <time>2017-10-28T12:55:55Z</time>
      </trkpt>
      <trkpt lat="62.638780913312" lon="18.005391233354">
        <ele>61.4</ele>
        <time>2017-10-28T12:55:56Z</time>
      </trkpt>
      <trkpt lat="62.638763227503" lon="18.005507071212">
        <ele>61.4</ele>
        <time>2017-10-28T12:55:57Z</time>
      </trkpt>
      <trkpt lat="62.638747050436" lon="18.005622406156">
        <ele>61.6</ele>
        <time>2017-10-28T12:55:58Z</time>
      </trkpt>
      <trkpt lat="62.638730202817" lon="18.005744278982">
        <ele>61.6</ele>
        <time>2017-10-28T12:55:59Z</time>
      </trkpt>
      <trkpt lat="62.638712433189" lon="18.005872438233">
        <ele>61.6</ele>
        <time>2017-10-28T12:56:00Z</time>
      </trkpt>
      <trkpt lat="62.638693993009" lon="18.006003950244">
        <ele>61.6</ele>
        <time>2017-10-28T12:56:01Z</time>
      </trkpt>
      <trkpt lat="62.638673876449" lon="18.006134791703">
        <ele>61.6</ele>
        <time>2017-10-28T12:56:02Z</time>
      </trkpt>
      <trkpt lat="62.638653089337" lon="18.006265968438">
        <ele>61.4</ele>
        <time>2017-10-28T12:56:03Z</time>
      </trkpt>
      <trkpt lat="62.638632972777" lon="18.006389350006">
        <ele>61.4</ele>
        <time>2017-10-28T12:56:04Z</time>
      </trkpt>
      <trkpt lat="62.638612018027" lon="18.006533351048">
        <ele>61.2</ele>
        <time>2017-10-28T12:56:05Z</time>
      </trkpt>
      <trkpt lat="62.638592655838" lon="18.006672406769">
        <ele>61</ele>
        <time>2017-10-28T12:56:06Z</time>
      </trkpt>
      <trkpt lat="62.63857237164" lon="18.006798805821">
        <ele>60.8</ele>
        <time>2017-10-28T12:56:07Z</time>
      </trkpt>
      <trkpt lat="62.638547309759" lon="18.006946243442">
        <ele>60.6</ele>
        <time>2017-10-28T12:56:08Z</time>
      </trkpt>
      <trkpt lat="62.638530210683" lon="18.007069457372">
        <ele>60.6</ele>
        <time>2017-10-28T12:56:09Z</time>
      </trkpt>
      <trkpt lat="62.638514117435" lon="18.007167441783">
        <ele>60.6</ele>
        <time>2017-10-28T12:56:10Z</time>
      </trkpt>
      <trkpt lat="62.638487630631" lon="18.007333068127">
        <ele>60.4</ele>
        <time>2017-10-28T12:56:11Z</time>
      </trkpt>
      <trkpt lat="62.638465334777" lon="18.007465166871">
        <ele>60.2</ele>
        <time>2017-10-28T12:56:12Z</time>
      </trkpt>
      <trkpt lat="62.638444799122" lon="18.007599528728">
        <ele>60.2</ele>
        <time>2017-10-28T12:56:13Z</time>
      </trkpt>
      <trkpt lat="62.638425353114" lon="18.007728861445">
        <ele>59.8</ele>
        <time>2017-10-28T12:56:14Z</time>
      </trkpt>
      <trkpt lat="62.638403979269" lon="18.007865737872">
        <ele>59.6</ele>
        <time>2017-10-28T12:56:15Z</time>
      </trkpt>
      <trkpt lat="62.638387466926" lon="18.007976798047">
        <ele>59.4</ele>
        <time>2017-10-28T12:56:16Z</time>
      </trkpt>
      <trkpt lat="62.638368020918" lon="18.008113674474">
        <ele>59.2</ele>
        <time>2017-10-28T12:56:17Z</time>
      </trkpt>
      <trkpt lat="62.638347569082" lon="18.008242504277">
        <ele>59</ele>
        <time>2017-10-28T12:56:18Z</time>
      </trkpt>
      <trkpt lat="62.63832929654" lon="18.008358593592">
        <ele>59</ele>
        <time>2017-10-28T12:56:19Z</time>
      </trkpt>
      <trkpt lat="62.638308090333" lon="18.00849119525">
        <ele>59</ele>
        <time>2017-10-28T12:56:20Z</time>
      </trkpt>
      <trkpt lat="62.638290991257" lon="18.008613487171">
        <ele>58.8</ele>
        <time>2017-10-28T12:56:21Z</time>
      </trkpt>
      <trkpt lat="62.638270539421" lon="18.008722284233">
        <ele>58.8</ele>
        <time>2017-10-28T12:56:22Z</time>
      </trkpt>
      <trkpt lat="62.638243717341" lon="18.008844408516">
        <ele>58.8</ele>
        <time>2017-10-28T12:56:23Z</time>
      </trkpt>
      <trkpt lat="62.63821111175" lon="18.008952870302">
        <ele>58.8</ele>
        <time>2017-10-28T12:56:24Z</time>
      </trkpt>
      <trkpt lat="62.638181691281" lon="18.009063259925">
        <ele>59</ele>
        <time>2017-10-28T12:56:25Z</time>
      </trkpt>
      <trkpt lat="62.638150426794" lon="18.009168788046">
        <ele>59</ele>
        <time>2017-10-28T12:56:26Z</time>
      </trkpt>
      <trkpt lat="62.638116061004" lon="18.009265347534">
        <ele>58.8</ele>
        <time>2017-10-28T12:56:27Z</time>
      </trkpt>
      <trkpt lat="62.638079432101" lon="18.009357380796">
        <ele>59</ele>
        <time>2017-10-28T12:56:28Z</time>
      </trkpt>
      <trkpt lat="62.638044228121" lon="18.009448994963">
        <ele>59.2</ele>
        <time>2017-10-28T12:56:29Z</time>
      </trkpt>
      <trkpt lat="62.638003995001" lon="18.009554606903">
        <ele>59.2</ele>
        <time>2017-10-28T12:56:30Z</time>
      </trkpt>
      <trkpt lat="62.637966276451" lon="18.009646891622">
        <ele>59.2</ele>
        <time>2017-10-28T12:56:31Z</time>
      </trkpt>
      <trkpt lat="62.637929563729" lon="18.00974009835">
        <ele>59.4</ele>
        <time>2017-10-28T12:56:32Z</time>
      </trkpt>
      <trkpt lat="62.637894443568" lon="18.009829952318">
        <ele>59.4</ele>
        <time>2017-10-28T12:56:33Z</time>
      </trkpt>
      <trkpt lat="62.637856222104" lon="18.009919638648">
        <ele>59.4</ele>
        <time>2017-10-28T12:56:34Z</time>
      </trkpt>
      <trkpt lat="62.63781716245" lon="18.010011168996">
        <ele>59.6</ele>
        <time>2017-10-28T12:56:35Z</time>
      </trkpt>
      <trkpt lat="62.63777609114" lon="18.010106303561">
        <ele>59.6</ele>
        <time>2017-10-28T12:56:36Z</time>
      </trkpt>
      <trkpt lat="62.637737618219" lon="18.010194229692">
        <ele>59.8</ele>
        <time>2017-10-28T12:56:37Z</time>
      </trkpt>
      <trkpt lat="62.637694954348" lon="18.010290118628">
        <ele>60</ele>
        <time>2017-10-28T12:56:38Z</time>
      </trkpt>
      <trkpt lat="62.637658493083" lon="18.010376787474">
        <ele>60.2</ele>
        <time>2017-10-28T12:56:39Z</time>
      </trkpt>
      <trkpt lat="62.637616918859" lon="18.010473766057">
        <ele>60.2</ele>
        <time>2017-10-28T12:56:40Z</time>
      </trkpt>
      <trkpt lat="62.637578026843" lon="18.010563955301">
        <ele>60.4</ele>
        <time>2017-10-28T12:56:41Z</time>
      </trkpt>
      <trkpt lat="62.63753888337" lon="18.010655066554">
        <ele>60.4</ele>
        <time>2017-10-28T12:56:42Z</time>
      </trkpt>
      <trkpt lat="62.637504266123" lon="18.010745674893">
        <ele>60</ele>
        <time>2017-10-28T12:56:43Z</time>
      </trkpt>
      <trkpt lat="62.637471660532" lon="18.010830332083">
        <ele>60</ele>
        <time>2017-10-28T12:56:44Z</time>
      </trkpt>
      <trkpt lat="62.637433690525" lon="18.010924377001">
        <ele>60</ele>
        <time>2017-10-28T12:56:45Z</time>
      </trkpt>
      <trkpt lat="62.637400330563" lon="18.011012219313">
        <ele>60</ele>
        <time>2017-10-28T12:56:46Z</time>
      </trkpt>
      <trkpt lat="62.637364958945" lon="18.011102408557">
        <ele>60</ele>
        <time>2017-10-28T12:56:47Z</time>
      </trkpt>
      <trkpt lat="62.637326988938" lon="18.011188909765">
        <ele>59.8</ele>
        <time>2017-10-28T12:56:48Z</time>
      </trkpt>
      <trkpt lat="62.637292120234" lon="18.011270884747">
        <ele>60</ele>
        <time>2017-10-28T12:56:49Z</time>
      </trkpt>
      <trkpt lat="62.637253479675" lon="18.011368450063">
        <ele>60</ele>
        <time>2017-10-28T12:56:50Z</time>
      </trkpt>
      <trkpt lat="62.637218443333" lon="18.01145754966">
        <ele>60.2</ele>
        <time>2017-10-28T12:56:51Z</time>
      </trkpt>
      <trkpt lat="62.63718768176" lon="18.011534244045">
        <ele>60.2</ele>
        <time>2017-10-28T12:56:52Z</time>
      </trkpt>
      <trkpt lat="62.63715247778" lon="18.011623427461">
        <ele>60.2</ele>
        <time>2017-10-28T12:56:53Z</time>
      </trkpt>
      <trkpt lat="62.637118447266" lon="18.011704312796">
        <ele>60.4</ele>
        <time>2017-10-28T12:56:54Z</time>
      </trkpt>
      <trkpt lat="62.637084668209" lon="18.011787712701">
        <ele>60.4</ele>
        <time>2017-10-28T12:56:55Z</time>
      </trkpt>
      <trkpt lat="62.637052230256" lon="18.011868933312">
        <ele>60.6</ele>
        <time>2017-10-28T12:56:56Z</time>
      </trkpt>
      <trkpt lat="62.637017948285" lon="18.011946046792">
        <ele>60.6</ele>
        <time>2017-10-28T12:56:57Z</time>
      </trkpt>
      <trkpt lat="62.636986767617" lon="18.012018634046">
        <ele>60.8</ele>
        <time>2017-10-28T12:56:58Z</time>
      </trkpt>
      <trkpt lat="62.636959945537" lon="18.012090047834">
        <ele>61</ele>
        <time>2017-10-28T12:56:59Z</time>
      </trkpt>
      <trkpt lat="62.636927172308" lon="18.012172274273">
        <ele>61</ele>
        <time>2017-10-28T12:57:00Z</time>
      </trkpt>
      <trkpt lat="62.636894566717" lon="18.012252237599">
        <ele>61.2</ele>
        <time>2017-10-28T12:57:01Z</time>
      </trkpt>
      <trkpt lat="62.636862296402" lon="18.012329015803">
        <ele>61.4</ele>
        <time>2017-10-28T12:57:02Z</time>
      </trkpt>
      <trkpt lat="62.63682893644" lon="18.012410152595">
        <ele>61.4</ele>
        <time>2017-10-28T12:57:03Z</time>
      </trkpt>
      <trkpt lat="62.636799683609" lon="18.012483326582">
        <ele>61.6</ele>
        <time>2017-10-28T12:57:04Z</time>
      </trkpt>
      <trkpt lat="62.636764647267" lon="18.012573096731">
        <ele>61.6</ele>
        <time>2017-10-28T12:57:05Z</time>
      </trkpt>
      <trkpt lat="62.636731622581" lon="18.012660184672">
        <ele>61.8</ele>
        <time>2017-10-28T12:57:06Z</time>
      </trkpt>
      <trkpt lat="62.636701363922" lon="18.012736962876">
        <ele>61.8</ele>
        <time>2017-10-28T12:57:07Z</time>
      </trkpt>
      <trkpt lat="62.636663226277" lon="18.012833187088">
        <ele>62</ele>
        <time>2017-10-28T12:57:08Z</time>
      </trkpt>
      <trkpt lat="62.636629614858" lon="18.012920777943">
        <ele>62</ele>
        <time>2017-10-28T12:57:09Z</time>
      </trkpt>
      <trkpt lat="62.636591644851" lon="18.0130132303">
        <ele>62</ele>
        <time>2017-10-28T12:57:10Z</time>
      </trkpt>
      <trkpt lat="62.636550238265" lon="18.013105934114">
        <ele>62</ele>
        <time>2017-10-28T12:57:11Z</time>
      </trkpt>
      <trkpt lat="62.636509921326" lon="18.013203415611">
        <ele>62</ele>
        <time>2017-10-28T12:57:12Z</time>
      </trkpt>
      <trkpt lat="62.636473040966" lon="18.013309279008">
        <ele>62</ele>
        <time>2017-10-28T12:57:13Z</time>
      </trkpt>
      <trkpt lat="62.636439681004" lon="18.013407682514">
        <ele>62</ele>
        <time>2017-10-28T12:57:14Z</time>
      </trkpt>
      <trkpt lat="62.636398861151" lon="18.013515976662">
        <ele>61.8</ele>
        <time>2017-10-28T12:57:15Z</time>
      </trkpt>
      <trkpt lat="62.636356951651" lon="18.013618654937">
        <ele>61.8</ele>
        <time>2017-10-28T12:57:16Z</time>
      </trkpt>
      <trkpt lat="62.636316467074" lon="18.013715214425">
        <ele>61.8</ele>
        <time>2017-10-28T12:57:17Z</time>
      </trkpt>
      <trkpt lat="62.636286795148" lon="18.013786963489">
        <ele>61.8</ele>
        <time>2017-10-28T12:57:18Z</time>
      </trkpt>
      <trkpt lat="62.636242371078" lon="18.013904813003">
        <ele>62</ele>
        <time>2017-10-28T12:57:19Z</time>
      </trkpt>
      <trkpt lat="62.63620029394" lon="18.014010508762">
        <ele>62</ele>
        <time>2017-10-28T12:57:20Z</time>
      </trkpt>
      <trkpt lat="62.636165425236" lon="18.014101452377">
        <ele>62</ele>
        <time>2017-10-28T12:57:21Z</time>
      </trkpt>
      <trkpt lat="62.636134663663" lon="18.014185271377">
        <ele>62</ele>
        <time>2017-10-28T12:57:22Z</time>
      </trkpt>
      <trkpt lat="62.636093508534" lon="18.014285854177">
        <ele>62</ele>
        <time>2017-10-28T12:57:23Z</time>
      </trkpt>
      <trkpt lat="62.636055538527" lon="18.014374869955">
        <ele>62</ele>
        <time>2017-10-28T12:57:24Z</time>
      </trkpt>
      <trkpt lat="62.636015137769" lon="18.014469585425">
        <ele>62</ele>
        <time>2017-10-28T12:57:25Z</time>
      </trkpt>
      <trkpt lat="62.635978005952" lon="18.01455969085">
        <ele>62</ele>
        <time>2017-10-28T12:57:26Z</time>
      </trkpt>
      <trkpt lat="62.635938862479" lon="18.014647533162">
        <ele>62</ele>
        <time>2017-10-28T12:57:27Z</time>
      </trkpt>
      <trkpt lat="62.635897874988" lon="18.014737219492">
        <ele>62.2</ele>
        <time>2017-10-28T12:57:28Z</time>
      </trkpt>
      <trkpt lat="62.635860324076" lon="18.014818523922">
        <ele>62.2</ele>
        <time>2017-10-28T12:57:29Z</time>
      </trkpt>
      <trkpt lat="62.635816486739" lon="18.014908294071">
        <ele>62.2</ele>
        <time>2017-10-28T12:57:30Z</time>
      </trkpt>
      <trkpt lat="62.635776505076" lon="18.01498130042">
        <ele>62.2</ele>
        <time>2017-10-28T12:57:31Z</time>
      </trkpt>
      <trkpt lat="62.635733925024" lon="18.01506931037">
        <ele>62.2</ele>
        <time>2017-10-28T12:57:32Z</time>
      </trkpt>
      <trkpt lat="62.635695619741" lon="18.01516654041">
        <ele>62.4</ele>
        <time>2017-10-28T12:57:33Z</time>
      </trkpt>
      <trkpt lat="62.635660415761" lon="18.015253544532">
        <ele>62.4</ele>
        <time>2017-10-28T12:57:34Z</time>
      </trkpt>
      <trkpt lat="62.635620769374" lon="18.015356390445">
        <ele>62.4</ele>
        <time>2017-10-28T12:57:35Z</time>
      </trkpt>
      <trkpt lat="62.635583553738" lon="18.015462589118">
        <ele>62.2</ele>
        <time>2017-10-28T12:57:36Z</time>
      </trkpt>
      <trkpt lat="62.6355498585" lon="18.015557053131">
        <ele>62.2</ele>
        <time>2017-10-28T12:57:37Z</time>
      </trkpt>
      <trkpt lat="62.63550543443" lon="18.015659312311">
        <ele>62</ele>
        <time>2017-10-28T12:57:38Z</time>
      </trkpt>
      <trkpt lat="62.635466793871" lon="18.015758805464">
        <ele>61.8</ele>
        <time>2017-10-28T12:57:39Z</time>
      </trkpt>
      <trkpt lat="62.635425471104" lon="18.01586559087">
        <ele>61.6</ele>
        <time>2017-10-28T12:57:40Z</time>
      </trkpt>
      <trkpt lat="62.635387668735" lon="18.015971873362">
        <ele>61.6</ele>
        <time>2017-10-28T12:57:41Z</time>
      </trkpt>
      <trkpt lat="62.635345423959" lon="18.016077485302">
        <ele>61.6</ele>
        <time>2017-10-28T12:57:42Z</time>
      </trkpt>
      <trkpt lat="62.635305023201" lon="18.01618242669">
        <ele>61.4</ele>
        <time>2017-10-28T12:57:43Z</time>
      </trkpt>
      <trkpt lat="62.635269316307" lon="18.016280411101">
        <ele>61.4</ele>
        <time>2017-10-28T12:57:44Z</time>
      </trkpt>
      <trkpt lat="62.635224808418" lon="18.016398512072">
        <ele>61.4</ele>
        <time>2017-10-28T12:57:45Z</time>
      </trkpt>
      <trkpt lat="62.635182479823" lon="18.016502699089">
        <ele>61.2</ele>
        <time>2017-10-28T12:57:46Z</time>
      </trkpt>
      <trkpt lat="62.635138055753" lon="18.016608981581">
        <ele>61.2</ele>
        <time>2017-10-28T12:57:47Z</time>
      </trkpt>
      <trkpt lat="62.635096062434" lon="18.016718784471">
        <ele>61.2</ele>
        <time>2017-10-28T12:57:48Z</time>
      </trkpt>
      <trkpt lat="62.635060104083" lon="18.016817020339">
        <ele>61</ele>
        <time>2017-10-28T12:57:49Z</time>
      </trkpt>
      <trkpt lat="62.63501676966" lon="18.016921039718">
        <ele>61</ele>
        <time>2017-10-28T12:57:50Z</time>
      </trkpt>
      <trkpt lat="62.634976201264" lon="18.017021538699">
        <ele>60.8</ele>
        <time>2017-10-28T12:57:51Z</time>
      </trkpt>
      <trkpt lat="62.634944098587" lon="18.017109045735">
        <ele>60.6</ele>
        <time>2017-10-28T12:57:52Z</time>
      </trkpt>
      <trkpt lat="62.634901686173" lon="18.017214909132">
        <ele>60.8</ele>
        <time>2017-10-28T12:57:53Z</time>
      </trkpt>
      <trkpt lat="62.634865141089" lon="18.017310714249">
        <ele>60.8</ele>
        <time>2017-10-28T12:57:54Z</time>
      </trkpt>
      <trkpt lat="62.634825578521" lon="18.017410710316">
        <ele>60.6</ele>
        <time>2017-10-28T12:57:55Z</time>
      </trkpt>
      <trkpt lat="62.634789201075" lon="18.017495283687">
        <ele>60.8</ele>
        <time>2017-10-28T12:57:56Z</time>
      </trkpt>
      <trkpt lat="62.634753410362" lon="18.017592849003">
        <ele>60.8</ele>
        <time>2017-10-28T12:57:57Z</time>
      </trkpt>
      <trkpt lat="62.634722648789" lon="18.017686558645">
        <ele>60.6</ele>
        <time>2017-10-28T12:57:58Z</time>
      </trkpt>
      <trkpt lat="62.634693395958" lon="18.017759564994">
        <ele>60.4</ele>
        <time>2017-10-28T12:57:59Z</time>
      </trkpt>
      <trkpt lat="62.634647044051" lon="18.017865176934">
        <ele>60.6</ele>
        <time>2017-10-28T12:58:00Z</time>
      </trkpt>
      <trkpt lat="62.634610666605" lon="18.017957461653">
        <ele>60.6</ele>
        <time>2017-10-28T12:58:01Z</time>
      </trkpt>
      <trkpt lat="62.634575630263" lon="18.018050500743">
        <ele>60.6</ele>
        <time>2017-10-28T12:58:02Z</time>
      </trkpt>
      <trkpt lat="62.634539085179" lon="18.018142198729">
        <ele>60.6</ele>
        <time>2017-10-28T12:58:03Z</time>
      </trkpt>
      <trkpt lat="62.634506647226" lon="18.018220988589">
        <ele>60.6</ele>
        <time>2017-10-28T12:58:04Z</time>
      </trkpt>
      <trkpt lat="62.634466162649" lon="18.018318637724">
        <ele>60.6</ele>
        <time>2017-10-28T12:58:05Z</time>
      </trkpt>
      <trkpt lat="62.634429617565" lon="18.018409665158">
        <ele>60.6</ele>
        <time>2017-10-28T12:58:06Z</time>
      </trkpt>
      <trkpt lat="62.634395922327" lon="18.018493400339">
        <ele>60.8</ele>
        <time>2017-10-28T12:58:07Z</time>
      </trkpt>
      <trkpt lat="62.634359377243" lon="18.018586774705">
        <ele>61</ele>
        <time>2017-10-28T12:58:08Z</time>
      </trkpt>
      <trkpt lat="62.634327190747" lon="18.018674030284">
        <ele>61</ele>
        <time>2017-10-28T12:58:09Z</time>
      </trkpt>
      <trkpt lat="62.634291567672" lon="18.018769500125">
        <ele>61</ele>
        <time>2017-10-28T12:58:10Z</time>
      </trkpt>
      <trkpt lat="62.634252005104" lon="18.018867316898">
        <ele>61.2</ele>
        <time>2017-10-28T12:58:11Z</time>
      </trkpt>
      <trkpt lat="62.634212693993" lon="18.018961110359">
        <ele>61.4</ele>
        <time>2017-10-28T12:58:12Z</time>
      </trkpt>
      <trkpt lat="62.634172125597" lon="18.019062279892">
        <ele>61.4</ele>
        <time>2017-10-28T12:58:13Z</time>
      </trkpt>
      <trkpt lat="62.634136334884" lon="18.019157414457">
        <ele>61.6</ele>
        <time>2017-10-28T12:58:14Z</time>
      </trkpt>
      <trkpt lat="62.634090485891" lon="18.019278784369">
        <ele>61.6</ele>
        <time>2017-10-28T12:58:15Z</time>
      </trkpt>
      <trkpt lat="62.634051510056" lon="18.0193750924">
        <ele>61.6</ele>
        <time>2017-10-28T12:58:16Z</time>
      </trkpt>
      <trkpt lat="62.634007505081" lon="18.01948740986">
        <ele>61.4</ele>
        <time>2017-10-28T12:58:17Z</time>
      </trkpt>
      <trkpt lat="62.633965847038" lon="18.019590171954">
        <ele>61.2</ele>
        <time>2017-10-28T12:58:18Z</time>
      </trkpt>
      <trkpt lat="62.633924272814" lon="18.019679103913">
        <ele>61</ele>
        <time>2017-10-28T12:58:19Z</time>
      </trkpt>
      <trkpt lat="62.633883033866" lon="18.019799048902">
        <ele>60.8</ele>
        <time>2017-10-28T12:58:20Z</time>
      </trkpt>
      <trkpt lat="62.633840286176" lon="18.019900805168">
        <ele>60.8</ele>
        <time>2017-10-28T12:58:21Z</time>
      </trkpt>
      <trkpt lat="62.633801813255" lon="18.019993508982">
        <ele>60.4</ele>
        <time>2017-10-28T12:58:22Z</time>
      </trkpt>
      <trkpt lat="62.633755880443" lon="18.02009761218">
        <ele>60.4</ele>
        <time>2017-10-28T12:58:23Z</time>
      </trkpt>
      <trkpt lat="62.633715228228" lon="18.020192579107">
        <ele>60.2</ele>
        <time>2017-10-28T12:58:24Z</time>
      </trkpt>
      <trkpt lat="62.633672899633" lon="18.020300118884">
        <ele>60.2</ele>
        <time>2017-10-28T12:58:25Z</time>
      </trkpt>
      <trkpt lat="62.633634426712" lon="18.020398857666">
        <ele>60.2</ele>
        <time>2017-10-28T12:58:26Z</time>
      </trkpt>
      <trkpt lat="62.633593774497" lon="18.020488879272">
        <ele>60</ele>
        <time>2017-10-28T12:58:27Z</time>
      </trkpt>
      <trkpt lat="62.633556475042" lon="18.020571524806">
        <ele>60.2</ele>
        <time>2017-10-28T12:58:28Z</time>
      </trkpt>
      <trkpt lat="62.633522947442" lon="18.02065165577">
        <ele>60.4</ele>
        <time>2017-10-28T12:58:29Z</time>
      </trkpt>
      <trkpt lat="62.633482211408" lon="18.02074637124">
        <ele>60.6</ele>
        <time>2017-10-28T12:58:30Z</time>
      </trkpt>
      <trkpt lat="62.63344851617" lon="18.020832872448">
        <ele>60.8</ele>
        <time>2017-10-28T12:58:31Z</time>
      </trkpt>
      <trkpt lat="62.633417586959" lon="18.020915517982">
        <ele>61</ele>
        <time>2017-10-28T12:58:32Z</time>
      </trkpt>
      <trkpt lat="62.633384394635" lon="18.020988859607">
        <ele>61.2</ele>
        <time>2017-10-28T12:58:33Z</time>
      </trkpt>
      <trkpt lat="62.63336050622" lon="18.0210430905">
        <ele>61.4</ele>
        <time>2017-10-28T12:58:34Z</time>
      </trkpt>
      <trkpt lat="62.633334773787" lon="18.021110816252">
        <ele>61.6</ele>
        <time>2017-10-28T12:58:35Z</time>
      </trkpt>
      <trkpt lat="62.633313232304" lon="18.021174099597">
        <ele>61.8</ele>
        <time>2017-10-28T12:58:36Z</time>
      </trkpt>
      <trkpt lat="62.633292277554" lon="18.021230928879">
        <ele>61.8</ele>
        <time>2017-10-28T12:58:37Z</time>
      </trkpt>
      <trkpt lat="62.633271574261" lon="18.021284992134">
        <ele>62</ele>
        <time>2017-10-28T12:58:38Z</time>
      </trkpt>
      <trkpt lat="62.63325154152" lon="18.02133813338">
        <ele>62</ele>
        <time>2017-10-28T12:58:39Z</time>
      </trkpt>
      <trkpt lat="62.633232346969" lon="18.021399069793">
        <ele>62.2</ele>
        <time>2017-10-28T12:58:40Z</time>
      </trkpt>
      <trkpt lat="62.633210889305" lon="18.021468304287">
        <ele>62.2</ele>
        <time>2017-10-28T12:58:41Z</time>
      </trkpt>
      <trkpt lat="62.633189096365" lon="18.021530330347">
        <ele>62.4</ele>
        <time>2017-10-28T12:58:42Z</time>
      </trkpt>
      <trkpt lat="62.633169147443" lon="18.021598475194">
        <ele>62.4</ele>
        <time>2017-10-28T12:58:43Z</time>
      </trkpt>
      <trkpt lat="62.633152299824" lon="18.021657232313">
        <ele>62.6</ele>
        <time>2017-10-28T12:58:44Z</time>
      </trkpt>
      <trkpt lat="62.633132937635" lon="18.021739710209">
        <ele>62.6</ele>
        <time>2017-10-28T12:58:45Z</time>
      </trkpt>
      <trkpt lat="62.633115587102" lon="18.021809699074">
        <ele>62.8</ele>
        <time>2017-10-28T12:58:46Z</time>
      </trkpt>
      <trkpt lat="62.633097230741" lon="18.021888572753">
        <ele>62.8</ele>
        <time>2017-10-28T12:58:47Z</time>
      </trkpt>
      <trkpt lat="62.63307635981" lon="18.021969038993">
        <ele>63</ele>
        <time>2017-10-28T12:58:48Z</time>
      </trkpt>
      <trkpt lat="62.633055069784" lon="18.022038441125">
        <ele>63.2</ele>
        <time>2017-10-28T12:58:49Z</time>
      </trkpt>
      <trkpt lat="62.633025314039" lon="18.022118823546">
        <ele>63.2</ele>
        <time>2017-10-28T12:58:50Z</time>
      </trkpt>
      <trkpt lat="62.63299589357" lon="18.022189399144">
        <ele>63.4</ele>
        <time>2017-10-28T12:58:51Z</time>
      </trkpt>
      <trkpt lat="62.632963371798" lon="18.022250167919">
        <ele>63.4</ele>
        <time>2017-10-28T12:58:52Z</time>
      </trkpt>
      <trkpt lat="62.632924395963" lon="18.022299872586">
        <ele>63.4</ele>
        <time>2017-10-28T12:58:53Z</time>
      </trkpt>
      <trkpt lat="62.632886593594" lon="18.022321833164">
        <ele>63.4</ele>
        <time>2017-10-28T12:58:54Z</time>
      </trkpt>
      <trkpt lat="62.632847701578" lon="18.022323593363">
        <ele>63.4</ele>
        <time>2017-10-28T12:58:55Z</time>
      </trkpt>
      <trkpt lat="62.632817275281" lon="18.022296268369">
        <ele>63.6</ele>
        <time>2017-10-28T12:58:56Z</time>
      </trkpt>
      <trkpt lat="62.632791542848" lon="18.022261651122">
        <ele>63.8</ele>
        <time>2017-10-28T12:58:57Z</time>
      </trkpt>
      <trkpt lat="62.632772348297" lon="18.022227117694">
        <ele>64</ele>
        <time>2017-10-28T12:58:58Z</time>
      </trkpt>
      <trkpt lat="62.632759440171" lon="18.022190069696">
        <ele>64.2</ele>
        <time>2017-10-28T12:58:59Z</time>
      </trkpt>
      <trkpt lat="62.632743514561" lon="18.02214363397">
        <ele>64.6</ele>
        <time>2017-10-28T12:59:00Z</time>
      </trkpt>
      <trkpt lat="62.632730354978" lon="18.022099964271">
        <ele>64.8</ele>
        <time>2017-10-28T12:59:01Z</time>
      </trkpt>
      <trkpt lat="62.6327167763" lon="18.02205897678">
        <ele>65</ele>
        <time>2017-10-28T12:59:02Z</time>
      </trkpt>
      <trkpt lat="62.632704538726" lon="18.022013379244">
        <ele>65.4</ele>
        <time>2017-10-28T12:59:03Z</time>
      </trkpt>
      <trkpt lat="62.632695570093" lon="18.021974487228">
        <ele>65.6</ele>
        <time>2017-10-28T12:59:04Z</time>
      </trkpt>
      <trkpt lat="62.632686350003" lon="18.021936265764">
        <ele>65.8</ele>
        <time>2017-10-28T12:59:05Z</time>
      </trkpt>
      <trkpt lat="62.632670592031" lon="18.021874658799">
        <ele>66</ele>
        <time>2017-10-28T12:59:06Z</time>
      </trkpt>
      <trkpt lat="62.632654666421" lon="18.021835012412">
        <ele>66.4</ele>
        <time>2017-10-28T12:59:07Z</time>
      </trkpt>
      <trkpt lat="62.632638489354" lon="18.021794779292">
        <ele>66.6</ele>
        <time>2017-10-28T12:59:08Z</time>
      </trkpt>
      <trkpt lat="62.632624743038" lon="18.021752618335">
        <ele>67</ele>
        <time>2017-10-28T12:59:09Z</time>
      </trkpt>
      <trkpt lat="62.632611080541" lon="18.021708361903">
        <ele>67.4</ele>
        <time>2017-10-28T12:59:10Z</time>
      </trkpt>
      <trkpt lat="62.632597920958" lon="18.021664273109">
        <ele>67.8</ele>
        <time>2017-10-28T12:59:11Z</time>
      </trkpt>
      <trkpt lat="62.632582749719" lon="18.021625129636">
        <ele>68.2</ele>
        <time>2017-10-28T12:59:12Z</time>
      </trkpt>
      <trkpt lat="62.632566572652" lon="18.021592607864">
        <ele>68.6</ele>
        <time>2017-10-28T12:59:13Z</time>
      </trkpt>
      <trkpt lat="62.632553413069" lon="18.021562181567">
        <ele>68.8</ele>
        <time>2017-10-28T12:59:14Z</time>
      </trkpt>
      <trkpt lat="62.632535811079" lon="18.021524882112">
        <ele>69</ele>
        <time>2017-10-28T12:59:15Z</time>
      </trkpt>
      <trkpt lat="62.632521729487" lon="18.021492527978">
        <ele>69.2</ele>
        <time>2017-10-28T12:59:16Z</time>
      </trkpt>
      <trkpt lat="62.632506558248" lon="18.02145547998">
        <ele>69.4</ele>
        <time>2017-10-28T12:59:17Z</time>
      </trkpt>
      <trkpt lat="62.632489375353" lon="18.021426478606">
        <ele>69.6</ele>
        <time>2017-10-28T12:59:18Z</time>
      </trkpt>
      <trkpt lat="62.632473617381" lon="18.021399824164">
        <ele>69.8</ele>
        <time>2017-10-28T12:59:19Z</time>
      </trkpt>
      <trkpt lat="62.632454171373" lon="18.021370655152">
        <ele>70</ele>
        <time>2017-10-28T12:59:20Z</time>
      </trkpt>
      <trkpt lat="62.632437994306" lon="18.02133310424">
        <ele>70.2</ele>
        <time>2017-10-28T12:59:21Z</time>
      </trkpt>
      <trkpt lat="62.632421230506" lon="18.021306617436">
        <ele>70.4</ele>
        <time>2017-10-28T12:59:22Z</time>
      </trkpt>
      <trkpt lat="62.632398934652" lon="18.021277532243">
        <ele>70.6</ele>
        <time>2017-10-28T12:59:23Z</time>
      </trkpt>
      <trkpt lat="62.632379572463" lon="18.021248027955">
        <ele>70.8</ele>
        <time>2017-10-28T12:59:24Z</time>
      </trkpt>
      <trkpt lat="62.632357947161" lon="18.021210812319">
        <ele>71</ele>
        <time>2017-10-28T12:59:25Z</time>
      </trkpt>
      <trkpt lat="62.632337662963" lon="18.021178542004">
        <ele>71.4</ele>
        <time>2017-10-28T12:59:26Z</time>
      </trkpt>
      <trkpt lat="62.632316875851" lon="18.021146523146">
        <ele>71.6</ele>
        <time>2017-10-28T12:59:27Z</time>
      </trkpt>
      <trkpt lat="62.632304973553" lon="18.021125484577">
        <ele>71.8</ele>
        <time>2017-10-28T12:59:28Z</time>
      </trkpt>
      <trkpt lat="62.632280498405" lon="18.021083658896">
        <ele>72</ele>
        <time>2017-10-28T12:59:29Z</time>
      </trkpt>
      <trkpt lat="62.632260717121" lon="18.021050131296">
        <ele>72.2</ele>
        <time>2017-10-28T12:59:30Z</time>
      </trkpt>
      <trkpt lat="62.632239930009" lon="18.021021046103">
        <ele>72.4</ele>
        <time>2017-10-28T12:59:31Z</time>
      </trkpt>
      <trkpt lat="62.632217131241" lon="18.020987099408">
        <ele>72.6</ele>
        <time>2017-10-28T12:59:32Z</time>
      </trkpt>
      <trkpt lat="62.632196008853" lon="18.020956254016">
        <ele>72.8</ele>
        <time>2017-10-28T12:59:33Z</time>
      </trkpt>
      <trkpt lat="62.632177903949" lon="18.020924738072">
        <ele>73</ele>
        <time>2017-10-28T12:59:34Z</time>
      </trkpt>
      <trkpt lat="62.63215602719" lon="18.020886516608">
        <ele>73.4</ele>
        <time>2017-10-28T12:59:35Z</time>
      </trkpt>
      <trkpt lat="62.632136162087" lon="18.020853156646">
        <ele>73.4</ele>
        <time>2017-10-28T12:59:36Z</time>
      </trkpt>
      <trkpt lat="62.6320965157" lon="18.020780820849">
        <ele>73.8</ele>
        <time>2017-10-28T12:59:38Z</time>
      </trkpt>
      <trkpt lat="62.632077488787" lon="18.020752322389">
        <ele>74</ele>
        <time>2017-10-28T12:59:39Z</time>
      </trkpt>
      <trkpt lat="62.63205628258" lon="18.020721812273">
        <ele>74.2</ele>
        <time>2017-10-28T12:59:40Z</time>
      </trkpt>
      <trkpt lat="62.632033483812" lon="18.02068853613">
        <ele>74.4</ele>
        <time>2017-10-28T12:59:41Z</time>
      </trkpt>
      <trkpt lat="62.632013451071" lon="18.020656181996">
        <ele>74.4</ele>
        <time>2017-10-28T12:59:42Z</time>
      </trkpt>
      <trkpt lat="62.631991155217" lon="18.020628689364">
        <ele>74.6</ele>
        <time>2017-10-28T12:59:43Z</time>
      </trkpt>
      <trkpt lat="62.631971876847" lon="18.02060806989">
        <ele>74.8</ele>
        <time>2017-10-28T12:59:44Z</time>
      </trkpt>
      <trkpt lat="62.631945557681" lon="18.020580912534">
        <ele>75.2</ele>
        <time>2017-10-28T12:59:45Z</time>
      </trkpt>
      <trkpt lat="62.631925022026" lon="18.020562053259">
        <ele>75.6</ele>
        <time>2017-10-28T12:59:46Z</time>
      </trkpt>
      <trkpt lat="62.631900882154" lon="18.020540260319">
        <ele>76</ele>
        <time>2017-10-28T12:59:47Z</time>
      </trkpt>
      <trkpt lat="62.631881017051" lon="18.020531710781">
        <ele>76.4</ele>
        <time>2017-10-28T12:59:48Z</time>
      </trkpt>
      <trkpt lat="62.631860313758" lon="18.020524502347">
        <ele>76.8</ele>
        <time>2017-10-28T12:59:49Z</time>
      </trkpt>
      <trkpt lat="62.631835670972" lon="18.02052089813">
        <ele>77</ele>
        <time>2017-10-28T12:59:50Z</time>
      </trkpt>
      <trkpt lat="62.631817146973" lon="18.02051922175">
        <ele>77.4</ele>
        <time>2017-10-28T12:59:51Z</time>
      </trkpt>
      <trkpt lat="62.631801053725" lon="18.020517293913">
        <ele>77.6</ele>
        <time>2017-10-28T12:59:52Z</time>
      </trkpt>
      <trkpt lat="62.631782529726" lon="18.020518299741">
        <ele>77.8</ele>
        <time>2017-10-28T12:59:53Z</time>
      </trkpt>
      <trkpt lat="62.631765179193" lon="18.020518886474">
        <ele>78</ele>
        <time>2017-10-28T12:59:54Z</time>
      </trkpt>
      <trkpt lat="62.631743386253" lon="18.020526849279">
        <ele>78.2</ele>
        <time>2017-10-28T12:59:55Z</time>
      </trkpt>
      <trkpt lat="62.631720671304" lon="18.020534476808">
        <ele>78.4</ele>
        <time>2017-10-28T12:59:56Z</time>
      </trkpt>
      <trkpt lat="62.631699632735" lon="18.020548390762">
        <ele>78.6</ele>
        <time>2017-10-28T12:59:57Z</time>
      </trkpt>
      <trkpt lat="62.631675911958" lon="18.020558784318">
        <ele>78.6</ele>
        <time>2017-10-28T12:59:58Z</time>
      </trkpt>
      <trkpt lat="62.631659734891" lon="18.020568088227">
        <ele>78.8</ele>
        <time>2017-10-28T12:59:59Z</time>
      </trkpt>
      <trkpt lat="62.631635762657" lon="18.020583846199">
        <ele>79</ele>
        <time>2017-10-28T13:00:00Z</time>
      </trkpt>
      <trkpt lat="62.63161539464" lon="18.020604130397">
        <ele>79.2</ele>
        <time>2017-10-28T13:00:01Z</time>
      </trkpt>
      <trkpt lat="62.631594356071" lon="18.020624163138">
        <ele>79.4</ele>
        <time>2017-10-28T13:00:02Z</time>
      </trkpt>
      <trkpt lat="62.631571557303" lon="18.020639585834">
        <ele>79.6</ele>
        <time>2017-10-28T13:00:03Z</time>
      </trkpt>
      <trkpt lat="62.631553284761" lon="18.020652074865">
        <ele>79.8</ele>
        <time>2017-10-28T13:00:04Z</time>
      </trkpt>
      <trkpt lat="62.631532749106" lon="18.02067177233">
        <ele>80</ele>
        <time>2017-10-28T13:00:05Z</time>
      </trkpt>
      <trkpt lat="62.631512800184" lon="18.020693732908">
        <ele>80.4</ele>
        <time>2017-10-28T13:00:06Z</time>
      </trkpt>
      <trkpt lat="62.63149218071" lon="18.020713933287">
        <ele>80.8</ele>
        <time>2017-10-28T13:00:07Z</time>
      </trkpt>
      <trkpt lat="62.631472986159" lon="18.020733463114">
        <ele>81.2</ele>
        <time>2017-10-28T13:00:08Z</time>
      </trkpt>
      <trkpt lat="62.631453540151" lon="18.02074804762">
        <ele>81.4</ele>
        <time>2017-10-28T13:00:09Z</time>
      </trkpt>
      <trkpt lat="62.631430489926" lon="18.020749556362">
        <ele>81.6</ele>
        <time>2017-10-28T13:00:10Z</time>
      </trkpt>
      <trkpt lat="62.631408948443" lon="18.020749975457">
        <ele>82</ele>
        <time>2017-10-28T13:00:11Z</time>
      </trkpt>
      <trkpt lat="62.631384389476" lon="18.020751819475">
        <ele>82.2</ele>
        <time>2017-10-28T13:00:12Z</time>
      </trkpt>
      <trkpt lat="62.631362345079" lon="18.020753328217">
        <ele>82.4</ele>
        <time>2017-10-28T13:00:13Z</time>
      </trkpt>
      <trkpt lat="62.631340803596" lon="18.020749891638">
        <ele>82.6</ele>
        <time>2017-10-28T13:00:14Z</time>
      </trkpt>
      <trkpt lat="62.631314568249" lon="18.020743521394">
        <ele>82.8</ele>
        <time>2017-10-28T13:00:15Z</time>
      </trkpt>
      <trkpt lat="62.631292356214" lon="18.020738659892">
        <ele>83.2</ele>
        <time>2017-10-28T13:00:16Z</time>
      </trkpt>
      <trkpt lat="62.631270730912" lon="18.020731032363">
        <ele>83.4</ele>
        <time>2017-10-28T13:00:17Z</time>
      </trkpt>
      <trkpt lat="62.631249357067" lon="18.020716950771">
        <ele>83.6</ele>
        <time>2017-10-28T13:00:18Z</time>
      </trkpt>
      <trkpt lat="62.631231000706" lon="18.020701779532">
        <ele>83.8</ele>
        <time>2017-10-28T13:00:19Z</time>
      </trkpt>
      <trkpt lat="62.631209794499" lon="18.020688787587">
        <ele>84</ele>
        <time>2017-10-28T13:00:20Z</time>
      </trkpt>
      <trkpt lat="62.631190180853" lon="18.020674873633">
        <ele>84.2</ele>
        <time>2017-10-28T13:00:21Z</time>
      </trkpt>
      <trkpt lat="62.631171237759" lon="18.020661965507">
        <ele>84.4</ele>
        <time>2017-10-28T13:00:22Z</time>
      </trkpt>
      <trkpt lat="62.631150534466" lon="18.020648973562">
        <ele>84.6</ele>
        <time>2017-10-28T13:00:23Z</time>
      </trkpt>
      <trkpt lat="62.631131004639" lon="18.020634305237">
        <ele>85</ele>
        <time>2017-10-28T13:00:24Z</time>
      </trkpt>
      <trkpt lat="62.631109295518" lon="18.020615445962">
        <ele>85.2</ele>
        <time>2017-10-28T13:00:25Z</time>
      </trkpt>
      <trkpt lat="62.631089933329" lon="18.020599939447">
        <ele>85.6</ele>
        <time>2017-10-28T13:00:26Z</time>
      </trkpt>
      <trkpt lat="62.631069146217" lon="18.020579906706">
        <ele>86</ele>
        <time>2017-10-28T13:00:27Z</time>
      </trkpt>
      <trkpt lat="62.631048526743" lon="18.02056196944">
        <ele>86.4</ele>
        <time>2017-10-28T13:00:28Z</time>
      </trkpt>
      <trkpt lat="62.631028326364" lon="18.020543193984">
        <ele>86.6</ele>
        <time>2017-10-28T13:00:29Z</time>
      </trkpt>
      <trkpt lat="62.63100351594" lon="18.020522490691">
        <ele>86.8</ele>
        <time>2017-10-28T13:00:30Z</time>
      </trkpt>
      <trkpt lat="62.630983483199" lon="18.020500613932">
        <ele>87</ele>
        <time>2017-10-28T13:00:31Z</time>
      </trkpt>
      <trkpt lat="62.630963869553" lon="18.020481587019">
        <ele>87.2</ele>
        <time>2017-10-28T13:00:32Z</time>
      </trkpt>
      <trkpt lat="62.63094232807" lon="18.020463817391">
        <ele>87.6</ele>
        <time>2017-10-28T13:00:33Z</time>
      </trkpt>
      <trkpt lat="62.630925228994" lon="18.020445712487">
        <ele>87.6</ele>
        <time>2017-10-28T13:00:34Z</time>
      </trkpt>
      <trkpt lat="62.630902514045" lon="18.020428445773">
        <ele>87.8</ele>
        <time>2017-10-28T13:00:35Z</time>
      </trkpt>
      <trkpt lat="62.63088197839" lon="18.020412101068">
        <ele>88.2</ele>
        <time>2017-10-28T13:00:36Z</time>
      </trkpt>
      <trkpt lat="62.630859766355" lon="18.020392068327">
        <ele>88.4</ele>
        <time>2017-10-28T13:00:37Z</time>
      </trkpt>
      <trkpt lat="62.630839482157" lon="18.020371197396">
        <ele>88.6</ele>
        <time>2017-10-28T13:00:38Z</time>
      </trkpt>
      <trkpt lat="62.630818862683" lon="18.020354182139">
        <ele>88.8</ele>
        <time>2017-10-28T13:00:39Z</time>
      </trkpt>
      <trkpt lat="62.630797153562" lon="18.020336999244">
        <ele>89</ele>
        <time>2017-10-28T13:00:40Z</time>
      </trkpt>
      <trkpt lat="62.630774606251" lon="18.020316966503">
        <ele>89.2</ele>
        <time>2017-10-28T13:00:41Z</time>
      </trkpt>
      <trkpt lat="62.63075289713" lon="18.020296598486">
        <ele>89.4</ele>
        <time>2017-10-28T13:00:42Z</time>
      </trkpt>
      <trkpt lat="62.630731271828" lon="18.020277655392">
        <ele>89.8</ele>
        <time>2017-10-28T13:00:43Z</time>
      </trkpt>
      <trkpt lat="62.6307135022" lon="18.020252761149">
        <ele>90</ele>
        <time>2017-10-28T13:00:44Z</time>
      </trkpt>
      <trkpt lat="62.630688691776" lon="18.020230549114">
        <ele>90.4</ele>
        <time>2017-10-28T13:00:45Z</time>
      </trkpt>
      <trkpt lat="62.630669748682" lon="18.020211773658">
        <ele>90.6</ele>
        <time>2017-10-28T13:00:46Z</time>
      </trkpt>
      <trkpt lat="62.630648291018" lon="18.020199619903">
        <ele>90.8</ele>
        <time>2017-10-28T13:00:47Z</time>
      </trkpt>
      <trkpt lat="62.630621217481" lon="18.020175144755">
        <ele>91</ele>
        <time>2017-10-28T13:00:48Z</time>
      </trkpt>
      <trkpt lat="62.630600514188" lon="18.020158464774">
        <ele>91</ele>
        <time>2017-10-28T13:00:49Z</time>
      </trkpt>
      <trkpt lat="62.630577212506" lon="18.020138851128">
        <ele>91.2</ele>
        <time>2017-10-28T13:00:50Z</time>
      </trkpt>
      <trkpt lat="62.630556425394" lon="18.020117896378">
        <ele>91.2</ele>
        <time>2017-10-28T13:00:51Z</time>
      </trkpt>
      <trkpt lat="62.630536895567" lon="18.020096690171">
        <ele>91.4</ele>
        <time>2017-10-28T13:00:52Z</time>
      </trkpt>
      <trkpt lat="62.630512755695" lon="18.020078836724">
        <ele>91.4</ele>
        <time>2017-10-28T13:00:53Z</time>
      </trkpt>
      <trkpt lat="62.630491130393" lon="18.020059642173">
        <ele>91.6</ele>
        <time>2017-10-28T13:00:54Z</time>
      </trkpt>
      <trkpt lat="62.630466068512" lon="18.020033155369">
        <ele>91.8</ele>
        <time>2017-10-28T13:00:55Z</time>
      </trkpt>
      <trkpt lat="62.630441341907" lon="18.020011949162">
        <ele>91.8</ele>
        <time>2017-10-28T13:00:56Z</time>
      </trkpt>
      <trkpt lat="62.630416280026" lon="18.019997197018">
        <ele>92</ele>
        <time>2017-10-28T13:00:57Z</time>
      </trkpt>
      <trkpt lat="62.630395157638" lon="18.019975739354">
        <ele>92.2</ele>
        <time>2017-10-28T13:00:58Z</time>
      </trkpt>
      <trkpt lat="62.630373448517" lon="18.019956293346">
        <ele>92.2</ele>
        <time>2017-10-28T13:00:59Z</time>
      </trkpt>
      <trkpt lat="62.630345201514" lon="18.019931147646">
        <ele>92.4</ele>
        <time>2017-10-28T13:01:00Z</time>
      </trkpt>
      <trkpt lat="62.630320474909" lon="18.019919580624">
        <ele>92.4</ele>
        <time>2017-10-28T13:01:01Z</time>
      </trkpt>
      <trkpt lat="62.630296502675" lon="18.019901308082">
        <ele>92.6</ele>
        <time>2017-10-28T13:01:02Z</time>
      </trkpt>
      <trkpt lat="62.63027512883" lon="18.01987884459">
        <ele>92.6</ele>
        <time>2017-10-28T13:01:03Z</time>
      </trkpt>
      <trkpt lat="62.630254676994" lon="18.019853279795">
        <ele>93</ele>
        <time>2017-10-28T13:01:04Z</time>
      </trkpt>
      <trkpt lat="62.630231962045" lon="18.019829475199">
        <ele>93.2</ele>
        <time>2017-10-28T13:01:05Z</time>
      </trkpt>
      <trkpt lat="62.630207738354" lon="18.019809358639">
        <ele>93.6</ele>
        <time>2017-10-28T13:01:06Z</time>
      </trkpt>
      <trkpt lat="62.630184855767" lon="18.019787062785">
        <ele>94</ele>
        <time>2017-10-28T13:01:07Z</time>
      </trkpt>
      <trkpt lat="62.630158117506" lon="18.019767281501">
        <ele>94.4</ele>
        <time>2017-10-28T13:01:08Z</time>
      </trkpt>
      <trkpt lat="62.630136576023" lon="18.019747332579">
        <ele>94.4</ele>
        <time>2017-10-28T13:01:09Z</time>
      </trkpt>
      <trkpt lat="62.630107323192" lon="18.019732245159">
        <ele>94.6</ele>
        <time>2017-10-28T13:01:10Z</time>
      </trkpt>
      <trkpt lat="62.630082177492" lon="18.019712380056">
        <ele>94.8</ele>
        <time>2017-10-28T13:01:11Z</time>
      </trkpt>
      <trkpt lat="62.630056025964" lon="18.019693856057">
        <ele>95</ele>
        <time>2017-10-28T13:01:12Z</time>
      </trkpt>
      <trkpt lat="62.630032305187" lon="18.01967600261">
        <ele>95.2</ele>
        <time>2017-10-28T13:01:13Z</time>
      </trkpt>
      <trkpt lat="62.630011015161" lon="18.019664100312">
        <ele>95.4</ele>
        <time>2017-10-28T13:01:14Z</time>
      </trkpt>
      <trkpt lat="62.629981846149" lon="18.019646330684">
        <ele>95.6</ele>
        <time>2017-10-28T13:01:15Z</time>
      </trkpt>
      <trkpt lat="62.629957957734" lon="18.019635518033">
        <ele>95.6</ele>
        <time>2017-10-28T13:01:16Z</time>
      </trkpt>
      <trkpt lat="62.629932979672" lon="18.019623783373">
        <ele>95.8</ele>
        <time>2017-10-28T13:01:17Z</time>
      </trkpt>
      <trkpt lat="62.629906744325" lon="18.019609701781">
        <ele>95.8</ele>
        <time>2017-10-28T13:01:18Z</time>
      </trkpt>
      <trkpt lat="62.629881263349" lon="18.019599140587">
        <ele>96</ele>
        <time>2017-10-28T13:01:19Z</time>
      </trkpt>
      <trkpt lat="62.629852764889" lon="18.019588579393">
        <ele>96.2</ele>
        <time>2017-10-28T13:01:20Z</time>
      </trkpt>
      <trkpt lat="62.629825607533" lon="18.019580365131">
        <ele>96.2</ele>
        <time>2017-10-28T13:01:21Z</time>
      </trkpt>
      <trkpt lat="62.629801383842" lon="18.019567959919">
        <ele>96.4</ele>
        <time>2017-10-28T13:01:22Z</time>
      </trkpt>
      <trkpt lat="62.629774561762" lon="18.019555722345">
        <ele>96.8</ele>
        <time>2017-10-28T13:01:23Z</time>
      </trkpt>
      <trkpt lat="62.629749416062" lon="18.019547005169">
        <ele>97</ele>
        <time>2017-10-28T13:01:24Z</time>
      </trkpt>
      <trkpt lat="62.629718989765" lon="18.01953351031">
        <ele>97.4</ele>
        <time>2017-10-28T13:01:25Z</time>
      </trkpt>
      <trkpt lat="62.629689317839" lon="18.019525882781">
        <ele>97.8</ele>
        <time>2017-10-28T13:01:26Z</time>
      </trkpt>
      <trkpt lat="62.629660567922" lon="18.019514483397">
        <ele>98</ele>
        <time>2017-10-28T13:01:27Z</time>
      </trkpt>
      <trkpt lat="62.629632740014" lon="18.019506101497">
        <ele>98.2</ele>
        <time>2017-10-28T13:01:28Z</time>
      </trkpt>
      <trkpt lat="62.629607175219" lon="18.019503084013">
        <ele>98.4</ele>
        <time>2017-10-28T13:01:29Z</time>
      </trkpt>
      <trkpt lat="62.629572809429" lon="18.019493612466">
        <ele>98.6</ele>
        <time>2017-10-28T13:01:30Z</time>
      </trkpt>
      <trkpt lat="62.629543556598" lon="18.01948238072">
        <ele>98.6</ele>
        <time>2017-10-28T13:01:31Z</time>
      </trkpt>
      <trkpt lat="62.629513381758" lon="18.01947651339">
        <ele>98.6</ele>
        <time>2017-10-28T13:01:32Z</time>
      </trkpt>
      <trkpt lat="62.629483374556" lon="18.019472238621">
        <ele>98.8</ele>
        <time>2017-10-28T13:01:33Z</time>
      </trkpt>
      <trkpt lat="62.629457558304" lon="18.019464024359">
        <ele>98.8</ele>
        <time>2017-10-28T13:01:34Z</time>
      </trkpt>
      <trkpt lat="62.629428054016" lon="18.019455139545">
        <ele>99</ele>
        <time>2017-10-28T13:01:35Z</time>
      </trkpt>
      <trkpt lat="62.629397460081" lon="18.019449523672">
        <ele>99</ele>
        <time>2017-10-28T13:01:36Z</time>
      </trkpt>
      <trkpt lat="62.62936820725" lon="18.019443069609">
        <ele>99.2</ele>
        <time>2017-10-28T13:01:37Z</time>
      </trkpt>
      <trkpt lat="62.629338535324" lon="18.019432005501">
        <ele>99.4</ele>
        <time>2017-10-28T13:01:38Z</time>
      </trkpt>
      <trkpt lat="62.629310875054" lon="18.019425802895">
        <ele>99.4</ele>
        <time>2017-10-28T13:01:39Z</time>
      </trkpt>
      <trkpt lat="62.629280364938" lon="18.019421025212">
        <ele>99.6</ele>
        <time>2017-10-28T13:01:40Z</time>
      </trkpt>
      <trkpt lat="62.62925086065" lon="18.019418594461">
        <ele>99.8</ele>
        <time>2017-10-28T13:01:41Z</time>
      </trkpt>
      <trkpt lat="62.629220937267" lon="18.019419348832">
        <ele>100.2</ele>
        <time>2017-10-28T13:01:42Z</time>
      </trkpt>
      <trkpt lat="62.629191935893" lon="18.019414906425">
        <ele>100.4</ele>
        <time>2017-10-28T13:01:43Z</time>
      </trkpt>
      <trkpt lat="62.629166371098" lon="18.019411386027">
        <ele>100.6</ele>
        <time>2017-10-28T13:01:44Z</time>
      </trkpt>
      <trkpt lat="62.629133933145" lon="18.019405434878">
        <ele>101</ele>
        <time>2017-10-28T13:01:45Z</time>
      </trkpt>
      <trkpt lat="62.629105769961" lon="18.019398813177">
        <ele>101.2</ele>
        <time>2017-10-28T13:01:46Z</time>
      </trkpt>
      <trkpt lat="62.62907819351" lon="18.019396130969">
        <ele>101.6</ele>
        <time>2017-10-28T13:01:47Z</time>
      </trkpt>
      <trkpt lat="62.629048186308" lon="18.019389257811">
        <ele>101.8</ele>
        <time>2017-10-28T13:01:48Z</time>
      </trkpt>
      <trkpt lat="62.629021364228" lon="18.019386994698">
        <ele>102</ele>
        <time>2017-10-28T13:01:49Z</time>
      </trkpt>
      <trkpt lat="62.628989932103" lon="18.01938682706">
        <ele>102.2</ele>
        <time>2017-10-28T13:01:50Z</time>
      </trkpt>
      <trkpt lat="62.628963026204" lon="18.019392023838">
        <ele>102.4</ele>
        <time>2017-10-28T13:01:51Z</time>
      </trkpt>
      <trkpt lat="62.628937126133" lon="18.019392610571">
        <ele>102.6</ele>
        <time>2017-10-28T13:01:52Z</time>
      </trkpt>
      <trkpt lat="62.628908292397" lon="18.019392191476">
        <ele>102.8</ele>
        <time>2017-10-28T13:01:53Z</time>
      </trkpt>
      <trkpt lat="62.628884403982" lon="18.019387916707">
        <ele>103</ele>
        <time>2017-10-28T13:01:54Z</time>
      </trkpt>
      <trkpt lat="62.628856827531" lon="18.019392023838">
        <ele>103</ele>
        <time>2017-10-28T13:01:55Z</time>
      </trkpt>
      <trkpt lat="62.628830843641" lon="18.019394622227">
        <ele>103.2</ele>
        <time>2017-10-28T13:01:56Z</time>
      </trkpt>
      <trkpt lat="62.628802009905" lon="18.019400405738">
        <ele>103.4</ele>
        <time>2017-10-28T13:01:57Z</time>
      </trkpt>
      <trkpt lat="62.628775439282" lon="18.019401411566">
        <ele>103.6</ele>
        <time>2017-10-28T13:01:58Z</time>
      </trkpt>
      <trkpt lat="62.628751634686" lon="18.019407865629">
        <ele>103.8</ele>
        <time>2017-10-28T13:01:59Z</time>
      </trkpt>
      <trkpt lat="62.628718358543" lon="18.019416415167">
        <ele>104</ele>
        <time>2017-10-28T13:02:00Z</time>
      </trkpt>
      <trkpt lat="62.62869011154" lon="18.019427563094">
        <ele>104.4</ele>
        <time>2017-10-28T13:02:01Z</time>
      </trkpt>
      <trkpt lat="62.62866077489" lon="18.019439046297">
        <ele>105</ele>
        <time>2017-10-28T13:02:02Z</time>
      </trkpt>
      <trkpt lat="62.628634288086" lon="18.019452792613">
        <ele>105.2</ele>
        <time>2017-10-28T13:02:03Z</time>
      </trkpt>
      <trkpt lat="62.628609896757" lon="18.019463521445">
        <ele>105.6</ele>
        <time>2017-10-28T13:02:04Z</time>
      </trkpt>
      <trkpt lat="62.628583242315" lon="18.019483638005">
        <ele>105.8</ele>
        <time>2017-10-28T13:02:05Z</time>
      </trkpt>
      <trkpt lat="62.628556336416" lon="18.019505179488">
        <ele>106</ele>
        <time>2017-10-28T13:02:06Z</time>
      </trkpt>
      <trkpt lat="62.628530687802" lon="18.019519177261">
        <ele>106.4</ele>
        <time>2017-10-28T13:02:07Z</time>
      </trkpt>
      <trkpt lat="62.628504955369" lon="18.019535605785">
        <ele>106.6</ele>
        <time>2017-10-28T13:02:08Z</time>
      </trkpt>
      <trkpt lat="62.628481988963" lon="18.019553207775">
        <ele>106.8</ele>
        <time>2017-10-28T13:02:09Z</time>
      </trkpt>
      <trkpt lat="62.628458100548" lon="18.019575252172">
        <ele>107</ele>
        <time>2017-10-28T13:02:10Z</time>
      </trkpt>
      <trkpt lat="62.628434631228" lon="18.019595201094">
        <ele>107.2</ele>
        <time>2017-10-28T13:02:11Z</time>
      </trkpt>
      <trkpt lat="62.628412167736" lon="18.019607522487">
        <ele>107.4</ele>
        <time>2017-10-28T13:02:12Z</time>
      </trkpt>
      <trkpt lat="62.628392889366" lon="18.019620765889">
        <ele>107.8</ele>
        <time>2017-10-28T13:02:13Z</time>
      </trkpt>
      <trkpt lat="62.628373694815" lon="18.019639792802">
        <ele>108</ele>
        <time>2017-10-28T13:02:14Z</time>
      </trkpt>
      <trkpt lat="62.628350393133" lon="18.019662507751">
        <ele>108.2</ele>
        <time>2017-10-28T13:02:15Z</time>
      </trkpt>
      <trkpt lat="62.628326839994" lon="18.01967935537">
        <ele>108.6</ele>
        <time>2017-10-28T13:02:16Z</time>
      </trkpt>
      <trkpt lat="62.628299598819" lon="18.019692934048">
        <ele>108.8</ele>
        <time>2017-10-28T13:02:17Z</time>
      </trkpt>
      <trkpt lat="62.628272776739" lon="18.019707350916">
        <ele>109</ele>
        <time>2017-10-28T13:02:18Z</time>
      </trkpt>
      <trkpt lat="62.628248301591" lon="18.019714224074">
        <ele>109.2</ele>
        <time>2017-10-28T13:02:19Z</time>
      </trkpt>
      <trkpt lat="62.628216450371" lon="18.019734172996">
        <ele>109.6</ele>
        <time>2017-10-28T13:02:20Z</time>
      </trkpt>
      <trkpt lat="62.628182838952" lon="18.019744482733">
        <ele>109.8</ele>
        <time>2017-10-28T13:02:21Z</time>
      </trkpt>
      <trkpt lat="62.628147634972" lon="18.019762755275">
        <ele>110.2</ele>
        <time>2017-10-28T13:02:22Z</time>
      </trkpt>
      <trkpt lat="62.628114023553" lon="18.019773065012">
        <ele>110.4</ele>
        <time>2017-10-28T13:02:23Z</time>
      </trkpt>
      <trkpt lat="62.62808326198" lon="18.019780608722">
        <ele>110.6</ele>
        <time>2017-10-28T13:02:24Z</time>
      </trkpt>
      <trkpt lat="62.628048141819" lon="18.01978329093">
        <ele>111</ele>
        <time>2017-10-28T13:02:25Z</time>
      </trkpt>
      <trkpt lat="62.628018134617" lon="18.019777842695">
        <ele>111.2</ele>
        <time>2017-10-28T13:02:26Z</time>
      </trkpt>
      <trkpt lat="62.627986451035" lon="18.019772143003">
        <ele>111.4</ele>
        <time>2017-10-28T13:02:27Z</time>
      </trkpt>
      <trkpt lat="62.627963316991" lon="18.019774657573">
        <ele>111.4</ele>
        <time>2017-10-28T13:02:28Z</time>
      </trkpt>
      <trkpt lat="62.627926185174" lon="18.019783793844">
        <ele>111.6</ele>
        <time>2017-10-28T13:02:29Z</time>
      </trkpt>
      <trkpt lat="62.627889053357" lon="18.019787984794">
        <ele>111.8</ele>
        <time>2017-10-28T13:02:30Z</time>
      </trkpt>
      <trkpt lat="62.627857621232" lon="18.019785051129">
        <ele>111.8</ele>
        <time>2017-10-28T13:02:31Z</time>
      </trkpt>
      <trkpt lat="62.627824764184" lon="18.019786224595">
        <ele>111.8</ele>
        <time>2017-10-28T13:02:32Z</time>
      </trkpt>
      <trkpt lat="62.627792493869" lon="18.019778094152">
        <ele>112</ele>
        <time>2017-10-28T13:02:33Z</time>
      </trkpt>
      <trkpt lat="62.627761816115" lon="18.019777507419">
        <ele>112.2</ele>
        <time>2017-10-28T13:02:34Z</time>
      </trkpt>
      <trkpt lat="62.627725857764" lon="18.019770634261">
        <ele>112.2</ele>
        <time>2017-10-28T13:02:35Z</time>
      </trkpt>
      <trkpt lat="62.627694090363" lon="18.019768538786">
        <ele>112.4</ele>
        <time>2017-10-28T13:02:36Z</time>
      </trkpt>
      <trkpt lat="62.627658467288" lon="18.019762419999">
        <ele>112.4</ele>
        <time>2017-10-28T13:02:37Z</time>
      </trkpt>
      <trkpt lat="62.627625274964" lon="18.019754457194">
        <ele>112.6</ele>
        <time>2017-10-28T13:02:38Z</time>
      </trkpt>
      <trkpt lat="62.627595686857" lon="18.019743728362">
        <ele>112.8</ele>
        <time>2017-10-28T13:02:39Z</time>
      </trkpt>
      <trkpt lat="62.627561991619" lon="18.01972880858">
        <ele>112.8</ele>
        <time>2017-10-28T13:02:40Z</time>
      </trkpt>
      <trkpt lat="62.627529134571" lon="18.01972461763">
        <ele>113</ele>
        <time>2017-10-28T13:02:41Z</time>
      </trkpt>
      <trkpt lat="62.627496696618" lon="18.019719839947">
        <ele>113.2</ele>
        <time>2017-10-28T13:02:42Z</time>
      </trkpt>
      <trkpt lat="62.627467359968" lon="18.01970533926">
        <ele>113.4</ele>
        <time>2017-10-28T13:02:43Z</time>
      </trkpt>
      <trkpt lat="62.627440537888" lon="18.019692012039">
        <ele>113.6</ele>
        <time>2017-10-28T13:02:44Z</time>
      </trkpt>
      <trkpt lat="62.627405753003" lon="18.019671560203">
        <ele>113.8</ele>
        <time>2017-10-28T13:02:45Z</time>
      </trkpt>
      <trkpt lat="62.627375075249" lon="18.019652198014">
        <ele>113.8</ele>
        <time>2017-10-28T13:02:46Z</time>
      </trkpt>
      <trkpt lat="62.62734481659" lon="18.01962487302">
        <ele>114</ele>
        <time>2017-10-28T13:02:47Z</time>
      </trkpt>
      <trkpt lat="62.627311959542" lon="18.019602158071">
        <ele>114.2</ele>
        <time>2017-10-28T13:02:48Z</time>
      </trkpt>
      <trkpt lat="62.627281281788" lon="18.019586148642">
        <ele>114.2</ele>
        <time>2017-10-28T13:02:49Z</time>
      </trkpt>
      <trkpt lat="62.627247251274" lon="18.019558488372">
        <ele>114.4</ele>
        <time>2017-10-28T13:02:50Z</time>
      </trkpt>
      <trkpt lat="62.627218501357" lon="18.01953351031">
        <ele>114.4</ele>
        <time>2017-10-28T13:02:51Z</time>
      </trkpt>
      <trkpt lat="62.627186650137" lon="18.019506520592">
        <ele>114.6</ele>
        <time>2017-10-28T13:02:52Z</time>
      </trkpt>
      <trkpt lat="62.627158570772" lon="18.019470562241">
        <ele>114.8</ele>
        <time>2017-10-28T13:02:53Z</time>
      </trkpt>
      <trkpt lat="62.62713275452" lon="18.019434771528">
        <ele>115</ele>
        <time>2017-10-28T13:02:54Z</time>
      </trkpt>
      <trkpt lat="62.627099897472" lon="18.019403004127">
        <ele>115</ele>
        <time>2017-10-28T13:02:55Z</time>
      </trkpt>
      <trkpt lat="62.62707156665" lon="18.019374924762">
        <ele>115</ele>
        <time>2017-10-28T13:02:56Z</time>
      </trkpt>
      <trkpt lat="62.62704055362" lon="18.019347935044">
        <ele>115.2</ele>
        <time>2017-10-28T13:02:57Z</time>
      </trkpt>
      <trkpt lat="62.627008199486" lon="18.019333434357">
        <ele>115.4</ele>
        <time>2017-10-28T13:02:58Z</time>
      </trkpt>
      <trkpt lat="62.626976599723" lon="18.019325806828">
        <ele>115.6</ele>
        <time>2017-10-28T13:02:59Z</time>
      </trkpt>
      <trkpt lat="62.626936198965" lon="18.019332177072">
        <ele>115.8</ele>
        <time>2017-10-28T13:03:00Z</time>
      </trkpt>
      <trkpt lat="62.626901162623" lon="18.019362938645">
        <ele>116</ele>
        <time>2017-10-28T13:03:01Z</time>
      </trkpt>
      <trkpt lat="62.626876016923" lon="18.019404848145">
        <ele>116.4</ele>
        <time>2017-10-28T13:03:02Z</time>
      </trkpt>
      <trkpt lat="62.626855565087" lon="18.019457989391">
        <ele>116.4</ele>
        <time>2017-10-28T13:03:03Z</time>
      </trkpt>
      <trkpt lat="62.626843662789" lon="18.01952261384">
        <ele>116.4</ele>
        <time>2017-10-28T13:03:04Z</time>
      </trkpt>
      <trkpt lat="62.626829665016" lon="18.019606181383">
        <ele>116.6</ele>
        <time>2017-10-28T13:03:05Z</time>
      </trkpt>
      <trkpt lat="62.626816421614" lon="18.019679187732">
        <ele>116.6</ele>
        <time>2017-10-28T13:03:06Z</time>
      </trkpt>
      <trkpt lat="62.626807033886" lon="18.019763258189">
        <ele>116.6</ele>
        <time>2017-10-28T13:03:07Z</time>
      </trkpt>
      <trkpt lat="62.62679664033" lon="18.019842383325">
        <ele>116.6</ele>
        <time>2017-10-28T13:03:08Z</time>
      </trkpt>
      <trkpt lat="62.626784570394" lon="18.019907510688">
        <ele>116.6</ele>
        <time>2017-10-28T13:03:09Z</time>
      </trkpt>
      <trkpt lat="62.626778451607" lon="18.019991748783">
        <ele>116.4</ele>
        <time>2017-10-28T13:03:10Z</time>
      </trkpt>
      <trkpt lat="62.626772081363" lon="18.020071125376">
        <ele>116.4</ele>
        <time>2017-10-28T13:03:11Z</time>
      </trkpt>
      <trkpt lat="62.626763699463" lon="18.020151423978">
        <ele>116.2</ele>
        <time>2017-10-28T13:03:12Z</time>
      </trkpt>
      <trkpt lat="62.626763867101" lon="18.020222251033">
        <ele>116.4</ele>
        <time>2017-10-28T13:03:13Z</time>
      </trkpt>
      <trkpt lat="62.626758754142" lon="18.020286791663">
        <ele>116.4</ele>
        <time>2017-10-28T13:03:14Z</time>
      </trkpt>
      <trkpt lat="62.62675389264" lon="18.020370778301">
        <ele>116.4</ele>
        <time>2017-10-28T13:03:15Z</time>
      </trkpt>
      <trkpt lat="62.626750204604" lon="18.020449232885">
        <ele>116.6</ele>
        <time>2017-10-28T13:03:16Z</time>
      </trkpt>
      <trkpt lat="62.626740816876" lon="18.020530872591">
        <ele>116.6</ele>
        <time>2017-10-28T13:03:17Z</time>
      </trkpt>
      <trkpt lat="62.626730339501" lon="18.020603711302">
        <ele>116.8</ele>
        <time>2017-10-28T13:03:18Z</time>
      </trkpt>
      <trkpt lat="62.626721538506" lon="18.020672275244">
        <ele>117</ele>
        <time>2017-10-28T13:03:19Z</time>
      </trkpt>
      <trkpt lat="62.626702595412" lon="18.020745281593">
        <ele>117.2</ele>
        <time>2017-10-28T13:03:20Z</time>
      </trkpt>
      <trkpt lat="62.62669354296" lon="18.02081594101">
        <ele>117.4</ele>
        <time>2017-10-28T13:03:21Z</time>
      </trkpt>
      <trkpt lat="62.626681892119" lon="18.020901855485">
        <ele>117.6</ele>
        <time>2017-10-28T13:03:22Z</time>
      </trkpt>
      <trkpt lat="62.626668648717" lon="18.020990871263">
        <ele>117.8</ele>
        <time>2017-10-28T13:03:23Z</time>
      </trkpt>
      <trkpt lat="62.6266482807" lon="18.021072510969">
        <ele>117.8</ele>
        <time>2017-10-28T13:03:24Z</time>
      </trkpt>
      <trkpt lat="62.626627996502" lon="18.021165885335">
        <ele>117.8</ele>
        <time>2017-10-28T13:03:25Z</time>
      </trkpt>
      <trkpt lat="62.626603772811" lon="18.021245345747">
        <ele>117.8</ele>
        <time>2017-10-28T13:03:26Z</time>
      </trkpt>
      <trkpt lat="62.626576699274" lon="18.021319777019">
        <ele>117.6</ele>
        <time>2017-10-28T13:03:27Z</time>
      </trkpt>
      <trkpt lat="62.62655272704" lon="18.021396974318">
        <ele>117.4</ele>
        <time>2017-10-28T13:03:28Z</time>
      </trkpt>
      <trkpt lat="62.626532945756" lon="18.021466795545">
        <ele>117.4</ele>
        <time>2017-10-28T13:03:29Z</time>
      </trkpt>
      <trkpt lat="62.626511404273" lon="18.021562600662">
        <ele>117.4</ele>
        <time>2017-10-28T13:03:30Z</time>
      </trkpt>
      <trkpt lat="62.6264974065" lon="18.021653125182">
        <ele>117.2</ele>
        <time>2017-10-28T13:03:31Z</time>
      </trkpt>
      <trkpt lat="62.626489946609" lon="18.02174214096">
        <ele>117.2</ele>
        <time>2017-10-28T13:03:32Z</time>
      </trkpt>
      <trkpt lat="62.626483492546" lon="18.021831575833">
        <ele>117</ele>
        <time>2017-10-28T13:03:33Z</time>
      </trkpt>
      <trkpt lat="62.626477038483" lon="18.021907934942">
        <ele>117</ele>
        <time>2017-10-28T13:03:34Z</time>
      </trkpt>
      <trkpt lat="62.626471338791" lon="18.022000052023">
        <ele>117</ele>
        <time>2017-10-28T13:03:35Z</time>
      </trkpt>
      <trkpt lat="62.626464800909" lon="18.022079512435">
        <ele>117.2</ele>
        <time>2017-10-28T13:03:36Z</time>
      </trkpt>
      <trkpt lat="62.626451808964" lon="18.022164840177">
        <ele>117.2</ele>
        <time>2017-10-28T13:03:37Z</time>
      </trkpt>
      <trkpt lat="62.626443427064" lon="18.022227620608">
        <ele>117.2</ele>
        <time>2017-10-28T13:03:38Z</time>
      </trkpt>
      <trkpt lat="62.626431440947" lon="18.022285790994">
        <ele>117.4</ele>
        <time>2017-10-28T13:03:39Z</time>
      </trkpt>
      <trkpt lat="62.626413503681" lon="18.022358629705">
        <ele>117.6</ele>
        <time>2017-10-28T13:03:40Z</time>
      </trkpt>
      <trkpt lat="62.626401266107" lon="18.022444208904">
        <ele>117.8</ele>
        <time>2017-10-28T13:03:41Z</time>
      </trkpt>
      <trkpt lat="62.626378802615" lon="18.02253423051">
        <ele>117.8</ele>
        <time>2017-10-28T13:03:42Z</time>
      </trkpt>
      <trkpt lat="62.626358099322" lon="18.022619055338">
        <ele>117.8</ele>
        <time>2017-10-28T13:03:43Z</time>
      </trkpt>
      <trkpt lat="62.626336306382" lon="18.022708238754">
        <ele>117.8</ele>
        <time>2017-10-28T13:03:44Z</time>
      </trkpt>
      <trkpt lat="62.626310993044" lon="18.022821897318">
        <ele>117.6</ele>
        <time>2017-10-28T13:03:45Z</time>
      </trkpt>
      <trkpt lat="62.62629204995" lon="18.022931364932">
        <ele>117.2</ele>
        <time>2017-10-28T13:03:46Z</time>
      </trkpt>
      <trkpt lat="62.626268496811" lon="18.023047035152">
        <ele>117</ele>
        <time>2017-10-28T13:03:47Z</time>
      </trkpt>
      <trkpt lat="62.626240417446" lon="18.023168153607">
        <ele>116.6</ele>
        <time>2017-10-28T13:03:48Z</time>
      </trkpt>
      <trkpt lat="62.62621326009" lon="18.023278962325">
        <ele>116.4</ele>
        <time>2017-10-28T13:03:49Z</time>
      </trkpt>
      <trkpt lat="62.626187611476" lon="18.023407959766">
        <ele>115.8</ele>
        <time>2017-10-28T13:03:50Z</time>
      </trkpt>
      <trkpt lat="62.626170847676" lon="18.023512146783">
        <ele>115.6</ele>
        <time>2017-10-28T13:03:51Z</time>
      </trkpt>
      <trkpt lat="62.626154335333" lon="18.023621446759">
        <ele>115.2</ele>
        <time>2017-10-28T13:03:52Z</time>
      </trkpt>
      <trkpt lat="62.626140589017" lon="18.023740469739">
        <ele>114.6</ele>
        <time>2017-10-28T13:03:53Z</time>
      </trkpt>
      <trkpt lat="62.626125166321" lon="18.023860330909">
        <ele>114.2</ele>
        <time>2017-10-28T13:03:54Z</time>
      </trkpt>
      <trkpt lat="62.626105636494" lon="18.023994189852">
        <ele>114</ele>
        <time>2017-10-28T13:03:55Z</time>
      </trkpt>
      <trkpt lat="62.626082586269" lon="18.024117487601">
        <ele>113.6</ele>
        <time>2017-10-28T13:03:56Z</time>
      </trkpt>
      <trkpt lat="62.626051573239" lon="18.024234415106">
        <ele>113.4</ele>
        <time>2017-10-28T13:03:57Z</time>
      </trkpt>
      <trkpt lat="62.626014692879" lon="18.024341535788">
        <ele>113</ele>
        <time>2017-10-28T13:03:58Z</time>
      </trkpt>
      <trkpt lat="62.625987367885" lon="18.024438262914">
        <ele>112.8</ele>
        <time>2017-10-28T13:03:59Z</time>
      </trkpt>
      <trkpt lat="62.625958282692" lon="18.024580755214">
        <ele>112.4</ele>
        <time>2017-10-28T13:04:00Z</time>
      </trkpt>
      <trkpt lat="62.625936825028" lon="18.024708076275">
        <ele>112</ele>
        <time>2017-10-28T13:04:01Z</time>
      </trkpt>
      <trkpt lat="62.625910589681" lon="18.024827434531">
        <ele>111.6</ele>
        <time>2017-10-28T13:04:02Z</time>
      </trkpt>
      <trkpt lat="62.625879576651" lon="18.024942434199">
        <ele>111.4</ele>
        <time>2017-10-28T13:04:03Z</time>
      </trkpt>
      <trkpt lat="62.625847473974" lon="18.02504293318">
        <ele>111.2</ele>
        <time>2017-10-28T13:04:04Z</time>
      </trkpt>
      <trkpt lat="62.625810845071" lon="18.025165141282">
        <ele>111.2</ele>
        <time>2017-10-28T13:04:05Z</time>
      </trkpt>
      <trkpt lat="62.625777568928" lon="18.025263544788">
        <ele>111</ele>
        <time>2017-10-28T13:04:06Z</time>
      </trkpt>
      <trkpt lat="62.625746807355" lon="18.025375359334">
        <ele>110.8</ele>
        <time>2017-10-28T13:04:07Z</time>
      </trkpt>
      <trkpt lat="62.625719817637" lon="18.025477367057">
        <ele>110.6</ele>
        <time>2017-10-28T13:04:08Z</time>
      </trkpt>
      <trkpt lat="62.625698359973" lon="18.025566047559">
        <ele>110.4</ele>
        <time>2017-10-28T13:04:09Z</time>
      </trkpt>
      <trkpt lat="62.625673549549" lon="18.025655063337">
        <ele>110.2</ele>
        <time>2017-10-28T13:04:10Z</time>
      </trkpt>
      <trkpt lat="62.62565418736" lon="18.025734104654">
        <ele>109.8</ele>
        <time>2017-10-28T13:04:11Z</time>
      </trkpt>
      <trkpt lat="62.625636333913" lon="18.025820186767">
        <ele>109.6</ele>
        <time>2017-10-28T13:04:12Z</time>
      </trkpt>
      <trkpt lat="62.625620156846" lon="18.025895456229">
        <ele>109</ele>
        <time>2017-10-28T13:04:13Z</time>
      </trkpt>
      <trkpt lat="62.625606745806" lon="18.025955889728">
        <ele>108.8</ele>
        <time>2017-10-28T13:04:14Z</time>
      </trkpt>
      <trkpt lat="62.625594508232" lon="18.026029147534">
        <ele>108.4</ele>
        <time>2017-10-28T13:04:15Z</time>
      </trkpt>
      <trkpt lat="62.625581013373" lon="18.026107183023">
        <ele>108</ele>
        <time>2017-10-28T13:04:16Z</time>
      </trkpt>
      <trkpt lat="62.62556366284" lon="18.026194019507">
        <ele>107.6</ele>
        <time>2017-10-28T13:04:17Z</time>
      </trkpt>
      <trkpt lat="62.62554522266" lon="18.026270630073">
        <ele>107.2</ele>
        <time>2017-10-28T13:04:18Z</time>
      </trkpt>
      <trkpt lat="62.62553432619" lon="18.026333494323">
        <ele>106.6</ele>
        <time>2017-10-28T13:04:19Z</time>
      </trkpt>
      <trkpt lat="62.62552426791" lon="18.026393844003">
        <ele>106.4</ele>
        <time>2017-10-28T13:04:20Z</time>
      </trkpt>
      <trkpt lat="62.625513874354" lon="18.026446817611">
        <ele>105.8</ele>
        <time>2017-10-28T13:04:21Z</time>
      </trkpt>
      <trkpt lat="62.625503648436" lon="18.02650054559">
        <ele>105.6</ele>
        <time>2017-10-28T13:04:22Z</time>
      </trkpt>
      <trkpt lat="62.625488393378" lon="18.026556369044">
        <ele>105.4</ele>
        <time>2017-10-28T13:04:23Z</time>
      </trkpt>
      <trkpt lat="62.625475066157" lon="18.026608336824">
        <ele>105.2</ele>
        <time>2017-10-28T13:04:24Z</time>
      </trkpt>
      <trkpt lat="62.625453105579" lon="18.026663322088">
        <ele>104.6</ele>
        <time>2017-10-28T13:04:25Z</time>
      </trkpt>
      <trkpt lat="62.625430139173" lon="18.02672434232">
        <ele>104.2</ele>
        <time>2017-10-28T13:04:26Z</time>
      </trkpt>
      <trkpt lat="62.625404071464" lon="18.026779830498">
        <ele>104</ele>
        <time>2017-10-28T13:04:27Z</time>
      </trkpt>
      <trkpt lat="62.625373896624" lon="18.026821320903">
        <ele>103.6</ele>
        <time>2017-10-28T13:04:28Z</time>
      </trkpt>
      <trkpt lat="62.625346990725" lon="18.026850992829">
        <ele>103.6</ele>
        <time>2017-10-28T13:04:29Z</time>
      </trkpt>
      <trkpt lat="62.625310613279" lon="18.026877060538">
        <ele>103.4</ele>
        <time>2017-10-28T13:04:30Z</time>
      </trkpt>
      <trkpt lat="62.625280773715" lon="18.026896925641">
        <ele>103.2</ele>
        <time>2017-10-28T13:04:31Z</time>
      </trkpt>
      <trkpt lat="62.625251604703" lon="18.026906816283">
        <ele>103.4</ele>
        <time>2017-10-28T13:04:32Z</time>
      </trkpt>
      <trkpt lat="62.625227129555" lon="18.026917545115">
        <ele>103.4</ele>
        <time>2017-10-28T13:04:33Z</time>
      </trkpt>
      <trkpt lat="62.62520575571" lon="18.026925340282">
        <ele>103.6</ele>
        <time>2017-10-28T13:04:34Z</time>
      </trkpt>
      <trkpt lat="62.62518563915" lon="18.026940427702">
        <ele>104</ele>
        <time>2017-10-28T13:04:35Z</time>
      </trkpt>
      <trkpt lat="62.625167785703" lon="18.026969177619">
        <ele>104.4</ele>
        <time>2017-10-28T13:04:36Z</time>
      </trkpt>
      <trkpt lat="62.625146495677" lon="18.027011170938">
        <ele>105</ele>
        <time>2017-10-28T13:04:37Z</time>
      </trkpt>
      <trkpt lat="62.625130989162" lon="18.027055511189">
        <ele>105.6</ele>
        <time>2017-10-28T13:04:38Z</time>
      </trkpt>
      <trkpt lat="62.625117326665" lon="18.027099599983">
        <ele>106</ele>
        <time>2017-10-28T13:04:39Z</time>
      </trkpt>
      <trkpt lat="62.625098718847" lon="18.027146287166">
        <ele>106.2</ele>
        <time>2017-10-28T13:04:40Z</time>
      </trkpt>
      <trkpt lat="62.625080530124" lon="18.027187693752">
        <ele>106.8</ele>
        <time>2017-10-28T13:04:41Z</time>
      </trkpt>
      <trkpt lat="62.625057144623" lon="18.027226921044">
        <ele>107</ele>
        <time>2017-10-28T13:04:42Z</time>
      </trkpt>
      <trkpt lat="62.625036692787" lon="18.02727000401">
        <ele>107.4</ele>
        <time>2017-10-28T13:04:43Z</time>
      </trkpt>
      <trkpt lat="62.625018336426" lon="18.027307387284">
        <ele>107.8</ele>
        <time>2017-10-28T13:04:44Z</time>
      </trkpt>
      <trkpt lat="62.624993945097" lon="18.027363294557">
        <ele>108.6</ele>
        <time>2017-10-28T13:04:45Z</time>
      </trkpt>
      <trkpt lat="62.624974582908" lon="18.027408640636">
        <ele>108.8</ele>
        <time>2017-10-28T13:04:46Z</time>
      </trkpt>
      <trkpt lat="62.624956226547" lon="18.027447867928">
        <ele>109</ele>
        <time>2017-10-28T13:04:47Z</time>
      </trkpt>
      <trkpt lat="62.624942228774" lon="18.027485837935">
        <ele>109.2</ele>
        <time>2017-10-28T13:04:48Z</time>
      </trkpt>
      <trkpt lat="62.624931248485" lon="18.027517772974">
        <ele>109.4</ele>
        <time>2017-10-28T13:04:49Z</time>
      </trkpt>
      <trkpt lat="62.624918591816" lon="18.02756001775">
        <ele>109.6</ele>
        <time>2017-10-28T13:04:50Z</time>
      </trkpt>
      <trkpt lat="62.624909120269" lon="18.027603184535">
        <ele>109.8</ele>
        <time>2017-10-28T13:04:51Z</time>
      </trkpt>
      <trkpt lat="62.62489897817" lon="18.02765557141">
        <ele>110</ele>
        <time>2017-10-28T13:04:52Z</time>
      </trkpt>
      <trkpt lat="62.624889171347" lon="18.027706281905">
        <ele>110.6</ele>
        <time>2017-10-28T13:04:53Z</time>
      </trkpt>
      <trkpt lat="62.624880286533" lon="18.027748107586">
        <ele>110.8</ele>
        <time>2017-10-28T13:04:54Z</time>
      </trkpt>
      <trkpt lat="62.624865199113" lon="18.027798398986">
        <ele>111.4</ele>
        <time>2017-10-28T13:04:55Z</time>
      </trkpt>
      <trkpt lat="62.624847345666" lon="18.027840224667">
        <ele>111.8</ele>
        <time>2017-10-28T13:04:56Z</time>
      </trkpt>
      <trkpt lat="62.624829492219" lon="18.027883307633">
        <ele>112</ele>
        <time>2017-10-28T13:04:57Z</time>
      </trkpt>
      <trkpt lat="62.62481180641" lon="18.02791708669">
        <ele>112.4</ele>
        <time>2017-10-28T13:04:58Z</time>
      </trkpt>
      <trkpt lat="62.624798060094" lon="18.027942064752">
        <ele>112.6</ele>
        <time>2017-10-28T13:04:59Z</time>
      </trkpt>
      <trkpt lat="62.624775177507" lon="18.027976933456">
        <ele>113</ele>
        <time>2017-10-28T13:05:00Z</time>
      </trkpt>
      <trkpt lat="62.624752211101" lon="18.028011047789">
        <ele>113.2</ele>
        <time>2017-10-28T13:05:01Z</time>
      </trkpt>
      <trkpt lat="62.624729747609" lon="18.028050442719">
        <ele>113.6</ele>
        <time>2017-10-28T13:05:02Z</time>
      </trkpt>
      <trkpt lat="62.624713067628" lon="18.028085143785">
        <ele>113.8</ele>
        <time>2017-10-28T13:05:03Z</time>
      </trkpt>
      <trkpt lat="62.624704434271" lon="18.028124287258">
        <ele>114</ele>
        <time>2017-10-28T13:05:04Z</time>
      </trkpt>
      <trkpt lat="62.624692364335" lon="18.028174830115">
        <ele>114.2</ele>
        <time>2017-10-28T13:05:05Z</time>
      </trkpt>
      <trkpt lat="62.624678282743" lon="18.028223361316">
        <ele>114.2</ele>
        <time>2017-10-28T13:05:06Z</time>
      </trkpt>
      <trkpt lat="62.624666296626" lon="18.028263762074">
        <ele>114.4</ele>
        <time>2017-10-28T13:05:07Z</time>
      </trkpt>
      <trkpt lat="62.624650706292" lon="18.028301899719">
        <ele>114.6</ele>
        <time>2017-10-28T13:05:08Z</time>
      </trkpt>
      <trkpt lat="62.624637965804" lon="18.028324363211">
        <ele>114.8</ele>
        <time>2017-10-28T13:05:09Z</time>
      </trkpt>
      <trkpt lat="62.62462656642" lon="18.028352023481">
        <ele>115</ele>
        <time>2017-10-28T13:05:10Z</time>
      </trkpt>
      <trkpt lat="62.62461064081" lon="18.028379013199">
        <ele>115.2</ele>
        <time>2017-10-28T13:05:11Z</time>
      </trkpt>
      <trkpt lat="62.624594799019" lon="18.028397788655">
        <ele>115.8</ele>
        <time>2017-10-28T13:05:12Z</time>
      </trkpt>
      <trkpt lat="62.624573006079" lon="18.028415893559">
        <ele>116.4</ele>
        <time>2017-10-28T13:05:13Z</time>
      </trkpt>
      <trkpt lat="62.624550794044" lon="18.028431986807">
        <ele>116.8</ele>
        <time>2017-10-28T13:05:14Z</time>
      </trkpt>
      <trkpt lat="62.624524726335" lon="18.028446236037">
        <ele>117.2</ele>
        <time>2017-10-28T13:05:15Z</time>
      </trkpt>
      <trkpt lat="62.624503771585" lon="18.028457467783">
        <ele>117.4</ele>
        <time>2017-10-28T13:05:16Z</time>
      </trkpt>
      <trkpt lat="62.624475021668" lon="18.028475740325">
        <ele>117.6</ele>
        <time>2017-10-28T13:05:17Z</time>
      </trkpt>
      <trkpt lat="62.62444970833" lon="18.028492168849">
        <ele>117.6</ele>
        <time>2017-10-28T13:05:18Z</time>
      </trkpt>
      <trkpt lat="62.624426406648" lon="18.028514380884">
        <ele>117.6</ele>
        <time>2017-10-28T13:05:19Z</time>
      </trkpt>
      <trkpt lat="62.624397824369" lon="18.028551345063">
        <ele>117.8</ele>
        <time>2017-10-28T13:05:20Z</time>
      </trkpt>
      <trkpt lat="62.624377037257" lon="18.028577496591">
        <ele>118</ele>
        <time>2017-10-28T13:05:21Z</time>
      </trkpt>
      <trkpt lat="62.624349628444" lon="18.028593757477">
        <ele>118</ele>
        <time>2017-10-28T13:05:22Z</time>
      </trkpt>
      <trkpt lat="62.624322387269" lon="18.028611359467">
        <ele>118</ele>
        <time>2017-10-28T13:05:23Z</time>
      </trkpt>
      <trkpt lat="62.624297576845" lon="18.028624854326">
        <ele>118.2</ele>
        <time>2017-10-28T13:05:24Z</time>
      </trkpt>
      <trkpt lat="62.624270419489" lon="18.02864295923">
        <ele>118.2</ele>
        <time>2017-10-28T13:05:25Z</time>
      </trkpt>
      <trkpt lat="62.624249632377" lon="18.028652263139">
        <ele>118.2</ele>
        <time>2017-10-28T13:05:26Z</time>
      </trkpt>
      <trkpt lat="62.624226330695" lon="18.02866559036">
        <ele>118.2</ele>
        <time>2017-10-28T13:05:27Z</time>
      </trkpt>
      <trkpt lat="62.624213757845" lon="18.028674139898">
        <ele>118.4</ele>
        <time>2017-10-28T13:05:28Z</time>
      </trkpt>
      <trkpt lat="62.624191797267" lon="18.028693921182">
        <ele>118.6</ele>
        <time>2017-10-28T13:05:29Z</time>
      </trkpt>
      <trkpt lat="62.624164975187" lon="18.028721162357">
        <ele>118.8</ele>
        <time>2017-10-28T13:05:30Z</time>
      </trkpt>
      <trkpt lat="62.62414293079" lon="18.028750750464">
        <ele>119</ele>
        <time>2017-10-28T13:05:31Z</time>
      </trkpt>
      <trkpt lat="62.624123903877" lon="18.02878377515">
        <ele>119.4</ele>
        <time>2017-10-28T13:05:32Z</time>
      </trkpt>
      <trkpt lat="62.624100015462" lon="18.028811603058">
        <ele>119.8</ele>
        <time>2017-10-28T13:05:33Z</time>
      </trkpt>
      <trkpt lat="62.624081994377" lon="18.028831971075">
        <ele>120.2</ele>
        <time>2017-10-28T13:05:34Z</time>
      </trkpt>
      <trkpt lat="62.624055591392" lon="18.028856865318">
        <ele>120.2</ele>
        <time>2017-10-28T13:05:35Z</time>
      </trkpt>
      <trkpt lat="62.624031200063" lon="18.028881508104">
        <ele>120.4</ele>
        <time>2017-10-28T13:05:36Z</time>
      </trkpt>
      <trkpt lat="62.624012340788" lon="18.028906234709">
        <ele>120.8</ele>
        <time>2017-10-28T13:05:37Z</time>
      </trkpt>
      <trkpt lat="62.623995325531" lon="18.028918975197">
        <ele>121</ele>
        <time>2017-10-28T13:05:38Z</time>
      </trkpt>
      <trkpt lat="62.623975041333" lon="18.0289388403">
        <ele>121.2</ele>
        <time>2017-10-28T13:05:39Z</time>
      </trkpt>
      <trkpt lat="62.623954170402" lon="18.028967925493">
        <ele>121.4</ele>
        <time>2017-10-28T13:05:40Z</time>
      </trkpt>
      <trkpt lat="62.623929946711" lon="18.029007068966">
        <ele>121.6</ele>
        <time>2017-10-28T13:05:41Z</time>
      </trkpt>
      <trkpt lat="62.623903711364" lon="18.029045374249">
        <ele>121.6</ele>
        <time>2017-10-28T13:05:42Z</time>
      </trkpt>
      <trkpt lat="62.623881918424" lon="18.029091558518">
        <ele>121.8</ele>
        <time>2017-10-28T13:05:43Z</time>
      </trkpt>
      <trkpt lat="62.623859790208" lon="18.029137575149">
        <ele>122</ele>
        <time>2017-10-28T13:05:44Z</time>
      </trkpt>
      <trkpt lat="62.623837494354" lon="18.029189291472">
        <ele>122</ele>
        <time>2017-10-28T13:05:45Z</time>
      </trkpt>
      <trkpt lat="62.623817629251" lon="18.029230865696">
        <ele>122</ele>
        <time>2017-10-28T13:05:46Z</time>
      </trkpt>
      <trkpt lat="62.623800278718" lon="18.029274032481">
        <ele>122.2</ele>
        <time>2017-10-28T13:05:47Z</time>
      </trkpt>
      <trkpt lat="62.623787119135" lon="18.029319546198">
        <ele>122.2</ele>
        <time>2017-10-28T13:05:48Z</time>
      </trkpt>
      <trkpt lat="62.623769684783" lon="18.029371262521">
        <ele>122.4</ele>
        <time>2017-10-28T13:05:49Z</time>
      </trkpt>
      <trkpt lat="62.623750909327" lon="18.02943923973">
        <ele>122.6</ele>
        <time>2017-10-28T13:05:50Z</time>
      </trkpt>
      <trkpt lat="62.623734648441" lon="18.029499421772">
        <ele>122.8</ele>
        <time>2017-10-28T13:05:51Z</time>
      </trkpt>
      <trkpt lat="62.623713693691" lon="18.029559436176">
        <ele>123</ele>
        <time>2017-10-28T13:05:52Z</time>
      </trkpt>
      <trkpt lat="62.623692655122" lon="18.029608721748">
        <ele>123.4</ele>
        <time>2017-10-28T13:05:53Z</time>
      </trkpt>
      <trkpt lat="62.623678992625" lon="18.029656917673">
        <ele>123.4</ele>
        <time>2017-10-28T13:05:54Z</time>
      </trkpt>
      <trkpt lat="62.623664994852" lon="18.029724727244">
        <ele>123.6</ele>
        <time>2017-10-28T13:05:55Z</time>
      </trkpt>
      <trkpt lat="62.623652170545" lon="18.02978960315">
        <ele>123.6</ele>
        <time>2017-10-28T13:05:56Z</time>
      </trkpt>
      <trkpt lat="62.623637837496" lon="18.029852132124">
        <ele>123.6</ele>
        <time>2017-10-28T13:05:57Z</time>
      </trkpt>
      <trkpt lat="62.623625851379" lon="18.029913319994">
        <ele>123.6</ele>
        <time>2017-10-28T13:05:58Z</time>
      </trkpt>
      <trkpt lat="62.623615122547" lon="18.029971071285">
        <ele>123.6</ele>
        <time>2017-10-28T13:05:59Z</time>
      </trkpt>
      <trkpt lat="62.623600789498" lon="18.030039299951">
        <ele>123.6</ele>
        <time>2017-10-28T13:06:00Z</time>
      </trkpt>
      <trkpt lat="62.623587965191" lon="18.030109707911">
        <ele>124</ele>
        <time>2017-10-28T13:06:01Z</time>
      </trkpt>
      <trkpt lat="62.623571452848" lon="18.030182965717">
        <ele>124</ele>
        <time>2017-10-28T13:06:02Z</time>
      </trkpt>
      <trkpt lat="62.623548989356" lon="18.030246081424">
        <ele>124.2</ele>
        <time>2017-10-28T13:06:03Z</time>
      </trkpt>
      <trkpt lat="62.62353608123" lon="18.03030257543">
        <ele>124.2</ele>
        <time>2017-10-28T13:06:04Z</time>
      </trkpt>
      <trkpt lat="62.623517976326" lon="18.030366194051">
        <ele>124.4</ele>
        <time>2017-10-28T13:06:05Z</time>
      </trkpt>
      <trkpt lat="62.623498027404" lon="18.030415311985">
        <ele>124.4</ele>
        <time>2017-10-28T13:06:06Z</time>
      </trkpt>
      <trkpt lat="62.623476485921" lon="18.030468872326">
        <ele>124.4</ele>
        <time>2017-10-28T13:06:07Z</time>
      </trkpt>
      <trkpt lat="62.623450082936" lon="18.030513883129">
        <ele>124.4</ele>
        <time>2017-10-28T13:06:08Z</time>
      </trkpt>
      <trkpt lat="62.623424769598" lon="18.03055738519">
        <ele>124.4</ele>
        <time>2017-10-28T13:06:09Z</time>
      </trkpt>
      <trkpt lat="62.623397193147" lon="18.030605078201">
        <ele>124.4</ele>
        <time>2017-10-28T13:06:10Z</time>
      </trkpt>
      <trkpt lat="62.623368946144" lon="18.030647825891">
        <ele>124.4</ele>
        <time>2017-10-28T13:06:11Z</time>
      </trkpt>
      <trkpt lat="62.623340028589" lon="18.030696105635">
        <ele>124.6</ele>
        <time>2017-10-28T13:06:12Z</time>
      </trkpt>
      <trkpt lat="62.623310775758" lon="18.030752599641">
        <ele>124.8</ele>
        <time>2017-10-28T13:06:13Z</time>
      </trkpt>
      <trkpt lat="62.623281942022" lon="18.030808423095">
        <ele>124.8</ele>
        <time>2017-10-28T13:06:14Z</time>
      </trkpt>
      <trkpt lat="62.623250174621" lon="18.030865503834">
        <ele>125</ele>
        <time>2017-10-28T13:06:15Z</time>
      </trkpt>
      <trkpt lat="62.623223520179" lon="18.03091361594">
        <ele>125</ele>
        <time>2017-10-28T13:06:16Z</time>
      </trkpt>
      <trkpt lat="62.623194351167" lon="18.030956195992">
        <ele>125</ele>
        <time>2017-10-28T13:06:17Z</time>
      </trkpt>
      <trkpt lat="62.623165265974" lon="18.030995004189">
        <ele>125.2</ele>
        <time>2017-10-28T13:06:18Z</time>
      </trkpt>
      <trkpt lat="62.623141126102" lon="18.031019311699">
        <ele>125</ele>
        <time>2017-10-28T13:06:19Z</time>
      </trkpt>
      <trkpt lat="62.623107849959" lon="18.03106281376">
        <ele>125</ele>
        <time>2017-10-28T13:06:20Z</time>
      </trkpt>
      <trkpt lat="62.623090750883" lon="18.031104304165">
        <ele>125</ele>
        <time>2017-10-28T13:06:21Z</time>
      </trkpt>
      <trkpt lat="62.623071472513" lon="18.031152919185">
        <ele>125</ele>
        <time>2017-10-28T13:06:22Z</time>
      </trkpt>
      <trkpt lat="62.623050350125" lon="18.031203797318">
        <ele>124.8</ele>
        <time>2017-10-28T13:06:23Z</time>
      </trkpt>
      <trkpt lat="62.623026880805" lon="18.031242940791">
        <ele>124.8</ele>
        <time>2017-10-28T13:06:24Z</time>
      </trkpt>
      <trkpt lat="62.622998382345" lon="18.031291052897">
        <ele>124.6</ele>
        <time>2017-10-28T13:06:25Z</time>
      </trkpt>
      <trkpt lat="62.62297533212" lon="18.031332040388">
        <ele>124.6</ele>
        <time>2017-10-28T13:06:26Z</time>
      </trkpt>
      <trkpt lat="62.622950689334" lon="18.031380320132">
        <ele>124.6</ele>
        <time>2017-10-28T13:06:27Z</time>
      </trkpt>
      <trkpt lat="62.62292420253" lon="18.031421894356">
        <ele>124.6</ele>
        <time>2017-10-28T13:06:28Z</time>
      </trkpt>
      <trkpt lat="62.622896039346" lon="18.031464139132">
        <ele>124.6</ele>
        <time>2017-10-28T13:06:29Z</time>
      </trkpt>
      <trkpt lat="62.622865696868" lon="18.031514095256">
        <ele>124.8</ele>
        <time>2017-10-28T13:06:30Z</time>
      </trkpt>
      <trkpt lat="62.622840718806" lon="18.031560363344">
        <ele>124.8</ele>
        <time>2017-10-28T13:06:31Z</time>
      </trkpt>
      <trkpt lat="62.622813393812" lon="18.031606715251">
        <ele>125</ele>
        <time>2017-10-28T13:06:32Z</time>
      </trkpt>
      <trkpt lat="62.622786068818" lon="18.031650552588">
        <ele>125.2</ele>
        <time>2017-10-28T13:06:33Z</time>
      </trkpt>
      <trkpt lat="62.622768969742" lon="18.031689863699">
        <ele>125.4</ele>
        <time>2017-10-28T13:06:34Z</time>
      </trkpt>
      <trkpt lat="62.622738711083" lon="18.031729845362">
        <ele>125.2</ele>
        <time>2017-10-28T13:06:35Z</time>
      </trkpt>
      <trkpt lat="62.622716247591" lon="18.0317635406">
        <ele>125.8</ele>
        <time>2017-10-28T13:06:36Z</time>
      </trkpt>
      <trkpt lat="62.622695544298" lon="18.031799163675">
        <ele>126</ele>
        <time>2017-10-28T13:06:37Z</time>
      </trkpt>
      <trkpt lat="62.622669476589" lon="18.031831769266">
        <ele>126</ele>
        <time>2017-10-28T13:06:38Z</time>
      </trkpt>
      <trkpt lat="62.622651120228" lon="18.031865548323">
        <ele>126.4</ele>
        <time>2017-10-28T13:06:39Z</time>
      </trkpt>
      <trkpt lat="62.622624465786" lon="18.031911397316">
        <ele>126.6</ele>
        <time>2017-10-28T13:06:40Z</time>
      </trkpt>
      <trkpt lat="62.622599320086" lon="18.03195464792">
        <ele>127</ele>
        <time>2017-10-28T13:06:41Z</time>
      </trkpt>
      <trkpt lat="62.622573922929" lon="18.031997144153">
        <ele>127.2</ele>
        <time>2017-10-28T13:06:42Z</time>
      </trkpt>
      <trkpt lat="62.622546514116" lon="18.032041652042">
        <ele>127.4</ele>
        <time>2017-10-28T13:06:43Z</time>
      </trkpt>
      <trkpt lat="62.622522038968" lon="18.032086830483">
        <ele>127.8</ele>
        <time>2017-10-28T13:06:44Z</time>
      </trkpt>
      <trkpt lat="62.62249421106" lon="18.032128739983">
        <ele>128</ele>
        <time>2017-10-28T13:06:45Z</time>
      </trkpt>
      <trkpt lat="62.6224657126" lon="18.032167883456">
        <ele>128.2</ele>
        <time>2017-10-28T13:06:46Z</time>
      </trkpt>
      <trkpt lat="62.62243805233" lon="18.032215576467">
        <ele>128.4</ele>
        <time>2017-10-28T13:06:47Z</time>
      </trkpt>
      <trkpt lat="62.622411733164" lon="18.032267208971">
        <ele>128.4</ele>
        <time>2017-10-28T13:06:48Z</time>
      </trkpt>
      <trkpt lat="62.622388012387" lon="18.032313225602">
        <ele>128.6</ele>
        <time>2017-10-28T13:06:49Z</time>
      </trkpt>
      <trkpt lat="62.622358172823" lon="18.032369803427">
        <ele>128.8</ele>
        <time>2017-10-28T13:06:50Z</time>
      </trkpt>
      <trkpt lat="62.622334452046" lon="18.032412886393">
        <ele>129</ele>
        <time>2017-10-28T13:06:51Z</time>
      </trkpt>
      <trkpt lat="62.622307546147" lon="18.032455969359">
        <ele>129.2</ele>
        <time>2017-10-28T13:06:52Z</time>
      </trkpt>
      <trkpt lat="62.622280304972" lon="18.032492430624">
        <ele>129.4</ele>
        <time>2017-10-28T13:06:53Z</time>
      </trkpt>
      <trkpt lat="62.622258931127" lon="18.032533334296">
        <ele>129.6</ele>
        <time>2017-10-28T13:06:54Z</time>
      </trkpt>
      <trkpt lat="62.622232360504" lon="18.032573483597">
        <ele>129.8</ele>
        <time>2017-10-28T13:06:55Z</time>
      </trkpt>
      <trkpt lat="62.622206963347" lon="18.032616566563">
        <ele>130</ele>
        <time>2017-10-28T13:06:56Z</time>
      </trkpt>
      <trkpt lat="62.622184164579" lon="18.032654788027">
        <ele>130</ele>
        <time>2017-10-28T13:06:57Z</time>
      </trkpt>
      <trkpt lat="62.622157342499" lon="18.032689908188">
        <ele>130.2</ele>
        <time>2017-10-28T13:06:58Z</time>
      </trkpt>
      <trkpt lat="62.622129179315" lon="18.032722178503">
        <ele>130.4</ele>
        <time>2017-10-28T13:06:59Z</time>
      </trkpt>
      <trkpt lat="62.622096657543" lon="18.032749335859">
        <ele>130.4</ele>
        <time>2017-10-28T13:07:00Z</time>
      </trkpt>
      <trkpt lat="62.622069332549" lon="18.032769536238">
        <ele>130.4</ele>
        <time>2017-10-28T13:07:01Z</time>
      </trkpt>
      <trkpt lat="62.622040414994" lon="18.032789233703">
        <ele>130.4</ele>
        <time>2017-10-28T13:07:02Z</time>
      </trkpt>
      <trkpt lat="62.622002947901" lon="18.032803315295">
        <ele>130.6</ele>
        <time>2017-10-28T13:07:03Z</time>
      </trkpt>
      <trkpt lat="62.621978640391" lon="18.032806081322">
        <ele>130.8</ele>
        <time>2017-10-28T13:07:04Z</time>
      </trkpt>
      <trkpt lat="62.621950141931" lon="18.032810188453">
        <ele>131</ele>
        <time>2017-10-28T13:07:05Z</time>
      </trkpt>
      <trkpt lat="62.621922230204" lon="18.032810020815">
        <ele>131</ele>
        <time>2017-10-28T13:07:06Z</time>
      </trkpt>
      <trkpt lat="62.621890798079" lon="18.032806668055">
        <ele>131.4</ele>
        <time>2017-10-28T13:07:07Z</time>
      </trkpt>
      <trkpt lat="62.621859282135" lon="18.032812870661">
        <ele>131.8</ele>
        <time>2017-10-28T13:07:08Z</time>
      </trkpt>
      <trkpt lat="62.62183204096" lon="18.032809517901">
        <ele>132</ele>
        <time>2017-10-28T13:07:09Z</time>
      </trkpt>
      <trkpt lat="62.621798680998" lon="18.032818570353">
        <ele>132.2</ele>
        <time>2017-10-28T13:07:10Z</time>
      </trkpt>
      <trkpt lat="62.621767751787" lon="18.032827287529">
        <ele>132.4</ele>
        <time>2017-10-28T13:07:11Z</time>
      </trkpt>
      <trkpt lat="62.621735816748" lon="18.032839357465">
        <ele>132.2</ele>
        <time>2017-10-28T13:07:12Z</time>
      </trkpt>
      <trkpt lat="62.621703630252" lon="18.032855869808">
        <ele>132</ele>
        <time>2017-10-28T13:07:13Z</time>
      </trkpt>
      <trkpt lat="62.621673706869" lon="18.032870286676">
        <ele>132</ele>
        <time>2017-10-28T13:07:14Z</time>
      </trkpt>
      <trkpt lat="62.621634814853" lon="18.032897946946">
        <ele>132</ele>
        <time>2017-10-28T13:07:15Z</time>
      </trkpt>
      <trkpt lat="62.621605981117" lon="18.032916554764">
        <ele>132</ele>
        <time>2017-10-28T13:07:16Z</time>
      </trkpt>
      <trkpt lat="62.621571615327" lon="18.032943795939">
        <ele>132</ele>
        <time>2017-10-28T13:07:17Z</time>
      </trkpt>
      <trkpt lat="62.621538506822" lon="18.032970366562">
        <ele>132.2</ele>
        <time>2017-10-28T13:07:18Z</time>
      </trkpt>
      <trkpt lat="62.621507996706" lon="18.032985118706">
        <ele>132.2</ele>
        <time>2017-10-28T13:07:19Z</time>
      </trkpt>
      <trkpt lat="62.621474469106" lon="18.032998948841">
        <ele>132.2</ele>
        <time>2017-10-28T13:07:20Z</time>
      </trkpt>
      <trkpt lat="62.621438846031" lon="18.033015712641">
        <ele>132.2</ele>
        <time>2017-10-28T13:07:21Z</time>
      </trkpt>
      <trkpt lat="62.621401378938" lon="18.033033566088">
        <ele>132.2</ele>
        <time>2017-10-28T13:07:22Z</time>
      </trkpt>
      <trkpt lat="62.621364582397" lon="18.033059549978">
        <ele>132.4</ele>
        <time>2017-10-28T13:07:23Z</time>
      </trkpt>
      <trkpt lat="62.621330635702" lon="18.033084192764">
        <ele>132.4</ele>
        <time>2017-10-28T13:07:24Z</time>
      </trkpt>
      <trkpt lat="62.621301718147" lon="18.033126856635">
        <ele>132.4</ele>
        <time>2017-10-28T13:07:25Z</time>
      </trkpt>
      <trkpt lat="62.621272800592" lon="18.033178070044">
        <ele>132.4</ele>
        <time>2017-10-28T13:07:26Z</time>
      </trkpt>
      <trkpt lat="62.621250923833" lon="18.033245795796">
        <ele>132.2</ele>
        <time>2017-10-28T13:07:27Z</time>
      </trkpt>
      <trkpt lat="62.621228460341" lon="18.033317796317">
        <ele>132.4</ele>
        <time>2017-10-28T13:07:28Z</time>
      </trkpt>
      <trkpt lat="62.621211025989" lon="18.033390718847">
        <ele>132.4</ele>
        <time>2017-10-28T13:07:29Z</time>
      </trkpt>
      <trkpt lat="62.621188646316" lon="18.033476884779">
        <ele>132.2</ele>
        <time>2017-10-28T13:07:30Z</time>
      </trkpt>
      <trkpt lat="62.621169619403" lon="18.033555004087">
        <ele>132.2</ele>
        <time>2017-10-28T13:07:31Z</time>
      </trkpt>
      <trkpt lat="62.621159561123" lon="18.03362935154">
        <ele>132.2</ele>
        <time>2017-10-28T13:07:32Z</time>
      </trkpt>
      <trkpt lat="62.621145647169" lon="18.03370981778">
        <ele>132.2</ele>
        <time>2017-10-28T13:07:33Z</time>
      </trkpt>
      <trkpt lat="62.621135421251" lon="18.033781483025">
        <ele>132</ele>
        <time>2017-10-28T13:07:34Z</time>
      </trkpt>
      <trkpt lat="62.621123938048" lon="18.033873516287">
        <ele>132</ele>
        <time>2017-10-28T13:07:35Z</time>
      </trkpt>
      <trkpt lat="62.621116478157" lon="18.033964124626">
        <ele>132</ele>
        <time>2017-10-28T13:07:36Z</time>
      </trkpt>
      <trkpt lat="62.621104575859" lon="18.03406521034">
        <ele>132</ele>
        <time>2017-10-28T13:07:37Z</time>
      </trkpt>
      <trkpt lat="62.621093176475" lon="18.034150370444">
        <ele>131.8</ele>
        <time>2017-10-28T13:07:38Z</time>
      </trkpt>
      <trkpt lat="62.621073981924" lon="18.034226310458">
        <ele>131.6</ele>
        <time>2017-10-28T13:07:39Z</time>
      </trkpt>
      <trkpt lat="62.621047076025" lon="18.034307698707">
        <ele>131.4</ele>
        <time>2017-10-28T13:07:40Z</time>
      </trkpt>
      <trkpt lat="62.621017236461" lon="18.034374167174">
        <ele>131.6</ele>
        <time>2017-10-28T13:07:41Z</time>
      </trkpt>
      <trkpt lat="62.62099301277" lon="18.034439629813">
        <ele>131.4</ele>
        <time>2017-10-28T13:07:42Z</time>
      </trkpt>
      <trkpt lat="62.62096032336" lon="18.03449855457">
        <ele>131.2</ele>
        <time>2017-10-28T13:07:43Z</time>
      </trkpt>
      <trkpt lat="62.620930819072" lon="18.034545157934">
        <ele>131</ele>
        <time>2017-10-28T13:07:44Z</time>
      </trkpt>
      <trkpt lat="62.62089745911" lon="18.034597544809">
        <ele>130.2</ele>
        <time>2017-10-28T13:07:45Z</time>
      </trkpt>
      <trkpt lat="62.62086896065" lon="18.034640963051">
        <ele>130.4</ele>
        <time>2017-10-28T13:07:46Z</time>
      </trkpt>
      <trkpt lat="62.620845323692" lon="18.034683124008">
        <ele>130.2</ele>
        <time>2017-10-28T13:07:47Z</time>
      </trkpt>
      <trkpt lat="62.620816741413" lon="18.034722854214">
        <ele>130</ele>
        <time>2017-10-28T13:07:48Z</time>
      </trkpt>
      <trkpt lat="62.620796624853" lon="18.034766859189">
        <ele>130.2</ele>
        <time>2017-10-28T13:07:49Z</time>
      </trkpt>
      <trkpt lat="62.620775418646" lon="18.034812540544">
        <ele>131</ele>
        <time>2017-10-28T13:07:50Z</time>
      </trkpt>
      <trkpt lat="62.620752536059" lon="18.034850175275">
        <ele>131</ele>
        <time>2017-10-28T13:07:51Z</time>
      </trkpt>
      <trkpt lat="62.620731832766" lon="18.034895353716">
        <ele>130.8</ele>
        <time>2017-10-28T13:07:52Z</time>
      </trkpt>
      <trkpt lat="62.620710039826" lon="18.034937514673">
        <ele>131</ele>
        <time>2017-10-28T13:07:53Z</time>
      </trkpt>
      <trkpt lat="62.620689420352" lon="18.034992416118">
        <ele>131</ele>
        <time>2017-10-28T13:07:54Z</time>
      </trkpt>
      <trkpt lat="62.62066444229" lon="18.035076654213">
        <ele>131</ele>
        <time>2017-10-28T13:07:55Z</time>
      </trkpt>
      <trkpt lat="62.620637955486" lon="18.035164161249">
        <ele>131</ele>
        <time>2017-10-28T13:07:56Z</time>
      </trkpt>
      <trkpt lat="62.620611301044" lon="18.035242783471">
        <ele>131</ele>
        <time>2017-10-28T13:07:57Z</time>
      </trkpt>
      <trkpt lat="62.620584898059" lon="18.035306150635">
        <ele>130.8</ele>
        <time>2017-10-28T13:07:58Z</time>
      </trkpt>
      <trkpt lat="62.620558243617" lon="18.035390891644">
        <ele>130.6</ele>
        <time>2017-10-28T13:07:59Z</time>
      </trkpt>
      <trkpt lat="62.620531505356" lon="18.035484182191">
        <ele>130.6</ele>
        <time>2017-10-28T13:08:00Z</time>
      </trkpt>
      <trkpt lat="62.620506108199" lon="18.035573449426">
        <ele>130.2</ele>
        <time>2017-10-28T13:08:01Z</time>
      </trkpt>
      <trkpt lat="62.620474759893" lon="18.035654586218">
        <ele>130</ele>
        <time>2017-10-28T13:08:02Z</time>
      </trkpt>
      <trkpt lat="62.620446429071" lon="18.035746032747">
        <ele>130</ele>
        <time>2017-10-28T13:08:03Z</time>
      </trkpt>
      <trkpt lat="62.620419606991" lon="18.035825828435">
        <ele>129.6</ele>
        <time>2017-10-28T13:08:04Z</time>
      </trkpt>
      <trkpt lat="62.62038448683" lon="18.035923812846">
        <ele>129.4</ele>
        <time>2017-10-28T13:08:05Z</time>
      </trkpt>
      <trkpt lat="62.620350875411" lon="18.03601064933">
        <ele>129.2</ele>
        <time>2017-10-28T13:08:06Z</time>
      </trkpt>
      <trkpt lat="62.620313324499" lon="18.036104861886">
        <ele>129</ele>
        <time>2017-10-28T13:08:07Z</time>
      </trkpt>
      <trkpt lat="62.620275689768" lon="18.036191195456">
        <ele>128.8</ele>
        <time>2017-10-28T13:08:08Z</time>
      </trkpt>
      <trkpt lat="62.620241910711" lon="18.036260178493">
        <ele>128.6</ele>
        <time>2017-10-28T13:08:09Z</time>
      </trkpt>
      <trkpt lat="62.620210562405" lon="18.036335950869">
        <ele>128.2</ele>
        <time>2017-10-28T13:08:10Z</time>
      </trkpt>
      <trkpt lat="62.620176783348" lon="18.03640543682">
        <ele>128</ele>
        <time>2017-10-28T13:08:11Z</time>
      </trkpt>
      <trkpt lat="62.620143339567" lon="18.036468636346">
        <ele>127.4</ele>
        <time>2017-10-28T13:08:12Z</time>
      </trkpt>
      <trkpt lat="62.62011375146" lon="18.036527225827">
        <ele>127.4</ele>
        <time>2017-10-28T13:08:13Z</time>
      </trkpt>
      <trkpt lat="62.62008692938" lon="18.036587407869">
        <ele>126.8</ele>
        <time>2017-10-28T13:08:14Z</time>
      </trkpt>
      <trkpt lat="62.620054994341" lon="18.03663845364">
        <ele>126.8</ele>
        <time>2017-10-28T13:08:15Z</time>
      </trkpt>
      <trkpt lat="62.620027836985" lon="18.036684721728">
        <ele>126.6</ele>
        <time>2017-10-28T13:08:16Z</time>
      </trkpt>
      <trkpt lat="62.619999673801" lon="18.036736940965">
        <ele>126.6</ele>
        <time>2017-10-28T13:08:17Z</time>
      </trkpt>
      <trkpt lat="62.619971510617" lon="18.036783125234">
        <ele>126.8</ele>
        <time>2017-10-28T13:08:18Z</time>
      </trkpt>
      <trkpt lat="62.619944604718" lon="18.036817742481">
        <ele>127</ele>
        <time>2017-10-28T13:08:19Z</time>
      </trkpt>
      <trkpt lat="62.619911412394" lon="18.036852611185">
        <ele>127</ele>
        <time>2017-10-28T13:08:20Z</time>
      </trkpt>
      <trkpt lat="62.619883416848" lon="18.036893766314">
        <ele>127</ele>
        <time>2017-10-28T13:08:21Z</time>
      </trkpt>
      <trkpt lat="62.619845949755" lon="18.036929389389">
        <ele>126.8</ele>
        <time>2017-10-28T13:08:22Z</time>
      </trkpt>
      <trkpt lat="62.619805465178" lon="18.036963587541">
        <ele>126.8</ele>
        <time>2017-10-28T13:08:23Z</time>
      </trkpt>
      <trkpt lat="62.619767327533" lon="18.037001138453">
        <ele>125.8</ele>
        <time>2017-10-28T13:08:24Z</time>
      </trkpt>
      <trkpt lat="62.619726256223" lon="18.037040952478">
        <ele>125</ele>
        <time>2017-10-28T13:08:25Z</time>
      </trkpt>
      <trkpt lat="62.619693399175" lon="18.03707682701">
        <ele>124.4</ele>
        <time>2017-10-28T13:08:26Z</time>
      </trkpt>
      <trkpt lat="62.619663391973" lon="18.037128291876">
        <ele>124.4</ele>
        <time>2017-10-28T13:08:27Z</time>
      </trkpt>
      <trkpt lat="62.619639000644" lon="18.037186210805">
        <ele>124.2</ele>
        <time>2017-10-28T13:08:28Z</time>
      </trkpt>
      <trkpt lat="62.619617375342" lon="18.037251086711">
        <ele>124.6</ele>
        <time>2017-10-28T13:08:29Z</time>
      </trkpt>
      <trkpt lat="62.6195907209" lon="18.037363655628">
        <ele>124.6</ele>
        <time>2017-10-28T13:08:30Z</time>
      </trkpt>
      <trkpt lat="62.619577477498" lon="18.037464992799">
        <ele>124.6</ele>
        <time>2017-10-28T13:08:31Z</time>
      </trkpt>
      <trkpt lat="62.619565826657" lon="18.037568173988">
        <ele>124.2</ele>
        <time>2017-10-28T13:08:32Z</time>
      </trkpt>
      <trkpt lat="62.619557528576" lon="18.037672947738">
        <ele>123.8</ele>
        <time>2017-10-28T13:08:33Z</time>
      </trkpt>
      <trkpt lat="62.619551242151" lon="18.037738326558">
        <ele>123.6</ele>
        <time>2017-10-28T13:08:34Z</time>
      </trkpt>
      <trkpt lat="62.619542357337" lon="18.037865899076">
        <ele>123.4</ele>
        <time>2017-10-28T13:08:35Z</time>
      </trkpt>
      <trkpt lat="62.619531125591" lon="18.037983161857">
        <ele>123.2</ele>
        <time>2017-10-28T13:08:36Z</time>
      </trkpt>
      <trkpt lat="62.619519642388" lon="18.03809522786">
        <ele>122.8</ele>
        <time>2017-10-28T13:08:37Z</time>
      </trkpt>
      <trkpt lat="62.619503800597" lon="18.038197319402">
        <ele>122.2</ele>
        <time>2017-10-28T13:08:38Z</time>
      </trkpt>
      <trkpt lat="62.619490305738" lon="18.038291867234">
        <ele>122.4</ele>
        <time>2017-10-28T13:08:39Z</time>
      </trkpt>
      <trkpt lat="62.619471781739" lon="18.03839194712">
        <ele>122.4</ele>
        <time>2017-10-28T13:08:40Z</time>
      </trkpt>
      <trkpt lat="62.619454347387" lon="18.038491775549">
        <ele>122</ele>
        <time>2017-10-28T13:08:41Z</time>
      </trkpt>
      <trkpt lat="62.619432219171" lon="18.038603003362">
        <ele>121.8</ele>
        <time>2017-10-28T13:08:42Z</time>
      </trkpt>
      <trkpt lat="62.619407576385" lon="18.038710543139">
        <ele>121.8</ele>
        <time>2017-10-28T13:08:43Z</time>
      </trkpt>
      <trkpt lat="62.619383855608" lon="18.038813724328">
        <ele>121.8</ele>
        <time>2017-10-28T13:08:44Z</time>
      </trkpt>
      <trkpt lat="62.619354686596" lon="18.038931322385">
        <ele>122</ele>
        <time>2017-10-28T13:08:45Z</time>
      </trkpt>
      <trkpt lat="62.619328451249" lon="18.039039700352">
        <ele>121.6</ele>
        <time>2017-10-28T13:08:46Z</time>
      </trkpt>
      <trkpt lat="62.619297605857" lon="18.0391396126">
        <ele>121.6</ele>
        <time>2017-10-28T13:08:47Z</time>
      </trkpt>
      <trkpt lat="62.619264748809" lon="18.03923935721">
        <ele>121</ele>
        <time>2017-10-28T13:08:48Z</time>
      </trkpt>
      <trkpt lat="62.619234657788" lon="18.039311525369">
        <ele>120.8</ele>
        <time>2017-10-28T13:08:49Z</time>
      </trkpt>
      <trkpt lat="62.619202890387" lon="18.039380089311">
        <ele>120.6</ele>
        <time>2017-10-28T13:08:50Z</time>
      </trkpt>
      <trkpt lat="62.619164501285" lon="18.03945644842">
        <ele>120.2</ele>
        <time>2017-10-28T13:08:51Z</time>
      </trkpt>
      <trkpt lat="62.619124016708" lon="18.039530376778">
        <ele>119.8</ele>
        <time>2017-10-28T13:08:52Z</time>
      </trkpt>
      <trkpt lat="62.619082023389" lon="18.039599611272">
        <ele>119.8</ele>
        <time>2017-10-28T13:08:53Z</time>
      </trkpt>
      <trkpt lat="62.619043047554" lon="18.039666247377">
        <ele>119.8</ele>
        <time>2017-10-28T13:08:54Z</time>
      </trkpt>
      <trkpt lat="62.619002227701" lon="18.039743863771">
        <ele>119.6</ele>
        <time>2017-10-28T13:08:55Z</time>
      </trkpt>
      <trkpt lat="62.618968281006" lon="18.039815948111">
        <ele>119.2</ele>
        <time>2017-10-28T13:08:56Z</time>
      </trkpt>
      <trkpt lat="62.618933915216" lon="18.039899515654">
        <ele>119</ele>
        <time>2017-10-28T13:08:57Z</time>
      </trkpt>
      <trkpt lat="62.618904075652" lon="18.039988782889">
        <ele>118.6</ele>
        <time>2017-10-28T13:08:58Z</time>
      </trkpt>
      <trkpt lat="62.618875577192" lon="18.040077295753">
        <ele>118.2</ele>
        <time>2017-10-28T13:08:59Z</time>
      </trkpt>
      <trkpt lat="62.618845067076" lon="18.040176369811">
        <ele>118.2</ele>
        <time>2017-10-28T13:09:00Z</time>
      </trkpt>
      <trkpt lat="62.61882210067" lon="18.040247280685">
        <ele>117.8</ele>
        <time>2017-10-28T13:09:01Z</time>
      </trkpt>
      <trkpt lat="62.618796368237" lon="18.04030972584">
        <ele>117.4</ele>
        <time>2017-10-28T13:09:02Z</time>
      </trkpt>
      <trkpt lat="62.618765439026" lon="18.040374769384">
        <ele>117.4</ele>
        <time>2017-10-28T13:09:03Z</time>
      </trkpt>
      <trkpt lat="62.618742137344" lon="18.040429000277">
        <ele>117</ele>
        <time>2017-10-28T13:09:04Z</time>
      </trkpt>
      <trkpt lat="62.618716404911" lon="18.040495133468">
        <ele>117</ele>
        <time>2017-10-28T13:09:05Z</time>
      </trkpt>
      <trkpt lat="62.618696539808" lon="18.040560512288">
        <ele>116.6</ele>
        <time>2017-10-28T13:09:06Z</time>
      </trkpt>
      <trkpt lat="62.618675082144" lon="18.040631758438">
        <ele>117</ele>
        <time>2017-10-28T13:09:07Z</time>
      </trkpt>
      <trkpt lat="62.618657647792" lon="18.040704848606">
        <ele>116</ele>
        <time>2017-10-28T13:09:08Z</time>
      </trkpt>
      <trkpt lat="62.618645829313" lon="18.040776849127">
        <ele>115.8</ele>
        <time>2017-10-28T13:09:09Z</time>
      </trkpt>
      <trkpt lat="62.618631412445" lon="18.040869469122">
        <ele>115</ele>
        <time>2017-10-28T13:09:10Z</time>
      </trkpt>
      <trkpt lat="62.61862261145" lon="18.040965274239">
        <ele>115</ele>
        <time>2017-10-28T13:09:11Z</time>
      </trkpt>
      <trkpt lat="62.618620180699" lon="18.041068203971">
        <ele>114.8</ele>
        <time>2017-10-28T13:09:12Z</time>
      </trkpt>
      <trkpt lat="62.618616073568" lon="18.041172390988">
        <ele>114.4</ele>
        <time>2017-10-28T13:09:13Z</time>
      </trkpt>
      <trkpt lat="62.618611044428" lon="18.041278422023">
        <ele>114</ele>
        <time>2017-10-28T13:09:14Z</time>
      </trkpt>
      <trkpt lat="62.618613056084" lon="18.041389482198">
        <ele>114</ele>
        <time>2017-10-28T13:09:15Z</time>
      </trkpt>
      <trkpt lat="62.618610122419" lon="18.041485622591">
        <ele>113.8</ele>
        <time>2017-10-28T13:09:16Z</time>
      </trkpt>
      <trkpt lat="62.618609284229" lon="18.041571034152">
        <ele>113.6</ele>
        <time>2017-10-28T13:09:17Z</time>
      </trkpt>
      <trkpt lat="62.618602327252" lon="18.041664576156">
        <ele>114</ele>
        <time>2017-10-28T13:09:18Z</time>
      </trkpt>
      <trkpt lat="62.618599645044" lon="18.04174135436">
        <ele>113.6</ele>
        <time>2017-10-28T13:09:19Z</time>
      </trkpt>
      <trkpt lat="62.618591263144" lon="18.04184193716">
        <ele>113</ele>
        <time>2017-10-28T13:09:20Z</time>
      </trkpt>
      <trkpt lat="62.618585395814" lon="18.041922487219">
        <ele>112.4</ele>
        <time>2017-10-28T13:09:21Z</time>
      </trkpt>
      <trkpt lat="62.61857902557" lon="18.042022650924">
        <ele>112</ele>
        <time>2017-10-28T13:09:22Z</time>
      </trkpt>
      <trkpt lat="62.618572152412" lon="18.042115606195">
        <ele>111.8</ele>
        <time>2017-10-28T13:09:23Z</time>
      </trkpt>
      <trkpt lat="62.618570727489" lon="18.042199592833">
        <ele>110.6</ele>
        <time>2017-10-28T13:09:24Z</time>
      </trkpt>
      <trkpt lat="62.618569470204" lon="18.042289111525">
        <ele>110</ele>
        <time>2017-10-28T13:09:25Z</time>
      </trkpt>
      <trkpt lat="62.618565446892" lon="18.042369745403">
        <ele>109.6</ele>
        <time>2017-10-28T13:09:26Z</time>
      </trkpt>
      <trkpt lat="62.618570140756" lon="18.042451552747">
        <ele>109</ele>
        <time>2017-10-28T13:09:27Z</time>
      </trkpt>
      <trkpt lat="62.618571733317" lon="18.042520451965">
        <ele>108.4</ele>
        <time>2017-10-28T13:09:28Z</time>
      </trkpt>
      <trkpt lat="62.618578103561" lon="18.042569988994">
        <ele>108.8</ele>
        <time>2017-10-28T13:09:29Z</time>
      </trkpt>
      <trkpt lat="62.61858405471" lon="18.042646683379">
        <ele>108.8</ele>
        <time>2017-10-28T13:09:30Z</time>
      </trkpt>
      <trkpt lat="62.618591682239" lon="18.042716756063">
        <ele>108.6</ele>
        <time>2017-10-28T13:09:31Z</time>
      </trkpt>
      <trkpt lat="62.618599309768" lon="18.042778782123">
        <ele>108.4</ele>
        <time>2017-10-28T13:09:32Z</time>
      </trkpt>
      <trkpt lat="62.618603249261" lon="18.042834018844">
        <ele>108</ele>
        <time>2017-10-28T13:09:33Z</time>
      </trkpt>
      <trkpt lat="62.618606518202" lon="18.042886154262">
        <ele>107.8</ele>
        <time>2017-10-28T13:09:34Z</time>
      </trkpt>
      <trkpt lat="62.618615403016" lon="18.042945498114">
        <ele>107.4</ele>
        <time>2017-10-28T13:09:35Z</time>
      </trkpt>
      <trkpt lat="62.618621857079" lon="18.043012637133">
        <ele>107</ele>
        <time>2017-10-28T13:09:36Z</time>
      </trkpt>
      <trkpt lat="62.618622862907" lon="18.043092935735">
        <ele>106</ele>
        <time>2017-10-28T13:09:37Z</time>
      </trkpt>
      <trkpt lat="62.618620683613" lon="18.043171725595">
        <ele>105.6</ele>
        <time>2017-10-28T13:09:38Z</time>
      </trkpt>
      <trkpt lat="62.618614313369" lon="18.043244648125">
        <ele>105.2</ele>
        <time>2017-10-28T13:09:39Z</time>
      </trkpt>
      <trkpt lat="62.618599393587" lon="18.043324862908">
        <ele>104.6</ele>
        <time>2017-10-28T13:09:40Z</time>
      </trkpt>
      <trkpt lat="62.618580282855" lon="18.043402395483">
        <ele>104.4</ele>
        <time>2017-10-28T13:09:41Z</time>
      </trkpt>
      <trkpt lat="62.618559411924" lon="18.04348059861">
        <ele>104</ele>
        <time>2017-10-28T13:09:42Z</time>
      </trkpt>
      <trkpt lat="62.618539798278" lon="18.043551928579">
        <ele>104.2</ele>
        <time>2017-10-28T13:09:43Z</time>
      </trkpt>
      <trkpt lat="62.618521274279" lon="18.043611775345">
        <ele>104</ele>
        <time>2017-10-28T13:09:44Z</time>
      </trkpt>
      <trkpt lat="62.618494871294" lon="18.043681093658">
        <ele>103.4</ele>
        <time>2017-10-28T13:09:45Z</time>
      </trkpt>
      <trkpt lat="62.618473329811" lon="18.043747310668">
        <ele>103.2</ele>
        <time>2017-10-28T13:09:46Z</time>
      </trkpt>
      <trkpt lat="62.618450698681" lon="18.04381084547">
        <ele>103</ele>
        <time>2017-10-28T13:09:47Z</time>
      </trkpt>
      <trkpt lat="62.61842479861" lon="18.043877230118">
        <ele>102.8</ele>
        <time>2017-10-28T13:09:48Z</time>
      </trkpt>
      <trkpt lat="62.618402251299" lon="18.043927521518">
        <ele>102.4</ele>
        <time>2017-10-28T13:09:49Z</time>
      </trkpt>
      <trkpt lat="62.618373920477" lon="18.043996588374">
        <ele>102</ele>
        <time>2017-10-28T13:09:50Z</time>
      </trkpt>
      <trkpt lat="62.618345924931" lon="18.044064314126">
        <ele>101.8</ele>
        <time>2017-10-28T13:09:51Z</time>
      </trkpt>
      <trkpt lat="62.618318683756" lon="18.044133129525">
        <ele>101.6</ele>
        <time>2017-10-28T13:09:52Z</time>
      </trkpt>
      <trkpt lat="62.618288257459" lon="18.044211751747">
        <ele>101.4</ele>
        <time>2017-10-28T13:09:53Z</time>
      </trkpt>
      <trkpt lat="62.61826135156" lon="18.044289703417">
        <ele>101.2</ele>
        <time>2017-10-28T13:09:54Z</time>
      </trkpt>
      <trkpt lat="62.618235032394" lon="18.044385089439">
        <ele>100.8</ele>
        <time>2017-10-28T13:09:55Z</time>
      </trkpt>
      <trkpt lat="62.618211814531" lon="18.044481984203">
        <ele>100.2</ele>
        <time>2017-10-28T13:09:56Z</time>
      </trkpt>
      <trkpt lat="62.618191027419" lon="18.044580890623">
        <ele>100.6</ele>
        <time>2017-10-28T13:09:57Z</time>
      </trkpt>
      <trkpt lat="62.618177700198" lon="18.044659848121">
        <ele>100.2</ele>
        <time>2017-10-28T13:09:58Z</time>
      </trkpt>
      <trkpt lat="62.618161858407" lon="18.044755988514">
        <ele>100.2</ele>
        <time>2017-10-28T13:09:59Z</time>
      </trkpt>
      <trkpt lat="62.618146184254" lon="18.04485942116">
        <ele>100.2</ele>
        <time>2017-10-28T13:10:00Z</time>
      </trkpt>
      <trkpt lat="62.618135203965" lon="18.044944497445">
        <ele>99.8</ele>
        <time>2017-10-28T13:10:01Z</time>
      </trkpt>
      <trkpt lat="62.61812724116" lon="18.045029406092">
        <ele>99</ele>
        <time>2017-10-28T13:10:02Z</time>
      </trkpt>
      <trkpt lat="62.618119278355" lon="18.045115655843">
        <ele>98.2</ele>
        <time>2017-10-28T13:10:03Z</time>
      </trkpt>
      <trkpt lat="62.618116763785" lon="18.045186063803">
        <ele>98.2</ele>
        <time>2017-10-28T13:10:04Z</time>
      </trkpt>
      <trkpt lat="62.618112656654" lon="18.04528773625">
        <ele>97.8</ele>
        <time>2017-10-28T13:10:05Z</time>
      </trkpt>
      <trkpt lat="62.618107459876" lon="18.045387229403">
        <ele>97.6</ele>
        <time>2017-10-28T13:10:06Z</time>
      </trkpt>
      <trkpt lat="62.618099077976" lon="18.045495355913">
        <ele>97</ele>
        <time>2017-10-28T13:10:07Z</time>
      </trkpt>
      <trkpt lat="62.618091282809" lon="18.045589819926">
        <ele>97</ele>
        <time>2017-10-28T13:10:08Z</time>
      </trkpt>
      <trkpt lat="62.618079715787" lon="18.045682020826">
        <ele>97</ele>
        <time>2017-10-28T13:10:09Z</time>
      </trkpt>
      <trkpt lat="62.618067394394" lon="18.045782855083">
        <ele>96.6</ele>
        <time>2017-10-28T13:10:10Z</time>
      </trkpt>
      <trkpt lat="62.618054234811" lon="18.045884024616">
        <ele>96.4</ele>
        <time>2017-10-28T13:10:11Z</time>
      </trkpt>
      <trkpt lat="62.618037806287" lon="18.045978237172">
        <ele>96.2</ele>
        <time>2017-10-28T13:10:12Z</time>
      </trkpt>
      <trkpt lat="62.618024479066" lon="18.046057529946">
        <ele>96</ele>
        <time>2017-10-28T13:10:13Z</time>
      </trkpt>
      <trkpt lat="62.618010146017" lon="18.046146461905">
        <ele>96</ele>
        <time>2017-10-28T13:10:14Z</time>
      </trkpt>
      <trkpt lat="62.617997824624" lon="18.046240003909">
        <ele>95.8</ele>
        <time>2017-10-28T13:10:15Z</time>
      </trkpt>
      <trkpt lat="62.617992208751" lon="18.046316279199">
        <ele>95.8</ele>
        <time>2017-10-28T13:10:16Z</time>
      </trkpt>
      <trkpt lat="62.617983659213" lon="18.046399595285">
        <ele>95.4</ele>
        <time>2017-10-28T13:10:17Z</time>
      </trkpt>
      <trkpt lat="62.617969074707" lon="18.046484001018">
        <ele>94.4</ele>
        <time>2017-10-28T13:10:18Z</time>
      </trkpt>
      <trkpt lat="62.617952394726" lon="18.046565892181">
        <ele>93.8</ele>
        <time>2017-10-28T13:10:19Z</time>
      </trkpt>
      <trkpt lat="62.61793697203" lon="18.046658763633">
        <ele>93.8</ele>
        <time>2017-10-28T13:10:20Z</time>
      </trkpt>
      <trkpt lat="62.617926829931" lon="18.046742079719">
        <ele>92.8</ele>
        <time>2017-10-28T13:10:21Z</time>
      </trkpt>
      <trkpt lat="62.617916687832" lon="18.046826569271">
        <ele>93</ele>
        <time>2017-10-28T13:10:22Z</time>
      </trkpt>
      <trkpt lat="62.617893889064" lon="18.046913908669">
        <ele>93</ele>
        <time>2017-10-28T13:10:23Z</time>
      </trkpt>
      <trkpt lat="62.617878214911" lon="18.047005522836">
        <ele>92.8</ele>
        <time>2017-10-28T13:10:24Z</time>
      </trkpt>
      <trkpt lat="62.6178640495" lon="18.047095041528">
        <ele>92</ele>
        <time>2017-10-28T13:10:25Z</time>
      </trkpt>
      <trkpt lat="62.617847620976" lon="18.04718456022">
        <ele>91.8</ele>
        <time>2017-10-28T13:10:26Z</time>
      </trkpt>
      <trkpt lat="62.617835886316" lon="18.047259326768">
        <ele>91.4</ele>
        <time>2017-10-28T13:10:27Z</time>
      </trkpt>
      <trkpt lat="62.617818954878" lon="18.047330153823">
        <ele>91</ele>
        <time>2017-10-28T13:10:28Z</time>
      </trkpt>
      <trkpt lat="62.617807555494" lon="18.047402321982">
        <ele>91</ele>
        <time>2017-10-28T13:10:29Z</time>
      </trkpt>
      <trkpt lat="62.617787355115" lon="18.047496031624">
        <ele>90.8</ele>
        <time>2017-10-28T13:10:30Z</time>
      </trkpt>
      <trkpt lat="62.617770842772" lon="18.047583203384">
        <ele>90.8</ele>
        <time>2017-10-28T13:10:31Z</time>
      </trkpt>
      <trkpt lat="62.61776262851" lon="18.04766651947">
        <ele>90.8</ele>
        <time>2017-10-28T13:10:32Z</time>
      </trkpt>
      <trkpt lat="62.617745613253" lon="18.047741369837">
        <ele>90.4</ele>
        <time>2017-10-28T13:10:33Z</time>
      </trkpt>
      <trkpt lat="62.617732118394" lon="18.047806664838">
        <ele>90</ele>
        <time>2017-10-28T13:10:34Z</time>
      </trkpt>
      <trkpt lat="62.617706050685" lon="18.047892411675">
        <ele>90.4</ele>
        <time>2017-10-28T13:10:35Z</time>
      </trkpt>
      <trkpt lat="62.617684844478" lon="18.047973213191">
        <ele>90</ele>
        <time>2017-10-28T13:10:36Z</time>
      </trkpt>
      <trkpt lat="62.617669673239" lon="18.048059462942">
        <ele>90</ele>
        <time>2017-10-28T13:10:37Z</time>
      </trkpt>
      <trkpt lat="62.617655424009" lon="18.048160967751">
        <ele>89.6</ele>
        <time>2017-10-28T13:10:38Z</time>
      </trkpt>
      <trkpt lat="62.617646036281" lon="18.048263981302">
        <ele>89</ele>
        <time>2017-10-28T13:10:39Z</time>
      </trkpt>
      <trkpt lat="62.617650059593" lon="18.048367330129">
        <ele>88.8</ele>
        <time>2017-10-28T13:10:40Z</time>
      </trkpt>
      <trkpt lat="62.617650394869" lon="18.048471517146">
        <ele>88</ele>
        <time>2017-10-28T13:10:41Z</time>
      </trkpt>
      <trkpt lat="62.617645868643" lon="18.048569082462">
        <ele>87.4</ele>
        <time>2017-10-28T13:10:42Z</time>
      </trkpt>
      <trkpt lat="62.61763103268" lon="18.048670335814">
        <ele>87</ele>
        <time>2017-10-28T13:10:43Z</time>
      </trkpt>
      <trkpt lat="62.617625081531" lon="18.048754154814">
        <ele>87</ele>
        <time>2017-10-28T13:10:44Z</time>
      </trkpt>
      <trkpt lat="62.617612508681" lon="18.048852055406">
        <ele>87</ele>
        <time>2017-10-28T13:10:45Z</time>
      </trkpt>
      <trkpt lat="62.617612173405" lon="18.048916176941">
        <ele>87</ele>
        <time>2017-10-28T13:10:46Z</time>
      </trkpt>
      <trkpt lat="62.6176042106" lon="18.048983986512">
        <ele>86.8</ele>
        <time>2017-10-28T13:10:47Z</time>
      </trkpt>
      <trkpt lat="62.617593481768" lon="18.04907132591">
        <ele>87</ele>
        <time>2017-10-28T13:10:48Z</time>
      </trkpt>
      <trkpt lat="62.617579986909" lon="18.049148271752">
        <ele>86.6</ele>
        <time>2017-10-28T13:10:49Z</time>
      </trkpt>
      <trkpt lat="62.61756062472" lon="18.049232006933">
        <ele>86.8</ele>
        <time>2017-10-28T13:10:50Z</time>
      </trkpt>
      <trkpt lat="62.617533635002" lon="18.049308785137">
        <ele>86.2</ele>
        <time>2017-10-28T13:10:51Z</time>
      </trkpt>
      <trkpt lat="62.6175036278" lon="18.049374080138">
        <ele>86.4</ele>
        <time>2017-10-28T13:10:52Z</time>
      </trkpt>
      <trkpt lat="62.61747261477" lon="18.049435351827">
        <ele>86.2</ele>
        <time>2017-10-28T13:10:53Z</time>
      </trkpt>
      <trkpt lat="62.617445708871" lon="18.049483128657">
        <ele>86</ele>
        <time>2017-10-28T13:10:54Z</time>
      </trkpt>
      <trkpt lat="62.617420060257" lon="18.049529899659">
        <ele>86</ele>
        <time>2017-10-28T13:10:55Z</time>
      </trkpt>
      <trkpt lat="62.6173862812" lon="18.049586980398">
        <ele>86</ele>
        <time>2017-10-28T13:10:56Z</time>
      </trkpt>
      <trkpt lat="62.617362057509" lon="18.049658645643">
        <ele>85.8</ele>
        <time>2017-10-28T13:10:57Z</time>
      </trkpt>
      <trkpt lat="62.61734520989" lon="18.049712038346">
        <ele>86.2</ele>
        <time>2017-10-28T13:10:58Z</time>
      </trkpt>
      <trkpt lat="62.617329619556" lon="18.049778674451">
        <ele>86</ele>
        <time>2017-10-28T13:10:59Z</time>
      </trkpt>
      <trkpt lat="62.617318471629" lon="18.049859895062">
        <ele>85.8</ele>
        <time>2017-10-28T13:11:00Z</time>
      </trkpt>
      <trkpt lat="62.617326518253" lon="18.049946228632">
        <ele>85.8</ele>
        <time>2017-10-28T13:11:01Z</time>
      </trkpt>
      <trkpt lat="62.617326602072" lon="18.050046392337">
        <ele>85.8</ele>
        <time>2017-10-28T13:11:02Z</time>
      </trkpt>
      <trkpt lat="62.617329116642" lon="18.050138090323">
        <ele>86</ele>
        <time>2017-10-28T13:11:03Z</time>
      </trkpt>
      <trkpt lat="62.617332385583" lon="18.050201708944">
        <ele>86</ele>
        <time>2017-10-28T13:11:04Z</time>
      </trkpt>
      <trkpt lat="62.61732509333" lon="18.050329868195">
        <ele>85.8</ele>
        <time>2017-10-28T13:11:05Z</time>
      </trkpt>
      <trkpt lat="62.617310760281" lon="18.050414693023">
        <ele>85.8</ele>
        <time>2017-10-28T13:11:06Z</time>
      </trkpt>
      <trkpt lat="62.617290978997" lon="18.05050043986">
        <ele>85.8</ele>
        <time>2017-10-28T13:11:07Z</time>
      </trkpt>
      <trkpt lat="62.617267174401" lon="18.050581325195">
        <ele>85.6</ele>
        <time>2017-10-28T13:11:08Z</time>
      </trkpt>
      <trkpt lat="62.617248231307" lon="18.050652906621">
        <ele>85.4</ele>
        <time>2017-10-28T13:11:09Z</time>
      </trkpt>
      <trkpt lat="62.617236915742" lon="18.050731696481">
        <ele>85.4</ele>
        <time>2017-10-28T13:11:10Z</time>
      </trkpt>
      <trkpt lat="62.617212943508" lon="18.050815850757">
        <ele>85.4</ele>
        <time>2017-10-28T13:11:11Z</time>
      </trkpt>
      <trkpt lat="62.617189055093" lon="18.050893970065">
        <ele>85.8</ele>
        <time>2017-10-28T13:11:12Z</time>
      </trkpt>
      <trkpt lat="62.617169525266" lon="18.050981896196">
        <ele>85.6</ele>
        <time>2017-10-28T13:11:13Z</time>
      </trkpt>
      <trkpt lat="62.61714907343" lon="18.051067810671">
        <ele>85.6</ele>
        <time>2017-10-28T13:11:14Z</time>
      </trkpt>
      <trkpt lat="62.617137590227" lon="18.051183061796">
        <ele>85.6</ele>
        <time>2017-10-28T13:11:15Z</time>
      </trkpt>
      <trkpt lat="62.617134405105" lon="18.051289260469">
        <ele>85.4</ele>
        <time>2017-10-28T13:11:16Z</time>
      </trkpt>
      <trkpt lat="62.617145553032" lon="18.051386239052">
        <ele>85.4</ele>
        <time>2017-10-28T13:11:17Z</time>
      </trkpt>
      <trkpt lat="62.617157120054" lon="18.05148363673">
        <ele>85.2</ele>
        <time>2017-10-28T13:11:18Z</time>
      </trkpt>
      <trkpt lat="62.617153096742" lon="18.051580447675">
        <ele>84.8</ele>
        <time>2017-10-28T13:11:19Z</time>
      </trkpt>
      <trkpt lat="62.617146139765" lon="18.05167642043">
        <ele>84.6</ele>
        <time>2017-10-28T13:11:20Z</time>
      </trkpt>
      <trkpt lat="62.617144211928" lon="18.051749091503">
        <ele>84.4</ele>
        <time>2017-10-28T13:11:21Z</time>
      </trkpt>
      <trkpt lat="62.617138596055" lon="18.051832156132">
        <ele>84.2</ele>
        <time>2017-10-28T13:11:22Z</time>
      </trkpt>
      <trkpt lat="62.617141864996" lon="18.051924776127">
        <ele>84</ele>
        <time>2017-10-28T13:11:23Z</time>
      </trkpt>
      <trkpt lat="62.617143457557" lon="18.052019491597">
        <ele>84.2</ele>
        <time>2017-10-28T13:11:24Z</time>
      </trkpt>
      <trkpt lat="62.61714069153" lon="18.052133317799">
        <ele>84</ele>
        <time>2017-10-28T13:11:25Z</time>
      </trkpt>
      <trkpt lat="62.617140775349" lon="18.052244880888">
        <ele>83.6</ele>
        <time>2017-10-28T13:11:26Z</time>
      </trkpt>
      <trkpt lat="62.617140356254" lon="18.052360132013">
        <ele>83.4</ele>
        <time>2017-10-28T13:11:27Z</time>
      </trkpt>
      <trkpt lat="62.617142535548" lon="18.052454176931">
        <ele>83.4</ele>
        <time>2017-10-28T13:11:28Z</time>
      </trkpt>
      <trkpt lat="62.617142032634" lon="18.052543695623">
        <ele>82.8</ele>
        <time>2017-10-28T13:11:29Z</time>
      </trkpt>
      <trkpt lat="62.617144714842" lon="18.052637656722">
        <ele>82.4</ele>
        <time>2017-10-28T13:11:30Z</time>
      </trkpt>
      <trkpt lat="62.617146055946" lon="18.052726504862">
        <ele>82.2</ele>
        <time>2017-10-28T13:11:31Z</time>
      </trkpt>
      <trkpt lat="62.617147480869" lon="18.052806887283">
        <ele>82</ele>
        <time>2017-10-28T13:11:32Z</time>
      </trkpt>
      <trkpt lat="62.617146810317" lon="18.052887269704">
        <ele>81.8</ele>
        <time>2017-10-28T13:11:33Z</time>
      </trkpt>
      <trkpt lat="62.617140859168" lon="18.052947367927">
        <ele>81.4</ele>
        <time>2017-10-28T13:11:34Z</time>
      </trkpt>
      <trkpt lat="62.617132561087" lon="18.053010567453">
        <ele>81.2</ele>
        <time>2017-10-28T13:11:35Z</time>
      </trkpt>
      <trkpt lat="62.617121748436" lon="18.05305440479">
        <ele>81</ele>
        <time>2017-10-28T13:11:36Z</time>
      </trkpt>
      <trkpt lat="62.617115964925" lon="18.05309882886">
        <ele>80.4</ele>
        <time>2017-10-28T13:11:37Z</time>
      </trkpt>
      <trkpt lat="62.617110684328" lon="18.053139397256">
        <ele>79.8</ele>
        <time>2017-10-28T13:11:38Z</time>
      </trkpt>
      <trkpt lat="62.617110432871" lon="18.053180300928">
        <ele>79.4</ele>
        <time>2017-10-28T13:11:39Z</time>
      </trkpt>
      <trkpt lat="62.617100709867" lon="18.053240315332">
        <ele>79</ele>
        <time>2017-10-28T13:11:40Z</time>
      </trkpt>
      <trkpt lat="62.617090316311" lon="18.053300245917">
        <ele>78.4</ele>
        <time>2017-10-28T13:11:41Z</time>
      </trkpt>
      <trkpt lat="62.617081515316" lon="18.053367133479">
        <ele>78.6</ele>
        <time>2017-10-28T13:11:42Z</time>
      </trkpt>
      <trkpt lat="62.617067685181" lon="18.053413820662">
        <ele>78.4</ele>
        <time>2017-10-28T13:11:43Z</time>
      </trkpt>
      <trkpt lat="62.617058632729" lon="18.053473918885">
        <ele>78.8</ele>
        <time>2017-10-28T13:11:44Z</time>
      </trkpt>
      <trkpt lat="62.617052011028" lon="18.053546757596">
        <ele>78.8</ele>
        <time>2017-10-28T13:11:45Z</time>
      </trkpt>
      <trkpt lat="62.617046059879" lon="18.053617417013">
        <ele>78.8</ele>
        <time>2017-10-28T13:11:46Z</time>
      </trkpt>
      <trkpt lat="62.617032648839" lon="18.053692435018">
        <ele>78.8</ele>
        <time>2017-10-28T13:11:47Z</time>
      </trkpt>
      <trkpt lat="62.617015633582" lon="18.053762256245">
        <ele>79</ele>
        <time>2017-10-28T13:11:48Z</time>
      </trkpt>
      <trkpt lat="62.616991409891" lon="18.053819085527">
        <ele>79.2</ele>
        <time>2017-10-28T13:11:49Z</time>
      </trkpt>
      <trkpt lat="62.616957379377" lon="18.053860324475">
        <ele>79</ele>
        <time>2017-10-28T13:11:50Z</time>
      </trkpt>
      <trkpt lat="62.616924689967" lon="18.053878597017">
        <ele>79.2</ele>
        <time>2017-10-28T13:11:51Z</time>
      </trkpt>
      <trkpt lat="62.616891162367" lon="18.053884045252">
        <ele>79.2</ele>
        <time>2017-10-28T13:11:52Z</time>
      </trkpt>
      <trkpt lat="62.616855036378" lon="18.053901982518">
        <ele>79.4</ele>
        <time>2017-10-28T13:11:53Z</time>
      </trkpt>
      <trkpt lat="62.61682217933" lon="18.053917824309">
        <ele>79.4</ele>
        <time>2017-10-28T13:11:54Z</time>
      </trkpt>
      <trkpt lat="62.616786807712" lon="18.053930983892">
        <ele>79.6</ele>
        <time>2017-10-28T13:11:55Z</time>
      </trkpt>
      <trkpt lat="62.616756884329" lon="18.053945652217">
        <ele>80</ele>
        <time>2017-10-28T13:11:56Z</time>
      </trkpt>
      <trkpt lat="62.616720925978" lon="18.053967864252">
        <ele>80.4</ele>
        <time>2017-10-28T13:11:57Z</time>
      </trkpt>
      <trkpt lat="62.616693684803" lon="18.053980185645">
        <ele>80.6</ele>
        <time>2017-10-28T13:11:58Z</time>
      </trkpt>
      <trkpt lat="62.616659738108" lon="18.053993512866">
        <ele>81</ele>
        <time>2017-10-28T13:11:59Z</time>
      </trkpt>
      <trkpt lat="62.616624534128" lon="18.054001391852">
        <ele>81.4</ele>
        <time>2017-10-28T13:12:00Z</time>
      </trkpt>
      <trkpt lat="62.616598634057" lon="18.054020921679">
        <ele>81.8</ele>
        <time>2017-10-28T13:12:01Z</time>
      </trkpt>
      <trkpt lat="62.616574494185" lon="18.054045648284">
        <ele>82.2</ele>
        <time>2017-10-28T13:12:02Z</time>
      </trkpt>
      <trkpt lat="62.616540715128" lon="18.054075152572">
        <ele>82.4</ele>
        <time>2017-10-28T13:12:03Z</time>
      </trkpt>
      <trkpt lat="62.616510121193" lon="18.05409627496">
        <ele>82.4</ele>
        <time>2017-10-28T13:12:04Z</time>
      </trkpt>
      <trkpt lat="62.616472318824" lon="18.05412896437">
        <ele>82.6</ele>
        <time>2017-10-28T13:12:05Z</time>
      </trkpt>
      <trkpt lat="62.616451364074" lon="18.054155115898">
        <ele>82.8</ele>
        <time>2017-10-28T13:12:06Z</time>
      </trkpt>
      <trkpt lat="62.616423703804" lon="18.054187470032">
        <ele>82.8</ele>
        <time>2017-10-28T13:12:07Z</time>
      </trkpt>
      <trkpt lat="62.61639302605" lon="18.054213118646">
        <ele>83</ele>
        <time>2017-10-28T13:12:08Z</time>
      </trkpt>
      <trkpt lat="62.616359749907" lon="18.054240192183">
        <ele>83</ele>
        <time>2017-10-28T13:12:09Z</time>
      </trkpt>
      <trkpt lat="62.616323959194" lon="18.054263326227">
        <ele>83.2</ele>
        <time>2017-10-28T13:12:10Z</time>
      </trkpt>
      <trkpt lat="62.616286743558" lon="18.054283023692">
        <ele>83.4</ele>
        <time>2017-10-28T13:12:11Z</time>
      </trkpt>
      <trkpt lat="62.616250366112" lon="18.054289561574">
        <ele>83.4</ele>
        <time>2017-10-28T13:12:12Z</time>
      </trkpt>
      <trkpt lat="62.616220610367" lon="18.054286460271">
        <ele>83.8</ele>
        <time>2017-10-28T13:12:13Z</time>
      </trkpt>
      <trkpt lat="62.616188088595" lon="18.054279419475">
        <ele>84</ele>
        <time>2017-10-28T13:12:14Z</time>
      </trkpt>
      <trkpt lat="62.616155399185" lon="18.054274893249">
        <ele>84.4</ele>
        <time>2017-10-28T13:12:15Z</time>
      </trkpt>
      <trkpt lat="62.616127822734" lon="18.054277575457">
        <ele>84.8</ele>
        <time>2017-10-28T13:12:16Z</time>
      </trkpt>
      <trkpt lat="62.616095636238" lon="18.054276066715">
        <ele>85</ele>
        <time>2017-10-28T13:12:17Z</time>
      </trkpt>
      <trkpt lat="62.616062527733" lon="18.054270367023">
        <ele>85.2</ele>
        <time>2017-10-28T13:12:18Z</time>
      </trkpt>
      <trkpt lat="62.616040315698" lon="18.054252345938">
        <ele>85.4</ele>
        <time>2017-10-28T13:12:19Z</time>
      </trkpt>
      <trkpt lat="62.616006285184" lon="18.054247316798">
        <ele>85.4</ele>
        <time>2017-10-28T13:12:20Z</time>
      </trkpt>
      <trkpt lat="62.615978122" lon="18.054252429757">
        <ele>85.6</ele>
        <time>2017-10-28T13:12:21Z</time>
      </trkpt>
      <trkpt lat="62.615947360427" lon="18.054245388961">
        <ele>85.6</ele>
        <time>2017-10-28T13:12:22Z</time>
      </trkpt>
      <trkpt lat="62.615915844483" lon="18.054238515803">
        <ele>85.8</ele>
        <time>2017-10-28T13:12:23Z</time>
      </trkpt>
      <trkpt lat="62.615886675471" lon="18.054236336509">
        <ele>85.8</ele>
        <time>2017-10-28T13:12:24Z</time>
      </trkpt>
      <trkpt lat="62.615856835907" lon="18.05423122355">
        <ele>86</ele>
        <time>2017-10-28T13:12:25Z</time>
      </trkpt>
      <trkpt lat="62.615823559764" lon="18.05422954717">
        <ele>86.2</ele>
        <time>2017-10-28T13:12:26Z</time>
      </trkpt>
      <trkpt lat="62.615796402408" lon="18.054219321252">
        <ele>86.2</ele>
        <time>2017-10-28T13:12:27Z</time>
      </trkpt>
      <trkpt lat="62.615772346355" lon="18.054208676239">
        <ele>86.4</ele>
        <time>2017-10-28T13:12:28Z</time>
      </trkpt>
      <trkpt lat="62.615744099352" lon="18.054202389814">
        <ele>86.4</ele>
        <time>2017-10-28T13:12:29Z</time>
      </trkpt>
      <trkpt lat="62.615710655571" lon="18.054197360674">
        <ele>86.6</ele>
        <time>2017-10-28T13:12:30Z</time>
      </trkpt>
      <trkpt lat="62.61568643188" lon="18.054183111444">
        <ele>87</ele>
        <time>2017-10-28T13:12:31Z</time>
      </trkpt>
      <trkpt lat="62.615658436334" lon="18.054178249942">
        <ele>87</ele>
        <time>2017-10-28T13:12:32Z</time>
      </trkpt>
      <trkpt lat="62.615636643394" lon="18.054170957689">
        <ele>87.4</ele>
        <time>2017-10-28T13:12:33Z</time>
      </trkpt>
      <trkpt lat="62.615614850454" lon="18.054168862214">
        <ele>87.6</ele>
        <time>2017-10-28T13:12:34Z</time>
      </trkpt>
      <trkpt lat="62.615590710582" lon="18.054163833074">
        <ele>88</ele>
        <time>2017-10-28T13:12:35Z</time>
      </trkpt>
      <trkpt lat="62.615568330909" lon="18.054159390667">
        <ele>88.2</ele>
        <time>2017-10-28T13:12:36Z</time>
      </trkpt>
      <trkpt lat="62.615543771942" lon="18.054157043735">
        <ele>88.4</ele>
        <time>2017-10-28T13:12:37Z</time>
      </trkpt>
      <trkpt lat="62.615521476088" lon="18.054155367355">
        <ele>88.8</ele>
        <time>2017-10-28T13:12:38Z</time>
      </trkpt>
      <trkpt lat="62.615499096415" lon="18.054153439518">
        <ele>89</ele>
        <time>2017-10-28T13:12:39Z</time>
      </trkpt>
      <trkpt lat="62.615471939059" lon="18.054151008767">
        <ele>89</ele>
        <time>2017-10-28T13:12:40Z</time>
      </trkpt>
      <trkpt lat="62.615449643205" lon="18.05414488998">
        <ele>89.2</ele>
        <time>2017-10-28T13:12:41Z</time>
      </trkpt>
      <trkpt lat="62.615426844437" lon="18.054138352098">
        <ele>89.4</ele>
        <time>2017-10-28T13:12:42Z</time>
      </trkpt>
      <trkpt lat="62.615406392601" lon="18.054135502252">
        <ele>89.6</ele>
        <time>2017-10-28T13:12:43Z</time>
      </trkpt>
      <trkpt lat="62.615390131715" lon="18.054121588298">
        <ele>89.8</ele>
        <time>2017-10-28T13:12:44Z</time>
      </trkpt>
      <trkpt lat="62.615369931336" lon="18.054102226109">
        <ele>89.8</ele>
        <time>2017-10-28T13:12:45Z</time>
      </trkpt>
      <trkpt lat="62.615348473672" lon="18.054092251648">
        <ele>90.2</ele>
        <time>2017-10-28T13:12:46Z</time>
      </trkpt>
      <trkpt lat="62.615327518922" lon="18.054086384318">
        <ele>90.4</ele>
        <time>2017-10-28T13:12:47Z</time>
      </trkpt>
      <trkpt lat="62.615304887792" lon="18.054080852264">
        <ele>90.6</ele>
        <time>2017-10-28T13:12:48Z</time>
      </trkpt>
      <trkpt lat="62.615281250834" lon="18.054074146744">
        <ele>90.8</ele>
        <time>2017-10-28T13:12:49Z</time>
      </trkpt>
      <trkpt lat="62.61525895498" lon="18.054061657713">
        <ele>91.2</ele>
        <time>2017-10-28T13:12:50Z</time>
      </trkpt>
      <trkpt lat="62.615237832592" lon="18.054064675197">
        <ele>91.4</ele>
        <time>2017-10-28T13:12:51Z</time>
      </trkpt>
      <trkpt lat="62.615212183978" lon="18.054059813695">
        <ele>91.8</ele>
        <time>2017-10-28T13:12:52Z</time>
      </trkpt>
      <trkpt lat="62.615188211744" lon="18.054051096519">
        <ele>92.2</ele>
        <time>2017-10-28T13:12:53Z</time>
      </trkpt>
      <trkpt lat="62.61516340132" lon="18.054046905569">
        <ele>92.6</ele>
        <time>2017-10-28T13:12:54Z</time>
      </trkpt>
      <trkpt lat="62.615136076326" lon="18.054038775126">
        <ele>92.8</ele>
        <time>2017-10-28T13:12:55Z</time>
      </trkpt>
      <trkpt lat="62.61511227173" lon="18.054027124285">
        <ele>93.2</ele>
        <time>2017-10-28T13:12:56Z</time>
      </trkpt>
      <trkpt lat="62.615091400799" lon="18.054009438476">
        <ele>93.4</ele>
        <time>2017-10-28T13:12:57Z</time>
      </trkpt>
      <trkpt lat="62.615073128257" lon="18.053996362712">
        <ele>93.6</ele>
        <time>2017-10-28T13:12:58Z</time>
      </trkpt>
      <trkpt lat="62.615052341145" lon="18.053983789862">
        <ele>93.8</ele>
        <time>2017-10-28T13:12:59Z</time>
      </trkpt>
      <trkpt lat="62.615030212929" lon="18.053973983039">
        <ele>94</ele>
        <time>2017-10-28T13:13:00Z</time>
      </trkpt>
      <trkpt lat="62.615005905419" lon="18.053970965555">
        <ele>94.2</ele>
        <time>2017-10-28T13:13:01Z</time>
      </trkpt>
      <trkpt lat="62.614984196298" lon="18.053967948071">
        <ele>94.2</ele>
        <time>2017-10-28T13:13:02Z</time>
      </trkpt>
      <trkpt lat="62.61496055934" lon="18.053951938642">
        <ele>94.4</ele>
        <time>2017-10-28T13:13:03Z</time>
      </trkpt>
      <trkpt lat="62.614943292626" lon="18.05393450429">
        <ele>94.4</ele>
        <time>2017-10-28T13:13:04Z</time>
      </trkpt>
      <trkpt lat="62.614920242401" lon="18.0539169023">
        <ele>94.6</ele>
        <time>2017-10-28T13:13:05Z</time>
      </trkpt>
      <trkpt lat="62.614896186348" lon="18.053911956979">
        <ele>94.6</ele>
        <time>2017-10-28T13:13:06Z</time>
      </trkpt>
      <trkpt lat="62.61487674034" lon="18.053898294482">
        <ele>94.8</ele>
        <time>2017-10-28T13:13:07Z</time>
      </trkpt>
      <trkpt lat="62.614856037047" lon="18.053882117415">
        <ele>95</ele>
        <time>2017-10-28T13:13:08Z</time>
      </trkpt>
      <trkpt lat="62.61483399265" lon="18.053873148782">
        <ele>95.2</ele>
        <time>2017-10-28T13:13:09Z</time>
      </trkpt>
      <trkpt lat="62.614812451167" lon="18.053855295335">
        <ele>95.4</ele>
        <time>2017-10-28T13:13:10Z</time>
      </trkpt>
      <trkpt lat="62.614792669883" lon="18.053836855155">
        <ele>95.6</ele>
        <time>2017-10-28T13:13:11Z</time>
      </trkpt>
      <trkpt lat="62.614772637142" lon="18.053822773563">
        <ele>95.8</ele>
        <time>2017-10-28T13:13:12Z</time>
      </trkpt>
      <trkpt lat="62.614754616057" lon="18.053815062215">
        <ele>96</ele>
        <time>2017-10-28T13:13:13Z</time>
      </trkpt>
      <trkpt lat="62.614733158393" lon="18.053802657003">
        <ele>96.4</ele>
        <time>2017-10-28T13:13:14Z</time>
      </trkpt>
      <trkpt lat="62.614711365453" lon="18.053791844352">
        <ele>96.6</ele>
        <time>2017-10-28T13:13:15Z</time>
      </trkpt>
      <trkpt lat="62.61469150035" lon="18.053781702253">
        <ele>97</ele>
        <time>2017-10-28T13:13:16Z</time>
      </trkpt>
      <trkpt lat="62.614671886704" lon="18.053775834923">
        <ele>97.4</ele>
        <time>2017-10-28T13:13:17Z</time>
      </trkpt>
      <trkpt lat="62.614652440696" lon="18.05376267534">
        <ele>97.8</ele>
        <time>2017-10-28T13:13:18Z</time>
      </trkpt>
      <trkpt lat="62.614633832878" lon="18.053752449422">
        <ele>98</ele>
        <time>2017-10-28T13:13:19Z</time>
      </trkpt>
      <trkpt lat="62.614615392698" lon="18.053739876572">
        <ele>98.2</ele>
        <time>2017-10-28T13:13:20Z</time>
      </trkpt>
      <trkpt lat="62.614599215631" lon="18.053728561007">
        <ele>98.4</ele>
        <time>2017-10-28T13:13:21Z</time>
      </trkpt>
      <trkpt lat="62.614581278365" lon="18.053713305949">
        <ele>98.6</ele>
        <time>2017-10-28T13:13:22Z</time>
      </trkpt>
      <trkpt lat="62.614560910348" lon="18.053693776122">
        <ele>98.8</ele>
        <time>2017-10-28T13:13:23Z</time>
      </trkpt>
      <trkpt lat="62.614542218711" lon="18.053678437245">
        <ele>99</ele>
        <time>2017-10-28T13:13:24Z</time>
      </trkpt>
      <trkpt lat="62.614520761047" lon="18.053665948214">
        <ele>99.2</ele>
        <time>2017-10-28T13:13:25Z</time>
      </trkpt>
      <trkpt lat="62.614500476849" lon="18.053659242694">
        <ele>99.4</ele>
        <time>2017-10-28T13:13:26Z</time>
      </trkpt>
      <trkpt lat="62.614483210135" lon="18.05364616693">
        <ele>99.4</ele>
        <time>2017-10-28T13:13:27Z</time>
      </trkpt>
      <trkpt lat="62.614467284525" lon="18.053637365935">
        <ele>99.6</ele>
        <time>2017-10-28T13:13:28Z</time>
      </trkpt>
      <trkpt lat="62.614445659223" lon="18.053625798913">
        <ele>99.8</ele>
        <time>2017-10-28T13:13:29Z</time>
      </trkpt>
      <trkpt lat="62.614425961758" lon="18.053608532199">
        <ele>100</ele>
        <time>2017-10-28T13:13:30Z</time>
      </trkpt>
      <trkpt lat="62.61440567756" lon="18.053594785883">
        <ele>100.4</ele>
        <time>2017-10-28T13:13:31Z</time>
      </trkpt>
      <trkpt lat="62.614388243208" lon="18.053581961576">
        <ele>100.6</ele>
        <time>2017-10-28T13:13:32Z</time>
      </trkpt>
      <trkpt lat="62.614368126648" lon="18.053571400382">
        <ele>101</ele>
        <time>2017-10-28T13:13:33Z</time>
      </trkpt>
      <trkpt lat="62.614349937925" lon="18.053562515568">
        <ele>101.4</ele>
        <time>2017-10-28T13:13:34Z</time>
      </trkpt>
      <trkpt lat="62.614327809709" lon="18.05354390775">
        <ele>101.8</ele>
        <time>2017-10-28T13:13:35Z</time>
      </trkpt>
      <trkpt lat="62.614309201891" lon="18.053531753995">
        <ele>102.2</ele>
        <time>2017-10-28T13:13:36Z</time>
      </trkpt>
      <trkpt lat="62.614290258797" lon="18.053515074014">
        <ele>102.6</ele>
        <time>2017-10-28T13:13:37Z</time>
      </trkpt>
      <trkpt lat="62.614270058418" lon="18.053504680458">
        <ele>103</ele>
        <time>2017-10-28T13:13:38Z</time>
      </trkpt>
      <trkpt lat="62.614251953514" lon="18.053494622178">
        <ele>103.2</ele>
        <time>2017-10-28T13:13:39Z</time>
      </trkpt>
      <trkpt lat="62.614233513334" lon="18.053483306613">
        <ele>103.4</ele>
        <time>2017-10-28T13:13:40Z</time>
      </trkpt>
      <trkpt lat="62.614209792557" lon="18.05347769074">
        <ele>103.4</ele>
        <time>2017-10-28T13:13:41Z</time>
      </trkpt>
      <trkpt lat="62.614187245246" lon="18.053466039899">
        <ele>103.6</ele>
        <time>2017-10-28T13:13:42Z</time>
      </trkpt>
      <trkpt lat="62.614166625772" lon="18.053458160913">
        <ele>103.8</ele>
        <time>2017-10-28T13:13:43Z</time>
      </trkpt>
      <trkpt lat="62.614142402081" lon="18.053449779013">
        <ele>104</ele>
        <time>2017-10-28T13:13:44Z</time>
      </trkpt>
      <trkpt lat="62.614115915277" lon="18.053437625258">
        <ele>104</ele>
        <time>2017-10-28T13:13:45Z</time>
      </trkpt>
      <trkpt lat="62.614092362138" lon="18.053423627485">
        <ele>104.2</ele>
        <time>2017-10-28T13:13:46Z</time>
      </trkpt>
      <trkpt lat="62.614063360764" lon="18.05340476821">
        <ele>104.2</ele>
        <time>2017-10-28T13:13:47Z</time>
      </trkpt>
      <trkpt lat="62.614033018286" lon="18.053385741297">
        <ele>104.4</ele>
        <time>2017-10-28T13:13:48Z</time>
      </trkpt>
      <trkpt lat="62.614000245057" lon="18.053373168447">
        <ele>104.4</ele>
        <time>2017-10-28T13:13:49Z</time>
      </trkpt>
      <trkpt lat="62.613961520679" lon="18.053349363851">
        <ele>104.4</ele>
        <time>2017-10-28T13:13:50Z</time>
      </trkpt>
      <trkpt lat="62.613923299215" lon="18.053321200667">
        <ele>104.4</ele>
        <time>2017-10-28T13:13:51Z</time>
      </trkpt>
      <trkpt lat="62.613878539869" lon="18.053293121302">
        <ele>104.2</ele>
        <time>2017-10-28T13:13:52Z</time>
      </trkpt>
      <trkpt lat="62.613833277609" lon="18.053273088561">
        <ele>103.8</ele>
        <time>2017-10-28T13:13:53Z</time>
      </trkpt>
      <trkpt lat="62.613790865195" lon="18.053254229286">
        <ele>103.4</ele>
        <time>2017-10-28T13:13:54Z</time>
      </trkpt>
      <trkpt lat="62.613744597107" lon="18.05322874831">
        <ele>103</ele>
        <time>2017-10-28T13:13:55Z</time>
      </trkpt>
      <trkpt lat="62.61370159796" lon="18.053201674773">
        <ele>102.4</ele>
        <time>2017-10-28T13:13:56Z</time>
      </trkpt>
      <trkpt lat="62.613652228569" lon="18.053176696711">
        <ele>102</ele>
        <time>2017-10-28T13:13:57Z</time>
      </trkpt>
      <trkpt lat="62.613606463395" lon="18.05315331121">
        <ele>101.6</ele>
        <time>2017-10-28T13:13:58Z</time>
      </trkpt>
      <trkpt lat="62.613551478131" lon="18.053122381999">
        <ele>101.4</ele>
        <time>2017-10-28T13:13:59Z</time>
      </trkpt>
      <trkpt lat="62.613492553374" lon="18.053080304861">
        <ele>101</ele>
        <time>2017-10-28T13:14:00Z</time>
      </trkpt>
      <trkpt lat="62.613435640273" lon="18.053047028718">
        <ele>100.6</ele>
        <time>2017-10-28T13:14:01Z</time>
      </trkpt>
      <trkpt lat="62.613380403552" lon="18.053007382331">
        <ele>100</ele>
        <time>2017-10-28T13:14:02Z</time>
      </trkpt>
      <trkpt lat="62.613321394976" lon="18.052967065392">
        <ele>99.4</ele>
        <time>2017-10-28T13:14:03Z</time>
      </trkpt>
      <trkpt lat="62.613270600662" lon="18.052936387638">
        <ele>98.8</ele>
        <time>2017-10-28T13:14:04Z</time>
      </trkpt>
      <trkpt lat="62.613218716701" lon="18.052912666861">
        <ele>98.6</ele>
        <time>2017-10-28T13:14:05Z</time>
      </trkpt>
      <trkpt lat="62.613147638189" lon="18.052870589723">
        <ele>97.8</ele>
        <time>2017-10-28T13:14:06Z</time>
      </trkpt>
      <trkpt lat="62.613088378156" lon="18.052825327463">
        <ele>97.2</ele>
        <time>2017-10-28T13:14:07Z</time>
      </trkpt>
      <trkpt lat="62.613031381236" lon="18.05279205132">
        <ele>96.6</ele>
        <time>2017-10-28T13:14:08Z</time>
      </trkpt>
      <trkpt lat="62.612977737076" lon="18.052762379394">
        <ele>96</ele>
        <time>2017-10-28T13:14:09Z</time>
      </trkpt>
      <trkpt lat="62.612919315233" lon="18.052736563142">
        <ele>95</ele>
        <time>2017-10-28T13:14:10Z</time>
      </trkpt>
      <trkpt lat="62.612864832883" lon="18.05269733585">
        <ele>94.4</ele>
        <time>2017-10-28T13:14:11Z</time>
      </trkpt>
      <trkpt lat="62.612808841791" lon="18.052668921209">
        <ele>93.4</ele>
        <time>2017-10-28T13:14:12Z</time>
      </trkpt>
      <trkpt lat="62.612757879839" lon="18.052646792993">
        <ele>92.4</ele>
        <time>2017-10-28T13:14:13Z</time>
      </trkpt>
      <trkpt lat="62.612701469652" lon="18.052620892922">
        <ele>91.6</ele>
        <time>2017-10-28T13:14:14Z</time>
      </trkpt>
      <trkpt lat="62.612638018669" lon="18.052602117466">
        <ele>90.6</ele>
        <time>2017-10-28T13:14:15Z</time>
      </trkpt>
      <trkpt lat="62.612580435016" lon="18.05259675305">
        <ele>89.6</ele>
        <time>2017-10-28T13:14:16Z</time>
      </trkpt>
      <trkpt lat="62.612515978205" lon="18.052588706426">
        <ele>88.8</ele>
        <time>2017-10-28T13:14:17Z</time>
      </trkpt>
      <trkpt lat="62.61245018029" lon="18.05259340029">
        <ele>88</ele>
        <time>2017-10-28T13:14:18Z</time>
      </trkpt>
      <trkpt lat="62.612385974936" lon="18.052608571529">
        <ele>87.4</ele>
        <time>2017-10-28T13:14:19Z</time>
      </trkpt>
      <trkpt lat="62.612307771809" lon="18.052637069989">
        <ele>87</ele>
        <time>2017-10-28T13:14:20Z</time>
      </trkpt>
      <trkpt lat="62.612240465152" lon="18.052664981716">
        <ele>86.2</ele>
        <time>2017-10-28T13:14:21Z</time>
      </trkpt>
      <trkpt lat="62.61216938664" lon="18.052703370818">
        <ele>85.8</ele>
        <time>2017-10-28T13:14:22Z</time>
      </trkpt>
      <trkpt lat="62.612095206825" lon="18.052739496807">
        <ele>85</ele>
        <time>2017-10-28T13:14:23Z</time>
      </trkpt>
      <trkpt lat="62.612032007299" lon="18.052771012751">
        <ele>84.6</ele>
        <time>2017-10-28T13:14:24Z</time>
      </trkpt>
      <trkpt lat="62.611965622651" lon="18.052801606686">
        <ele>84.2</ele>
        <time>2017-10-28T13:14:25Z</time>
      </trkpt>
      <trkpt lat="62.611901333478" lon="18.052828428766">
        <ele>83.8</ele>
        <time>2017-10-28T13:14:26Z</time>
      </trkpt>
      <trkpt lat="62.611839810332" lon="18.052861788728">
        <ele>82.8</ele>
        <time>2017-10-28T13:14:27Z</time>
      </trkpt>
      <trkpt lat="62.611794296615" lon="18.052879390718">
        <ele>82.4</ele>
        <time>2017-10-28T13:14:28Z</time>
      </trkpt>
      <trkpt lat="62.611732773469" lon="18.052908392092">
        <ele>81.8</ele>
        <time>2017-10-28T13:14:29Z</time>
      </trkpt>
      <trkpt lat="62.611672423789" lon="18.052939991855">
        <ele>81.2</ele>
        <time>2017-10-28T13:14:30Z</time>
      </trkpt>
      <trkpt lat="62.611612409385" lon="18.052971172523">
        <ele>80.6</ele>
        <time>2017-10-28T13:14:31Z</time>
      </trkpt>
      <trkpt lat="62.611554071361" lon="18.052994558024">
        <ele>80</ele>
        <time>2017-10-28T13:14:32Z</time>
      </trkpt>
      <trkpt lat="62.611496403889" lon="18.05301752443">
        <ele>79.6</ele>
        <time>2017-10-28T13:14:33Z</time>
      </trkpt>
      <trkpt lat="62.611461870461" lon="18.05302925909">
        <ele>79.2</ele>
        <time>2017-10-28T13:14:34Z</time>
      </trkpt>
      <trkpt lat="62.611388445017" lon="18.053061445586">
        <ele>78.6</ele>
        <time>2017-10-28T13:14:35Z</time>
      </trkpt>
      <trkpt lat="62.611339075626" lon="18.053087513295">
        <ele>77.8</ele>
        <time>2017-10-28T13:14:36Z</time>
      </trkpt>
      <trkpt lat="62.611293142814" lon="18.053111988443">
        <ele>77.2</ele>
        <time>2017-10-28T13:14:37Z</time>
      </trkpt>
      <trkpt lat="62.611249724572" lon="18.053126740587">
        <ele>76.6</ele>
        <time>2017-10-28T13:14:38Z</time>
      </trkpt>
      <trkpt lat="62.61120965909" lon="18.053130009528">
        <ele>76</ele>
        <time>2017-10-28T13:14:39Z</time>
      </trkpt>
      <trkpt lat="62.611165821753" lon="18.053122214361">
        <ele>75.4</ele>
        <time>2017-10-28T13:14:40Z</time>
      </trkpt>
      <trkpt lat="62.611118631656" lon="18.053101678706">
        <ele>75</ele>
        <time>2017-10-28T13:14:41Z</time>
      </trkpt>
      <trkpt lat="62.611071525378" lon="18.053055410618">
        <ele>74.6</ele>
        <time>2017-10-28T13:14:42Z</time>
      </trkpt>
      <trkpt lat="62.611028358593" lon="18.05297980588">
        <ele>74.2</ele>
        <time>2017-10-28T13:14:43Z</time>
      </trkpt>
      <trkpt lat="62.610987957835" lon="18.052872433741">
        <ele>73.8</ele>
        <time>2017-10-28T13:14:44Z</time>
      </trkpt>
      <trkpt lat="62.610957280081" lon="18.052740418816">
        <ele>73.4</ele>
        <time>2017-10-28T13:14:45Z</time>
      </trkpt>
      <trkpt lat="62.610940683919" lon="18.05261435504">
        <ele>73</ele>
        <time>2017-10-28T13:14:46Z</time>
      </trkpt>
      <trkpt lat="62.61093054182" lon="18.052468007066">
        <ele>72.4</ele>
        <time>2017-10-28T13:14:47Z</time>
      </trkpt>
      <trkpt lat="62.610924925947" lon="18.052329118983">
        <ele>72</ele>
        <time>2017-10-28T13:14:48Z</time>
      </trkpt>
      <trkpt lat="62.610923752481" lon="18.052195511497">
        <ele>71.4</ele>
        <time>2017-10-28T13:14:49Z</time>
      </trkpt>
      <trkpt lat="62.610925680318" lon="18.052043799107">
        <ele>70.8</ele>
        <time>2017-10-28T13:14:50Z</time>
      </trkpt>
      <trkpt lat="62.610924842128" lon="18.051897954047">
        <ele>70.4</ele>
        <time>2017-10-28T13:14:51Z</time>
      </trkpt>
      <trkpt lat="62.61092467449" lon="18.051759233602">
        <ele>70.2</ele>
        <time>2017-10-28T13:14:52Z</time>
      </trkpt>
      <trkpt lat="62.610925009766" lon="18.051621267528">
        <ele>70</ele>
        <time>2017-10-28T13:14:53Z</time>
      </trkpt>
      <trkpt lat="62.6109238363" lon="18.051481373617">
        <ele>69.8</ele>
        <time>2017-10-28T13:14:54Z</time>
      </trkpt>
      <trkpt lat="62.61091880716" lon="18.051335360919">
        <ele>69.6</ele>
        <time>2017-10-28T13:14:55Z</time>
      </trkpt>
      <trkpt lat="62.610917717513" lon="18.051197478664">
        <ele>69.6</ele>
        <time>2017-10-28T13:14:56Z</time>
      </trkpt>
      <trkpt lat="62.610916544047" lon="18.05106286535">
        <ele>69.6</ele>
        <time>2017-10-28T13:14:57Z</time>
      </trkpt>
      <trkpt lat="62.610916627866" lon="18.050948703872">
        <ele>69.4</ele>
        <time>2017-10-28T13:14:58Z</time>
      </trkpt>
      <trkpt lat="62.61091629259" lon="18.050810151065">
        <ele>69.4</ele>
        <time>2017-10-28T13:14:59Z</time>
      </trkpt>
      <trkpt lat="62.610917214599" lon="18.050669418964">
        <ele>69.2</ele>
        <time>2017-10-28T13:15:00Z</time>
      </trkpt>
      <trkpt lat="62.610920148264" lon="18.050538409867">
        <ele>69</ele>
        <time>2017-10-28T13:15:01Z</time>
      </trkpt>
      <trkpt lat="62.610919058617" lon="18.050407149313">
        <ele>69</ele>
        <time>2017-10-28T13:15:02Z</time>
      </trkpt>
      <trkpt lat="62.610916963142" lon="18.050277900415">
        <ele>68.8</ele>
        <time>2017-10-28T13:15:03Z</time>
      </trkpt>
      <trkpt lat="62.610913442744" lon="18.05017270757">
        <ele>68.6</ele>
        <time>2017-10-28T13:15:04Z</time>
      </trkpt>
      <trkpt lat="62.610910928174" lon="18.050023090655">
        <ele>68.6</ele>
        <time>2017-10-28T13:15:05Z</time>
      </trkpt>
      <trkpt lat="62.610908497423" lon="18.049898200345">
        <ele>68.4</ele>
        <time>2017-10-28T13:15:06Z</time>
      </trkpt>
      <trkpt lat="62.610906737224" lon="18.049772555664">
        <ele>68.4</ele>
        <time>2017-10-28T13:15:07Z</time>
      </trkpt>
      <trkpt lat="62.610903216826" lon="18.049649090277">
        <ele>68.2</ele>
        <time>2017-10-28T13:15:08Z</time>
      </trkpt>
      <trkpt lat="62.61089952879" lon="18.049529145288">
        <ele>68.2</ele>
        <time>2017-10-28T13:15:09Z</time>
      </trkpt>
      <trkpt lat="62.610894332012" lon="18.049402075684">
        <ele>68.2</ele>
        <time>2017-10-28T13:15:10Z</time>
      </trkpt>
      <trkpt lat="62.61088863232" lon="18.049275425175">
        <ele>68.4</ele>
        <time>2017-10-28T13:15:11Z</time>
      </trkpt>
      <trkpt lat="62.61088360318" lon="18.049156402195">
        <ele>68.4</ele>
        <time>2017-10-28T13:15:12Z</time>
      </trkpt>
      <trkpt lat="62.610879244592" lon="18.049046096391">
        <ele>68.6</ele>
        <time>2017-10-28T13:15:13Z</time>
      </trkpt>
      <trkpt lat="62.610873963995" lon="18.048931599637">
        <ele>68.6</ele>
        <time>2017-10-28T13:15:14Z</time>
      </trkpt>
      <trkpt lat="62.610871700882" lon="18.048810732639">
        <ele>68.6</ele>
        <time>2017-10-28T13:15:15Z</time>
      </trkpt>
      <trkpt lat="62.610866252647" lon="18.048705539794">
        <ele>68.6</ele>
        <time>2017-10-28T13:15:16Z</time>
      </trkpt>
      <trkpt lat="62.610858038385" lon="18.048591210678">
        <ele>68.4</ele>
        <time>2017-10-28T13:15:17Z</time>
      </trkpt>
      <trkpt lat="62.610850159399" lon="18.04848459291">
        <ele>68.4</ele>
        <time>2017-10-28T13:15:18Z</time>
      </trkpt>
      <trkpt lat="62.610842448051" lon="18.048388284879">
        <ele>68.4</ele>
        <time>2017-10-28T13:15:19Z</time>
      </trkpt>
      <trkpt lat="62.610834652884" lon="18.048284684595">
        <ele>68.4</ele>
        <time>2017-10-28T13:15:20Z</time>
      </trkpt>
      <trkpt lat="62.610826438622" lon="18.048192735152">
        <ele>68.4</ele>
        <time>2017-10-28T13:15:21Z</time>
      </trkpt>
      <trkpt lat="62.610814620143" lon="18.048077484027">
        <ele>68.4</ele>
        <time>2017-10-28T13:15:22Z</time>
      </trkpt>
      <trkpt lat="62.610800873827" lon="18.047970530983">
        <ele>68.6</ele>
        <time>2017-10-28T13:15:23Z</time>
      </trkpt>
      <trkpt lat="62.610790144995" lon="18.047874474409">
        <ele>68.8</ele>
        <time>2017-10-28T13:15:24Z</time>
      </trkpt>
      <trkpt lat="62.610779164706" lon="18.04776291132">
        <ele>68.8</ele>
        <time>2017-10-28T13:15:25Z</time>
      </trkpt>
      <trkpt lat="62.610765166933" lon="18.047657802294">
        <ele>69</ele>
        <time>2017-10-28T13:15:26Z</time>
      </trkpt>
      <trkpt lat="62.610750163332" lon="18.047552357992">
        <ele>69</ele>
        <time>2017-10-28T13:15:27Z</time>
      </trkpt>
      <trkpt lat="62.610735746464" lon="18.047461079101">
        <ele>69</ele>
        <time>2017-10-28T13:15:28Z</time>
      </trkpt>
      <trkpt lat="62.610718898845" lon="18.047353539324">
        <ele>68.8</ele>
        <time>2017-10-28T13:15:29Z</time>
      </trkpt>
      <trkpt lat="62.610698866104" lon="18.047241808597">
        <ele>68.8</ele>
        <time>2017-10-28T13:15:30Z</time>
      </trkpt>
      <trkpt lat="62.610681515571" lon="18.047137034847">
        <ele>68.6</ele>
        <time>2017-10-28T13:15:31Z</time>
      </trkpt>
      <trkpt lat="62.610667853074" lon="18.047037793151">
        <ele>68.6</ele>
        <time>2017-10-28T13:15:32Z</time>
      </trkpt>
      <trkpt lat="62.610647401238" lon="18.046933522315">
        <ele>68.6</ele>
        <time>2017-10-28T13:15:33Z</time>
      </trkpt>
      <trkpt lat="62.6106304698" lon="18.046846015279">
        <ele>68.6</ele>
        <time>2017-10-28T13:15:34Z</time>
      </trkpt>
      <trkpt lat="62.61060867686" lon="18.046730764154">
        <ele>68.8</ele>
        <time>2017-10-28T13:15:35Z</time>
      </trkpt>
      <trkpt lat="62.610586464825" lon="18.046627247689">
        <ele>68.8</ele>
        <time>2017-10-28T13:15:36Z</time>
      </trkpt>
      <trkpt lat="62.610564839523" lon="18.046528341269">
        <ele>68.8</ele>
        <time>2017-10-28T13:15:37Z</time>
      </trkpt>
      <trkpt lat="62.610544220049" lon="18.046430524496">
        <ele>68.8</ele>
        <time>2017-10-28T13:15:38Z</time>
      </trkpt>
      <trkpt lat="62.610523097661" lon="18.046346286401">
        <ele>68.6</ele>
        <time>2017-10-28T13:15:39Z</time>
      </trkpt>
      <trkpt lat="62.610501639997" lon="18.046255175148">
        <ele>68.6</ele>
        <time>2017-10-28T13:15:40Z</time>
      </trkpt>
      <trkpt lat="62.610477751582" lon="18.046169093035">
        <ele>68.8</ele>
        <time>2017-10-28T13:15:41Z</time>
      </trkpt>
      <trkpt lat="62.610454282262" lon="18.046081669818">
        <ele>68.8</ele>
        <time>2017-10-28T13:15:42Z</time>
      </trkpt>
      <trkpt lat="62.610431232037" lon="18.046008412012">
        <ele>68.8</ele>
        <time>2017-10-28T13:15:43Z</time>
      </trkpt>
      <trkpt lat="62.610407008346" lon="18.045933226369">
        <ele>69</ele>
        <time>2017-10-28T13:15:44Z</time>
      </trkpt>
      <trkpt lat="62.610382030284" lon="18.045846473704">
        <ele>69</ele>
        <time>2017-10-28T13:15:45Z</time>
      </trkpt>
      <trkpt lat="62.610354118557" lon="18.04577472464">
        <ele>69.4</ele>
        <time>2017-10-28T13:15:46Z</time>
      </trkpt>
      <trkpt lat="62.610320758595" lon="18.045702807938">
        <ele>69.6</ele>
        <time>2017-10-28T13:15:47Z</time>
      </trkpt>
      <trkpt lat="62.610284884063" lon="18.045630220684">
        <ele>69.8</ele>
        <time>2017-10-28T13:15:48Z</time>
      </trkpt>
      <trkpt lat="62.61025496068" lon="18.045561908199">
        <ele>70</ele>
        <time>2017-10-28T13:15:49Z</time>
      </trkpt>
      <trkpt lat="62.610217074492" lon="18.045482699244">
        <ele>70</ele>
        <time>2017-10-28T13:15:50Z</time>
      </trkpt>
      <trkpt lat="62.610183211616" lon="18.045410698723">
        <ele>70.2</ele>
        <time>2017-10-28T13:15:51Z</time>
      </trkpt>
      <trkpt lat="62.61015186331" lon="18.04534054222">
        <ele>70</ele>
        <time>2017-10-28T13:15:52Z</time>
      </trkpt>
      <trkpt lat="62.610117246063" lon="18.045267032957">
        <ele>70.2</ele>
        <time>2017-10-28T13:15:53Z</time>
      </trkpt>
      <trkpt lat="62.610085981576" lon="18.045195367712">
        <ele>70.2</ele>
        <time>2017-10-28T13:15:54Z</time>
      </trkpt>
      <trkpt lat="62.610052873071" lon="18.045113895644">
        <ele>70.2</ele>
        <time>2017-10-28T13:15:55Z</time>
      </trkpt>
      <trkpt lat="62.610024039335" lon="18.045040302562">
        <ele>70.2</ele>
        <time>2017-10-28T13:15:56Z</time>
      </trkpt>
      <trkpt lat="62.609995624694" lon="18.044965787471">
        <ele>70.4</ele>
        <time>2017-10-28T13:15:57Z</time>
      </trkpt>
      <trkpt lat="62.609975256677" lon="18.044896720615">
        <ele>70.4</ele>
        <time>2017-10-28T13:15:58Z</time>
      </trkpt>
      <trkpt lat="62.609952122633" lon="18.044817092565">
        <ele>70.4</ele>
        <time>2017-10-28T13:15:59Z</time>
      </trkpt>
      <trkpt lat="62.609926306381" lon="18.04472950171">
        <ele>70.8</ele>
        <time>2017-10-28T13:16:00Z</time>
      </trkpt>
      <trkpt lat="62.609903088518" lon="18.04465909375">
        <ele>70.8</ele>
        <time>2017-10-28T13:16:01Z</time>
      </trkpt>
      <trkpt lat="62.609880541207" lon="18.044583908107">
        <ele>70.8</ele>
        <time>2017-10-28T13:16:02Z</time>
      </trkpt>
      <trkpt lat="62.609862855398" lon="18.044506459351">
        <ele>71</ele>
        <time>2017-10-28T13:16:03Z</time>
      </trkpt>
      <trkpt lat="62.609847181245" lon="18.044439571789">
        <ele>70.8</ele>
        <time>2017-10-28T13:16:04Z</time>
      </trkpt>
      <trkpt lat="62.609830501264" lon="18.044352986762">
        <ele>70.8</ele>
        <time>2017-10-28T13:16:05Z</time>
      </trkpt>
      <trkpt lat="62.609813402188" lon="18.044272939617">
        <ele>70.8</ele>
        <time>2017-10-28T13:16:06Z</time>
      </trkpt>
      <trkpt lat="62.609799320596" lon="18.044198005431">
        <ele>70.8</ele>
        <time>2017-10-28T13:16:07Z</time>
      </trkpt>
      <trkpt lat="62.609785490461" lon="18.044124663806">
        <ele>71</ele>
        <time>2017-10-28T13:16:08Z</time>
      </trkpt>
      <trkpt lat="62.609769397213" lon="18.04406062609">
        <ele>71.2</ele>
        <time>2017-10-28T13:16:09Z</time>
      </trkpt>
      <trkpt lat="62.609751879042" lon="18.043991140139">
        <ele>71.2</ele>
        <time>2017-10-28T13:16:10Z</time>
      </trkpt>
      <trkpt lat="62.609735199061" lon="18.043922660016">
        <ele>71.4</ele>
        <time>2017-10-28T13:16:11Z</time>
      </trkpt>
      <trkpt lat="62.609714663406" lon="18.043864154354">
        <ele>71.4</ele>
        <time>2017-10-28T13:16:12Z</time>
      </trkpt>
      <trkpt lat="62.609700497995" lon="18.043803134122">
        <ele>71.4</ele>
        <time>2017-10-28T13:16:13Z</time>
      </trkpt>
      <trkpt lat="62.609686500222" lon="18.043737420026">
        <ele>71.6</ele>
        <time>2017-10-28T13:16:14Z</time>
      </trkpt>
      <trkpt lat="62.609672586268" lon="18.043667431161">
        <ele>71.8</ele>
        <time>2017-10-28T13:16:15Z</time>
      </trkpt>
      <trkpt lat="62.609658756133" lon="18.043610434241">
        <ele>71.8</ele>
        <time>2017-10-28T13:16:16Z</time>
      </trkpt>
      <trkpt lat="62.609640986505" lon="18.04354765381">
        <ele>72</ele>
        <time>2017-10-28T13:16:17Z</time>
      </trkpt>
      <trkpt lat="62.609622294868" lon="18.043484957198">
        <ele>72</ele>
        <time>2017-10-28T13:16:18Z</time>
      </trkpt>
      <trkpt lat="62.609607375086" lon="18.043429636658">
        <ele>72.2</ele>
        <time>2017-10-28T13:16:19Z</time>
      </trkpt>
      <trkpt lat="62.60958943782" lon="18.043366940046">
        <ele>72.4</ele>
        <time>2017-10-28T13:16:20Z</time>
      </trkpt>
      <trkpt lat="62.609572590201" lon="18.043315978094">
        <ele>72.6</ele>
        <time>2017-10-28T13:16:21Z</time>
      </trkpt>
      <trkpt lat="62.60955842479" lon="18.043261495744">
        <ele>72.8</ele>
        <time>2017-10-28T13:16:22Z</time>
      </trkpt>
      <trkpt lat="62.609540571343" lon="18.043207851584">
        <ele>73</ele>
        <time>2017-10-28T13:16:23Z</time>
      </trkpt>
      <trkpt lat="62.609520957697" lon="18.043153117777">
        <ele>73.2</ele>
        <time>2017-10-28T13:16:24Z</time>
      </trkpt>
      <trkpt lat="62.60949975149" lon="18.043092349002">
        <ele>73.4</ele>
        <time>2017-10-28T13:16:25Z</time>
      </trkpt>
      <trkpt lat="62.609488268287" lon="18.043043650163">
        <ele>73.6</ele>
        <time>2017-10-28T13:16:26Z</time>
      </trkpt>
      <trkpt lat="62.609475024885" lon="18.042996543885">
        <ele>73.8</ele>
        <time>2017-10-28T13:16:27Z</time>
      </trkpt>
      <trkpt lat="62.609464212234" lon="18.04295756805">
        <ele>74</ele>
        <time>2017-10-28T13:16:28Z</time>
      </trkpt>
      <trkpt lat="62.609447951348" lon="18.042907192831">
        <ele>74</ele>
        <time>2017-10-28T13:16:29Z</time>
      </trkpt>
      <trkpt lat="62.609429092073" lon="18.042846172599">
        <ele>74.2</ele>
        <time>2017-10-28T13:16:30Z</time>
      </trkpt>
      <trkpt lat="62.609412915006" lon="18.042787834575">
        <ele>74.4</ele>
        <time>2017-10-28T13:16:31Z</time>
      </trkpt>
      <trkpt lat="62.609400090699" lon="18.042725976153">
        <ele>74.4</ele>
        <time>2017-10-28T13:16:32Z</time>
      </trkpt>
      <trkpt lat="62.60938659584" lon="18.042663028084">
        <ele>74.6</ele>
        <time>2017-10-28T13:16:33Z</time>
      </trkpt>
      <trkpt lat="62.609378465397" lon="18.042608461915">
        <ele>74.6</ele>
        <time>2017-10-28T13:16:34Z</time>
      </trkpt>
      <trkpt lat="62.609367568927" lon="18.042537970136">
        <ele>74.6</ele>
        <time>2017-10-28T13:16:35Z</time>
      </trkpt>
      <trkpt lat="62.609355918086" lon="18.042471836945">
        <ele>74.6</ele>
        <time>2017-10-28T13:16:36Z</time>
      </trkpt>
      <trkpt lat="62.609346697996" lon="18.042407380134">
        <ele>74.6</ele>
        <time>2017-10-28T13:16:37Z</time>
      </trkpt>
      <trkpt lat="62.609340830666" lon="18.042342168952">
        <ele>74.6</ele>
        <time>2017-10-28T13:16:38Z</time>
      </trkpt>
      <trkpt lat="62.609338986648" lon="18.042278801788">
        <ele>74.6</ele>
        <time>2017-10-28T13:16:39Z</time>
      </trkpt>
      <trkpt lat="62.60933798082" lon="18.04221157895">
        <ele>74.6</ele>
        <time>2017-10-28T13:16:40Z</time>
      </trkpt>
      <trkpt lat="62.609333957508" lon="18.042147708872">
        <ele>74.6</ele>
        <time>2017-10-28T13:16:41Z</time>
      </trkpt>
      <trkpt lat="62.609330185653" lon="18.042085263717">
        <ele>74.8</ele>
        <time>2017-10-28T13:16:42Z</time>
      </trkpt>
      <trkpt lat="62.609327503445" lon="18.042024914037">
        <ele>75</ele>
        <time>2017-10-28T13:16:43Z</time>
      </trkpt>
      <trkpt lat="62.60932792254" lon="18.041964145262">
        <ele>75.2</ele>
        <time>2017-10-28T13:16:44Z</time>
      </trkpt>
      <trkpt lat="62.609323563952" lon="18.041899520813">
        <ele>75.4</ele>
        <time>2017-10-28T13:16:45Z</time>
      </trkpt>
      <trkpt lat="62.609318450993" lon="18.041840176961">
        <ele>75.4</ele>
        <time>2017-10-28T13:16:46Z</time>
      </trkpt>
      <trkpt lat="62.609318367174" lon="18.041775803969">
        <ele>75.6</ele>
        <time>2017-10-28T13:16:47Z</time>
      </trkpt>
      <trkpt lat="62.609316104061" lon="18.04171956142">
        <ele>75.8</ele>
        <time>2017-10-28T13:16:48Z</time>
      </trkpt>
      <trkpt lat="62.609309901455" lon="18.041669186201">
        <ele>75.8</ele>
        <time>2017-10-28T13:16:49Z</time>
      </trkpt>
      <trkpt lat="62.60930696779" lon="18.041614033299">
        <ele>76</ele>
        <time>2017-10-28T13:16:50Z</time>
      </trkpt>
      <trkpt lat="62.609305794324" lon="18.04155946713">
        <ele>76.2</ele>
        <time>2017-10-28T13:16:51Z</time>
      </trkpt>
      <trkpt lat="62.609306548695" lon="18.041509930101">
        <ele>76.4</ele>
        <time>2017-10-28T13:16:52Z</time>
      </trkpt>
      <trkpt lat="62.609309230903" lon="18.041457962321">
        <ele>76.6</ele>
        <time>2017-10-28T13:16:53Z</time>
      </trkpt>
      <trkpt lat="62.60931115874" lon="18.041412280966">
        <ele>76.8</ele>
        <time>2017-10-28T13:16:54Z</time>
      </trkpt>
      <trkpt lat="62.609309398541" lon="18.041360229367">
        <ele>77</ele>
        <time>2017-10-28T13:16:55Z</time>
      </trkpt>
      <trkpt lat="62.609308225075" lon="18.04131387746">
        <ele>77.2</ele>
        <time>2017-10-28T13:16:56Z</time>
      </trkpt>
      <trkpt lat="62.609306883971" lon="18.041267106458">
        <ele>77.4</ele>
        <time>2017-10-28T13:16:57Z</time>
      </trkpt>
      <trkpt lat="62.609304872315" lon="18.041223520578">
        <ele>77.6</ele>
        <time>2017-10-28T13:16:58Z</time>
      </trkpt>
      <trkpt lat="62.609302273926" lon="18.0411764143">
        <ele>77.8</ele>
        <time>2017-10-28T13:16:59Z</time>
      </trkpt>
      <trkpt lat="62.609300597546" lon="18.041126374357">
        <ele>78</ele>
        <time>2017-10-28T13:17:00Z</time>
      </trkpt>
      <trkpt lat="62.609298250614" lon="18.041077675518">
        <ele>78.2</ele>
        <time>2017-10-28T13:17:01Z</time>
      </trkpt>
      <trkpt lat="62.609296406596" lon="18.041023193168">
        <ele>78.6</ele>
        <time>2017-10-28T13:17:02Z</time>
      </trkpt>
      <trkpt lat="62.609295652225" lon="18.040973488501">
        <ele>79</ele>
        <time>2017-10-28T13:17:03Z</time>
      </trkpt>
      <trkpt lat="62.609290623085" lon="18.04092914825">
        <ele>79.2</ele>
        <time>2017-10-28T13:17:04Z</time>
      </trkpt>
      <trkpt lat="62.609286515954" lon="18.040875420271">
        <ele>79.6</ele>
        <time>2017-10-28T13:17:05Z</time>
      </trkpt>
      <trkpt lat="62.609281654452" lon="18.040823787767">
        <ele>79.8</ele>
        <time>2017-10-28T13:17:06Z</time>
      </trkpt>
      <trkpt lat="62.609282157366" lon="18.040771317073">
        <ele>80.2</ele>
        <time>2017-10-28T13:17:07Z</time>
      </trkpt>
      <trkpt lat="62.609279391339" lon="18.040722534415">
        <ele>80.4</ele>
        <time>2017-10-28T13:17:08Z</time>
      </trkpt>
      <trkpt lat="62.609276290036" lon="18.040676769241">
        <ele>80.6</ele>
        <time>2017-10-28T13:17:09Z</time>
      </trkpt>
      <trkpt lat="62.609270757982" lon="18.040626896936">
        <ele>80.8</ele>
        <time>2017-10-28T13:17:10Z</time>
      </trkpt>
      <trkpt lat="62.60926924924" lon="18.040577359907">
        <ele>80.8</ele>
        <time>2017-10-28T13:17:11Z</time>
      </trkpt>
      <trkpt lat="62.609268830145" lon="18.040525475946">
        <ele>81</ele>
        <time>2017-10-28T13:17:12Z</time>
      </trkpt>
      <trkpt lat="62.60926757286" lon="18.040478537306">
        <ele>81.2</ele>
        <time>2017-10-28T13:17:13Z</time>
      </trkpt>
      <trkpt lat="62.609262124625" lon="18.040430676657">
        <ele>81.4</ele>
        <time>2017-10-28T13:17:14Z</time>
      </trkpt>
      <trkpt lat="62.609262627539" lon="18.040375272298">
        <ele>81.6</ele>
        <time>2017-10-28T13:17:15Z</time>
      </trkpt>
      <trkpt lat="62.609262459901" lon="18.040323891251">
        <ele>81.8</ele>
        <time>2017-10-28T13:17:16Z</time>
      </trkpt>
      <trkpt lat="62.609264806833" lon="18.040269827996">
        <ele>82</ele>
        <time>2017-10-28T13:17:17Z</time>
      </trkpt>
      <trkpt lat="62.609266315575" lon="18.040212579619">
        <ele>82.2</ele>
        <time>2017-10-28T13:17:18Z</time>
      </trkpt>
      <trkpt lat="62.609266483213" lon="18.040162539676">
        <ele>82.6</ele>
        <time>2017-10-28T13:17:19Z</time>
      </trkpt>
      <trkpt lat="62.609269333059" lon="18.040111410086">
        <ele>83</ele>
        <time>2017-10-28T13:17:20Z</time>
      </trkpt>
      <trkpt lat="62.609273691647" lon="18.040055670451">
        <ele>83.4</ele>
        <time>2017-10-28T13:17:21Z</time>
      </trkpt>
      <trkpt lat="62.609280061891" lon="18.039999679359">
        <ele>83.6</ele>
        <time>2017-10-28T13:17:22Z</time>
      </trkpt>
      <trkpt lat="62.609280480986" lon="18.039938156213">
        <ele>83.8</ele>
        <time>2017-10-28T13:17:23Z</time>
      </trkpt>
      <trkpt lat="62.609284839574" lon="18.039880153465">
        <ele>83.8</ele>
        <time>2017-10-28T13:17:24Z</time>
      </trkpt>
      <trkpt lat="62.609288108515" lon="18.039808991134">
        <ele>84</ele>
        <time>2017-10-28T13:17:25Z</time>
      </trkpt>
      <trkpt lat="62.609294646397" lon="18.03974394759">
        <ele>84.2</ele>
        <time>2017-10-28T13:17:26Z</time>
      </trkpt>
      <trkpt lat="62.609302609202" lon="18.039673371992">
        <ele>84.2</ele>
        <time>2017-10-28T13:17:27Z</time>
      </trkpt>
      <trkpt lat="62.609306464876" lon="18.03961151357">
        <ele>84.2</ele>
        <time>2017-10-28T13:17:28Z</time>
      </trkpt>
      <trkpt lat="62.609311242559" lon="18.039533226624">
        <ele>84.2</ele>
        <time>2017-10-28T13:17:29Z</time>
      </trkpt>
      <trkpt lat="62.609317109889" lon="18.039453766212">
        <ele>84.4</ele>
        <time>2017-10-28T13:17:30Z</time>
      </trkpt>
      <trkpt lat="62.6093228934" lon="18.039383358252">
        <ele>84.4</ele>
        <time>2017-10-28T13:17:31Z</time>
      </trkpt>
      <trkpt lat="62.609324821237" lon="18.039303730202">
        <ele>84.4</ele>
        <time>2017-10-28T13:17:32Z</time>
      </trkpt>
      <trkpt lat="62.609328090178" lon="18.039222006677">
        <ele>84.4</ele>
        <time>2017-10-28T13:17:33Z</time>
      </trkpt>
      <trkpt lat="62.609331023843" lon="18.039188814353">
        <ele>84.4</ele>
        <time>2017-10-28T13:17:34Z</time>
      </trkpt>
      <trkpt lat="62.609345608349" lon="18.039055961238">
        <ele>84.4</ele>
        <time>2017-10-28T13:17:35Z</time>
      </trkpt>
      <trkpt lat="62.609372011334" lon="18.038916402603">
        <ele>84.4</ele>
        <time>2017-10-28T13:17:36Z</time>
      </trkpt>
      <trkpt lat="62.609399420147" lon="18.038795284148">
        <ele>84.2</ele>
        <time>2017-10-28T13:17:37Z</time>
      </trkpt>
      <trkpt lat="62.60943856362" lon="18.038671399666">
        <ele>84</ele>
        <time>2017-10-28T13:17:38Z</time>
      </trkpt>
      <trkpt lat="62.609483239147" lon="18.038558663111">
        <ele>83.6</ele>
        <time>2017-10-28T13:17:39Z</time>
      </trkpt>
      <trkpt lat="62.609538811144" lon="18.038438131389">
        <ele>82.6</ele>
        <time>2017-10-28T13:17:40Z</time>
      </trkpt>
      <trkpt lat="62.609590443648" lon="18.03832489192">
        <ele>81.6</ele>
        <time>2017-10-28T13:17:41Z</time>
      </trkpt>
      <trkpt lat="62.609636460279" lon="18.038200420705">
        <ele>80.4</ele>
        <time>2017-10-28T13:17:42Z</time>
      </trkpt>
      <trkpt lat="62.609678369779" lon="18.038081481544">
        <ele>79.4</ele>
        <time>2017-10-28T13:17:43Z</time>
      </trkpt>
      <trkpt lat="62.609716088329" lon="18.037947035868">
        <ele>78.6</ele>
        <time>2017-10-28T13:17:44Z</time>
      </trkpt>
      <trkpt lat="62.609750705576" lon="18.037797335134">
        <ele>77.8</ele>
        <time>2017-10-28T13:17:45Z</time>
      </trkpt>
      <trkpt lat="62.609774929267" lon="18.037641264156">
        <ele>77.4</ele>
        <time>2017-10-28T13:17:46Z</time>
      </trkpt>
      <trkpt lat="62.609792447438" lon="18.037469519025">
        <ele>77</ele>
        <time>2017-10-28T13:17:47Z</time>
      </trkpt>
      <trkpt lat="62.609800074967" lon="18.03730481469">
        <ele>76.6</ele>
        <time>2017-10-28T13:17:48Z</time>
      </trkpt>
      <trkpt lat="62.609805355564" lon="18.037129800618">
        <ele>76.2</ele>
        <time>2017-10-28T13:17:49Z</time>
      </trkpt>
      <trkpt lat="62.609813150731" lon="18.036922851507">
        <ele>75.8</ele>
        <time>2017-10-28T13:17:50Z</time>
      </trkpt>
      <trkpt lat="62.609821113536" lon="18.03672730178">
        <ele>75.4</ele>
        <time>2017-10-28T13:17:51Z</time>
      </trkpt>
      <trkpt lat="62.60982664559" lon="18.036545246912">
        <ele>74.6</ele>
        <time>2017-10-28T13:17:52Z</time>
      </trkpt>
      <trkpt lat="62.609835781861" lon="18.036356989438">
        <ele>74</ele>
        <time>2017-10-28T13:17:53Z</time>
      </trkpt>
      <trkpt lat="62.60984005663" lon="18.036187842696">
        <ele>73.4</ele>
        <time>2017-10-28T13:17:54Z</time>
      </trkpt>
      <trkpt lat="62.609844666675" lon="18.036010397873">
        <ele>72.8</ele>
        <time>2017-10-28T13:17:55Z</time>
      </trkpt>
      <trkpt lat="62.609852378023" lon="18.035853572524">
        <ele>72.4</ele>
        <time>2017-10-28T13:17:56Z</time>
      </trkpt>
      <trkpt lat="62.609856736611" lon="18.035707308369">
        <ele>71.8</ele>
        <time>2017-10-28T13:17:57Z</time>
      </trkpt>
      <trkpt lat="62.609861933389" lon="18.035579735851">
        <ele>71.4</ele>
        <time>2017-10-28T13:17:58Z</time>
      </trkpt>
      <trkpt lat="62.60986184957" lon="18.035440596311">
        <ele>71.4</ele>
        <time>2017-10-28T13:17:59Z</time>
      </trkpt>
      <trkpt lat="62.609860257009" lon="18.035291985224">
        <ele>71.2</ele>
        <time>2017-10-28T13:18:00Z</time>
      </trkpt>
      <trkpt lat="62.609861765751" lon="18.03516156286">
        <ele>71.4</ele>
        <time>2017-10-28T13:18:01Z</time>
      </trkpt>
      <trkpt lat="62.609864112683" lon="18.035030889039">
        <ele>71.4</ele>
        <time>2017-10-28T13:18:02Z</time>
      </trkpt>
      <trkpt lat="62.609867046348" lon="18.034908261842">
        <ele>71.2</ele>
        <time>2017-10-28T13:18:03Z</time>
      </trkpt>
      <trkpt lat="62.609870650565" lon="18.03480030297">
        <ele>71.4</ele>
        <time>2017-10-28T13:18:04Z</time>
      </trkpt>
      <trkpt lat="62.609873919506" lon="18.034674909746">
        <ele>71.2</ele>
        <time>2017-10-28T13:18:05Z</time>
      </trkpt>
      <trkpt lat="62.609878194275" lon="18.03455890425">
        <ele>71.4</ele>
        <time>2017-10-28T13:18:06Z</time>
      </trkpt>
      <trkpt lat="62.60988364251" lon="18.034451699749">
        <ele>71.4</ele>
        <time>2017-10-28T13:18:07Z</time>
      </trkpt>
      <trkpt lat="62.60989034803" lon="18.034346171628">
        <ele>71.6</ele>
        <time>2017-10-28T13:18:08Z</time>
      </trkpt>
      <trkpt lat="62.609896885912" lon="18.034255311832">
        <ele>71.6</ele>
        <time>2017-10-28T13:18:09Z</time>
      </trkpt>
      <trkpt lat="62.609904094346" lon="18.034153304109">
        <ele>71.8</ele>
        <time>2017-10-28T13:18:10Z</time>
      </trkpt>
      <trkpt lat="62.609913649712" lon="18.034057498992">
        <ele>71.8</ele>
        <time>2017-10-28T13:18:11Z</time>
      </trkpt>
      <trkpt lat="62.609921780155" lon="18.033960268952">
        <ele>71.8</ele>
        <time>2017-10-28T13:18:12Z</time>
      </trkpt>
      <trkpt lat="62.609928820951" lon="18.03387745578">
        <ele>71.8</ele>
        <time>2017-10-28T13:18:13Z</time>
      </trkpt>
      <trkpt lat="62.609934353005" lon="18.033786512165">
        <ele>71.8</ele>
        <time>2017-10-28T13:18:14Z</time>
      </trkpt>
      <trkpt lat="62.60993644848" lon="18.033686013184">
        <ele>71.8</ele>
        <time>2017-10-28T13:18:15Z</time>
      </trkpt>
      <trkpt lat="62.609940807068" lon="18.03359750032">
        <ele>71.8</ele>
        <time>2017-10-28T13:18:16Z</time>
      </trkpt>
      <trkpt lat="62.609943321638" lon="18.033498761538">
        <ele>71.8</ele>
        <time>2017-10-28T13:18:17Z</time>
      </trkpt>
      <trkpt lat="62.60994650676" lon="18.033407985561">
        <ele>71.8</ele>
        <time>2017-10-28T13:18:18Z</time>
      </trkpt>
      <trkpt lat="62.609949272787" lon="18.033315952299">
        <ele>72</ele>
        <time>2017-10-28T13:18:19Z</time>
      </trkpt>
      <trkpt lat="62.609950446253" lon="18.033221069191">
        <ele>72.2</ele>
        <time>2017-10-28T13:18:20Z</time>
      </trkpt>
      <trkpt lat="62.609951116805" lon="18.03312057021">
        <ele>72.2</ele>
        <time>2017-10-28T13:18:21Z</time>
      </trkpt>
      <trkpt lat="62.609951368262" lon="18.033027279663">
        <ele>72.4</ele>
        <time>2017-10-28T13:18:22Z</time>
      </trkpt>
      <trkpt lat="62.609955391574" lon="18.032929965804">
        <ele>72.4</ele>
        <time>2017-10-28T13:18:23Z</time>
      </trkpt>
      <trkpt lat="62.609960336895" lon="18.032839944198">
        <ele>72.4</ele>
        <time>2017-10-28T13:18:24Z</time>
      </trkpt>
      <trkpt lat="62.609966288044" lon="18.032743300891">
        <ele>72.4</ele>
        <time>2017-10-28T13:18:25Z</time>
      </trkpt>
      <trkpt lat="62.609972825926" lon="18.032647579593">
        <ele>72.4</ele>
        <time>2017-10-28T13:18:26Z</time>
      </trkpt>
      <trkpt lat="62.609983135663" lon="18.032554121408">
        <ele>72.4</ele>
        <time>2017-10-28T13:18:27Z</time>
      </trkpt>
      <trkpt lat="62.609991349925" lon="18.032460830861">
        <ele>72.2</ele>
        <time>2017-10-28T13:18:28Z</time>
      </trkpt>
      <trkpt lat="62.609999145092" lon="18.032369216694">
        <ele>72.4</ele>
        <time>2017-10-28T13:18:29Z</time>
      </trkpt>
      <trkpt lat="62.610011215028" lon="18.032264359125">
        <ele>72.6</ele>
        <time>2017-10-28T13:18:30Z</time>
      </trkpt>
      <trkpt lat="62.610025045163" lon="18.032173666967">
        <ele>72.6</ele>
        <time>2017-10-28T13:18:31Z</time>
      </trkpt>
      <trkpt lat="62.610038540022" lon="18.032087165759">
        <ele>72.6</ele>
        <time>2017-10-28T13:18:32Z</time>
      </trkpt>
      <trkpt lat="62.610052537795" lon="18.032002592388">
        <ele>72.8</ele>
        <time>2017-10-28T13:18:33Z</time>
      </trkpt>
      <trkpt lat="62.610065613559" lon="18.031933609351">
        <ele>72.8</ele>
        <time>2017-10-28T13:18:34Z</time>
      </trkpt>
      <trkpt lat="62.610083718463" lon="18.031860100088">
        <ele>73</ele>
        <time>2017-10-28T13:18:35Z</time>
      </trkpt>
      <trkpt lat="62.610102829195" lon="18.031783824798">
        <ele>73.4</ele>
        <time>2017-10-28T13:18:36Z</time>
      </trkpt>
      <trkpt lat="62.610119257719" lon="18.031711321363">
        <ele>73.6</ele>
        <time>2017-10-28T13:18:37Z</time>
      </trkpt>
      <trkpt lat="62.610134093682" lon="18.031638817928">
        <ele>73.8</ele>
        <time>2017-10-28T13:18:38Z</time>
      </trkpt>
      <trkpt lat="62.610144068143" lon="18.031567571778">
        <ele>74.2</ele>
        <time>2017-10-28T13:18:39Z</time>
      </trkpt>
      <trkpt lat="62.610151444215" lon="18.031485429158">
        <ele>74.4</ele>
        <time>2017-10-28T13:18:40Z</time>
      </trkpt>
      <trkpt lat="62.610151528034" lon="18.03139641338">
        <ele>74.8</ele>
        <time>2017-10-28T13:18:41Z</time>
      </trkpt>
      <trkpt lat="62.61014348141" lon="18.031313097294">
        <ele>75</ele>
        <time>2017-10-28T13:18:42Z</time>
      </trkpt>
      <trkpt lat="62.610126969067" lon="18.031234055977">
        <ele>75.4</ele>
        <time>2017-10-28T13:18:43Z</time>
      </trkpt>
      <trkpt lat="62.61010576286" lon="18.031163815655">
        <ele>75.4</ele>
        <time>2017-10-28T13:18:44Z</time>
      </trkpt>
      <trkpt lat="62.610074582192" lon="18.031094748799">
        <ele>75.6</ele>
        <time>2017-10-28T13:18:45Z</time>
      </trkpt>
      <trkpt lat="62.610039462031" lon="18.031051498195">
        <ele>75.6</ele>
        <time>2017-10-28T13:18:46Z</time>
      </trkpt>
      <trkpt lat="62.609998642178" lon="18.031020652803">
        <ele>75.8</ele>
        <time>2017-10-28T13:18:47Z</time>
      </trkpt>
      <trkpt lat="62.609953799013" lon="18.031006571211">
        <ele>75.8</ele>
        <time>2017-10-28T13:18:48Z</time>
      </trkpt>
      <trkpt lat="62.609912057151" lon="18.031014869292">
        <ele>75.8</ele>
        <time>2017-10-28T13:18:49Z</time>
      </trkpt>
      <trkpt lat="62.609870063832" lon="18.031039847354">
        <ele>75.8</ele>
        <time>2017-10-28T13:18:50Z</time>
      </trkpt>
      <trkpt lat="62.609821951726" lon="18.031076895352">
        <ele>75.6</ele>
        <time>2017-10-28T13:18:51Z</time>
      </trkpt>
      <trkpt lat="62.609773085249" lon="18.031107405468">
        <ele>75.4</ele>
        <time>2017-10-28T13:18:52Z</time>
      </trkpt>
      <trkpt lat="62.609720446917" lon="18.031137831765">
        <ele>75.2</ele>
        <time>2017-10-28T13:18:53Z</time>
      </trkpt>
      <trkpt lat="62.609668898232" lon="18.031167671329">
        <ele>75.2</ele>
        <time>2017-10-28T13:18:54Z</time>
      </trkpt>
      <trkpt lat="62.609609302923" lon="18.031204551689">
        <ele>74.8</ele>
        <time>2017-10-28T13:18:55Z</time>
      </trkpt>
      <trkpt lat="62.609556245496" lon="18.031234894167">
        <ele>74.6</ele>
        <time>2017-10-28T13:18:56Z</time>
      </trkpt>
      <trkpt lat="62.609502601336" lon="18.031260961876">
        <ele>74.4</ele>
        <time>2017-10-28T13:18:57Z</time>
      </trkpt>
      <trkpt lat="62.609450465918" lon="18.031283760644">
        <ele>73.8</ele>
        <time>2017-10-28T13:18:58Z</time>
      </trkpt>
      <trkpt lat="62.609395480654" lon="18.03130169791">
        <ele>73.6</ele>
        <time>2017-10-28T13:18:59Z</time>
      </trkpt>
      <trkpt lat="62.609337645544" lon="18.03132097628">
        <ele>73.4</ele>
        <time>2017-10-28T13:19:00Z</time>
      </trkpt>
      <trkpt lat="62.609287605601" lon="18.031338075356">
        <ele>73.4</ele>
        <time>2017-10-28T13:19:01Z</time>
      </trkpt>
      <trkpt lat="62.609241086056" lon="18.031359700658">
        <ele>73.2</ele>
        <time>2017-10-28T13:19:02Z</time>
      </trkpt>
      <trkpt lat="62.609201607307" lon="18.031368501653">
        <ele>73.4</ele>
        <time>2017-10-28T13:19:03Z</time>
      </trkpt>
      <trkpt lat="62.609159865445" lon="18.031384008168">
        <ele>73.4</ele>
        <time>2017-10-28T13:19:04Z</time>
      </trkpt>
      <trkpt lat="62.609112926805" lon="18.031404962918">
        <ele>73.4</ele>
        <time>2017-10-28T13:19:05Z</time>
      </trkpt>
      <trkpt lat="62.609062551586" lon="18.031435389215">
        <ele>73.4</ele>
        <time>2017-10-28T13:19:06Z</time>
      </trkpt>
      <trkpt lat="62.609014271842" lon="18.031471179928">
        <ele>73.4</ele>
        <time>2017-10-28T13:19:07Z</time>
      </trkpt>
      <trkpt lat="62.608965405365" lon="18.031504791347">
        <ele>73.4</ele>
        <time>2017-10-28T13:19:08Z</time>
      </trkpt>
      <trkpt lat="62.60891637125" lon="18.031531110513">
        <ele>73.2</ele>
        <time>2017-10-28T13:19:09Z</time>
      </trkpt>
      <trkpt lat="62.608869181153" lon="18.031560111887">
        <ele>73</ele>
        <time>2017-10-28T13:19:10Z</time>
      </trkpt>
      <trkpt lat="62.608823583617" lon="18.031584084121">
        <ele>72.8</ele>
        <time>2017-10-28T13:19:11Z</time>
      </trkpt>
      <trkpt lat="62.608772621665" lon="18.031602021387">
        <ele>72.4</ele>
        <time>2017-10-28T13:19:12Z</time>
      </trkpt>
      <trkpt lat="62.608721324437" lon="18.031621299757">
        <ele>72.2</ele>
        <time>2017-10-28T13:19:13Z</time>
      </trkpt>
      <trkpt lat="62.608671033037" lon="18.031639069385">
        <ele>71.8</ele>
        <time>2017-10-28T13:19:14Z</time>
      </trkpt>
      <trkpt lat="62.608620406361" lon="18.031639237023">
        <ele>70.8</ele>
        <time>2017-10-28T13:19:15Z</time>
      </trkpt>
      <trkpt lat="62.608574054454" lon="18.031629178743">
        <ele>70.4</ele>
        <time>2017-10-28T13:19:16Z</time>
      </trkpt>
      <trkpt lat="62.608525607072" lon="18.031606379975">
        <ele>69.2</ele>
        <time>2017-10-28T13:19:17Z</time>
      </trkpt>
      <trkpt lat="62.608479590441" lon="18.031572349461">
        <ele>68.4</ele>
        <time>2017-10-28T13:19:18Z</time>
      </trkpt>
      <trkpt lat="62.60844111752" lon="18.031521219871">
        <ele>67.4</ele>
        <time>2017-10-28T13:19:19Z</time>
      </trkpt>
      <trkpt lat="62.608399291839" lon="18.031442094735">
        <ele>66.6</ele>
        <time>2017-10-28T13:19:20Z</time>
      </trkpt>
      <trkpt lat="62.608359561633" lon="18.031339835555">
        <ele>65.8</ele>
        <time>2017-10-28T13:19:21Z</time>
      </trkpt>
      <trkpt lat="62.608328632422" lon="18.031216118711">
        <ele>65</ele>
        <time>2017-10-28T13:19:22Z</time>
      </trkpt>
      <trkpt lat="62.60830449255" lon="18.031071111841">
        <ele>64.2</ele>
        <time>2017-10-28T13:19:23Z</time>
      </trkpt>
      <trkpt lat="62.608286555284" lon="18.030924009496">
        <ele>63.4</ele>
        <time>2017-10-28T13:19:24Z</time>
      </trkpt>
      <trkpt lat="62.608265432896" lon="18.030769279622">
        <ele>62.4</ele>
        <time>2017-10-28T13:19:25Z</time>
      </trkpt>
      <trkpt lat="62.608243472318" lon="18.030630726815">
        <ele>61.6</ele>
        <time>2017-10-28T13:19:26Z</time>
      </trkpt>
      <trkpt lat="62.608221847016" lon="18.030495526768">
        <ele>61.2</ele>
        <time>2017-10-28T13:19:27Z</time>
      </trkpt>
      <trkpt lat="62.608209357985" lon="18.030376755245">
        <ele>60.8</ele>
        <time>2017-10-28T13:19:28Z</time>
      </trkpt>
      <trkpt lat="62.60819385147" lon="18.03024557851">
        <ele>60.2</ele>
        <time>2017-10-28T13:19:29Z</time>
      </trkpt>
      <trkpt lat="62.608174154005" lon="18.030095793957">
        <ele>60.2</ele>
        <time>2017-10-28T13:19:30Z</time>
      </trkpt>
      <trkpt lat="62.608156384377" lon="18.029952966381">
        <ele>60</ele>
        <time>2017-10-28T13:19:31Z</time>
      </trkpt>
      <trkpt lat="62.608144062984" lon="18.029816844325">
        <ele>59.6</ele>
        <time>2017-10-28T13:19:32Z</time>
      </trkpt>
      <trkpt lat="62.608144146803" lon="18.029686589599">
        <ele>59</ele>
        <time>2017-10-28T13:19:33Z</time>
      </trkpt>
      <trkpt lat="62.608158060757" lon="18.029584078962">
        <ele>58.4</ele>
        <time>2017-10-28T13:19:34Z</time>
      </trkpt>
      <trkpt lat="62.608176836213" lon="18.029463463421">
        <ele>58</ele>
        <time>2017-10-28T13:19:35Z</time>
      </trkpt>
      <trkpt lat="62.608195444031" lon="18.029354247264">
        <ele>57.4</ele>
        <time>2017-10-28T13:19:36Z</time>
      </trkpt>
      <trkpt lat="62.608215728229" lon="18.029244612012">
        <ele>57</ele>
        <time>2017-10-28T13:19:37Z</time>
      </trkpt>
      <trkpt lat="62.608231737658" lon="18.029139754443">
        <ele>57</ele>
        <time>2017-10-28T13:19:38Z</time>
      </trkpt>
      <trkpt lat="62.608246992716" lon="18.029044703697">
        <ele>57</ele>
        <time>2017-10-28T13:19:39Z</time>
      </trkpt>
      <trkpt lat="62.608260403756" lon="18.028944456173">
        <ele>57</ele>
        <time>2017-10-28T13:19:40Z</time>
      </trkpt>
      <trkpt lat="62.608271300226" lon="18.028842867545">
        <ele>57.2</ele>
        <time>2017-10-28T13:19:41Z</time>
      </trkpt>
      <trkpt lat="62.608283286343" lon="18.028750750464">
        <ele>57.4</ele>
        <time>2017-10-28T13:19:42Z</time>
      </trkpt>
      <trkpt lat="62.608296613564" lon="18.028663578704">
        <ele>57.6</ele>
        <time>2017-10-28T13:19:43Z</time>
      </trkpt>
      <trkpt lat="62.608307929129" lon="18.028585878491">
        <ele>57.6</ele>
        <time>2017-10-28T13:19:44Z</time>
      </trkpt>
      <trkpt lat="62.608319412332" lon="18.028491498297">
        <ele>57.8</ele>
        <time>2017-10-28T13:19:45Z</time>
      </trkpt>
      <trkpt lat="62.608333410105" lon="18.028413127532">
        <ele>57.8</ele>
        <time>2017-10-28T13:19:46Z</time>
      </trkpt>
      <trkpt lat="62.608345060946" lon="18.028327129238">
        <ele>58</ele>
        <time>2017-10-28T13:19:47Z</time>
      </trkpt>
      <trkpt lat="62.608356125054" lon="18.028244064609">
        <ele>58</ele>
        <time>2017-10-28T13:19:48Z</time>
      </trkpt>
      <trkpt lat="62.608364674592" lon="18.028164855654">
        <ele>58.2</ele>
        <time>2017-10-28T13:19:49Z</time>
      </trkpt>
      <trkpt lat="62.608376241614" lon="18.028082880672">
        <ele>58.4</ele>
        <time>2017-10-28T13:19:50Z</time>
      </trkpt>
      <trkpt lat="62.608389065921" lon="18.027995289817">
        <ele>58.4</ele>
        <time>2017-10-28T13:19:51Z</time>
      </trkpt>
      <trkpt lat="62.608400381486" lon="18.027918846889">
        <ele>58.6</ele>
        <time>2017-10-28T13:19:52Z</time>
      </trkpt>
      <trkpt lat="62.608413373431" lon="18.027832178043">
        <ele>58.8</ele>
        <time>2017-10-28T13:19:53Z</time>
      </trkpt>
      <trkpt lat="62.608424018444" lon="18.027757662952">
        <ele>59</ele>
        <time>2017-10-28T13:19:54Z</time>
      </trkpt>
      <trkpt lat="62.608435585466" lon="18.027670407373">
        <ele>59.4</ele>
        <time>2017-10-28T13:19:55Z</time>
      </trkpt>
      <trkpt lat="62.608446062841" lon="18.027587175106">
        <ele>59.6</ele>
        <time>2017-10-28T13:19:56Z</time>
      </trkpt>
      <trkpt lat="62.608459976795" lon="18.027505451581">
        <ele>59.8</ele>
        <time>2017-10-28T13:19:57Z</time>
      </trkpt>
      <trkpt lat="62.608463497193" lon="18.027479132415">
        <ele>59.8</ele>
        <time>2017-10-28T13:19:58Z</time>
      </trkpt>
      <trkpt lat="62.608480428631" lon="18.027361534358">
        <ele>59.8</ele>
        <time>2017-10-28T13:19:59Z</time>
      </trkpt>
      <trkpt lat="62.608494594042" lon="18.027259358997">
        <ele>59.8</ele>
        <time>2017-10-28T13:20:00Z</time>
      </trkpt>
      <trkpt lat="62.60850565815" lon="18.02717528854">
        <ele>60</ele>
        <time>2017-10-28T13:20:01Z</time>
      </trkpt>
      <trkpt lat="62.608517308991" lon="18.027091637178">
        <ele>60</ele>
        <time>2017-10-28T13:20:02Z</time>
      </trkpt>
      <trkpt lat="62.608531558221" lon="18.027009829834">
        <ele>60</ele>
        <time>2017-10-28T13:20:03Z</time>
      </trkpt>
      <trkpt lat="62.608540778311" lon="18.026935650019">
        <ele>60.2</ele>
        <time>2017-10-28T13:20:04Z</time>
      </trkpt>
      <trkpt lat="62.608554524627" lon="18.026843449119">
        <ele>60.2</ele>
        <time>2017-10-28T13:20:05Z</time>
      </trkpt>
      <trkpt lat="62.608570366418" lon="18.026752337866">
        <ele>60.2</ele>
        <time>2017-10-28T13:20:06Z</time>
      </trkpt>
      <trkpt lat="62.608584531829" lon="18.026664244097">
        <ele>60.2</ele>
        <time>2017-10-28T13:20:07Z</time>
      </trkpt>
      <trkpt lat="62.608599200154" lon="18.026576317966">
        <ele>60.4</ele>
        <time>2017-10-28T13:20:08Z</time>
      </trkpt>
      <trkpt lat="62.608616383049" lon="18.026494175346">
        <ele>60.4</ele>
        <time>2017-10-28T13:20:09Z</time>
      </trkpt>
      <trkpt lat="62.608634236496" lon="18.026402309722">
        <ele>60.4</ele>
        <time>2017-10-28T13:20:10Z</time>
      </trkpt>
      <trkpt lat="62.608653682504" lon="18.026307510433">
        <ele>60.6</ele>
        <time>2017-10-28T13:20:11Z</time>
      </trkpt>
      <trkpt lat="62.608672625598" lon="18.026215393352">
        <ele>60.6</ele>
        <time>2017-10-28T13:20:12Z</time>
      </trkpt>
      <trkpt lat="62.608693915624" lon="18.026127048126">
        <ele>60.8</ele>
        <time>2017-10-28T13:20:13Z</time>
      </trkpt>
      <trkpt lat="62.60871772022" lon="18.026052281578">
        <ele>61</ele>
        <time>2017-10-28T13:20:14Z</time>
      </trkpt>
      <trkpt lat="62.6087445423" lon="18.0259716477">
        <ele>61</ele>
        <time>2017-10-28T13:20:15Z</time>
      </trkpt>
      <trkpt lat="62.608765916145" lon="18.025898389894">
        <ele>61.2</ele>
        <time>2017-10-28T13:20:16Z</time>
      </trkpt>
      <trkpt lat="62.60879064275" lon="18.025819600034">
        <ele>61.4</ele>
        <time>2017-10-28T13:20:17Z</time>
      </trkpt>
      <trkpt lat="62.608815620812" lon="18.02574868916">
        <ele>61.2</ele>
        <time>2017-10-28T13:20:18Z</time>
      </trkpt>
      <trkpt lat="62.608838671037" lon="18.025687166014">
        <ele>61.2</ele>
        <time>2017-10-28T13:20:19Z</time>
      </trkpt>
      <trkpt lat="62.608862559452" lon="18.025616674235">
        <ele>61.2</ele>
        <time>2017-10-28T13:20:20Z</time>
      </trkpt>
      <trkpt lat="62.608888375704" lon="18.025540231307">
        <ele>61.4</ele>
        <time>2017-10-28T13:20:21Z</time>
      </trkpt>
      <trkpt lat="62.60891050392" lon="18.025472254098">
        <ele>61.4</ele>
        <time>2017-10-28T13:20:22Z</time>
      </trkpt>
      <trkpt lat="62.608934224697" lon="18.025390949668">
        <ele>61.4</ele>
        <time>2017-10-28T13:20:23Z</time>
      </trkpt>
      <trkpt lat="62.608955095628" lon="18.02531869769">
        <ele>61.6</ele>
        <time>2017-10-28T13:20:24Z</time>
      </trkpt>
      <trkpt lat="62.608976301835" lon="18.025228843722">
        <ele>61.8</ele>
        <time>2017-10-28T13:20:25Z</time>
      </trkpt>
      <trkpt lat="62.60899180835" lon="18.025141085229">
        <ele>61.8</ele>
        <time>2017-10-28T13:20:26Z</time>
      </trkpt>
      <trkpt lat="62.60900941034" lon="18.02505299146">
        <ele>61.8</ele>
        <time>2017-10-28T13:20:27Z</time>
      </trkpt>
      <trkpt lat="62.609026593235" lon="18.024964562415">
        <ele>62</ele>
        <time>2017-10-28T13:20:28Z</time>
      </trkpt>
      <trkpt lat="62.609040591008" lon="18.024866661823">
        <ele>62.2</ele>
        <time>2017-10-28T13:20:29Z</time>
      </trkpt>
      <trkpt lat="62.609051906573" lon="18.024754763458">
        <ele>62.4</ele>
        <time>2017-10-28T13:20:30Z</time>
      </trkpt>
      <trkpt lat="62.609063808871" lon="18.024644373835">
        <ele>62.6</ele>
        <time>2017-10-28T13:20:31Z</time>
      </trkpt>
      <trkpt lat="62.609080405033" lon="18.024533146022">
        <ele>62.8</ele>
        <time>2017-10-28T13:20:32Z</time>
      </trkpt>
      <trkpt lat="62.609100186317" lon="18.024425522426">
        <ele>63.2</ele>
        <time>2017-10-28T13:20:33Z</time>
      </trkpt>
      <trkpt lat="62.609122901266" lon="18.024334411173">
        <ele>63.4</ele>
        <time>2017-10-28T13:20:34Z</time>
      </trkpt>
      <trkpt lat="62.609154249572" lon="18.024236845857">
        <ele>63.4</ele>
        <time>2017-10-28T13:20:35Z</time>
      </trkpt>
      <trkpt lat="62.609186436068" lon="18.024143136215">
        <ele>63.4</ele>
        <time>2017-10-28T13:20:36Z</time>
      </trkpt>
      <trkpt lat="62.609217784374" lon="18.024064430174">
        <ele>63.4</ele>
        <time>2017-10-28T13:20:37Z</time>
      </trkpt>
      <trkpt lat="62.609251395793" lon="18.023997291155">
        <ele>63.2</ele>
        <time>2017-10-28T13:20:38Z</time>
      </trkpt>
      <trkpt lat="62.609281905909" lon="18.023936606199">
        <ele>63.2</ele>
        <time>2017-10-28T13:20:39Z</time>
      </trkpt>
      <trkpt lat="62.609314092405" lon="18.023866282058">
        <ele>63.4</ele>
        <time>2017-10-28T13:20:40Z</time>
      </trkpt>
      <trkpt lat="62.609348374376" lon="18.023794616813">
        <ele>63.4</ele>
        <time>2017-10-28T13:20:41Z</time>
      </trkpt>
      <trkpt lat="62.609382069614" lon="18.023724125034">
        <ele>63.6</ele>
        <time>2017-10-28T13:20:42Z</time>
      </trkpt>
      <trkpt lat="62.609415513395" lon="18.023648017382">
        <ele>63.6</ele>
        <time>2017-10-28T13:20:43Z</time>
      </trkpt>
      <trkpt lat="62.609444179493" lon="18.02356939516">
        <ele>63.6</ele>
        <time>2017-10-28T13:20:44Z</time>
      </trkpt>
      <trkpt lat="62.609474270514" lon="18.02346965055">
        <ele>63.6</ele>
        <time>2017-10-28T13:20:45Z</time>
      </trkpt>
      <trkpt lat="62.6094989133" lon="18.023370073578">
        <ele>63.6</ele>
        <time>2017-10-28T13:20:46Z</time>
      </trkpt>
      <trkpt lat="62.609516431471" lon="18.02327099952">
        <ele>63.6</ele>
        <time>2017-10-28T13:20:47Z</time>
      </trkpt>
      <trkpt lat="62.609531435072" lon="18.023167566874">
        <ele>63.6</ele>
        <time>2017-10-28T13:20:48Z</time>
      </trkpt>
      <trkpt lat="62.609541996266" lon="18.023069079549">
        <ele>63.6</ele>
        <time>2017-10-28T13:20:49Z</time>
      </trkpt>
      <trkpt lat="62.609548617967" lon="18.022963802885">
        <ele>63.4</ele>
        <time>2017-10-28T13:20:50Z</time>
      </trkpt>
      <trkpt lat="62.60955674841" lon="18.022855173461">
        <ele>63.4</ele>
        <time>2017-10-28T13:20:51Z</time>
      </trkpt>
      <trkpt lat="62.609561609912" lon="18.022765487131">
        <ele>63.6</ele>
        <time>2017-10-28T13:20:52Z</time>
      </trkpt>
      <trkpt lat="62.609565800862" lon="18.02267169367">
        <ele>63.8</ele>
        <time>2017-10-28T13:20:53Z</time>
      </trkpt>
      <trkpt lat="62.609566136138" lon="18.022592149439">
        <ele>64</ele>
        <time>2017-10-28T13:20:54Z</time>
      </trkpt>
      <trkpt lat="62.60956764488" lon="18.022506318783">
        <ele>64.2</ele>
        <time>2017-10-28T13:20:55Z</time>
      </trkpt>
      <trkpt lat="62.60957099764" lon="18.022434234443">
        <ele>64.6</ele>
        <time>2017-10-28T13:20:56Z</time>
      </trkpt>
      <trkpt lat="62.609572757839" lon="18.022365838139">
        <ele>64.8</ele>
        <time>2017-10-28T13:20:57Z</time>
      </trkpt>
      <trkpt lat="62.609573428391" lon="18.0223003755">
        <ele>65</ele>
        <time>2017-10-28T13:20:58Z</time>
      </trkpt>
      <trkpt lat="62.609577116427" lon="18.022240444915">
        <ele>65</ele>
        <time>2017-10-28T13:20:59Z</time>
      </trkpt>
      <trkpt lat="62.609584492499" lon="18.022175820466">
        <ele>65.2</ele>
        <time>2017-10-28T13:21:00Z</time>
      </trkpt>
      <trkpt lat="62.609590695105" lon="18.022119075003">
        <ele>65.2</ele>
        <time>2017-10-28T13:21:01Z</time>
      </trkpt>
      <trkpt lat="62.609596730073" lon="18.022066352852">
        <ele>65.4</ele>
        <time>2017-10-28T13:21:02Z</time>
      </trkpt>
      <trkpt lat="62.609604022326" lon="18.022015307081">
        <ele>65.4</ele>
        <time>2017-10-28T13:21:03Z</time>
      </trkpt>
      <trkpt lat="62.60960955438" lon="18.021977085617">
        <ele>65.6</ele>
        <time>2017-10-28T13:21:04Z</time>
      </trkpt>
      <trkpt lat="62.609618187737" lon="18.021923022362">
        <ele>65.8</ele>
        <time>2017-10-28T13:21:05Z</time>
      </trkpt>
      <trkpt lat="62.60962967094" lon="18.021870551668">
        <ele>66</ele>
        <time>2017-10-28T13:21:06Z</time>
      </trkpt>
      <trkpt lat="62.609641824695" lon="18.021828893625">
        <ele>66.2</ele>
        <time>2017-10-28T13:21:07Z</time>
      </trkpt>
      <trkpt lat="62.609654146088" lon="18.021783966641">
        <ele>66.6</ele>
        <time>2017-10-28T13:21:08Z</time>
      </trkpt>
      <trkpt lat="62.609665210196" lon="18.021741218951">
        <ele>66.8</ele>
        <time>2017-10-28T13:21:09Z</time>
      </trkpt>
      <trkpt lat="62.609672586268" lon="18.021705679695">
        <ele>67.2</ele>
        <time>2017-10-28T13:21:10Z</time>
      </trkpt>
      <trkpt lat="62.609688008964" lon="18.021648012223">
        <ele>67.4</ele>
        <time>2017-10-28T13:21:11Z</time>
      </trkpt>
      <trkpt lat="62.609702844927" lon="18.021609790759">
        <ele>67.8</ele>
        <time>2017-10-28T13:21:12Z</time>
      </trkpt>
      <trkpt lat="62.609718435261" lon="18.021574586779">
        <ele>68.2</ele>
        <time>2017-10-28T13:21:13Z</time>
      </trkpt>
      <trkpt lat="62.609733103586" lon="18.021539047523">
        <ele>68.4</ele>
        <time>2017-10-28T13:21:14Z</time>
      </trkpt>
      <trkpt lat="62.609748945377" lon="18.021500658421">
        <ele>68.8</ele>
        <time>2017-10-28T13:21:15Z</time>
      </trkpt>
      <trkpt lat="62.609761099132" lon="18.021464783889">
        <ele>69</ele>
        <time>2017-10-28T13:21:16Z</time>
      </trkpt>
      <trkpt lat="62.60977719238" lon="18.021425975692">
        <ele>69.4</ele>
        <time>2017-10-28T13:21:17Z</time>
      </trkpt>
      <trkpt lat="62.609792531257" lon="18.021395381757">
        <ele>69.6</ele>
        <time>2017-10-28T13:21:18Z</time>
      </trkpt>
      <trkpt lat="62.609805858478" lon="18.02136244089">
        <ele>69.8</ele>
        <time>2017-10-28T13:21:19Z</time>
      </trkpt>
      <trkpt lat="62.609821448812" lon="18.021332685145">
        <ele>70</ele>
        <time>2017-10-28T13:21:20Z</time>
      </trkpt>
      <trkpt lat="62.60983838025" lon="18.021304773418">
        <ele>70.2</ele>
        <time>2017-10-28T13:21:21Z</time>
      </trkpt>
      <trkpt lat="62.609851875109" lon="18.021283567211">
        <ele>70.6</ele>
        <time>2017-10-28T13:21:22Z</time>
      </trkpt>
      <trkpt lat="62.609867297805" lon="18.021263199194">
        <ele>70.8</ele>
        <time>2017-10-28T13:21:23Z</time>
      </trkpt>
      <trkpt lat="62.609885402709" lon="18.021238975503">
        <ele>71.2</ele>
        <time>2017-10-28T13:21:24Z</time>
      </trkpt>
      <trkpt lat="62.609904764898" lon="18.021216931106">
        <ele>71.8</ele>
        <time>2017-10-28T13:21:25Z</time>
      </trkpt>
      <trkpt lat="62.609922702164" lon="18.021194467614">
        <ele>72.2</ele>
        <time>2017-10-28T13:21:26Z</time>
      </trkpt>
      <trkpt lat="62.609943489276" lon="18.021177452357">
        <ele>72.8</ele>
        <time>2017-10-28T13:21:27Z</time>
      </trkpt>
      <trkpt lat="62.609963522017" lon="18.021156665245">
        <ele>73.4</ele>
        <time>2017-10-28T13:21:28Z</time>
      </trkpt>
      <trkpt lat="62.609983806215" lon="18.021135123762">
        <ele>73.6</ele>
        <time>2017-10-28T13:21:29Z</time>
      </trkpt>
      <trkpt lat="62.610008113725" lon="18.021110564795">
        <ele>73.8</ele>
        <time>2017-10-28T13:21:30Z</time>
      </trkpt>
      <trkpt lat="62.610032588873" lon="18.021088017484">
        <ele>73.6</ele>
        <time>2017-10-28T13:21:31Z</time>
      </trkpt>
      <trkpt lat="62.610057399297" lon="18.021067900924">
        <ele>73.6</ele>
        <time>2017-10-28T13:21:32Z</time>
      </trkpt>
      <trkpt lat="62.610084891929" lon="18.021049544563">
        <ele>73.4</ele>
        <time>2017-10-28T13:21:33Z</time>
      </trkpt>
      <trkpt lat="62.610107858335" lon="18.021030182374">
        <ele>73.4</ele>
        <time>2017-10-28T13:21:34Z</time>
      </trkpt>
      <trkpt lat="62.610134848053" lon="18.021006377778">
        <ele>73.4</ele>
        <time>2017-10-28T13:21:35Z</time>
      </trkpt>
      <trkpt lat="62.610161418676" lon="18.020977041128">
        <ele>73.6</ele>
        <time>2017-10-28T13:21:36Z</time>
      </trkpt>
      <trkpt lat="62.610188492213" lon="18.020954745274">
        <ele>73.8</ele>
        <time>2017-10-28T13:21:37Z</time>
      </trkpt>
      <trkpt lat="62.610215398112" lon="18.020930856859">
        <ele>73.8</ele>
        <time>2017-10-28T13:21:38Z</time>
      </trkpt>
      <trkpt lat="62.610240208536" lon="18.020905124426">
        <ele>74</ele>
        <time>2017-10-28T13:21:39Z</time>
      </trkpt>
      <trkpt lat="62.610268539358" lon="18.020876793604">
        <ele>74</ele>
        <time>2017-10-28T13:21:40Z</time>
      </trkpt>
      <trkpt lat="62.610299636207" lon="18.020854330112">
        <ele>74.2</ele>
        <time>2017-10-28T13:21:41Z</time>
      </trkpt>
      <trkpt lat="62.610326961201" lon="18.02083019024">
        <ele>74.2</ele>
        <time>2017-10-28T13:21:42Z</time>
      </trkpt>
      <trkpt lat="62.61035554348" lon="18.020807810567">
        <ele>74.4</ele>
        <time>2017-10-28T13:21:43Z</time>
      </trkpt>
      <trkpt lat="62.610382030284" lon="18.020784760342">
        <ele>74.4</ele>
        <time>2017-10-28T13:21:44Z</time>
      </trkpt>
      <trkpt lat="62.610411115477" lon="18.02075391495">
        <ele>74.4</ele>
        <time>2017-10-28T13:21:45Z</time>
      </trkpt>
      <trkpt lat="62.610437350824" lon="18.020725081214">
        <ele>74.6</ele>
        <time>2017-10-28T13:21:46Z</time>
      </trkpt>
      <trkpt lat="62.610465849284" lon="18.020693481451">
        <ele>74.8</ele>
        <time>2017-10-28T13:21:47Z</time>
      </trkpt>
      <trkpt lat="62.610495102115" lon="18.02066255224">
        <ele>75</ele>
        <time>2017-10-28T13:21:48Z</time>
      </trkpt>
      <trkpt lat="62.610522091833" lon="18.020630952477">
        <ele>75.2</ele>
        <time>2017-10-28T13:21:49Z</time>
      </trkpt>
      <trkpt lat="62.610550757931" lon="18.020595077945">
        <ele>75.4</ele>
        <time>2017-10-28T13:21:50Z</time>
      </trkpt>
      <trkpt lat="62.61057934021" lon="18.020554006635">
        <ele>75.4</ele>
        <time>2017-10-28T13:21:51Z</time>
      </trkpt>
      <trkpt lat="62.610604234453" lon="18.020519724664">
        <ele>75.6</ele>
        <time>2017-10-28T13:21:52Z</time>
      </trkpt>
      <trkpt lat="62.610629547791" lon="18.020479743001">
        <ele>75.8</ele>
        <time>2017-10-28T13:21:53Z</time>
      </trkpt>
      <trkpt lat="62.610649329075" lon="18.020437582044">
        <ele>75.8</ele>
        <time>2017-10-28T13:21:54Z</time>
      </trkpt>
      <trkpt lat="62.610670870558" lon="18.020389218481">
        <ele>76</ele>
        <time>2017-10-28T13:21:55Z</time>
      </trkpt>
      <trkpt lat="62.610690316566" lon="18.020345213506">
        <ele>76.2</ele>
        <time>2017-10-28T13:21:56Z</time>
      </trkpt>
      <trkpt lat="62.610708840565" lon="18.020299113056">
        <ele>76.4</ele>
        <time>2017-10-28T13:21:57Z</time>
      </trkpt>
      <trkpt lat="62.610727196926" lon="18.020258963755">
        <ele>76.6</ele>
        <time>2017-10-28T13:21:58Z</time>
      </trkpt>
      <trkpt lat="62.610742368165" lon="18.020211270744">
        <ele>76.6</ele>
        <time>2017-10-28T13:21:59Z</time>
      </trkpt>
      <trkpt lat="62.610761143621" lon="18.020156704575">
        <ele>76.8</ele>
        <time>2017-10-28T13:22:00Z</time>
      </trkpt>
      <trkpt lat="62.61077966762" lon="18.020112112867">
        <ele>76.8</ele>
        <time>2017-10-28T13:22:01Z</time>
      </trkpt>
      <trkpt lat="62.610796766696" lon="18.020065006589">
        <ele>77</ele>
        <time>2017-10-28T13:22:02Z</time>
      </trkpt>
      <trkpt lat="62.610815374514" lon="18.020015972474">
        <ele>77.2</ele>
        <time>2017-10-28T13:22:03Z</time>
      </trkpt>
      <trkpt lat="62.610831970676" lon="18.019974146793">
        <ele>77.4</ele>
        <time>2017-10-28T13:22:04Z</time>
      </trkpt>
      <trkpt lat="62.610849824123" lon="18.019920837909">
        <ele>77.4</ele>
        <time>2017-10-28T13:22:05Z</time>
      </trkpt>
      <trkpt lat="62.610869605407" lon="18.019866690835">
        <ele>77.6</ele>
        <time>2017-10-28T13:22:06Z</time>
      </trkpt>
      <trkpt lat="62.610886788302" lon="18.019813549589">
        <ele>77.8</ele>
        <time>2017-10-28T13:22:07Z</time>
      </trkpt>
      <trkpt lat="62.610904809387" lon="18.019759234877">
        <ele>78</ele>
        <time>2017-10-28T13:22:08Z</time>
      </trkpt>
      <trkpt lat="62.610923081929" lon="18.019709865486">
        <ele>78.2</ele>
        <time>2017-10-28T13:22:09Z</time>
      </trkpt>
      <trkpt lat="62.610944539593" lon="18.019650773091">
        <ele>78.4</ele>
        <time>2017-10-28T13:22:10Z</time>
      </trkpt>
      <trkpt lat="62.610965242886" lon="18.019593105619">
        <ele>78.6</ele>
        <time>2017-10-28T13:22:11Z</time>
      </trkpt>
      <trkpt lat="62.610988293111" lon="18.01953937764">
        <ele>78.8</ele>
        <time>2017-10-28T13:22:12Z</time>
      </trkpt>
      <trkpt lat="62.611010672784" lon="18.019488918602">
        <ele>79</ele>
        <time>2017-10-28T13:22:13Z</time>
      </trkpt>
      <trkpt lat="62.611032717181" lon="18.019442566695">
        <ele>79</ele>
        <time>2017-10-28T13:22:14Z</time>
      </trkpt>
      <trkpt lat="62.611055013035" lon="18.019385402137">
        <ele>79.2</ele>
        <time>2017-10-28T13:22:15Z</time>
      </trkpt>
      <trkpt lat="62.611075716328" lon="18.019335446013">
        <ele>79.2</ele>
        <time>2017-10-28T13:22:16Z</time>
      </trkpt>
      <trkpt lat="62.611100945847" lon="18.019286076622">
        <ele>79.2</ele>
        <time>2017-10-28T13:22:17Z</time>
      </trkpt>
      <trkpt lat="62.611125672452" lon="18.019236707231">
        <ele>79.2</ele>
        <time>2017-10-28T13:22:18Z</time>
      </trkpt>
      <trkpt lat="62.61114930941" lon="18.019191444971">
        <ele>79.4</ele>
        <time>2017-10-28T13:22:19Z</time>
      </trkpt>
      <trkpt lat="62.611175041843" lon="18.019140985933">
        <ele>79.4</ele>
        <time>2017-10-28T13:22:20Z</time>
      </trkpt>
      <trkpt lat="62.611204965226" lon="18.01908759323">
        <ele>79.4</ele>
        <time>2017-10-28T13:22:21Z</time>
      </trkpt>
      <trkpt lat="62.611231787306" lon="18.019045599911">
        <ele>79.4</ele>
        <time>2017-10-28T13:22:22Z</time>
      </trkpt>
      <trkpt lat="62.611259196119" lon="18.0189979069">
        <ele>79.6</ele>
        <time>2017-10-28T13:22:23Z</time>
      </trkpt>
      <trkpt lat="62.611284090362" lon="18.018951554993">
        <ele>79.8</ele>
        <time>2017-10-28T13:22:24Z</time>
      </trkpt>
      <trkpt lat="62.611314181383" lon="18.018901095955">
        <ele>79.8</ele>
        <time>2017-10-28T13:22:25Z</time>
      </trkpt>
      <trkpt lat="62.611343182757" lon="18.018856923342">
        <ele>79.8</ele>
        <time>2017-10-28T13:22:26Z</time>
      </trkpt>
      <trkpt lat="62.611371848855" lon="18.018808978874">
        <ele>80</ele>
        <time>2017-10-28T13:22:27Z</time>
      </trkpt>
      <trkpt lat="62.611398838573" lon="18.018760447673">
        <ele>80.2</ele>
        <time>2017-10-28T13:22:28Z</time>
      </trkpt>
      <trkpt lat="62.611425409196" lon="18.018715855965">
        <ele>80.2</ele>
        <time>2017-10-28T13:22:29Z</time>
      </trkpt>
      <trkpt lat="62.61145608695" lon="18.018673359732">
        <ele>80.4</ele>
        <time>2017-10-28T13:22:30Z</time>
      </trkpt>
      <trkpt lat="62.611481987021" lon="18.018626504911">
        <ele>80.6</ele>
        <time>2017-10-28T13:22:31Z</time>
      </trkpt>
      <trkpt lat="62.611505372522" lon="18.018577386977">
        <ele>80.8</ele>
        <time>2017-10-28T13:22:32Z</time>
      </trkpt>
      <trkpt lat="62.611527836014" lon="18.018526927939">
        <ele>81</ele>
        <time>2017-10-28T13:22:33Z</time>
      </trkpt>
      <trkpt lat="62.611548539307" lon="18.018484264068">
        <ele>81</ele>
        <time>2017-10-28T13:22:34Z</time>
      </trkpt>
      <trkpt lat="62.611563710546" lon="18.018451909934">
        <ele>81</ele>
        <time>2017-10-28T13:22:35Z</time>
      </trkpt>
      <trkpt lat="62.611591370816" lon="18.018384770915">
        <ele>81.2</ele>
        <time>2017-10-28T13:22:36Z</time>
      </trkpt>
      <trkpt lat="62.611610481548" lon="18.018333557506">
        <ele>81.2</ele>
        <time>2017-10-28T13:22:37Z</time>
      </trkpt>
      <trkpt lat="62.611629340823" lon="18.018280583898">
        <ele>81.2</ele>
        <time>2017-10-28T13:22:38Z</time>
      </trkpt>
      <trkpt lat="62.611645014976" lon="18.018231465964">
        <ele>81.4</ele>
        <time>2017-10-28T13:22:39Z</time>
      </trkpt>
      <trkpt lat="62.611664041889" lon="18.018177235071">
        <ele>81.6</ele>
        <time>2017-10-28T13:22:40Z</time>
      </trkpt>
      <trkpt lat="62.611680135137" lon="18.018124093825">
        <ele>81.6</ele>
        <time>2017-10-28T13:22:41Z</time>
      </trkpt>
      <trkpt lat="62.611693881453" lon="18.01806500143">
        <ele>82</ele>
        <time>2017-10-28T13:22:42Z</time>
      </trkpt>
      <trkpt lat="62.611706538122" lon="18.018008339786">
        <ele>82.2</ele>
        <time>2017-10-28T13:22:43Z</time>
      </trkpt>
      <trkpt lat="62.611719110972" lon="18.017957629291">
        <ele>82.4</ele>
        <time>2017-10-28T13:22:44Z</time>
      </trkpt>
      <trkpt lat="62.611734198392" lon="18.017897782525">
        <ele>82.8</ele>
        <time>2017-10-28T13:22:45Z</time>
      </trkpt>
      <trkpt lat="62.611748950536" lon="18.01784874841">
        <ele>83</ele>
        <time>2017-10-28T13:22:46Z</time>
      </trkpt>
      <trkpt lat="62.611765295241" lon="18.017797367363">
        <ele>83.2</ele>
        <time>2017-10-28T13:22:47Z</time>
      </trkpt>
      <trkpt lat="62.611777784272" lon="18.017741879185">
        <ele>83.4</ele>
        <time>2017-10-28T13:22:48Z</time>
      </trkpt>
      <trkpt lat="62.611789267475" lon="18.017693347984">
        <ele>83.6</ele>
        <time>2017-10-28T13:22:49Z</time>
      </trkpt>
      <trkpt lat="62.611801672687" lon="18.0176400391">
        <ele>83.8</ele>
        <time>2017-10-28T13:22:50Z</time>
      </trkpt>
      <trkpt lat="62.6118123177" lon="18.017580862886">
        <ele>84</ele>
        <time>2017-10-28T13:22:51Z</time>
      </trkpt>
      <trkpt lat="62.611826231654" lon="18.017528140735">
        <ele>84.2</ele>
        <time>2017-10-28T13:22:52Z</time>
      </trkpt>
      <trkpt lat="62.61183662521" lon="18.017472233462">
        <ele>84.2</ele>
        <time>2017-10-28T13:22:53Z</time>
      </trkpt>
      <trkpt lat="62.611850120069" lon="18.017421522967">
        <ele>84.4</ele>
        <time>2017-10-28T13:22:54Z</time>
      </trkpt>
      <trkpt lat="62.611864872213" lon="18.01736762735">
        <ele>84.4</ele>
        <time>2017-10-28T13:22:55Z</time>
      </trkpt>
      <trkpt lat="62.611873840846" lon="18.017315324294">
        <ele>84.6</ele>
        <time>2017-10-28T13:22:56Z</time>
      </trkpt>
      <trkpt lat="62.611885994601" lon="18.017260841944">
        <ele>84.8</ele>
        <time>2017-10-28T13:22:57Z</time>
      </trkpt>
      <trkpt lat="62.611898818908" lon="18.017213232752">
        <ele>84.8</ele>
        <time>2017-10-28T13:22:58Z</time>
      </trkpt>
      <trkpt lat="62.611909883016" lon="18.017165288284">
        <ele>85</ele>
        <time>2017-10-28T13:22:59Z</time>
      </trkpt>
      <trkpt lat="62.611921869133" lon="18.017106782622">
        <ele>85.2</ele>
        <time>2017-10-28T13:23:00Z</time>
      </trkpt>
      <trkpt lat="62.611932765603" lon="18.017051462082">
        <ele>85.2</ele>
        <time>2017-10-28T13:23:01Z</time>
      </trkpt>
      <trkpt lat="62.611946847195" lon="18.016998991388">
        <ele>85.6</ele>
        <time>2017-10-28T13:23:02Z</time>
      </trkpt>
      <trkpt lat="62.611961264063" lon="18.01695020873">
        <ele>85.8</ele>
        <time>2017-10-28T13:23:03Z</time>
      </trkpt>
      <trkpt lat="62.61197241199" lon="18.016904192099">
        <ele>86.2</ele>
        <time>2017-10-28T13:23:04Z</time>
      </trkpt>
      <trkpt lat="62.611979620424" lon="18.016851469948">
        <ele>86.4</ele>
        <time>2017-10-28T13:23:05Z</time>
      </trkpt>
      <trkpt lat="62.61199336674" lon="18.016794137752">
        <ele>86.6</ele>
        <time>2017-10-28T13:23:06Z</time>
      </trkpt>
      <trkpt lat="62.612001497183" lon="18.016746193284">
        <ele>86.8</ele>
        <time>2017-10-28T13:23:07Z</time>
      </trkpt>
      <trkpt lat="62.612012980386" lon="18.016695734246">
        <ele>87</ele>
        <time>2017-10-28T13:23:08Z</time>
      </trkpt>
      <trkpt lat="62.612023122485" lon="18.016649885253">
        <ele>87.2</ele>
        <time>2017-10-28T13:23:09Z</time>
      </trkpt>
      <trkpt lat="62.61203359986" lon="18.01659565436">
        <ele>87.4</ele>
        <time>2017-10-28T13:23:10Z</time>
      </trkpt>
      <trkpt lat="62.6120470109" lon="18.016549386272">
        <ele>87.6</ele>
        <time>2017-10-28T13:23:11Z</time>
      </trkpt>
      <trkpt lat="62.612058997017" lon="18.016504626926">
        <ele>87.8</ele>
        <time>2017-10-28T13:23:12Z</time>
      </trkpt>
      <trkpt lat="62.612073749161" lon="18.016454251707">
        <ele>88</ele>
        <time>2017-10-28T13:23:13Z</time>
      </trkpt>
      <trkpt lat="62.612086741106" lon="18.016411084922">
        <ele>88.2</ele>
        <time>2017-10-28T13:23:14Z</time>
      </trkpt>
      <trkpt lat="62.612100235965" lon="18.016356937848">
        <ele>88.4</ele>
        <time>2017-10-28T13:23:15Z</time>
      </trkpt>
      <trkpt lat="62.612111719168" lon="18.016303293688">
        <ele>88.6</ele>
        <time>2017-10-28T13:23:16Z</time>
      </trkpt>
      <trkpt lat="62.61212580076" lon="18.016244117474">
        <ele>88.8</ele>
        <time>2017-10-28T13:23:17Z</time>
      </trkpt>
      <trkpt lat="62.612139714714" lon="18.016184354527">
        <ele>89</ele>
        <time>2017-10-28T13:23:18Z</time>
      </trkpt>
      <trkpt lat="62.612151617012" lon="18.016126519417">
        <ele>89.2</ele>
        <time>2017-10-28T13:23:19Z</time>
      </trkpt>
      <trkpt lat="62.612166452975" lon="18.016064912452">
        <ele>89.4</ele>
        <time>2017-10-28T13:23:20Z</time>
      </trkpt>
      <trkpt lat="62.612184138784" lon="18.016000036546">
        <ele>89.6</ele>
        <time>2017-10-28T13:23:21Z</time>
      </trkpt>
      <trkpt lat="62.612198220376" lon="18.015936501744">
        <ele>89.8</ele>
        <time>2017-10-28T13:23:22Z</time>
      </trkpt>
      <trkpt lat="62.612212218149" lon="18.015869111268">
        <ele>90</ele>
        <time>2017-10-28T13:23:23Z</time>
      </trkpt>
      <trkpt lat="62.612225126275" lon="18.015807671941">
        <ele>90.2</ele>
        <time>2017-10-28T13:23:24Z</time>
      </trkpt>
      <trkpt lat="62.612239207867" lon="18.015736593429">
        <ele>90.2</ele>
        <time>2017-10-28T13:23:25Z</time>
      </trkpt>
      <trkpt lat="62.612254295287" lon="18.015672052799">
        <ele>90.4</ele>
        <time>2017-10-28T13:23:26Z</time>
      </trkpt>
      <trkpt lat="62.612268795974" lon="18.015609020911">
        <ele>90.6</ele>
        <time>2017-10-28T13:23:27Z</time>
      </trkpt>
      <trkpt lat="62.612283883394" lon="18.015550179973">
        <ele>90.6</ele>
        <time>2017-10-28T13:23:28Z</time>
      </trkpt>
      <trkpt lat="62.612297462072" lon="18.015489997931">
        <ele>90.8</ele>
        <time>2017-10-28T13:23:29Z</time>
      </trkpt>
      <trkpt lat="62.612311962759" lon="18.015420763437">
        <ele>91</ele>
        <time>2017-10-28T13:23:30Z</time>
      </trkpt>
      <trkpt lat="62.612325960532" lon="18.015356725721">
        <ele>91.2</ele>
        <time>2017-10-28T13:23:31Z</time>
      </trkpt>
      <trkpt lat="62.612337527554" lon="18.015287910322">
        <ele>91.2</ele>
        <time>2017-10-28T13:23:32Z</time>
      </trkpt>
      <trkpt lat="62.61235211206" lon="18.015221358036">
        <ele>91.4</ele>
        <time>2017-10-28T13:23:33Z</time>
      </trkpt>
      <trkpt lat="62.612364098177" lon="18.015161762727">
        <ele>91.4</ele>
        <time>2017-10-28T13:23:34Z</time>
      </trkpt>
      <trkpt lat="62.612376251932" lon="18.015092947328">
        <ele>91.4</ele>
        <time>2017-10-28T13:23:35Z</time>
      </trkpt>
      <trkpt lat="62.612386729307" lon="18.015018348418">
        <ele>91.4</ele>
        <time>2017-10-28T13:23:36Z</time>
      </trkpt>
      <trkpt lat="62.61239988889" lon="18.014948191915">
        <ele>91.6</ele>
        <time>2017-10-28T13:23:37Z</time>
      </trkpt>
      <trkpt lat="62.612410533903" lon="18.01487987943">
        <ele>91.6</ele>
        <time>2017-10-28T13:23:38Z</time>
      </trkpt>
      <trkpt lat="62.612421011278" lon="18.014812740411">
        <ele>91.6</ele>
        <time>2017-10-28T13:23:39Z</time>
      </trkpt>
      <trkpt lat="62.612432662119" lon="18.014742248632">
        <ele>91.6</ele>
        <time>2017-10-28T13:23:40Z</time>
      </trkpt>
      <trkpt lat="62.612443893865" lon="18.014668571731">
        <ele>91.8</ele>
        <time>2017-10-28T13:23:41Z</time>
      </trkpt>
      <trkpt lat="62.612455879982" lon="18.014594308097">
        <ele>91.8</ele>
        <time>2017-10-28T13:23:42Z</time>
      </trkpt>
      <trkpt lat="62.612464261882" lon="18.014516440246">
        <ele>91.8</ele>
        <time>2017-10-28T13:23:43Z</time>
      </trkpt>
      <trkpt lat="62.612471470316" lon="18.014443852992">
        <ele>92</ele>
        <time>2017-10-28T13:23:44Z</time>
      </trkpt>
      <trkpt lat="62.61248035513" lon="18.014358441431">
        <ele>92</ele>
        <time>2017-10-28T13:23:45Z</time>
      </trkpt>
      <trkpt lat="62.612491754514" lon="18.014284429254">
        <ele>92</ele>
        <time>2017-10-28T13:23:46Z</time>
      </trkpt>
      <trkpt lat="62.612503908269" lon="18.01420010734">
        <ele>92</ele>
        <time>2017-10-28T13:23:47Z</time>
      </trkpt>
      <trkpt lat="62.612515894386" lon="18.01411712653">
        <ele>92</ele>
        <time>2017-10-28T13:23:48Z</time>
      </trkpt>
      <trkpt lat="62.612529137788" lon="18.014040599783">
        <ele>92</ele>
        <time>2017-10-28T13:23:49Z</time>
      </trkpt>
      <trkpt lat="62.612545985407" lon="18.013957451335">
        <ele>92</ele>
        <time>2017-10-28T13:23:50Z</time>
      </trkpt>
      <trkpt lat="62.612566185786" lon="18.013867094453">
        <ele>92.2</ele>
        <time>2017-10-28T13:23:51Z</time>
      </trkpt>
      <trkpt lat="62.612584206871" lon="18.013785035652">
        <ele>92.2</ele>
        <time>2017-10-28T13:23:52Z</time>
      </trkpt>
      <trkpt lat="62.612603820517" lon="18.013691577467">
        <ele>92.4</ele>
        <time>2017-10-28T13:23:53Z</time>
      </trkpt>
      <trkpt lat="62.612627122199" lon="18.013607674648">
        <ele>92.4</ele>
        <time>2017-10-28T13:23:54Z</time>
      </trkpt>
      <trkpt lat="62.612655955935" lon="18.013522263087">
        <ele>92.6</ele>
        <time>2017-10-28T13:23:55Z</time>
      </trkpt>
      <trkpt lat="62.612682023644" lon="18.013445484883">
        <ele>92.6</ele>
        <time>2017-10-28T13:23:56Z</time>
      </trkpt>
      <trkpt lat="62.612704319498" lon="18.013372143258">
        <ele>92.6</ele>
        <time>2017-10-28T13:23:57Z</time>
      </trkpt>
      <trkpt lat="62.612727118266" lon="18.01330911137">
        <ele>92.6</ele>
        <time>2017-10-28T13:23:58Z</time>
      </trkpt>
      <trkpt lat="62.612748408292" lon="18.013256640676">
        <ele>92.8</ele>
        <time>2017-10-28T13:23:59Z</time>
      </trkpt>
      <trkpt lat="62.612769865956" lon="18.013196290996">
        <ele>92.8</ele>
        <time>2017-10-28T13:24:00Z</time>
      </trkpt>
      <trkpt lat="62.612790653068" lon="18.013151280193">
        <ele>92.8</ele>
        <time>2017-10-28T13:24:01Z</time>
      </trkpt>
      <trkpt lat="62.612807835963" lon="18.013105347381">
        <ele>92.8</ele>
        <time>2017-10-28T13:24:02Z</time>
      </trkpt>
      <trkpt lat="62.612822839564" lon="18.013064695166">
        <ele>93</ele>
        <time>2017-10-28T13:24:03Z</time>
      </trkpt>
      <trkpt lat="62.612832311111" lon="18.013026976616">
        <ele>93.2</ele>
        <time>2017-10-28T13:24:04Z</time>
      </trkpt>
      <trkpt lat="62.612844464866" lon="18.012983809831">
        <ele>93.6</ele>
        <time>2017-10-28T13:24:05Z</time>
      </trkpt>
      <trkpt lat="62.612859300829" lon="18.012943492892">
        <ele>94</ele>
        <time>2017-10-28T13:24:06Z</time>
      </trkpt>
      <trkpt lat="62.61287011348" lon="18.012900242288">
        <ele>94.4</ele>
        <time>2017-10-28T13:24:07Z</time>
      </trkpt>
      <trkpt lat="62.612880507036" lon="18.012856740227">
        <ele>94.8</ele>
        <time>2017-10-28T13:24:08Z</time>
      </trkpt>
      <trkpt lat="62.612890481497" lon="18.012815249822">
        <ele>95.2</ele>
        <time>2017-10-28T13:24:09Z</time>
      </trkpt>
      <trkpt lat="62.612905652736" lon="18.012775351978">
        <ele>95.4</ele>
        <time>2017-10-28T13:24:10Z</time>
      </trkpt>
      <trkpt lat="62.612917806491" lon="18.012734364487">
        <ele>95.4</ele>
        <time>2017-10-28T13:24:11Z</time>
      </trkpt>
      <trkpt lat="62.612926942762" lon="18.012689605141">
        <ele>95.8</ele>
        <time>2017-10-28T13:24:12Z</time>
      </trkpt>
      <trkpt lat="62.612932474816" lon="18.01264275032">
        <ele>96</ele>
        <time>2017-10-28T13:24:13Z</time>
      </trkpt>
      <trkpt lat="62.612940269983" lon="18.012597823336">
        <ele>96.4</ele>
        <time>2017-10-28T13:24:14Z</time>
      </trkpt>
      <trkpt lat="62.612950412082" lon="18.01254971123">
        <ele>96.6</ele>
        <time>2017-10-28T13:24:15Z</time>
      </trkpt>
      <trkpt lat="62.612961224733" lon="18.012506041531">
        <ele>97</ele>
        <time>2017-10-28T13:24:16Z</time>
      </trkpt>
      <trkpt lat="62.612969271357" lon="18.012463293841">
        <ele>97.2</ele>
        <time>2017-10-28T13:24:17Z</time>
      </trkpt>
      <trkpt lat="62.612976731248" lon="18.012416271382">
        <ele>97.4</ele>
        <time>2017-10-28T13:24:18Z</time>
      </trkpt>
      <trkpt lat="62.612982179483" lon="18.012372769321">
        <ele>97.4</ele>
        <time>2017-10-28T13:24:19Z</time>
      </trkpt>
      <trkpt lat="62.612988885003" lon="18.012326417414">
        <ele>97.6</ele>
        <time>2017-10-28T13:24:20Z</time>
      </trkpt>
      <trkpt lat="62.612995506704" lon="18.012278053851">
        <ele>98</ele>
        <time>2017-10-28T13:24:21Z</time>
      </trkpt>
      <trkpt lat="62.613000116749" lon="18.01223036084">
        <ele>98.2</ele>
        <time>2017-10-28T13:24:22Z</time>
      </trkpt>
      <trkpt lat="62.613010510305" lon="18.012184092752">
        <ele>98.6</ele>
        <time>2017-10-28T13:24:23Z</time>
      </trkpt>
      <trkpt lat="62.613019227481" lon="18.01214235089">
        <ele>98.8</ele>
        <time>2017-10-28T13:24:24Z</time>
      </trkpt>
      <trkpt lat="62.613028699028" lon="18.012094406422">
        <ele>99.2</ele>
        <time>2017-10-28T13:24:25Z</time>
      </trkpt>
      <trkpt lat="62.613035572186" lon="18.012051994008">
        <ele>99.4</ele>
        <time>2017-10-28T13:24:26Z</time>
      </trkpt>
      <trkpt lat="62.613042277706" lon="18.012003965721">
        <ele>99.6</ele>
        <time>2017-10-28T13:24:27Z</time>
      </trkpt>
      <trkpt lat="62.613051497796" lon="18.011956440348">
        <ele>99.6</ele>
        <time>2017-10-28T13:24:28Z</time>
      </trkpt>
      <trkpt lat="62.613055772565" lon="18.0119068195">
        <ele>99.8</ele>
        <time>2017-10-28T13:24:29Z</time>
      </trkpt>
      <trkpt lat="62.613064154465" lon="18.011849068209">
        <ele>100</ele>
        <time>2017-10-28T13:24:30Z</time>
      </trkpt>
      <trkpt lat="62.613069770338" lon="18.011799028266">
        <ele>100.2</ele>
        <time>2017-10-28T13:24:31Z</time>
      </trkpt>
      <trkpt lat="62.613073709831" lon="18.011744378278">
        <ele>100.4</ele>
        <time>2017-10-28T13:24:32Z</time>
      </trkpt>
      <trkpt lat="62.613082594645" lon="18.011691488489">
        <ele>100.6</ele>
        <time>2017-10-28T13:24:33Z</time>
      </trkpt>
      <trkpt lat="62.613089551622" lon="18.01164278965">
        <ele>100.8</ele>
        <time>2017-10-28T13:24:34Z</time>
      </trkpt>
      <trkpt lat="62.613095083676" lon="18.011590067499">
        <ele>101</ele>
        <time>2017-10-28T13:24:35Z</time>
      </trkpt>
      <trkpt lat="62.613101956834" lon="18.011529382543">
        <ele>101</ele>
        <time>2017-10-28T13:24:36Z</time>
      </trkpt>
      <trkpt lat="62.613108494716" lon="18.011471128338">
        <ele>101.2</ele>
        <time>2017-10-28T13:24:37Z</time>
      </trkpt>
      <trkpt lat="62.613113691494" lon="18.011410694839">
        <ele>101.2</ele>
        <time>2017-10-28T13:24:38Z</time>
      </trkpt>
      <trkpt lat="62.613118888272" lon="18.01135864324">
        <ele>101.4</ele>
        <time>2017-10-28T13:24:39Z</time>
      </trkpt>
      <trkpt lat="62.613123414498" lon="18.011295276076">
        <ele>101.4</ele>
        <time>2017-10-28T13:24:40Z</time>
      </trkpt>
      <trkpt lat="62.61313330514" lon="18.011234255844">
        <ele>101.8</ele>
        <time>2017-10-28T13:24:41Z</time>
      </trkpt>
      <trkpt lat="62.613141854678" lon="18.011173487069">
        <ele>102</ele>
        <time>2017-10-28T13:24:42Z</time>
      </trkpt>
      <trkpt lat="62.613145375076" lon="18.011112802113">
        <ele>102.2</ele>
        <time>2017-10-28T13:24:43Z</time>
      </trkpt>
      <trkpt lat="62.613153170243" lon="18.011058403582">
        <ele>102.4</ele>
        <time>2017-10-28T13:24:44Z</time>
      </trkpt>
      <trkpt lat="62.613159791944" lon="18.010992689486">
        <ele>102.8</ele>
        <time>2017-10-28T13:24:45Z</time>
      </trkpt>
      <trkpt lat="62.613167419473" lon="18.010940805525">
        <ele>103</ele>
        <time>2017-10-28T13:24:46Z</time>
      </trkpt>
      <trkpt lat="62.613173705898" lon="18.01087752218">
        <ele>103</ele>
        <time>2017-10-28T13:24:47Z</time>
      </trkpt>
      <trkpt lat="62.613179321771" lon="18.010818094509">
        <ele>103.2</ele>
        <time>2017-10-28T13:24:48Z</time>
      </trkpt>
      <trkpt lat="62.613188038947" lon="18.01076017558">
        <ele>103.4</ele>
        <time>2017-10-28T13:24:49Z</time>
      </trkpt>
      <trkpt lat="62.613195163562" lon="18.01069479676">
        <ele>103.4</ele>
        <time>2017-10-28T13:24:50Z</time>
      </trkpt>
      <trkpt lat="62.613201952901" lon="18.010630423768">
        <ele>103.6</ele>
        <time>2017-10-28T13:24:51Z</time>
      </trkpt>
      <trkpt lat="62.613208658421" lon="18.010569152079">
        <ele>104</ele>
        <time>2017-10-28T13:24:52Z</time>
      </trkpt>
      <trkpt lat="62.613216621226" lon="18.010506371648">
        <ele>104.2</ele>
        <time>2017-10-28T13:24:53Z</time>
      </trkpt>
      <trkpt lat="62.613224416393" lon="18.010450212918">
        <ele>104.4</ele>
        <time>2017-10-28T13:24:54Z</time>
      </trkpt>
      <trkpt lat="62.613233552664" lon="18.010388605953">
        <ele>104.4</ele>
        <time>2017-10-28T13:24:55Z</time>
      </trkpt>
      <trkpt lat="62.613241515469" lon="18.010330100291">
        <ele>104.6</ele>
        <time>2017-10-28T13:24:56Z</time>
      </trkpt>
      <trkpt lat="62.613247969532" lon="18.010274444475">
        <ele>104.8</ele>
        <time>2017-10-28T13:24:57Z</time>
      </trkpt>
      <trkpt lat="62.613253585405" lon="18.010213843338">
        <ele>104.8</ele>
        <time>2017-10-28T13:24:58Z</time>
      </trkpt>
      <trkpt lat="62.613257860174" lon="18.010158187522">
        <ele>104.8</ele>
        <time>2017-10-28T13:24:59Z</time>
      </trkpt>
      <trkpt lat="62.613266325893" lon="18.010093479254">
        <ele>105</ele>
        <time>2017-10-28T13:25:00Z</time>
      </trkpt>
      <trkpt lat="62.613275545983" lon="18.010036314696">
        <ele>105</ele>
        <time>2017-10-28T13:25:01Z</time>
      </trkpt>
      <trkpt lat="62.613283005874" lon="18.009980910337">
        <ele>105.2</ele>
        <time>2017-10-28T13:25:02Z</time>
      </trkpt>
      <trkpt lat="62.613291136317" lon="18.009921231209">
        <ele>105.4</ele>
        <time>2017-10-28T13:25:03Z</time>
      </trkpt>
      <trkpt lat="62.613296333095" lon="18.009868928153">
        <ele>105.6</ele>
        <time>2017-10-28T13:25:04Z</time>
      </trkpt>
      <trkpt lat="62.613304212081" lon="18.009805058075">
        <ele>105.8</ele>
        <time>2017-10-28T13:25:05Z</time>
      </trkpt>
      <trkpt lat="62.613312426343" lon="18.009745881861">
        <ele>106</ele>
        <time>2017-10-28T13:25:06Z</time>
      </trkpt>
      <trkpt lat="62.613320305329" lon="18.009687376199">
        <ele>106.2</ele>
        <time>2017-10-28T13:25:07Z</time>
      </trkpt>
      <trkpt lat="62.613334554559" lon="18.009629541089">
        <ele>106.4</ele>
        <time>2017-10-28T13:25:08Z</time>
      </trkpt>
      <trkpt lat="62.613342936459" lon="18.009580506974">
        <ele>106.6</ele>
        <time>2017-10-28T13:25:09Z</time>
      </trkpt>
      <trkpt lat="62.613350815445" lon="18.009524264425">
        <ele>106.8</ele>
        <time>2017-10-28T13:25:10Z</time>
      </trkpt>
      <trkpt lat="62.613360370811" lon="18.009464082383">
        <ele>107</ele>
        <time>2017-10-28T13:25:11Z</time>
      </trkpt>
      <trkpt lat="62.613371937833" lon="18.009408426567">
        <ele>107.2</ele>
        <time>2017-10-28T13:25:12Z</time>
      </trkpt>
      <trkpt lat="62.61338560033" lon="18.009347071059">
        <ele>107.4</ele>
        <time>2017-10-28T13:25:13Z</time>
      </trkpt>
      <trkpt lat="62.613395071877" lon="18.009290241777">
        <ele>107.6</ele>
        <time>2017-10-28T13:25:14Z</time>
      </trkpt>
      <trkpt lat="62.613407225632" lon="18.009228550993">
        <ele>107.8</ele>
        <time>2017-10-28T13:25:15Z</time>
      </trkpt>
      <trkpt lat="62.613419547025" lon="18.00917348191">
        <ele>107.8</ele>
        <time>2017-10-28T13:25:16Z</time>
      </trkpt>
      <trkpt lat="62.613432287513" lon="18.009121681768">
        <ele>108</ele>
        <time>2017-10-28T13:25:17Z</time>
      </trkpt>
      <trkpt lat="62.613445447096" lon="18.009064265753">
        <ele>108.2</ele>
        <time>2017-10-28T13:25:18Z</time>
      </trkpt>
      <trkpt lat="62.613458439041" lon="18.009019003493">
        <ele>108.4</ele>
        <time>2017-10-28T13:25:19Z</time>
      </trkpt>
      <trkpt lat="62.613477465954" lon="18.008975333794">
        <ele>108.4</ele>
        <time>2017-10-28T13:25:20Z</time>
      </trkpt>
      <trkpt lat="62.613495738496" lon="18.00892370129">
        <ele>108.6</ele>
        <time>2017-10-28T13:25:21Z</time>
      </trkpt>
      <trkpt lat="62.613514094857" lon="18.008870560044">
        <ele>108.8</ele>
        <time>2017-10-28T13:25:22Z</time>
      </trkpt>
      <trkpt lat="62.613526248612" lon="18.008788585062">
        <ele>109</ele>
        <time>2017-10-28T13:25:23Z</time>
      </trkpt>
      <trkpt lat="62.613540916937" lon="18.008732091056">
        <ele>109.2</ele>
        <time>2017-10-28T13:25:24Z</time>
      </trkpt>
      <trkpt lat="62.613559692393" lon="18.008667382788">
        <ele>109.2</ele>
        <time>2017-10-28T13:25:25Z</time>
      </trkpt>
      <trkpt lat="62.61357754584" lon="18.008605356728">
        <ele>109.4</ele>
        <time>2017-10-28T13:25:26Z</time>
      </trkpt>
      <trkpt lat="62.613590034871" lon="18.008535703139">
        <ele>109.6</ele>
        <time>2017-10-28T13:25:27Z</time>
      </trkpt>
      <trkpt lat="62.613609061784" lon="18.008462780609">
        <ele>109.6</ele>
        <time>2017-10-28T13:25:28Z</time>
      </trkpt>
      <trkpt lat="62.613626579955" lon="18.008402263291">
        <ele>109.8</ele>
        <time>2017-10-28T13:25:29Z</time>
      </trkpt>
      <trkpt lat="62.613644098126" lon="18.008338979946">
        <ele>110</ele>
        <time>2017-10-28T13:25:30Z</time>
      </trkpt>
      <trkpt lat="62.613667735084" lon="18.008283575587">
        <ele>110.2</ele>
        <time>2017-10-28T13:25:31Z</time>
      </trkpt>
      <trkpt lat="62.61368651054" lon="18.008223309726">
        <ele>110.2</ele>
        <time>2017-10-28T13:25:32Z</time>
      </trkpt>
      <trkpt lat="62.613702939064" lon="18.008158936734">
        <ele>110.4</ele>
        <time>2017-10-28T13:25:33Z</time>
      </trkpt>
      <trkpt lat="62.613717272113" lon="18.008102945642">
        <ele>110.6</ele>
        <time>2017-10-28T13:25:34Z</time>
      </trkpt>
      <trkpt lat="62.613737221035" lon="18.008026502714">
        <ele>110.8</ele>
        <time>2017-10-28T13:25:35Z</time>
      </trkpt>
      <trkpt lat="62.613753984835" lon="18.007975121667">
        <ele>110.8</ele>
        <time>2017-10-28T13:25:36Z</time>
      </trkpt>
      <trkpt lat="62.613783656761" lon="18.007897337635">
        <ele>111</ele>
        <time>2017-10-28T13:25:37Z</time>
      </trkpt>
      <trkpt lat="62.613805701158" lon="18.007825756209">
        <ele>111</ele>
        <time>2017-10-28T13:25:38Z</time>
      </trkpt>
      <trkpt lat="62.61382984103" lon="18.007764987434">
        <ele>111</ele>
        <time>2017-10-28T13:25:39Z</time>
      </trkpt>
      <trkpt lat="62.613860937879" lon="18.007708996342">
        <ele>111.2</ele>
        <time>2017-10-28T13:25:40Z</time>
      </trkpt>
      <trkpt lat="62.613892956737" lon="18.007659459313">
        <ele>111.2</ele>
        <time>2017-10-28T13:25:41Z</time>
      </trkpt>
      <trkpt lat="62.6139245565" lon="18.007614699967">
        <ele>111.4</ele>
        <time>2017-10-28T13:25:42Z</time>
      </trkpt>
      <trkpt lat="62.613959257566" lon="18.007573293381">
        <ele>111.4</ele>
        <time>2017-10-28T13:25:43Z</time>
      </trkpt>
      <trkpt lat="62.613988007483" lon="18.00752979132">
        <ele>111.6</ele>
        <time>2017-10-28T13:25:44Z</time>
      </trkpt>
      <trkpt lat="62.614022373273" lon="18.007489809657">
        <ele>111.6</ele>
        <time>2017-10-28T13:25:45Z</time>
      </trkpt>
      <trkpt lat="62.614053973036" lon="18.007452258745">
        <ele>111.8</ele>
        <time>2017-10-28T13:25:46Z</time>
      </trkpt>
      <trkpt lat="62.614090015206" lon="18.007420491344">
        <ele>112</ele>
        <time>2017-10-28T13:25:47Z</time>
      </trkpt>
      <trkpt lat="62.614127901394" lon="18.007381766966">
        <ele>112.2</ele>
        <time>2017-10-28T13:25:48Z</time>
      </trkpt>
      <trkpt lat="62.61416511703" lon="18.007341030932">
        <ele>112.2</ele>
        <time>2017-10-28T13:25:49Z</time>
      </trkpt>
      <trkpt lat="62.614212474765" lon="18.007292415912">
        <ele>112.4</ele>
        <time>2017-10-28T13:25:50Z</time>
      </trkpt>
      <trkpt lat="62.614259245767" lon="18.007236005725">
        <ele>112.4</ele>
        <time>2017-10-28T13:25:51Z</time>
      </trkpt>
      <trkpt lat="62.614306016769" lon="18.007166771231">
        <ele>112.4</ele>
        <time>2017-10-28T13:25:52Z</time>
      </trkpt>
      <trkpt lat="62.614354631789" lon="18.007080353842">
        <ele>112.2</ele>
        <time>2017-10-28T13:25:53Z</time>
      </trkpt>
      <trkpt lat="62.614397379479" lon="18.006980693051">
        <ele>112</ele>
        <time>2017-10-28T13:25:54Z</time>
      </trkpt>
      <trkpt lat="62.614440546264" lon="18.006854126361">
        <ele>111.8</ele>
        <time>2017-10-28T13:25:55Z</time>
      </trkpt>
      <trkpt lat="62.614474912054" lon="18.006712304613">
        <ele>111.4</ele>
        <time>2017-10-28T13:25:56Z</time>
      </trkpt>
      <trkpt lat="62.614503997247" lon="18.006564950811">
        <ele>111</ele>
        <time>2017-10-28T13:25:57Z</time>
      </trkpt>
      <trkpt lat="62.61453308244" lon="18.006391194024">
        <ele>110.6</ele>
        <time>2017-10-28T13:25:58Z</time>
      </trkpt>
      <trkpt lat="62.614561748538" lon="18.006219448893">
        <ele>110.2</ele>
        <time>2017-10-28T13:25:59Z</time>
      </trkpt>
      <trkpt lat="62.614594689405" lon="18.00601769656">
        <ele>109.8</ele>
        <time>2017-10-28T13:26:00Z</time>
      </trkpt>
      <trkpt lat="62.614621762942" lon="18.005826840697">
        <ele>109.4</ele>
        <time>2017-10-28T13:26:01Z</time>
      </trkpt>
      <trkpt lat="62.614650596678" lon="18.005635146644">
        <ele>108.6</ele>
        <time>2017-10-28T13:26:02Z</time>
      </trkpt>
      <trkpt lat="62.614680436242" lon="18.00544688917">
        <ele>107.6</ele>
        <time>2017-10-28T13:26:03Z</time>
      </trkpt>
      <trkpt lat="62.614707845055" lon="18.005280676093">
        <ele>106.6</ele>
        <time>2017-10-28T13:26:04Z</time>
      </trkpt>
      <trkpt lat="62.61474430632" lon="18.00507473281">
        <ele>105.6</ele>
        <time>2017-10-28T13:26:05Z</time>
      </trkpt>
      <trkpt lat="62.614777498644" lon="18.004877422884">
        <ele>104.6</ele>
        <time>2017-10-28T13:26:06Z</time>
      </trkpt>
      <trkpt lat="62.614810439511" lon="18.00469419455">
        <ele>103.6</ele>
        <time>2017-10-28T13:26:07Z</time>
      </trkpt>
      <trkpt lat="62.614848409518" lon="18.004517839374">
        <ele>103</ele>
        <time>2017-10-28T13:26:08Z</time>
      </trkpt>
      <trkpt lat="62.614884954602" lon="18.004368893011">
        <ele>102.4</ele>
        <time>2017-10-28T13:26:09Z</time>
      </trkpt>
      <trkpt lat="62.614930719776" lon="18.004201422649">
        <ele>102</ele>
        <time>2017-10-28T13:26:10Z</time>
      </trkpt>
      <trkpt lat="62.61498235228" lon="18.004039065246">
        <ele>101.6</ele>
        <time>2017-10-28T13:26:11Z</time>
      </trkpt>
      <trkpt lat="62.615034068603" lon="18.003907385597">
        <ele>101.4</ele>
        <time>2017-10-28T13:26:12Z</time>
      </trkpt>
      <trkpt lat="62.615089556781" lon="18.003765396211">
        <ele>101</ele>
        <time>2017-10-28T13:26:13Z</time>
      </trkpt>
      <trkpt lat="62.615139596724" lon="18.003638326607">
        <ele>100.6</ele>
        <time>2017-10-28T13:26:14Z</time>
      </trkpt>
      <trkpt lat="62.615191396866" lon="18.003505808768">
        <ele>100.4</ele>
        <time>2017-10-28T13:26:15Z</time>
      </trkpt>
      <trkpt lat="62.615241017714" lon="18.003387204883">
        <ele>100.4</ele>
        <time>2017-10-28T13:26:16Z</time>
      </trkpt>
      <trkpt lat="62.615290219467" lon="18.003266002609">
        <ele>100.2</ele>
        <time>2017-10-28T13:26:17Z</time>
      </trkpt>
      <trkpt lat="62.615333721528" lon="18.00314521943">
        <ele>100</ele>
        <time>2017-10-28T13:26:18Z</time>
      </trkpt>
      <trkpt lat="62.615373619372" lon="18.003035165083">
        <ele>100</ele>
        <time>2017-10-28T13:26:19Z</time>
      </trkpt>
      <trkpt lat="62.615415528872" lon="18.002911448239">
        <ele>100</ele>
        <time>2017-10-28T13:26:20Z</time>
      </trkpt>
      <trkpt lat="62.615453498879" lon="18.002804579014">
        <ele>100.2</ele>
        <time>2017-10-28T13:26:21Z</time>
      </trkpt>
      <trkpt lat="62.61548275171" lon="18.002688238242">
        <ele>100</ele>
        <time>2017-10-28T13:26:22Z</time>
      </trkpt>
      <trkpt lat="62.615511836903" lon="18.002574579678">
        <ele>99.8</ele>
        <time>2017-10-28T13:26:23Z</time>
      </trkpt>
      <trkpt lat="62.615540670639" lon="18.002459831467">
        <ele>100</ele>
        <time>2017-10-28T13:26:24Z</time>
      </trkpt>
      <trkpt lat="62.615566319253" lon="18.002334019148">
        <ele>99.8</ele>
        <time>2017-10-28T13:26:25Z</time>
      </trkpt>
      <trkpt lat="62.615584843252" lon="18.002213487426">
        <ele>99.4</ele>
        <time>2017-10-28T13:26:26Z</time>
      </trkpt>
      <trkpt lat="62.615599511577" lon="18.002106115287">
        <ele>99.4</ele>
        <time>2017-10-28T13:26:27Z</time>
      </trkpt>
      <trkpt lat="62.615611916789" lon="18.001985667384">
        <ele>99.2</ele>
        <time>2017-10-28T13:26:28Z</time>
      </trkpt>
      <trkpt lat="62.615620550146" lon="18.001868572241">
        <ele>99</ele>
        <time>2017-10-28T13:26:29Z</time>
      </trkpt>
      <trkpt lat="62.615632117168" lon="18.001737227868">
        <ele>99</ele>
        <time>2017-10-28T13:26:30Z</time>
      </trkpt>
      <trkpt lat="62.615645109113" lon="18.001619043078">
        <ele>99.4</ele>
        <time>2017-10-28T13:26:31Z</time>
      </trkpt>
      <trkpt lat="62.615661202361" lon="18.00150236703">
        <ele>99.4</ele>
        <time>2017-10-28T13:26:32Z</time>
      </trkpt>
      <trkpt lat="62.615671847374" lon="18.001397509461">
        <ele>99.8</ele>
        <time>2017-10-28T13:26:33Z</time>
      </trkpt>
      <trkpt lat="62.615683246758" lon="18.001302542534">
        <ele>99.8</ele>
        <time>2017-10-28T13:26:34Z</time>
      </trkpt>
      <trkpt lat="62.615701938395" lon="18.001189386884">
        <ele>100</ele>
        <time>2017-10-28T13:26:35Z</time>
      </trkpt>
      <trkpt lat="62.615720127118" lon="18.00108746298">
        <ele>100</ele>
        <time>2017-10-28T13:26:36Z</time>
      </trkpt>
      <trkpt lat="62.615739405488" lon="18.000983108325">
        <ele>100</ele>
        <time>2017-10-28T13:26:37Z</time>
      </trkpt>
      <trkpt lat="62.615761533704" lon="18.000879256584">
        <ele>100</ele>
        <time>2017-10-28T13:26:38Z</time>
      </trkpt>
      <trkpt lat="62.615780895893" lon="18.000779260517">
        <ele>100</ele>
        <time>2017-10-28T13:26:39Z</time>
      </trkpt>
      <trkpt lat="62.615803024109" lon="18.00066752979">
        <ele>99.8</ele>
        <time>2017-10-28T13:26:40Z</time>
      </trkpt>
      <trkpt lat="62.615830181465" lon="18.00055856509">
        <ele>99.6</ele>
        <time>2017-10-28T13:26:41Z</time>
      </trkpt>
      <trkpt lat="62.61585742264" lon="18.000459407213">
        <ele>99.4</ele>
        <time>2017-10-28T13:26:42Z</time>
      </trkpt>
      <trkpt lat="62.615889609136" lon="18.000348598495">
        <ele>99.2</ele>
        <time>2017-10-28T13:26:43Z</time>
      </trkpt>
      <trkpt lat="62.615916766492" lon="18.000248853885">
        <ele>99</ele>
        <time>2017-10-28T13:26:44Z</time>
      </trkpt>
      <trkpt lat="62.615949288264" lon="18.000135111502">
        <ele>99</ele>
        <time>2017-10-28T13:26:45Z</time>
      </trkpt>
      <trkpt lat="62.615976613258" lon="18.00002882901">
        <ele>99</ele>
        <time>2017-10-28T13:26:46Z</time>
      </trkpt>
      <trkpt lat="62.616004022071" lon="17.999918774663">
        <ele>98.8</ele>
        <time>2017-10-28T13:26:47Z</time>
      </trkpt>
      <trkpt lat="62.616031263246" lon="17.999808971773">
        <ele>98.6</ele>
        <time>2017-10-28T13:26:48Z</time>
      </trkpt>
      <trkpt lat="62.616055319299" lon="17.999711238819">
        <ele>98.4</ele>
        <time>2017-10-28T13:26:49Z</time>
      </trkpt>
      <trkpt lat="62.616083398664" lon="17.999597328798">
        <ele>98.2</ele>
        <time>2017-10-28T13:26:50Z</time>
      </trkpt>
      <trkpt lat="62.616108209088" lon="17.999494399066">
        <ele>98</ele>
        <time>2017-10-28T13:26:51Z</time>
      </trkpt>
      <trkpt lat="62.616127403639" lon="17.999395241189">
        <ele>98</ele>
        <time>2017-10-28T13:26:52Z</time>
      </trkpt>
      <trkpt lat="62.616146682009" lon="17.999289293973">
        <ele>98.2</ele>
        <time>2017-10-28T13:26:53Z</time>
      </trkpt>
      <trkpt lat="62.616162607619" lon="17.999195081417">
        <ele>98.2</ele>
        <time>2017-10-28T13:26:54Z</time>
      </trkpt>
      <trkpt lat="62.616179036143" lon="17.999090391486">
        <ele>98</ele>
        <time>2017-10-28T13:26:55Z</time>
      </trkpt>
      <trkpt lat="62.61619688959" lon="17.998996765663">
        <ele>98</ele>
        <time>2017-10-28T13:26:56Z</time>
      </trkpt>
      <trkpt lat="62.616216922331" lon="17.998914623043">
        <ele>98</ele>
        <time>2017-10-28T13:26:57Z</time>
      </trkpt>
      <trkpt lat="62.616236200701" lon="17.99882183541">
        <ele>98</ele>
        <time>2017-10-28T13:26:58Z</time>
      </trkpt>
      <trkpt lat="62.616252461587" lon="17.998733154908">
        <ele>98</ele>
        <time>2017-10-28T13:26:59Z</time>
      </trkpt>
      <trkpt lat="62.616268554835" lon="17.998629722262">
        <ele>98</ele>
        <time>2017-10-28T13:27:00Z</time>
      </trkpt>
      <trkpt lat="62.616284145169" lon="17.998534000964">
        <ele>98.2</ele>
        <time>2017-10-28T13:27:01Z</time>
      </trkpt>
      <trkpt lat="62.616300741331" lon="17.998437273838">
        <ele>98.4</ele>
        <time>2017-10-28T13:27:02Z</time>
      </trkpt>
      <trkpt lat="62.616317756588" lon="17.998344150929">
        <ele>98.4</ele>
        <time>2017-10-28T13:27:03Z</time>
      </trkpt>
      <trkpt lat="62.616334017474" lon="17.998264774336">
        <ele>98.4</ele>
        <time>2017-10-28T13:27:04Z</time>
      </trkpt>
      <trkpt lat="62.616352876749" lon="17.998154887627">
        <ele>98.4</ele>
        <time>2017-10-28T13:27:05Z</time>
      </trkpt>
      <trkpt lat="62.616367712712" lon="17.998057909044">
        <ele>98.4</ele>
        <time>2017-10-28T13:27:06Z</time>
      </trkpt>
      <trkpt lat="62.61638464415" lon="17.997963109755">
        <ele>98.4</ele>
        <time>2017-10-28T13:27:07Z</time>
      </trkpt>
      <trkpt lat="62.616402665235" lon="17.997867220819">
        <ele>98.6</ele>
        <time>2017-10-28T13:27:08Z</time>
      </trkpt>
      <trkpt lat="62.616424374356" lon="17.997784323828">
        <ele>98.6</ele>
        <time>2017-10-28T13:27:09Z</time>
      </trkpt>
      <trkpt lat="62.616444239459" lon="17.997690446548">
        <ele>98.6</ele>
        <time>2017-10-28T13:27:10Z</time>
      </trkpt>
      <trkpt lat="62.616462176725" lon="17.997594389974">
        <ele>98.6</ele>
        <time>2017-10-28T13:27:11Z</time>
      </trkpt>
      <trkpt lat="62.616479443439" lon="17.997507385852">
        <ele>98.6</ele>
        <time>2017-10-28T13:27:12Z</time>
      </trkpt>
      <trkpt lat="62.616499057085" lon="17.997412251287">
        <ele>98.6</ele>
        <time>2017-10-28T13:27:13Z</time>
      </trkpt>
      <trkpt lat="62.616517832541" lon="17.997330863038">
        <ele>98.6</ele>
        <time>2017-10-28T13:27:14Z</time>
      </trkpt>
      <trkpt lat="62.616538452015" lon="17.997238410681">
        <ele>98.6</ele>
        <time>2017-10-28T13:27:15Z</time>
      </trkpt>
      <trkpt lat="62.616555802548" lon="17.997151238921">
        <ele>98.8</ele>
        <time>2017-10-28T13:27:16Z</time>
      </trkpt>
      <trkpt lat="62.616576254384" lon="17.997063396609">
        <ele>99</ele>
        <time>2017-10-28T13:27:17Z</time>
      </trkpt>
      <trkpt lat="62.616598466419" lon="17.996978739419">
        <ele>99</ele>
        <time>2017-10-28T13:27:18Z</time>
      </trkpt>
      <trkpt lat="62.61661849916" lon="17.99690908583">
        <ele>99.2</ele>
        <time>2017-10-28T13:27:19Z</time>
      </trkpt>
      <trkpt lat="62.616646578525" lon="17.996820572966">
        <ele>99.2</ele>
        <time>2017-10-28T13:27:20Z</time>
      </trkpt>
      <trkpt lat="62.616668958198" lon="17.996744046219">
        <ele>99.2</ele>
        <time>2017-10-28T13:27:21Z</time>
      </trkpt>
      <trkpt lat="62.616689493853" lon="17.996670620775">
        <ele>99.4</ele>
        <time>2017-10-28T13:27:22Z</time>
      </trkpt>
      <trkpt lat="62.616711454431" lon="17.996594094028">
        <ele>99.2</ele>
        <time>2017-10-28T13:27:23Z</time>
      </trkpt>
      <trkpt lat="62.61673081662" lon="17.996525362448">
        <ele>99.4</ele>
        <time>2017-10-28T13:27:24Z</time>
      </trkpt>
      <trkpt lat="62.616752106646" lon="17.996452356099">
        <ele>99.4</ele>
        <time>2017-10-28T13:27:25Z</time>
      </trkpt>
      <trkpt lat="62.616769205722" lon="17.996385300899">
        <ele>99.6</ele>
        <time>2017-10-28T13:27:26Z</time>
      </trkpt>
      <trkpt lat="62.616787142988" lon="17.996320927907">
        <ele>99.6</ele>
        <time>2017-10-28T13:27:27Z</time>
      </trkpt>
      <trkpt lat="62.616807762462" lon="17.996252615422">
        <ele>99.8</ele>
        <time>2017-10-28T13:27:28Z</time>
      </trkpt>
      <trkpt lat="62.61682804666" lon="17.996188410068">
        <ele>99.8</ele>
        <time>2017-10-28T13:27:29Z</time>
      </trkpt>
      <trkpt lat="62.616851180704" lon="17.996117163918">
        <ele>100</ele>
        <time>2017-10-28T13:27:30Z</time>
      </trkpt>
      <trkpt lat="62.616872303092" lon="17.996050863089">
        <ele>100.2</ele>
        <time>2017-10-28T13:27:31Z</time>
      </trkpt>
      <trkpt lat="62.616892419652" lon="17.995982802061">
        <ele>100.4</ele>
        <time>2017-10-28T13:27:32Z</time>
      </trkpt>
      <trkpt lat="62.616913709678" lon="17.99591583068">
        <ele>100.4</ele>
        <time>2017-10-28T13:27:33Z</time>
      </trkpt>
      <trkpt lat="62.616930473478" lon="17.995857408837">
        <ele>100.6</ele>
        <time>2017-10-28T13:27:34Z</time>
      </trkpt>
      <trkpt lat="62.616952769332" lon="17.995772751647">
        <ele>100.6</ele>
        <time>2017-10-28T13:27:35Z</time>
      </trkpt>
      <trkpt lat="62.61697137715" lon="17.995695302891">
        <ele>100.8</ele>
        <time>2017-10-28T13:27:36Z</time>
      </trkpt>
      <trkpt lat="62.61699149371" lon="17.995621290714">
        <ele>101</ele>
        <time>2017-10-28T13:27:37Z</time>
      </trkpt>
      <trkpt lat="62.617012616098" lon="17.995549374012">
        <ele>101</ele>
        <time>2017-10-28T13:27:38Z</time>
      </trkpt>
      <trkpt lat="62.617030804821" lon="17.995478379319">
        <ele>101.2</ele>
        <time>2017-10-28T13:27:39Z</time>
      </trkpt>
      <trkpt lat="62.617052849218" lon="17.995400176192">
        <ele>101.6</ele>
        <time>2017-10-28T13:27:40Z</time>
      </trkpt>
      <trkpt lat="62.617075647986" lon="17.995326499291">
        <ele>101.8</ele>
        <time>2017-10-28T13:27:41Z</time>
      </trkpt>
      <trkpt lat="62.617092160329" lon="17.995250224001">
        <ele>102</ele>
        <time>2017-10-28T13:27:42Z</time>
      </trkpt>
      <trkpt lat="62.617110768147" lon="17.995158274558">
        <ele>102.2</ele>
        <time>2017-10-28T13:27:43Z</time>
      </trkpt>
      <trkpt lat="62.617125101196" lon="17.995078227413">
        <ele>102.2</ele>
        <time>2017-10-28T13:27:44Z</time>
      </trkpt>
      <trkpt lat="62.617140188616" lon="17.994982673753">
        <ele>102.4</ele>
        <time>2017-10-28T13:27:45Z</time>
      </trkpt>
      <trkpt lat="62.617152845285" lon="17.994895334355">
        <ele>102.4</ele>
        <time>2017-10-28T13:27:46Z</time>
      </trkpt>
      <trkpt lat="62.617171201646" lon="17.994813527011">
        <ele>102.4</ele>
        <time>2017-10-28T13:27:47Z</time>
      </trkpt>
      <trkpt lat="62.617192240215" lon="17.994733479866">
        <ele>102.6</ele>
        <time>2017-10-28T13:27:48Z</time>
      </trkpt>
      <trkpt lat="62.617208333463" lon="17.994658042766">
        <ele>102.6</ele>
        <time>2017-10-28T13:27:49Z</time>
      </trkpt>
      <trkpt lat="62.617233562982" lon="17.994555113034">
        <ele>102.6</ele>
        <time>2017-10-28T13:27:50Z</time>
      </trkpt>
      <trkpt lat="62.617254266275" lon="17.994464337057">
        <ele>102.6</ele>
        <time>2017-10-28T13:27:51Z</time>
      </trkpt>
      <trkpt lat="62.617274299016" lon="17.994378422582">
        <ele>102.6</ele>
        <time>2017-10-28T13:27:52Z</time>
      </trkpt>
      <trkpt lat="62.617292655377" lon="17.994283707112">
        <ele>102.6</ele>
        <time>2017-10-28T13:27:53Z</time>
      </trkpt>
      <trkpt lat="62.617310341186" lon="17.994191590031">
        <ele>102.6</ele>
        <time>2017-10-28T13:27:54Z</time>
      </trkpt>
      <trkpt lat="62.617332050307" lon="17.994094192353">
        <ele>102.6</ele>
        <time>2017-10-28T13:27:55Z</time>
      </trkpt>
      <trkpt lat="62.617352669781" lon="17.994001237082">
        <ele>102.6</ele>
        <time>2017-10-28T13:27:56Z</time>
      </trkpt>
      <trkpt lat="62.61736867921" lon="17.993908868544">
        <ele>102.6</ele>
        <time>2017-10-28T13:27:57Z</time>
      </trkpt>
      <trkpt lat="62.617389131046" lon="17.993813817798">
        <ele>102.8</ele>
        <time>2017-10-28T13:27:58Z</time>
      </trkpt>
      <trkpt lat="62.617408325597" lon="17.99372312564">
        <ele>102.8</ele>
        <time>2017-10-28T13:27:59Z</time>
      </trkpt>
      <trkpt lat="62.61742986708" lon="17.993618603347">
        <ele>103</ele>
        <time>2017-10-28T13:28:00Z</time>
      </trkpt>
      <trkpt lat="62.617450486554" lon="17.993522127678">
        <ele>103.2</ele>
        <time>2017-10-28T13:28:01Z</time>
      </trkpt>
      <trkpt lat="62.617470016381" lon="17.993425484371">
        <ele>103.2</ele>
        <time>2017-10-28T13:28:02Z</time>
      </trkpt>
      <trkpt lat="62.617491976959" lon="17.99333169091">
        <ele>103.2</ele>
        <time>2017-10-28T13:28:03Z</time>
      </trkpt>
      <trkpt lat="62.617510417139" lon="17.993253655421">
        <ele>103.2</ele>
        <time>2017-10-28T13:28:04Z</time>
      </trkpt>
      <trkpt lat="62.617533215907" lon="17.993142427608">
        <ele>103.4</ele>
        <time>2017-10-28T13:28:05Z</time>
      </trkpt>
      <trkpt lat="62.61755140463" lon="17.993037067125">
        <ele>103.4</ele>
        <time>2017-10-28T13:28:06Z</time>
      </trkpt>
      <trkpt lat="62.617571772647" lon="17.99293941799">
        <ele>103.4</ele>
        <time>2017-10-28T13:28:07Z</time>
      </trkpt>
      <trkpt lat="62.617591973026" lon="17.992842774683">
        <ele>103.6</ele>
        <time>2017-10-28T13:28:08Z</time>
      </trkpt>
      <trkpt lat="62.617613682147" lon="17.992754764733">
        <ele>103.6</ele>
        <time>2017-10-28T13:28:09Z</time>
      </trkpt>
      <trkpt lat="62.617634217802" lon="17.992653343743">
        <ele>103.8</ele>
        <time>2017-10-28T13:28:10Z</time>
      </trkpt>
      <trkpt lat="62.617653831448" lon="17.992554185866">
        <ele>103.8</ele>
        <time>2017-10-28T13:28:11Z</time>
      </trkpt>
      <trkpt lat="62.617672606904" lon="17.992454608894">
        <ele>103.8</ele>
        <time>2017-10-28T13:28:12Z</time>
      </trkpt>
      <trkpt lat="62.617691214722" lon="17.992358971415">
        <ele>104</ele>
        <time>2017-10-28T13:28:13Z</time>
      </trkpt>
      <trkpt lat="62.617709068169" lon="17.992272721664">
        <ele>104</ele>
        <time>2017-10-28T13:28:14Z</time>
      </trkpt>
      <trkpt lat="62.617726921616" lon="17.992170965398">
        <ele>104</ele>
        <time>2017-10-28T13:28:15Z</time>
      </trkpt>
      <trkpt lat="62.617743685416" lon="17.992078680679">
        <ele>104</ele>
        <time>2017-10-28T13:28:16Z</time>
      </trkpt>
      <trkpt lat="62.617761874139" lon="17.991981534458">
        <ele>104.2</ele>
        <time>2017-10-28T13:28:17Z</time>
      </trkpt>
      <trkpt lat="62.617782661251" lon="17.991888830644">
        <ele>104.2</ele>
        <time>2017-10-28T13:28:18Z</time>
      </trkpt>
      <trkpt lat="62.617800263241" lon="17.991809286413">
        <ele>104.2</ele>
        <time>2017-10-28T13:28:19Z</time>
      </trkpt>
      <trkpt lat="62.617822475276" lon="17.991695376392">
        <ele>104.4</ele>
        <time>2017-10-28T13:28:20Z</time>
      </trkpt>
      <trkpt lat="62.617836724506" lon="17.991597308162">
        <ele>104.4</ele>
        <time>2017-10-28T13:28:21Z</time>
      </trkpt>
      <trkpt lat="62.617856086695" lon="17.991500748674">
        <ele>104.6</ele>
        <time>2017-10-28T13:28:22Z</time>
      </trkpt>
      <trkpt lat="62.617875951798" lon="17.991400836426">
        <ele>104.6</ele>
        <time>2017-10-28T13:28:23Z</time>
      </trkpt>
      <trkpt lat="62.617894643435" lon="17.991304779852">
        <ele>104.8</ele>
        <time>2017-10-28T13:28:24Z</time>
      </trkpt>
      <trkpt lat="62.617915095271" lon="17.991200928111">
        <ele>104.8</ele>
        <time>2017-10-28T13:28:25Z</time>
      </trkpt>
      <trkpt lat="62.617933870727" lon="17.991102440786">
        <ele>104.8</ele>
        <time>2017-10-28T13:28:26Z</time>
      </trkpt>
      <trkpt lat="62.617955663667" lon="17.991012000085">
        <ele>104.8</ele>
        <time>2017-10-28T13:28:27Z</time>
      </trkpt>
      <trkpt lat="62.61797636696" lon="17.990922313755">
        <ele>105</ele>
        <time>2017-10-28T13:28:28Z</time>
      </trkpt>
      <trkpt lat="62.617995729149" lon="17.990833381796">
        <ele>105</ele>
        <time>2017-10-28T13:28:29Z</time>
      </trkpt>
      <trkpt lat="62.618014588424" lon="17.990726680209">
        <ele>105.2</ele>
        <time>2017-10-28T13:28:30Z</time>
      </trkpt>
      <trkpt lat="62.618031771319" lon="17.990630455997">
        <ele>105.2</ele>
        <time>2017-10-28T13:28:31Z</time>
      </trkpt>
      <trkpt lat="62.618051217327" lon="17.99053800364">
        <ele>105.4</ele>
        <time>2017-10-28T13:28:32Z</time>
      </trkpt>
      <trkpt lat="62.61806940605" lon="17.990449826052">
        <ele>105.4</ele>
        <time>2017-10-28T13:28:33Z</time>
      </trkpt>
      <trkpt lat="62.618085750755" lon="17.990378663721">
        <ele>105.4</ele>
        <time>2017-10-28T13:28:34Z</time>
      </trkpt>
      <trkpt lat="62.618106621686" lon="17.990276655998">
        <ele>105.6</ele>
        <time>2017-10-28T13:28:35Z</time>
      </trkpt>
      <trkpt lat="62.61812053564" lon="17.990210187531">
        <ele>105.6</ele>
        <time>2017-10-28T13:28:36Z</time>
      </trkpt>
      <trkpt lat="62.618142496218" lon="17.990101474288">
        <ele>105.8</ele>
        <time>2017-10-28T13:28:37Z</time>
      </trkpt>
      <trkpt lat="62.618159762932" lon="17.990013464338">
        <ele>105.8</ele>
        <time>2017-10-28T13:28:38Z</time>
      </trkpt>
      <trkpt lat="62.618174515076" lon="17.989931489356">
        <ele>105.8</ele>
        <time>2017-10-28T13:28:39Z</time>
      </trkpt>
      <trkpt lat="62.618192117066" lon="17.989842808854">
        <ele>105.8</ele>
        <time>2017-10-28T13:28:40Z</time>
      </trkpt>
      <trkpt lat="62.618208377952" lon="17.989756140008">
        <ele>105.8</ele>
        <time>2017-10-28T13:28:41Z</time>
      </trkpt>
      <trkpt lat="62.618224890295" lon="17.98967047699">
        <ele>105.8</ele>
        <time>2017-10-28T13:28:42Z</time>
      </trkpt>
      <trkpt lat="62.618240145353" lon="17.989583053773">
        <ele>105.8</ele>
        <time>2017-10-28T13:28:43Z</time>
      </trkpt>
      <trkpt lat="62.618256992972" lon="17.989504850646">
        <ele>106</ele>
        <time>2017-10-28T13:28:44Z</time>
      </trkpt>
      <trkpt lat="62.618277193351" lon="17.989417175972">
        <ele>106.2</ele>
        <time>2017-10-28T13:28:45Z</time>
      </trkpt>
      <trkpt lat="62.618296136445" lon="17.989338050836">
        <ele>106.2</ele>
        <time>2017-10-28T13:28:46Z</time>
      </trkpt>
      <trkpt lat="62.618314073711" lon="17.989251633447">
        <ele>106.2</ele>
        <time>2017-10-28T13:28:47Z</time>
      </trkpt>
      <trkpt lat="62.618328993493" lon="17.989163455859">
        <ele>106.2</ele>
        <time>2017-10-28T13:28:48Z</time>
      </trkpt>
      <trkpt lat="62.618342236895" lon="17.989089862777">
        <ele>106.2</ele>
        <time>2017-10-28T13:28:49Z</time>
      </trkpt>
      <trkpt lat="62.618363275464" lon="17.988990872538">
        <ele>106.2</ele>
        <time>2017-10-28T13:28:50Z</time>
      </trkpt>
      <trkpt lat="62.618380206902" lon="17.988903449321">
        <ele>106.2</ele>
        <time>2017-10-28T13:28:51Z</time>
      </trkpt>
      <trkpt lat="62.618398730901" lon="17.988819797959">
        <ele>106.2</ele>
        <time>2017-10-28T13:28:52Z</time>
      </trkpt>
      <trkpt lat="62.618416751986" lon="17.988730363086">
        <ele>106.2</ele>
        <time>2017-10-28T13:28:53Z</time>
      </trkpt>
      <trkpt lat="62.61843150413" lon="17.988645873534">
        <ele>106.2</ele>
        <time>2017-10-28T13:28:54Z</time>
      </trkpt>
      <trkpt lat="62.618450028129" lon="17.988555768109">
        <ele>106.4</ele>
        <time>2017-10-28T13:28:55Z</time>
      </trkpt>
      <trkpt lat="62.61847006087" lon="17.988465914141">
        <ele>106.4</ele>
        <time>2017-10-28T13:28:56Z</time>
      </trkpt>
      <trkpt lat="62.618489003964" lon="17.988376898363">
        <ele>106.6</ele>
        <time>2017-10-28T13:28:57Z</time>
      </trkpt>
      <trkpt lat="62.618510210171" lon="17.988288553137">
        <ele>106.6</ele>
        <time>2017-10-28T13:28:58Z</time>
      </trkpt>
      <trkpt lat="62.618531332559" lon="17.988202722481">
        <ele>106.8</ele>
        <time>2017-10-28T13:28:59Z</time>
      </trkpt>
      <trkpt lat="62.618553376956" lon="17.988097110541">
        <ele>106.8</ele>
        <time>2017-10-28T13:29:00Z</time>
      </trkpt>
      <trkpt lat="62.618575337534" lon="17.987998539397">
        <ele>106.8</ele>
        <time>2017-10-28T13:29:01Z</time>
      </trkpt>
      <trkpt lat="62.618597884845" lon="17.987900471167">
        <ele>106.8</ele>
        <time>2017-10-28T13:29:02Z</time>
      </trkpt>
      <trkpt lat="62.618619426328" lon="17.987799469272">
        <ele>106.8</ele>
        <time>2017-10-28T13:29:03Z</time>
      </trkpt>
      <trkpt lat="62.618636106309" lon="17.987714895901">
        <ele>106.8</ele>
        <time>2017-10-28T13:29:04Z</time>
      </trkpt>
      <trkpt lat="62.618658905077" lon="17.987595034731">
        <ele>106.8</ele>
        <time>2017-10-28T13:29:05Z</time>
      </trkpt>
      <trkpt lat="62.618682374397" lon="17.987492440275">
        <ele>106.8</ele>
        <time>2017-10-28T13:29:06Z</time>
      </trkpt>
      <trkpt lat="62.618706011355" lon="17.987389845819">
        <ele>106.8</ele>
        <time>2017-10-28T13:29:07Z</time>
      </trkpt>
      <trkpt lat="62.618727552838" lon="17.987285155888">
        <ele>106.8</ele>
        <time>2017-10-28T13:29:08Z</time>
      </trkpt>
      <trkpt lat="62.618748507588" lon="17.987185746554">
        <ele>106.8</ele>
        <time>2017-10-28T13:29:09Z</time>
      </trkpt>
      <trkpt lat="62.618770719623" lon="17.987072674723">
        <ele>106.6</ele>
        <time>2017-10-28T13:29:10Z</time>
      </trkpt>
      <trkpt lat="62.618793518391" lon="17.986961866005">
        <ele>106.6</ele>
        <time>2017-10-28T13:29:11Z</time>
      </trkpt>
      <trkpt lat="62.618815562788" lon="17.986851224925">
        <ele>106.6</ele>
        <time>2017-10-28T13:29:12Z</time>
      </trkpt>
      <trkpt lat="62.618838193918" lon="17.986739578017">
        <ele>106.4</ele>
        <time>2017-10-28T13:29:13Z</time>
      </trkpt>
      <trkpt lat="62.618861327962" lon="17.986635810095">
        <ele>106.4</ele>
        <time>2017-10-28T13:29:14Z</time>
      </trkpt>
      <trkpt lat="62.618884713463" lon="17.986516954753">
        <ele>106.2</ele>
        <time>2017-10-28T13:29:15Z</time>
      </trkpt>
      <trkpt lat="62.618908518059" lon="17.9864090797">
        <ele>106.2</ele>
        <time>2017-10-28T13:29:16Z</time>
      </trkpt>
      <trkpt lat="62.618931819741" lon="17.986296343145">
        <ele>106</ele>
        <time>2017-10-28T13:29:17Z</time>
      </trkpt>
      <trkpt lat="62.618956630165" lon="17.986186540255">
        <ele>106</ele>
        <time>2017-10-28T13:29:18Z</time>
      </trkpt>
      <trkpt lat="62.618976243811" lon="17.986096937744">
        <ele>105.8</ele>
        <time>2017-10-28T13:29:19Z</time>
      </trkpt>
      <trkpt lat="62.619001138054" lon="17.985969616683">
        <ele>105.6</ele>
        <time>2017-10-28T13:29:20Z</time>
      </trkpt>
      <trkpt lat="62.619020332605" lon="17.985863585648">
        <ele>105.4</ele>
        <time>2017-10-28T13:29:21Z</time>
      </trkpt>
      <trkpt lat="62.619040616803" lon="17.985759985364">
        <ele>105.4</ele>
        <time>2017-10-28T13:29:22Z</time>
      </trkpt>
      <trkpt lat="62.619065091951" lon="17.985658480555">
        <ele>105.2</ele>
        <time>2017-10-28T13:29:23Z</time>
      </trkpt>
      <trkpt lat="62.619086801072" lon="17.985565106189">
        <ele>105.2</ele>
        <time>2017-10-28T13:29:24Z</time>
      </trkpt>
      <trkpt lat="62.619108677831" lon="17.985459242792">
        <ele>105.2</ele>
        <time>2017-10-28T13:29:25Z</time>
      </trkpt>
      <trkpt lat="62.619127872382" lon="17.985361928933">
        <ele>105.2</ele>
        <time>2017-10-28T13:29:26Z</time>
      </trkpt>
      <trkpt lat="62.619149246227" lon="17.985265369445">
        <ele>105.2</ele>
        <time>2017-10-28T13:29:27Z</time>
      </trkpt>
      <trkpt lat="62.619170200977" lon="17.985168223224">
        <ele>105</ele>
        <time>2017-10-28T13:29:28Z</time>
      </trkpt>
      <trkpt lat="62.619190820451" lon="17.985070406451">
        <ele>105</ele>
        <time>2017-10-28T13:29:29Z</time>
      </trkpt>
      <trkpt lat="62.619213703038" lon="17.984958759543">
        <ele>105</ele>
        <time>2017-10-28T13:29:30Z</time>
      </trkpt>
      <trkpt lat="62.61923616653" lon="17.984857841467">
        <ele>105.2</ele>
        <time>2017-10-28T13:29:31Z</time>
      </trkpt>
      <trkpt lat="62.619257540375" lon="17.98475365445">
        <ele>105.2</ele>
        <time>2017-10-28T13:29:32Z</time>
      </trkpt>
      <trkpt lat="62.619279165677" lon="17.984650892356">
        <ele>105.2</ele>
        <time>2017-10-28T13:29:33Z</time>
      </trkpt>
      <trkpt lat="62.619298611685" lon="17.984569001193">
        <ele>105.2</ele>
        <time>2017-10-28T13:29:34Z</time>
      </trkpt>
      <trkpt lat="62.619326104317" lon="17.984450984041">
        <ele>105.2</ele>
        <time>2017-10-28T13:29:35Z</time>
      </trkpt>
      <trkpt lat="62.619350830922" lon="17.984345958834">
        <ele>105</ele>
        <time>2017-10-28T13:29:36Z</time>
      </trkpt>
      <trkpt lat="62.619375557527" lon="17.984240263075">
        <ele>105</ele>
        <time>2017-10-28T13:29:37Z</time>
      </trkpt>
      <trkpt lat="62.61939877539" lon="17.984132304203">
        <ele>105</ele>
        <time>2017-10-28T13:29:38Z</time>
      </trkpt>
      <trkpt lat="62.619422831443" lon="17.984032559593">
        <ele>105</ele>
        <time>2017-10-28T13:29:39Z</time>
      </trkpt>
      <trkpt lat="62.6194482286" lon="17.983923175798">
        <ele>104.8</ele>
        <time>2017-10-28T13:29:40Z</time>
      </trkpt>
      <trkpt lat="62.619474966861" lon="17.983813289089">
        <ele>104.8</ele>
        <time>2017-10-28T13:29:41Z</time>
      </trkpt>
      <trkpt lat="62.619502208036" lon="17.983711365185">
        <ele>104.6</ele>
        <time>2017-10-28T13:29:42Z</time>
      </trkpt>
      <trkpt lat="62.619529197754" lon="17.983605501788">
        <ele>104.4</ele>
        <time>2017-10-28T13:29:43Z</time>
      </trkpt>
      <trkpt lat="62.619554259635" lon="17.983505002807">
        <ele>104.2</ele>
        <time>2017-10-28T13:29:44Z</time>
      </trkpt>
      <trkpt lat="62.619584183018" lon="17.983387237112">
        <ele>104.2</ele>
        <time>2017-10-28T13:29:45Z</time>
      </trkpt>
      <trkpt lat="62.61961251384" lon="17.98328682195">
        <ele>104</ele>
        <time>2017-10-28T13:29:46Z</time>
      </trkpt>
      <trkpt lat="62.619642940137" lon="17.983175510318">
        <ele>104</ele>
        <time>2017-10-28T13:29:47Z</time>
      </trkpt>
      <trkpt lat="62.619672779701" lon="17.983066126523">
        <ele>103.8</ele>
        <time>2017-10-28T13:29:48Z</time>
      </trkpt>
      <trkpt lat="62.619699098867" lon="17.982969399397">
        <ele>103.8</ele>
        <time>2017-10-28T13:29:49Z</time>
      </trkpt>
      <trkpt lat="62.619735308675" lon="17.982848280942">
        <ele>103.6</ele>
        <time>2017-10-28T13:29:50Z</time>
      </trkpt>
      <trkpt lat="62.619765483515" lon="17.982738980966">
        <ele>103.6</ele>
        <time>2017-10-28T13:29:51Z</time>
      </trkpt>
      <trkpt lat="62.619796748002" lon="17.982638817261">
        <ele>103.6</ele>
        <time>2017-10-28T13:29:52Z</time>
      </trkpt>
      <trkpt lat="62.619827006661" lon="17.982529014371">
        <ele>103.4</ele>
        <time>2017-10-28T13:29:53Z</time>
      </trkpt>
      <trkpt lat="62.619854583112" lon="17.982424240621">
        <ele>103.4</ele>
        <time>2017-10-28T13:29:54Z</time>
      </trkpt>
      <trkpt lat="62.619888110712" lon="17.982313850998">
        <ele>103.4</ele>
        <time>2017-10-28T13:29:55Z</time>
      </trkpt>
      <trkpt lat="62.619920883941" lon="17.982211843275">
        <ele>103.4</ele>
        <time>2017-10-28T13:29:56Z</time>
      </trkpt>
      <trkpt lat="62.619953489532" lon="17.982107153344">
        <ele>103.4</ele>
        <time>2017-10-28T13:29:57Z</time>
      </trkpt>
      <trkpt lat="62.619982826182" lon="17.9820085822">
        <ele>103.4</ele>
        <time>2017-10-28T13:29:58Z</time>
      </trkpt>
      <trkpt lat="62.620014425945" lon="17.981911938893">
        <ele>103.2</ele>
        <time>2017-10-28T13:29:59Z</time>
      </trkpt>
      <trkpt lat="62.62005088721" lon="17.98179819651">
        <ele>103.2</ele>
        <time>2017-10-28T13:30:00Z</time>
      </trkpt>
      <trkpt lat="62.620082151697" lon="17.981702307574">
        <ele>103.2</ele>
        <time>2017-10-28T13:30:01Z</time>
      </trkpt>
      <trkpt lat="62.620117020401" lon="17.981602562964">
        <ele>103</ele>
        <time>2017-10-28T13:30:02Z</time>
      </trkpt>
      <trkpt lat="62.620150212725" lon="17.981502147802">
        <ele>103</ele>
        <time>2017-10-28T13:30:03Z</time>
      </trkpt>
      <trkpt lat="62.620178124452" lon="17.981421262467">
        <ele>102.8</ele>
        <time>2017-10-28T13:30:04Z</time>
      </trkpt>
      <trkpt lat="62.620215926821" lon="17.981302323306">
        <ele>102.6</ele>
        <time>2017-10-28T13:30:05Z</time>
      </trkpt>
      <trkpt lat="62.620251046982" lon="17.981198639203">
        <ele>102.4</ele>
        <time>2017-10-28T13:30:06Z</time>
      </trkpt>
      <trkpt lat="62.620288430256" lon="17.98109914605">
        <ele>102.6</ele>
        <time>2017-10-28T13:30:07Z</time>
      </trkpt>
      <trkpt lat="62.620326484082" lon="17.981000407268">
        <ele>102.6</ele>
        <time>2017-10-28T13:30:08Z</time>
      </trkpt>
      <trkpt lat="62.620358167664" lon="17.980909044558">
        <ele>102.6</ele>
        <time>2017-10-28T13:30:09Z</time>
      </trkpt>
      <trkpt lat="62.620394042196" lon="17.980814496726">
        <ele>102.6</ele>
        <time>2017-10-28T13:30:10Z</time>
      </trkpt>
      <trkpt lat="62.620430084366" lon="17.980714668297">
        <ele>102.6</ele>
        <time>2017-10-28T13:30:11Z</time>
      </trkpt>
      <trkpt lat="62.620465288346" lon="17.980618611723">
        <ele>102.4</ele>
        <time>2017-10-28T13:30:12Z</time>
      </trkpt>
      <trkpt lat="62.620503593629" lon="17.980524315348">
        <ele>102.4</ele>
        <time>2017-10-28T13:30:13Z</time>
      </trkpt>
      <trkpt lat="62.620537205048" lon="17.980434964294">
        <ele>102.2</ele>
        <time>2017-10-28T13:30:14Z</time>
      </trkpt>
      <trkpt lat="62.620577186711" lon="17.980323987938">
        <ele>102</ele>
        <time>2017-10-28T13:30:15Z</time>
      </trkpt>
      <trkpt lat="62.620615743451" lon="17.980233547237">
        <ele>102</ele>
        <time>2017-10-28T13:30:16Z</time>
      </trkpt>
      <trkpt lat="62.620655557476" lon="17.980140424328">
        <ele>101.8</ele>
        <time>2017-10-28T13:30:17Z</time>
      </trkpt>
      <trkpt lat="62.620696125872" lon="17.980039003338">
        <ele>101.8</ele>
        <time>2017-10-28T13:30:18Z</time>
      </trkpt>
      <trkpt lat="62.620727725635" lon="17.9799550167">
        <ele>101.6</ele>
        <time>2017-10-28T13:30:19Z</time>
      </trkpt>
      <trkpt lat="62.620773071714" lon="17.979840519946">
        <ele>101.6</ele>
        <time>2017-10-28T13:30:20Z</time>
      </trkpt>
      <trkpt lat="62.620813137196" lon="17.979736919662">
        <ele>101.6</ele>
        <time>2017-10-28T13:30:21Z</time>
      </trkpt>
      <trkpt lat="62.620851274841" lon="17.979636839776">
        <ele>101.6</ele>
        <time>2017-10-28T13:30:22Z</time>
      </trkpt>
      <trkpt lat="62.620894273988" lon="17.979536843709">
        <ele>101.6</ele>
        <time>2017-10-28T13:30:23Z</time>
      </trkpt>
      <trkpt lat="62.620934590927" lon="17.97943785347">
        <ele>101.6</ele>
        <time>2017-10-28T13:30:24Z</time>
      </trkpt>
      <trkpt lat="62.620977590074" lon="17.979329894598">
        <ele>101.4</ele>
        <time>2017-10-28T13:30:25Z</time>
      </trkpt>
      <trkpt lat="62.621020505402" lon="17.979226461952">
        <ele>101.4</ele>
        <time>2017-10-28T13:30:26Z</time>
      </trkpt>
      <trkpt lat="62.621062917816" lon="17.979122526392">
        <ele>101.4</ele>
        <time>2017-10-28T13:30:27Z</time>
      </trkpt>
      <trkpt lat="62.621099043805" lon="17.979031079863">
        <ele>101.2</ele>
        <time>2017-10-28T13:30:28Z</time>
      </trkpt>
      <trkpt lat="62.621133074319" lon="17.978947093225">
        <ele>101.2</ele>
        <time>2017-10-28T13:30:29Z</time>
      </trkpt>
      <trkpt lat="62.62118244371" lon="17.978825220399">
        <ele>101.2</ele>
        <time>2017-10-28T13:30:30Z</time>
      </trkpt>
      <trkpt lat="62.621224604667" lon="17.978723212676">
        <ele>101.2</ele>
        <time>2017-10-28T13:30:31Z</time>
      </trkpt>
      <trkpt lat="62.621263831959" lon="17.978621959324">
        <ele>101</ele>
        <time>2017-10-28T13:30:32Z</time>
      </trkpt>
      <trkpt lat="62.621305992916" lon="17.978518275221">
        <ele>101</ele>
        <time>2017-10-28T13:30:33Z</time>
      </trkpt>
      <trkpt lat="62.621340526344" lon="17.978435797325">
        <ele>100.8</ele>
        <time>2017-10-28T13:30:34Z</time>
      </trkpt>
      <trkpt lat="62.621387045889" lon="17.978324820969">
        <ele>100.8</ele>
        <time>2017-10-28T13:30:35Z</time>
      </trkpt>
      <trkpt lat="62.621427111371" lon="17.978221388323">
        <ele>100.6</ele>
        <time>2017-10-28T13:30:36Z</time>
      </trkpt>
      <trkpt lat="62.621468601776" lon="17.978119883514">
        <ele>100.6</ele>
        <time>2017-10-28T13:30:37Z</time>
      </trkpt>
      <trkpt lat="62.621508583439" lon="17.978015528859">
        <ele>100.4</ele>
        <time>2017-10-28T13:30:38Z</time>
      </trkpt>
      <trkpt lat="62.621546553446" lon="17.977924836701">
        <ele>100.4</ele>
        <time>2017-10-28T13:30:39Z</time>
      </trkpt>
      <trkpt lat="62.621586702747" lon="17.977829199222">
        <ele>100.2</ele>
        <time>2017-10-28T13:30:40Z</time>
      </trkpt>
      <trkpt lat="62.621623834564" lon="17.97773465139">
        <ele>100.2</ele>
        <time>2017-10-28T13:30:41Z</time>
      </trkpt>
      <trkpt lat="62.621667420444" lon="17.977632727486">
        <ele>100.2</ele>
        <time>2017-10-28T13:30:42Z</time>
      </trkpt>
      <trkpt lat="62.621704971356" lon="17.977539436939">
        <ele>100.2</ele>
        <time>2017-10-28T13:30:43Z</time>
      </trkpt>
      <trkpt lat="62.621741767897" lon="17.977450002066">
        <ele>100.2</ele>
        <time>2017-10-28T13:30:44Z</time>
      </trkpt>
      <trkpt lat="62.621781079008" lon="17.977350425094">
        <ele>100.4</ele>
        <time>2017-10-28T13:30:45Z</time>
      </trkpt>
      <trkpt lat="62.621816702083" lon="17.977260906402">
        <ele>100.2</ele>
        <time>2017-10-28T13:30:46Z</time>
      </trkpt>
      <trkpt lat="62.621856180832" lon="17.977172142081">
        <ele>100.2</ele>
        <time>2017-10-28T13:30:47Z</time>
      </trkpt>
      <trkpt lat="62.621892893554" lon="17.977075666412">
        <ele>100</ele>
        <time>2017-10-28T13:30:48Z</time>
      </trkpt>
      <trkpt lat="62.621927091706" lon="17.976992937059">
        <ele>100</ele>
        <time>2017-10-28T13:30:49Z</time>
      </trkpt>
      <trkpt lat="62.621970593767" lon="17.976892857173">
        <ele>100</ele>
        <time>2017-10-28T13:30:50Z</time>
      </trkpt>
      <trkpt lat="62.622007390308" lon="17.976806104508">
        <ele>100</ele>
        <time>2017-10-28T13:30:51Z</time>
      </trkpt>
      <trkpt lat="62.622038654795" lon="17.976720860585">
        <ele>100</ele>
        <time>2017-10-28T13:30:52Z</time>
      </trkpt>
      <trkpt lat="62.622074780784" lon="17.976625223106">
        <ele>100</ele>
        <time>2017-10-28T13:30:53Z</time>
      </trkpt>
      <trkpt lat="62.622110487678" lon="17.976543164305">
        <ele>100</ele>
        <time>2017-10-28T13:30:54Z</time>
      </trkpt>
      <trkpt lat="62.622147535676" lon="17.976451717776">
        <ele>100</ele>
        <time>2017-10-28T13:30:55Z</time>
      </trkpt>
      <trkpt lat="62.622181230914" lon="17.976362199084">
        <ele>100</ele>
        <time>2017-10-28T13:30:56Z</time>
      </trkpt>
      <trkpt lat="62.622217105446" lon="17.976279218274">
        <ele>100</ele>
        <time>2017-10-28T13:30:57Z</time>
      </trkpt>
      <trkpt lat="62.622249543399" lon="17.976202607708">
        <ele>100</ele>
        <time>2017-10-28T13:30:58Z</time>
      </trkpt>
      <trkpt lat="62.622283154818" lon="17.976120045993">
        <ele>100</ele>
        <time>2017-10-28T13:30:59Z</time>
      </trkpt>
      <trkpt lat="62.62231735297" lon="17.976032455138">
        <ele>100</ele>
        <time>2017-10-28T13:31:00Z</time>
      </trkpt>
      <trkpt lat="62.622348785095" lon="17.975946205387">
        <ele>100</ele>
        <time>2017-10-28T13:31:01Z</time>
      </trkpt>
      <trkpt lat="62.622381809781" lon="17.97585794398">
        <ele>100</ele>
        <time>2017-10-28T13:31:02Z</time>
      </trkpt>
      <trkpt lat="62.622414331553" lon="17.97576741946">
        <ele>100.2</ele>
        <time>2017-10-28T13:31:03Z</time>
      </trkpt>
      <trkpt lat="62.622440734538" lon="17.975691898541">
        <ele>100.2</ele>
        <time>2017-10-28T13:31:04Z</time>
      </trkpt>
      <trkpt lat="62.622476692889" lon="17.97555954834">
        <ele>100.2</ele>
        <time>2017-10-28T13:31:05Z</time>
      </trkpt>
      <trkpt lat="62.622492786137" lon="17.975446476509">
        <ele>100.4</ele>
        <time>2017-10-28T13:31:06Z</time>
      </trkpt>
      <trkpt lat="62.622508963204" lon="17.975333404678">
        <ele>100.4</ele>
        <time>2017-10-28T13:31:07Z</time>
      </trkpt>
      <trkpt lat="62.622529666497" lon="17.975225026711">
        <ele>100.4</ele>
        <time>2017-10-28T13:31:08Z</time>
      </trkpt>
      <trkpt lat="62.622552297627" lon="17.975128634861">
        <ele>100.4</ele>
        <time>2017-10-28T13:31:09Z</time>
      </trkpt>
      <trkpt lat="62.622582388648" lon="17.975036936875">
        <ele>100.4</ele>
        <time>2017-10-28T13:31:10Z</time>
      </trkpt>
      <trkpt lat="62.622615413334" lon="17.974951441495">
        <ele>100.4</ele>
        <time>2017-10-28T13:31:11Z</time>
      </trkpt>
      <trkpt lat="62.622632763867" lon="17.974851193971">
        <ele>100.4</ele>
        <time>2017-10-28T13:31:12Z</time>
      </trkpt>
      <trkpt lat="62.622633434419" lon="17.974737870683">
        <ele>100.2</ele>
        <time>2017-10-28T13:31:13Z</time>
      </trkpt>
      <trkpt lat="62.622622537949" lon="17.974635611503">
        <ele>100.2</ele>
        <time>2017-10-28T13:31:14Z</time>
      </trkpt>
      <trkpt lat="62.622620107198" lon="17.974514828324">
        <ele>100.2</ele>
        <time>2017-10-28T13:31:15Z</time>
      </trkpt>
      <trkpt lat="62.622631590401" lon="17.974405863624">
        <ele>100</ele>
        <time>2017-10-28T13:31:16Z</time>
      </trkpt>
      <trkpt lat="62.622652545151" lon="17.974290444861">
        <ele>99.8</ele>
        <time>2017-10-28T13:31:17Z</time>
      </trkpt>
      <trkpt lat="62.62268448019" lon="17.974192711907">
        <ele>99.4</ele>
        <time>2017-10-28T13:31:18Z</time>
      </trkpt>
      <trkpt lat="62.622723204568" lon="17.974111742753">
        <ele>99.2</ele>
        <time>2017-10-28T13:31:19Z</time>
      </trkpt>
      <trkpt lat="62.622765030249" lon="17.974011998143">
        <ele>98.8</ele>
        <time>2017-10-28T13:31:20Z</time>
      </trkpt>
      <trkpt lat="62.622805514826" lon="17.973922479451">
        <ele>98.6</ele>
        <time>2017-10-28T13:31:21Z</time>
      </trkpt>
      <trkpt lat="62.622834013286" lon="17.973840839745">
        <ele>98.4</ele>
        <time>2017-10-28T13:31:22Z</time>
      </trkpt>
      <trkpt lat="62.622868211438" lon="17.973768084853">
        <ele>98.2</ele>
        <time>2017-10-28T13:31:23Z</time>
      </trkpt>
      <trkpt lat="62.622898553916" lon="17.973691977201">
        <ele>98</ele>
        <time>2017-10-28T13:31:24Z</time>
      </trkpt>
      <trkpt lat="62.622925627453" lon="17.973592064953">
        <ele>98</ele>
        <time>2017-10-28T13:31:25Z</time>
      </trkpt>
      <trkpt lat="62.622954125913" lon="17.973511766351">
        <ele>98</ele>
        <time>2017-10-28T13:31:26Z</time>
      </trkpt>
      <trkpt lat="62.622979439251" lon="17.973415206863">
        <ele>98</ele>
        <time>2017-10-28T13:31:27Z</time>
      </trkpt>
      <trkpt lat="62.623005255503" lon="17.973327196913">
        <ele>98.2</ele>
        <time>2017-10-28T13:31:28Z</time>
      </trkpt>
      <trkpt lat="62.62302981447" lon="17.973234493099">
        <ele>98.2</ele>
        <time>2017-10-28T13:31:29Z</time>
      </trkpt>
      <trkpt lat="62.623056133636" lon="17.973120918354">
        <ele>98.2</ele>
        <time>2017-10-28T13:31:30Z</time>
      </trkpt>
      <trkpt lat="62.62307675311" lon="17.973010947826">
        <ele>98.4</ele>
        <time>2017-10-28T13:31:31Z</time>
      </trkpt>
      <trkpt lat="62.623103072276" lon="17.972915394166">
        <ele>98.4</ele>
        <time>2017-10-28T13:31:32Z</time>
      </trkpt>
      <trkpt lat="62.623122434465" lon="17.972799556308">
        <ele>98.4</ele>
        <time>2017-10-28T13:31:33Z</time>
      </trkpt>
      <trkpt lat="62.6231362646" lon="17.972704002648">
        <ele>98.4</ele>
        <time>2017-10-28T13:31:34Z</time>
      </trkpt>
      <trkpt lat="62.623154956237" lon="17.972576262492">
        <ele>98.4</ele>
        <time>2017-10-28T13:31:35Z</time>
      </trkpt>
      <trkpt lat="62.623162919042" lon="17.972490515655">
        <ele>98.4</ele>
        <time>2017-10-28T13:31:36Z</time>
      </trkpt>
      <trkpt lat="62.623176749177" lon="17.972342742758">
        <ele>98.4</ele>
        <time>2017-10-28T13:31:37Z</time>
      </trkpt>
      <trkpt lat="62.623188651475" lon="17.972222211036">
        <ele>98.2</ele>
        <time>2017-10-28T13:31:38Z</time>
      </trkpt>
      <trkpt lat="62.62319912885" lon="17.972111150861">
        <ele>98.4</ele>
        <time>2017-10-28T13:31:39Z</time>
      </trkpt>
      <trkpt lat="62.623209103311" lon="17.971987601655">
        <ele>98.4</ele>
        <time>2017-10-28T13:31:40Z</time>
      </trkpt>
      <trkpt lat="62.623212204614" lon="17.971867153752">
        <ele>98.6</ele>
        <time>2017-10-28T13:31:41Z</time>
      </trkpt>
      <trkpt lat="62.623210947329" lon="17.971741509071">
        <ele>98.6</ele>
        <time>2017-10-28T13:31:42Z</time>
      </trkpt>
      <trkpt lat="62.623207929845" lon="17.971621396444">
        <ele>98.8</ele>
        <time>2017-10-28T13:31:43Z</time>
      </trkpt>
      <trkpt lat="62.62320164342" lon="17.97150689969">
        <ele>98.8</ele>
        <time>2017-10-28T13:31:44Z</time>
      </trkpt>
      <trkpt lat="62.623189238208" lon="17.971377231697">
        <ele>98.8</ele>
        <time>2017-10-28T13:31:45Z</time>
      </trkpt>
      <trkpt lat="62.623177168272" lon="17.971266842074">
        <ele>98.8</ele>
        <time>2017-10-28T13:31:46Z</time>
      </trkpt>
      <trkpt lat="62.623162332309" lon="17.971145388343">
        <ele>98.8</ele>
        <time>2017-10-28T13:31:47Z</time>
      </trkpt>
      <trkpt lat="62.623149759459" lon="17.971028125562">
        <ele>98.8</ele>
        <time>2017-10-28T13:31:48Z</time>
      </trkpt>
      <trkpt lat="62.623133414754" lon="17.970936008481">
        <ele>98.8</ele>
        <time>2017-10-28T13:31:49Z</time>
      </trkpt>
      <trkpt lat="62.62310441338" lon="17.970815728216">
        <ele>98.8</ele>
        <time>2017-10-28T13:31:50Z</time>
      </trkpt>
      <trkpt lat="62.623074909092" lon="17.970717576167">
        <ele>98.8</ele>
        <time>2017-10-28T13:31:51Z</time>
      </trkpt>
      <trkpt lat="62.623054708713" lon="17.970623531249">
        <ele>98.8</ele>
        <time>2017-10-28T13:31:52Z</time>
      </trkpt>
      <trkpt lat="62.623035095067" lon="17.970520685336">
        <ele>98.8</ele>
        <time>2017-10-28T13:31:53Z</time>
      </trkpt>
      <trkpt lat="62.623020259104" lon="17.970424544943">
        <ele>98.6</ele>
        <time>2017-10-28T13:31:54Z</time>
      </trkpt>
      <trkpt lat="62.623004249675" lon="17.970323794505">
        <ele>98.6</ele>
        <time>2017-10-28T13:31:55Z</time>
      </trkpt>
      <trkpt lat="62.622988659341" lon="17.970229330492">
        <ele>98.6</ele>
        <time>2017-10-28T13:31:56Z</time>
      </trkpt>
      <trkpt lat="62.622977679052" lon="17.970139308886">
        <ele>98.6</ele>
        <time>2017-10-28T13:31:57Z</time>
      </trkpt>
      <trkpt lat="62.622964854745" lon="17.97005515461">
        <ele>98.8</ele>
        <time>2017-10-28T13:31:58Z</time>
      </trkpt>
      <trkpt lat="62.622947588031" lon="17.969982315899">
        <ele>98.8</ele>
        <time>2017-10-28T13:31:59Z</time>
      </trkpt>
      <trkpt lat="62.622926214186" lon="17.969895395596">
        <ele>99</ele>
        <time>2017-10-28T13:32:00Z</time>
      </trkpt>
      <trkpt lat="62.622908528377" lon="17.969821048143">
        <ele>99.2</ele>
        <time>2017-10-28T13:32:01Z</time>
      </trkpt>
      <trkpt lat="62.622892267491" lon="17.969746784509">
        <ele>99.6</ele>
        <time>2017-10-28T13:32:02Z</time>
      </trkpt>
      <trkpt lat="62.622875503691" lon="17.969674364893">
        <ele>99.8</ele>
        <time>2017-10-28T13:32:03Z</time>
      </trkpt>
      <trkpt lat="62.622866954153" lon="17.96961091391">
        <ele>100</ele>
        <time>2017-10-28T13:32:04Z</time>
      </trkpt>
      <trkpt lat="62.622861170642" lon="17.969519048286">
        <ele>100.2</ele>
        <time>2017-10-28T13:32:05Z</time>
      </trkpt>
      <trkpt lat="62.622856225321" lon="17.969435229286">
        <ele>100.4</ele>
        <time>2017-10-28T13:32:06Z</time>
      </trkpt>
      <trkpt lat="62.622853291656" lon="17.969362055299">
        <ele>100.6</ele>
        <time>2017-10-28T13:32:07Z</time>
      </trkpt>
      <trkpt lat="62.622856644416" lon="17.969285528552">
        <ele>100.8</ele>
        <time>2017-10-28T13:32:08Z</time>
      </trkpt>
      <trkpt lat="62.622864439583" lon="17.969218054257">
        <ele>100.8</ele>
        <time>2017-10-28T13:32:09Z</time>
      </trkpt>
      <trkpt lat="62.622868714352" lon="17.969143287709">
        <ele>101</ele>
        <time>2017-10-28T13:32:10Z</time>
      </trkpt>
      <trkpt lat="62.622861589737" lon="17.969074220853">
        <ele>101.2</ele>
        <time>2017-10-28T13:32:11Z</time>
      </trkpt>
      <trkpt lat="62.622851363819" lon="17.969014625544">
        <ele>101.2</ele>
        <time>2017-10-28T13:32:12Z</time>
      </trkpt>
      <trkpt lat="62.622833426553" lon="17.968968441275">
        <ele>101.2</ele>
        <time>2017-10-28T13:32:13Z</time>
      </trkpt>
      <trkpt lat="62.622815321649" lon="17.968919993893">
        <ele>101.4</ele>
        <time>2017-10-28T13:32:14Z</time>
      </trkpt>
      <trkpt lat="62.62280015041" lon="17.968855285625">
        <ele>101.6</ele>
        <time>2017-10-28T13:32:15Z</time>
      </trkpt>
      <trkpt lat="62.62279512127" lon="17.968796360868">
        <ele>101.8</ele>
        <time>2017-10-28T13:32:16Z</time>
      </trkpt>
      <trkpt lat="62.622794031623" lon="17.968730395315">
        <ele>101.8</ele>
        <time>2017-10-28T13:32:17Z</time>
      </trkpt>
      <trkpt lat="62.622796294736" lon="17.968666441418">
        <ele>102</ele>
        <time>2017-10-28T13:32:18Z</time>
      </trkpt>
      <trkpt lat="62.622802245885" lon="17.968623861366">
        <ele>102.2</ele>
        <time>2017-10-28T13:32:19Z</time>
      </trkpt>
      <trkpt lat="62.622803670808" lon="17.968576755088">
        <ele>102.4</ele>
        <time>2017-10-28T13:32:20Z</time>
      </trkpt>
      <trkpt lat="62.622790846501" lon="17.968533504484">
        <ele>102.6</ele>
        <time>2017-10-28T13:32:21Z</time>
      </trkpt>
      <trkpt lat="62.622770394665" lon="17.968503078187">
        <ele>102.6</ele>
        <time>2017-10-28T13:32:22Z</time>
      </trkpt>
      <trkpt lat="62.622744913689" lon="17.968483129265">
        <ele>102.8</ele>
        <time>2017-10-28T13:32:23Z</time>
      </trkpt>
      <trkpt lat="62.622726222052" lon="17.968473406261">
        <ele>102.8</ele>
        <time>2017-10-28T13:32:24Z</time>
      </trkpt>
      <trkpt lat="62.622702417456" lon="17.968455133719">
        <ele>103</ele>
        <time>2017-10-28T13:32:25Z</time>
      </trkpt>
      <trkpt lat="62.622682384715" lon="17.968443482878">
        <ele>103</ele>
        <time>2017-10-28T13:32:26Z</time>
      </trkpt>
      <trkpt lat="62.62266352544" lon="17.968426048526">
        <ele>103.2</ele>
        <time>2017-10-28T13:32:27Z</time>
      </trkpt>
      <trkpt lat="62.622640810491" lon="17.96840727307">
        <ele>103.4</ele>
        <time>2017-10-28T13:32:28Z</time>
      </trkpt>
      <trkpt lat="62.622619017551" lon="17.968390257813">
        <ele>103.6</ele>
        <time>2017-10-28T13:32:29Z</time>
      </trkpt>
      <trkpt lat="62.622594877679" lon="17.968366285579">
        <ele>103.8</ele>
        <time>2017-10-28T13:32:30Z</time>
      </trkpt>
      <trkpt lat="62.62257635368" lon="17.968335440187">
        <ele>104.2</ele>
        <time>2017-10-28T13:32:31Z</time>
      </trkpt>
      <trkpt lat="62.62256210445" lon="17.968306271175">
        <ele>104.4</ele>
        <time>2017-10-28T13:32:32Z</time>
      </trkpt>
      <trkpt lat="62.622548106677" lon="17.96827316267">
        <ele>104.6</ele>
        <time>2017-10-28T13:32:33Z</time>
      </trkpt>
      <trkpt lat="62.622537377845" lon="17.968246424409">
        <ele>104.8</ele>
        <time>2017-10-28T13:32:34Z</time>
      </trkpt>
      <trkpt lat="62.622521284597" lon="17.968211220429">
        <ele>105</ele>
        <time>2017-10-28T13:32:35Z</time>
      </trkpt>
      <trkpt lat="62.622510471946" lon="17.96818515272">
        <ele>105.2</ele>
        <time>2017-10-28T13:32:36Z</time>
      </trkpt>
      <trkpt lat="62.622501168037" lon="17.968157827726">
        <ele>105.4</ele>
        <time>2017-10-28T13:32:37Z</time>
      </trkpt>
      <trkpt lat="62.622493205232" lon="17.968115750588">
        <ele>105.6</ele>
        <time>2017-10-28T13:32:38Z</time>
      </trkpt>
      <trkpt lat="62.622493540508" lon="17.968075768925">
        <ele>105.6</ele>
        <time>2017-10-28T13:32:39Z</time>
      </trkpt>
      <trkpt lat="62.622501419494" lon="17.968046348456">
        <ele>105.8</ele>
        <time>2017-10-28T13:32:40Z</time>
      </trkpt>
      <trkpt lat="62.62250426934" lon="17.968008629906">
        <ele>105.8</ele>
        <time>2017-10-28T13:32:41Z</time>
      </trkpt>
      <trkpt lat="62.622504856073" lon="17.967952471176">
        <ele>106</ele>
        <time>2017-10-28T13:32:42Z</time>
      </trkpt>
      <trkpt lat="62.622505610444" lon="17.967908885296">
        <ele>106.2</ele>
        <time>2017-10-28T13:32:43Z</time>
      </trkpt>
      <trkpt lat="62.62250678391" lon="17.967873262221">
        <ele>106.2</ele>
        <time>2017-10-28T13:32:44Z</time>
      </trkpt>
      <trkpt lat="62.622510723403" lon="17.967831185083">
        <ele>106.2</ele>
        <time>2017-10-28T13:32:45Z</time>
      </trkpt>
      <trkpt lat="62.62251265124" lon="17.967775026353">
        <ele>106.4</ele>
        <time>2017-10-28T13:32:46Z</time>
      </trkpt>
      <trkpt lat="62.622512818878" lon="17.967727668618">
        <ele>106.6</ele>
        <time>2017-10-28T13:32:47Z</time>
      </trkpt>
      <trkpt lat="62.622515668724" lon="17.967671761345">
        <ele>106.6</ele>
        <time>2017-10-28T13:32:48Z</time>
      </trkpt>
      <trkpt lat="62.622516087819" lon="17.967632534053">
        <ele>106.8</ele>
        <time>2017-10-28T13:32:49Z</time>
      </trkpt>
      <trkpt lat="62.622520027312" lon="17.967571681459">
        <ele>106.8</ele>
        <time>2017-10-28T13:32:50Z</time>
      </trkpt>
      <trkpt lat="62.622520865502" lon="17.967508649571">
        <ele>106.8</ele>
        <time>2017-10-28T13:32:51Z</time>
      </trkpt>
      <trkpt lat="62.622522458063" lon="17.967448970443">
        <ele>106.8</ele>
        <time>2017-10-28T13:32:52Z</time>
      </trkpt>
      <trkpt lat="62.622516506914" lon="17.967382334338">
        <ele>106.8</ele>
        <time>2017-10-28T13:32:53Z</time>
      </trkpt>
      <trkpt lat="62.622515417267" lon="17.967325840332">
        <ele>107</ele>
        <time>2017-10-28T13:32:54Z</time>
      </trkpt>
      <trkpt lat="62.622520446407" lon="17.967267167032">
        <ele>106.8</ele>
        <time>2017-10-28T13:32:55Z</time>
      </trkpt>
      <trkpt lat="62.622525475547" lon="17.967207068809">
        <ele>106.8</ele>
        <time>2017-10-28T13:32:56Z</time>
      </trkpt>
      <trkpt lat="62.622525391728" lon="17.967140013609">
        <ele>106.8</ele>
        <time>2017-10-28T13:32:57Z</time>
      </trkpt>
      <trkpt lat="62.622525391728" lon="17.967079663929">
        <ele>106.8</ele>
        <time>2017-10-28T13:32:58Z</time>
      </trkpt>
      <trkpt lat="62.622530923782" lon="17.967017973145">
        <ele>106.8</ele>
        <time>2017-10-28T13:32:59Z</time>
      </trkpt>
      <trkpt lat="62.622539221863" lon="17.966953264877">
        <ele>106.6</ele>
        <time>2017-10-28T13:33:00Z</time>
      </trkpt>
      <trkpt lat="62.622535785284" lon="17.966887718419">
        <ele>106.6</ele>
        <time>2017-10-28T13:33:01Z</time>
      </trkpt>
      <trkpt lat="62.622542742261" lon="17.966817813373">
        <ele>106.8</ele>
        <time>2017-10-28T13:33:02Z</time>
      </trkpt>
      <trkpt lat="62.622552465265" lon="17.966754781485">
        <ele>106.8</ele>
        <time>2017-10-28T13:33:03Z</time>
      </trkpt>
      <trkpt lat="62.622558081138" lon="17.966689318846">
        <ele>107</ele>
        <time>2017-10-28T13:33:04Z</time>
      </trkpt>
      <trkpt lat="62.622571659816" lon="17.966614803755">
        <ele>107.4</ele>
        <time>2017-10-28T13:33:05Z</time>
      </trkpt>
      <trkpt lat="62.622577862422" lon="17.966535678619">
        <ele>107.4</ele>
        <time>2017-10-28T13:33:06Z</time>
      </trkpt>
      <trkpt lat="62.622580293173" lon="17.966467282315">
        <ele>107.4</ele>
        <time>2017-10-28T13:33:07Z</time>
      </trkpt>
      <trkpt lat="62.622580376992" lon="17.966389079188">
        <ele>107.4</ele>
        <time>2017-10-28T13:33:08Z</time>
      </trkpt>
      <trkpt lat="62.622578532974" lon="17.966317916857">
        <ele>107.4</ele>
        <time>2017-10-28T13:33:09Z</time>
      </trkpt>
      <trkpt lat="62.622575934585" lon="17.966244659051">
        <ele>107.2</ele>
        <time>2017-10-28T13:33:10Z</time>
      </trkpt>
      <trkpt lat="62.622559757518" lon="17.966174502548">
        <ele>107</ele>
        <time>2017-10-28T13:33:11Z</time>
      </trkpt>
      <trkpt lat="62.62254366427" lon="17.966099736">
        <ele>107</ele>
        <time>2017-10-28T13:33:12Z</time>
      </trkpt>
      <trkpt lat="62.622535114732" lon="17.966034943913">
        <ele>107</ele>
        <time>2017-10-28T13:33:13Z</time>
      </trkpt>
      <trkpt lat="62.622532264886" lon="17.965978869002">
        <ele>107</ele>
        <time>2017-10-28T13:33:14Z</time>
      </trkpt>
      <trkpt lat="62.622528157755" lon="17.96591784877">
        <ele>106.8</ele>
        <time>2017-10-28T13:33:15Z</time>
      </trkpt>
      <trkpt lat="62.622532348705" lon="17.965861438583">
        <ele>106.8</ele>
        <time>2017-10-28T13:33:16Z</time>
      </trkpt>
      <trkpt lat="62.622538551311" lon="17.965808800251">
        <ele>107</ele>
        <time>2017-10-28T13:33:17Z</time>
      </trkpt>
      <trkpt lat="62.622550202152" lon="17.96574601982">
        <ele>107</ele>
        <time>2017-10-28T13:33:18Z</time>
      </trkpt>
      <trkpt lat="62.62256042807" lon="17.965703439768">
        <ele>107</ele>
        <time>2017-10-28T13:33:19Z</time>
      </trkpt>
      <trkpt lat="62.622568726151" lon="17.96561610037">
        <ele>107.2</ele>
        <time>2017-10-28T13:33:20Z</time>
      </trkpt>
      <trkpt lat="62.622573336196" lon="17.965546362962">
        <ele>107.2</ele>
        <time>2017-10-28T13:33:21Z</time>
      </trkpt>
      <trkpt lat="62.622567887961" lon="17.965476625554">
        <ele>107.2</ele>
        <time>2017-10-28T13:33:22Z</time>
      </trkpt>
      <trkpt lat="62.622564786658" lon="17.965398003332">
        <ele>107.2</ele>
        <time>2017-10-28T13:33:23Z</time>
      </trkpt>
      <trkpt lat="62.622558081138" lon="17.965325583716">
        <ele>107.2</ele>
        <time>2017-10-28T13:33:24Z</time>
      </trkpt>
      <trkpt lat="62.622542406985" lon="17.965246626218">
        <ele>107</ele>
        <time>2017-10-28T13:33:25Z</time>
      </trkpt>
      <trkpt lat="62.622528493031" lon="17.965175380068">
        <ele>107</ele>
        <time>2017-10-28T13:33:26Z</time>
      </trkpt>
      <trkpt lat="62.62250594572" lon="17.965111761447">
        <ele>107</ele>
        <time>2017-10-28T13:33:27Z</time>
      </trkpt>
      <trkpt lat="62.622481470572" lon="17.965052669052">
        <ele>107.2</ele>
        <time>2017-10-28T13:33:28Z</time>
      </trkpt>
      <trkpt lat="62.622457498338" lon="17.964993995752">
        <ele>107.2</ele>
        <time>2017-10-28T13:33:29Z</time>
      </trkpt>
      <trkpt lat="62.622429251335" lon="17.964925515629">
        <ele>107.4</ele>
        <time>2017-10-28T13:33:30Z</time>
      </trkpt>
      <trkpt lat="62.622401591065" lon="17.964860723542">
        <ele>107.4</ele>
        <time>2017-10-28T13:33:31Z</time>
      </trkpt>
      <trkpt lat="62.622381474505" lon="17.964785202623">
        <ele>107.4</ele>
        <time>2017-10-28T13:33:32Z</time>
      </trkpt>
      <trkpt lat="62.622361106488" lon="17.964708592057">
        <ele>107.4</ele>
        <time>2017-10-28T13:33:33Z</time>
      </trkpt>
      <trkpt lat="62.622338978272" lon="17.964651176042">
        <ele>107.4</ele>
        <time>2017-10-28T13:33:34Z</time>
      </trkpt>
      <trkpt lat="62.622321795377" lon="17.964557298762">
        <ele>107.2</ele>
        <time>2017-10-28T13:33:35Z</time>
      </trkpt>
      <trkpt lat="62.622314419305" lon="17.964469372631">
        <ele>107.2</ele>
        <time>2017-10-28T13:33:36Z</time>
      </trkpt>
      <trkpt lat="62.622300756808" lon="17.964387649106">
        <ele>107.2</ele>
        <time>2017-10-28T13:33:37Z</time>
      </trkpt>
      <trkpt lat="62.622282065171" lon="17.964316822051">
        <ele>107.2</ele>
        <time>2017-10-28T13:33:38Z</time>
      </trkpt>
      <trkpt lat="62.622263792629" lon="17.964244570073">
        <ele>107.2</ele>
        <time>2017-10-28T13:33:39Z</time>
      </trkpt>
      <trkpt lat="62.622236970549" lon="17.964178688339">
        <ele>107.4</ele>
        <time>2017-10-28T13:33:40Z</time>
      </trkpt>
      <trkpt lat="62.622215848161" lon="17.964122194333">
        <ele>107.4</ele>
        <time>2017-10-28T13:33:41Z</time>
      </trkpt>
      <trkpt lat="62.622192881755" lon="17.964047176328">
        <ele>107.2</ele>
        <time>2017-10-28T13:33:42Z</time>
      </trkpt>
      <trkpt lat="62.622177459059" lon="17.963978780024">
        <ele>107.2</ele>
        <time>2017-10-28T13:33:43Z</time>
      </trkpt>
      <trkpt lat="62.62215977325" lon="17.963903259105">
        <ele>107.2</ele>
        <time>2017-10-28T13:33:44Z</time>
      </trkpt>
      <trkpt lat="62.622144015278" lon="17.963816841716">
        <ele>107.2</ele>
        <time>2017-10-28T13:33:45Z</time>
      </trkpt>
      <trkpt lat="62.622135549559" lon="17.963756575855">
        <ele>107.2</ele>
        <time>2017-10-28T13:33:46Z</time>
      </trkpt>
      <trkpt lat="62.622126497107" lon="17.963666638068">
        <ele>107.2</ele>
        <time>2017-10-28T13:33:47Z</time>
      </trkpt>
      <trkpt lat="62.622109146574" lon="17.963555577893">
        <ele>107</ele>
        <time>2017-10-28T13:33:48Z</time>
      </trkpt>
      <trkpt lat="62.622096238448" lon="17.963450468867">
        <ele>107</ele>
        <time>2017-10-28T13:33:49Z</time>
      </trkpt>
      <trkpt lat="62.622082827408" lon="17.963313089526">
        <ele>106.8</ele>
        <time>2017-10-28T13:33:50Z</time>
      </trkpt>
      <trkpt lat="62.622070338377" lon="17.963199263324">
        <ele>106.6</ele>
        <time>2017-10-28T13:33:51Z</time>
      </trkpt>
      <trkpt lat="62.622061453563" lon="17.963092226461">
        <ele>106.4</ele>
        <time>2017-10-28T13:33:52Z</time>
      </trkpt>
      <trkpt lat="62.622049383627" lon="17.962986279245">
        <ele>106</ele>
        <time>2017-10-28T13:33:53Z</time>
      </trkpt>
      <trkpt lat="62.622034212388" lon="17.96289282106">
        <ele>105.8</ele>
        <time>2017-10-28T13:33:54Z</time>
      </trkpt>
      <trkpt lat="62.622018873511" lon="17.96278804731">
        <ele>105.6</ele>
        <time>2017-10-28T13:33:55Z</time>
      </trkpt>
      <trkpt lat="62.622000349512" lon="17.962711604382">
        <ele>105.6</ele>
        <time>2017-10-28T13:33:56Z</time>
      </trkpt>
      <trkpt lat="62.621972940699" lon="17.962636837834">
        <ele>105.4</ele>
        <time>2017-10-28T13:33:57Z</time>
      </trkpt>
      <trkpt lat="62.621938323452" lon="17.962580930561">
        <ele>105.6</ele>
        <time>2017-10-28T13:33:58Z</time>
      </trkpt>
      <trkpt lat="62.621900269626" lon="17.962540278346">
        <ele>105.6</ele>
        <time>2017-10-28T13:33:59Z</time>
      </trkpt>
      <trkpt lat="62.621862467257" lon="17.962515803198">
        <ele>105.6</ele>
        <time>2017-10-28T13:34:00Z</time>
      </trkpt>
      <trkpt lat="62.621820557757" lon="17.962473893698">
        <ele>105.8</ele>
        <time>2017-10-28T13:34:01Z</time>
      </trkpt>
      <trkpt lat="62.621782001017" lon="17.962421087728">
        <ele>106</ele>
        <time>2017-10-28T13:34:02Z</time>
      </trkpt>
      <trkpt lat="62.621746461761" lon="17.962356128003">
        <ele>106</ele>
        <time>2017-10-28T13:34:03Z</time>
      </trkpt>
      <trkpt lat="62.621715784007" lon="17.962300891282">
        <ele>106.2</ele>
        <time>2017-10-28T13:34:04Z</time>
      </trkpt>
      <trkpt lat="62.621681418217" lon="17.962217575196">
        <ele>106.4</ele>
        <time>2017-10-28T13:34:05Z</time>
      </trkpt>
      <trkpt lat="62.621661972209" lon="17.962130403436">
        <ele>106.4</ele>
        <time>2017-10-28T13:34:06Z</time>
      </trkpt>
      <trkpt lat="62.621649566997" lon="17.962043147857">
        <ele>106.6</ele>
        <time>2017-10-28T13:34:07Z</time>
      </trkpt>
      <trkpt lat="62.621647974436" lon="17.961954467355">
        <ele>106.8</ele>
        <time>2017-10-28T13:34:08Z</time>
      </trkpt>
      <trkpt lat="62.621650321368" lon="17.961872660011">
        <ele>106.8</ele>
        <time>2017-10-28T13:34:09Z</time>
      </trkpt>
      <trkpt lat="62.621655434327" lon="17.961778782731">
        <ele>107</ele>
        <time>2017-10-28T13:34:10Z</time>
      </trkpt>
      <trkpt lat="62.621667168987" lon="17.961696304835">
        <ele>107</ele>
        <time>2017-10-28T13:34:11Z</time>
      </trkpt>
      <trkpt lat="62.621676221439" lon="17.96161039036">
        <ele>107</ele>
        <time>2017-10-28T13:34:12Z</time>
      </trkpt>
      <trkpt lat="62.621678484552" lon="17.96151316032">
        <ele>107</ele>
        <time>2017-10-28T13:34:13Z</time>
      </trkpt>
      <trkpt lat="62.621675969982" lon="17.961422803438">
        <ele>106.8</ele>
        <time>2017-10-28T13:34:14Z</time>
      </trkpt>
      <trkpt lat="62.62166775572" lon="17.961319119335">
        <ele>106.8</ele>
        <time>2017-10-28T13:34:15Z</time>
      </trkpt>
      <trkpt lat="62.621657026888" lon="17.961226164064">
        <ele>106.8</ele>
        <time>2017-10-28T13:34:16Z</time>
      </trkpt>
      <trkpt lat="62.621639676355" lon="17.961122982875">
        <ele>106.6</ele>
        <time>2017-10-28T13:34:17Z</time>
      </trkpt>
      <trkpt lat="62.621614865931" lon="17.961016616564">
        <ele>106.6</ele>
        <time>2017-10-28T13:34:18Z</time>
      </trkpt>
      <trkpt lat="62.621575471001" lon="17.960945789509">
        <ele>106.4</ele>
        <time>2017-10-28T13:34:19Z</time>
      </trkpt>
      <trkpt lat="62.621531298388" lon="17.96088703239">
        <ele>106.2</ele>
        <time>2017-10-28T13:34:20Z</time>
      </trkpt>
      <trkpt lat="62.621489975621" lon="17.960834896972">
        <ele>106</ele>
        <time>2017-10-28T13:34:21Z</time>
      </trkpt>
      <trkpt lat="62.621451167424" lon="17.96078309683">
        <ele>105.8</ele>
        <time>2017-10-28T13:34:22Z</time>
      </trkpt>
      <trkpt lat="62.621412359227" lon="17.960718891476">
        <ele>105.8</ele>
        <time>2017-10-28T13:34:23Z</time>
      </trkpt>
      <trkpt lat="62.621380675645" lon="17.960651836276">
        <ele>105.8</ele>
        <time>2017-10-28T13:34:24Z</time>
      </trkpt>
      <trkpt lat="62.621350752262" lon="17.960569106923">
        <ele>105.8</ele>
        <time>2017-10-28T13:34:25Z</time>
      </trkpt>
      <trkpt lat="62.621319571594" lon="17.960495849117">
        <ele>106</ele>
        <time>2017-10-28T13:34:26Z</time>
      </trkpt>
      <trkpt lat="62.621291659867" lon="17.960404402588">
        <ele>106.2</ele>
        <time>2017-10-28T13:34:27Z</time>
      </trkpt>
      <trkpt lat="62.621267603814" lon="17.960318655751">
        <ele>106.2</ele>
        <time>2017-10-28T13:34:28Z</time>
      </trkpt>
      <trkpt lat="62.621244888865" lon="17.960232070724">
        <ele>106.4</ele>
        <time>2017-10-28T13:34:29Z</time>
      </trkpt>
      <trkpt lat="62.62121932407" lon="17.960129895363">
        <ele>106.4</ele>
        <time>2017-10-28T13:34:30Z</time>
      </trkpt>
      <trkpt lat="62.621197195854" lon="17.960033000599">
        <ele>106.2</ele>
        <time>2017-10-28T13:34:31Z</time>
      </trkpt>
      <trkpt lat="62.621179761502" lon="17.959933339808">
        <ele>106.6</ele>
        <time>2017-10-28T13:34:32Z</time>
      </trkpt>
      <trkpt lat="62.621160231675" lon="17.959833511379">
        <ele>106.6</ele>
        <time>2017-10-28T13:34:33Z</time>
      </trkpt>
      <trkpt lat="62.621142797323" lon="17.959744830877">
        <ele>106.6</ele>
        <time>2017-10-28T13:34:34Z</time>
      </trkpt>
      <trkpt lat="62.621119076546" lon="17.959636620548">
        <ele>106.8</ele>
        <time>2017-10-28T13:34:35Z</time>
      </trkpt>
      <trkpt lat="62.621097954158" lon="17.959539809603">
        <ele>106.8</ele>
        <time>2017-10-28T13:34:36Z</time>
      </trkpt>
      <trkpt lat="62.621079849254" lon="17.959466635616">
        <ele>106.8</ele>
        <time>2017-10-28T13:34:37Z</time>
      </trkpt>
      <trkpt lat="62.621055541744" lon="17.959345349523">
        <ele>107</ele>
        <time>2017-10-28T13:34:38Z</time>
      </trkpt>
      <trkpt lat="62.621045734921" lon="17.959242252153">
        <ele>106.8</ele>
        <time>2017-10-28T13:34:39Z</time>
      </trkpt>
      <trkpt lat="62.621035592822" lon="17.959137478403">
        <ele>107</ele>
        <time>2017-10-28T13:34:40Z</time>
      </trkpt>
      <trkpt lat="62.621035006089" lon="17.959039158716">
        <ele>107.2</ele>
        <time>2017-10-28T13:34:41Z</time>
      </trkpt>
      <trkpt lat="62.621039280858" lon="17.95893153512">
        <ele>107.2</ele>
        <time>2017-10-28T13:34:42Z</time>
      </trkpt>
      <trkpt lat="62.621042801256" lon="17.958844279541">
        <ele>107.4</ele>
        <time>2017-10-28T13:34:43Z</time>
      </trkpt>
      <trkpt lat="62.621044645274" lon="17.958773871581">
        <ele>107.6</ele>
        <time>2017-10-28T13:34:44Z</time>
      </trkpt>
      <trkpt lat="62.621044896731" lon="17.958694243531">
        <ele>107.8</ele>
        <time>2017-10-28T13:34:45Z</time>
      </trkpt>
      <trkpt lat="62.621046824568" lon="17.958629199987">
        <ele>108.2</ele>
        <time>2017-10-28T13:34:46Z</time>
      </trkpt>
      <trkpt lat="62.621050177328" lon="17.958552757059">
        <ele>108.4</ele>
        <time>2017-10-28T13:34:47Z</time>
      </trkpt>
      <trkpt lat="62.621052775717" lon="17.958483690203">
        <ele>108.6</ele>
        <time>2017-10-28T13:34:48Z</time>
      </trkpt>
      <trkpt lat="62.621054535916" lon="17.958422167057">
        <ele>108.8</ele>
        <time>2017-10-28T13:34:49Z</time>
      </trkpt>
      <trkpt lat="62.621057301943" lon="17.958352513468">
        <ele>109</ele>
        <time>2017-10-28T13:34:50Z</time>
      </trkpt>
      <trkpt lat="62.621062833997" lon="17.958289146304">
        <ele>109.2</ele>
        <time>2017-10-28T13:34:51Z</time>
      </trkpt>
      <trkpt lat="62.62106425892" lon="17.95822829371">
        <ele>109.2</ele>
        <time>2017-10-28T13:34:52Z</time>
      </trkpt>
      <trkpt lat="62.621069036603" lon="17.958159310673">
        <ele>109.4</ele>
        <time>2017-10-28T13:34:53Z</time>
      </trkpt>
      <trkpt lat="62.6210743172" lon="17.958099547726">
        <ele>109.6</ele>
        <time>2017-10-28T13:34:54Z</time>
      </trkpt>
      <trkpt lat="62.62107766996" lon="17.958032408707">
        <ele>109.8</ele>
        <time>2017-10-28T13:34:55Z</time>
      </trkpt>
      <trkpt lat="62.621076077399" lon="17.957971053199">
        <ele>109.8</ele>
        <time>2017-10-28T13:34:56Z</time>
      </trkpt>
      <trkpt lat="62.621071215897" lon="17.957908356587">
        <ele>110</ele>
        <time>2017-10-28T13:34:57Z</time>
      </trkpt>
      <trkpt lat="62.621059565056" lon="17.957861082671">
        <ele>110.2</ele>
        <time>2017-10-28T13:34:58Z</time>
      </trkpt>
      <trkpt lat="62.621041963066" lon="17.957813473479">
        <ele>110.4</ele>
        <time>2017-10-28T13:34:59Z</time>
      </trkpt>
      <trkpt lat="62.621018577565" lon="17.957778353318">
        <ele>110.6</ele>
        <time>2017-10-28T13:35:00Z</time>
      </trkpt>
      <trkpt lat="62.620994772969" lon="17.95775555455">
        <ele>111</ele>
        <time>2017-10-28T13:35:01Z</time>
      </trkpt>
      <trkpt lat="62.620968369984" lon="17.957762846803">
        <ele>111.2</ele>
        <time>2017-10-28T13:35:02Z</time>
      </trkpt>
      <trkpt lat="62.620941296447" lon="17.957786483761">
        <ele>111.6</ele>
        <time>2017-10-28T13:35:03Z</time>
      </trkpt>
      <trkpt lat="62.620923610638" lon="17.957803582837">
        <ele>111.8</ele>
        <time>2017-10-28T13:35:04Z</time>
      </trkpt>
      <trkpt lat="62.620898632576" lon="17.957839792645">
        <ele>112.2</ele>
        <time>2017-10-28T13:35:05Z</time>
      </trkpt>
      <trkpt lat="62.620879689482" lon="17.957861585585">
        <ele>112.4</ele>
        <time>2017-10-28T13:35:06Z</time>
      </trkpt>
      <trkpt lat="62.620856555438" lon="17.957883127068">
        <ele>112.8</ele>
        <time>2017-10-28T13:35:07Z</time>
      </trkpt>
      <trkpt lat="62.62083794762" lon="17.957906009655">
        <ele>113</ele>
        <time>2017-10-28T13:35:08Z</time>
      </trkpt>
      <trkpt lat="62.620816741413" lon="17.95793660359">
        <ele>113.2</ele>
        <time>2017-10-28T13:35:09Z</time>
      </trkpt>
      <trkpt lat="62.62079352355" lon="17.957968873905">
        <ele>113.2</ele>
        <time>2017-10-28T13:35:10Z</time>
      </trkpt>
      <trkpt lat="62.620766869108" lon="17.958003994066">
        <ele>113.2</ele>
        <time>2017-10-28T13:35:11Z</time>
      </trkpt>
      <trkpt lat="62.620737029544" lon="17.958037940761">
        <ele>113.4</ele>
        <time>2017-10-28T13:35:12Z</time>
      </trkpt>
      <trkpt lat="62.620710375102" lon="17.958067277411">
        <ele>113.6</ele>
        <time>2017-10-28T13:35:13Z</time>
      </trkpt>
      <trkpt lat="62.620690090904" lon="17.958090914369">
        <ele>113.8</ele>
        <time>2017-10-28T13:35:14Z</time>
      </trkpt>
      <trkpt lat="62.620659329331" lon="17.958104744504">
        <ele>114</ele>
        <time>2017-10-28T13:35:15Z</time>
      </trkpt>
      <trkpt lat="62.62063259107" lon="17.95810759435">
        <ele>114</ele>
        <time>2017-10-28T13:35:16Z</time>
      </trkpt>
      <trkpt lat="62.620607110094" lon="17.958102732848">
        <ele>114.2</ele>
        <time>2017-10-28T13:35:17Z</time>
      </trkpt>
      <trkpt lat="62.620581126204" lon="17.958093596577">
        <ele>114.4</ele>
        <time>2017-10-28T13:35:18Z</time>
      </trkpt>
      <trkpt lat="62.620558914169" lon="17.95808747779">
        <ele>114.6</ele>
        <time>2017-10-28T13:35:19Z</time>
      </trkpt>
      <trkpt lat="62.620533349374" lon="17.958085549953">
        <ele>115</ele>
        <time>2017-10-28T13:35:20Z</time>
      </trkpt>
      <trkpt lat="62.620505437647" lon="17.958085130858">
        <ele>115.4</ele>
        <time>2017-10-28T13:35:21Z</time>
      </trkpt>
      <trkpt lat="62.620480208128" lon="17.958081526641">
        <ele>115.8</ele>
        <time>2017-10-28T13:35:22Z</time>
      </trkpt>
      <trkpt lat="62.620451206754" lon="17.958071971275">
        <ele>116</ele>
        <time>2017-10-28T13:35:23Z</time>
      </trkpt>
      <trkpt lat="62.620424803769" lon="17.958066690678">
        <ele>116.4</ele>
        <time>2017-10-28T13:35:24Z</time>
      </trkpt>
      <trkpt lat="62.620394628929" lon="17.958076413682">
        <ele>116.6</ele>
        <time>2017-10-28T13:35:25Z</time>
      </trkpt>
      <trkpt lat="62.620369315591" lon="17.95808999236">
        <ele>116.8</ele>
        <time>2017-10-28T13:35:26Z</time>
      </trkpt>
      <trkpt lat="62.620338721656" lon="17.958104325409">
        <ele>117.2</ele>
        <time>2017-10-28T13:35:27Z</time>
      </trkpt>
      <trkpt lat="62.620315168517" lon="17.958124441969">
        <ele>117.4</ele>
        <time>2017-10-28T13:35:28Z</time>
      </trkpt>
      <trkpt lat="62.620287172971" lon="17.958139948484">
        <ele>117.4</ele>
        <time>2017-10-28T13:35:29Z</time>
      </trkpt>
      <trkpt lat="62.620258506873" lon="17.95814782747">
        <ele>117.6</ele>
        <time>2017-10-28T13:35:30Z</time>
      </trkpt>
      <trkpt lat="62.620229002585" lon="17.958149084755">
        <ele>118</ele>
        <time>2017-10-28T13:35:31Z</time>
      </trkpt>
      <trkpt lat="62.620202348143" lon="17.958160484139">
        <ele>118.2</ele>
        <time>2017-10-28T13:35:32Z</time>
      </trkpt>
      <trkpt lat="62.620172005665" lon="17.958165345641">
        <ele>118.4</ele>
        <time>2017-10-28T13:35:33Z</time>
      </trkpt>
      <trkpt lat="62.620145435042" lon="17.958170710057">
        <ele>118.6</ele>
        <time>2017-10-28T13:35:34Z</time>
      </trkpt>
      <trkpt lat="62.620111488347" lon="17.958179930147">
        <ele>118.8</ele>
        <time>2017-10-28T13:35:35Z</time>
      </trkpt>
      <trkpt lat="62.620078882756" lon="17.958190323703">
        <ele>118.8</ele>
        <time>2017-10-28T13:35:36Z</time>
      </trkpt>
      <trkpt lat="62.620048288821" lon="17.958198202689">
        <ele>119</ele>
        <time>2017-10-28T13:35:37Z</time>
      </trkpt>
      <trkpt lat="62.620016437601" lon="17.958201639268">
        <ele>119.4</ele>
        <time>2017-10-28T13:35:38Z</time>
      </trkpt>
      <trkpt lat="62.619988944969" lon="17.958212787195">
        <ele>119.4</ele>
        <time>2017-10-28T13:35:39Z</time>
      </trkpt>
      <trkpt lat="62.619956255559" lon="17.958223348389">
        <ele>119.6</ele>
        <time>2017-10-28T13:35:40Z</time>
      </trkpt>
      <trkpt lat="62.61992767328" lon="17.958239609275">
        <ele>119.8</ele>
        <time>2017-10-28T13:35:41Z</time>
      </trkpt>
      <trkpt lat="62.619895402965" lon="17.958261569853">
        <ele>120</ele>
        <time>2017-10-28T13:35:42Z</time>
      </trkpt>
      <trkpt lat="62.61986648541" lon="17.958280596766">
        <ele>120.4</ele>
        <time>2017-10-28T13:35:43Z</time>
      </trkpt>
      <trkpt lat="62.619836729665" lon="17.958288224295">
        <ele>120.6</ele>
        <time>2017-10-28T13:35:44Z</time>
      </trkpt>
      <trkpt lat="62.619804794626" lon="17.958267018088">
        <ele>120.8</ele>
        <time>2017-10-28T13:35:45Z</time>
      </trkpt>
      <trkpt lat="62.619778643098" lon="17.95824673389">
        <ele>121.2</ele>
        <time>2017-10-28T13:35:46Z</time>
      </trkpt>
      <trkpt lat="62.61975165338" lon="17.958217145783">
        <ele>121.4</ele>
        <time>2017-10-28T13:35:47Z</time>
      </trkpt>
      <trkpt lat="62.619734470485" lon="17.958166938202">
        <ele>121.8</ele>
        <time>2017-10-28T13:35:48Z</time>
      </trkpt>
      <trkpt lat="62.619715359753" lon="17.958125363978">
        <ele>122</ele>
        <time>2017-10-28T13:35:49Z</time>
      </trkpt>
      <trkpt lat="62.619690046415" lon="17.958072474189">
        <ele>122.2</ele>
        <time>2017-10-28T13:35:50Z</time>
      </trkpt>
      <trkpt lat="62.619663559611" lon="17.95802377535">
        <ele>122.4</ele>
        <time>2017-10-28T13:35:51Z</time>
      </trkpt>
      <trkpt lat="62.619639671196" lon="17.957972059027">
        <ele>122.4</ele>
        <time>2017-10-28T13:35:52Z</time>
      </trkpt>
      <trkpt lat="62.619616118057" lon="17.957908524225">
        <ele>122.4</ele>
        <time>2017-10-28T13:35:53Z</time>
      </trkpt>
      <trkpt lat="62.619594828031" lon="17.95785110821">
        <ele>122.4</ele>
        <time>2017-10-28T13:35:54Z</time>
      </trkpt>
      <trkpt lat="62.61956892796" lon="17.95778321482">
        <ele>122.4</ele>
        <time>2017-10-28T13:35:55Z</time>
      </trkpt>
      <trkpt lat="62.619546967382" lon="17.957722613683">
        <ele>122.6</ele>
        <time>2017-10-28T13:35:56Z</time>
      </trkpt>
      <trkpt lat="62.619521821682" lon="17.957647260402">
        <ele>122.6</ele>
        <time>2017-10-28T13:35:57Z</time>
      </trkpt>
      <trkpt lat="62.619500028742" lon="17.957580289021">
        <ele>122.6</ele>
        <time>2017-10-28T13:35:58Z</time>
      </trkpt>
      <trkpt lat="62.619480750372" lon="17.957504851921">
        <ele>122.4</ele>
        <time>2017-10-28T13:35:59Z</time>
      </trkpt>
      <trkpt lat="62.619465327676" lon="17.957411812831">
        <ele>122.6</ele>
        <time>2017-10-28T13:36:00Z</time>
      </trkpt>
      <trkpt lat="62.61945241955" lon="17.9573238867">
        <ele>122.8</ele>
        <time>2017-10-28T13:36:01Z</time>
      </trkpt>
      <trkpt lat="62.619442948003" lon="17.95722581847">
        <ele>123</ele>
        <time>2017-10-28T13:36:02Z</time>
      </trkpt>
      <trkpt lat="62.619434063189" lon="17.957127079688">
        <ele>123.2</ele>
        <time>2017-10-28T13:36:03Z</time>
      </trkpt>
      <trkpt lat="62.619426603298" lon="17.957037560996">
        <ele>123.2</ele>
        <time>2017-10-28T13:36:04Z</time>
      </trkpt>
      <trkpt lat="62.619415874466" lon="17.956917196912">
        <ele>123.2</ele>
        <time>2017-10-28T13:36:05Z</time>
      </trkpt>
      <trkpt lat="62.619408666032" lon="17.956805969099">
        <ele>123</ele>
        <time>2017-10-28T13:36:06Z</time>
      </trkpt>
      <trkpt lat="62.619402379607" lon="17.956694238372">
        <ele>122.6</ele>
        <time>2017-10-28T13:36:07Z</time>
      </trkpt>
      <trkpt lat="62.619392488965" lon="17.956582340007">
        <ele>122.4</ele>
        <time>2017-10-28T13:36:08Z</time>
      </trkpt>
      <trkpt lat="62.619385783445" lon="17.95647228566">
        <ele>122.2</ele>
        <time>2017-10-28T13:36:09Z</time>
      </trkpt>
      <trkpt lat="62.619377485364" lon="17.956356112526">
        <ele>122.2</ele>
        <time>2017-10-28T13:36:10Z</time>
      </trkpt>
      <trkpt lat="62.619370193111" lon="17.956244381799">
        <ele>122</ele>
        <time>2017-10-28T13:36:11Z</time>
      </trkpt>
      <trkpt lat="62.619363068496" lon="17.956129382131">
        <ele>122</ele>
        <time>2017-10-28T13:36:12Z</time>
      </trkpt>
      <trkpt lat="62.619357871718" lon="17.956029469883">
        <ele>121.8</ele>
        <time>2017-10-28T13:36:13Z</time>
      </trkpt>
      <trkpt lat="62.619353680768" lon="17.955944645055">
        <ele>121.6</ele>
        <time>2017-10-28T13:36:14Z</time>
      </trkpt>
      <trkpt lat="62.619348567809" lon="17.955850097223">
        <ele>121.6</ele>
        <time>2017-10-28T13:36:15Z</time>
      </trkpt>
      <trkpt lat="62.619342197565" lon="17.955768541336">
        <ele>121.4</ele>
        <time>2017-10-28T13:36:16Z</time>
      </trkpt>
      <trkpt lat="62.619337671339" lon="17.955675753703">
        <ele>121.4</ele>
        <time>2017-10-28T13:36:17Z</time>
      </trkpt>
      <trkpt lat="62.619331217276" lon="17.955591180332">
        <ele>121.4</ele>
        <time>2017-10-28T13:36:18Z</time>
      </trkpt>
      <trkpt lat="62.619323841204" lon="17.955512055196">
        <ele>121.6</ele>
        <time>2017-10-28T13:36:19Z</time>
      </trkpt>
      <trkpt lat="62.619313531467" lon="17.955421363038">
        <ele>121.8</ele>
        <time>2017-10-28T13:36:20Z</time>
      </trkpt>
      <trkpt lat="62.61930657449" lon="17.955335616201">
        <ele>122</ele>
        <time>2017-10-28T13:36:21Z</time>
      </trkpt>
      <trkpt lat="62.619299114599" lon="17.955254311771">
        <ele>122.2</ele>
        <time>2017-10-28T13:36:22Z</time>
      </trkpt>
      <trkpt lat="62.619291989984" lon="17.955160937405">
        <ele>122.2</ele>
        <time>2017-10-28T13:36:23Z</time>
      </trkpt>
      <trkpt lat="62.61928645793" lon="17.955076364034">
        <ele>122.4</ele>
        <time>2017-10-28T13:36:24Z</time>
      </trkpt>
      <trkpt lat="62.619281009695" lon="17.954976535605">
        <ele>122.6</ele>
        <time>2017-10-28T13:36:25Z</time>
      </trkpt>
      <trkpt lat="62.619277070202" lon="17.954888358017">
        <ele>122.6</ele>
        <time>2017-10-28T13:36:26Z</time>
      </trkpt>
      <trkpt lat="62.619270029406" lon="17.95478920014">
        <ele>122.6</ele>
        <time>2017-10-28T13:36:27Z</time>
      </trkpt>
      <trkpt lat="62.61926131223" lon="17.954698424163">
        <ele>122.8</ele>
        <time>2017-10-28T13:36:28Z</time>
      </trkpt>
      <trkpt lat="62.619254019977" lon="17.954598847191">
        <ele>122.8</ele>
        <time>2017-10-28T13:36:29Z</time>
      </trkpt>
      <trkpt lat="62.619246979181" lon="17.954483763704">
        <ele>122.8</ele>
        <time>2017-10-28T13:36:30Z</time>
      </trkpt>
      <trkpt lat="62.619238262005" lon="17.954373206443">
        <ele>122.6</ele>
        <time>2017-10-28T13:36:31Z</time>
      </trkpt>
      <trkpt lat="62.619229544829" lon="17.954257033309">
        <ele>122.6</ele>
        <time>2017-10-28T13:36:32Z</time>
      </trkpt>
      <trkpt lat="62.619217307255" lon="17.954139351433">
        <ele>122.6</ele>
        <time>2017-10-28T13:36:33Z</time>
      </trkpt>
      <trkpt lat="62.61920599169" lon="17.954034326226">
        <ele>122.4</ele>
        <time>2017-10-28T13:36:34Z</time>
      </trkpt>
      <trkpt lat="62.619191491003" lon="17.953892672116">
        <ele>122.2</ele>
        <time>2017-10-28T13:36:35Z</time>
      </trkpt>
      <trkpt lat="62.619176571221" lon="17.953761076286">
        <ele>122.2</ele>
        <time>2017-10-28T13:36:36Z</time>
      </trkpt>
      <trkpt lat="62.619157460489" lon="17.9536274688">
        <ele>122</ele>
        <time>2017-10-28T13:36:37Z</time>
      </trkpt>
      <trkpt lat="62.619133991169" lon="17.953491262925">
        <ele>121.6</ele>
        <time>2017-10-28T13:36:38Z</time>
      </trkpt>
      <trkpt lat="62.619112030591" lon="17.953365534425">
        <ele>121.2</ele>
        <time>2017-10-28T13:36:39Z</time>
      </trkpt>
      <trkpt lat="62.619086046701" lon="17.953232178396">
        <ele>120.8</ele>
        <time>2017-10-28T13:36:40Z</time>
      </trkpt>
      <trkpt lat="62.619059811354" lon="17.953111059941">
        <ele>120.4</ele>
        <time>2017-10-28T13:36:41Z</time>
      </trkpt>
      <trkpt lat="62.619031983446" lon="17.952982649233">
        <ele>120</ele>
        <time>2017-10-28T13:36:42Z</time>
      </trkpt>
      <trkpt lat="62.619002562977" lon="17.952868655393">
        <ele>119.8</ele>
        <time>2017-10-28T13:36:43Z</time>
      </trkpt>
      <trkpt lat="62.618975740897" lon="17.952764719833">
        <ele>119.4</ele>
        <time>2017-10-28T13:36:44Z</time>
      </trkpt>
      <trkpt lat="62.618945482238" lon="17.952650642174">
        <ele>119.4</ele>
        <time>2017-10-28T13:36:45Z</time>
      </trkpt>
      <trkpt lat="62.618918995434" lon="17.952553076858">
        <ele>119.2</ele>
        <time>2017-10-28T13:36:46Z</time>
      </trkpt>
      <trkpt lat="62.618887814766" lon="17.952450817678">
        <ele>119.2</ele>
        <time>2017-10-28T13:36:47Z</time>
      </trkpt>
      <trkpt lat="62.61885981922" lon="17.952356353665">
        <ele>119.2</ele>
        <time>2017-10-28T13:36:48Z</time>
      </trkpt>
      <trkpt lat="62.618834002968" lon="17.952276222701">
        <ele>119.4</ele>
        <time>2017-10-28T13:36:49Z</time>
      </trkpt>
      <trkpt lat="62.618802570843" lon="17.952190224407">
        <ele>119.6</ele>
        <time>2017-10-28T13:36:50Z</time>
      </trkpt>
      <trkpt lat="62.618773737107" lon="17.952113865298">
        <ele>119.6</ele>
        <time>2017-10-28T13:36:51Z</time>
      </trkpt>
      <trkpt lat="62.618747250303" lon="17.952045217537">
        <ele>119.8</ele>
        <time>2017-10-28T13:36:52Z</time>
      </trkpt>
      <trkpt lat="62.618718919481" lon="17.951968020238">
        <ele>120</ele>
        <time>2017-10-28T13:36:53Z</time>
      </trkpt>
      <trkpt lat="62.618689079917" lon="17.951906245635">
        <ele>120.2</ele>
        <time>2017-10-28T13:36:54Z</time>
      </trkpt>
      <trkpt lat="62.618656809602" lon="17.951836508227">
        <ele>120.4</ele>
        <time>2017-10-28T13:36:55Z</time>
      </trkpt>
      <trkpt lat="62.618629065513" lon="17.951775236538">
        <ele>120.4</ele>
        <time>2017-10-28T13:36:56Z</time>
      </trkpt>
      <trkpt lat="62.618598890673" lon="17.951706924053">
        <ele>120.6</ele>
        <time>2017-10-28T13:36:57Z</time>
      </trkpt>
      <trkpt lat="62.618571062765" lon="17.951647831658">
        <ele>120.8</ele>
        <time>2017-10-28T13:36:58Z</time>
      </trkpt>
      <trkpt lat="62.618542731943" lon="17.951588403987">
        <ele>120.8</ele>
        <time>2017-10-28T13:36:59Z</time>
      </trkpt>
      <trkpt lat="62.618508030877" lon="17.951531742343">
        <ele>121</ele>
        <time>2017-10-28T13:37:00Z</time>
      </trkpt>
      <trkpt lat="62.618476095838" lon="17.95148421697">
        <ele>121.2</ele>
        <time>2017-10-28T13:37:01Z</time>
      </trkpt>
      <trkpt lat="62.618444663713" lon="17.951438787072">
        <ele>121.4</ele>
        <time>2017-10-28T13:37:02Z</time>
      </trkpt>
      <trkpt lat="62.618412058122" lon="17.951400314151">
        <ele>121.6</ele>
        <time>2017-10-28T13:37:03Z</time>
      </trkpt>
      <trkpt lat="62.618381883282" lon="17.951377515383">
        <ele>121.8</ele>
        <time>2017-10-28T13:37:04Z</time>
      </trkpt>
      <trkpt lat="62.618341985438" lon="17.951351699131">
        <ele>121.8</ele>
        <time>2017-10-28T13:37:05Z</time>
      </trkpt>
      <trkpt lat="62.618305607992" lon="17.951340551204">
        <ele>121.8</ele>
        <time>2017-10-28T13:37:06Z</time>
      </trkpt>
      <trkpt lat="62.618269817279" lon="17.951351280036">
        <ele>122</ele>
        <time>2017-10-28T13:37:07Z</time>
      </trkpt>
      <trkpt lat="62.618238385154" lon="17.95138447236">
        <ele>121.8</ele>
        <time>2017-10-28T13:37:08Z</time>
      </trkpt>
      <trkpt lat="62.618216256938" lon="17.951433255018">
        <ele>121.8</ele>
        <time>2017-10-28T13:37:09Z</time>
      </trkpt>
      <trkpt lat="62.618199157862" lon="17.951493269422">
        <ele>121.8</ele>
        <time>2017-10-28T13:37:10Z</time>
      </trkpt>
      <trkpt lat="62.618187926116" lon="17.951553200007">
        <ele>121.8</ele>
        <time>2017-10-28T13:37:11Z</time>
      </trkpt>
      <trkpt lat="62.618176526732" lon="17.951622434501">
        <ele>121.6</ele>
        <time>2017-10-28T13:37:12Z</time>
      </trkpt>
      <trkpt lat="62.618169402117" lon="17.951685298751">
        <ele>121.6</ele>
        <time>2017-10-28T13:37:13Z</time>
      </trkpt>
      <trkpt lat="62.618160265846" lon="17.951746738078">
        <ele>121.8</ele>
        <time>2017-10-28T13:37:14Z</time>
      </trkpt>
      <trkpt lat="62.618147106263" lon="17.951814882925">
        <ele>121.8</ele>
        <time>2017-10-28T13:37:15Z</time>
      </trkpt>
      <trkpt lat="62.618139143458" lon="17.951875819338">
        <ele>122</ele>
        <time>2017-10-28T13:37:16Z</time>
      </trkpt>
      <trkpt lat="62.618129671911" lon="17.951944802375">
        <ele>122.4</ele>
        <time>2017-10-28T13:37:17Z</time>
      </trkpt>
      <trkpt lat="62.618120200364" lon="17.952011941394">
        <ele>122.8</ele>
        <time>2017-10-28T13:37:18Z</time>
      </trkpt>
      <trkpt lat="62.618113243387" lon="17.952074973282">
        <ele>123</ele>
        <time>2017-10-28T13:37:19Z</time>
      </trkpt>
      <trkpt lat="62.618106705505" lon="17.952148566364">
        <ele>123.2</ele>
        <time>2017-10-28T13:37:20Z</time>
      </trkpt>
      <trkpt lat="62.61809455175" lon="17.952216124478">
        <ele>123.4</ele>
        <time>2017-10-28T13:37:21Z</time>
      </trkpt>
      <trkpt lat="62.618088516782" lon="17.952282090031">
        <ele>123.4</ele>
        <time>2017-10-28T13:37:22Z</time>
      </trkpt>
      <trkpt lat="62.618080386339" lon="17.952359622606">
        <ele>123.6</ele>
        <time>2017-10-28T13:37:23Z</time>
      </trkpt>
      <trkpt lat="62.61807192062" lon="17.95243053348">
        <ele>123.8</ele>
        <time>2017-10-28T13:37:24Z</time>
      </trkpt>
      <trkpt lat="62.618065634195" lon="17.952510412987">
        <ele>124</ele>
        <time>2017-10-28T13:37:25Z</time>
      </trkpt>
      <trkpt lat="62.61806018596" lon="17.952578976929">
        <ele>124.2</ele>
        <time>2017-10-28T13:37:26Z</time>
      </trkpt>
      <trkpt lat="62.618054067173" lon="17.952656509504">
        <ele>124.4</ele>
        <time>2017-10-28T13:37:27Z</time>
      </trkpt>
      <trkpt lat="62.618045601454" lon="17.952723983799">
        <ele>124.6</ele>
        <time>2017-10-28T13:37:28Z</time>
      </trkpt>
      <trkpt lat="62.618037387192" lon="17.952796571053">
        <ele>124.8</ele>
        <time>2017-10-28T13:37:29Z</time>
      </trkpt>
      <trkpt lat="62.618027664188" lon="17.952876282922">
        <ele>124.8</ele>
        <time>2017-10-28T13:37:30Z</time>
      </trkpt>
      <trkpt lat="62.618018192641" lon="17.952949792185">
        <ele>125</ele>
        <time>2017-10-28T13:37:31Z</time>
      </trkpt>
      <trkpt lat="62.618010062198" lon="17.953022882353">
        <ele>125</ele>
        <time>2017-10-28T13:37:32Z</time>
      </trkpt>
      <trkpt lat="62.618005787429" lon="17.953098738548">
        <ele>125.2</ele>
        <time>2017-10-28T13:37:33Z</time>
      </trkpt>
      <trkpt lat="62.618000003918" lon="17.953162943902">
        <ele>125.2</ele>
        <time>2017-10-28T13:37:34Z</time>
      </trkpt>
      <trkpt lat="62.617993382217" lon="17.953241649943">
        <ele>125.4</ele>
        <time>2017-10-28T13:37:35Z</time>
      </trkpt>
      <trkpt lat="62.617987095792" lon="17.95330728022">
        <ele>125.6</ele>
        <time>2017-10-28T13:37:36Z</time>
      </trkpt>
      <trkpt lat="62.617980893186" lon="17.953371737031">
        <ele>126</ele>
        <time>2017-10-28T13:37:37Z</time>
      </trkpt>
      <trkpt lat="62.617976283141" lon="17.953416077282">
        <ele>126</ele>
        <time>2017-10-28T13:37:38Z</time>
      </trkpt>
      <trkpt lat="62.617971254001" lon="17.953487658708">
        <ele>126.4</ele>
        <time>2017-10-28T13:37:39Z</time>
      </trkpt>
      <trkpt lat="62.617966895413" lon="17.953549600949">
        <ele>126.6</ele>
        <time>2017-10-28T13:37:40Z</time>
      </trkpt>
      <trkpt lat="62.617964716119" lon="17.953615482683">
        <ele>126.8</ele>
        <time>2017-10-28T13:37:41Z</time>
      </trkpt>
      <trkpt lat="62.617963207377" lon="17.953682286426">
        <ele>127</ele>
        <time>2017-10-28T13:37:42Z</time>
      </trkpt>
      <trkpt lat="62.617957423866" lon="17.953744563943">
        <ele>127.2</ele>
        <time>2017-10-28T13:37:43Z</time>
      </trkpt>
      <trkpt lat="62.617951053622" lon="17.953801141768">
        <ele>127.4</ele>
        <time>2017-10-28T13:37:44Z</time>
      </trkpt>
      <trkpt lat="62.617946024482" lon="17.953865430941">
        <ele>127.6</ele>
        <time>2017-10-28T13:37:45Z</time>
      </trkpt>
      <trkpt lat="62.617947114129" lon="17.953923936603">
        <ele>127.8</ele>
        <time>2017-10-28T13:37:46Z</time>
      </trkpt>
      <trkpt lat="62.617946275939" lon="17.953987136129">
        <ele>128</ele>
        <time>2017-10-28T13:37:47Z</time>
      </trkpt>
      <trkpt lat="62.617942504084" lon="17.954045390334">
        <ele>128.2</ele>
        <time>2017-10-28T13:37:48Z</time>
      </trkpt>
      <trkpt lat="62.6179394866" lon="17.954105572376">
        <ele>128.4</ele>
        <time>2017-10-28T13:37:49Z</time>
      </trkpt>
      <trkpt lat="62.617939402781" lon="17.954168771902">
        <ele>128.6</ele>
        <time>2017-10-28T13:37:50Z</time>
      </trkpt>
      <trkpt lat="62.617937894039" lon="17.954230546505">
        <ele>129</ele>
        <time>2017-10-28T13:37:51Z</time>
      </trkpt>
      <trkpt lat="62.617935714745" lon="17.954286202321">
        <ele>129.4</ele>
        <time>2017-10-28T13:37:52Z</time>
      </trkpt>
      <trkpt lat="62.617933283994" lon="17.954350240037">
        <ele>129.6</ele>
        <time>2017-10-28T13:37:53Z</time>
      </trkpt>
      <trkpt lat="62.617931691433" lon="17.954410002984">
        <ele>130</ele>
        <time>2017-10-28T13:37:54Z</time>
      </trkpt>
      <trkpt lat="62.617928757768" lon="17.954475214166">
        <ele>130.2</ele>
        <time>2017-10-28T13:37:55Z</time>
      </trkpt>
      <trkpt lat="62.617930350329" lon="17.954537407864">
        <ele>130.4</ele>
        <time>2017-10-28T13:37:56Z</time>
      </trkpt>
      <trkpt lat="62.617931607614" lon="17.954600523571">
        <ele>130.8</ele>
        <time>2017-10-28T13:37:57Z</time>
      </trkpt>
      <trkpt lat="62.617932445804" lon="17.954660035061">
        <ele>130.8</ele>
        <time>2017-10-28T13:37:58Z</time>
      </trkpt>
      <trkpt lat="62.617925069732" lon="17.954719881827">
        <ele>131.2</ele>
        <time>2017-10-28T13:37:59Z</time>
      </trkpt>
      <trkpt lat="62.617909898493" lon="17.954780985878">
        <ele>131.4</ele>
        <time>2017-10-28T13:38:00Z</time>
      </trkpt>
      <trkpt lat="62.617885590983" lon="17.954819291161">
        <ele>131.4</ele>
        <time>2017-10-28T13:38:01Z</time>
      </trkpt>
      <trkpt lat="62.617857008704" lon="17.954834546219">
        <ele>131.6</ele>
        <time>2017-10-28T13:38:02Z</time>
      </trkpt>
      <trkpt lat="62.617830605719" lon="17.95483697697">
        <ele>131.8</ele>
        <time>2017-10-28T13:38:03Z</time>
      </trkpt>
      <trkpt lat="62.617806801123" lon="17.954837479884">
        <ele>132</ele>
        <time>2017-10-28T13:38:04Z</time>
      </trkpt>
      <trkpt lat="62.617779224672" lon="17.954845526508">
        <ele>132.2</ele>
        <time>2017-10-28T13:38:05Z</time>
      </trkpt>
      <trkpt lat="62.617753911334" lon="17.954861368299">
        <ele>132.4</ele>
        <time>2017-10-28T13:38:06Z</time>
      </trkpt>
      <trkpt lat="62.617730190557" lon="17.954877880642">
        <ele>132.6</ele>
        <time>2017-10-28T13:38:07Z</time>
      </trkpt>
      <trkpt lat="62.617706218323" lon="17.954899170668">
        <ele>132.8</ele>
        <time>2017-10-28T13:38:08Z</time>
      </trkpt>
      <trkpt lat="62.617682749003" lon="17.954924819282">
        <ele>133</ele>
        <time>2017-10-28T13:38:09Z</time>
      </trkpt>
      <trkpt lat="62.617662129529" lon="17.954958095425">
        <ele>133</ele>
        <time>2017-10-28T13:38:10Z</time>
      </trkpt>
      <trkpt lat="62.617639246942" lon="17.954998412364">
        <ele>133.2</ele>
        <time>2017-10-28T13:38:11Z</time>
      </trkpt>
      <trkpt lat="62.617616112898" lon="17.955037472018">
        <ele>133.4</ele>
        <time>2017-10-28T13:38:12Z</time>
      </trkpt>
      <trkpt lat="62.617593565587" lon="17.955069574695">
        <ele>133.6</ele>
        <time>2017-10-28T13:38:13Z</time>
      </trkpt>
      <trkpt lat="62.617572862294" lon="17.955106203598">
        <ele>133.8</ele>
        <time>2017-10-28T13:38:14Z</time>
      </trkpt>
      <trkpt lat="62.617551907544" lon="17.955152304048">
        <ele>134.2</ele>
        <time>2017-10-28T13:38:15Z</time>
      </trkpt>
      <trkpt lat="62.617534137916" lon="17.955200583792">
        <ele>134.6</ele>
        <time>2017-10-28T13:38:16Z</time>
      </trkpt>
      <trkpt lat="62.617518631401" lon="17.955256155789">
        <ele>134.8</ele>
        <time>2017-10-28T13:38:17Z</time>
      </trkpt>
      <trkpt lat="62.61750446599" lon="17.955308207388">
        <ele>135</ele>
        <time>2017-10-28T13:38:18Z</time>
      </trkpt>
      <trkpt lat="62.617488037466" lon="17.955366210136">
        <ele>135.4</ele>
        <time>2017-10-28T13:38:19Z</time>
      </trkpt>
      <trkpt lat="62.617470267838" lon="17.9554211954">
        <ele>135.6</ele>
        <time>2017-10-28T13:38:20Z</time>
      </trkpt>
      <trkpt lat="62.617454509866" lon="17.955477102673">
        <ele>135.8</ele>
        <time>2017-10-28T13:38:21Z</time>
      </trkpt>
      <trkpt lat="62.617439590084" lon="17.955528232263">
        <ele>136</ele>
        <time>2017-10-28T13:38:22Z</time>
      </trkpt>
      <trkpt lat="62.617421149904" lon="17.955583720441">
        <ele>136.2</ele>
        <time>2017-10-28T13:38:23Z</time>
      </trkpt>
      <trkpt lat="62.617406481579" lon="17.955636526411">
        <ele>136.4</ele>
        <time>2017-10-28T13:38:24Z</time>
      </trkpt>
      <trkpt lat="62.617390723607" lon="17.955699390661">
        <ele>136.6</ele>
        <time>2017-10-28T13:38:25Z</time>
      </trkpt>
      <trkpt lat="62.61737622292" lon="17.95576401511">
        <ele>136.8</ele>
        <time>2017-10-28T13:38:26Z</time>
      </trkpt>
      <trkpt lat="62.617363230975" lon="17.955822017858">
        <ele>137</ele>
        <time>2017-10-28T13:38:27Z</time>
      </trkpt>
      <trkpt lat="62.617352166867" lon="17.955877841312">
        <ele>137.2</ele>
        <time>2017-10-28T13:38:28Z</time>
      </trkpt>
      <trkpt lat="62.617340683664" lon="17.955933245671">
        <ele>137.2</ele>
        <time>2017-10-28T13:38:29Z</time>
      </trkpt>
      <trkpt lat="62.617326602072" lon="17.955991583695">
        <ele>137.4</ele>
        <time>2017-10-28T13:38:30Z</time>
      </trkpt>
      <trkpt lat="62.617315537964" lon="17.956048748253">
        <ele>137.4</ele>
        <time>2017-10-28T13:38:31Z</time>
      </trkpt>
      <trkpt lat="62.617306485512" lon="17.95610348206">
        <ele>137.6</ele>
        <time>2017-10-28T13:38:32Z</time>
      </trkpt>
      <trkpt lat="62.617297181603" lon="17.956158048229">
        <ele>137.6</ele>
        <time>2017-10-28T13:38:33Z</time>
      </trkpt>
      <trkpt lat="62.617288045332" lon="17.956210938018">
        <ele>138</ele>
        <time>2017-10-28T13:38:34Z</time>
      </trkpt>
      <trkpt lat="62.617276562129" lon="17.956270533327">
        <ele>138.2</ele>
        <time>2017-10-28T13:38:35Z</time>
      </trkpt>
      <trkpt lat="62.617264576012" lon="17.956324931858">
        <ele>138.6</ele>
        <time>2017-10-28T13:38:36Z</time>
      </trkpt>
      <trkpt lat="62.617257367578" lon="17.956381844959">
        <ele>138.8</ele>
        <time>2017-10-28T13:38:37Z</time>
      </trkpt>
      <trkpt lat="62.617249907687" lon="17.956441021173">
        <ele>139.2</ele>
        <time>2017-10-28T13:38:38Z</time>
      </trkpt>
      <trkpt lat="62.617241777244" lon="17.956497682817">
        <ele>139.4</ele>
        <time>2017-10-28T13:38:39Z</time>
      </trkpt>
      <trkpt lat="62.61723792157" lon="17.956559625058">
        <ele>139.6</ele>
        <time>2017-10-28T13:38:40Z</time>
      </trkpt>
      <trkpt lat="62.617233479163" lon="17.956626764077">
        <ele>139.6</ele>
        <time>2017-10-28T13:38:41Z</time>
      </trkpt>
      <trkpt lat="62.617227192738" lon="17.956693735458">
        <ele>139.8</ele>
        <time>2017-10-28T13:38:42Z</time>
      </trkpt>
      <trkpt lat="62.617219146114" lon="17.956761628848">
        <ele>140</ele>
        <time>2017-10-28T13:38:43Z</time>
      </trkpt>
      <trkpt lat="62.617207830549" lon="17.956822984356">
        <ele>140</ele>
        <time>2017-10-28T13:38:44Z</time>
      </trkpt>
      <trkpt lat="62.617200622115" lon="17.956889033728">
        <ele>140.2</ele>
        <time>2017-10-28T13:38:45Z</time>
      </trkpt>
      <trkpt lat="62.617194670966" lon="17.956954077272">
        <ele>140.4</ele>
        <time>2017-10-28T13:38:46Z</time>
      </trkpt>
      <trkpt lat="62.617186037609" lon="17.957022641214">
        <ele>140.4</ele>
        <time>2017-10-28T13:38:47Z</time>
      </trkpt>
      <trkpt lat="62.617177236614" lon="17.9570891935">
        <ele>140.6</ele>
        <time>2017-10-28T13:38:48Z</time>
      </trkpt>
      <trkpt lat="62.617167094515" lon="17.957158008899">
        <ele>140.6</ele>
        <time>2017-10-28T13:38:49Z</time>
      </trkpt>
      <trkpt lat="62.61715577895" lon="17.957232021076">
        <ele>140.6</ele>
        <time>2017-10-28T13:38:50Z</time>
      </trkpt>
      <trkpt lat="62.617150163077" lon="17.95730293195">
        <ele>140.8</ele>
        <time>2017-10-28T13:38:51Z</time>
      </trkpt>
      <trkpt lat="62.617144379566" lon="17.957368729865">
        <ele>140.8</ele>
        <time>2017-10-28T13:38:52Z</time>
      </trkpt>
      <trkpt lat="62.617138428417" lon="17.957441065662">
        <ele>141</ele>
        <time>2017-10-28T13:38:53Z</time>
      </trkpt>
      <trkpt lat="62.617131806716" lon="17.957508456138">
        <ele>141.2</ele>
        <time>2017-10-28T13:38:54Z</time>
      </trkpt>
      <trkpt lat="62.6171264423" lon="17.957584647609">
        <ele>141.2</ele>
        <time>2017-10-28T13:38:55Z</time>
      </trkpt>
      <trkpt lat="62.617122335169" lon="17.957655055569">
        <ele>141.4</ele>
        <time>2017-10-28T13:38:56Z</time>
      </trkpt>
      <trkpt lat="62.617116300201" lon="17.957729654479">
        <ele>141.4</ele>
        <time>2017-10-28T13:38:57Z</time>
      </trkpt>
      <trkpt lat="62.617109259405" lon="17.957796877317">
        <ele>141.6</ele>
        <time>2017-10-28T13:38:58Z</time>
      </trkpt>
      <trkpt lat="62.617098865849" lon="17.957863429603">
        <ele>141.6</ele>
        <time>2017-10-28T13:38:59Z</time>
      </trkpt>
      <trkpt lat="62.617091405958" lon="17.957944566395">
        <ele>141.6</ele>
        <time>2017-10-28T13:39:00Z</time>
      </trkpt>
      <trkpt lat="62.617086795913" lon="17.95801455526">
        <ele>141.8</ele>
        <time>2017-10-28T13:39:01Z</time>
      </trkpt>
      <trkpt lat="62.61708201823" lon="17.95808077227">
        <ele>141.8</ele>
        <time>2017-10-28T13:39:02Z</time>
      </trkpt>
      <trkpt lat="62.61707363633" lon="17.958152521334">
        <ele>142</ele>
        <time>2017-10-28T13:39:03Z</time>
      </trkpt>
      <trkpt lat="62.617065673525" lon="17.958224521855">
        <ele>142</ele>
        <time>2017-10-28T13:39:04Z</time>
      </trkpt>
      <trkpt lat="62.617055699064" lon="17.958303227896">
        <ele>142.2</ele>
        <time>2017-10-28T13:39:05Z</time>
      </trkpt>
      <trkpt lat="62.61704932882" lon="17.958378916453">
        <ele>142.2</ele>
        <time>2017-10-28T13:39:06Z</time>
      </trkpt>
      <trkpt lat="62.617042455662" lon="17.958458041589">
        <ele>142.2</ele>
        <time>2017-10-28T13:39:07Z</time>
      </trkpt>
      <trkpt lat="62.617034911952" lon="17.958526856988">
        <ele>142.4</ele>
        <time>2017-10-28T13:39:08Z</time>
      </trkpt>
      <trkpt lat="62.617029715174" lon="17.958589805057">
        <ele>142.4</ele>
        <time>2017-10-28T13:39:09Z</time>
      </trkpt>
      <trkpt lat="62.617022842016" lon="17.958657949904">
        <ele>142.4</ele>
        <time>2017-10-28T13:39:10Z</time>
      </trkpt>
      <trkpt lat="62.617018651066" lon="17.958730118063">
        <ele>142.4</ele>
        <time>2017-10-28T13:39:11Z</time>
      </trkpt>
      <trkpt lat="62.617014711573" lon="17.958805638982">
        <ele>142.6</ele>
        <time>2017-10-28T13:39:12Z</time>
      </trkpt>
      <trkpt lat="62.617023261111" lon="17.958877807141">
        <ele>142.6</ele>
        <time>2017-10-28T13:39:13Z</time>
      </trkpt>
      <trkpt lat="62.617040192549" lon="17.95892902055">
        <ele>142.6</ele>
        <time>2017-10-28T13:39:14Z</time>
      </trkpt>
      <trkpt lat="62.617061650213" lon="17.95899020842">
        <ele>142.8</ele>
        <time>2017-10-28T13:39:15Z</time>
      </trkpt>
      <trkpt lat="62.617070451208" lon="17.95905810181">
        <ele>142.8</ele>
        <time>2017-10-28T13:39:16Z</time>
      </trkpt>
      <trkpt lat="62.617072714321" lon="17.959130689064">
        <ele>142.8</ele>
        <time>2017-10-28T13:39:17Z</time>
      </trkpt>
      <trkpt lat="62.617074725977" lon="17.959193553314">
        <ele>142.8</ele>
        <time>2017-10-28T13:39:18Z</time>
      </trkpt>
      <trkpt lat="62.617084197524" lon="17.959256669021">
        <ele>142.6</ele>
        <time>2017-10-28T13:39:19Z</time>
      </trkpt>
      <trkpt lat="62.617098530573" lon="17.959311151371">
        <ele>142.6</ele>
        <time>2017-10-28T13:39:20Z</time>
      </trkpt>
      <trkpt lat="62.617118982409" lon="17.959337470537">
        <ele>142.4</ele>
        <time>2017-10-28T13:39:21Z</time>
      </trkpt>
      <trkpt lat="62.617143373738" lon="17.95934727736">
        <ele>142.2</ele>
        <time>2017-10-28T13:39:22Z</time>
      </trkpt>
      <trkpt lat="62.617168016524" lon="17.959343756962">
        <ele>142.2</ele>
        <time>2017-10-28T13:39:23Z</time>
      </trkpt>
      <trkpt lat="62.617192491672" lon="17.959324478592">
        <ele>142</ele>
        <time>2017-10-28T13:39:24Z</time>
      </trkpt>
      <trkpt lat="62.617211183309" lon="17.959275109201">
        <ele>142</ele>
        <time>2017-10-28T13:39:25Z</time>
      </trkpt>
      <trkpt lat="62.617213446422" lon="17.959214759521">
        <ele>142</ele>
        <time>2017-10-28T13:39:26Z</time>
      </trkpt>
      <trkpt lat="62.617198778097" lon="17.959157259687">
        <ele>142</ele>
        <time>2017-10-28T13:39:27Z</time>
      </trkpt>
      <trkpt lat="62.61717589551" lon="17.959109482857">
        <ele>141.8</ele>
        <time>2017-10-28T13:39:28Z</time>
      </trkpt>
      <trkpt lat="62.617150498353" lon="17.95906564552">
        <ele>141.8</ele>
        <time>2017-10-28T13:39:29Z</time>
      </trkpt>
      <trkpt lat="62.617119066228" lon="17.959022562554">
        <ele>141.8</ele>
        <time>2017-10-28T13:39:30Z</time>
      </trkpt>
      <trkpt lat="62.61709040013" lon="17.958979395769">
        <ele>141.6</ele>
        <time>2017-10-28T13:39:31Z</time>
      </trkpt>
      <trkpt lat="62.617061566394" lon="17.958939162649">
        <ele>141.8</ele>
        <time>2017-10-28T13:39:32Z</time>
      </trkpt>
      <trkpt lat="62.617033906124" lon="17.958911502379">
        <ele>142</ele>
        <time>2017-10-28T13:39:33Z</time>
      </trkpt>
      <trkpt lat="62.617002725456" lon="17.95888375829">
        <ele>142.2</ele>
        <time>2017-10-28T13:39:34Z</time>
      </trkpt>
      <trkpt lat="62.616968192028" lon="17.958849057224">
        <ele>142.4</ele>
        <time>2017-10-28T13:39:35Z</time>
      </trkpt>
      <trkpt lat="62.616933490962" lon="17.958818798565">
        <ele>142.6</ele>
        <time>2017-10-28T13:39:36Z</time>
      </trkpt>
      <trkpt lat="62.616898203163" lon="17.958791305933">
        <ele>142.8</ele>
        <time>2017-10-28T13:39:37Z</time>
      </trkpt>
      <trkpt lat="62.616865849029" lon="17.958770015907">
        <ele>142.6</ele>
        <time>2017-10-28T13:39:38Z</time>
      </trkpt>
      <trkpt lat="62.61683726675" lon="17.958745289302">
        <ele>142.6</ele>
        <time>2017-10-28T13:39:39Z</time>
      </trkpt>
      <trkpt lat="62.616803487693" lon="17.958730620977">
        <ele>142.8</ele>
        <time>2017-10-28T13:39:40Z</time>
      </trkpt>
      <trkpt lat="62.616772139387" lon="17.958706984019">
        <ele>142.8</ele>
        <time>2017-10-28T13:39:41Z</time>
      </trkpt>
      <trkpt lat="62.616740791081" lon="17.958684436708">
        <ele>143</ele>
        <time>2017-10-28T13:39:42Z</time>
      </trkpt>
      <trkpt lat="62.616711454431" lon="17.958663398139">
        <ele>143.2</ele>
        <time>2017-10-28T13:39:43Z</time>
      </trkpt>
      <trkpt lat="62.616683458885" lon="17.95864487414">
        <ele>143.4</ele>
        <time>2017-10-28T13:39:44Z</time>
      </trkpt>
      <trkpt lat="62.616652781131" lon="17.958614364024">
        <ele>143.6</ele>
        <time>2017-10-28T13:39:45Z</time>
      </trkpt>
      <trkpt lat="62.616625288499" lon="17.958581758433">
        <ele>143.8</ele>
        <time>2017-10-28T13:39:46Z</time>
      </trkpt>
      <trkpt lat="62.616599388428" lon="17.958541692951">
        <ele>144</ele>
        <time>2017-10-28T13:39:47Z</time>
      </trkpt>
      <trkpt lat="62.616573153081" lon="17.958513026853">
        <ele>144.2</ele>
        <time>2017-10-28T13:39:48Z</time>
      </trkpt>
      <trkpt lat="62.616544403164" lon="17.958487378239">
        <ele>144.4</ele>
        <time>2017-10-28T13:39:49Z</time>
      </trkpt>
      <trkpt lat="62.616512300487" lon="17.958459550331">
        <ele>144.6</ele>
        <time>2017-10-28T13:39:50Z</time>
      </trkpt>
      <trkpt lat="62.616482460923" lon="17.958430800414">
        <ele>144.8</ele>
        <time>2017-10-28T13:39:51Z</time>
      </trkpt>
      <trkpt lat="62.61645421392" lon="17.958393081864">
        <ele>145.2</ele>
        <time>2017-10-28T13:39:52Z</time>
      </trkpt>
      <trkpt lat="62.616425547822" lon="17.958353435477">
        <ele>145.4</ele>
        <time>2017-10-28T13:39:53Z</time>
      </trkpt>
      <trkpt lat="62.616397552276" lon="17.958322338628">
        <ele>145.8</ele>
        <time>2017-10-28T13:39:54Z</time>
      </trkpt>
      <trkpt lat="62.616365281961" lon="17.95828696701">
        <ele>146</ele>
        <time>2017-10-28T13:39:55Z</time>
      </trkpt>
      <trkpt lat="62.616336112949" lon="17.9582458957">
        <ele>146.4</ele>
        <time>2017-10-28T13:39:56Z</time>
      </trkpt>
      <trkpt lat="62.616308704136" lon="17.958198202689">
        <ele>146.6</ele>
        <time>2017-10-28T13:39:57Z</time>
      </trkpt>
      <trkpt lat="62.616285402454" lon="17.958155119723">
        <ele>146.8</ele>
        <time>2017-10-28T13:39:58Z</time>
      </trkpt>
      <trkpt lat="62.616260675849" lon="17.958113629318">
        <ele>147</ele>
        <time>2017-10-28T13:39:59Z</time>
      </trkpt>
      <trkpt lat="62.616234105226" lon="17.958063254099">
        <ele>147.2</ele>
        <time>2017-10-28T13:40:00Z</time>
      </trkpt>
      <trkpt lat="62.616209546259" lon="17.958017153649">
        <ele>147.6</ele>
        <time>2017-10-28T13:40:01Z</time>
      </trkpt>
      <trkpt lat="62.616185071111" lon="17.957972813398">
        <ele>147.8</ele>
        <time>2017-10-28T13:40:02Z</time>
      </trkpt>
      <trkpt lat="62.61616000923" lon="17.957934424296">
        <ele>147.8</ele>
        <time>2017-10-28T13:40:03Z</time>
      </trkpt>
      <trkpt lat="62.616135450263" lon="17.95789553228">
        <ele>148</ele>
        <time>2017-10-28T13:40:04Z</time>
      </trkpt>
      <trkpt lat="62.616107287079" lon="17.957846665803">
        <ele>148</ele>
        <time>2017-10-28T13:40:05Z</time>
      </trkpt>
      <trkpt lat="62.616081554646" lon="17.957801152086">
        <ele>148.2</ele>
        <time>2017-10-28T13:40:06Z</time>
      </trkpt>
      <trkpt lat="62.616058755878" lon="17.957751195962">
        <ele>148.2</ele>
        <time>2017-10-28T13:40:07Z</time>
      </trkpt>
      <trkpt lat="62.616032688169" lon="17.957705430788">
        <ele>148.4</ele>
        <time>2017-10-28T13:40:08Z</time>
      </trkpt>
      <trkpt lat="62.616011565781" lon="17.957653714465">
        <ele>148.6</ele>
        <time>2017-10-28T13:40:09Z</time>
      </trkpt>
      <trkpt lat="62.615987677366" lon="17.957602333418">
        <ele>148.8</ele>
        <time>2017-10-28T13:40:10Z</time>
      </trkpt>
      <trkpt lat="62.615963202218" lon="17.957548353982">
        <ele>148.8</ele>
        <time>2017-10-28T13:40:11Z</time>
      </trkpt>
      <trkpt lat="62.615939732898" lon="17.957495464193">
        <ele>149</ele>
        <time>2017-10-28T13:40:12Z</time>
      </trkpt>
      <trkpt lat="62.615914000465" lon="17.957449028467">
        <ele>149.2</ele>
        <time>2017-10-28T13:40:13Z</time>
      </trkpt>
      <trkpt lat="62.615890698783" lon="17.957409968813">
        <ele>149.4</ele>
        <time>2017-10-28T13:40:14Z</time>
      </trkpt>
      <trkpt lat="62.615863541427" lon="17.957365880019">
        <ele>149.8</ele>
        <time>2017-10-28T13:40:15Z</time>
      </trkpt>
      <trkpt lat="62.61583982065" lon="17.957324389614">
        <ele>149.8</ele>
        <time>2017-10-28T13:40:16Z</time>
      </trkpt>
      <trkpt lat="62.615815177864" lon="17.957281558105">
        <ele>150.2</ele>
        <time>2017-10-28T13:40:17Z</time>
      </trkpt>
      <trkpt lat="62.615790786535" lon="17.957241241166">
        <ele>150.2</ele>
        <time>2017-10-28T13:40:18Z</time>
      </trkpt>
      <trkpt lat="62.615765808473" lon="17.957197571467">
        <ele>150.4</ele>
        <time>2017-10-28T13:40:19Z</time>
      </trkpt>
      <trkpt lat="62.615738232022" lon="17.95715038137">
        <ele>150.6</ele>
        <time>2017-10-28T13:40:20Z</time>
      </trkpt>
      <trkpt lat="62.615712331951" lon="17.957110315888">
        <ele>150.8</ele>
        <time>2017-10-28T13:40:21Z</time>
      </trkpt>
      <trkpt lat="62.615689197907" lon="17.957064466895">
        <ele>150.8</ele>
        <time>2017-10-28T13:40:22Z</time>
      </trkpt>
      <trkpt lat="62.615665393311" lon="17.957012163839">
        <ele>151.2</ele>
        <time>2017-10-28T13:40:23Z</time>
      </trkpt>
      <trkpt lat="62.615644857656" lon="17.956961285706">
        <ele>151.2</ele>
        <time>2017-10-28T13:40:24Z</time>
      </trkpt>
      <trkpt lat="62.615621975069" lon="17.956908731193">
        <ele>151.2</ele>
        <time>2017-10-28T13:40:25Z</time>
      </trkpt>
      <trkpt lat="62.615598338111" lon="17.956869000987">
        <ele>151.4</ele>
        <time>2017-10-28T13:40:26Z</time>
      </trkpt>
      <trkpt lat="62.615575287886" lon="17.956833964645">
        <ele>151.6</ele>
        <time>2017-10-28T13:40:27Z</time>
      </trkpt>
      <trkpt lat="62.615554416955" lon="17.956796329914">
        <ele>151.6</ele>
        <time>2017-10-28T13:40:28Z</time>
      </trkpt>
      <trkpt lat="62.615535641499" lon="17.956756599708">
        <ele>151.8</ele>
        <time>2017-10-28T13:40:29Z</time>
      </trkpt>
      <trkpt lat="62.615515944034" lon="17.956708236145">
        <ele>152</ele>
        <time>2017-10-28T13:40:30Z</time>
      </trkpt>
      <trkpt lat="62.615498844958" lon="17.956661968057">
        <ele>152.2</ele>
        <time>2017-10-28T13:40:31Z</time>
      </trkpt>
      <trkpt lat="62.61548023714" lon="17.956619220367">
        <ele>152.6</ele>
        <time>2017-10-28T13:40:32Z</time>
      </trkpt>
      <trkpt lat="62.615461545503" lon="17.956586782414">
        <ele>152.8</ele>
        <time>2017-10-28T13:40:33Z</time>
      </trkpt>
      <trkpt lat="62.615440926029" lon="17.956551159339">
        <ele>153.2</ele>
        <time>2017-10-28T13:40:34Z</time>
      </trkpt>
      <trkpt lat="62.615416618519" lon="17.956517380282">
        <ele>153.4</ele>
        <time>2017-10-28T13:40:35Z</time>
      </trkpt>
      <trkpt lat="62.615393400656" lon="17.956486367252">
        <ele>153.8</ele>
        <time>2017-10-28T13:40:36Z</time>
      </trkpt>
      <trkpt lat="62.615371188621" lon="17.956452839652">
        <ele>154</ele>
        <time>2017-10-28T13:40:37Z</time>
      </trkpt>
      <trkpt lat="62.615357107029" lon="17.956423419183">
        <ele>154.2</ele>
        <time>2017-10-28T13:40:38Z</time>
      </trkpt>
      <trkpt lat="62.615331626053" lon="17.956382850787">
        <ele>154.6</ele>
        <time>2017-10-28T13:40:39Z</time>
      </trkpt>
      <trkpt lat="62.615309162561" lon="17.956353849413">
        <ele>154.8</ele>
        <time>2017-10-28T13:40:40Z</time>
      </trkpt>
      <trkpt lat="62.61528577706" lon="17.956321495279">
        <ele>155</ele>
        <time>2017-10-28T13:40:41Z</time>
      </trkpt>
      <trkpt lat="62.615263816482" lon="17.956289644059">
        <ele>155.2</ele>
        <time>2017-10-28T13:40:42Z</time>
      </trkpt>
      <trkpt lat="62.61524302937" lon="17.956255781183">
        <ele>155.4</ele>
        <time>2017-10-28T13:40:43Z</time>
      </trkpt>
      <trkpt lat="62.615225343561" lon="17.956219236099">
        <ele>155.6</ele>
        <time>2017-10-28T13:40:44Z</time>
      </trkpt>
      <trkpt lat="62.615208412123" lon="17.956177829513">
        <ele>155.8</ele>
        <time>2017-10-28T13:40:45Z</time>
      </trkpt>
      <trkpt lat="62.61519273797" lon="17.956144721008">
        <ele>156</ele>
        <time>2017-10-28T13:40:46Z</time>
      </trkpt>
      <trkpt lat="62.615174716885" lon="17.956109265571">
        <ele>156.2</ele>
        <time>2017-10-28T13:40:47Z</time>
      </trkpt>
      <trkpt lat="62.615155689972" lon="17.956084036052">
        <ele>156.6</ele>
        <time>2017-10-28T13:40:48Z</time>
      </trkpt>
      <trkpt lat="62.615134986679" lon="17.956059309447">
        <ele>156.8</ele>
        <time>2017-10-28T13:40:49Z</time>
      </trkpt>
      <trkpt lat="62.615111601178" lon="17.95602888315">
        <ele>157.2</ele>
        <time>2017-10-28T13:40:50Z</time>
      </trkpt>
      <trkpt lat="62.615092658084" lon="17.955997199568">
        <ele>157.4</ele>
        <time>2017-10-28T13:40:51Z</time>
      </trkpt>
      <trkpt lat="62.615073631171" lon="17.955968952565">
        <ele>157.6</ele>
        <time>2017-10-28T13:40:52Z</time>
      </trkpt>
      <trkpt lat="62.615054268982" lon="17.955929222359">
        <ele>157.8</ele>
        <time>2017-10-28T13:40:53Z</time>
      </trkpt>
      <trkpt lat="62.61503851101" lon="17.955892593456">
        <ele>158</ele>
        <time>2017-10-28T13:40:54Z</time>
      </trkpt>
      <trkpt lat="62.615020741382" lon="17.955865687557">
        <ele>158.2</ele>
        <time>2017-10-28T13:40:55Z</time>
      </trkpt>
      <trkpt lat="62.615004564315" lon="17.955840709495">
        <ele>158.6</ele>
        <time>2017-10-28T13:40:56Z</time>
      </trkpt>
      <trkpt lat="62.614990566542" lon="17.955812462492">
        <ele>158.8</ele>
        <time>2017-10-28T13:40:57Z</time>
      </trkpt>
      <trkpt lat="62.614975227665" lon="17.955782287652">
        <ele>159</ele>
        <time>2017-10-28T13:40:58Z</time>
      </trkpt>
      <trkpt lat="62.614957877132" lon="17.95575144226">
        <ele>159.4</ele>
        <time>2017-10-28T13:40:59Z</time>
      </trkpt>
      <trkpt lat="62.614938347305" lon="17.955717663203">
        <ele>159.6</ele>
        <time>2017-10-28T13:41:00Z</time>
      </trkpt>
      <trkpt lat="62.614916805822" lon="17.955687069268">
        <ele>159.8</ele>
        <time>2017-10-28T13:41:01Z</time>
      </trkpt>
      <trkpt lat="62.61489937147" lon="17.955656391514">
        <ele>160</ele>
        <time>2017-10-28T13:41:02Z</time>
      </trkpt>
      <trkpt lat="62.614882020937" lon="17.955628144511">
        <ele>160.2</ele>
        <time>2017-10-28T13:41:03Z</time>
      </trkpt>
      <trkpt lat="62.614867101155" lon="17.955597382938">
        <ele>160.2</ele>
        <time>2017-10-28T13:41:04Z</time>
      </trkpt>
      <trkpt lat="62.614850169717" lon="17.955562178958">
        <ele>160.2</ele>
        <time>2017-10-28T13:41:05Z</time>
      </trkpt>
      <trkpt lat="62.614834747021" lon="17.955532926127">
        <ele>160.4</ele>
        <time>2017-10-28T13:41:06Z</time>
      </trkpt>
      <trkpt lat="62.614819911058" lon="17.955502080735">
        <ele>160.6</ele>
        <time>2017-10-28T13:41:07Z</time>
      </trkpt>
      <trkpt lat="62.614803398715" lon="17.955461344701">
        <ele>160.8</ele>
        <time>2017-10-28T13:41:08Z</time>
      </trkpt>
      <trkpt lat="62.614793675711" lon="17.95541700445">
        <ele>161</ele>
        <time>2017-10-28T13:41:09Z</time>
      </trkpt>
      <trkpt lat="62.614784287983" lon="17.955364785213">
        <ele>161.2</ele>
        <time>2017-10-28T13:41:10Z</time>
      </trkpt>
      <trkpt lat="62.614778755929" lon="17.955304184076">
        <ele>161.6</ele>
        <time>2017-10-28T13:41:11Z</time>
      </trkpt>
      <trkpt lat="62.614772972418" lon="17.955242996206">
        <ele>161.8</ele>
        <time>2017-10-28T13:41:12Z</time>
      </trkpt>
      <trkpt lat="62.614770793124" lon="17.955189184408">
        <ele>161.8</ele>
        <time>2017-10-28T13:41:13Z</time>
      </trkpt>
      <trkpt lat="62.614765428708" lon="17.955139647379">
        <ele>162</ele>
        <time>2017-10-28T13:41:14Z</time>
      </trkpt>
      <trkpt lat="62.61475939374" lon="17.955082985735">
        <ele>162</ele>
        <time>2017-10-28T13:41:15Z</time>
      </trkpt>
      <trkpt lat="62.614750760383" lon="17.955030682679">
        <ele>161.8</ele>
        <time>2017-10-28T13:41:16Z</time>
      </trkpt>
      <trkpt lat="62.614734080402" lon="17.954983408763">
        <ele>161.8</ele>
        <time>2017-10-28T13:41:17Z</time>
      </trkpt>
      <trkpt lat="62.614717819516" lon="17.954945271118">
        <ele>161.8</ele>
        <time>2017-10-28T13:41:18Z</time>
      </trkpt>
      <trkpt lat="62.6147040732" lon="17.954902271971">
        <ele>161.8</ele>
        <time>2017-10-28T13:41:19Z</time>
      </trkpt>
      <trkpt lat="62.614684711011" lon="17.954862290308">
        <ele>162</ele>
        <time>2017-10-28T13:41:20Z</time>
      </trkpt>
      <trkpt lat="62.614665181184" lon="17.954828092156">
        <ele>162</ele>
        <time>2017-10-28T13:41:21Z</time>
      </trkpt>
      <trkpt lat="62.614648836479" lon="17.954793558728">
        <ele>162</ele>
        <time>2017-10-28T13:41:22Z</time>
      </trkpt>
      <trkpt lat="62.61463031248" lon="17.954757265101">
        <ele>162.2</ele>
        <time>2017-10-28T13:41:23Z</time>
      </trkpt>
      <trkpt lat="62.614621679123" lon="17.954714517411">
        <ele>162.4</ele>
        <time>2017-10-28T13:41:24Z</time>
      </trkpt>
      <trkpt lat="62.614606088789" lon="17.954674703386">
        <ele>162.4</ele>
        <time>2017-10-28T13:41:25Z</time>
      </trkpt>
      <trkpt lat="62.614585301677" lon="17.954634302628">
        <ele>162.6</ele>
        <time>2017-10-28T13:41:26Z</time>
      </trkpt>
      <trkpt lat="62.614565604212" lon="17.954597338449">
        <ele>162.8</ele>
        <time>2017-10-28T13:41:27Z</time>
      </trkpt>
      <trkpt lat="62.614545906747" lon="17.954565654867">
        <ele>163.2</ele>
        <time>2017-10-28T13:41:28Z</time>
      </trkpt>
      <trkpt lat="62.6145280533" lon="17.954534558018">
        <ele>163.4</ele>
        <time>2017-10-28T13:41:29Z</time>
      </trkpt>
      <trkpt lat="62.614505673627" lon="17.954490469224">
        <ele>164</ele>
        <time>2017-10-28T13:41:30Z</time>
      </trkpt>
      <trkpt lat="62.614487149628" lon="17.954461216393">
        <ele>164.2</ele>
        <time>2017-10-28T13:41:31Z</time>
      </trkpt>
      <trkpt lat="62.614468457991" lon="17.954425006585">
        <ele>164.4</ele>
        <time>2017-10-28T13:41:32Z</time>
      </trkpt>
      <trkpt lat="62.614449933992" lon="17.954385695474">
        <ele>164.8</ele>
        <time>2017-10-28T13:41:33Z</time>
      </trkpt>
      <trkpt lat="62.614432667278" lon="17.954349569485">
        <ele>165</ele>
        <time>2017-10-28T13:41:34Z</time>
      </trkpt>
      <trkpt lat="62.614411125795" lon="17.954305648329">
        <ele>165</ele>
        <time>2017-10-28T13:41:35Z</time>
      </trkpt>
      <trkpt lat="62.614388746122" lon="17.954273210376">
        <ele>165.2</ele>
        <time>2017-10-28T13:41:36Z</time>
      </trkpt>
      <trkpt lat="62.614369383933" lon="17.954247477943">
        <ele>165.2</ele>
        <time>2017-10-28T13:41:37Z</time>
      </trkpt>
      <trkpt lat="62.614349351192" lon="17.954216129637">
        <ele>165.2</ele>
        <time>2017-10-28T13:41:38Z</time>
      </trkpt>
      <trkpt lat="62.614332252116" lon="17.954201461312">
        <ele>165.4</ele>
        <time>2017-10-28T13:41:39Z</time>
      </trkpt>
      <trkpt lat="62.614310878271" lon="17.954173717223">
        <ele>165.6</ele>
        <time>2017-10-28T13:41:40Z</time>
      </trkpt>
      <trkpt lat="62.61429084553" lon="17.954146811324">
        <ele>165.6</ele>
        <time>2017-10-28T13:41:41Z</time>
      </trkpt>
      <trkpt lat="62.614267879124" lon="17.954128287325">
        <ele>165.8</ele>
        <time>2017-10-28T13:41:42Z</time>
      </trkpt>
      <trkpt lat="62.614243236338" lon="17.954115463018">
        <ele>166</ele>
        <time>2017-10-28T13:41:43Z</time>
      </trkpt>
      <trkpt lat="62.614223203597" lon="17.954089395309">
        <ele>166</ele>
        <time>2017-10-28T13:41:44Z</time>
      </trkpt>
      <trkpt lat="62.614200991562" lon="17.954047485809">
        <ele>166.2</ele>
        <time>2017-10-28T13:41:45Z</time>
      </trkpt>
      <trkpt lat="62.614181713192" lon="17.954029883819">
        <ele>166.2</ele>
        <time>2017-10-28T13:41:46Z</time>
      </trkpt>
      <trkpt lat="62.614157992415" lon="17.954010605449">
        <ele>166.4</ele>
        <time>2017-10-28T13:41:47Z</time>
      </trkpt>
      <trkpt lat="62.614139887511" lon="17.954000295712">
        <ele>166.4</ele>
        <time>2017-10-28T13:41:48Z</time>
      </trkpt>
      <trkpt lat="62.614121279693" lon="17.953995937124">
        <ele>166.6</ele>
        <time>2017-10-28T13:41:49Z</time>
      </trkpt>
      <trkpt lat="62.614109209757" lon="17.953983280455">
        <ele>166.6</ele>
        <time>2017-10-28T13:41:50Z</time>
      </trkpt>
      <trkpt lat="62.614084902247" lon="17.953943047335">
        <ele>166.6</ele>
        <time>2017-10-28T13:41:51Z</time>
      </trkpt>
      <trkpt lat="62.61407626889" lon="17.953889319356">
        <ele>166.8</ele>
        <time>2017-10-28T13:41:52Z</time>
      </trkpt>
      <trkpt lat="62.61407123975" lon="17.953839279413">
        <ele>167</ele>
        <time>2017-10-28T13:41:53Z</time>
      </trkpt>
      <trkpt lat="62.614066881162" lon="17.95379426861">
        <ele>167.2</ele>
        <time>2017-10-28T13:41:54Z</time>
      </trkpt>
      <trkpt lat="62.614063947497" lon="17.953744899219">
        <ele>167.2</ele>
        <time>2017-10-28T13:41:55Z</time>
      </trkpt>
      <trkpt lat="62.614057409615" lon="17.953699972235">
        <ele>167.2</ele>
        <time>2017-10-28T13:41:56Z</time>
      </trkpt>
      <trkpt lat="62.61405447595" lon="17.953647669179">
        <ele>167.2</ele>
        <time>2017-10-28T13:41:57Z</time>
      </trkpt>
      <trkpt lat="62.614057241977" lon="17.953601317272">
        <ele>167</ele>
        <time>2017-10-28T13:41:58Z</time>
      </trkpt>
      <trkpt lat="62.614055481778" lon="17.953567286758">
        <ele>167</ele>
        <time>2017-10-28T13:41:59Z</time>
      </trkpt>
      <trkpt lat="62.61404609405" lon="17.953516743901">
        <ele>167</ele>
        <time>2017-10-28T13:42:00Z</time>
      </trkpt>
      <trkpt lat="62.61403687396" lon="17.953462848284">
        <ele>166.6</ele>
        <time>2017-10-28T13:42:01Z</time>
      </trkpt>
      <trkpt lat="62.614035700494" lon="17.953406521916">
        <ele>166.8</ele>
        <time>2017-10-28T13:42:02Z</time>
      </trkpt>
      <trkpt lat="62.614032431553" lon="17.953365534425">
        <ele>166.8</ele>
        <time>2017-10-28T13:42:03Z</time>
      </trkpt>
      <trkpt lat="62.614023965834" lon="17.953307112582">
        <ele>166.8</ele>
        <time>2017-10-28T13:42:04Z</time>
      </trkpt>
      <trkpt lat="62.614015248658" lon="17.953241985219">
        <ele>166.6</ele>
        <time>2017-10-28T13:42:05Z</time>
      </trkpt>
      <trkpt lat="62.614003094903" lon="17.953175349114">
        <ele>166.6</ele>
        <time>2017-10-28T13:42:06Z</time>
      </trkpt>
      <trkpt lat="62.61400166998" lon="17.95310946738">
        <ele>166.6</ele>
        <time>2017-10-28T13:42:07Z</time>
      </trkpt>
      <trkpt lat="62.613992785166" lon="17.953046435492">
        <ele>166.6</ele>
        <time>2017-10-28T13:42:08Z</time>
      </trkpt>
      <trkpt lat="62.613983900352" lon="17.952984660889">
        <ele>166.4</ele>
        <time>2017-10-28T13:42:09Z</time>
      </trkpt>
      <trkpt lat="62.613967807104" lon="17.952920287897">
        <ele>166.4</ele>
        <time>2017-10-28T13:42:10Z</time>
      </trkpt>
      <trkpt lat="62.61396143686" lon="17.952853065059">
        <ele>166.6</ele>
        <time>2017-10-28T13:42:11Z</time>
      </trkpt>
      <trkpt lat="62.613962526507" lon="17.952788943524">
        <ele>166.4</ele>
        <time>2017-10-28T13:42:12Z</time>
      </trkpt>
      <trkpt lat="62.613965963086" lon="17.952735550821">
        <ele>166.4</ele>
        <time>2017-10-28T13:42:13Z</time>
      </trkpt>
      <trkpt lat="62.613965795448" lon="17.952678805358">
        <ele>166.2</ele>
        <time>2017-10-28T13:42:14Z</time>
      </trkpt>
      <trkpt lat="62.613959844299" lon="17.952617533669">
        <ele>166</ele>
        <time>2017-10-28T13:42:15Z</time>
      </trkpt>
      <trkpt lat="62.61394718763" lon="17.952571684676">
        <ele>165.6</ele>
        <time>2017-10-28T13:42:16Z</time>
      </trkpt>
      <trkpt lat="62.613934950056" lon="17.952524746036">
        <ele>165.6</ele>
        <time>2017-10-28T13:42:17Z</time>
      </trkpt>
      <trkpt lat="62.613914749677" lon="17.952489458237">
        <ele>165.8</ele>
        <time>2017-10-28T13:42:18Z</time>
      </trkpt>
      <trkpt lat="62.61389270528" lon="17.952461127415">
        <ele>165.8</ele>
        <time>2017-10-28T13:42:19Z</time>
      </trkpt>
      <trkpt lat="62.613872923996" lon="17.952440507941">
        <ele>165.6</ele>
        <time>2017-10-28T13:42:20Z</time>
      </trkpt>
      <trkpt lat="62.61385079578" lon="17.952409075816">
        <ele>165.6</ele>
        <time>2017-10-28T13:42:21Z</time>
      </trkpt>
      <trkpt lat="62.613829924849" lon="17.9523785657">
        <ele>165.6</ele>
        <time>2017-10-28T13:42:22Z</time>
      </trkpt>
      <trkpt lat="62.613806790805" lon="17.95233162706">
        <ele>165.8</ele>
        <time>2017-10-28T13:42:23Z</time>
      </trkpt>
      <trkpt lat="62.61378625515" lon="17.952286616257">
        <ele>165.8</ele>
        <time>2017-10-28T13:42:24Z</time>
      </trkpt>
      <trkpt lat="62.613760690355" lon="17.952237163047">
        <ele>165.8</ele>
        <time>2017-10-28T13:42:25Z</time>
      </trkpt>
      <trkpt lat="62.61374686022" lon="17.952187123104">
        <ele>166</ele>
        <time>2017-10-28T13:42:26Z</time>
      </trkpt>
      <trkpt lat="62.61373093461" lon="17.952142363758">
        <ele>165.8</ele>
        <time>2017-10-28T13:42:27Z</time>
      </trkpt>
      <trkpt lat="62.613716266285" lon="17.952095089842">
        <ele>165.6</ele>
        <time>2017-10-28T13:42:28Z</time>
      </trkpt>
      <trkpt lat="62.613696736458" lon="17.952046055727">
        <ele>165.6</ele>
        <time>2017-10-28T13:42:29Z</time>
      </trkpt>
      <trkpt lat="62.613686761997" lon="17.951973133197">
        <ele>165.6</ele>
        <time>2017-10-28T13:42:30Z</time>
      </trkpt>
      <trkpt lat="62.613674021509" lon="17.951909933671">
        <ele>165.6</ele>
        <time>2017-10-28T13:42:31Z</time>
      </trkpt>
      <trkpt lat="62.61366304122" lon="17.951862659755">
        <ele>165.8</ele>
        <time>2017-10-28T13:42:32Z</time>
      </trkpt>
      <trkpt lat="62.613646025963" lon="17.951807925948">
        <ele>165.8</ele>
        <time>2017-10-28T13:42:33Z</time>
      </trkpt>
      <trkpt lat="62.613628172516" lon="17.951751264304">
        <ele>166</ele>
        <time>2017-10-28T13:42:34Z</time>
      </trkpt>
      <trkpt lat="62.613606295757" lon="17.951685214932">
        <ele>166</ele>
        <time>2017-10-28T13:42:35Z</time>
      </trkpt>
      <trkpt lat="62.613588945224" lon="17.951629894392">
        <ele>166</ele>
        <time>2017-10-28T13:42:36Z</time>
      </trkpt>
      <trkpt lat="62.613568996302" lon="17.951600054828">
        <ele>166</ele>
        <time>2017-10-28T13:42:37Z</time>
      </trkpt>
      <trkpt lat="62.613565978818" lon="17.951556385129">
        <ele>166.2</ele>
        <time>2017-10-28T13:42:38Z</time>
      </trkpt>
      <trkpt lat="62.613566481732" lon="17.951528473402">
        <ele>166.2</ele>
        <time>2017-10-28T13:42:39Z</time>
      </trkpt>
      <trkpt lat="62.613573773985" lon="17.951509530308">
        <ele>166.2</ele>
        <time>2017-10-28T13:42:40Z</time>
      </trkpt>
      <trkpt lat="62.613584335179" lon="17.951489497567">
        <ele>166</ele>
        <time>2017-10-28T13:42:41Z</time>
      </trkpt>
      <trkpt lat="62.613595902201" lon="17.95146661498">
        <ele>166</ele>
        <time>2017-10-28T13:42:42Z</time>
      </trkpt>
      <trkpt lat="62.613600763703" lon="17.951453706854">
        <ele>165.8</ele>
        <time>2017-10-28T13:42:43Z</time>
      </trkpt>
      <trkpt lat="62.613605038472" lon="17.95144901299">
        <ele>165.6</ele>
        <time>2017-10-28T13:42:44Z</time>
      </trkpt>
      <trkpt lat="62.613617862779" lon="17.951430740448">
        <ele>165.4</ele>
        <time>2017-10-28T13:42:45Z</time>
      </trkpt>
      <trkpt lat="62.61362699905" lon="17.951412719363">
        <ele>165.4</ele>
        <time>2017-10-28T13:42:46Z</time>
      </trkpt>
      <trkpt lat="62.613637392606" lon="17.951387322206">
        <ele>165</ele>
        <time>2017-10-28T13:42:47Z</time>
      </trkpt>
      <trkpt lat="62.61364711561" lon="17.951355638624">
        <ele>164.8</ele>
        <time>2017-10-28T13:42:48Z</time>
      </trkpt>
      <trkpt lat="62.613654826958" lon="17.95131993173">
        <ele>164.8</ele>
        <time>2017-10-28T13:42:49Z</time>
      </trkpt>
      <trkpt lat="62.613660861926" lon="17.951265114104">
        <ele>164.6</ele>
        <time>2017-10-28T13:42:50Z</time>
      </trkpt>
      <trkpt lat="62.613669411464" lon="17.951206859899">
        <ele>164.4</ele>
        <time>2017-10-28T13:42:51Z</time>
      </trkpt>
      <trkpt lat="62.613679972658" lon="17.951147599866">
        <ele>164.4</ele>
        <time>2017-10-28T13:42:52Z</time>
      </trkpt>
      <trkpt lat="62.61369405425" lon="17.95109194405">
        <ele>164.2</ele>
        <time>2017-10-28T13:42:53Z</time>
      </trkpt>
      <trkpt lat="62.613690198576" lon="17.951042323202">
        <ele>163.8</ele>
        <time>2017-10-28T13:42:54Z</time>
      </trkpt>
      <trkpt lat="62.613688354558" lon="17.950995971295">
        <ele>163.6</ele>
        <time>2017-10-28T13:42:55Z</time>
      </trkpt>
      <trkpt lat="62.613696401182" lon="17.950944087334">
        <ele>163.6</ele>
        <time>2017-10-28T13:42:56Z</time>
      </trkpt>
      <trkpt lat="62.613713500258" lon="17.950896394323">
        <ele>163.4</ele>
        <time>2017-10-28T13:42:57Z</time>
      </trkpt>
      <trkpt lat="62.613733197723" lon="17.950839397403">
        <ele>163.2</ele>
        <time>2017-10-28T13:42:58Z</time>
      </trkpt>
      <trkpt lat="62.61374937479" lon="17.950784076863">
        <ele>163</ele>
        <time>2017-10-28T13:42:59Z</time>
      </trkpt>
      <trkpt lat="62.613766390047" lon="17.95072900778">
        <ele>163</ele>
        <time>2017-10-28T13:43:00Z</time>
      </trkpt>
      <trkpt lat="62.61377619687" lon="17.95067033448">
        <ele>162.8</ele>
        <time>2017-10-28T13:43:01Z</time>
      </trkpt>
      <trkpt lat="62.613784243494" lon="17.950596657579">
        <ele>162.4</ele>
        <time>2017-10-28T13:43:02Z</time>
      </trkpt>
      <trkpt lat="62.613791954842" lon="17.950542342867">
        <ele>162</ele>
        <time>2017-10-28T13:43:03Z</time>
      </trkpt>
      <trkpt lat="62.613802432217" lon="17.950485681223">
        <ele>161.4</ele>
        <time>2017-10-28T13:43:04Z</time>
      </trkpt>
      <trkpt lat="62.613822716415" lon="17.95042809757">
        <ele>161.2</ele>
        <time>2017-10-28T13:43:05Z</time>
      </trkpt>
      <trkpt lat="62.613838306749" lon="17.950363137845">
        <ele>161</ele>
        <time>2017-10-28T13:43:06Z</time>
      </trkpt>
      <trkpt lat="62.613857585119" lon="17.950299519224">
        <ele>161</ele>
        <time>2017-10-28T13:43:07Z</time>
      </trkpt>
      <trkpt lat="62.613886251217" lon="17.950246294159">
        <ele>160.6</ele>
        <time>2017-10-28T13:43:08Z</time>
      </trkpt>
      <trkpt lat="62.613909385261" lon="17.950181250615">
        <ele>160.6</ele>
        <time>2017-10-28T13:43:09Z</time>
      </trkpt>
      <trkpt lat="62.613929334183" lon="17.950108663361">
        <ele>160.6</ele>
        <time>2017-10-28T13:43:10Z</time>
      </trkpt>
      <trkpt lat="62.613951797675" lon="17.950018474117">
        <ele>160</ele>
        <time>2017-10-28T13:43:11Z</time>
      </trkpt>
      <trkpt lat="62.613976440461" lon="17.949928452511">
        <ele>159.6</ele>
        <time>2017-10-28T13:43:12Z</time>
      </trkpt>
      <trkpt lat="62.61399747903" lon="17.949847399538">
        <ele>159.4</ele>
        <time>2017-10-28T13:43:13Z</time>
      </trkpt>
      <trkpt lat="62.614018014685" lon="17.949771710981">
        <ele>159.2</ele>
        <time>2017-10-28T13:43:14Z</time>
      </trkpt>
      <trkpt lat="62.614036706322" lon="17.949701135383">
        <ele>158.8</ele>
        <time>2017-10-28T13:43:15Z</time>
      </trkpt>
      <trkpt lat="62.614048776258" lon="17.949634415459">
        <ele>158.4</ele>
        <time>2017-10-28T13:43:16Z</time>
      </trkpt>
      <trkpt lat="62.614063025488" lon="17.949556966703">
        <ele>158.4</ele>
        <time>2017-10-28T13:43:17Z</time>
      </trkpt>
      <trkpt lat="62.614076017433" lon="17.949478260662">
        <ele>158.4</ele>
        <time>2017-10-28T13:43:18Z</time>
      </trkpt>
      <trkpt lat="62.614087500636" lon="17.949399806078">
        <ele>157.8</ele>
        <time>2017-10-28T13:43:19Z</time>
      </trkpt>
      <trkpt lat="62.614101079314" lon="17.949318501648">
        <ele>157.2</ele>
        <time>2017-10-28T13:43:20Z</time>
      </trkpt>
      <trkpt lat="62.614096469269" lon="17.949253541923">
        <ele>156.8</ele>
        <time>2017-10-28T13:43:21Z</time>
      </trkpt>
      <trkpt lat="62.614075095424" lon="17.949206519464">
        <ele>156</ele>
        <time>2017-10-28T13:43:22Z</time>
      </trkpt>
      <trkpt lat="62.614042322195" lon="17.949180619393">
        <ele>155.2</ele>
        <time>2017-10-28T13:43:23Z</time>
      </trkpt>
      <trkpt lat="62.614012734088" lon="17.949154384046">
        <ele>154.8</ele>
        <time>2017-10-28T13:43:24Z</time>
      </trkpt>
      <trkpt lat="62.613987588388" lon="17.949132842563">
        <ele>154.2</ele>
        <time>2017-10-28T13:43:25Z</time>
      </trkpt>
      <trkpt lat="62.613955988625" lon="17.949099398782">
        <ele>154</ele>
        <time>2017-10-28T13:43:26Z</time>
      </trkpt>
      <trkpt lat="62.61392790926" lon="17.949046173717">
        <ele>153.8</ele>
        <time>2017-10-28T13:43:27Z</time>
      </trkpt>
      <trkpt lat="62.613905110492" lon="17.948982555096">
        <ele>154</ele>
        <time>2017-10-28T13:43:28Z</time>
      </trkpt>
      <trkpt lat="62.61388432338" lon="17.948921618683">
        <ele>153.8</ele>
        <time>2017-10-28T13:43:29Z</time>
      </trkpt>
      <trkpt lat="62.613869906512" lon="17.948849031429">
        <ele>153.8</ele>
        <time>2017-10-28T13:43:30Z</time>
      </trkpt>
      <trkpt lat="62.613852891255" lon="17.948778707288">
        <ele>153.8</ele>
        <time>2017-10-28T13:43:31Z</time>
      </trkpt>
      <trkpt lat="62.613829924849" lon="17.948723051472">
        <ele>153.8</ele>
        <time>2017-10-28T13:43:32Z</time>
      </trkpt>
      <trkpt lat="62.61380469533" lon="17.94866957495">
        <ele>153.8</ele>
        <time>2017-10-28T13:43:33Z</time>
      </trkpt>
      <trkpt lat="62.613781728924" lon="17.948642082318">
        <ele>153.8</ele>
        <time>2017-10-28T13:43:34Z</time>
      </trkpt>
      <trkpt lat="62.613748704238" lon="17.94860838708">
        <ele>153.6</ele>
        <time>2017-10-28T13:43:35Z</time>
      </trkpt>
      <trkpt lat="62.613718277941" lon="17.948575362394">
        <ele>153.8</ele>
        <time>2017-10-28T13:43:36Z</time>
      </trkpt>
      <trkpt lat="62.613689947119" lon="17.948544097907">
        <ele>153.6</ele>
        <time>2017-10-28T13:43:37Z</time>
      </trkpt>
      <trkpt lat="62.61366136484" lon="17.94851953894">
        <ele>153.6</ele>
        <time>2017-10-28T13:43:38Z</time>
      </trkpt>
      <trkpt lat="62.61364041009" lon="17.948490537566">
        <ele>153.4</ele>
        <time>2017-10-28T13:43:39Z</time>
      </trkpt>
      <trkpt lat="62.613613336553" lon="17.948436390492">
        <ele>153.4</ele>
        <time>2017-10-28T13:43:40Z</time>
      </trkpt>
      <trkpt lat="62.613582323523" lon="17.948391714965">
        <ele>153.4</ele>
        <time>2017-10-28T13:43:41Z</time>
      </trkpt>
      <trkpt lat="62.613551729588" lon="17.948353828777">
        <ele>153.4</ele>
        <time>2017-10-28T13:43:42Z</time>
      </trkpt>
      <trkpt lat="62.613521973843" lon="17.948319295349">
        <ele>153.4</ele>
        <time>2017-10-28T13:43:43Z</time>
      </trkpt>
      <trkpt lat="62.613491715184" lon="17.94829238945">
        <ele>153.4</ele>
        <time>2017-10-28T13:43:44Z</time>
      </trkpt>
      <trkpt lat="62.613466150389" lon="17.948246121362">
        <ele>153.6</ele>
        <time>2017-10-28T13:43:45Z</time>
      </trkpt>
      <trkpt lat="62.613444944182" lon="17.948207145527">
        <ele>153.6</ele>
        <time>2017-10-28T13:43:46Z</time>
      </trkpt>
      <trkpt lat="62.613418960292" lon="17.948162050905">
        <ele>153.6</ele>
        <time>2017-10-28T13:43:47Z</time>
      </trkpt>
      <trkpt lat="62.613391551479" lon="17.94812391326">
        <ele>153.6</ele>
        <time>2017-10-28T13:43:48Z</time>
      </trkpt>
      <trkpt lat="62.613363555933" lon="17.948101533587">
        <ele>153.6</ele>
        <time>2017-10-28T13:43:49Z</time>
      </trkpt>
      <trkpt lat="62.613330531247" lon="17.948081752303">
        <ele>153.6</ele>
        <time>2017-10-28T13:43:50Z</time>
      </trkpt>
      <trkpt lat="62.613299015303" lon="17.948067670711">
        <ele>153.6</ele>
        <time>2017-10-28T13:43:51Z</time>
      </trkpt>
      <trkpt lat="62.613267918454" lon="17.948060043182">
        <ele>153.6</ele>
        <time>2017-10-28T13:43:52Z</time>
      </trkpt>
      <trkpt lat="62.613236486329" lon="17.948062473933">
        <ele>153.6</ele>
        <time>2017-10-28T13:43:53Z</time>
      </trkpt>
      <trkpt lat="62.613210837715" lon="17.948073035127">
        <ele>153.6</ele>
        <time>2017-10-28T13:43:54Z</time>
      </trkpt>
      <trkpt lat="62.613188206585" lon="17.948103209967">
        <ele>153.6</ele>
        <time>2017-10-28T13:43:55Z</time>
      </trkpt>
      <trkpt lat="62.613171526604" lon="17.948145035648">
        <ele>153.6</ele>
        <time>2017-10-28T13:43:56Z</time>
      </trkpt>
      <trkpt lat="62.613153840795" lon="17.948185771682">
        <ele>153.6</ele>
        <time>2017-10-28T13:43:57Z</time>
      </trkpt>
      <trkpt lat="62.613133975692" lon="17.948213515771">
        <ele>153.8</ele>
        <time>2017-10-28T13:43:58Z</time>
      </trkpt>
      <trkpt lat="62.613118804453" lon="17.948248468294">
        <ele>153.8</ele>
        <time>2017-10-28T13:43:59Z</time>
      </trkpt>
      <trkpt lat="62.613101370101" lon="17.948282582627">
        <ele>154</ele>
        <time>2017-10-28T13:44:00Z</time>
      </trkpt>
      <trkpt lat="62.6130863665" lon="17.94831753515">
        <ele>154.4</ele>
        <time>2017-10-28T13:44:01Z</time>
      </trkpt>
      <trkpt lat="62.613069518881" lon="17.948348715818">
        <ele>154.4</ele>
        <time>2017-10-28T13:44:02Z</time>
      </trkpt>
      <trkpt lat="62.613053425633" lon="17.948384003617">
        <ele>154.8</ele>
        <time>2017-10-28T13:44:03Z</time>
      </trkpt>
      <trkpt lat="62.613042026249" lon="17.948414849009">
        <ele>155</ele>
        <time>2017-10-28T13:44:04Z</time>
      </trkpt>
      <trkpt lat="62.613035320729" lon="17.94843236718">
        <ele>155.2</ele>
        <time>2017-10-28T13:44:05Z</time>
      </trkpt>
      <trkpt lat="62.613013360151" lon="17.948476707431">
        <ele>155.4</ele>
        <time>2017-10-28T13:44:06Z</time>
      </trkpt>
      <trkpt lat="62.612996931627" lon="17.948506546995">
        <ele>155.6</ele>
        <time>2017-10-28T13:44:07Z</time>
      </trkpt>
      <trkpt lat="62.612985699881" lon="17.948535296912">
        <ele>155.8</ele>
        <time>2017-10-28T13:44:08Z</time>
      </trkpt>
      <trkpt lat="62.612974384316" lon="17.948566729037">
        <ele>156</ele>
        <time>2017-10-28T13:44:09Z</time>
      </trkpt>
      <trkpt lat="62.612963571665" lon="17.948594724583">
        <ele>156</ele>
        <time>2017-10-28T13:44:10Z</time>
      </trkpt>
      <trkpt lat="62.612949238616" lon="17.948626324346">
        <ele>156.2</ele>
        <time>2017-10-28T13:44:11Z</time>
      </trkpt>
      <trkpt lat="62.612937001042" lon="17.948655241901">
        <ele>156.6</ele>
        <time>2017-10-28T13:44:12Z</time>
      </trkpt>
      <trkpt lat="62.612923170907" lon="17.948685165284">
        <ele>156.8</ele>
        <time>2017-10-28T13:44:13Z</time>
      </trkpt>
      <trkpt lat="62.612911017152" lon="17.948712993192">
        <ele>157</ele>
        <time>2017-10-28T13:44:14Z</time>
      </trkpt>
      <trkpt lat="62.612899114854" lon="17.948745766421">
        <ele>157</ele>
        <time>2017-10-28T13:44:15Z</time>
      </trkpt>
      <trkpt lat="62.612888386022" lon="17.948773594329">
        <ele>157.2</ele>
        <time>2017-10-28T13:44:16Z</time>
      </trkpt>
      <trkpt lat="62.612875226439" lon="17.948803350074">
        <ele>157.4</ele>
        <time>2017-10-28T13:44:17Z</time>
      </trkpt>
      <trkpt lat="62.612861815399" lon="17.948834949837">
        <ele>157.6</ele>
        <time>2017-10-28T13:44:18Z</time>
      </trkpt>
      <trkpt lat="62.612849577825" lon="17.948863280659">
        <ele>157.8</ele>
        <time>2017-10-28T13:44:19Z</time>
      </trkpt>
      <trkpt lat="62.612837172613" lon="17.948894880422">
        <ele>158.2</ele>
        <time>2017-10-28T13:44:20Z</time>
      </trkpt>
      <trkpt lat="62.612822588107" lon="17.948925725814">
        <ele>158.4</ele>
        <time>2017-10-28T13:44:21Z</time>
      </trkpt>
      <trkpt lat="62.612809344705" lon="17.948952547894">
        <ele>158.6</ele>
        <time>2017-10-28T13:44:22Z</time>
      </trkpt>
      <trkpt lat="62.612796017484" lon="17.948987919512">
        <ele>159</ele>
        <time>2017-10-28T13:44:23Z</time>
      </trkpt>
      <trkpt lat="62.612783025539" lon="17.949017339981">
        <ele>159.2</ele>
        <time>2017-10-28T13:44:24Z</time>
      </trkpt>
      <trkpt lat="62.612769111585" lon="17.94904759864">
        <ele>159.4</ele>
        <time>2017-10-28T13:44:25Z</time>
      </trkpt>
      <trkpt lat="62.612754778536" lon="17.94907777348">
        <ele>159.6</ele>
        <time>2017-10-28T13:44:26Z</time>
      </trkpt>
      <trkpt lat="62.612741786591" lon="17.949107361587">
        <ele>159.8</ele>
        <time>2017-10-28T13:44:27Z</time>
      </trkpt>
      <trkpt lat="62.612728627008" lon="17.949136530599">
        <ele>159.8</ele>
        <time>2017-10-28T13:44:28Z</time>
      </trkpt>
      <trkpt lat="62.612716808529" lon="17.949164274688">
        <ele>160</ele>
        <time>2017-10-28T13:44:29Z</time>
      </trkpt>
      <trkpt lat="62.612703062213" lon="17.949197969926">
        <ele>160.2</ele>
        <time>2017-10-28T13:44:30Z</time>
      </trkpt>
      <trkpt lat="62.612689315897" lon="17.949229402051">
        <ele>160.4</ele>
        <time>2017-10-28T13:44:31Z</time>
      </trkpt>
      <trkpt lat="62.612678251789" lon="17.949260666538">
        <ele>160.6</ele>
        <time>2017-10-28T13:44:32Z</time>
      </trkpt>
      <trkpt lat="62.612667522957" lon="17.949296792527">
        <ele>160.8</ele>
        <time>2017-10-28T13:44:33Z</time>
      </trkpt>
      <trkpt lat="62.612654782469" lon="17.94932336315">
        <ele>161</ele>
        <time>2017-10-28T13:44:34Z</time>
      </trkpt>
      <trkpt lat="62.612642209619" lon="17.949360746424">
        <ele>161</ele>
        <time>2017-10-28T13:44:35Z</time>
      </trkpt>
      <trkpt lat="62.612627792751" lon="17.949390585988">
        <ele>161.2</ele>
        <time>2017-10-28T13:44:36Z</time>
      </trkpt>
      <trkpt lat="62.612613962616" lon="17.949414306765">
        <ele>161.2</ele>
        <time>2017-10-28T13:44:37Z</time>
      </trkpt>
      <trkpt lat="62.612601976499" lon="17.949444565424">
        <ele>161.4</ele>
        <time>2017-10-28T13:44:38Z</time>
      </trkpt>
      <trkpt lat="62.61259099621" lon="17.94947507554">
        <ele>161.4</ele>
        <time>2017-10-28T13:44:39Z</time>
      </trkpt>
      <trkpt lat="62.612579429188" lon="17.94950525038">
        <ele>161.6</ele>
        <time>2017-10-28T13:44:40Z</time>
      </trkpt>
      <trkpt lat="62.612564844682" lon="17.94953207246">
        <ele>161.8</ele>
        <time>2017-10-28T13:44:41Z</time>
      </trkpt>
      <trkpt lat="62.612553110022" lon="17.949565348603">
        <ele>162.2</ele>
        <time>2017-10-28T13:44:42Z</time>
      </trkpt>
      <trkpt lat="62.612541375362" lon="17.949597116004">
        <ele>162.6</ele>
        <time>2017-10-28T13:44:43Z</time>
      </trkpt>
      <trkpt lat="62.612532071453" lon="17.949625027731">
        <ele>162.8</ele>
        <time>2017-10-28T13:44:44Z</time>
      </trkpt>
      <trkpt lat="62.612519079508" lon="17.94965780096">
        <ele>163.2</ele>
        <time>2017-10-28T13:44:45Z</time>
      </trkpt>
      <trkpt lat="62.612508350676" lon="17.949684958316">
        <ele>163.4</ele>
        <time>2017-10-28T13:44:46Z</time>
      </trkpt>
      <trkpt lat="62.61249376617" lon="17.949713540595">
        <ele>163.6</ele>
        <time>2017-10-28T13:44:47Z</time>
      </trkpt>
      <trkpt lat="62.612480522768" lon="17.949740614132">
        <ele>163.8</ele>
        <time>2017-10-28T13:44:48Z</time>
      </trkpt>
      <trkpt lat="62.612468871927" lon="17.949768106764">
        <ele>164</ele>
        <time>2017-10-28T13:44:49Z</time>
      </trkpt>
      <trkpt lat="62.612459148923" lon="17.949803562201">
        <ele>164.2</ele>
        <time>2017-10-28T13:44:50Z</time>
      </trkpt>
      <trkpt lat="62.61244598934" lon="17.949838347086">
        <ele>164.4</ele>
        <time>2017-10-28T13:44:51Z</time>
      </trkpt>
      <trkpt lat="62.612433835585" lon="17.949864498614">
        <ele>164.6</ele>
        <time>2017-10-28T13:44:52Z</time>
      </trkpt>
      <trkpt lat="62.612420759821" lon="17.949895595463">
        <ele>164.8</ele>
        <time>2017-10-28T13:44:53Z</time>
      </trkpt>
      <trkpt lat="62.612407684057" lon="17.949927865778">
        <ele>164.8</ele>
        <time>2017-10-28T13:44:54Z</time>
      </trkpt>
      <trkpt lat="62.612396200854" lon="17.949956699514">
        <ele>165</ele>
        <time>2017-10-28T13:44:55Z</time>
      </trkpt>
      <trkpt lat="62.612381700167" lon="17.949991232942">
        <ele>165.2</ele>
        <time>2017-10-28T13:44:56Z</time>
      </trkpt>
      <trkpt lat="62.612368959679" lon="17.950021156325">
        <ele>165.4</ele>
        <time>2017-10-28T13:44:57Z</time>
      </trkpt>
      <trkpt lat="62.612353620802" lon="17.950046553482">
        <ele>165.4</ele>
        <time>2017-10-28T13:44:58Z</time>
      </trkpt>
      <trkpt lat="62.612341802323" lon="17.950079494349">
        <ele>165.6</ele>
        <time>2017-10-28T13:44:59Z</time>
      </trkpt>
      <trkpt lat="62.61232780455" lon="17.950114698329">
        <ele>165.8</ele>
        <time>2017-10-28T13:45:00Z</time>
      </trkpt>
      <trkpt lat="62.612318500641" lon="17.950153003612">
        <ele>166</ele>
        <time>2017-10-28T13:45:01Z</time>
      </trkpt>
      <trkpt lat="62.612306346886" lon="17.950188207592">
        <ele>166.2</ele>
        <time>2017-10-28T13:45:02Z</time>
      </trkpt>
      <trkpt lat="62.612293606398" lon="17.95021938826">
        <ele>166.4</ele>
        <time>2017-10-28T13:45:03Z</time>
      </trkpt>
      <trkpt lat="62.612281536462" lon="17.950244114865">
        <ele>166.6</ele>
        <time>2017-10-28T13:45:04Z</time>
      </trkpt>
      <trkpt lat="62.612266281404" lon="17.950271691316">
        <ele>166.8</ele>
        <time>2017-10-28T13:45:05Z</time>
      </trkpt>
      <trkpt lat="62.612255049658" lon="17.950304716002">
        <ele>167</ele>
        <time>2017-10-28T13:45:06Z</time>
      </trkpt>
      <trkpt lat="62.612242979722" lon="17.950337992145">
        <ele>167.2</ele>
        <time>2017-10-28T13:45:07Z</time>
      </trkpt>
      <trkpt lat="62.612233675813" lon="17.950368250804">
        <ele>167.6</ele>
        <time>2017-10-28T13:45:08Z</time>
      </trkpt>
      <trkpt lat="62.612224539542" lon="17.950401694585">
        <ele>167.6</ele>
        <time>2017-10-28T13:45:09Z</time>
      </trkpt>
      <trkpt lat="62.612211631416" lon="17.950429941588">
        <ele>167.8</ele>
        <time>2017-10-28T13:45:10Z</time>
      </trkpt>
      <trkpt lat="62.612198890928" lon="17.950460870799">
        <ele>168</ele>
        <time>2017-10-28T13:45:11Z</time>
      </trkpt>
      <trkpt lat="62.61218698863" lon="17.950493224933">
        <ele>168.2</ele>
        <time>2017-10-28T13:45:12Z</time>
      </trkpt>
      <trkpt lat="62.612173996685" lon="17.950522980678">
        <ele>168.4</ele>
        <time>2017-10-28T13:45:13Z</time>
      </trkpt>
      <trkpt lat="62.612164022224" lon="17.950552820242">
        <ele>168.4</ele>
        <time>2017-10-28T13:45:14Z</time>
      </trkpt>
      <trkpt lat="62.612152539021" lon="17.950586766937">
        <ele>168.6</ele>
        <time>2017-10-28T13:45:15Z</time>
      </trkpt>
      <trkpt lat="62.612143570388" lon="17.950617779967">
        <ele>168.8</ele>
        <time>2017-10-28T13:45:16Z</time>
      </trkpt>
      <trkpt lat="62.612131165176" lon="17.950654827965">
        <ele>168.8</ele>
        <time>2017-10-28T13:45:17Z</time>
      </trkpt>
      <trkpt lat="62.612117670317" lon="17.950686427728">
        <ele>169</ele>
        <time>2017-10-28T13:45:18Z</time>
      </trkpt>
      <trkpt lat="62.612108366408" lon="17.950716854025">
        <ele>169.2</ele>
        <time>2017-10-28T13:45:19Z</time>
      </trkpt>
      <trkpt lat="62.612099313956" lon="17.950754237299">
        <ele>169.4</ele>
        <time>2017-10-28T13:45:20Z</time>
      </trkpt>
      <trkpt lat="62.612090848237" lon="17.950788603089">
        <ele>169.8</ele>
        <time>2017-10-28T13:45:21Z</time>
      </trkpt>
      <trkpt lat="62.612081963423" lon="17.950819699938">
        <ele>170.2</ele>
        <time>2017-10-28T13:45:22Z</time>
      </trkpt>
      <trkpt lat="62.612071234591" lon="17.950856831755">
        <ele>170.6</ele>
        <time>2017-10-28T13:45:23Z</time>
      </trkpt>
      <trkpt lat="62.612065199623" lon="17.950891029907">
        <ele>171</ele>
        <time>2017-10-28T13:45:24Z</time>
      </trkpt>
      <trkpt lat="62.612054638429" lon="17.950929251371">
        <ele>171.2</ele>
        <time>2017-10-28T13:45:25Z</time>
      </trkpt>
      <trkpt lat="62.612046591805" lon="17.950965125903">
        <ele>171.6</ele>
        <time>2017-10-28T13:45:26Z</time>
      </trkpt>
      <trkpt lat="62.61203779081" lon="17.951001754806">
        <ele>171.8</ele>
        <time>2017-10-28T13:45:27Z</time>
      </trkpt>
      <trkpt lat="62.612028235444" lon="17.95103327075">
        <ele>172</ele>
        <time>2017-10-28T13:45:28Z</time>
      </trkpt>
      <trkpt lat="62.612018847716" lon="17.951066630712">
        <ele>172.2</ele>
        <time>2017-10-28T13:45:29Z</time>
      </trkpt>
      <trkpt lat="62.612011220187" lon="17.951105774185">
        <ele>172.4</ele>
        <time>2017-10-28T13:45:30Z</time>
      </trkpt>
      <trkpt lat="62.61200258683" lon="17.951143828011">
        <ele>172.4</ele>
        <time>2017-10-28T13:45:31Z</time>
      </trkpt>
      <trkpt lat="62.61199420493" lon="17.951178109982">
        <ele>172.6</ele>
        <time>2017-10-28T13:45:32Z</time>
      </trkpt>
      <trkpt lat="62.611984398107" lon="17.9512134816">
        <ele>172.6</ele>
        <time>2017-10-28T13:45:33Z</time>
      </trkpt>
      <trkpt lat="62.611979788062" lon="17.951246422467">
        <ele>172.8</ele>
        <time>2017-10-28T13:45:34Z</time>
      </trkpt>
      <trkpt lat="62.611972998723" lon="17.951288499605">
        <ele>172.8</ele>
        <time>2017-10-28T13:45:35Z</time>
      </trkpt>
      <trkpt lat="62.611965790289" lon="17.951325547603">
        <ele>173</ele>
        <time>2017-10-28T13:45:36Z</time>
      </trkpt>
      <trkpt lat="62.611957743665" lon="17.951359997212">
        <ele>173.2</ele>
        <time>2017-10-28T13:45:37Z</time>
      </trkpt>
      <trkpt lat="62.611952546887" lon="17.951395285011">
        <ele>173.4</ele>
        <time>2017-10-28T13:45:38Z</time>
      </trkpt>
      <trkpt lat="62.611948020661" lon="17.951430824267">
        <ele>173.6</ele>
        <time>2017-10-28T13:45:39Z</time>
      </trkpt>
      <trkpt lat="62.611941985693" lon="17.951465860609">
        <ele>173.8</ele>
        <time>2017-10-28T13:45:40Z</time>
      </trkpt>
      <trkpt lat="62.61193385525" lon="17.95150349534">
        <ele>174.2</ele>
        <time>2017-10-28T13:45:41Z</time>
      </trkpt>
      <trkpt lat="62.611926562997" lon="17.95153450837">
        <ele>174.4</ele>
        <time>2017-10-28T13:45:42Z</time>
      </trkpt>
      <trkpt lat="62.61192044421" lon="17.951573484205">
        <ele>174.8</ele>
        <time>2017-10-28T13:45:43Z</time>
      </trkpt>
      <trkpt lat="62.611913906328" lon="17.951601312113">
        <ele>175.2</ele>
        <time>2017-10-28T13:45:44Z</time>
      </trkpt>
      <trkpt lat="62.611908458093" lon="17.951636935188">
        <ele>175.4</ele>
        <time>2017-10-28T13:45:45Z</time>
      </trkpt>
      <trkpt lat="62.611904853876" lon="17.951669037865">
        <ele>175.8</ele>
        <time>2017-10-28T13:45:46Z</time>
      </trkpt>
      <trkpt lat="62.611900076193" lon="17.951703152198">
        <ele>176</ele>
        <time>2017-10-28T13:45:47Z</time>
      </trkpt>
      <trkpt lat="62.611891526655" lon="17.95173986492">
        <ele>176.4</ele>
        <time>2017-10-28T13:45:48Z</time>
      </trkpt>
      <trkpt lat="62.61188440204" lon="17.951770710312">
        <ele>176.6</ele>
        <time>2017-10-28T13:45:49Z</time>
      </trkpt>
      <trkpt lat="62.611879791995" lon="17.951808680319">
        <ele>176.8</ele>
        <time>2017-10-28T13:45:50Z</time>
      </trkpt>
      <trkpt lat="62.611873086475" lon="17.951843297566">
        <ele>177</ele>
        <time>2017-10-28T13:45:51Z</time>
      </trkpt>
      <trkpt lat="62.611867470602" lon="17.951875986976">
        <ele>177</ele>
        <time>2017-10-28T13:45:52Z</time>
      </trkpt>
      <trkpt lat="62.611861100358" lon="17.951909346938">
        <ele>177.2</ele>
        <time>2017-10-28T13:45:53Z</time>
      </trkpt>
      <trkpt lat="62.611855316847" lon="17.951940527606">
        <ele>177.2</ele>
        <time>2017-10-28T13:45:54Z</time>
      </trkpt>
      <trkpt lat="62.611850120069" lon="17.951979671079">
        <ele>177.4</ele>
        <time>2017-10-28T13:45:55Z</time>
      </trkpt>
      <trkpt lat="62.611844839472" lon="17.95201143848">
        <ele>177.4</ele>
        <time>2017-10-28T13:45:56Z</time>
      </trkpt>
      <trkpt lat="62.611838972142" lon="17.952045049899">
        <ele>177.6</ele>
        <time>2017-10-28T13:45:57Z</time>
      </trkpt>
      <trkpt lat="62.611833104812" lon="17.952078074585">
        <ele>177.8</ele>
        <time>2017-10-28T13:45:58Z</time>
      </trkpt>
      <trkpt lat="62.611825058188" lon="17.952109841986">
        <ele>178</ele>
        <time>2017-10-28T13:45:59Z</time>
      </trkpt>
      <trkpt lat="62.611817933573" lon="17.952146722346">
        <ele>178.4</ele>
        <time>2017-10-28T13:46:00Z</time>
      </trkpt>
      <trkpt lat="62.611811144234" lon="17.952179663213">
        <ele>178.8</ele>
        <time>2017-10-28T13:46:01Z</time>
      </trkpt>
      <trkpt lat="62.611806869465" lon="17.952211514433">
        <ele>179.4</ele>
        <time>2017-10-28T13:46:02Z</time>
      </trkpt>
      <trkpt lat="62.611801672687" lon="17.952246718413">
        <ele>179.8</ele>
        <time>2017-10-28T13:46:03Z</time>
      </trkpt>
      <trkpt lat="62.61179639209" lon="17.952274797778">
        <ele>180</ele>
        <time>2017-10-28T13:46:04Z</time>
      </trkpt>
      <trkpt lat="62.611791195312" lon="17.952312013414">
        <ele>180.4</ele>
        <time>2017-10-28T13:46:05Z</time>
      </trkpt>
      <trkpt lat="62.611783986878" lon="17.952347887946">
        <ele>180.8</ele>
        <time>2017-10-28T13:46:06Z</time>
      </trkpt>
      <trkpt lat="62.61177711372" lon="17.952378314243">
        <ele>181</ele>
        <time>2017-10-28T13:46:07Z</time>
      </trkpt>
      <trkpt lat="62.611770827295" lon="17.952408489083">
        <ele>181.2</ele>
        <time>2017-10-28T13:46:08Z</time>
      </trkpt>
      <trkpt lat="62.611765211422" lon="17.952439418294">
        <ele>181.4</ele>
        <time>2017-10-28T13:46:09Z</time>
      </trkpt>
      <trkpt lat="62.611759930825" lon="17.952464144899">
        <ele>181.4</ele>
        <time>2017-10-28T13:46:10Z</time>
      </trkpt>
      <trkpt lat="62.61175029164" lon="17.952505467666">
        <ele>181.6</ele>
        <time>2017-10-28T13:46:11Z</time>
      </trkpt>
      <trkpt lat="62.611742496473" lon="17.952537905619">
        <ele>181.8</ele>
        <time>2017-10-28T13:46:12Z</time>
      </trkpt>
      <trkpt lat="62.611735707134" lon="17.952569002468">
        <ele>182.2</ele>
        <time>2017-10-28T13:46:13Z</time>
      </trkpt>
      <trkpt lat="62.611729504528" lon="17.952598925851">
        <ele>182.4</ele>
        <time>2017-10-28T13:46:14Z</time>
      </trkpt>
      <trkpt lat="62.611721206447" lon="17.952634129831">
        <ele>182.8</ele>
        <time>2017-10-28T13:46:15Z</time>
      </trkpt>
      <trkpt lat="62.61171592585" lon="17.952666735422">
        <ele>183</ele>
        <time>2017-10-28T13:46:16Z</time>
      </trkpt>
      <trkpt lat="62.611707627769" lon="17.952698921918">
        <ele>183.4</ele>
        <time>2017-10-28T13:46:17Z</time>
      </trkpt>
      <trkpt lat="62.611697904765" lon="17.952733874441">
        <ele>183.8</ele>
        <time>2017-10-28T13:46:18Z</time>
      </trkpt>
      <trkpt lat="62.611690277236" lon="17.952762540539">
        <ele>184.4</ele>
        <time>2017-10-28T13:46:19Z</time>
      </trkpt>
      <trkpt lat="62.611683739354" lon="17.952797576881">
        <ele>184.8</ele>
        <time>2017-10-28T13:46:20Z</time>
      </trkpt>
      <trkpt lat="62.611677620567" lon="17.95283286468">
        <ele>185.4</ele>
        <time>2017-10-28T13:46:21Z</time>
      </trkpt>
      <trkpt lat="62.611668903391" lon="17.952865302633">
        <ele>185.8</ele>
        <time>2017-10-28T13:46:22Z</time>
      </trkpt>
      <trkpt lat="62.61165976712" lon="17.952897656767">
        <ele>186.4</ele>
        <time>2017-10-28T13:46:23Z</time>
      </trkpt>
      <trkpt lat="62.611651301401" lon="17.952925233218">
        <ele>186.6</ele>
        <time>2017-10-28T13:46:24Z</time>
      </trkpt>
      <trkpt lat="62.611643170958" lon="17.952961610664">
        <ele>187</ele>
        <time>2017-10-28T13:46:25Z</time>
      </trkpt>
      <trkpt lat="62.611636130162" lon="17.952995641178">
        <ele>187.2</ele>
        <time>2017-10-28T13:46:26Z</time>
      </trkpt>
      <trkpt lat="62.6116279159" lon="17.953026151294">
        <ele>187.6</ele>
        <time>2017-10-28T13:46:27Z</time>
      </trkpt>
      <trkpt lat="62.611619785457" lon="17.953056745229">
        <ele>187.8</ele>
        <time>2017-10-28T13:46:28Z</time>
      </trkpt>
      <trkpt lat="62.611611822652" lon="17.953087422983">
        <ele>188</ele>
        <time>2017-10-28T13:46:29Z</time>
      </trkpt>
      <trkpt lat="62.611602686381" lon="17.953123046058">
        <ele>188.2</ele>
        <time>2017-10-28T13:46:30Z</time>
      </trkpt>
      <trkpt lat="62.611591370816" lon="17.953153723812">
        <ele>188.6</ele>
        <time>2017-10-28T13:46:31Z</time>
      </trkpt>
      <trkpt lat="62.611583575649" lon="17.953182138453">
        <ele>188.8</ele>
        <time>2017-10-28T13:46:32Z</time>
      </trkpt>
      <trkpt lat="62.611572846817" lon="17.953216252786">
        <ele>189</ele>
        <time>2017-10-28T13:46:33Z</time>
      </trkpt>
      <trkpt lat="62.611564967831" lon="17.953241147029">
        <ele>189.2</ele>
        <time>2017-10-28T13:46:34Z</time>
      </trkpt>
      <trkpt lat="62.611554406637" lon="17.953276434828">
        <ele>189.6</ele>
        <time>2017-10-28T13:46:35Z</time>
      </trkpt>
      <trkpt lat="62.611543929262" lon="17.953307112582">
        <ele>189.8</ele>
        <time>2017-10-28T13:46:36Z</time>
      </trkpt>
      <trkpt lat="62.611536050276" lon="17.953342987114">
        <ele>190</ele>
        <time>2017-10-28T13:46:37Z</time>
      </trkpt>
      <trkpt lat="62.611528506566" lon="17.953377352904">
        <ele>190.4</ele>
        <time>2017-10-28T13:46:38Z</time>
      </trkpt>
      <trkpt lat="62.611519873209" lon="17.953406605735">
        <ele>190.8</ele>
        <time>2017-10-28T13:46:39Z</time>
      </trkpt>
      <trkpt lat="62.611507551816" lon="17.953435439471">
        <ele>191.2</ele>
        <time>2017-10-28T13:46:40Z</time>
      </trkpt>
      <trkpt lat="62.611496487708" lon="17.953463351198">
        <ele>191.8</ele>
        <time>2017-10-28T13:46:41Z</time>
      </trkpt>
      <trkpt lat="62.611486177971" lon="17.953495286237">
        <ele>192.2</ele>
        <time>2017-10-28T13:46:42Z</time>
      </trkpt>
      <trkpt lat="62.611473772759" lon="17.953523197964">
        <ele>192.6</ele>
        <time>2017-10-28T13:46:43Z</time>
      </trkpt>
      <trkpt lat="62.61146111609" lon="17.953545745275">
        <ele>193</ele>
        <time>2017-10-28T13:46:44Z</time>
      </trkpt>
      <trkpt lat="62.611447872688" lon="17.953571812984">
        <ele>193.4</ele>
        <time>2017-10-28T13:46:45Z</time>
      </trkpt>
      <trkpt lat="62.611437982046" lon="17.953598467426">
        <ele>193.6</ele>
        <time>2017-10-28T13:46:46Z</time>
      </trkpt>
      <trkpt lat="62.6114267503" lon="17.953627301162">
        <ele>193.6</ele>
        <time>2017-10-28T13:46:47Z</time>
      </trkpt>
      <trkpt lat="62.61141417745" lon="17.953657727459">
        <ele>193.8</ele>
        <time>2017-10-28T13:46:48Z</time>
      </trkpt>
      <trkpt lat="62.611405041179" lon="17.953691674154">
        <ele>194</ele>
        <time>2017-10-28T13:46:49Z</time>
      </trkpt>
      <trkpt lat="62.611393641795" lon="17.95372134608">
        <ele>194.4</ele>
        <time>2017-10-28T13:46:50Z</time>
      </trkpt>
      <trkpt lat="62.611382996782" lon="17.953747246151">
        <ele>194.6</ele>
        <time>2017-10-28T13:46:51Z</time>
      </trkpt>
      <trkpt lat="62.611372100312" lon="17.953770631652">
        <ele>194.8</ele>
        <time>2017-10-28T13:46:52Z</time>
      </trkpt>
      <trkpt lat="62.61135801872" lon="17.953796531723">
        <ele>195</ele>
        <time>2017-10-28T13:46:53Z</time>
      </trkpt>
      <trkpt lat="62.611347792802" lon="17.95381689974">
        <ele>195.2</ele>
        <time>2017-10-28T13:46:54Z</time>
      </trkpt>
      <trkpt lat="62.611331531916" lon="17.953843135087">
        <ele>195.4</ele>
        <time>2017-10-28T13:46:55Z</time>
      </trkpt>
      <trkpt lat="62.611321892731" lon="17.953865933855">
        <ele>195.6</ele>
        <time>2017-10-28T13:46:56Z</time>
      </trkpt>
      <trkpt lat="62.611311331537" lon="17.953897533618">
        <ele>196</ele>
        <time>2017-10-28T13:46:57Z</time>
      </trkpt>
      <trkpt lat="62.611300854162" lon="17.95392670263">
        <ele>196.4</ele>
        <time>2017-10-28T13:46:58Z</time>
      </trkpt>
      <trkpt lat="62.611290376787" lon="17.953952351244">
        <ele>196.6</ele>
        <time>2017-10-28T13:46:59Z</time>
      </trkpt>
      <trkpt lat="62.611277217204" lon="17.953977161668">
        <ele>197</ele>
        <time>2017-10-28T13:47:00Z</time>
      </trkpt>
      <trkpt lat="62.611266069277" lon="17.954004989576">
        <ele>197.2</ele>
        <time>2017-10-28T13:47:01Z</time>
      </trkpt>
      <trkpt lat="62.611252658237" lon="17.954034996778">
        <ele>197.6</ele>
        <time>2017-10-28T13:47:02Z</time>
      </trkpt>
      <trkpt lat="62.611237822274" lon="17.954053688415">
        <ele>198</ele>
        <time>2017-10-28T13:47:03Z</time>
      </trkpt>
      <trkpt lat="62.611227428718" lon="17.954075229898">
        <ele>198.2</ele>
        <time>2017-10-28T13:47:04Z</time>
      </trkpt>
      <trkpt lat="62.611215945515" lon="17.954105153281">
        <ele>198.6</ele>
        <time>2017-10-28T13:47:05Z</time>
      </trkpt>
      <trkpt lat="62.611207228339" lon="17.95412870642">
        <ele>199</ele>
        <time>2017-10-28T13:47:06Z</time>
      </trkpt>
      <trkpt lat="62.611191889462" lon="17.954163323667">
        <ele>199.2</ele>
        <time>2017-10-28T13:47:07Z</time>
      </trkpt>
      <trkpt lat="62.611179903345" lon="17.954192241222">
        <ele>199.4</ele>
        <time>2017-10-28T13:47:08Z</time>
      </trkpt>
      <trkpt lat="62.61116942597" lon="17.954213866524">
        <ele>199.6</ele>
        <time>2017-10-28T13:47:09Z</time>
      </trkpt>
      <trkpt lat="62.611154506188" lon="17.954243203174">
        <ele>199.6</ele>
        <time>2017-10-28T13:47:10Z</time>
      </trkpt>
      <trkpt lat="62.611140676053" lon="17.954266253399">
        <ele>199.8</ele>
        <time>2017-10-28T13:47:11Z</time>
      </trkpt>
      <trkpt lat="62.611126929737" lon="17.954295254773">
        <ele>199.8</ele>
        <time>2017-10-28T13:47:12Z</time>
      </trkpt>
      <trkpt lat="62.611117290552" lon="17.954322244491">
        <ele>200</ele>
        <time>2017-10-28T13:47:13Z</time>
      </trkpt>
      <trkpt lat="62.611107819005" lon="17.954352419331">
        <ele>200.2</ele>
        <time>2017-10-28T13:47:14Z</time>
      </trkpt>
      <trkpt lat="62.611095246155" lon="17.954382510352">
        <ele>200.4</ele>
        <time>2017-10-28T13:47:15Z</time>
      </trkpt>
      <trkpt lat="62.611084182047" lon="17.954409919165">
        <ele>200.8</ele>
        <time>2017-10-28T13:47:16Z</time>
      </trkpt>
      <trkpt lat="62.611072112111" lon="17.95444218948">
        <ele>201.2</ele>
        <time>2017-10-28T13:47:17Z</time>
      </trkpt>
      <trkpt lat="62.611059371623" lon="17.954476052356">
        <ele>201.6</ele>
        <time>2017-10-28T13:47:18Z</time>
      </trkpt>
      <trkpt lat="62.611046044402" lon="17.954507400662">
        <ele>201.8</ele>
        <time>2017-10-28T13:47:19Z</time>
      </trkpt>
      <trkpt lat="62.611032046629" lon="17.954539251882">
        <ele>202.2</ele>
        <time>2017-10-28T13:47:20Z</time>
      </trkpt>
      <trkpt lat="62.61102106634" lon="17.954571606016">
        <ele>202.6</ele>
        <time>2017-10-28T13:47:21Z</time>
      </trkpt>
      <trkpt lat="62.611011427155" lon="17.954605217435">
        <ele>202.8</ele>
        <time>2017-10-28T13:47:22Z</time>
      </trkpt>
      <trkpt lat="62.610999441038" lon="17.954639750863">
        <ele>203</ele>
        <time>2017-10-28T13:47:23Z</time>
      </trkpt>
      <trkpt lat="62.610987790197" lon="17.954663639278">
        <ele>203.2</ele>
        <time>2017-10-28T13:47:24Z</time>
      </trkpt>
      <trkpt lat="62.610975217347" lon="17.954698005068">
        <ele>203.4</ele>
        <time>2017-10-28T13:47:25Z</time>
      </trkpt>
      <trkpt lat="62.610959962289" lon="17.954730443021">
        <ele>203.6</ele>
        <time>2017-10-28T13:47:26Z</time>
      </trkpt>
      <trkpt lat="62.610947054163" lon="17.954761791327">
        <ele>203.8</ele>
        <time>2017-10-28T13:47:27Z</time>
      </trkpt>
      <trkpt lat="62.610935822417" lon="17.954793055814">
        <ele>204</ele>
        <time>2017-10-28T13:47:28Z</time>
      </trkpt>
      <trkpt lat="62.610921237911" lon="17.954827337785">
        <ele>204.2</ele>
        <time>2017-10-28T13:47:29Z</time>
      </trkpt>
      <trkpt lat="62.610905228482" lon="17.954860530109">
        <ele>204.4</ele>
        <time>2017-10-28T13:47:30Z</time>
      </trkpt>
      <trkpt lat="62.610888967596" lon="17.954891124044">
        <ele>204.6</ele>
        <time>2017-10-28T13:47:31Z</time>
      </trkpt>
      <trkpt lat="62.610874131633" lon="17.954924903101">
        <ele>204.6</ele>
        <time>2017-10-28T13:47:32Z</time>
      </trkpt>
      <trkpt lat="62.610860720593" lon="17.954963627479">
        <ele>204.8</ele>
        <time>2017-10-28T13:47:33Z</time>
      </trkpt>
      <trkpt lat="62.610847896286" lon="17.954999669649">
        <ele>205</ele>
        <time>2017-10-28T13:47:34Z</time>
      </trkpt>
      <trkpt lat="62.610828869373" lon="17.955041998244">
        <ele>205</ele>
        <time>2017-10-28T13:47:35Z</time>
      </trkpt>
      <trkpt lat="62.610813111401" lon="17.955078124233">
        <ele>205.2</ele>
        <time>2017-10-28T13:47:36Z</time>
      </trkpt>
      <trkpt lat="62.610795174135" lon="17.955114082584">
        <ele>205.4</ele>
        <time>2017-10-28T13:47:37Z</time>
      </trkpt>
      <trkpt lat="62.610778494154" lon="17.955150711487">
        <ele>205.6</ele>
        <time>2017-10-28T13:47:38Z</time>
      </trkpt>
      <trkpt lat="62.610764496381" lon="17.955184406725">
        <ele>205.8</ele>
        <time>2017-10-28T13:47:39Z</time>
      </trkpt>
      <trkpt lat="62.610746475296" lon="17.955224723664">
        <ele>206</ele>
        <time>2017-10-28T13:47:40Z</time>
      </trkpt>
      <trkpt lat="62.610727029288" lon="17.955260514377">
        <ele>206.2</ele>
        <time>2017-10-28T13:47:41Z</time>
      </trkpt>
      <trkpt lat="62.61070758328" lon="17.955294125796">
        <ele>206.2</ele>
        <time>2017-10-28T13:47:42Z</time>
      </trkpt>
      <trkpt lat="62.610689646014" lon="17.955327485758">
        <ele>206.4</ele>
        <time>2017-10-28T13:47:43Z</time>
      </trkpt>
      <trkpt lat="62.610668439807" lon="17.955351960906">
        <ele>206.6</ele>
        <time>2017-10-28T13:47:44Z</time>
      </trkpt>
      <trkpt lat="62.610647568876" lon="17.95538347685">
        <ele>206.8</ele>
        <time>2017-10-28T13:47:45Z</time>
      </trkpt>
      <trkpt lat="62.610630637438" lon="17.955416250079">
        <ele>207</ele>
        <time>2017-10-28T13:47:46Z</time>
      </trkpt>
      <trkpt lat="62.610611442887" lon="17.955452124611">
        <ele>207</ele>
        <time>2017-10-28T13:47:47Z</time>
      </trkpt>
      <trkpt lat="62.610589314671" lon="17.955488837333">
        <ele>207.2</ele>
        <time>2017-10-28T13:47:48Z</time>
      </trkpt>
      <trkpt lat="62.610566683541" lon="17.955512893386">
        <ele>207.2</ele>
        <time>2017-10-28T13:47:49Z</time>
      </trkpt>
      <trkpt lat="62.610542292212" lon="17.95554440933">
        <ele>207.2</ele>
        <time>2017-10-28T13:47:50Z</time>
      </trkpt>
      <trkpt lat="62.610517817064" lon="17.955577014921">
        <ele>207.2</ele>
        <time>2017-10-28T13:47:51Z</time>
      </trkpt>
      <trkpt lat="62.610494766839" lon="17.955607189761">
        <ele>207.2</ele>
        <time>2017-10-28T13:47:52Z</time>
      </trkpt>
      <trkpt lat="62.610470626967" lon="17.955638957162">
        <ele>207.4</ele>
        <time>2017-10-28T13:47:53Z</time>
      </trkpt>
      <trkpt lat="62.610449588398" lon="17.955666365975">
        <ele>207.4</ele>
        <time>2017-10-28T13:47:54Z</time>
      </trkpt>
      <trkpt lat="62.61042176049" lon="17.955701486136">
        <ele>207.4</ele>
        <time>2017-10-28T13:47:55Z</time>
      </trkpt>
      <trkpt lat="62.610398542627" lon="17.955730655148">
        <ele>207.4</ele>
        <time>2017-10-28T13:47:56Z</time>
      </trkpt>
      <trkpt lat="62.610375240945" lon="17.955764937119">
        <ele>207.6</ele>
        <time>2017-10-28T13:47:57Z</time>
      </trkpt>
      <trkpt lat="62.610353531824" lon="17.95579586633">
        <ele>207.8</ele>
        <time>2017-10-28T13:47:58Z</time>
      </trkpt>
      <trkpt lat="62.610328889038" lon="17.955822856048">
        <ele>208</ele>
        <time>2017-10-28T13:47:59Z</time>
      </trkpt>
      <trkpt lat="62.610301983139" lon="17.955844984264">
        <ele>208.4</ele>
        <time>2017-10-28T13:48:00Z</time>
      </trkpt>
      <trkpt lat="62.610276585982" lon="17.95586711248">
        <ele>208.6</ele>
        <time>2017-10-28T13:48:01Z</time>
      </trkpt>
      <trkpt lat="62.610251943196" lon="17.955891755266">
        <ele>209</ele>
        <time>2017-10-28T13:48:02Z</time>
      </trkpt>
      <trkpt lat="62.610228473876" lon="17.955919834631">
        <ele>209.2</ele>
        <time>2017-10-28T13:48:03Z</time>
      </trkpt>
      <trkpt lat="62.610206680936" lon="17.955940957019">
        <ele>209.2</ele>
        <time>2017-10-28T13:48:04Z</time>
      </trkpt>
      <trkpt lat="62.610179188304" lon="17.955957720819">
        <ele>209.4</ele>
        <time>2017-10-28T13:48:05Z</time>
      </trkpt>
      <trkpt lat="62.61015521607" lon="17.95597104804">
        <ele>209.4</ele>
        <time>2017-10-28T13:48:06Z</time>
      </trkpt>
      <trkpt lat="62.610131411474" lon="17.955983704709">
        <ele>209.6</ele>
        <time>2017-10-28T13:48:07Z</time>
      </trkpt>
      <trkpt lat="62.610108025973" lon="17.955992170428">
        <ele>209.6</ele>
        <time>2017-10-28T13:48:08Z</time>
      </trkpt>
      <trkpt lat="62.610087741775" lon="17.956000468509">
        <ele>209.8</ele>
        <time>2017-10-28T13:48:09Z</time>
      </trkpt>
      <trkpt lat="62.610062344618" lon="17.956011616436">
        <ele>209.8</ele>
        <time>2017-10-28T13:48:10Z</time>
      </trkpt>
      <trkpt lat="62.610040467859" lon="17.956013628092">
        <ele>210</ele>
        <time>2017-10-28T13:48:11Z</time>
      </trkpt>
      <trkpt lat="62.610017249996" lon="17.956015555929">
        <ele>210.2</ele>
        <time>2017-10-28T13:48:12Z</time>
      </trkpt>
      <trkpt lat="62.609994367409" lon="17.956013292816">
        <ele>210.4</ele>
        <time>2017-10-28T13:48:13Z</time>
      </trkpt>
      <trkpt lat="62.609972574469" lon="17.956009856237">
        <ele>210.6</ele>
        <time>2017-10-28T13:48:14Z</time>
      </trkpt>
      <trkpt lat="62.609949188968" lon="17.956002815441">
        <ele>211</ele>
        <time>2017-10-28T13:48:15Z</time>
      </trkpt>
      <trkpt lat="62.609928737132" lon="17.955999630319">
        <ele>211.2</ele>
        <time>2017-10-28T13:48:16Z</time>
      </trkpt>
      <trkpt lat="62.609906525097" lon="17.955987308926">
        <ele>211.6</ele>
        <time>2017-10-28T13:48:17Z</time>
      </trkpt>
      <trkpt lat="62.609884061605" lon="17.955975658085">
        <ele>212</ele>
        <time>2017-10-28T13:48:18Z</time>
      </trkpt>
      <trkpt lat="62.609863274493" lon="17.955959900113">
        <ele>212.4</ele>
        <time>2017-10-28T13:48:19Z</time>
      </trkpt>
      <trkpt lat="62.609840308087" lon="17.955931820748">
        <ele>212.8</ele>
        <time>2017-10-28T13:48:20Z</time>
      </trkpt>
      <trkpt lat="62.60981994007" lon="17.955903238469">
        <ele>213.2</ele>
        <time>2017-10-28T13:48:21Z</time>
      </trkpt>
      <trkpt lat="62.609802170442" lon="17.95587884714">
        <ele>213.6</ele>
        <time>2017-10-28T13:48:22Z</time>
      </trkpt>
      <trkpt lat="62.60978473609" lon="17.955844313712">
        <ele>214</ele>
        <time>2017-10-28T13:48:23Z</time>
      </trkpt>
      <trkpt lat="62.609770151584" lon="17.955819838564">
        <ele>214.2</ele>
        <time>2017-10-28T13:48:24Z</time>
      </trkpt>
      <trkpt lat="62.609750202662" lon="17.955786478602">
        <ele>214.4</ele>
        <time>2017-10-28T13:48:25Z</time>
      </trkpt>
      <trkpt lat="62.609731511025" lon="17.955761751997">
        <ele>214.8</ele>
        <time>2017-10-28T13:48:26Z</time>
      </trkpt>
      <trkpt lat="62.609714244311" lon="17.95573635484">
        <ele>215</ele>
        <time>2017-10-28T13:48:27Z</time>
      </trkpt>
      <trkpt lat="62.609700246538" lon="17.955703413973">
        <ele>215.2</ele>
        <time>2017-10-28T13:48:28Z</time>
      </trkpt>
      <trkpt lat="62.609686584041" lon="17.955666449794">
        <ele>215.4</ele>
        <time>2017-10-28T13:48:29Z</time>
      </trkpt>
      <trkpt lat="62.609670909888" lon="17.955628731244">
        <ele>215.6</ele>
        <time>2017-10-28T13:48:30Z</time>
      </trkpt>
      <trkpt lat="62.609658085581" lon="17.955594113997">
        <ele>215.8</ele>
        <time>2017-10-28T13:48:31Z</time>
      </trkpt>
      <trkpt lat="62.609645848007" lon="17.95555698218">
        <ele>216</ele>
        <time>2017-10-28T13:48:32Z</time>
      </trkpt>
      <trkpt lat="62.609632772243" lon="17.955523622218">
        <ele>216.2</ele>
        <time>2017-10-28T13:48:33Z</time>
      </trkpt>
      <trkpt lat="62.609621037583" lon="17.955494872301">
        <ele>216.6</ele>
        <time>2017-10-28T13:48:34Z</time>
      </trkpt>
      <trkpt lat="62.609606536896" lon="17.955457405208">
        <ele>217</ele>
        <time>2017-10-28T13:48:35Z</time>
      </trkpt>
      <trkpt lat="62.60959446696" lon="17.955418597011">
        <ele>217.4</ele>
        <time>2017-10-28T13:48:36Z</time>
      </trkpt>
      <trkpt lat="62.609583151395" lon="17.955380291728">
        <ele>217.8</ele>
        <time>2017-10-28T13:48:37Z</time>
      </trkpt>
      <trkpt lat="62.609573931305" lon="17.95533989097">
        <ele>218</ele>
        <time>2017-10-28T13:48:38Z</time>
      </trkpt>
      <trkpt lat="62.609568315432" lon="17.955306614827">
        <ele>218.2</ele>
        <time>2017-10-28T13:48:39Z</time>
      </trkpt>
      <trkpt lat="62.60956010117" lon="17.955260430558">
        <ele>218.6</ele>
        <time>2017-10-28T13:48:40Z</time>
      </trkpt>
      <trkpt lat="62.609554485297" lon="17.955217682868">
        <ele>219</ele>
        <time>2017-10-28T13:48:41Z</time>
      </trkpt>
      <trkpt lat="62.609546857768" lon="17.955176863015">
        <ele>219</ele>
        <time>2017-10-28T13:48:42Z</time>
      </trkpt>
      <trkpt lat="62.609540487524" lon="17.9551362108">
        <ele>219.2</ele>
        <time>2017-10-28T13:48:43Z</time>
      </trkpt>
      <trkpt lat="62.609534201099" lon="17.955094971852">
        <ele>219.2</ele>
        <time>2017-10-28T13:48:44Z</time>
      </trkpt>
      <trkpt lat="62.609529004321" lon="17.955055409284">
        <ele>219.2</ele>
        <time>2017-10-28T13:48:45Z</time>
      </trkpt>
      <trkpt lat="62.609523556086" lon="17.955019618571">
        <ele>219.2</ele>
        <time>2017-10-28T13:48:46Z</time>
      </trkpt>
      <trkpt lat="62.609520203326" lon="17.954978714899">
        <ele>219.2</ele>
        <time>2017-10-28T13:48:47Z</time>
      </trkpt>
      <trkpt lat="62.609515341824" lon="17.954943762376">
        <ele>219.4</ele>
        <time>2017-10-28T13:48:48Z</time>
      </trkpt>
      <trkpt lat="62.609509642132" lon="17.954909396586">
        <ele>219.4</ele>
        <time>2017-10-28T13:48:49Z</time>
      </trkpt>
      <trkpt lat="62.609501176413" lon="17.954870672208">
        <ele>219.8</ele>
        <time>2017-10-28T13:48:50Z</time>
      </trkpt>
      <trkpt lat="62.609496901644" lon="17.95483110964">
        <ele>220.2</ele>
        <time>2017-10-28T13:48:51Z</time>
      </trkpt>
      <trkpt lat="62.609493632703" lon="17.954793223452">
        <ele>220.4</ele>
        <time>2017-10-28T13:48:52Z</time>
      </trkpt>
      <trkpt lat="62.609492123961" lon="17.954750475762">
        <ele>221</ele>
        <time>2017-10-28T13:48:53Z</time>
      </trkpt>
      <trkpt lat="62.609488603563" lon="17.954719714189">
        <ele>221.2</ele>
        <time>2017-10-28T13:48:54Z</time>
      </trkpt>
      <trkpt lat="62.60948131131" lon="17.954679229612">
        <ele>221.6</ele>
        <time>2017-10-28T13:48:55Z</time>
      </trkpt>
      <trkpt lat="62.609477623274" lon="17.95463832594">
        <ele>221.8</ele>
        <time>2017-10-28T13:48:56Z</time>
      </trkpt>
      <trkpt lat="62.609475192523" lon="17.954602786684">
        <ele>222</ele>
        <time>2017-10-28T13:48:57Z</time>
      </trkpt>
      <trkpt lat="62.609472175039" lon="17.954566995971">
        <ele>222.2</ele>
        <time>2017-10-28T13:48:58Z</time>
      </trkpt>
      <trkpt lat="62.609472845591" lon="17.954527936317">
        <ele>222.6</ele>
        <time>2017-10-28T13:48:59Z</time>
      </trkpt>
      <trkpt lat="62.609471336849" lon="17.954487284102">
        <ele>222.8</ele>
        <time>2017-10-28T13:49:00Z</time>
      </trkpt>
      <trkpt lat="62.609469995745" lon="17.954451325751">
        <ele>223.2</ele>
        <time>2017-10-28T13:49:01Z</time>
      </trkpt>
      <trkpt lat="62.609468906098" lon="17.954411344088">
        <ele>223.4</ele>
        <time>2017-10-28T13:49:02Z</time>
      </trkpt>
      <trkpt lat="62.609464882786" lon="17.954375804832">
        <ele>223.6</ele>
        <time>2017-10-28T13:49:03Z</time>
      </trkpt>
      <trkpt lat="62.609460775655" lon="17.954341271404">
        <ele>223.8</ele>
        <time>2017-10-28T13:49:04Z</time>
      </trkpt>
      <trkpt lat="62.609459937465" lon="17.954297769343">
        <ele>223.8</ele>
        <time>2017-10-28T13:49:05Z</time>
      </trkpt>
      <trkpt lat="62.60946035656" lon="17.954260805164">
        <ele>224</ele>
        <time>2017-10-28T13:49:06Z</time>
      </trkpt>
      <trkpt lat="62.609460691836" lon="17.954221913148">
        <ele>224.2</ele>
        <time>2017-10-28T13:49:07Z</time>
      </trkpt>
      <trkpt lat="62.609458931637" lon="17.954184110779">
        <ele>224.4</ele>
        <time>2017-10-28T13:49:08Z</time>
      </trkpt>
      <trkpt lat="62.609456836162" lon="17.954144967306">
        <ele>224.8</ele>
        <time>2017-10-28T13:49:09Z</time>
      </trkpt>
      <trkpt lat="62.609456919981" lon="17.954100878512">
        <ele>225</ele>
        <time>2017-10-28T13:49:10Z</time>
      </trkpt>
      <trkpt lat="62.609458596361" lon="17.954054442786">
        <ele>225.4</ele>
        <time>2017-10-28T13:49:11Z</time>
      </trkpt>
      <trkpt lat="62.609458093447" lon="17.954011276001">
        <ele>225.6</ele>
        <time>2017-10-28T13:49:12Z</time>
      </trkpt>
      <trkpt lat="62.609455495058" lon="17.953965427008">
        <ele>226.2</ele>
        <time>2017-10-28T13:49:13Z</time>
      </trkpt>
      <trkpt lat="62.60945616561" lon="17.953922846956">
        <ele>226.6</ele>
        <time>2017-10-28T13:49:14Z</time>
      </trkpt>
      <trkpt lat="62.609458261085" lon="17.953875489221">
        <ele>227</ele>
        <time>2017-10-28T13:49:15Z</time>
      </trkpt>
      <trkpt lat="62.609464128415" lon="17.953842380716">
        <ele>227.2</ele>
        <time>2017-10-28T13:49:16Z</time>
      </trkpt>
      <trkpt lat="62.609466056252" lon="17.95379762137">
        <ele>227.6</ele>
        <time>2017-10-28T13:49:17Z</time>
      </trkpt>
      <trkpt lat="62.609466978261" lon="17.953753700214">
        <ele>227.6</ele>
        <time>2017-10-28T13:49:18Z</time>
      </trkpt>
      <trkpt lat="62.609466894442" lon="17.953710114334">
        <ele>227.8</ele>
        <time>2017-10-28T13:49:19Z</time>
      </trkpt>
      <trkpt lat="62.609472845591" lon="17.953665606445">
        <ele>228</ele>
        <time>2017-10-28T13:49:20Z</time>
      </trkpt>
      <trkpt lat="62.60947628217" lon="17.95362243966">
        <ele>228.2</ele>
        <time>2017-10-28T13:49:21Z</time>
      </trkpt>
      <trkpt lat="62.609480976034" lon="17.953579105237">
        <ele>228.4</ele>
        <time>2017-10-28T13:49:22Z</time>
      </trkpt>
      <trkpt lat="62.609483909699" lon="17.953533675339">
        <ele>228.6</ele>
        <time>2017-10-28T13:49:23Z</time>
      </trkpt>
      <trkpt lat="62.609484328794" lon="17.953494867142">
        <ele>228.8</ele>
        <time>2017-10-28T13:49:24Z</time>
      </trkpt>
      <trkpt lat="62.60948717864" lon="17.953446503579">
        <ele>228.8</ele>
        <time>2017-10-28T13:49:25Z</time>
      </trkpt>
      <trkpt lat="62.609485753717" lon="17.953405264631">
        <ele>229</ele>
        <time>2017-10-28T13:49:26Z</time>
      </trkpt>
      <trkpt lat="62.60948885502" lon="17.953358745086">
        <ele>229</ele>
        <time>2017-10-28T13:49:27Z</time>
      </trkpt>
      <trkpt lat="62.609493800341" lon="17.95331901488">
        <ele>229.2</ele>
        <time>2017-10-28T13:49:28Z</time>
      </trkpt>
      <trkpt lat="62.60950058968" lon="17.953279955226">
        <ele>229.4</ele>
        <time>2017-10-28T13:49:29Z</time>
      </trkpt>
      <trkpt lat="62.609507714295" lon="17.953240057382">
        <ele>229.6</ele>
        <time>2017-10-28T13:49:30Z</time>
      </trkpt>
      <trkpt lat="62.609510061227" lon="17.953192615828">
        <ele>230</ele>
        <time>2017-10-28T13:49:31Z</time>
      </trkpt>
      <trkpt lat="62.609513916901" lon="17.953154142907">
        <ele>230.2</ele>
        <time>2017-10-28T13:49:32Z</time>
      </trkpt>
      <trkpt lat="62.609517688756" lon="17.953110473208">
        <ele>230.6</ele>
        <time>2017-10-28T13:49:33Z</time>
      </trkpt>
      <trkpt lat="62.609521879706" lon="17.953076023599">
        <ele>230.8</ele>
        <time>2017-10-28T13:49:34Z</time>
      </trkpt>
      <trkpt lat="62.609527747036" lon="17.953031264253">
        <ele>231.2</ele>
        <time>2017-10-28T13:49:35Z</time>
      </trkpt>
      <trkpt lat="62.609533614366" lon="17.952992875151">
        <ele>231.4</ele>
        <time>2017-10-28T13:49:36Z</time>
      </trkpt>
      <trkpt lat="62.609540738981" lon="17.95295272585">
        <ele>231.8</ele>
        <time>2017-10-28T13:49:37Z</time>
      </trkpt>
      <trkpt lat="62.609546438673" lon="17.952918192422">
        <ele>231.8</ele>
        <time>2017-10-28T13:49:38Z</time>
      </trkpt>
      <trkpt lat="62.609544762293" lon="17.952882904623">
        <ele>232</ele>
        <time>2017-10-28T13:49:39Z</time>
      </trkpt>
      <trkpt lat="62.609548953243" lon="17.952837642363">
        <ele>232.4</ele>
        <time>2017-10-28T13:49:40Z</time>
      </trkpt>
      <trkpt lat="62.609555658763" lon="17.952796738691">
        <ele>232.6</ele>
        <time>2017-10-28T13:49:41Z</time>
      </trkpt>
      <trkpt lat="62.609558927704" lon="17.952759690693">
        <ele>232.8</ele>
        <time>2017-10-28T13:49:42Z</time>
      </trkpt>
      <trkpt lat="62.609563370111" lon="17.952722307419">
        <ele>233</ele>
        <time>2017-10-28T13:49:43Z</time>
      </trkpt>
      <trkpt lat="62.609566303776" lon="17.952690037104">
        <ele>233.4</ele>
        <time>2017-10-28T13:49:44Z</time>
      </trkpt>
      <trkpt lat="62.60957518859" lon="17.952647457052">
        <ele>233.6</ele>
        <time>2017-10-28T13:49:45Z</time>
      </trkpt>
      <trkpt lat="62.609583319033" lon="17.95261493528">
        <ele>233.8</ele>
        <time>2017-10-28T13:49:46Z</time>
      </trkpt>
      <trkpt lat="62.609587090888" lon="17.952574450703">
        <ele>234</ele>
        <time>2017-10-28T13:49:47Z</time>
      </trkpt>
      <trkpt lat="62.609590359829" lon="17.952531535375">
        <ele>234.2</ele>
        <time>2017-10-28T13:49:48Z</time>
      </trkpt>
      <trkpt lat="62.609594550779" lon="17.952494152101">
        <ele>234.4</ele>
        <time>2017-10-28T13:49:49Z</time>
      </trkpt>
      <trkpt lat="62.609600501928" lon="17.952451320592">
        <ele>234.8</ele>
        <time>2017-10-28T13:49:50Z</time>
      </trkpt>
      <trkpt lat="62.609604944335" lon="17.952412260938">
        <ele>235</ele>
        <time>2017-10-28T13:49:51Z</time>
      </trkpt>
      <trkpt lat="62.609607961819" lon="17.952377224596">
        <ele>235.4</ele>
        <time>2017-10-28T13:49:52Z</time>
      </trkpt>
      <trkpt lat="62.609613912968" lon="17.95233330344">
        <ele>235.8</ele>
        <time>2017-10-28T13:49:53Z</time>
      </trkpt>
      <trkpt lat="62.609621959592" lon="17.952300530211">
        <ele>236</ele>
        <time>2017-10-28T13:49:54Z</time>
      </trkpt>
      <trkpt lat="62.609630425311" lon="17.952253591571">
        <ele>236.4</ele>
        <time>2017-10-28T13:49:55Z</time>
      </trkpt>
      <trkpt lat="62.609639896858" lon="17.952213358451">
        <ele>236.6</ele>
        <time>2017-10-28T13:49:56Z</time>
      </trkpt>
      <trkpt lat="62.609657163572" lon="17.952182093964">
        <ele>236.8</ele>
        <time>2017-10-28T13:49:57Z</time>
      </trkpt>
      <trkpt lat="62.609673592096" lon="17.952159630472">
        <ele>237</ele>
        <time>2017-10-28T13:49:58Z</time>
      </trkpt>
      <trkpt lat="62.609690439715" lon="17.952132640754">
        <ele>237</ele>
        <time>2017-10-28T13:49:59Z</time>
      </trkpt>
      <trkpt lat="62.609709382809" lon="17.952107495054">
        <ele>237</ele>
        <time>2017-10-28T13:50:00Z</time>
      </trkpt>
      <trkpt lat="62.6097252246" lon="17.952081175888">
        <ele>236.8</ele>
        <time>2017-10-28T13:50:01Z</time>
      </trkpt>
      <trkpt lat="62.609743748599" lon="17.952060137319">
        <ele>236.8</ele>
        <time>2017-10-28T13:50:02Z</time>
      </trkpt>
      <trkpt lat="62.609760093304" lon="17.952039182569">
        <ele>236.8</ele>
        <time>2017-10-28T13:50:03Z</time>
      </trkpt>
      <trkpt lat="62.609775013086" lon="17.952015126516">
        <ele>236.8</ele>
        <time>2017-10-28T13:50:04Z</time>
      </trkpt>
      <trkpt lat="62.609792195981" lon="17.95198294002">
        <ele>236.8</ele>
        <time>2017-10-28T13:50:05Z</time>
      </trkpt>
      <trkpt lat="62.609801751347" lon="17.95195276518">
        <ele>236.8</ele>
        <time>2017-10-28T13:50:06Z</time>
      </trkpt>
      <trkpt lat="62.609814994749" lon="17.951901887047">
        <ele>236.8</ele>
        <time>2017-10-28T13:50:07Z</time>
      </trkpt>
      <trkpt lat="62.609823544287" lon="17.951852266199">
        <ele>236.8</ele>
        <time>2017-10-28T13:50:08Z</time>
      </trkpt>
      <trkpt lat="62.609825304486" lon="17.951803818817">
        <ele>236.8</ele>
        <time>2017-10-28T13:50:09Z</time>
      </trkpt>
      <trkpt lat="62.609824298658" lon="17.951746151345">
        <ele>237</ele>
        <time>2017-10-28T13:50:10Z</time>
      </trkpt>
      <trkpt lat="62.609827399961" lon="17.9516996318">
        <ele>237.4</ele>
        <time>2017-10-28T13:50:11Z</time>
      </trkpt>
      <trkpt lat="62.60983167473" lon="17.951658057576">
        <ele>237.6</ele>
        <time>2017-10-28T13:50:12Z</time>
      </trkpt>
      <trkpt lat="62.609831590911" lon="17.951617153904">
        <ele>237.6</ele>
        <time>2017-10-28T13:50:13Z</time>
      </trkpt>
      <trkpt lat="62.609830165988" lon="17.951568538884">
        <ele>237.6</ele>
        <time>2017-10-28T13:50:14Z</time>
      </trkpt>
      <trkpt lat="62.609839386078" lon="17.951516822561">
        <ele>237.6</ele>
        <time>2017-10-28T13:50:15Z</time>
      </trkpt>
      <trkpt lat="62.609853383851" lon="17.951488659377">
        <ele>237.4</ele>
        <time>2017-10-28T13:50:16Z</time>
      </trkpt>
      <trkpt lat="62.609868387452" lon="17.951457646347">
        <ele>237.6</ele>
        <time>2017-10-28T13:50:17Z</time>
      </trkpt>
      <trkpt lat="62.609863442131" lon="17.951412048811">
        <ele>237.4</ele>
        <time>2017-10-28T13:50:18Z</time>
      </trkpt>
      <trkpt lat="62.609847181245" lon="17.951381706333">
        <ele>237.4</ele>
        <time>2017-10-28T13:50:19Z</time>
      </trkpt>
      <trkpt lat="62.60982664559" lon="17.951380029953">
        <ele>237.6</ele>
        <time>2017-10-28T13:50:20Z</time>
      </trkpt>
      <trkpt lat="62.609811725808" lon="17.951407271128">
        <ele>237.4</ele>
        <time>2017-10-28T13:50:21Z</time>
      </trkpt>
      <trkpt lat="62.60981323455" lon="17.951445157316">
        <ele>237.2</ele>
        <time>2017-10-28T13:50:22Z</time>
      </trkpt>
      <trkpt lat="62.609810049428" lon="17.951497460372">
        <ele>237</ele>
        <time>2017-10-28T13:50:23Z</time>
      </trkpt>
      <trkpt lat="62.609801751347" lon="17.951529730687">
        <ele>236.6</ele>
        <time>2017-10-28T13:50:24Z</time>
      </trkpt>
      <trkpt lat="62.609788340307" lon="17.951570466721">
        <ele>236.6</ele>
        <time>2017-10-28T13:50:25Z</time>
      </trkpt>
      <trkpt lat="62.609770989774" lon="17.951596785887">
        <ele>236.4</ele>
        <time>2017-10-28T13:50:26Z</time>
      </trkpt>
      <trkpt lat="62.609760763856" lon="17.951629475297">
        <ele>236.2</ele>
        <time>2017-10-28T13:50:27Z</time>
      </trkpt>
      <trkpt lat="62.609746346988" lon="17.951663841087">
        <ele>236</ele>
        <time>2017-10-28T13:50:28Z</time>
      </trkpt>
      <trkpt lat="62.609730589016" lon="17.951694183565">
        <ele>236</ele>
        <time>2017-10-28T13:50:29Z</time>
      </trkpt>
      <trkpt lat="62.609714076673" lon="17.951734416685">
        <ele>236.2</ele>
        <time>2017-10-28T13:50:30Z</time>
      </trkpt>
      <trkpt lat="62.609699575986" lon="17.951774901262">
        <ele>236.2</ele>
        <time>2017-10-28T13:50:31Z</time>
      </trkpt>
      <trkpt lat="62.609685494394" lon="17.951816475486">
        <ele>236.2</ele>
        <time>2017-10-28T13:50:32Z</time>
      </trkpt>
      <trkpt lat="62.609669987879" lon="17.951860145185">
        <ele>236</ele>
        <time>2017-10-28T13:50:33Z</time>
      </trkpt>
      <trkpt lat="62.609659342866" lon="17.951900881219">
        <ele>236</ele>
        <time>2017-10-28T13:50:34Z</time>
      </trkpt>
      <trkpt lat="62.609649536043" lon="17.951957039949">
        <ele>235.8</ele>
        <time>2017-10-28T13:50:35Z</time>
      </trkpt>
      <trkpt lat="62.609640651229" lon="17.952010265014">
        <ele>235.8</ele>
        <time>2017-10-28T13:50:36Z</time>
      </trkpt>
      <trkpt lat="62.60962967094" lon="17.952058041844">
        <ele>235.8</ele>
        <time>2017-10-28T13:50:37Z</time>
      </trkpt>
      <trkpt lat="62.609620199393" lon="17.952106573045">
        <ele>236</ele>
        <time>2017-10-28T13:50:38Z</time>
      </trkpt>
      <trkpt lat="62.609613577692" lon="17.952148398726">
        <ele>236</ele>
        <time>2017-10-28T13:50:39Z</time>
      </trkpt>
      <trkpt lat="62.609603519412" lon="17.952204305999">
        <ele>236</ele>
        <time>2017-10-28T13:50:40Z</time>
      </trkpt>
      <trkpt lat="62.609591533295" lon="17.952257531064">
        <ele>236</ele>
        <time>2017-10-28T13:50:41Z</time>
      </trkpt>
      <trkpt lat="62.609573428391" lon="17.952304385885">
        <ele>236.2</ele>
        <time>2017-10-28T13:50:42Z</time>
      </trkpt>
      <trkpt lat="62.609551803089" lon="17.952347301213">
        <ele>236.2</ele>
        <time>2017-10-28T13:50:43Z</time>
      </trkpt>
      <trkpt lat="62.609526322113" lon="17.952391809102">
        <ele>236.4</ele>
        <time>2017-10-28T13:50:44Z</time>
      </trkpt>
      <trkpt lat="62.609500505861" lon="17.952442603416">
        <ele>236.4</ele>
        <time>2017-10-28T13:50:45Z</time>
      </trkpt>
      <trkpt lat="62.609480808396" lon="17.952487195124">
        <ele>236.2</ele>
        <time>2017-10-28T13:50:46Z</time>
      </trkpt>
      <trkpt lat="62.609462954949" lon="17.952540252551">
        <ele>236.2</ele>
        <time>2017-10-28T13:50:47Z</time>
      </trkpt>
      <trkpt lat="62.609450633556" lon="17.952597081833">
        <ele>235.8</ele>
        <time>2017-10-28T13:50:48Z</time>
      </trkpt>
      <trkpt lat="62.609436216688" lon="17.952653156744">
        <ele>235.8</ele>
        <time>2017-10-28T13:50:49Z</time>
      </trkpt>
      <trkpt lat="62.609416435404" lon="17.952708561103">
        <ele>235.6</ele>
        <time>2017-10-28T13:50:50Z</time>
      </trkpt>
      <trkpt lat="62.609395732111" lon="17.952760025969">
        <ele>235.4</ele>
        <time>2017-10-28T13:50:51Z</time>
      </trkpt>
      <trkpt lat="62.609377543388" lon="17.952813334853">
        <ele>235.4</ele>
        <time>2017-10-28T13:50:52Z</time>
      </trkpt>
      <trkpt lat="62.609348625833" lon="17.952856753095">
        <ele>235</ele>
        <time>2017-10-28T13:50:53Z</time>
      </trkpt>
      <trkpt lat="62.609327251988" lon="17.952892292351">
        <ele>234.8</ele>
        <time>2017-10-28T13:50:54Z</time>
      </trkpt>
      <trkpt lat="62.609298669709" lon="17.952945852692">
        <ele>234.4</ele>
        <time>2017-10-28T13:50:55Z</time>
      </trkpt>
      <trkpt lat="62.609275032751" lon="17.952994300074">
        <ele>233.8</ele>
        <time>2017-10-28T13:50:56Z</time>
      </trkpt>
      <trkpt lat="62.609253155992" lon="17.953049620614">
        <ele>233.4</ele>
        <time>2017-10-28T13:50:57Z</time>
      </trkpt>
      <trkpt lat="62.609231446871" lon="17.953104019145">
        <ele>233</ele>
        <time>2017-10-28T13:50:58Z</time>
      </trkpt>
      <trkpt lat="62.609208815741" lon="17.953158333857">
        <ele>232.8</ele>
        <time>2017-10-28T13:50:59Z</time>
      </trkpt>
      <trkpt lat="62.609181826023" lon="17.95323184312">
        <ele>232.4</ele>
        <time>2017-10-28T13:51:00Z</time>
      </trkpt>
      <trkpt lat="62.609154081934" lon="17.953299485053">
        <ele>232</ele>
        <time>2017-10-28T13:51:01Z</time>
      </trkpt>
      <trkpt lat="62.609130277338" lon="17.953369976832">
        <ele>231.6</ele>
        <time>2017-10-28T13:51:02Z</time>
      </trkpt>
      <trkpt lat="62.609106975656" lon="17.953446168303">
        <ele>231.2</ele>
        <time>2017-10-28T13:51:03Z</time>
      </trkpt>
      <trkpt lat="62.609086188544" lon="17.953517162996">
        <ele>230.8</ele>
        <time>2017-10-28T13:51:04Z</time>
      </trkpt>
      <trkpt lat="62.609060456111" lon="17.953605759679">
        <ele>230.2</ele>
        <time>2017-10-28T13:51:05Z</time>
      </trkpt>
      <trkpt lat="62.609042183569" lon="17.953689830136">
        <ele>229.8</ele>
        <time>2017-10-28T13:51:06Z</time>
      </trkpt>
      <trkpt lat="62.609031119461" lon="17.953774487326">
        <ele>229.2</ele>
        <time>2017-10-28T13:51:07Z</time>
      </trkpt>
      <trkpt lat="62.609017289326" lon="17.953864257475">
        <ele>228.4</ele>
        <time>2017-10-28T13:51:08Z</time>
      </trkpt>
      <trkpt lat="62.609009577978" lon="17.953945645724">
        <ele>227.4</ele>
        <time>2017-10-28T13:51:09Z</time>
      </trkpt>
      <trkpt lat="62.609010667625" lon="17.954049581284">
        <ele>227</ele>
        <time>2017-10-28T13:51:10Z</time>
      </trkpt>
      <trkpt lat="62.609017037869" lon="17.954156115233">
        <ele>226.4</ele>
        <time>2017-10-28T13:51:11Z</time>
      </trkpt>
      <trkpt lat="62.609029945995" lon="17.95424270026">
        <ele>225.8</ele>
        <time>2017-10-28T13:51:12Z</time>
      </trkpt>
      <trkpt lat="62.609046625976" lon="17.954329369106">
        <ele>225.4</ele>
        <time>2017-10-28T13:51:13Z</time>
      </trkpt>
      <trkpt lat="62.609065485251" lon="17.954407488414">
        <ele>225.2</ele>
        <time>2017-10-28T13:51:14Z</time>
      </trkpt>
      <trkpt lat="62.609086104725" lon="17.95448326079">
        <ele>224.8</ele>
        <time>2017-10-28T13:51:15Z</time>
      </trkpt>
      <trkpt lat="62.609105047819" lon="17.954545789764">
        <ele>224.4</ele>
        <time>2017-10-28T13:51:16Z</time>
      </trkpt>
      <trkpt lat="62.609115525194" lon="17.954626758918">
        <ele>223.8</ele>
        <time>2017-10-28T13:51:17Z</time>
      </trkpt>
      <trkpt lat="62.609118542678" lon="17.954700771095">
        <ele>223.4</ele>
        <time>2017-10-28T13:51:18Z</time>
      </trkpt>
      <trkpt lat="62.609113932633" lon="17.954773190711">
        <ele>223</ele>
        <time>2017-10-28T13:51:19Z</time>
      </trkpt>
      <trkpt lat="62.609097755566" lon="17.954859859557">
        <ele>222.8</ele>
        <time>2017-10-28T13:51:20Z</time>
      </trkpt>
      <trkpt lat="62.609071184943" lon="17.954936889218">
        <ele>222.4</ele>
        <time>2017-10-28T13:51:21Z</time>
      </trkpt>
      <trkpt lat="62.609043524673" lon="17.954995059604">
        <ele>222.2</ele>
        <time>2017-10-28T13:51:22Z</time>
      </trkpt>
      <trkpt lat="62.609010080892" lon="17.955050044868">
        <ele>222</ele>
        <time>2017-10-28T13:51:23Z</time>
      </trkpt>
      <trkpt lat="62.608980241328" lon="17.95509681587">
        <ele>221.8</ele>
        <time>2017-10-28T13:51:24Z</time>
      </trkpt>
      <trkpt lat="62.608940594941" lon="17.955166469459">
        <ele>221.2</ele>
        <time>2017-10-28T13:51:25Z</time>
      </trkpt>
      <trkpt lat="62.608899775088" lon="17.955229668985">
        <ele>220.8</ele>
        <time>2017-10-28T13:51:26Z</time>
      </trkpt>
      <trkpt lat="62.608859793425" lon="17.955303262067">
        <ele>220</ele>
        <time>2017-10-28T13:51:27Z</time>
      </trkpt>
      <trkpt lat="62.608822410151" lon="17.955372664199">
        <ele>219</ele>
        <time>2017-10-28T13:51:28Z</time>
      </trkpt>
      <trkpt lat="62.608791061845" lon="17.955456818475">
        <ele>218.2</ele>
        <time>2017-10-28T13:51:29Z</time>
      </trkpt>
      <trkpt lat="62.608765580869" lon="17.955560754035">
        <ele>217.4</ele>
        <time>2017-10-28T13:51:30Z</time>
      </trkpt>
      <trkpt lat="62.608745212852" lon="17.955656307695">
        <ele>216.8</ele>
        <time>2017-10-28T13:51:31Z</time>
      </trkpt>
      <trkpt lat="62.608723755188" lon="17.955765020938">
        <ele>216.4</ele>
        <time>2017-10-28T13:51:32Z</time>
      </trkpt>
      <trkpt lat="62.608707242845" lon="17.955875913475">
        <ele>216.2</ele>
        <time>2017-10-28T13:51:33Z</time>
      </trkpt>
      <trkpt lat="62.608700704963" lon="17.955960235389">
        <ele>216.2</ele>
        <time>2017-10-28T13:51:34Z</time>
      </trkpt>
      <trkpt lat="62.608699028583" lon="17.956057130153">
        <ele>215.8</ele>
        <time>2017-10-28T13:51:35Z</time>
      </trkpt>
      <trkpt lat="62.60869676547" lon="17.956139943325">
        <ele>215.4</ele>
        <time>2017-10-28T13:51:36Z</time>
      </trkpt>
      <trkpt lat="62.608690981959" lon="17.956218900823">
        <ele>215.2</ele>
        <time>2017-10-28T13:51:37Z</time>
      </trkpt>
      <trkpt lat="62.608680169308" lon="17.956304228565">
        <ele>215</ele>
        <time>2017-10-28T13:51:38Z</time>
      </trkpt>
      <trkpt lat="62.608677151824" lon="17.956372457231">
        <ele>214.6</ele>
        <time>2017-10-28T13:51:39Z</time>
      </trkpt>
      <trkpt lat="62.6086774871" lon="17.956462981751">
        <ele>214.6</ele>
        <time>2017-10-28T13:51:40Z</time>
      </trkpt>
      <trkpt lat="62.608673212331" lon="17.956551746072">
        <ele>214.6</ele>
        <time>2017-10-28T13:51:41Z</time>
      </trkpt>
      <trkpt lat="62.608670194847" lon="17.956634475425">
        <ele>214.4</ele>
        <time>2017-10-28T13:51:42Z</time>
      </trkpt>
      <trkpt lat="62.608670446304" lon="17.956719132615">
        <ele>214.6</ele>
        <time>2017-10-28T13:51:43Z</time>
      </trkpt>
      <trkpt lat="62.608663321689" lon="17.956799766493">
        <ele>214.6</ele>
        <time>2017-10-28T13:51:44Z</time>
      </trkpt>
      <trkpt lat="62.608656029436" lon="17.956882663484">
        <ele>214.6</ele>
        <time>2017-10-28T13:51:45Z</time>
      </trkpt>
      <trkpt lat="62.608644630052" lon="17.956948629037">
        <ele>214.6</ele>
        <time>2017-10-28T13:51:46Z</time>
      </trkpt>
      <trkpt lat="62.60863138665" lon="17.957028760001">
        <ele>214.8</ele>
        <time>2017-10-28T13:51:47Z</time>
      </trkpt>
      <trkpt lat="62.608623172388" lon="17.957109980612">
        <ele>215</ele>
        <time>2017-10-28T13:51:48Z</time>
      </trkpt>
      <trkpt lat="62.608618478524" lon="17.957190446852">
        <ele>215.4</ele>
        <time>2017-10-28T13:51:49Z</time>
      </trkpt>
      <trkpt lat="62.608611940642" lon="17.957284407951">
        <ele>215.4</ele>
        <time>2017-10-28T13:51:50Z</time>
      </trkpt>
      <trkpt lat="62.608607749692" lon="17.957373256091">
        <ele>215.6</ele>
        <time>2017-10-28T13:51:51Z</time>
      </trkpt>
      <trkpt lat="62.608608168787" lon="17.9574579971">
        <ele>215.6</ele>
        <time>2017-10-28T13:51:52Z</time>
      </trkpt>
      <trkpt lat="62.608612275918" lon="17.957537373693">
        <ele>215.4</ele>
        <time>2017-10-28T13:51:53Z</time>
      </trkpt>
      <trkpt lat="62.608611856823" lon="17.9576004894">
        <ele>215.2</ele>
        <time>2017-10-28T13:51:54Z</time>
      </trkpt>
      <trkpt lat="62.608617807972" lon="17.957691516834">
        <ele>215.2</ele>
        <time>2017-10-28T13:51:55Z</time>
      </trkpt>
      <trkpt lat="62.608631470469" lon="17.957778772413">
        <ele>215</ele>
        <time>2017-10-28T13:51:56Z</time>
      </trkpt>
      <trkpt lat="62.608644965328" lon="17.957846414346">
        <ele>214.8</ele>
        <time>2017-10-28T13:51:57Z</time>
      </trkpt>
      <trkpt lat="62.608653682504" lon="17.957912631356">
        <ele>214.6</ele>
        <time>2017-10-28T13:51:58Z</time>
      </trkpt>
      <trkpt lat="62.608664243698" lon="17.957974657416">
        <ele>214.6</ele>
        <time>2017-10-28T13:51:59Z</time>
      </trkpt>
      <trkpt lat="62.608683102973" lon="17.95804640648">
        <ele>214.6</ele>
        <time>2017-10-28T13:52:00Z</time>
      </trkpt>
      <trkpt lat="62.608693245072" lon="17.958112455852">
        <ele>214.4</ele>
        <time>2017-10-28T13:52:01Z</time>
      </trkpt>
      <trkpt lat="62.608707578121" lon="17.958184540192">
        <ele>214.4</ele>
        <time>2017-10-28T13:52:02Z</time>
      </trkpt>
      <trkpt lat="62.608718726048" lon="17.958259055283">
        <ele>214.4</ele>
        <time>2017-10-28T13:52:03Z</time>
      </trkpt>
      <trkpt lat="62.608719480419" lon="17.958328708872">
        <ele>214.4</ele>
        <time>2017-10-28T13:52:04Z</time>
      </trkpt>
      <trkpt lat="62.60872107298" lon="17.958412276415">
        <ele>214.4</ele>
        <time>2017-10-28T13:52:05Z</time>
      </trkpt>
      <trkpt lat="62.608724341921" lon="17.958497520338">
        <ele>214.6</ele>
        <time>2017-10-28T13:52:06Z</time>
      </trkpt>
      <trkpt lat="62.608729035785" lon="17.958581087881">
        <ele>214.6</ele>
        <time>2017-10-28T13:52:07Z</time>
      </trkpt>
      <trkpt lat="62.608725096292" lon="17.958661554121">
        <ele>214.8</ele>
        <time>2017-10-28T13:52:08Z</time>
      </trkpt>
      <trkpt lat="62.608718893686" lon="17.958716204109">
        <ele>214.8</ele>
        <time>2017-10-28T13:52:09Z</time>
      </trkpt>
      <trkpt lat="62.608721324437" lon="17.958789713372">
        <ele>215</ele>
        <time>2017-10-28T13:52:10Z</time>
      </trkpt>
      <trkpt lat="62.608722916998" lon="17.958854337821">
        <ele>215</ele>
        <time>2017-10-28T13:52:11Z</time>
      </trkpt>
      <trkpt lat="62.608724677197" lon="17.958910328913">
        <ele>215</ele>
        <time>2017-10-28T13:52:12Z</time>
      </trkpt>
      <trkpt lat="62.608724677197" lon="17.958972354973">
        <ele>215</ele>
        <time>2017-10-28T13:52:13Z</time>
      </trkpt>
      <trkpt lat="62.608722078808" lon="17.959028597522">
        <ele>215</ele>
        <time>2017-10-28T13:52:14Z</time>
      </trkpt>
      <trkpt lat="62.608719228962" lon="17.959092635238">
        <ele>215</ele>
        <time>2017-10-28T13:52:15Z</time>
      </trkpt>
      <trkpt lat="62.608720402428" lon="17.959144267742">
        <ele>215</ele>
        <time>2017-10-28T13:52:16Z</time>
      </trkpt>
      <trkpt lat="62.608717049668" lon="17.959202102852">
        <ele>215.2</ele>
        <time>2017-10-28T13:52:17Z</time>
      </trkpt>
      <trkpt lat="62.608716295297" lon="17.959255830831">
        <ele>215.2</ele>
        <time>2017-10-28T13:52:18Z</time>
      </trkpt>
      <trkpt lat="62.608715708564" lon="17.959305116403">
        <ele>215.4</ele>
        <time>2017-10-28T13:52:19Z</time>
      </trkpt>
      <trkpt lat="62.608718726048" lon="17.959358425287">
        <ele>215.4</ele>
        <time>2017-10-28T13:52:20Z</time>
      </trkpt>
      <trkpt lat="62.608715457107" lon="17.959412823818">
        <ele>215.6</ele>
        <time>2017-10-28T13:52:21Z</time>
      </trkpt>
      <trkpt lat="62.608715960021" lon="17.959462528485">
        <ele>215.8</ele>
        <time>2017-10-28T13:52:22Z</time>
      </trkpt>
      <trkpt lat="62.608724090464" lon="17.959511143505">
        <ele>216</ele>
        <time>2017-10-28T13:52:23Z</time>
      </trkpt>
      <trkpt lat="62.608730125432" lon="17.959568894796">
        <ele>216.4</ele>
        <time>2017-10-28T13:52:24Z</time>
      </trkpt>
      <trkpt lat="62.608741524816" lon="17.959625388802">
        <ele>216.4</ele>
        <time>2017-10-28T13:52:25Z</time>
      </trkpt>
      <trkpt lat="62.608751331639" lon="17.95968339155">
        <ele>216.6</ele>
        <time>2017-10-28T13:52:26Z</time>
      </trkpt>
      <trkpt lat="62.608766167602" lon="17.95973703571">
        <ele>216.6</ele>
        <time>2017-10-28T13:52:27Z</time>
      </trkpt>
      <trkpt lat="62.608777734624" lon="17.959791769517">
        <ele>216.6</ele>
        <time>2017-10-28T13:52:28Z</time>
      </trkpt>
      <trkpt lat="62.608793492596" lon="17.959852203016">
        <ele>216.4</ele>
        <time>2017-10-28T13:52:29Z</time>
      </trkpt>
      <trkpt lat="62.608813190061" lon="17.959910708678">
        <ele>216.4</ele>
        <time>2017-10-28T13:52:30Z</time>
      </trkpt>
      <trkpt lat="62.608828948033" lon="17.959957814956">
        <ele>216.4</ele>
        <time>2017-10-28T13:52:31Z</time>
      </trkpt>
      <trkpt lat="62.608846214747" lon="17.960011626754">
        <ele>216.4</ele>
        <time>2017-10-28T13:52:32Z</time>
      </trkpt>
      <trkpt lat="62.608864822565" lon="17.960049596761">
        <ele>216.4</ele>
        <time>2017-10-28T13:52:33Z</time>
      </trkpt>
      <trkpt lat="62.608881670184" lon="17.960083711094">
        <ele>216.4</ele>
        <time>2017-10-28T13:52:34Z</time>
      </trkpt>
      <trkpt lat="62.608906145332" lon="17.960120507635">
        <ele>216.4</ele>
        <time>2017-10-28T13:52:35Z</time>
      </trkpt>
      <trkpt lat="62.608930201385" lon="17.960153867597">
        <ele>216.6</ele>
        <time>2017-10-28T13:52:36Z</time>
      </trkpt>
      <trkpt lat="62.608955933818" lon="17.960181360229">
        <ele>216.6</ele>
        <time>2017-10-28T13:52:37Z</time>
      </trkpt>
      <trkpt lat="62.608979989871" lon="17.960192927251">
        <ele>216.8</ele>
        <time>2017-10-28T13:52:38Z</time>
      </trkpt>
      <trkpt lat="62.60900354301" lon="17.960198124029">
        <ele>216.8</ele>
        <time>2017-10-28T13:52:39Z</time>
      </trkpt>
      <trkpt lat="62.609028437253" lon="17.960201476789">
        <ele>216.6</ele>
        <time>2017-10-28T13:52:40Z</time>
      </trkpt>
      <trkpt lat="62.609057354808" lon="17.960216731847">
        <ele>216.8</ele>
        <time>2017-10-28T13:52:41Z</time>
      </trkpt>
      <trkpt lat="62.609089289847" lon="17.960225197566">
        <ele>216.8</ele>
        <time>2017-10-28T13:52:42Z</time>
      </trkpt>
      <trkpt lat="62.609119716144" lon="17.960230645801">
        <ele>216.6</ele>
        <time>2017-10-28T13:52:43Z</time>
      </trkpt>
      <trkpt lat="62.609151651183" lon="17.960243134832">
        <ele>216.4</ele>
        <time>2017-10-28T13:52:44Z</time>
      </trkpt>
      <trkpt lat="62.609188447724" lon="17.960258222252">
        <ele>216.4</ele>
        <time>2017-10-28T13:52:45Z</time>
      </trkpt>
      <trkpt lat="62.609218622564" lon="17.96028856473">
        <ele>216.4</ele>
        <time>2017-10-28T13:52:46Z</time>
      </trkpt>
      <trkpt lat="62.609251479612" lon="17.960328378755">
        <ele>216.2</ele>
        <time>2017-10-28T13:52:47Z</time>
      </trkpt>
      <trkpt lat="62.609283330832" lon="17.960360565251">
        <ele>216</ele>
        <time>2017-10-28T13:52:48Z</time>
      </trkpt>
      <trkpt lat="62.609311913111" lon="17.960397613249">
        <ele>216</ele>
        <time>2017-10-28T13:52:49Z</time>
      </trkpt>
      <trkpt lat="62.609339154286" lon="17.960453352884">
        <ele>216</ele>
        <time>2017-10-28T13:52:50Z</time>
      </trkpt>
      <trkpt lat="62.60935725919" lon="17.960509679252">
        <ele>216</ele>
        <time>2017-10-28T13:52:51Z</time>
      </trkpt>
      <trkpt lat="62.609370083497" lon="17.960563574869">
        <ele>215.8</ele>
        <time>2017-10-28T13:52:52Z</time>
      </trkpt>
      <trkpt lat="62.609385254736" lon="17.960607412206">
        <ele>216</ele>
        <time>2017-10-28T13:52:53Z</time>
      </trkpt>
      <trkpt lat="62.609402856726" lon="17.96064982462">
        <ele>216</ele>
        <time>2017-10-28T13:52:54Z</time>
      </trkpt>
      <trkpt lat="62.609424062933" lon="17.960697852907">
        <ele>216</ele>
        <time>2017-10-28T13:52:55Z</time>
      </trkpt>
      <trkpt lat="62.609450130642" lon="17.960733475982">
        <ele>216</ele>
        <time>2017-10-28T13:52:56Z</time>
      </trkpt>
      <trkpt lat="62.609475192523" lon="17.960760046605">
        <ele>216.2</ele>
        <time>2017-10-28T13:52:57Z</time>
      </trkpt>
      <trkpt lat="62.609501260232" lon="17.960782677735">
        <ele>216.2</ele>
        <time>2017-10-28T13:52:58Z</time>
      </trkpt>
      <trkpt lat="62.609524645733" lon="17.960799190078">
        <ele>216.2</ele>
        <time>2017-10-28T13:52:59Z</time>
      </trkpt>
      <trkpt lat="62.609557670419" lon="17.960818216991">
        <ele>216.4</ele>
        <time>2017-10-28T13:53:00Z</time>
      </trkpt>
      <trkpt lat="62.609587174707" lon="17.960846715451">
        <ele>216.2</ele>
        <time>2017-10-28T13:53:01Z</time>
      </trkpt>
      <trkpt lat="62.609615086434" lon="17.960886948571">
        <ele>216.4</ele>
        <time>2017-10-28T13:53:02Z</time>
      </trkpt>
      <trkpt lat="62.609641740876" lon="17.96092139818">
        <ele>216.4</ele>
        <time>2017-10-28T13:53:03Z</time>
      </trkpt>
      <trkpt lat="62.609667557128" lon="17.960947465889">
        <ele>216.2</ele>
        <time>2017-10-28T13:53:04Z</time>
      </trkpt>
      <trkpt lat="62.609697145235" lon="17.960981915498">
        <ele>216.2</ele>
        <time>2017-10-28T13:53:05Z</time>
      </trkpt>
      <trkpt lat="62.609725811333" lon="17.961007061198">
        <ele>216.4</ele>
        <time>2017-10-28T13:53:06Z</time>
      </trkpt>
      <trkpt lat="62.609748945377" lon="17.961022567713">
        <ele>216.4</ele>
        <time>2017-10-28T13:53:07Z</time>
      </trkpt>
      <trkpt lat="62.609784400814" lon="17.961044947386">
        <ele>216.6</ele>
        <time>2017-10-28T13:53:08Z</time>
      </trkpt>
      <trkpt lat="62.609812312541" lon="17.961056682046">
        <ele>216.6</ele>
        <time>2017-10-28T13:53:09Z</time>
      </trkpt>
      <trkpt lat="62.609846175417" lon="17.961085012868">
        <ele>216.6</ele>
        <time>2017-10-28T13:53:10Z</time>
      </trkpt>
      <trkpt lat="62.609874841515" lon="17.961113678966">
        <ele>216.6</ele>
        <time>2017-10-28T13:53:11Z</time>
      </trkpt>
      <trkpt lat="62.609905016355" lon="17.961137399743">
        <ele>216.6</ele>
        <time>2017-10-28T13:53:12Z</time>
      </trkpt>
      <trkpt lat="62.609931000245" lon="17.96117201699">
        <ele>216.6</ele>
        <time>2017-10-28T13:53:13Z</time>
      </trkpt>
      <trkpt lat="62.60994985952" lon="17.961224320046">
        <ele>216.6</ele>
        <time>2017-10-28T13:53:14Z</time>
      </trkpt>
      <trkpt lat="62.609970562813" lon="17.961279556767">
        <ele>216.8</ele>
        <time>2017-10-28T13:53:15Z</time>
      </trkpt>
      <trkpt lat="62.60998841626" lon="17.96132875852">
        <ele>217</ele>
        <time>2017-10-28T13:53:16Z</time>
      </trkpt>
      <trkpt lat="62.610003755137" lon="17.961395143168">
        <ele>217</ele>
        <time>2017-10-28T13:53:17Z</time>
      </trkpt>
      <trkpt lat="62.610013394322" lon="17.961461863092">
        <ele>217</ele>
        <time>2017-10-28T13:53:18Z</time>
      </trkpt>
      <trkpt lat="62.610014986883" lon="17.961524308247">
        <ele>217</ele>
        <time>2017-10-28T13:53:19Z</time>
      </trkpt>
      <trkpt lat="62.610020854213" lon="17.961587591592">
        <ele>217.2</ele>
        <time>2017-10-28T13:53:20Z</time>
      </trkpt>
      <trkpt lat="62.610029319932" lon="17.961649450014">
        <ele>217.4</ele>
        <time>2017-10-28T13:53:21Z</time>
      </trkpt>
      <trkpt lat="62.610032672692" lon="17.961705860201">
        <ele>217.4</ele>
        <time>2017-10-28T13:53:22Z</time>
      </trkpt>
      <trkpt lat="62.610035773995" lon="17.961764282044">
        <ele>217.8</ele>
        <time>2017-10-28T13:53:23Z</time>
      </trkpt>
      <trkpt lat="62.610041976601" lon="17.96182077605">
        <ele>218</ele>
        <time>2017-10-28T13:53:24Z</time>
      </trkpt>
      <trkpt lat="62.610048179207" lon="17.961884227033">
        <ele>218.2</ele>
        <time>2017-10-28T13:53:25Z</time>
      </trkpt>
      <trkpt lat="62.610051448148" lon="17.961948851482">
        <ele>218.4</ele>
        <time>2017-10-28T13:53:26Z</time>
      </trkpt>
      <trkpt lat="62.610058572763" lon="17.962016577234">
        <ele>218.6</ele>
        <time>2017-10-28T13:53:27Z</time>
      </trkpt>
      <trkpt lat="62.610060249143" lon="17.962091427601">
        <ele>218.6</ele>
        <time>2017-10-28T13:53:28Z</time>
      </trkpt>
      <trkpt lat="62.610071480889" lon="17.962173067307">
        <ele>218.6</ele>
        <time>2017-10-28T13:53:29Z</time>
      </trkpt>
      <trkpt lat="62.610087993232" lon="17.962273231012">
        <ele>218.4</ele>
        <time>2017-10-28T13:53:30Z</time>
      </trkpt>
      <trkpt lat="62.610105679041" lon="17.962364845179">
        <ele>218.4</ele>
        <time>2017-10-28T13:53:31Z</time>
      </trkpt>
      <trkpt lat="62.61012587942" lon="17.962468948377">
        <ele>218.4</ele>
        <time>2017-10-28T13:53:32Z</time>
      </trkpt>
      <trkpt lat="62.610139206641" lon="17.962556120137">
        <ele>218</ele>
        <time>2017-10-28T13:53:33Z</time>
      </trkpt>
      <trkpt lat="62.610142056487" lon="17.962619822577">
        <ele>217.4</ele>
        <time>2017-10-28T13:53:34Z</time>
      </trkpt>
      <trkpt lat="62.610159658477" lon="17.96268075899">
        <ele>217.2</ele>
        <time>2017-10-28T13:53:35Z</time>
      </trkpt>
      <trkpt lat="62.610193018439" lon="17.962714454228">
        <ele>216.8</ele>
        <time>2017-10-28T13:53:36Z</time>
      </trkpt>
      <trkpt lat="62.61022227127" lon="17.962701378464">
        <ele>216.6</ele>
        <time>2017-10-28T13:53:37Z</time>
      </trkpt>
      <trkpt lat="62.610250602092" lon="17.962675897488">
        <ele>216.2</ele>
        <time>2017-10-28T13:53:38Z</time>
      </trkpt>
      <trkpt lat="62.610276837439" lon="17.962651841435">
        <ele>215.6</ele>
        <time>2017-10-28T13:53:39Z</time>
      </trkpt>
      <trkpt lat="62.610304832985" lon="17.962624516441">
        <ele>215.6</ele>
        <time>2017-10-28T13:53:40Z</time>
      </trkpt>
      <trkpt lat="62.610328889038" lon="17.962588138995">
        <ele>215.6</ele>
        <time>2017-10-28T13:53:41Z</time>
      </trkpt>
      <trkpt lat="62.610349173236" lon="17.962545894219">
        <ele>215.6</ele>
        <time>2017-10-28T13:53:42Z</time>
      </trkpt>
      <trkpt lat="62.610369876529" lon="17.962498285027">
        <ele>215.8</ele>
        <time>2017-10-28T13:53:43Z</time>
      </trkpt>
      <trkpt lat="62.610392591478" lon="17.962458722459">
        <ele>215.8</ele>
        <time>2017-10-28T13:53:44Z</time>
      </trkpt>
      <trkpt lat="62.610421006119" lon="17.962409855982">
        <ele>215.8</ele>
        <time>2017-10-28T13:53:45Z</time>
      </trkpt>
      <trkpt lat="62.610452438244" lon="17.96237901059">
        <ele>215.8</ele>
        <time>2017-10-28T13:53:46Z</time>
      </trkpt>
      <trkpt lat="62.610489989156" lon="17.962341208221">
        <ele>215.8</ele>
        <time>2017-10-28T13:53:47Z</time>
      </trkpt>
      <trkpt lat="62.610522259471" lon="17.962298125255">
        <ele>215.8</ele>
        <time>2017-10-28T13:53:48Z</time>
      </trkpt>
      <trkpt lat="62.610550506474" lon="17.962251521891">
        <ele>215.8</ele>
        <time>2017-10-28T13:53:49Z</time>
      </trkpt>
      <trkpt lat="62.61058269297" lon="17.962195949894">
        <ele>215.6</ele>
        <time>2017-10-28T13:53:50Z</time>
      </trkpt>
      <trkpt lat="62.610608173946" lon="17.96214431739">
        <ele>215.4</ele>
        <time>2017-10-28T13:53:51Z</time>
      </trkpt>
      <trkpt lat="62.610627536135" lon="17.962099222768">
        <ele>215.4</ele>
        <time>2017-10-28T13:53:52Z</time>
      </trkpt>
      <trkpt lat="62.610654442034" lon="17.962055553069">
        <ele>215.4</ele>
        <time>2017-10-28T13:53:53Z</time>
      </trkpt>
      <trkpt lat="62.610679671553" lon="17.962023953306">
        <ele>215.2</ele>
        <time>2017-10-28T13:53:54Z</time>
      </trkpt>
      <trkpt lat="62.610706158357" lon="17.961980115969">
        <ele>215</ele>
        <time>2017-10-28T13:53:55Z</time>
      </trkpt>
      <trkpt lat="62.610725269089" lon="17.961927812913">
        <ele>214.8</ele>
        <time>2017-10-28T13:53:56Z</time>
      </trkpt>
      <trkpt lat="62.610744966554" lon="17.961872240916">
        <ele>214.8</ele>
        <time>2017-10-28T13:53:57Z</time>
      </trkpt>
      <trkpt lat="62.610761311259" lon="17.96180987958">
        <ele>214.8</ele>
        <time>2017-10-28T13:53:58Z</time>
      </trkpt>
      <trkpt lat="62.610782014552" lon="17.96173611886">
        <ele>214.8</ele>
        <time>2017-10-28T13:53:59Z</time>
      </trkpt>
      <trkpt lat="62.610804561863" lon="17.961647103082">
        <ele>214.8</ele>
        <time>2017-10-28T13:54:00Z</time>
      </trkpt>
      <trkpt lat="62.610822499129" lon="17.961566469204">
        <ele>214.6</ele>
        <time>2017-10-28T13:54:01Z</time>
      </trkpt>
      <trkpt lat="62.610844040612" lon="17.961475693227">
        <ele>214.4</ele>
        <time>2017-10-28T13:54:02Z</time>
      </trkpt>
      <trkpt lat="62.610863402801" lon="17.96139246096">
        <ele>214.2</ele>
        <time>2017-10-28T13:54:03Z</time>
      </trkpt>
      <trkpt lat="62.610882513533" lon="17.961317694412">
        <ele>213.6</ele>
        <time>2017-10-28T13:54:04Z</time>
      </trkpt>
      <trkpt lat="62.610904474111" lon="17.961215351413">
        <ele>213</ele>
        <time>2017-10-28T13:54:05Z</time>
      </trkpt>
      <trkpt lat="62.61092048354" lon="17.96111502007">
        <ele>212.4</ele>
        <time>2017-10-28T13:54:06Z</time>
      </trkpt>
      <trkpt lat="62.610928613983" lon="17.961009743406">
        <ele>211.6</ele>
        <time>2017-10-28T13:54:07Z</time>
      </trkpt>
      <trkpt lat="62.610932553476" lon="17.960916452859">
        <ele>210.6</ele>
        <time>2017-10-28T13:54:08Z</time>
      </trkpt>
      <trkpt lat="62.610938336987" lon="17.960826598891">
        <ele>210.2</ele>
        <time>2017-10-28T13:54:09Z</time>
      </trkpt>
      <trkpt lat="62.610939510453" lon="17.960734314172">
        <ele>209.8</ele>
        <time>2017-10-28T13:54:10Z</time>
      </trkpt>
      <trkpt lat="62.610935319503" lon="17.960638760512">
        <ele>209.4</ele>
        <time>2017-10-28T13:54:11Z</time>
      </trkpt>
      <trkpt lat="62.610932469657" lon="17.960548235992">
        <ele>209.4</ele>
        <time>2017-10-28T13:54:12Z</time>
      </trkpt>
      <trkpt lat="62.610931882924" lon="17.960462740612">
        <ele>209.2</ele>
        <time>2017-10-28T13:54:13Z</time>
      </trkpt>
      <trkpt lat="62.610929535992" lon="17.960379424526">
        <ele>209</ele>
        <time>2017-10-28T13:54:14Z</time>
      </trkpt>
      <trkpt lat="62.610931044734" lon="17.960285714884">
        <ele>209.2</ele>
        <time>2017-10-28T13:54:15Z</time>
      </trkpt>
      <trkpt lat="62.610938420806" lon="17.960219078779">
        <ele>209.2</ele>
        <time>2017-10-28T13:54:16Z</time>
      </trkpt>
      <trkpt lat="62.610939091358" lon="17.960123525119">
        <ele>209.2</ele>
        <time>2017-10-28T13:54:17Z</time>
      </trkpt>
      <trkpt lat="62.610939007539" lon="17.960036353359">
        <ele>209.2</ele>
        <time>2017-10-28T13:54:18Z</time>
      </trkpt>
      <trkpt lat="62.610945713059" lon="17.959965526304">
        <ele>209.2</ele>
        <time>2017-10-28T13:54:19Z</time>
      </trkpt>
      <trkpt lat="62.610954094959" lon="17.959892771412">
        <ele>209.2</ele>
        <time>2017-10-28T13:54:20Z</time>
      </trkpt>
      <trkpt lat="62.610953675864" lon="17.959812724267">
        <ele>209.2</ele>
        <time>2017-10-28T13:54:21Z</time>
      </trkpt>
      <trkpt lat="62.610962812135" lon="17.959734269683">
        <ele>209.2</ele>
        <time>2017-10-28T13:54:22Z</time>
      </trkpt>
      <trkpt lat="62.610970272026" lon="17.959660257506">
        <ele>209.4</ele>
        <time>2017-10-28T13:54:23Z</time>
      </trkpt>
      <trkpt lat="62.610972702777" lon="17.959599656369">
        <ele>209.4</ele>
        <time>2017-10-28T13:54:24Z</time>
      </trkpt>
      <trkpt lat="62.610977229003" lon="17.959512149333">
        <ele>209.2</ele>
        <time>2017-10-28T13:54:25Z</time>
      </trkpt>
      <trkpt lat="62.610986784369" lon="17.959445177952">
        <ele>209.2</ele>
        <time>2017-10-28T13:54:26Z</time>
      </trkpt>
      <trkpt lat="62.611003129074" lon="17.959377619838">
        <ele>209.2</ele>
        <time>2017-10-28T13:54:27Z</time>
      </trkpt>
      <trkpt lat="62.611021736892" lon="17.959310229362">
        <ele>209.4</ele>
        <time>2017-10-28T13:54:28Z</time>
      </trkpt>
      <trkpt lat="62.611035986122" lon="17.959240911049">
        <ele>209.2</ele>
        <time>2017-10-28T13:54:29Z</time>
      </trkpt>
      <trkpt lat="62.611055683587" lon="17.959168659071">
        <ele>209.2</ele>
        <time>2017-10-28T13:54:30Z</time>
      </trkpt>
      <trkpt lat="62.611072698844" lon="17.959108896124">
        <ele>209.2</ele>
        <time>2017-10-28T13:54:31Z</time>
      </trkpt>
      <trkpt lat="62.611098012182" lon="17.959041589467">
        <ele>209.4</ele>
        <time>2017-10-28T13:54:32Z</time>
      </trkpt>
      <trkpt lat="62.61111997276" lon="17.958979563407">
        <ele>209.4</ele>
        <time>2017-10-28T13:54:33Z</time>
      </trkpt>
      <trkpt lat="62.611141262786" lon="17.958927679446">
        <ele>209.4</ele>
        <time>2017-10-28T13:54:34Z</time>
      </trkpt>
      <trkpt lat="62.61116188226" lon="17.958876382218">
        <ele>209.2</ele>
        <time>2017-10-28T13:54:35Z</time>
      </trkpt>
      <trkpt lat="62.611183172286" lon="17.95883681965">
        <ele>209.2</ele>
        <time>2017-10-28T13:54:36Z</time>
      </trkpt>
      <trkpt lat="62.611205049045" lon="17.958798765824">
        <ele>209.4</ele>
        <time>2017-10-28T13:54:37Z</time>
      </trkpt>
      <trkpt lat="62.611224662691" lon="17.95875216246">
        <ele>209.4</ele>
        <time>2017-10-28T13:54:38Z</time>
      </trkpt>
      <trkpt lat="62.611246958545" lon="17.958721233249">
        <ele>209.4</ele>
        <time>2017-10-28T13:54:39Z</time>
      </trkpt>
      <trkpt lat="62.611270763141" lon="17.958694159712">
        <ele>209.4</ele>
        <time>2017-10-28T13:54:40Z</time>
      </trkpt>
      <trkpt lat="62.611293897185" lon="17.958669265469">
        <ele>209.6</ele>
        <time>2017-10-28T13:54:41Z</time>
      </trkpt>
      <trkpt lat="62.611320048713" lon="17.958634899679">
        <ele>209.8</ele>
        <time>2017-10-28T13:54:42Z</time>
      </trkpt>
      <trkpt lat="62.611347792802" lon="17.958605982124">
        <ele>210</ele>
        <time>2017-10-28T13:54:43Z</time>
      </trkpt>
      <trkpt lat="62.611376961814" lon="17.958591649075">
        <ele>210</ele>
        <time>2017-10-28T13:54:44Z</time>
      </trkpt>
      <trkpt lat="62.611411746699" lon="17.958567844479">
        <ele>210.2</ele>
        <time>2017-10-28T13:54:45Z</time>
      </trkpt>
      <trkpt lat="62.611449632887" lon="17.958545800082">
        <ele>210.2</ele>
        <time>2017-10-28T13:54:46Z</time>
      </trkpt>
      <trkpt lat="62.611503360866" lon="17.958524593875">
        <ele>210.4</ele>
        <time>2017-10-28T13:54:47Z</time>
      </trkpt>
      <trkpt lat="62.611552897895" lon="17.958502800935">
        <ele>210.4</ele>
        <time>2017-10-28T13:54:48Z</time>
      </trkpt>
      <trkpt lat="62.611586928409" lon="17.958474386294">
        <ele>210.4</ele>
        <time>2017-10-28T13:54:49Z</time>
      </trkpt>
      <trkpt lat="62.611624479321" lon="17.958451503707">
        <ele>210.2</ele>
        <time>2017-10-28T13:54:50Z</time>
      </trkpt>
      <trkpt lat="62.611647948641" lon="17.958428034387">
        <ele>209.8</ele>
        <time>2017-10-28T13:54:51Z</time>
      </trkpt>
      <trkpt lat="62.611690277236" lon="17.958396015529">
        <ele>209.8</ele>
        <time>2017-10-28T13:54:52Z</time>
      </trkpt>
      <trkpt lat="62.611726067949" lon="17.95836910963">
        <ele>209.6</ele>
        <time>2017-10-28T13:54:53Z</time>
      </trkpt>
      <trkpt lat="62.611763786499" lon="17.95833474384">
        <ele>209.2</ele>
        <time>2017-10-28T13:54:54Z</time>
      </trkpt>
      <trkpt lat="62.611801337411" lon="17.958287218467">
        <ele>209</ele>
        <time>2017-10-28T13:54:55Z</time>
      </trkpt>
      <trkpt lat="62.611831847527" lon="17.958223599846">
        <ele>208.8</ele>
        <time>2017-10-28T13:54:56Z</time>
      </trkpt>
      <trkpt lat="62.611859004883" lon="17.958156628465">
        <ele>208.6</ele>
        <time>2017-10-28T13:54:57Z</time>
      </trkpt>
      <trkpt lat="62.611881468375" lon="17.958092758387">
        <ele>208.2</ele>
        <time>2017-10-28T13:54:58Z</time>
      </trkpt>
      <trkpt lat="62.611903093677" lon="17.958017405106">
        <ele>208</ele>
        <time>2017-10-28T13:54:59Z</time>
      </trkpt>
      <trkpt lat="62.611925892445" lon="17.957934340477">
        <ele>207.8</ele>
        <time>2017-10-28T13:55:00Z</time>
      </trkpt>
      <trkpt lat="62.611951205783" lon="17.957855634436">
        <ele>207.4</ele>
        <time>2017-10-28T13:55:01Z</time>
      </trkpt>
      <trkpt lat="62.611985990668" lon="17.957753710532">
        <ele>207.2</ele>
        <time>2017-10-28T13:55:02Z</time>
      </trkpt>
      <trkpt lat="62.612024882684" lon="17.957633094991">
        <ele>207</ele>
        <time>2017-10-28T13:55:03Z</time>
      </trkpt>
      <trkpt lat="62.612050112203" lon="17.957524633205">
        <ele>206.8</ele>
        <time>2017-10-28T13:55:04Z</time>
      </trkpt>
      <trkpt lat="62.612076682826" lon="17.957405358768">
        <ele>206.2</ele>
        <time>2017-10-28T13:55:05Z</time>
      </trkpt>
      <trkpt lat="62.612097134662" lon="17.957305362701">
        <ele>205.8</ele>
        <time>2017-10-28T13:55:06Z</time>
      </trkpt>
      <trkpt lat="62.612116245394" lon="17.957216933656">
        <ele>205.2</ele>
        <time>2017-10-28T13:55:07Z</time>
      </trkpt>
      <trkpt lat="62.612127980054" lon="17.957125654765">
        <ele>204.6</ele>
        <time>2017-10-28T13:55:08Z</time>
      </trkpt>
      <trkpt lat="62.612135942859" lon="17.957041332851">
        <ele>204.6</ele>
        <time>2017-10-28T13:55:09Z</time>
      </trkpt>
      <trkpt lat="62.61214088818" lon="17.956962291534">
        <ele>204.2</ele>
        <time>2017-10-28T13:55:10Z</time>
      </trkpt>
      <trkpt lat="62.612140720542" lon="17.956872521385">
        <ele>204.2</ele>
        <time>2017-10-28T13:55:11Z</time>
      </trkpt>
      <trkpt lat="62.612140971999" lon="17.956787026005">
        <ele>204.2</ele>
        <time>2017-10-28T13:55:12Z</time>
      </trkpt>
      <trkpt lat="62.612137954515" lon="17.956697004399">
        <ele>204.2</ele>
        <time>2017-10-28T13:55:13Z</time>
      </trkpt>
      <trkpt lat="62.61212747714" lon="17.956609413544">
        <ele>204.2</ele>
        <time>2017-10-28T13:55:14Z</time>
      </trkpt>
      <trkpt lat="62.61210736058" lon="17.956522660879">
        <ele>204.4</ele>
        <time>2017-10-28T13:55:15Z</time>
      </trkpt>
      <trkpt lat="62.612082885432" lon="17.956452001462">
        <ele>204.6</ele>
        <time>2017-10-28T13:55:16Z</time>
      </trkpt>
      <trkpt lat="62.612051118031" lon="17.95638343752">
        <ele>204.6</ele>
        <time>2017-10-28T13:55:17Z</time>
      </trkpt>
      <trkpt lat="62.612018763897" lon="17.95633649888">
        <ele>204.6</ele>
        <time>2017-10-28T13:55:18Z</time>
      </trkpt>
      <trkpt lat="62.611993115283" lon="17.956301211081">
        <ele>204.4</ele>
        <time>2017-10-28T13:55:19Z</time>
      </trkpt>
      <trkpt lat="62.611965119737" lon="17.956261313237">
        <ele>204.4</ele>
        <time>2017-10-28T13:55:20Z</time>
      </trkpt>
      <trkpt lat="62.611937124191" lon="17.956224768153">
        <ele>204.4</ele>
        <time>2017-10-28T13:55:21Z</time>
      </trkpt>
      <trkpt lat="62.611911727034" lon="17.956198700444">
        <ele>204.6</ele>
        <time>2017-10-28T13:55:22Z</time>
      </trkpt>
      <trkpt lat="62.611891610474" lon="17.956173303287">
        <ele>204.8</ele>
        <time>2017-10-28T13:55:23Z</time>
      </trkpt>
      <trkpt lat="62.61187434376" lon="17.956154360193">
        <ele>204.8</ele>
        <time>2017-10-28T13:55:24Z</time>
      </trkpt>
      <trkpt lat="62.611850455345" lon="17.956130723235">
        <ele>205</ele>
        <time>2017-10-28T13:55:25Z</time>
      </trkpt>
      <trkpt lat="62.611829332957" lon="17.956108595019">
        <ele>205.6</ele>
        <time>2017-10-28T13:55:26Z</time>
      </trkpt>
      <trkpt lat="62.611805779818" lon="17.956077330532">
        <ele>205.6</ele>
        <time>2017-10-28T13:55:27Z</time>
      </trkpt>
      <trkpt lat="62.611778706281" lon="17.956046820416">
        <ele>205.8</ele>
        <time>2017-10-28T13:55:28Z</time>
      </trkpt>
      <trkpt lat="62.611752722391" lon="17.956013628092">
        <ele>206</ele>
        <time>2017-10-28T13:55:29Z</time>
      </trkpt>
      <trkpt lat="62.61173352784" lon="17.955961744131">
        <ele>206.2</ele>
        <time>2017-10-28T13:55:30Z</time>
      </trkpt>
      <trkpt lat="62.611723637198" lon="17.955912710016">
        <ele>206.2</ele>
        <time>2017-10-28T13:55:31Z</time>
      </trkpt>
      <trkpt lat="62.611709387968" lon="17.955855629277">
        <ele>206.2</ele>
        <time>2017-10-28T13:55:32Z</time>
      </trkpt>
      <trkpt lat="62.611695054919" lon="17.955807098076">
        <ele>206</ele>
        <time>2017-10-28T13:55:33Z</time>
      </trkpt>
      <trkpt lat="62.611679464585" lon="17.95575730959">
        <ele>205.8</ele>
        <time>2017-10-28T13:55:34Z</time>
      </trkpt>
      <trkpt lat="62.611665550631" lon="17.955680531386">
        <ele>205.6</ele>
        <time>2017-10-28T13:55:35Z</time>
      </trkpt>
      <trkpt lat="62.611664125708" lon="17.955599310775">
        <ele>205.2</ele>
        <time>2017-10-28T13:55:36Z</time>
      </trkpt>
      <trkpt lat="62.611657084912" lon="17.955517419612">
        <ele>204.8</ele>
        <time>2017-10-28T13:55:37Z</time>
      </trkpt>
      <trkpt lat="62.611661694957" lon="17.95543460644">
        <ele>204.6</ele>
        <time>2017-10-28T13:55:38Z</time>
      </trkpt>
      <trkpt lat="62.611673513436" lon="17.955332263441">
        <ele>204.2</ele>
        <time>2017-10-28T13:55:39Z</time>
      </trkpt>
      <trkpt lat="62.611687175933" lon="17.955235703953">
        <ele>203.8</ele>
        <time>2017-10-28T13:55:40Z</time>
      </trkpt>
      <trkpt lat="62.611698910593" lon="17.95514040175">
        <ele>203.2</ele>
        <time>2017-10-28T13:55:41Z</time>
      </trkpt>
      <trkpt lat="62.611710226158" lon="17.955029425394">
        <ele>202.6</ele>
        <time>2017-10-28T13:55:42Z</time>
      </trkpt>
      <trkpt lat="62.61171760223" lon="17.954926411843">
        <ele>201.6</ele>
        <time>2017-10-28T13:55:43Z</time>
      </trkpt>
      <trkpt lat="62.611718775696" lon="17.954877461547">
        <ele>201.2</ele>
        <time>2017-10-28T13:55:44Z</time>
      </trkpt>
      <trkpt lat="62.611722799008" lon="17.954717702533">
        <ele>200.8</ele>
        <time>2017-10-28T13:55:45Z</time>
      </trkpt>
      <trkpt lat="62.611710142339" lon="17.954627680927">
        <ele>200.4</ele>
        <time>2017-10-28T13:55:46Z</time>
      </trkpt>
      <trkpt lat="62.611698072403" lon="17.95454863961">
        <ele>199.8</ele>
        <time>2017-10-28T13:55:47Z</time>
      </trkpt>
      <trkpt lat="62.611686002467" lon="17.954482757876">
        <ele>199.6</ele>
        <time>2017-10-28T13:55:48Z</time>
      </trkpt>
      <trkpt lat="62.611670998866" lon="17.95442710206">
        <ele>199.4</ele>
        <time>2017-10-28T13:55:49Z</time>
      </trkpt>
      <trkpt lat="62.611651552858" lon="17.954358035204">
        <ele>199</ele>
        <time>2017-10-28T13:55:50Z</time>
      </trkpt>
      <trkpt lat="62.611632861221" lon="17.95430724089">
        <ele>198.8</ele>
        <time>2017-10-28T13:55:51Z</time>
      </trkpt>
      <trkpt lat="62.611609978634" lon="17.954260805164">
        <ele>198.8</ele>
        <time>2017-10-28T13:55:52Z</time>
      </trkpt>
      <trkpt lat="62.611580725803" lon="17.954233228713">
        <ele>198.6</ele>
        <time>2017-10-28T13:55:53Z</time>
      </trkpt>
      <trkpt lat="62.611556083017" lon="17.954209507936">
        <ele>198.4</ele>
        <time>2017-10-28T13:55:54Z</time>
      </trkpt>
      <trkpt lat="62.611533870982" lon="17.954165000047">
        <ele>198</ele>
        <time>2017-10-28T13:55:55Z</time>
      </trkpt>
      <trkpt lat="62.611525991996" lon="17.954115127742">
        <ele>197.6</ele>
        <time>2017-10-28T13:55:56Z</time>
      </trkpt>
      <trkpt lat="62.611528506566" lon="17.954066428903">
        <ele>197.2</ele>
        <time>2017-10-28T13:55:57Z</time>
      </trkpt>
      <trkpt lat="62.611540241226" lon="17.954027620706">
        <ele>197</ele>
        <time>2017-10-28T13:55:58Z</time>
      </trkpt>
      <trkpt lat="62.611554825732" lon="17.953985878844">
        <ele>197</ele>
        <time>2017-10-28T13:55:59Z</time>
      </trkpt>
      <trkpt lat="62.611570751342" lon="17.953942879697">
        <ele>197</ele>
        <time>2017-10-28T13:56:00Z</time>
      </trkpt>
      <trkpt lat="62.611587598961" lon="17.953903065672">
        <ele>196.8</ele>
        <time>2017-10-28T13:56:01Z</time>
      </trkpt>
      <trkpt lat="62.611602937838" lon="17.953855121204">
        <ele>196.4</ele>
        <time>2017-10-28T13:56:02Z</time>
      </trkpt>
      <trkpt lat="62.61161282848" lon="17.953795274438">
        <ele>196.2</ele>
        <time>2017-10-28T13:56:03Z</time>
      </trkpt>
      <trkpt lat="62.611614253403" lon="17.953739953898">
        <ele>195.8</ele>
        <time>2017-10-28T13:56:04Z</time>
      </trkpt>
      <trkpt lat="62.611605536227" lon="17.953686477376">
        <ele>195.4</ele>
        <time>2017-10-28T13:56:05Z</time>
      </trkpt>
      <trkpt lat="62.611588353332" lon="17.953649513197">
        <ele>195</ele>
        <time>2017-10-28T13:56:06Z</time>
      </trkpt>
      <trkpt lat="62.611570751342" lon="17.953611878466">
        <ele>194.8</ele>
        <time>2017-10-28T13:56:07Z</time>
      </trkpt>
      <trkpt lat="62.611559268139" lon="17.953587906232">
        <ele>194.6</ele>
        <time>2017-10-28T13:56:08Z</time>
      </trkpt>
      <trkpt lat="62.611542839615" lon="17.953528813837">
        <ele>194.4</ele>
        <time>2017-10-28T13:56:09Z</time>
      </trkpt>
      <trkpt lat="62.611545521823" lon="17.95346569813">
        <ele>194</ele>
        <time>2017-10-28T13:56:10Z</time>
      </trkpt>
      <trkpt lat="62.611560525424" lon="17.953396295998">
        <ele>193.8</ele>
        <time>2017-10-28T13:56:11Z</time>
      </trkpt>
      <trkpt lat="62.611582737459" lon="17.953335359585">
        <ele>193.6</ele>
        <time>2017-10-28T13:56:12Z</time>
      </trkpt>
      <trkpt lat="62.611602937838" lon="17.953268472023">
        <ele>193.2</ele>
        <time>2017-10-28T13:56:13Z</time>
      </trkpt>
      <trkpt lat="62.61162540133" lon="17.953193370199">
        <ele>193</ele>
        <time>2017-10-28T13:56:14Z</time>
      </trkpt>
      <trkpt lat="62.61165389979" lon="17.953095050512">
        <ele>192.6</ele>
        <time>2017-10-28T13:56:15Z</time>
      </trkpt>
      <trkpt lat="62.611678961671" lon="17.953002765793">
        <ele>192</ele>
        <time>2017-10-28T13:56:16Z</time>
      </trkpt>
      <trkpt lat="62.611706286665" lon="17.952887179392">
        <ele>191</ele>
        <time>2017-10-28T13:56:17Z</time>
      </trkpt>
      <trkpt lat="62.611728414881" lon="17.952778298511">
        <ele>190.2</ele>
        <time>2017-10-28T13:56:18Z</time>
      </trkpt>
      <trkpt lat="62.611749201993" lon="17.952665645775">
        <ele>189</ele>
        <time>2017-10-28T13:56:19Z</time>
      </trkpt>
      <trkpt lat="62.611776610806" lon="17.952539665818">
        <ele>187.8</ele>
        <time>2017-10-28T13:56:20Z</time>
      </trkpt>
      <trkpt lat="62.611802091782" lon="17.952410584558">
        <ele>187</ele>
        <time>2017-10-28T13:56:21Z</time>
      </trkpt>
      <trkpt lat="62.611821956885" lon="17.952276641796">
        <ele>186.4</ele>
        <time>2017-10-28T13:56:22Z</time>
      </trkpt>
      <trkpt lat="62.611848778965" lon="17.952129874727">
        <ele>185.4</ele>
        <time>2017-10-28T13:56:23Z</time>
      </trkpt>
      <trkpt lat="62.611871996828" lon="17.951986544237">
        <ele>185</ele>
        <time>2017-10-28T13:56:24Z</time>
      </trkpt>
      <trkpt lat="62.611901333478" lon="17.951829048336">
        <ele>184.4</ele>
        <time>2017-10-28T13:56:25Z</time>
      </trkpt>
      <trkpt lat="62.611926143902" lon="17.951669876055">
        <ele>183.8</ele>
        <time>2017-10-28T13:56:26Z</time>
      </trkpt>
      <trkpt lat="62.611957073113" lon="17.95151355362">
        <ele>183</ele>
        <time>2017-10-28T13:56:27Z</time>
      </trkpt>
      <trkpt lat="62.611983224641" lon="17.95135848847">
        <ele>182.4</ele>
        <time>2017-10-28T13:56:28Z</time>
      </trkpt>
      <trkpt lat="62.612014405309" lon="17.951210464116">
        <ele>181.2</ele>
        <time>2017-10-28T13:56:29Z</time>
      </trkpt>
      <trkpt lat="62.612049441651" lon="17.951046765609">
        <ele>180.2</ele>
        <time>2017-10-28T13:56:30Z</time>
      </trkpt>
      <trkpt lat="62.612081544328" lon="17.950927407353">
        <ele>178.4</ele>
        <time>2017-10-28T13:56:31Z</time>
      </trkpt>
      <trkpt lat="62.612123789104" lon="17.950784160682">
        <ele>176.8</ele>
        <time>2017-10-28T13:56:32Z</time>
      </trkpt>
      <trkpt lat="62.612160082731" lon="17.950647032798">
        <ele>175</ele>
        <time>2017-10-28T13:56:33Z</time>
      </trkpt>
      <trkpt lat="62.612200148213" lon="17.950520969022">
        <ele>173.4</ele>
        <time>2017-10-28T13:56:34Z</time>
      </trkpt>
      <trkpt lat="62.612245745749" lon="17.95038786445">
        <ele>172.4</ele>
        <time>2017-10-28T13:56:35Z</time>
      </trkpt>
      <trkpt lat="62.612293522579" lon="17.950266997452">
        <ele>171.4</ele>
        <time>2017-10-28T13:56:36Z</time>
      </trkpt>
      <trkpt lat="62.612343059608" lon="17.950148477386">
        <ele>170.2</ele>
        <time>2017-10-28T13:56:37Z</time>
      </trkpt>
      <trkpt lat="62.612390501162" lon="17.950031382243">
        <ele>169.6</ele>
        <time>2017-10-28T13:56:38Z</time>
      </trkpt>
      <trkpt lat="62.612439451458" lon="17.949919064783">
        <ele>168.8</ele>
        <time>2017-10-28T13:56:39Z</time>
      </trkpt>
      <trkpt lat="62.612487731202" lon="17.949803897477">
        <ele>167.8</ele>
        <time>2017-10-28T13:56:40Z</time>
      </trkpt>
      <trkpt lat="62.612536597679" lon="17.949689400723">
        <ele>167.2</ele>
        <time>2017-10-28T13:56:41Z</time>
      </trkpt>
      <trkpt lat="62.61258009974" lon="17.949568198449">
        <ele>166.8</ele>
        <time>2017-10-28T13:56:42Z</time>
      </trkpt>
      <trkpt lat="62.612629301493" lon="17.949456132446">
        <ele>166.2</ele>
        <time>2017-10-28T13:56:43Z</time>
      </trkpt>
      <trkpt lat="62.612678838522" lon="17.949340629864">
        <ele>165.8</ele>
        <time>2017-10-28T13:56:44Z</time>
      </trkpt>
      <trkpt lat="62.612732566501" lon="17.949210794233">
        <ele>165.2</ele>
        <time>2017-10-28T13:56:45Z</time>
      </trkpt>
      <trkpt lat="62.612776571476" lon="17.949102164809">
        <ele>164.8</ele>
        <time>2017-10-28T13:56:46Z</time>
      </trkpt>
      <trkpt lat="62.612831221464" lon="17.948969311694">
        <ele>164</ele>
        <time>2017-10-28T13:56:47Z</time>
      </trkpt>
      <trkpt lat="62.612878663018" lon="17.948854982578">
        <ele>163.6</ele>
        <time>2017-10-28T13:56:48Z</time>
      </trkpt>
      <trkpt lat="62.612926942762" lon="17.948745179688">
        <ele>163</ele>
        <time>2017-10-28T13:56:49Z</time>
      </trkpt>
      <trkpt lat="62.612978994361" lon="17.948627246355">
        <ele>162.4</ele>
        <time>2017-10-28T13:56:50Z</time>
      </trkpt>
      <trkpt lat="62.613021742051" lon="17.948510067393">
        <ele>161.4</ele>
        <time>2017-10-28T13:56:51Z</time>
      </trkpt>
      <trkpt lat="62.613070943804" lon="17.948394732449">
        <ele>160.6</ele>
        <time>2017-10-28T13:56:52Z</time>
      </trkpt>
      <trkpt lat="62.613124420326" lon="17.948274955098">
        <ele>159.8</ele>
        <time>2017-10-28T13:56:53Z</time>
      </trkpt>
      <trkpt lat="62.613177477753" lon="17.948151908806">
        <ele>159</ele>
        <time>2017-10-28T13:56:54Z</time>
      </trkpt>
      <trkpt lat="62.613234977587" lon="17.948018888053">
        <ele>158</ele>
        <time>2017-10-28T13:56:55Z</time>
      </trkpt>
      <trkpt lat="62.613290801041" lon="17.947891818449">
        <ele>157.2</ele>
        <time>2017-10-28T13:56:56Z</time>
      </trkpt>
      <trkpt lat="62.613347127409" lon="17.947760557895">
        <ele>156.6</ele>
        <time>2017-10-28T13:56:57Z</time>
      </trkpt>
      <trkpt lat="62.613401442121" lon="17.94764027763">
        <ele>155.8</ele>
        <time>2017-10-28T13:56:58Z</time>
      </trkpt>
      <trkpt lat="62.613458187584" lon="17.947515638777">
        <ele>155.2</ele>
        <time>2017-10-28T13:56:59Z</time>
      </trkpt>
      <trkpt lat="62.613519794549" lon="17.947385719327">
        <ele>154.8</ele>
        <time>2017-10-28T13:57:00Z</time>
      </trkpt>
      <trkpt lat="62.613573941623" lon="17.947265439062">
        <ele>154.4</ele>
        <time>2017-10-28T13:57:01Z</time>
      </trkpt>
      <trkpt lat="62.613632614923" lon="17.947132502128">
        <ele>153.4</ele>
        <time>2017-10-28T13:57:02Z</time>
      </trkpt>
      <trkpt lat="62.613686007626" lon="17.947010461664">
        <ele>152.6</ele>
        <time>2017-10-28T13:57:03Z</time>
      </trkpt>
      <trkpt lat="62.613732275714" lon="17.946899736765">
        <ele>152</ele>
        <time>2017-10-28T13:57:04Z</time>
      </trkpt>
      <trkpt lat="62.613787428616" lon="17.946764452899">
        <ele>151.8</ele>
        <time>2017-10-28T13:57:05Z</time>
      </trkpt>
      <trkpt lat="62.6138323556" lon="17.946635790734">
        <ele>151.4</ele>
        <time>2017-10-28T13:57:06Z</time>
      </trkpt>
      <trkpt lat="62.613868146313" lon="17.946509475501">
        <ele>151.2</ele>
        <time>2017-10-28T13:57:07Z</time>
      </trkpt>
      <trkpt lat="62.613897063868" lon="17.946389865788">
        <ele>151</ele>
        <time>2017-10-28T13:57:08Z</time>
      </trkpt>
      <trkpt lat="62.613924724138" lon="17.946261371261">
        <ele>150.6</ele>
        <time>2017-10-28T13:57:09Z</time>
      </trkpt>
      <trkpt lat="62.61394718763" lon="17.946126757947">
        <ele>150.2</ele>
        <time>2017-10-28T13:57:10Z</time>
      </trkpt>
      <trkpt lat="62.613963616154" lon="17.945987618407">
        <ele>149.4</ele>
        <time>2017-10-28T13:57:11Z</time>
      </trkpt>
      <trkpt lat="62.613974680262" lon="17.945842024804">
        <ele>148.6</ele>
        <time>2017-10-28T13:57:12Z</time>
      </trkpt>
      <trkpt lat="62.613979960859" lon="17.945706992395">
        <ele>147.8</ele>
        <time>2017-10-28T13:57:13Z</time>
      </trkpt>
      <trkpt lat="62.613978535936" lon="17.945574893651">
        <ele>147</ele>
        <time>2017-10-28T13:57:14Z</time>
      </trkpt>
      <trkpt lat="62.613971578959" lon="17.945422510709">
        <ele>146.2</ele>
        <time>2017-10-28T13:57:15Z</time>
      </trkpt>
      <trkpt lat="62.613960850127" lon="17.945289070861">
        <ele>145.2</ele>
        <time>2017-10-28T13:57:16Z</time>
      </trkpt>
      <trkpt lat="62.613943667232" lon="17.945143393439">
        <ele>144.4</ele>
        <time>2017-10-28T13:57:17Z</time>
      </trkpt>
      <trkpt lat="62.61392204193" lon="17.945005343546">
        <ele>143.6</ele>
        <time>2017-10-28T13:57:18Z</time>
      </trkpt>
      <trkpt lat="62.61390108718" lon="17.944874837363">
        <ele>143.2</ele>
        <time>2017-10-28T13:57:19Z</time>
      </trkpt>
      <trkpt lat="62.613878623688" lon="17.944731925968">
        <ele>142.6</ele>
        <time>2017-10-28T13:57:20Z</time>
      </trkpt>
      <trkpt lat="62.613854483816" lon="17.944596055369">
        <ele>142</ele>
        <time>2017-10-28T13:57:21Z</time>
      </trkpt>
      <trkpt lat="62.613837803835" lon="17.944466471195">
        <ele>141.6</ele>
        <time>2017-10-28T13:57:22Z</time>
      </trkpt>
      <trkpt lat="62.613823470786" lon="17.944330852053">
        <ele>141</ele>
        <time>2017-10-28T13:57:23Z</time>
      </trkpt>
      <trkpt lat="62.613812658135" lon="17.944186431916">
        <ele>140.6</ele>
        <time>2017-10-28T13:57:24Z</time>
      </trkpt>
      <trkpt lat="62.613806874624" lon="17.944029019834">
        <ele>139.8</ele>
        <time>2017-10-28T13:57:25Z</time>
      </trkpt>
      <trkpt lat="62.613812574316" lon="17.94387848091">
        <ele>139.2</ele>
        <time>2017-10-28T13:57:26Z</time>
      </trkpt>
      <trkpt lat="62.613824392795" lon="17.943725595054">
        <ele>138</ele>
        <time>2017-10-28T13:57:27Z</time>
      </trkpt>
      <trkpt lat="62.613841910966" lon="17.94358259984">
        <ele>136.8</ele>
        <time>2017-10-28T13:57:28Z</time>
      </trkpt>
      <trkpt lat="62.6138658832" lon="17.94343843116">
        <ele>136.2</ele>
        <time>2017-10-28T13:57:29Z</time>
      </trkpt>
      <trkpt lat="62.613901841551" lon="17.943285629123">
        <ele>134.8</ele>
        <time>2017-10-28T13:57:30Z</time>
      </trkpt>
      <trkpt lat="62.613941152662" lon="17.94317440131">
        <ele>133.8</ele>
        <time>2017-10-28T13:57:31Z</time>
      </trkpt>
      <trkpt lat="62.613990354415" lon="17.943058311995">
        <ele>133</ele>
        <time>2017-10-28T13:57:32Z</time>
      </trkpt>
      <trkpt lat="62.614043914756" lon="17.942950939856">
        <ele>132.4</ele>
        <time>2017-10-28T13:57:33Z</time>
      </trkpt>
      <trkpt lat="62.614094541432" lon="17.942859996241">
        <ele>131.8</ele>
        <time>2017-10-28T13:57:34Z</time>
      </trkpt>
      <trkpt lat="62.614161931908" lon="17.942760586907">
        <ele>131.2</ele>
        <time>2017-10-28T13:57:35Z</time>
      </trkpt>
      <trkpt lat="62.614230160574" lon="17.942692861155">
        <ele>131</ele>
        <time>2017-10-28T13:57:36Z</time>
      </trkpt>
      <trkpt lat="62.61430006562" lon="17.942637540615">
        <ele>130.4</ele>
        <time>2017-10-28T13:57:37Z</time>
      </trkpt>
      <trkpt lat="62.614362846051" lon="17.942592362174">
        <ele>129.6</ele>
        <time>2017-10-28T13:57:38Z</time>
      </trkpt>
      <trkpt lat="62.614427386681" lon="17.94254324424">
        <ele>129.4</ele>
        <time>2017-10-28T13:57:39Z</time>
      </trkpt>
      <trkpt lat="62.614494358062" lon="17.942492533745">
        <ele>129</ele>
        <time>2017-10-28T13:57:40Z</time>
      </trkpt>
      <trkpt lat="62.614558982511" lon="17.942437883757">
        <ele>128.4</ele>
        <time>2017-10-28T13:57:41Z</time>
      </trkpt>
      <trkpt lat="62.614624612788" lon="17.942394465515">
        <ele>127.8</ele>
        <time>2017-10-28T13:57:42Z</time>
      </trkpt>
      <trkpt lat="62.614682196441" lon="17.942352891291">
        <ele>127.2</ele>
        <time>2017-10-28T13:57:43Z</time>
      </trkpt>
      <trkpt lat="62.614741456474" lon="17.942314921284">
        <ele>126.6</ele>
        <time>2017-10-28T13:57:44Z</time>
      </trkpt>
      <trkpt lat="62.614813289357" lon="17.942267144454">
        <ele>126.2</ele>
        <time>2017-10-28T13:57:45Z</time>
      </trkpt>
      <trkpt lat="62.614881098928" lon="17.942232108112">
        <ele>125.4</ele>
        <time>2017-10-28T13:57:46Z</time>
      </trkpt>
      <trkpt lat="62.614960391702" lon="17.942198245236">
        <ele>124.2</ele>
        <time>2017-10-28T13:57:47Z</time>
      </trkpt>
      <trkpt lat="62.615045132711" lon="17.942178296314">
        <ele>123.6</ele>
        <time>2017-10-28T13:57:48Z</time>
      </trkpt>
      <trkpt lat="62.615124593123" lon="17.942175195011">
        <ele>122.6</ele>
        <time>2017-10-28T13:57:49Z</time>
      </trkpt>
      <trkpt lat="62.615211597245" lon="17.942185420929">
        <ele>121.2</ele>
        <time>2017-10-28T13:57:50Z</time>
      </trkpt>
      <trkpt lat="62.615290135648" lon="17.942196317399">
        <ele>120</ele>
        <time>2017-10-28T13:57:51Z</time>
      </trkpt>
      <trkpt lat="62.615364902196" lon="17.942206962412">
        <ele>119.2</ele>
        <time>2017-10-28T13:57:52Z</time>
      </trkpt>
      <trkpt lat="62.615436064527" lon="17.942229593542">
        <ele>118.2</ele>
        <time>2017-10-28T13:57:53Z</time>
      </trkpt>
      <trkpt lat="62.615505801935" lon="17.942248788093">
        <ele>117.6</ele>
        <time>2017-10-28T13:57:54Z</time>
      </trkpt>
      <trkpt lat="62.615570007289" lon="17.942265216617">
        <ele>117</ele>
        <time>2017-10-28T13:57:55Z</time>
      </trkpt>
      <trkpt lat="62.615623232354" lon="17.942267982644">
        <ele>116.6</ele>
        <time>2017-10-28T13:57:56Z</time>
      </trkpt>
      <trkpt lat="62.615672266469" lon="17.94226245059">
        <ele>116.4</ele>
        <time>2017-10-28T13:57:57Z</time>
      </trkpt>
      <trkpt lat="62.615712248132" lon="17.942245435333">
        <ele>115.8</ele>
        <time>2017-10-28T13:57:58Z</time>
      </trkpt>
      <trkpt lat="62.615750721053" lon="17.942216601597">
        <ele>115.8</ele>
        <time>2017-10-28T13:57:59Z</time>
      </trkpt>
      <trkpt lat="62.615789864526" lon="17.942174105364">
        <ele>115.4</ele>
        <time>2017-10-28T13:58:00Z</time>
      </trkpt>
      <trkpt lat="62.615829427094" lon="17.942123813964">
        <ele>115</ele>
        <time>2017-10-28T13:58:01Z</time>
      </trkpt>
      <trkpt lat="62.615866558911" lon="17.942078300247">
        <ele>114.8</ele>
        <time>2017-10-28T13:58:02Z</time>
      </trkpt>
      <trkpt lat="62.615895308828" lon="17.942021135689">
        <ele>114.4</ele>
        <time>2017-10-28T13:58:03Z</time>
      </trkpt>
      <trkpt lat="62.615909977153" lon="17.941963132941">
        <ele>114.2</ele>
        <time>2017-10-28T13:58:04Z</time>
      </trkpt>
      <trkpt lat="62.615915006293" lon="17.941896077741">
        <ele>114</ele>
        <time>2017-10-28T13:58:05Z</time>
      </trkpt>
      <trkpt lat="62.615904780375" lon="17.94182659179">
        <ele>113.6</ele>
        <time>2017-10-28T13:58:06Z</time>
      </trkpt>
      <trkpt lat="62.6158859211" lon="17.941755178002">
        <ele>113.2</ele>
        <time>2017-10-28T13:58:07Z</time>
      </trkpt>
      <trkpt lat="62.61585993721" lon="17.941695917969">
        <ele>112.8</ele>
        <time>2017-10-28T13:58:08Z</time>
      </trkpt>
      <trkpt lat="62.615821883384" lon="17.941653673193">
        <ele>112.4</ele>
        <time>2017-10-28T13:58:09Z</time>
      </trkpt>
      <trkpt lat="62.615781817902" lon="17.941610925503">
        <ele>112.2</ele>
        <time>2017-10-28T13:58:10Z</time>
      </trkpt>
      <trkpt lat="62.61573588509" lon="17.941576643532">
        <ele>112</ele>
        <time>2017-10-28T13:58:11Z</time>
      </trkpt>
      <trkpt lat="62.615689030269" lon="17.941547893615">
        <ele>112</ele>
        <time>2017-10-28T13:58:12Z</time>
      </trkpt>
      <trkpt lat="62.61564200781" lon="17.941513611644">
        <ele>112</ele>
        <time>2017-10-28T13:58:13Z</time>
      </trkpt>
      <trkpt lat="62.615597164645" lon="17.941488633582">
        <ele>112</ele>
        <time>2017-10-28T13:58:14Z</time>
      </trkpt>
      <trkpt lat="62.615547543797" lon="17.941464074615">
        <ele>112</ele>
        <time>2017-10-28T13:58:15Z</time>
      </trkpt>
      <trkpt lat="62.615502784451" lon="17.941447394634">
        <ele>112</ele>
        <time>2017-10-28T13:58:16Z</time>
      </trkpt>
      <trkpt lat="62.615453582698" lon="17.941423170943">
        <ele>112</ele>
        <time>2017-10-28T13:58:17Z</time>
      </trkpt>
      <trkpt lat="62.615405219135" lon="17.941399533985">
        <ele>112.2</ele>
        <time>2017-10-28T13:58:18Z</time>
      </trkpt>
      <trkpt lat="62.615358615771" lon="17.941388805153">
        <ele>112</ele>
        <time>2017-10-28T13:58:19Z</time>
      </trkpt>
      <trkpt lat="62.615307067086" lon="17.941371286982">
        <ele>112</ele>
        <time>2017-10-28T13:58:20Z</time>
      </trkpt>
      <trkpt lat="62.615261972464" lon="17.941356534838">
        <ele>112</ele>
        <time>2017-10-28T13:58:21Z</time>
      </trkpt>
      <trkpt lat="62.615216626385" lon="17.941343961988">
        <ele>112</ele>
        <time>2017-10-28T13:58:22Z</time>
      </trkpt>
      <trkpt lat="62.615173627238" lon="17.941334322803">
        <ele>112</ele>
        <time>2017-10-28T13:58:23Z</time>
      </trkpt>
      <trkpt lat="62.615130628091" lon="17.941326946731">
        <ele>111.8</ele>
        <time>2017-10-28T13:58:24Z</time>
      </trkpt>
      <trkpt lat="62.615086706935" lon="17.941324096885">
        <ele>111.8</ele>
        <time>2017-10-28T13:58:25Z</time>
      </trkpt>
      <trkpt lat="62.615050664765" lon="17.941326946731">
        <ele>111.8</ele>
        <time>2017-10-28T13:58:26Z</time>
      </trkpt>
      <trkpt lat="62.615020992839" lon="17.941330048034">
        <ele>111.6</ele>
        <time>2017-10-28T13:58:27Z</time>
      </trkpt>
      <trkpt lat="62.614999870451" lon="17.941324935075">
        <ele>111.6</ele>
        <time>2017-10-28T13:58:28Z</time>
      </trkpt>
      <trkpt lat="62.614982519918" lon="17.941304734696">
        <ele>111.6</ele>
        <time>2017-10-28T13:58:29Z</time>
      </trkpt>
      <trkpt lat="62.614972796914" lon="17.941262573739">
        <ele>111.6</ele>
        <time>2017-10-28T13:58:30Z</time>
      </trkpt>
      <trkpt lat="62.614975479122" lon="17.941228375587">
        <ele>111.6</ele>
        <time>2017-10-28T13:58:31Z</time>
      </trkpt>
      <trkpt lat="62.614988806343" lon="17.941191579046">
        <ele>111.6</ele>
        <time>2017-10-28T13:58:32Z</time>
      </trkpt>
      <trkpt lat="62.615016969527" lon="17.941179173834">
        <ele>111.8</ele>
        <time>2017-10-28T13:58:33Z</time>
      </trkpt>
      <trkpt lat="62.615042953417" lon="17.941182275137">
        <ele>111.8</ele>
        <time>2017-10-28T13:58:34Z</time>
      </trkpt>
      <trkpt lat="62.615082180709" lon="17.941171797762">
        <ele>111.6</ele>
        <time>2017-10-28T13:58:35Z</time>
      </trkpt>
      <trkpt lat="62.61511981544" lon="17.941160901292">
        <ele>111.4</ele>
        <time>2017-10-28T13:58:36Z</time>
      </trkpt>
      <trkpt lat="62.615159629465" lon="17.941154111953">
        <ele>111.2</ele>
        <time>2017-10-28T13:58:37Z</time>
      </trkpt>
      <trkpt lat="62.615199694947" lon="17.941160985111">
        <ele>111</ele>
        <time>2017-10-28T13:58:38Z</time>
      </trkpt>
      <trkpt lat="62.615242861732" lon="17.941174228513">
        <ele>110.8</ele>
        <time>2017-10-28T13:58:39Z</time>
      </trkpt>
      <trkpt lat="62.615277059884" lon="17.941178754739">
        <ele>110.8</ele>
        <time>2017-10-28T13:58:40Z</time>
      </trkpt>
      <trkpt lat="62.615338750668" lon="17.941189148295">
        <ele>110.6</ele>
        <time>2017-10-28T13:58:41Z</time>
      </trkpt>
      <trkpt lat="62.61538049253" lon="17.941203146068">
        <ele>110.4</ele>
        <time>2017-10-28T13:58:42Z</time>
      </trkpt>
      <trkpt lat="62.615413014302" lon="17.941205744457">
        <ele>110.2</ele>
        <time>2017-10-28T13:58:43Z</time>
      </trkpt>
      <trkpt lat="62.615429191369" lon="17.941177497454">
        <ele>110</ele>
        <time>2017-10-28T13:58:44Z</time>
      </trkpt>
      <trkpt lat="62.615435058699" lon="17.941121422543">
        <ele>109.6</ele>
        <time>2017-10-28T13:58:45Z</time>
      </trkpt>
      <trkpt lat="62.615422988763" lon="17.941065766727">
        <ele>109.2</ele>
        <time>2017-10-28T13:58:46Z</time>
      </trkpt>
      <trkpt lat="62.615397507787" lon="17.941015726784">
        <ele>109</ele>
        <time>2017-10-28T13:58:47Z</time>
      </trkpt>
      <trkpt lat="62.615364986015" lon="17.94096493247">
        <ele>108.8</ele>
        <time>2017-10-28T13:58:48Z</time>
      </trkpt>
      <trkpt lat="62.615330452587" lon="17.940917239459">
        <ele>108.4</ele>
        <time>2017-10-28T13:58:49Z</time>
      </trkpt>
      <trkpt lat="62.615289381277" lon="17.940850268078">
        <ele>108.2</ele>
        <time>2017-10-28T13:58:50Z</time>
      </trkpt>
      <trkpt lat="62.615250740718" lon="17.940770388571">
        <ele>108</ele>
        <time>2017-10-28T13:58:51Z</time>
      </trkpt>
      <trkpt lat="62.615206484286" lon="17.940703668647">
        <ele>107.6</ele>
        <time>2017-10-28T13:58:52Z</time>
      </trkpt>
      <trkpt lat="62.61515837218" lon="17.940638457465">
        <ele>107.4</ele>
        <time>2017-10-28T13:58:53Z</time>
      </trkpt>
      <trkpt lat="62.615114953938" lon="17.940564110012">
        <ele>107.2</ele>
        <time>2017-10-28T13:58:54Z</time>
      </trkpt>
      <trkpt lat="62.615075139913" lon="17.940494372604">
        <ele>107</ele>
        <time>2017-10-28T13:58:55Z</time>
      </trkpt>
      <trkpt lat="62.615041528494" lon="17.940443159195">
        <ele>106.6</ele>
        <time>2017-10-28T13:58:56Z</time>
      </trkpt>
      <trkpt lat="62.615013449129" lon="17.940389850311">
        <ele>106.4</ele>
        <time>2017-10-28T13:58:57Z</time>
      </trkpt>
      <trkpt lat="62.614997774976" lon="17.940333021029">
        <ele>106</ele>
        <time>2017-10-28T13:58:58Z</time>
      </trkpt>
      <trkpt lat="62.614995595682" lon="17.940269486227">
        <ele>105.8</ele>
        <time>2017-10-28T13:58:59Z</time>
      </trkpt>
      <trkpt lat="62.615010934559" lon="17.940209807099">
        <ele>105.4</ele>
        <time>2017-10-28T13:59:00Z</time>
      </trkpt>
      <trkpt lat="62.615039181562" lon="17.940167394685">
        <ele>105</ele>
        <time>2017-10-28T13:59:01Z</time>
      </trkpt>
      <trkpt lat="62.615071787153" lon="17.9401242279">
        <ele>104.6</ele>
        <time>2017-10-28T13:59:02Z</time>
      </trkpt>
      <trkpt lat="62.615106991133" lon="17.940079720011">
        <ele>104.2</ele>
        <time>2017-10-28T13:59:03Z</time>
      </trkpt>
      <trkpt lat="62.615141859837" lon="17.940048287886">
        <ele>103.8</ele>
        <time>2017-10-28T13:59:04Z</time>
      </trkpt>
      <trkpt lat="62.615184775165" lon="17.940011658983">
        <ele>103.4</ele>
        <time>2017-10-28T13:59:05Z</time>
      </trkpt>
      <trkpt lat="62.615222409896" lon="17.939981651781">
        <ele>102.8</ele>
        <time>2017-10-28T13:59:06Z</time>
      </trkpt>
      <trkpt lat="62.615257697695" lon="17.939952901864">
        <ele>102.4</ele>
        <time>2017-10-28T13:59:07Z</time>
      </trkpt>
      <trkpt lat="62.615281250834" lon="17.939929264906">
        <ele>102.2</ele>
        <time>2017-10-28T13:59:08Z</time>
      </trkpt>
      <trkpt lat="62.615324836714" lon="17.939884924655">
        <ele>101.6</ele>
        <time>2017-10-28T13:59:09Z</time>
      </trkpt>
      <trkpt lat="62.615363393454" lon="17.939845781182">
        <ele>101.2</ele>
        <time>2017-10-28T13:59:10Z</time>
      </trkpt>
      <trkpt lat="62.615404213307" lon="17.939804542234">
        <ele>101.2</ele>
        <time>2017-10-28T13:59:11Z</time>
      </trkpt>
      <trkpt lat="62.615446038988" lon="17.939762465096">
        <ele>100.8</ele>
        <time>2017-10-28T13:59:12Z</time>
      </trkpt>
      <trkpt lat="62.615489541049" lon="17.939717538112">
        <ele>100.4</ele>
        <time>2017-10-28T13:59:13Z</time>
      </trkpt>
      <trkpt lat="62.615530193264" lon="17.939678646096">
        <ele>100.4</ele>
        <time>2017-10-28T13:59:14Z</time>
      </trkpt>
      <trkpt lat="62.615576964266" lon="17.939635144035">
        <ele>100.4</ele>
        <time>2017-10-28T13:59:15Z</time>
      </trkpt>
      <trkpt lat="62.615615856282" lon="17.939594408001">
        <ele>100</ele>
        <time>2017-10-28T13:59:16Z</time>
      </trkpt>
      <trkpt lat="62.615655754126" lon="17.939547720818">
        <ele>99.8</ele>
        <time>2017-10-28T13:59:17Z</time>
      </trkpt>
      <trkpt lat="62.615694729961" lon="17.939502374739">
        <ele>99.4</ele>
        <time>2017-10-28T13:59:18Z</time>
      </trkpt>
      <trkpt lat="62.615726245905" lon="17.939449820226">
        <ele>99</ele>
        <time>2017-10-28T13:59:19Z</time>
      </trkpt>
      <trkpt lat="62.615756253107" lon="17.939382681207">
        <ele>98.8</ele>
        <time>2017-10-28T13:59:20Z</time>
      </trkpt>
      <trkpt lat="62.615782153178" lon="17.939320822785">
        <ele>98.4</ele>
        <time>2017-10-28T13:59:21Z</time>
      </trkpt>
      <trkpt lat="62.615806209231" lon="17.939252929395">
        <ele>97.8</ele>
        <time>2017-10-28T13:59:22Z</time>
      </trkpt>
      <trkpt lat="62.615830768198" lon="17.939180090684">
        <ele>97.6</ele>
        <time>2017-10-28T13:59:23Z</time>
      </trkpt>
      <trkpt lat="62.615854237518" lon="17.939116052968">
        <ele>97.2</ele>
        <time>2017-10-28T13:59:24Z</time>
      </trkpt>
      <trkpt lat="62.615877371562" lon="17.939052266709">
        <ele>96.8</ele>
        <time>2017-10-28T13:59:25Z</time>
      </trkpt>
      <trkpt lat="62.615896398475" lon="17.938998203454">
        <ele>96.4</ele>
        <time>2017-10-28T13:59:26Z</time>
      </trkpt>
      <trkpt lat="62.615917437044" lon="17.938950929538">
        <ele>96.2</ele>
        <time>2017-10-28T13:59:27Z</time>
      </trkpt>
      <trkpt lat="62.615944007667" lon="17.938923353087">
        <ele>95.8</ele>
        <time>2017-10-28T13:59:28Z</time>
      </trkpt>
      <trkpt lat="62.615973679593" lon="17.93892729258">
        <ele>95.8</ele>
        <time>2017-10-28T13:59:29Z</time>
      </trkpt>
      <trkpt lat="62.616004022071" lon="17.938956880687">
        <ele>95.6</ele>
        <time>2017-10-28T13:59:30Z</time>
      </trkpt>
      <trkpt lat="62.616027994305" lon="17.93901194977">
        <ele>95.4</ele>
        <time>2017-10-28T13:59:31Z</time>
      </trkpt>
      <trkpt lat="62.616051463625" lon="17.939068527595">
        <ele>95.4</ele>
        <time>2017-10-28T13:59:32Z</time>
      </trkpt>
      <trkpt lat="62.616078956257" lon="17.939115717692">
        <ele>95.4</ele>
        <time>2017-10-28T13:59:33Z</time>
      </trkpt>
      <trkpt lat="62.616104521052" lon="17.939161901961">
        <ele>95.4</ele>
        <time>2017-10-28T13:59:34Z</time>
      </trkpt>
      <trkpt lat="62.616136288453" lon="17.939212947732">
        <ele>95.4</ele>
        <time>2017-10-28T13:59:35Z</time>
      </trkpt>
      <trkpt lat="62.616167133845" lon="17.939261143657">
        <ele>95.6</ele>
        <time>2017-10-28T13:59:36Z</time>
      </trkpt>
      <trkpt lat="62.616195380848" lon="17.939312692342">
        <ele>95.6</ele>
        <time>2017-10-28T13:59:37Z</time>
      </trkpt>
      <trkpt lat="62.616222957299" lon="17.939359630982">
        <ele>95.8</ele>
        <time>2017-10-28T13:59:38Z</time>
      </trkpt>
      <trkpt lat="62.616253132139" lon="17.939412436952">
        <ele>95.8</ele>
        <time>2017-10-28T13:59:39Z</time>
      </trkpt>
      <trkpt lat="62.616285067178" lon="17.939465242922">
        <ele>96</ele>
        <time>2017-10-28T13:59:40Z</time>
      </trkpt>
      <trkpt lat="62.616319013873" lon="17.939518300349">
        <ele>96.2</ele>
        <time>2017-10-28T13:59:41Z</time>
      </trkpt>
      <trkpt lat="62.616351200369" lon="17.939567585921">
        <ele>96.2</ele>
        <time>2017-10-28T13:59:42Z</time>
      </trkpt>
      <trkpt lat="62.61638129139" lon="17.939618883149">
        <ele>96.4</ele>
        <time>2017-10-28T13:59:43Z</time>
      </trkpt>
      <trkpt lat="62.616414148438" lon="17.939661714658">
        <ele>96.4</ele>
        <time>2017-10-28T13:59:44Z</time>
      </trkpt>
      <trkpt lat="62.616449939151" lon="17.939715358818">
        <ele>96.4</ele>
        <time>2017-10-28T13:59:45Z</time>
      </trkpt>
      <trkpt lat="62.616479611077" lon="17.939766991322">
        <ele>96.4</ele>
        <time>2017-10-28T13:59:46Z</time>
      </trkpt>
      <trkpt lat="62.61651121084" lon="17.93981996493">
        <ele>96.4</ele>
        <time>2017-10-28T13:59:47Z</time>
      </trkpt>
      <trkpt lat="62.616540463671" lon="17.939868244674">
        <ele>96.4</ele>
        <time>2017-10-28T13:59:48Z</time>
      </trkpt>
      <trkpt lat="62.616566699018" lon="17.939908142518">
        <ele>96.6</ele>
        <time>2017-10-28T13:59:49Z</time>
      </trkpt>
      <trkpt lat="62.616595784211" lon="17.939956254624">
        <ele>96.6</ele>
        <time>2017-10-28T13:59:50Z</time>
      </trkpt>
      <trkpt lat="62.616624701766" lon="17.940000678694">
        <ele>96.8</ele>
        <time>2017-10-28T13:59:51Z</time>
      </trkpt>
      <trkpt lat="62.616650853294" lon="17.940047449696">
        <ele>96.8</ele>
        <time>2017-10-28T13:59:52Z</time>
      </trkpt>
      <trkpt lat="62.616681279591" lon="17.940088437187">
        <ele>97</ele>
        <time>2017-10-28T13:59:53Z</time>
      </trkpt>
      <trkpt lat="62.616710616241" lon="17.940136214017">
        <ele>97</ele>
        <time>2017-10-28T13:59:54Z</time>
      </trkpt>
      <trkpt lat="62.616739114701" lon="17.940189858177">
        <ele>97</ele>
        <time>2017-10-28T13:59:55Z</time>
      </trkpt>
      <trkpt lat="62.616765433867" lon="17.940239646663">
        <ele>97.2</ele>
        <time>2017-10-28T13:59:56Z</time>
      </trkpt>
      <trkpt lat="62.616794435241" lon="17.940282310534">
        <ele>97.2</ele>
        <time>2017-10-28T13:59:57Z</time>
      </trkpt>
      <trkpt lat="62.616819580941" lon="17.940321286369">
        <ele>97.2</ele>
        <time>2017-10-28T13:59:58Z</time>
      </trkpt>
      <trkpt lat="62.616845061917" lon="17.940359340195">
        <ele>97.2</ele>
        <time>2017-10-28T13:59:59Z</time>
      </trkpt>
      <trkpt lat="62.616871464902" lon="17.940399489496">
        <ele>97.2</ele>
        <time>2017-10-28T14:00:00Z</time>
      </trkpt>
      <trkpt lat="62.616895688593" lon="17.940433939105">
        <ele>97.2</ele>
        <time>2017-10-28T14:00:01Z</time>
      </trkpt>
      <trkpt lat="62.616918822637" lon="17.940465957963">
        <ele>97.2</ele>
        <time>2017-10-28T14:00:02Z</time>
      </trkpt>
      <trkpt lat="62.616938939197" lon="17.940497557726">
        <ele>97.2</ele>
        <time>2017-10-28T14:00:03Z</time>
      </trkpt>
      <trkpt lat="62.616955535359" lon="17.940521697598">
        <ele>97.2</ele>
        <time>2017-10-28T14:00:04Z</time>
      </trkpt>
      <trkpt lat="62.616976909204" lon="17.940547932945">
        <ele>97.4</ele>
        <time>2017-10-28T14:00:05Z</time>
      </trkpt>
      <trkpt lat="62.616997277221" lon="17.940572491912">
        <ele>97.6</ele>
        <time>2017-10-28T14:00:06Z</time>
      </trkpt>
      <trkpt lat="62.617016220315" lon="17.940597721431">
        <ele>97.6</ele>
        <time>2017-10-28T14:00:07Z</time>
      </trkpt>
      <trkpt lat="62.617034744314" lon="17.940626471348">
        <ele>98</ele>
        <time>2017-10-28T14:00:08Z</time>
      </trkpt>
      <trkpt lat="62.617054274141" lon="17.940662094423">
        <ele>98</ele>
        <time>2017-10-28T14:00:09Z</time>
      </trkpt>
      <trkpt lat="62.617078749289" lon="17.940697130765">
        <ele>98.2</ele>
        <time>2017-10-28T14:00:10Z</time>
      </trkpt>
      <trkpt lat="62.61710213479" lon="17.940749182364">
        <ele>98.2</ele>
        <time>2017-10-28T14:00:11Z</time>
      </trkpt>
      <trkpt lat="62.617129124508" lon="17.940794193167">
        <ele>98.2</ele>
        <time>2017-10-28T14:00:12Z</time>
      </trkpt>
      <trkpt lat="62.61715913171" lon="17.940839371608">
        <ele>98</ele>
        <time>2017-10-28T14:00:13Z</time>
      </trkpt>
      <trkpt lat="62.617187211075" lon="17.940884969144">
        <ele>98</ele>
        <time>2017-10-28T14:00:14Z</time>
      </trkpt>
      <trkpt lat="62.617217888829" lon="17.940936182553">
        <ele>97.8</ele>
        <time>2017-10-28T14:00:15Z</time>
      </trkpt>
      <trkpt lat="62.61724630347" lon="17.940987982695">
        <ele>97.8</ele>
        <time>2017-10-28T14:00:16Z</time>
      </trkpt>
      <trkpt lat="62.617277400319" lon="17.941032993498">
        <ele>97.8</ele>
        <time>2017-10-28T14:00:17Z</time>
      </trkpt>
      <trkpt lat="62.617310592643" lon="17.941084039269">
        <ele>97.8</ele>
        <time>2017-10-28T14:00:18Z</time>
      </trkpt>
      <trkpt lat="62.617338252913" lon="17.94113508504">
        <ele>98</ele>
        <time>2017-10-28T14:00:19Z</time>
      </trkpt>
      <trkpt lat="62.617370439409" lon="17.941195099444">
        <ele>98</ele>
        <time>2017-10-28T14:00:20Z</time>
      </trkpt>
      <trkpt lat="62.617399943697" lon="17.941247737776">
        <ele>98.2</ele>
        <time>2017-10-28T14:00:21Z</time>
      </trkpt>
      <trkpt lat="62.617426933415" lon="17.941297610081">
        <ele>98.4</ele>
        <time>2017-10-28T14:00:22Z</time>
      </trkpt>
      <trkpt lat="62.617453755495" lon="17.94133708883">
        <ele>98.6</ele>
        <time>2017-10-28T14:00:23Z</time>
      </trkpt>
      <trkpt lat="62.617482337774" lon="17.941370867887">
        <ele>98.8</ele>
        <time>2017-10-28T14:00:24Z</time>
      </trkpt>
      <trkpt lat="62.617515949193" lon="17.941399785442">
        <ele>99.2</ele>
        <time>2017-10-28T14:00:25Z</time>
      </trkpt>
      <trkpt lat="62.617554003019" lon="17.941391152085">
        <ele>99.4</ele>
        <time>2017-10-28T14:00:26Z</time>
      </trkpt>
      <trkpt lat="62.617594571415" lon="17.941382183452">
        <ele>99.6</ele>
        <time>2017-10-28T14:00:27Z</time>
      </trkpt>
      <trkpt lat="62.617636229458" lon="17.941371370801">
        <ele>99.8</ele>
        <time>2017-10-28T14:00:28Z</time>
      </trkpt>
      <trkpt lat="62.617683754831" lon="17.941366006385">
        <ele>99.8</ele>
        <time>2017-10-28T14:00:29Z</time>
      </trkpt>
      <trkpt lat="62.617737566629" lon="17.941352595345">
        <ele>99.8</ele>
        <time>2017-10-28T14:00:30Z</time>
      </trkpt>
      <trkpt lat="62.617791378427" lon="17.941343878169">
        <ele>99.6</ele>
        <time>2017-10-28T14:00:31Z</time>
      </trkpt>
      <trkpt lat="62.617848040071" lon="17.941341028323">
        <ele>99.4</ele>
        <time>2017-10-28T14:00:32Z</time>
      </trkpt>
      <trkpt lat="62.61790512081" lon="17.941331137681">
        <ele>99</ele>
        <time>2017-10-28T14:00:33Z</time>
      </trkpt>
      <trkpt lat="62.617961698635" lon="17.941322755781">
        <ele>99</ele>
        <time>2017-10-28T14:00:34Z</time>
      </trkpt>
      <trkpt lat="62.617922387524" lon="17.941327617283">
        <ele>99</ele>
        <time>2017-10-28T14:00:35Z</time>
      </trkpt>
      <trkpt lat="62.617999584823" lon="17.941311859311">
        <ele>99</ele>
        <time>2017-10-28T14:00:36Z</time>
      </trkpt>
      <trkpt lat="62.618075441018" lon="17.941298615909">
        <ele>98.6</ele>
        <time>2017-10-28T14:00:37Z</time>
      </trkpt>
      <trkpt lat="62.618150375204" lon="17.941289144362">
        <ele>98.4</ele>
        <time>2017-10-28T14:00:38Z</time>
      </trkpt>
      <trkpt lat="62.618256154782" lon="17.941278080254">
        <ele>98</ele>
        <time>2017-10-28T14:00:39Z</time>
      </trkpt>
      <trkpt lat="62.618349445329" lon="17.941261484092">
        <ele>97.4</ele>
        <time>2017-10-28T14:00:40Z</time>
      </trkpt>
      <trkpt lat="62.618422954592" lon="17.94124656431">
        <ele>96.8</ele>
        <time>2017-10-28T14:00:41Z</time>
      </trkpt>
      <trkpt lat="62.618493362552" lon="17.941236757487">
        <ele>96</ele>
        <time>2017-10-28T14:00:42Z</time>
      </trkpt>
      <trkpt lat="62.618564189607" lon="17.941226028655">
        <ele>95.4</ele>
        <time>2017-10-28T14:00:43Z</time>
      </trkpt>
      <trkpt lat="62.618630322798" lon="17.941212952891">
        <ele>94.8</ele>
        <time>2017-10-28T14:00:44Z</time>
      </trkpt>
      <trkpt lat="62.618704670251" lon="17.941189986485">
        <ele>94.2</ele>
        <time>2017-10-28T14:00:45Z</time>
      </trkpt>
      <trkpt lat="62.618773820926" lon="17.941166768622">
        <ele>93.8</ele>
        <time>2017-10-28T14:00:46Z</time>
      </trkpt>
      <trkpt lat="62.61884640818" lon="17.941144808044">
        <ele>93.2</ele>
        <time>2017-10-28T14:00:47Z</time>
      </trkpt>
      <trkpt lat="62.618919582167" lon="17.941122428371">
        <ele>93</ele>
        <time>2017-10-28T14:00:48Z</time>
      </trkpt>
      <trkpt lat="62.618985296263" lon="17.941109017331">
        <ele>92.8</ele>
        <time>2017-10-28T14:00:49Z</time>
      </trkpt>
      <trkpt lat="62.61905763206" lon="17.941087140572">
        <ele>92.6</ele>
        <time>2017-10-28T14:00:50Z</time>
      </trkpt>
      <trkpt lat="62.619125776907" lon="17.941062497786">
        <ele>92.2</ele>
        <time>2017-10-28T14:00:51Z</time>
      </trkpt>
      <trkpt lat="62.619147653666" lon="17.941057803922">
        <ele>92</ele>
        <time>2017-10-28T14:00:52Z</time>
      </trkpt>
      <trkpt lat="62.619248487923" lon="17.941037184448">
        <ele>91.6</ele>
        <time>2017-10-28T14:00:53Z</time>
      </trkpt>
      <trkpt lat="62.6193225001" lon="17.941030143652">
        <ele>91.4</ele>
        <time>2017-10-28T14:00:54Z</time>
      </trkpt>
      <trkpt lat="62.619384945255" lon="17.941032574403">
        <ele>90.8</ele>
        <time>2017-10-28T14:00:55Z</time>
      </trkpt>
      <trkpt lat="62.619445378754" lon="17.941043470873">
        <ele>90.4</ele>
        <time>2017-10-28T14:00:56Z</time>
      </trkpt>
      <trkpt lat="62.619506985719" lon="17.941057384827">
        <ele>90</ele>
        <time>2017-10-28T14:00:57Z</time>
      </trkpt>
      <trkpt lat="62.619531544686" lon="17.941069287125">
        <ele>89.6</ele>
        <time>2017-10-28T14:00:58Z</time>
      </trkpt>
      <trkpt lat="62.619621650111" lon="17.941116728679">
        <ele>89.2</ele>
        <time>2017-10-28T14:00:59Z</time>
      </trkpt>
      <trkpt lat="62.619695997564" lon="17.941170708115">
        <ele>88.6</ele>
        <time>2017-10-28T14:01:00Z</time>
      </trkpt>
      <trkpt lat="62.619757185434" lon="17.941223597904">
        <ele>88</ele>
        <time>2017-10-28T14:01:01Z</time>
      </trkpt>
      <trkpt lat="62.619814433811" lon="17.941287970896">
        <ele>87.4</ele>
        <time>2017-10-28T14:01:02Z</time>
      </trkpt>
      <trkpt lat="62.619871430731" lon="17.941342620884">
        <ele>86.8</ele>
        <time>2017-10-28T14:01:03Z</time>
      </trkpt>
      <trkpt lat="62.619889367997" lon="17.941350080775">
        <ele>86.6</ele>
        <time>2017-10-28T14:01:04Z</time>
      </trkpt>
      <trkpt lat="62.61997461192" lon="17.941403222021">
        <ele>86.2</ele>
        <time>2017-10-28T14:01:05Z</time>
      </trkpt>
      <trkpt lat="62.620040074559" lon="17.941438928915">
        <ele>85.6</ele>
        <time>2017-10-28T14:01:06Z</time>
      </trkpt>
      <trkpt lat="62.620092964348" lon="17.94146114095">
        <ele>85.2</ele>
        <time>2017-10-28T14:01:07Z</time>
      </trkpt>
      <trkpt lat="62.620137472237" lon="17.941485616098">
        <ele>84.8</ele>
        <time>2017-10-28T14:01:08Z</time>
      </trkpt>
      <trkpt lat="62.620178124452" lon="17.941539344077">
        <ele>84.4</ele>
        <time>2017-10-28T14:01:09Z</time>
      </trkpt>
      <trkpt lat="62.620207377283" lon="17.94162039705">
        <ele>84.2</ele>
        <time>2017-10-28T14:01:10Z</time>
      </trkpt>
      <trkpt lat="62.62023193625" lon="17.94174864012">
        <ele>84</ele>
        <time>2017-10-28T14:01:11Z</time>
      </trkpt>
      <trkpt lat="62.620243503272" lon="17.941869842394">
        <ele>83.8</ele>
        <time>2017-10-28T14:01:12Z</time>
      </trkpt>
      <trkpt lat="62.620259177425" lon="17.941993978333">
        <ele>83.6</ele>
        <time>2017-10-28T14:01:13Z</time>
      </trkpt>
      <trkpt lat="62.620277030872" lon="17.942118533367">
        <ele>83.2</ele>
        <time>2017-10-28T14:01:14Z</time>
      </trkpt>
      <trkpt lat="62.620299662002" lon="17.942256331803">
        <ele>83</ele>
        <time>2017-10-28T14:01:15Z</time>
      </trkpt>
      <trkpt lat="62.620328076643" lon="17.942400668121">
        <ele>82.6</ele>
        <time>2017-10-28T14:01:16Z</time>
      </trkpt>
      <trkpt lat="62.620357078017" lon="17.942556487642">
        <ele>82.2</ele>
        <time>2017-10-28T14:01:17Z</time>
      </trkpt>
      <trkpt lat="62.620386079391" lon="17.942713480629">
        <ele>82</ele>
        <time>2017-10-28T14:01:18Z</time>
      </trkpt>
      <trkpt lat="62.62041717624" lon="17.942863097544">
        <ele>81.4</ele>
        <time>2017-10-28T14:01:19Z</time>
      </trkpt>
      <trkpt lat="62.620452464039" lon="17.943033836847">
        <ele>80.8</ele>
        <time>2017-10-28T14:01:20Z</time>
      </trkpt>
      <trkpt lat="62.620484901992" lon="17.943197619173">
        <ele>80.4</ele>
        <time>2017-10-28T14:01:21Z</time>
      </trkpt>
      <trkpt lat="62.62051524447" lon="17.943356120902">
        <ele>80</ele>
        <time>2017-10-28T14:01:22Z</time>
      </trkpt>
      <trkpt lat="62.620530918623" lon="17.943433569658">
        <ele>79.8</ele>
        <time>2017-10-28T14:01:23Z</time>
      </trkpt>
      <trkpt lat="62.620577605806" lon="17.943669268686">
        <ele>79.6</ele>
        <time>2017-10-28T14:01:24Z</time>
      </trkpt>
      <trkpt lat="62.620617084555" lon="17.943857442341">
        <ele>79</ele>
        <time>2017-10-28T14:01:25Z</time>
      </trkpt>
      <trkpt lat="62.620651366526" lon="17.944017033717">
        <ele>78.8</ele>
        <time>2017-10-28T14:01:26Z</time>
      </trkpt>
      <trkpt lat="62.620683804479" lon="17.94417520017">
        <ele>78.6</ele>
        <time>2017-10-28T14:01:27Z</time>
      </trkpt>
      <trkpt lat="62.620713727862" lon="17.944321715782">
        <ele>78.2</ele>
        <time>2017-10-28T14:01:28Z</time>
      </trkpt>
      <trkpt lat="62.620744405616" lon="17.944471165059">
        <ele>78</ele>
        <time>2017-10-28T14:01:29Z</time>
      </trkpt>
      <trkpt lat="62.620774664275" lon="17.944620530517">
        <ele>77.6</ele>
        <time>2017-10-28T14:01:30Z</time>
      </trkpt>
      <trkpt lat="62.620809868255" lon="17.944778529332">
        <ele>77.4</ele>
        <time>2017-10-28T14:01:31Z</time>
      </trkpt>
      <trkpt lat="62.620843312036" lon="17.944923787659">
        <ele>77.4</ele>
        <time>2017-10-28T14:01:32Z</time>
      </trkpt>
      <trkpt lat="62.620875079437" lon="17.94506535795">
        <ele>77.2</ele>
        <time>2017-10-28T14:01:33Z</time>
      </trkpt>
      <trkpt lat="62.62088740083" lon="17.945112967142">
        <ele>77.2</ele>
        <time>2017-10-28T14:01:34Z</time>
      </trkpt>
      <trkpt lat="62.620935429117" lon="17.945308768326">
        <ele>77</ele>
        <time>2017-10-28T14:01:35Z</time>
      </trkpt>
      <trkpt lat="62.620972728572" lon="17.945458049965">
        <ele>77</ele>
        <time>2017-10-28T14:01:36Z</time>
      </trkpt>
      <trkpt lat="62.621005417982" lon="17.945582269723">
        <ele>77</ele>
        <time>2017-10-28T14:01:37Z</time>
      </trkpt>
      <trkpt lat="62.621041460152" lon="17.945703807273">
        <ele>77</ele>
        <time>2017-10-28T14:01:38Z</time>
      </trkpt>
      <trkpt lat="62.621076999408" lon="17.945810844136">
        <ele>77</ele>
        <time>2017-10-28T14:01:39Z</time>
      </trkpt>
      <trkpt lat="62.621114382682" lon="17.945921904311">
        <ele>77.2</ele>
        <time>2017-10-28T14:01:40Z</time>
      </trkpt>
      <trkpt lat="62.621151933594" lon="17.946038580359">
        <ele>77.2</ele>
        <time>2017-10-28T14:01:41Z</time>
      </trkpt>
      <trkpt lat="62.621187808126" lon="17.946154753493">
        <ele>77</ele>
        <time>2017-10-28T14:01:42Z</time>
      </trkpt>
      <trkpt lat="62.62122686778" lon="17.946265562211">
        <ele>77</ele>
        <time>2017-10-28T14:01:43Z</time>
      </trkpt>
      <trkpt lat="62.621264083416" lon="17.946370084504">
        <ele>77.2</ele>
        <time>2017-10-28T14:01:44Z</time>
      </trkpt>
      <trkpt lat="62.621304567993" lon="17.946473349512">
        <ele>77</ele>
        <time>2017-10-28T14:01:45Z</time>
      </trkpt>
      <trkpt lat="62.62134840533" lon="17.946571753018">
        <ele>77</ele>
        <time>2017-10-28T14:01:46Z</time>
      </trkpt>
      <trkpt lat="62.621397355626" lon="17.946674431293">
        <ele>77</ele>
        <time>2017-10-28T14:01:47Z</time>
      </trkpt>
      <trkpt lat="62.621445719189" lon="17.946768895306">
        <ele>77</ele>
        <time>2017-10-28T14:01:48Z</time>
      </trkpt>
      <trkpt lat="62.621492657829" lon="17.946845086777">
        <ele>76.8</ele>
        <time>2017-10-28T14:01:49Z</time>
      </trkpt>
      <trkpt lat="62.621542111039" lon="17.946934018736">
        <ele>76.6</ele>
        <time>2017-10-28T14:01:50Z</time>
      </trkpt>
      <trkpt lat="62.621581673607" lon="17.947029069482">
        <ele>76.6</ele>
        <time>2017-10-28T14:01:51Z</time>
      </trkpt>
      <trkpt lat="62.62159148043" lon="17.947058070856">
        <ele>76.6</ele>
        <time>2017-10-28T14:01:52Z</time>
      </trkpt>
      <trkpt lat="62.621640598364" lon="17.947204083554">
        <ele>76.4</ele>
        <time>2017-10-28T14:01:53Z</time>
      </trkpt>
      <trkpt lat="62.621665995521" lon="17.947331069339">
        <ele>76.4</ele>
        <time>2017-10-28T14:01:54Z</time>
      </trkpt>
      <trkpt lat="62.621676472896" lon="17.947448080663">
        <ele>76.4</ele>
        <time>2017-10-28T14:01:55Z</time>
      </trkpt>
      <trkpt lat="62.621680077113" lon="17.947554027879">
        <ele>76.6</ele>
        <time>2017-10-28T14:01:56Z</time>
      </trkpt>
      <trkpt lat="62.62168954866" lon="17.947654610679">
        <ele>76.6</ele>
        <time>2017-10-28T14:01:57Z</time>
      </trkpt>
      <trkpt lat="62.621710587229" lon="17.947743123543">
        <ele>76.8</ele>
        <time>2017-10-28T14:01:58Z</time>
      </trkpt>
      <trkpt lat="62.621741264983" lon="17.947825936715">
        <ele>77.2</ele>
        <time>2017-10-28T14:01:59Z</time>
      </trkpt>
      <trkpt lat="62.621782839207" lon="17.947896177037">
        <ele>77.2</ele>
        <time>2017-10-28T14:02:00Z</time>
      </trkpt>
      <trkpt lat="62.621832376236" lon="17.947957532545">
        <ele>77.4</ele>
        <time>2017-10-28T14:02:01Z</time>
      </trkpt>
      <trkpt lat="62.621885098387" lon="17.948005141737">
        <ele>77.6</ele>
        <time>2017-10-28T14:02:02Z</time>
      </trkpt>
      <trkpt lat="62.621943017316" lon="17.9480451234">
        <ele>77.6</ele>
        <time>2017-10-28T14:02:03Z</time>
      </trkpt>
      <trkpt lat="62.621997583485" lon="17.948077393715">
        <ele>77.4</ele>
        <time>2017-10-28T14:02:04Z</time>
      </trkpt>
      <trkpt lat="62.62206589597" lon="17.948120476681">
        <ele>77</ele>
        <time>2017-10-28T14:02:05Z</time>
      </trkpt>
      <trkpt lat="62.622130520419" lon="17.948158614326">
        <ele>76.8</ele>
        <time>2017-10-28T14:02:06Z</time>
      </trkpt>
      <trkpt lat="62.622190115728" lon="17.948190046451">
        <ele>76.4</ele>
        <time>2017-10-28T14:02:07Z</time>
      </trkpt>
      <trkpt lat="62.622247615562" lon="17.948219215463">
        <ele>75.6</ele>
        <time>2017-10-28T14:02:08Z</time>
      </trkpt>
      <trkpt lat="62.622302097912" lon="17.948248971208">
        <ele>75.4</ele>
        <time>2017-10-28T14:02:09Z</time>
      </trkpt>
      <trkpt lat="62.622361860859" lon="17.948281409161">
        <ele>75.2</ele>
        <time>2017-10-28T14:02:10Z</time>
      </trkpt>
      <trkpt lat="62.622426904403" lon="17.948311919277">
        <ele>75</ele>
        <time>2017-10-28T14:02:11Z</time>
      </trkpt>
      <trkpt lat="62.622491528852" lon="17.948343602859">
        <ele>74.6</ele>
        <time>2017-10-28T14:02:12Z</time>
      </trkpt>
      <trkpt lat="62.622556656215" lon="17.948368245645">
        <ele>74.2</ele>
        <time>2017-10-28T14:02:13Z</time>
      </trkpt>
      <trkpt lat="62.622620023379" lon="17.948393726621">
        <ele>74</ele>
        <time>2017-10-28T14:02:14Z</time>
      </trkpt>
      <trkpt lat="62.622688503502" lon="17.948421973624">
        <ele>73.6</ele>
        <time>2017-10-28T14:02:15Z</time>
      </trkpt>
      <trkpt lat="62.622758911462" lon="17.948453489568">
        <ele>73</ele>
        <time>2017-10-28T14:02:16Z</time>
      </trkpt>
      <trkpt lat="62.622833845648" lon="17.948497829819">
        <ele>72.2</ele>
        <time>2017-10-28T14:02:17Z</time>
      </trkpt>
      <trkpt lat="62.622900900848" lon="17.948546528658">
        <ele>71.4</ele>
        <time>2017-10-28T14:02:18Z</time>
      </trkpt>
      <trkpt lat="62.622960160881" lon="17.948588521977">
        <ele>70.8</ele>
        <time>2017-10-28T14:02:19Z</time>
      </trkpt>
      <trkpt lat="62.623022606036" lon="17.948645351259">
        <ele>70.2</ele>
        <time>2017-10-28T14:02:20Z</time>
      </trkpt>
      <trkpt lat="62.623076417834" lon="17.948701174713">
        <ele>69.6</ele>
        <time>2017-10-28T14:02:21Z</time>
      </trkpt>
      <trkpt lat="62.623126373958" lon="17.948751549932">
        <ele>69.2</ele>
        <time>2017-10-28T14:02:22Z</time>
      </trkpt>
      <trkpt lat="62.623184711982" lon="17.948798823848">
        <ele>68.6</ele>
        <time>2017-10-28T14:02:23Z</time>
      </trkpt>
      <trkpt lat="62.6232368474" lon="17.948818102218">
        <ele>68.4</ele>
        <time>2017-10-28T14:02:24Z</time>
      </trkpt>
      <trkpt lat="62.623292754673" lon="17.948819359503">
        <ele>68</ele>
        <time>2017-10-28T14:02:25Z</time>
      </trkpt>
      <trkpt lat="62.623339358037" lon="17.94881542001">
        <ele>67.6</ele>
        <time>2017-10-28T14:02:26Z</time>
      </trkpt>
      <trkpt lat="62.623386129039" lon="17.948813995087">
        <ele>67</ele>
        <time>2017-10-28T14:02:27Z</time>
      </trkpt>
      <trkpt lat="62.623428122358" lon="17.94880955268">
        <ele>66.6</ele>
        <time>2017-10-28T14:02:28Z</time>
      </trkpt>
      <trkpt lat="62.623475228636" lon="17.948803350074">
        <ele>66.2</ele>
        <time>2017-10-28T14:02:29Z</time>
      </trkpt>
      <trkpt lat="62.623526274407" lon="17.948799410581">
        <ele>66</ele>
        <time>2017-10-28T14:02:30Z</time>
      </trkpt>
      <trkpt lat="62.623580421481" lon="17.948783987885">
        <ele>65.6</ele>
        <time>2017-10-28T14:02:31Z</time>
      </trkpt>
      <trkpt lat="62.623630629062" lon="17.948768732827">
        <ele>65.2</ele>
        <time>2017-10-28T14:02:32Z</time>
      </trkpt>
      <trkpt lat="62.623683435032" lon="17.94877099594">
        <ele>64.6</ele>
        <time>2017-10-28T14:02:33Z</time>
      </trkpt>
      <trkpt lat="62.623724925437" lon="17.948790190491">
        <ele>64.4</ele>
        <time>2017-10-28T14:02:34Z</time>
      </trkpt>
      <trkpt lat="62.623775468294" lon="17.948843499375">
        <ele>64.2</ele>
        <time>2017-10-28T14:02:35Z</time>
      </trkpt>
      <trkpt lat="62.623815366138" lon="17.948915918991">
        <ele>63.8</ele>
        <time>2017-10-28T14:02:36Z</time>
      </trkpt>
      <trkpt lat="62.623854761068" lon="17.948999067439">
        <ele>63.8</ele>
        <time>2017-10-28T14:02:37Z</time>
      </trkpt>
      <trkpt lat="62.623886696107" lon="17.949087999398">
        <ele>63.6</ele>
        <time>2017-10-28T14:02:38Z</time>
      </trkpt>
      <trkpt lat="62.623913015273" lon="17.949172656588">
        <ele>63.4</ele>
        <time>2017-10-28T14:02:39Z</time>
      </trkpt>
      <trkpt lat="62.623932880376" lon="17.949248512783">
        <ele>63.2</ele>
        <time>2017-10-28T14:02:40Z</time>
      </trkpt>
      <trkpt lat="62.623942351923" lon="17.949325961539">
        <ele>62.8</ele>
        <time>2017-10-28T14:02:41Z</time>
      </trkpt>
      <trkpt lat="62.623957271705" lon="17.949406595417">
        <ele>62.6</ele>
        <time>2017-10-28T14:02:42Z</time>
      </trkpt>
      <trkpt lat="62.623983842328" lon="17.94948597201">
        <ele>62.2</ele>
        <time>2017-10-28T14:02:43Z</time>
      </trkpt>
      <trkpt lat="62.624015777367" lon="17.949560403282">
        <ele>61.8</ele>
        <time>2017-10-28T14:02:44Z</time>
      </trkpt>
      <trkpt lat="62.624054669383" lon="17.949628548129">
        <ele>61.6</ele>
        <time>2017-10-28T14:02:45Z</time>
      </trkpt>
      <trkpt lat="62.624096662702" lon="17.949694429863">
        <ele>61.4</ele>
        <time>2017-10-28T14:02:46Z</time>
      </trkpt>
      <trkpt lat="62.624139913306" lon="17.949777075397">
        <ele>61</ele>
        <time>2017-10-28T14:02:47Z</time>
      </trkpt>
      <trkpt lat="62.624173357087" lon="17.949882352061">
        <ele>60.8</ele>
        <time>2017-10-28T14:02:48Z</time>
      </trkpt>
      <trkpt lat="62.624200514443" lon="17.949987544906">
        <ele>60.4</ele>
        <time>2017-10-28T14:02:49Z</time>
      </trkpt>
      <trkpt lat="62.624229348179" lon="17.950107489895">
        <ele>60.2</ele>
        <time>2017-10-28T14:02:50Z</time>
      </trkpt>
      <trkpt lat="62.624254158603" lon="17.9502160355">
        <ele>59.8</ele>
        <time>2017-10-28T14:02:51Z</time>
      </trkpt>
      <trkpt lat="62.624275951543" lon="17.950309326047">
        <ele>59.6</ele>
        <time>2017-10-28T14:02:52Z</time>
      </trkpt>
      <trkpt lat="62.624297576845" lon="17.950394905246">
        <ele>59.2</ele>
        <time>2017-10-28T14:02:53Z</time>
      </trkpt>
      <trkpt lat="62.624315346473" lon="17.950453578546">
        <ele>59</ele>
        <time>2017-10-28T14:02:54Z</time>
      </trkpt>
      <trkpt lat="62.624346275684" lon="17.950500433367">
        <ele>58.6</ele>
        <time>2017-10-28T14:02:55Z</time>
      </trkpt>
      <trkpt lat="62.624383994234" lon="17.950507390344">
        <ele>58.2</ele>
        <time>2017-10-28T14:02:56Z</time>
      </trkpt>
      <trkpt lat="62.624421293689" lon="17.950479813893">
        <ele>57.8</ele>
        <time>2017-10-28T14:02:57Z</time>
      </trkpt>
      <trkpt lat="62.624454569832" lon="17.950440083687">
        <ele>57.4</ele>
        <time>2017-10-28T14:02:58Z</time>
      </trkpt>
      <trkpt lat="62.624491031097" lon="17.950391887762">
        <ele>57</ele>
        <time>2017-10-28T14:02:59Z</time>
      </trkpt>
      <trkpt lat="62.624530928941" lon="17.950342686009">
        <ele>57</ele>
        <time>2017-10-28T14:03:00Z</time>
      </trkpt>
      <trkpt lat="62.624573508993" lon="17.950280073216">
        <ele>56.8</ele>
        <time>2017-10-28T14:03:01Z</time>
      </trkpt>
      <trkpt lat="62.624611395181" lon="17.950205893401">
        <ele>56.8</ele>
        <time>2017-10-28T14:03:02Z</time>
      </trkpt>
      <trkpt lat="62.624641402383" lon="17.950111429388">
        <ele>57</ele>
        <time>2017-10-28T14:03:03Z</time>
      </trkpt>
      <trkpt lat="62.624658082364" lon="17.950013025882">
        <ele>57</ele>
        <time>2017-10-28T14:03:04Z</time>
      </trkpt>
      <trkpt lat="62.624673421241" lon="17.949882687337">
        <ele>57</ele>
        <time>2017-10-28T14:03:05Z</time>
      </trkpt>
      <trkpt lat="62.624680545856" lon="17.949756455923">
        <ele>57</ele>
        <time>2017-10-28T14:03:06Z</time>
      </trkpt>
      <trkpt lat="62.624680629675" lon="17.949631397975">
        <ele>56.8</ele>
        <time>2017-10-28T14:03:07Z</time>
      </trkpt>
      <trkpt lat="62.624684150073" lon="17.949508435502">
        <ele>56.6</ele>
        <time>2017-10-28T14:03:08Z</time>
      </trkpt>
      <trkpt lat="62.624688676299" lon="17.949399051707">
        <ele>56.6</ele>
        <time>2017-10-28T14:03:09Z</time>
      </trkpt>
      <trkpt lat="62.624694795086" lon="17.949288326808">
        <ele>56.6</ele>
        <time>2017-10-28T14:03:10Z</time>
      </trkpt>
      <trkpt lat="62.624705943013" lon="17.949176931357">
        <ele>56.6</ele>
        <time>2017-10-28T14:03:11Z</time>
      </trkpt>
      <trkpt lat="62.624717761492" lon="17.949081629154">
        <ele>56.4</ele>
        <time>2017-10-28T14:03:12Z</time>
      </trkpt>
      <trkpt lat="62.624734190016" lon="17.948999737991">
        <ele>56.4</ele>
        <time>2017-10-28T14:03:13Z</time>
      </trkpt>
      <trkpt lat="62.624750869997" lon="17.948946764383">
        <ele>56.4</ele>
        <time>2017-10-28T14:03:14Z</time>
      </trkpt>
      <trkpt lat="62.624762688476" lon="17.948907369453">
        <ele>56.4</ele>
        <time>2017-10-28T14:03:15Z</time>
      </trkpt>
      <trkpt lat="62.624758497526" lon="17.948863280659">
        <ele>56.4</ele>
        <time>2017-10-28T14:03:16Z</time>
      </trkpt>
      <trkpt lat="62.624738800061" lon="17.948849031429">
        <ele>56.4</ele>
        <time>2017-10-28T14:03:17Z</time>
      </trkpt>
      <trkpt lat="62.624725891935" lon="17.948889264549">
        <ele>56.2</ele>
        <time>2017-10-28T14:03:18Z</time>
      </trkpt>
      <trkpt lat="62.624720276062" lon="17.948942908709">
        <ele>56.2</ele>
        <time>2017-10-28T14:03:19Z</time>
      </trkpt>
      <trkpt lat="62.624718432044" lon="17.949007868434">
        <ele>56.2</ele>
        <time>2017-10-28T14:03:20Z</time>
      </trkpt>
      <trkpt lat="62.624714744008" lon="17.949076264738">
        <ele>56.2</ele>
        <time>2017-10-28T14:03:21Z</time>
      </trkpt>
      <trkpt lat="62.624712648533" lon="17.949096884212">
        <ele>56.2</ele>
        <time>2017-10-28T14:03:22Z</time>
      </trkpt>
      <trkpt lat="62.624703344624" lon="17.949198975754">
        <ele>56.2</ele>
        <time>2017-10-28T14:03:23Z</time>
      </trkpt>
      <trkpt lat="62.624694208353" lon="17.949281286012">
        <ele>56.2</ele>
        <time>2017-10-28T14:03:24Z</time>
      </trkpt>
      <trkpt lat="62.624688424842" lon="17.949358315673">
        <ele>56</ele>
        <time>2017-10-28T14:03:25Z</time>
      </trkpt>
      <trkpt lat="62.624687167557" lon="17.94944154794">
        <ele>56</ele>
        <time>2017-10-28T14:03:26Z</time>
      </trkpt>
      <trkpt lat="62.624683898616" lon="17.949535676677">
        <ele>56</ele>
        <time>2017-10-28T14:03:27Z</time>
      </trkpt>
      <trkpt lat="62.624676271087" lon="17.949628045215">
        <ele>56</ele>
        <time>2017-10-28T14:03:28Z</time>
      </trkpt>
      <trkpt lat="62.624668392101" lon="17.949729382386">
        <ele>56</ele>
        <time>2017-10-28T14:03:29Z</time>
      </trkpt>
      <trkpt lat="62.624663362961" lon="17.949833569403">
        <ele>56</ele>
        <time>2017-10-28T14:03:30Z</time>
      </trkpt>
      <trkpt lat="62.624659842563" lon="17.949944294302">
        <ele>56</ele>
        <time>2017-10-28T14:03:31Z</time>
      </trkpt>
      <trkpt lat="62.624649449007" lon="17.95004420655">
        <ele>56</ele>
        <time>2017-10-28T14:03:32Z</time>
      </trkpt>
      <trkpt lat="62.624627823705" lon="17.950129534292">
        <ele>56</ele>
        <time>2017-10-28T14:03:33Z</time>
      </trkpt>
      <trkpt lat="62.624600666349" lon="17.950187788497">
        <ele>56</ele>
        <time>2017-10-28T14:03:34Z</time>
      </trkpt>
      <trkpt lat="62.624563199256" lon="17.950243779589">
        <ele>56</ele>
        <time>2017-10-28T14:03:35Z</time>
      </trkpt>
      <trkpt lat="62.624528833466" lon="17.950279235026">
        <ele>56</ele>
        <time>2017-10-28T14:03:36Z</time>
      </trkpt>
      <trkpt lat="62.624498407169" lon="17.950316199205">
        <ele>56.2</ele>
        <time>2017-10-28T14:03:37Z</time>
      </trkpt>
      <trkpt lat="62.624469238157" lon="17.950357019058">
        <ele>56.2</ele>
        <time>2017-10-28T14:03:38Z</time>
      </trkpt>
      <trkpt lat="62.624442918991" lon="17.95038954083">
        <ele>56.4</ele>
        <time>2017-10-28T14:03:39Z</time>
      </trkpt>
      <trkpt lat="62.62441534254" lon="17.950425750638">
        <ele>56.6</ele>
        <time>2017-10-28T14:03:40Z</time>
      </trkpt>
      <trkpt lat="62.62438935865" lon="17.950458859143">
        <ele>56.8</ele>
        <time>2017-10-28T14:03:41Z</time>
      </trkpt>
      <trkpt lat="62.624364632045" lon="17.95048593268">
        <ele>56.8</ele>
        <time>2017-10-28T14:03:42Z</time>
      </trkpt>
      <trkpt lat="62.624352981204" lon="17.95051275476">
        <ele>56.8</ele>
        <time>2017-10-28T14:03:43Z</time>
      </trkpt>
      <trkpt lat="62.624360692552" lon="17.950553323156">
        <ele>56.8</ele>
        <time>2017-10-28T14:03:44Z</time>
      </trkpt>
      <trkpt lat="62.624381312026" lon="17.950561872694">
        <ele>56.8</ele>
        <time>2017-10-28T14:03:45Z</time>
      </trkpt>
      <trkpt lat="62.624401763862" lon="17.950536475537">
        <ele>56.6</ele>
        <time>2017-10-28T14:03:46Z</time>
      </trkpt>
      <trkpt lat="62.624419114395" lon="17.950482663739">
        <ele>56.4</ele>
        <time>2017-10-28T14:03:47Z</time>
      </trkpt>
      <trkpt lat="62.624437806032" lon="17.950430947416">
        <ele>56.4</ele>
        <time>2017-10-28T14:03:48Z</time>
      </trkpt>
      <trkpt lat="62.624462700275" lon="17.950382667672">
        <ele>56.4</ele>
        <time>2017-10-28T14:03:49Z</time>
      </trkpt>
      <trkpt lat="62.624494383857" lon="17.950327682408">
        <ele>56.4</ele>
        <time>2017-10-28T14:03:50Z</time>
      </trkpt>
      <trkpt lat="62.624528246733" lon="17.950272948601">
        <ele>56.4</ele>
        <time>2017-10-28T14:03:51Z</time>
      </trkpt>
      <trkpt lat="62.624561522876" lon="17.950216203138">
        <ele>56.4</ele>
        <time>2017-10-28T14:03:52Z</time>
      </trkpt>
      <trkpt lat="62.62459806796" lon="17.950145208445">
        <ele>56.4</ele>
        <time>2017-10-28T14:03:53Z</time>
      </trkpt>
      <trkpt lat="62.624625644411" lon="17.950068346422">
        <ele>56.6</ele>
        <time>2017-10-28T14:03:54Z</time>
      </trkpt>
      <trkpt lat="62.624647688808" lon="17.94996290212">
        <ele>56.6</ele>
        <time>2017-10-28T14:03:55Z</time>
      </trkpt>
      <trkpt lat="62.624657830907" lon="17.949848824461">
        <ele>56.6</ele>
        <time>2017-10-28T14:03:56Z</time>
      </trkpt>
      <trkpt lat="62.624665290798" lon="17.94972737073">
        <ele>56.6</ele>
        <time>2017-10-28T14:03:57Z</time>
      </trkpt>
      <trkpt lat="62.624669900843" lon="17.949614131261">
        <ele>56.4</ele>
        <time>2017-10-28T14:03:58Z</time>
      </trkpt>
      <trkpt lat="62.624677109277" lon="17.949495024462">
        <ele>56.4</ele>
        <time>2017-10-28T14:03:59Z</time>
      </trkpt>
      <trkpt lat="62.62468523972" lon="17.949381365898">
        <ele>56</ele>
        <time>2017-10-28T14:04:00Z</time>
      </trkpt>
      <trkpt lat="62.624690185041" lon="17.949259241615">
        <ele>56</ele>
        <time>2017-10-28T14:04:01Z</time>
      </trkpt>
      <trkpt lat="62.624695968552" lon="17.949146253603">
        <ele>56</ele>
        <time>2017-10-28T14:04:02Z</time>
      </trkpt>
      <trkpt lat="62.624705272461" lon="17.949039552016">
        <ele>56.2</ele>
        <time>2017-10-28T14:04:03Z</time>
      </trkpt>
      <trkpt lat="62.624712816171" lon="17.948947518754">
        <ele>56.4</ele>
        <time>2017-10-28T14:04:04Z</time>
      </trkpt>
      <trkpt lat="62.624720778976" lon="17.948833273457">
        <ele>56.6</ele>
        <time>2017-10-28T14:04:05Z</time>
      </trkpt>
      <trkpt lat="62.624721784804" lon="17.948728667345">
        <ele>56.8</ele>
        <time>2017-10-28T14:04:06Z</time>
      </trkpt>
      <trkpt lat="62.624712480895" lon="17.948628168364">
        <ele>57</ele>
        <time>2017-10-28T14:04:07Z</time>
      </trkpt>
      <trkpt lat="62.624694795086" lon="17.948530938324">
        <ele>57</ele>
        <time>2017-10-28T14:04:08Z</time>
      </trkpt>
      <trkpt lat="62.624669565567" lon="17.948448795704">
        <ele>57</ele>
        <time>2017-10-28T14:04:09Z</time>
      </trkpt>
      <trkpt lat="62.624633942492" lon="17.948374615889">
        <ele>57</ele>
        <time>2017-10-28T14:04:10Z</time>
      </trkpt>
      <trkpt lat="62.624596643037" lon="17.948292724726">
        <ele>57</ele>
        <time>2017-10-28T14:04:11Z</time>
      </trkpt>
      <trkpt lat="62.624561858152" lon="17.948214018685">
        <ele>56.8</ele>
        <time>2017-10-28T14:04:12Z</time>
      </trkpt>
      <trkpt lat="62.624525313068" lon="17.948136067015">
        <ele>56.8</ele>
        <time>2017-10-28T14:04:13Z</time>
      </trkpt>
      <trkpt lat="62.624491282554" lon="17.948068508901">
        <ele>56.6</ele>
        <time>2017-10-28T14:04:14Z</time>
      </trkpt>
      <trkpt lat="62.624455994755" lon="17.947992568887">
        <ele>56.6</ele>
        <time>2017-10-28T14:04:15Z</time>
      </trkpt>
      <trkpt lat="62.624421545146" lon="17.94791604214">
        <ele>56.6</ele>
        <time>2017-10-28T14:04:16Z</time>
      </trkpt>
      <trkpt lat="62.624387095537" lon="17.947843035791">
        <ele>56.4</ele>
        <time>2017-10-28T14:04:17Z</time>
      </trkpt>
      <trkpt lat="62.624352645928" lon="17.947773298383">
        <ele>56.2</ele>
        <time>2017-10-28T14:04:18Z</time>
      </trkpt>
      <trkpt lat="62.624323393097" lon="17.947704315346">
        <ele>56.2</ele>
        <time>2017-10-28T14:04:19Z</time>
      </trkpt>
      <trkpt lat="62.624289362583" lon="17.947625022572">
        <ele>56</ele>
        <time>2017-10-28T14:04:20Z</time>
      </trkpt>
      <trkpt lat="62.624256505535" lon="17.947556542449">
        <ele>55.8</ele>
        <time>2017-10-28T14:04:21Z</time>
      </trkpt>
      <trkpt lat="62.624222642659" lon="17.947491163629">
        <ele>55.6</ele>
        <time>2017-10-28T14:04:22Z</time>
      </trkpt>
      <trkpt lat="62.624186684308" lon="17.947416983814">
        <ele>55.2</ele>
        <time>2017-10-28T14:04:23Z</time>
      </trkpt>
      <trkpt lat="62.624150725957" lon="17.947354622478">
        <ele>55</ele>
        <time>2017-10-28T14:04:24Z</time>
      </trkpt>
      <trkpt lat="62.624104457869" lon="17.94729745792">
        <ele>54.8</ele>
        <time>2017-10-28T14:04:25Z</time>
      </trkpt>
      <trkpt lat="62.624058357419" lon="17.947236437688">
        <ele>55</ele>
        <time>2017-10-28T14:04:26Z</time>
      </trkpt>
      <trkpt lat="62.624016699376" lon="17.947174998361">
        <ele>55</ele>
        <time>2017-10-28T14:04:27Z</time>
      </trkpt>
      <trkpt lat="62.623978142636" lon="17.94711892345">
        <ele>55</ele>
        <time>2017-10-28T14:04:28Z</time>
      </trkpt>
      <trkpt lat="62.623933299471" lon="17.947059495779">
        <ele>55</ele>
        <time>2017-10-28T14:04:29Z</time>
      </trkpt>
      <trkpt lat="62.623888288668" lon="17.947001744488">
        <ele>55</ele>
        <time>2017-10-28T14:04:30Z</time>
      </trkpt>
      <trkpt lat="62.623838416363" lon="17.946931336528">
        <ele>55.2</ele>
        <time>2017-10-28T14:04:31Z</time>
      </trkpt>
      <trkpt lat="62.623791310085" lon="17.946864197509">
        <ele>55</ele>
        <time>2017-10-28T14:04:32Z</time>
      </trkpt>
      <trkpt lat="62.623743533255" lon="17.946794208644">
        <ele>55.2</ele>
        <time>2017-10-28T14:04:33Z</time>
      </trkpt>
      <trkpt lat="62.623701539936" lon="17.946736792629">
        <ele>55.2</ele>
        <time>2017-10-28T14:04:34Z</time>
      </trkpt>
      <trkpt lat="62.623646889948" lon="17.946666971402">
        <ele>55.4</ele>
        <time>2017-10-28T14:04:35Z</time>
      </trkpt>
      <trkpt lat="62.623600286584" lon="17.946606537903">
        <ele>55.4</ele>
        <time>2017-10-28T14:04:36Z</time>
      </trkpt>
      <trkpt lat="62.623554856686" lon="17.946552977562">
        <ele>55.6</ele>
        <time>2017-10-28T14:04:37Z</time>
      </trkpt>
      <trkpt lat="62.623509678245" lon="17.946505452189">
        <ele>55.6</ele>
        <time>2017-10-28T14:04:38Z</time>
      </trkpt>
      <trkpt lat="62.623471289143" lon="17.946462369223">
        <ele>56</ele>
        <time>2017-10-28T14:04:39Z</time>
      </trkpt>
      <trkpt lat="62.623431726575" lon="17.946423309569">
        <ele>56.2</ele>
        <time>2017-10-28T14:04:40Z</time>
      </trkpt>
      <trkpt lat="62.623392666921" lon="17.946384166096">
        <ele>56.4</ele>
        <time>2017-10-28T14:04:41Z</time>
      </trkpt>
      <trkpt lat="62.623358887864" lon="17.946356254369">
        <ele>56.4</ele>
        <time>2017-10-28T14:04:42Z</time>
      </trkpt>
      <trkpt lat="62.623330389404" lon="17.946323229683">
        <ele>56.6</ele>
        <time>2017-10-28T14:04:43Z</time>
      </trkpt>
      <trkpt lat="62.623308009731" lon="17.946297329612">
        <ele>56.8</ele>
        <time>2017-10-28T14:04:44Z</time>
      </trkpt>
      <trkpt lat="62.623284037497" lon="17.946296156146">
        <ele>56.8</ele>
        <time>2017-10-28T14:04:45Z</time>
      </trkpt>
      <trkpt lat="62.623267357516" lon="17.946335131981">
        <ele>56.8</ele>
        <time>2017-10-28T14:04:46Z</time>
      </trkpt>
      <trkpt lat="62.623272721932" lon="17.946383327906">
        <ele>56.6</ele>
        <time>2017-10-28T14:04:47Z</time>
      </trkpt>
      <trkpt lat="62.623299041098" lon="17.946396571308">
        <ele>56.4</ele>
        <time>2017-10-28T14:04:48Z</time>
      </trkpt>
      <trkpt lat="62.623328880662" lon="17.946382070621">
        <ele>56.2</ele>
        <time>2017-10-28T14:04:49Z</time>
      </trkpt>
      <trkpt lat="62.623368191773" lon="17.946378634042">
        <ele>56</ele>
        <time>2017-10-28T14:04:50Z</time>
      </trkpt>
      <trkpt lat="62.623410436549" lon="17.946411155814">
        <ele>55.8</ele>
        <time>2017-10-28T14:04:51Z</time>
      </trkpt>
      <trkpt lat="62.623448993289" lon="17.946449461097">
        <ele>56</ele>
        <time>2017-10-28T14:04:52Z</time>
      </trkpt>
      <trkpt lat="62.623501212526" lon="17.94650033923">
        <ele>55.8</ele>
        <time>2017-10-28T14:04:53Z</time>
      </trkpt>
      <trkpt lat="62.623546223329" lon="17.946546607318">
        <ele>55.8</ele>
        <time>2017-10-28T14:04:54Z</time>
      </trkpt>
      <trkpt lat="62.623599280756" lon="17.946609220111">
        <ele>55.8</ele>
        <time>2017-10-28T14:04:55Z</time>
      </trkpt>
      <trkpt lat="62.623648063414" lon="17.946675353302">
        <ele>55.8</ele>
        <time>2017-10-28T14:04:56Z</time>
      </trkpt>
      <trkpt lat="62.623696510796" lon="17.946740480665">
        <ele>55.6</ele>
        <time>2017-10-28T14:04:57Z</time>
      </trkpt>
      <trkpt lat="62.623742192151" lon="17.94679873487">
        <ele>55.4</ele>
        <time>2017-10-28T14:04:58Z</time>
      </trkpt>
      <trkpt lat="62.623788795515" lon="17.946857659627">
        <ele>55.2</ele>
        <time>2017-10-28T14:04:59Z</time>
      </trkpt>
      <trkpt lat="62.623831291748" lon="17.946917506393">
        <ele>55</ele>
        <time>2017-10-28T14:05:00Z</time>
      </trkpt>
      <trkpt lat="62.623876554008" lon="17.946975257684">
        <ele>54.8</ele>
        <time>2017-10-28T14:05:01Z</time>
      </trkpt>
      <trkpt lat="62.623920139888" lon="17.94703175169">
        <ele>54.8</ele>
        <time>2017-10-28T14:05:02Z</time>
      </trkpt>
      <trkpt lat="62.623961965569" lon="17.94709126318">
        <ele>54.6</ele>
        <time>2017-10-28T14:05:03Z</time>
      </trkpt>
      <trkpt lat="62.623999265024" lon="17.94714909829">
        <ele>54.6</ele>
        <time>2017-10-28T14:05:04Z</time>
      </trkpt>
      <trkpt lat="62.624044108189" lon="17.947216656404">
        <ele>54.8</ele>
        <time>2017-10-28T14:05:05Z</time>
      </trkpt>
      <trkpt lat="62.624088532259" lon="17.947273569505">
        <ele>54.8</ele>
        <time>2017-10-28T14:05:06Z</time>
      </trkpt>
      <trkpt lat="62.624131950501" lon="17.947333164814">
        <ele>55</ele>
        <time>2017-10-28T14:05:07Z</time>
      </trkpt>
      <trkpt lat="62.624173776182" lon="17.947399633281">
        <ele>55</ele>
        <time>2017-10-28T14:05:08Z</time>
      </trkpt>
      <trkpt lat="62.624208812524" lon="17.947464928282">
        <ele>55</ele>
        <time>2017-10-28T14:05:09Z</time>
      </trkpt>
      <trkpt lat="62.62424602816" lon="17.947544053418">
        <ele>55</ele>
        <time>2017-10-28T14:05:10Z</time>
      </trkpt>
      <trkpt lat="62.624285255452" lon="17.947625944581">
        <ele>55</ele>
        <time>2017-10-28T14:05:11Z</time>
      </trkpt>
      <trkpt lat="62.62432146526" lon="17.947703896251">
        <ele>55</ele>
        <time>2017-10-28T14:05:12Z</time>
      </trkpt>
      <trkpt lat="62.624357591249" lon="17.947785871233">
        <ele>55</ele>
        <time>2017-10-28T14:05:13Z</time>
      </trkpt>
      <trkpt lat="62.624391454125" lon="17.94785988341">
        <ele>54.8</ele>
        <time>2017-10-28T14:05:14Z</time>
      </trkpt>
      <trkpt lat="62.624430932874" lon="17.947940852564">
        <ele>55</ele>
        <time>2017-10-28T14:05:15Z</time>
      </trkpt>
      <trkpt lat="62.624471836546" lon="17.948029533066">
        <ele>55</ele>
        <time>2017-10-28T14:05:16Z</time>
      </trkpt>
      <trkpt lat="62.624509890372" lon="17.948122320699">
        <ele>55</ele>
        <time>2017-10-28T14:05:17Z</time>
      </trkpt>
      <trkpt lat="62.624545345809" lon="17.948209492459">
        <ele>55</ele>
        <time>2017-10-28T14:05:18Z</time>
      </trkpt>
      <trkpt lat="62.624578035219" lon="17.948284510464">
        <ele>55</ele>
        <time>2017-10-28T14:05:19Z</time>
      </trkpt>
      <trkpt lat="62.624616675778" lon="17.948370676396">
        <ele>55</ele>
        <time>2017-10-28T14:05:20Z</time>
      </trkpt>
      <trkpt lat="62.624651376844" lon="17.948445526763">
        <ele>55.2</ele>
        <time>2017-10-28T14:05:21Z</time>
      </trkpt>
      <trkpt lat="62.624675432897" lon="17.948519119845">
        <ele>55.2</ele>
        <time>2017-10-28T14:05:22Z</time>
      </trkpt>
      <trkpt lat="62.624704853366" lon="17.948619115912">
        <ele>55.4</ele>
        <time>2017-10-28T14:05:23Z</time>
      </trkpt>
      <trkpt lat="62.624716168931" lon="17.948716178314">
        <ele>55.8</ele>
        <time>2017-10-28T14:05:24Z</time>
      </trkpt>
      <trkpt lat="62.624718264406" lon="17.948836877674">
        <ele>56</ele>
        <time>2017-10-28T14:05:25Z</time>
      </trkpt>
      <trkpt lat="62.624711558886" lon="17.948951961161">
        <ele>56.2</ele>
        <time>2017-10-28T14:05:26Z</time>
      </trkpt>
      <trkpt lat="62.62470200352" lon="17.949067966657">
        <ele>56.4</ele>
        <time>2017-10-28T14:05:27Z</time>
      </trkpt>
      <trkpt lat="62.624694795086" lon="17.949177853366">
        <ele>56.6</ele>
        <time>2017-10-28T14:05:28Z</time>
      </trkpt>
      <trkpt lat="62.624687502833" lon="17.949294110319">
        <ele>56.4</ele>
        <time>2017-10-28T14:05:29Z</time>
      </trkpt>
      <trkpt lat="62.624679288571" lon="17.949413720032">
        <ele>56.4</ele>
        <time>2017-10-28T14:05:30Z</time>
      </trkpt>
      <trkpt lat="62.62467099049" lon="17.949546154052">
        <ele>56.4</ele>
        <time>2017-10-28T14:05:31Z</time>
      </trkpt>
      <trkpt lat="62.624662943866" lon="17.949672804561">
        <ele>56.4</ele>
        <time>2017-10-28T14:05:32Z</time>
      </trkpt>
      <trkpt lat="62.624655316337" lon="17.949803478382">
        <ele>56.2</ele>
        <time>2017-10-28T14:05:33Z</time>
      </trkpt>
      <trkpt lat="62.624647772627" lon="17.949915041471">
        <ele>56.2</ele>
        <time>2017-10-28T14:05:34Z</time>
      </trkpt>
      <trkpt lat="62.624629583904" lon="17.950044122731">
        <ele>56.2</ele>
        <time>2017-10-28T14:05:35Z</time>
      </trkpt>
      <trkpt lat="62.624606533679" lon="17.950140849857">
        <ele>56.2</ele>
        <time>2017-10-28T14:05:36Z</time>
      </trkpt>
      <trkpt lat="62.624575017735" lon="17.950213772387">
        <ele>56.2</ele>
        <time>2017-10-28T14:05:37Z</time>
      </trkpt>
      <trkpt lat="62.62453855647" lon="17.950269092927">
        <ele>56.2</ele>
        <time>2017-10-28T14:05:38Z</time>
      </trkpt>
      <trkpt lat="62.624502598119" lon="17.950300273595">
        <ele>56.2</ele>
        <time>2017-10-28T14:05:39Z</time>
      </trkpt>
      <trkpt lat="62.624467729415" lon="17.950339752344">
        <ele>56.4</ele>
        <time>2017-10-28T14:05:40Z</time>
      </trkpt>
      <trkpt lat="62.624437219299" lon="17.950389037916">
        <ele>56.4</ele>
        <time>2017-10-28T14:05:41Z</time>
      </trkpt>
      <trkpt lat="62.624411403047" lon="17.950441340972">
        <ele>56.6</ele>
        <time>2017-10-28T14:05:42Z</time>
      </trkpt>
      <trkpt lat="62.624398914016" lon="17.950501271557">
        <ele>56.8</ele>
        <time>2017-10-28T14:05:43Z</time>
      </trkpt>
      <trkpt lat="62.624406206269" lon="17.950556675916">
        <ele>57</ele>
        <time>2017-10-28T14:05:44Z</time>
      </trkpt>
      <trkpt lat="62.624428669761" lon="17.950585509652">
        <ele>57</ele>
        <time>2017-10-28T14:05:45Z</time>
      </trkpt>
      <trkpt lat="62.624455324203" lon="17.95058651548">
        <ele>56.8</ele>
        <time>2017-10-28T14:05:46Z</time>
      </trkpt>
      <trkpt lat="62.62448491231" lon="17.950577630666">
        <ele>56.6</ele>
        <time>2017-10-28T14:05:47Z</time>
      </trkpt>
      <trkpt lat="62.624516595892" lon="17.950570003137">
        <ele>56.6</ele>
        <time>2017-10-28T14:05:48Z</time>
      </trkpt>
      <trkpt lat="62.624550542587" lon="17.95056472254">
        <ele>56.6</ele>
        <time>2017-10-28T14:05:49Z</time>
      </trkpt>
      <trkpt lat="62.624591949173" lon="17.950562124151">
        <ele>56.6</ele>
        <time>2017-10-28T14:05:50Z</time>
      </trkpt>
      <trkpt lat="62.624631847017" lon="17.950565476911">
        <ele>56.6</ele>
        <time>2017-10-28T14:05:51Z</time>
      </trkpt>
      <trkpt lat="62.624666380445" lon="17.950574277906">
        <ele>56.6</ele>
        <time>2017-10-28T14:05:52Z</time>
      </trkpt>
      <trkpt lat="62.624707535574" lon="17.950577965942">
        <ele>56.6</ele>
        <time>2017-10-28T14:05:53Z</time>
      </trkpt>
      <trkpt lat="62.624739554432" lon="17.950574529363">
        <ele>56.6</ele>
        <time>2017-10-28T14:05:54Z</time>
      </trkpt>
      <trkpt lat="62.624773752584" lon="17.950545192713">
        <ele>56.8</ele>
        <time>2017-10-28T14:05:55Z</time>
      </trkpt>
      <trkpt lat="62.624797473361" lon="17.950487692879">
        <ele>56.8</ele>
        <time>2017-10-28T14:05:56Z</time>
      </trkpt>
      <trkpt lat="62.624809208021" lon="17.950413596883">
        <ele>56.8</ele>
        <time>2017-10-28T14:05:57Z</time>
      </trkpt>
      <trkpt lat="62.624813315152" lon="17.95032835296">
        <ele>56.6</ele>
        <time>2017-10-28T14:05:58Z</time>
      </trkpt>
      <trkpt lat="62.624813985704" lon="17.950241516476">
        <ele>56.6</ele>
        <time>2017-10-28T14:05:59Z</time>
      </trkpt>
      <trkpt lat="62.624814991532" lon="17.950135150165">
        <ele>56.6</ele>
        <time>2017-10-28T14:06:00Z</time>
      </trkpt>
      <trkpt lat="62.624825804183" lon="17.950018977031">
        <ele>56.6</ele>
        <time>2017-10-28T14:06:01Z</time>
      </trkpt>
      <trkpt lat="62.624846423657" lon="17.949904647915">
        <ele>56.6</ele>
        <time>2017-10-28T14:06:02Z</time>
      </trkpt>
      <trkpt lat="62.624875425031" lon="17.949802891649">
        <ele>56.8</ele>
        <time>2017-10-28T14:06:03Z</time>
      </trkpt>
      <trkpt lat="62.6249048455" lon="17.949718485916">
        <ele>56.8</ele>
        <time>2017-10-28T14:06:04Z</time>
      </trkpt>
      <trkpt lat="62.624940300937" lon="17.949629637776">
        <ele>56.8</ele>
        <time>2017-10-28T14:06:05Z</time>
      </trkpt>
      <trkpt lat="62.624970727234" lon="17.949542298378">
        <ele>56.8</ele>
        <time>2017-10-28T14:06:06Z</time>
      </trkpt>
      <trkpt lat="62.624991849622" lon="17.949450516573">
        <ele>56.8</ele>
        <time>2017-10-28T14:06:07Z</time>
      </trkpt>
      <trkpt lat="62.625011379449" lon="17.949338953484">
        <ele>56.6</ele>
        <time>2017-10-28T14:06:08Z</time>
      </trkpt>
      <trkpt lat="62.62502470667" lon="17.949244070376">
        <ele>56.6</ele>
        <time>2017-10-28T14:06:09Z</time>
      </trkpt>
      <trkpt lat="62.625038201529" lon="17.949138793712">
        <ele>56.8</ele>
        <time>2017-10-28T14:06:10Z</time>
      </trkpt>
      <trkpt lat="62.625055049148" lon="17.949044664975">
        <ele>56.8</ele>
        <time>2017-10-28T14:06:11Z</time>
      </trkpt>
      <trkpt lat="62.625071477672" lon="17.948952464075">
        <ele>57</ele>
        <time>2017-10-28T14:06:12Z</time>
      </trkpt>
      <trkpt lat="62.625086313635" lon="17.948857832424">
        <ele>57</ele>
        <time>2017-10-28T14:06:13Z</time>
      </trkpt>
      <trkpt lat="62.625102490702" lon="17.948767475542">
        <ele>57.2</ele>
        <time>2017-10-28T14:06:14Z</time>
      </trkpt>
      <trkpt lat="62.625121349977" lon="17.948660773955">
        <ele>57.2</ele>
        <time>2017-10-28T14:06:15Z</time>
      </trkpt>
      <trkpt lat="62.625141717994" lon="17.94855977206">
        <ele>57.4</ele>
        <time>2017-10-28T14:06:16Z</time>
      </trkpt>
      <trkpt lat="62.625164516762" lon="17.948454914491">
        <ele>57.4</ele>
        <time>2017-10-28T14:06:17Z</time>
      </trkpt>
      <trkpt lat="62.625185555331" lon="17.948348883456">
        <ele>57.6</ele>
        <time>2017-10-28T14:06:18Z</time>
      </trkpt>
      <trkpt lat="62.625202235312" lon="17.948246959552">
        <ele>57.6</ele>
        <time>2017-10-28T14:06:19Z</time>
      </trkpt>
      <trkpt lat="62.625217909465" lon="17.948126344011">
        <ele>57.6</ele>
        <time>2017-10-28T14:06:20Z</time>
      </trkpt>
      <trkpt lat="62.625226291365" lon="17.948010673791">
        <ele>57.6</ele>
        <time>2017-10-28T14:06:21Z</time>
      </trkpt>
      <trkpt lat="62.625226961917" lon="17.947930039913">
        <ele>57.4</ele>
        <time>2017-10-28T14:06:22Z</time>
      </trkpt>
      <trkpt lat="62.6252317396" lon="17.947758210963">
        <ele>57.4</ele>
        <time>2017-10-28T14:06:23Z</time>
      </trkpt>
      <trkpt lat="62.625236265826" lon="17.947640109992">
        <ele>57.2</ele>
        <time>2017-10-28T14:06:24Z</time>
      </trkpt>
      <trkpt lat="62.625242552251" lon="17.947503065927">
        <ele>57</ele>
        <time>2017-10-28T14:06:25Z</time>
      </trkpt>
      <trkpt lat="62.625249844504" lon="17.947378259436">
        <ele>57.2</ele>
        <time>2017-10-28T14:06:26Z</time>
      </trkpt>
      <trkpt lat="62.625260824793" lon="17.947250435461">
        <ele>57.4</ele>
        <time>2017-10-28T14:06:27Z</time>
      </trkpt>
      <trkpt lat="62.62527784005" lon="17.947137615087">
        <ele>57.4</ele>
        <time>2017-10-28T14:06:28Z</time>
      </trkpt>
      <trkpt lat="62.625305751777" lon="17.947026135817">
        <ele>57.4</ele>
        <time>2017-10-28T14:06:29Z</time>
      </trkpt>
      <trkpt lat="62.625341458671" lon="17.946915159461">
        <ele>57.4</ele>
        <time>2017-10-28T14:06:30Z</time>
      </trkpt>
      <trkpt lat="62.625379596316" lon="17.946817510326">
        <ele>57.2</ele>
        <time>2017-10-28T14:06:31Z</time>
      </trkpt>
      <trkpt lat="62.625425780585" lon="17.946736624991">
        <ele>57</ele>
        <time>2017-10-28T14:06:32Z</time>
      </trkpt>
      <trkpt lat="62.625468192999" lon="17.946652470715">
        <ele>57</ele>
        <time>2017-10-28T14:06:33Z</time>
      </trkpt>
      <trkpt lat="62.625505408635" lon="17.946568484077">
        <ele>56.8</ele>
        <time>2017-10-28T14:06:34Z</time>
      </trkpt>
      <trkpt lat="62.625553436922" lon="17.946469493838">
        <ele>56.8</ele>
        <time>2017-10-28T14:06:35Z</time>
      </trkpt>
      <trkpt lat="62.625595094965" lon="17.94637963987">
        <ele>56.6</ele>
        <time>2017-10-28T14:06:36Z</time>
      </trkpt>
      <trkpt lat="62.625634406076" lon="17.9462933063">
        <ele>56.4</ele>
        <time>2017-10-28T14:06:37Z</time>
      </trkpt>
      <trkpt lat="62.625682518182" lon="17.946206637454">
        <ele>56.2</ele>
        <time>2017-10-28T14:06:38Z</time>
      </trkpt>
      <trkpt lat="62.625724092406" lon="17.946128350508">
        <ele>55.8</ele>
        <time>2017-10-28T14:06:39Z</time>
      </trkpt>
      <trkpt lat="62.625769689942" lon="17.946049476829">
        <ele>55.6</ele>
        <time>2017-10-28T14:06:40Z</time>
      </trkpt>
      <trkpt lat="62.625818137324" lon="17.945971022245">
        <ele>55.6</ele>
        <time>2017-10-28T14:06:41Z</time>
      </trkpt>
      <trkpt lat="62.625864070136" lon="17.945896423335">
        <ele>55.6</ele>
        <time>2017-10-28T14:06:42Z</time>
      </trkpt>
      <trkpt lat="62.625906314912" lon="17.945813191068">
        <ele>55.4</ele>
        <time>2017-10-28T14:06:43Z</time>
      </trkpt>
      <trkpt lat="62.625945793661" lon="17.945737670149">
        <ele>55.4</ele>
        <time>2017-10-28T14:06:44Z</time>
      </trkpt>
      <trkpt lat="62.625994157224" lon="17.945658880289">
        <ele>55.6</ele>
        <time>2017-10-28T14:06:45Z</time>
      </trkpt>
      <trkpt lat="62.626036485819" lon="17.945598614428">
        <ele>55.6</ele>
        <time>2017-10-28T14:06:46Z</time>
      </trkpt>
      <trkpt lat="62.626084933201" lon="17.945536923644">
        <ele>55.4</ele>
        <time>2017-10-28T14:06:47Z</time>
      </trkpt>
      <trkpt lat="62.626132877669" lon="17.945480932552">
        <ele>55.4</ele>
        <time>2017-10-28T14:06:48Z</time>
      </trkpt>
      <trkpt lat="62.626176547368" lon="17.945429886781">
        <ele>55.4</ele>
        <time>2017-10-28T14:06:49Z</time>
      </trkpt>
      <trkpt lat="62.626230359166" lon="17.94538722291">
        <ele>55.4</ele>
        <time>2017-10-28T14:06:50Z</time>
      </trkpt>
      <trkpt lat="62.626280734385" lon="17.945351935111">
        <ele>55.2</ele>
        <time>2017-10-28T14:06:51Z</time>
      </trkpt>
      <trkpt lat="62.626323984989" lon="17.945322766099">
        <ele>55.2</ele>
        <time>2017-10-28T14:06:52Z</time>
      </trkpt>
      <trkpt lat="62.626378802615" lon="17.945287310662">
        <ele>55.2</ele>
        <time>2017-10-28T14:06:53Z</time>
      </trkpt>
      <trkpt lat="62.62642280759" lon="17.945256968184">
        <ele>55.2</ele>
        <time>2017-10-28T14:06:54Z</time>
      </trkpt>
      <trkpt lat="62.626470081506" lon="17.945225284602">
        <ele>55.2</ele>
        <time>2017-10-28T14:06:55Z</time>
      </trkpt>
      <trkpt lat="62.62651249392" lon="17.945193517201">
        <ele>55.4</ele>
        <time>2017-10-28T14:06:56Z</time>
      </trkpt>
      <trkpt lat="62.626554319601" lon="17.945155714832">
        <ele>55.4</ele>
        <time>2017-10-28T14:06:57Z</time>
      </trkpt>
      <trkpt lat="62.626592373427" lon="17.945112464228">
        <ele>55.4</ele>
        <time>2017-10-28T14:06:58Z</time>
      </trkpt>
      <trkpt lat="62.626625481932" lon="17.945048007417">
        <ele>55.6</ele>
        <time>2017-10-28T14:06:59Z</time>
      </trkpt>
      <trkpt lat="62.626656746419" lon="17.944958488725">
        <ele>55.8</ele>
        <time>2017-10-28T14:07:00Z</time>
      </trkpt>
      <trkpt lat="62.626674599866" lon="17.944860336676">
        <ele>55.8</ele>
        <time>2017-10-28T14:07:01Z</time>
      </trkpt>
      <trkpt lat="62.626693459141" lon="17.944761765532">
        <ele>56</ele>
        <time>2017-10-28T14:07:02Z</time>
      </trkpt>
      <trkpt lat="62.6267153359" lon="17.944663278207">
        <ele>56</ele>
        <time>2017-10-28T14:07:03Z</time>
      </trkpt>
      <trkpt lat="62.626735955374" lon="17.944571580221">
        <ele>56.2</ele>
        <time>2017-10-28T14:07:04Z</time>
      </trkpt>
      <trkpt lat="62.626763448006" lon="17.944464291901">
        <ele>56</ele>
        <time>2017-10-28T14:07:05Z</time>
      </trkpt>
      <trkpt lat="62.626793203751" lon="17.944365217843">
        <ele>56.2</ele>
        <time>2017-10-28T14:07:06Z</time>
      </trkpt>
      <trkpt lat="62.626819439098" lon="17.944270502373">
        <ele>56.4</ele>
        <time>2017-10-28T14:07:07Z</time>
      </trkpt>
      <trkpt lat="62.626850619766" lon="17.944169416659">
        <ele>56.4</ele>
        <time>2017-10-28T14:07:08Z</time>
      </trkpt>
      <trkpt lat="62.626886075203" lon="17.944098338147">
        <ele>56.4</ele>
        <time>2017-10-28T14:07:09Z</time>
      </trkpt>
      <trkpt lat="62.626926811237" lon="17.944025080341">
        <ele>56.6</ele>
        <time>2017-10-28T14:07:10Z</time>
      </trkpt>
      <trkpt lat="62.626965451796" lon="17.943947380128">
        <ele>56.4</ele>
        <time>2017-10-28T14:07:11Z</time>
      </trkpt>
      <trkpt lat="62.627003589441" lon="17.943868925544">
        <ele>56.2</ele>
        <time>2017-10-28T14:07:12Z</time>
      </trkpt>
      <trkpt lat="62.627039128697" lon="17.943790051865">
        <ele>56.2</ele>
        <time>2017-10-28T14:07:13Z</time>
      </trkpt>
      <trkpt lat="62.627070477003" lon="17.943717799887">
        <ele>56.2</ele>
        <time>2017-10-28T14:07:14Z</time>
      </trkpt>
      <trkpt lat="62.627109536657" lon="17.943637249828">
        <ele>56</ele>
        <time>2017-10-28T14:07:15Z</time>
      </trkpt>
      <trkpt lat="62.627140884963" lon="17.943568266791">
        <ele>56</ele>
        <time>2017-10-28T14:07:16Z</time>
      </trkpt>
      <trkpt lat="62.627179106427" lon="17.943490985673">
        <ele>56</ele>
        <time>2017-10-28T14:07:17Z</time>
      </trkpt>
      <trkpt lat="62.627215400054" lon="17.94341328546">
        <ele>56</ele>
        <time>2017-10-28T14:07:18Z</time>
      </trkpt>
      <trkpt lat="62.62724758655" lon="17.943339273283">
        <ele>56</ele>
        <time>2017-10-28T14:07:19Z</time>
      </trkpt>
      <trkpt lat="62.627282958168" lon="17.943250760419">
        <ele>56</ele>
        <time>2017-10-28T14:07:20Z</time>
      </trkpt>
      <trkpt lat="62.627317575415" lon="17.943169120713">
        <ele>55.8</ele>
        <time>2017-10-28T14:07:21Z</time>
      </trkpt>
      <trkpt lat="62.62735068392" lon="17.943098796572">
        <ele>55.8</ele>
        <time>2017-10-28T14:07:22Z</time>
      </trkpt>
      <trkpt lat="62.627387899556" lon="17.943010535165">
        <ele>55.6</ele>
        <time>2017-10-28T14:07:23Z</time>
      </trkpt>
      <trkpt lat="62.627418325853" lon="17.942935349522">
        <ele>55.6</ele>
        <time>2017-10-28T14:07:24Z</time>
      </trkpt>
      <trkpt lat="62.627455625308" lon="17.942850357056">
        <ele>55.6</ele>
        <time>2017-10-28T14:07:25Z</time>
      </trkpt>
      <trkpt lat="62.627485129596" lon="17.942763017658">
        <ele>55.6</ele>
        <time>2017-10-28T14:07:26Z</time>
      </trkpt>
      <trkpt lat="62.627509604744" lon="17.942666039075">
        <ele>55.6</ele>
        <time>2017-10-28T14:07:27Z</time>
      </trkpt>
      <trkpt lat="62.627528464019" lon="17.942568138483">
        <ele>55.6</ele>
        <time>2017-10-28T14:07:28Z</time>
      </trkpt>
      <trkpt lat="62.627544389629" lon="17.942467136588">
        <ele>55.6</ele>
        <time>2017-10-28T14:07:29Z</time>
      </trkpt>
      <trkpt lat="62.627563835637" lon="17.942354232395">
        <ele>55.6</ele>
        <time>2017-10-28T14:07:30Z</time>
      </trkpt>
      <trkpt lat="62.62758370074" lon="17.942252979043">
        <ele>55.6</ele>
        <time>2017-10-28T14:07:31Z</time>
      </trkpt>
      <trkpt lat="62.627607756793" lon="17.942155665184">
        <ele>55.6</ele>
        <time>2017-10-28T14:07:32Z</time>
      </trkpt>
      <trkpt lat="62.627629633552" lon="17.94205290309">
        <ele>55.8</ele>
        <time>2017-10-28T14:07:33Z</time>
      </trkpt>
      <trkpt lat="62.627645391524" lon="17.941956343602">
        <ele>55.6</ele>
        <time>2017-10-28T14:07:34Z</time>
      </trkpt>
      <trkpt lat="62.627661903867" lon="17.941834554595">
        <ele>55.8</ele>
        <time>2017-10-28T14:07:35Z</time>
      </trkpt>
      <trkpt lat="62.627672465061" lon="17.941718297642">
        <ele>55.8</ele>
        <time>2017-10-28T14:07:36Z</time>
      </trkpt>
      <trkpt lat="62.627680846961" lon="17.94161201515">
        <ele>55.8</ele>
        <time>2017-10-28T14:07:37Z</time>
      </trkpt>
      <trkpt lat="62.627686211377" lon="17.94148712484">
        <ele>55.6</ele>
        <time>2017-10-28T14:07:38Z</time>
      </trkpt>
      <trkpt lat="62.627698113675" lon="17.941381931995">
        <ele>55.6</ele>
        <time>2017-10-28T14:07:39Z</time>
      </trkpt>
      <trkpt lat="62.627716805312" lon="17.941271626191">
        <ele>55.6</ele>
        <time>2017-10-28T14:07:40Z</time>
      </trkpt>
      <trkpt lat="62.627739855537" lon="17.94116274531">
        <ele>55.6</ele>
        <time>2017-10-28T14:07:41Z</time>
      </trkpt>
      <trkpt lat="62.627758714812" lon="17.941055289352">
        <ele>55.8</ele>
        <time>2017-10-28T14:07:42Z</time>
      </trkpt>
      <trkpt lat="62.627776735897" lon="17.940947079023">
        <ele>56</ele>
        <time>2017-10-28T14:07:43Z</time>
      </trkpt>
      <trkpt lat="62.627795259896" lon="17.940849765164">
        <ele>56</ele>
        <time>2017-10-28T14:07:44Z</time>
      </trkpt>
      <trkpt lat="62.6278133648" lon="17.940729317261">
        <ele>56</ele>
        <time>2017-10-28T14:07:45Z</time>
      </trkpt>
      <trkpt lat="62.62782845222" lon="17.94062211276">
        <ele>56</ele>
        <time>2017-10-28T14:07:46Z</time>
      </trkpt>
      <trkpt lat="62.627845048382" lon="17.940509962938">
        <ele>56</ele>
        <time>2017-10-28T14:07:47Z</time>
      </trkpt>
      <trkpt lat="62.627865751675" lon="17.940405105369">
        <ele>55.6</ele>
        <time>2017-10-28T14:07:48Z</time>
      </trkpt>
      <trkpt lat="62.627882180199" lon="17.940307120958">
        <ele>55.6</ele>
        <time>2017-10-28T14:07:49Z</time>
      </trkpt>
      <trkpt lat="62.62790053656" lon="17.940194300584">
        <ele>55.6</ele>
        <time>2017-10-28T14:07:50Z</time>
      </trkpt>
      <trkpt lat="62.627919563473" lon="17.940091119395">
        <ele>55.6</ele>
        <time>2017-10-28T14:07:51Z</time>
      </trkpt>
      <trkpt lat="62.62793574054" lon="17.940003779997">
        <ele>55.6</ele>
        <time>2017-10-28T14:07:52Z</time>
      </trkpt>
      <trkpt lat="62.627957282023" lon="17.939896324039">
        <ele>55.6</ele>
        <time>2017-10-28T14:07:53Z</time>
      </trkpt>
      <trkpt lat="62.627976644212" lon="17.93980236294">
        <ele>55.8</ele>
        <time>2017-10-28T14:07:54Z</time>
      </trkpt>
      <trkpt lat="62.62799525203" lon="17.939695745172">
        <ele>55.8</ele>
        <time>2017-10-28T14:07:55Z</time>
      </trkpt>
      <trkpt lat="62.628009082165" lon="17.939594994734">
        <ele>55.8</ele>
        <time>2017-10-28T14:07:56Z</time>
      </trkpt>
      <trkpt lat="62.628026181241" lon="17.939490053346">
        <ele>55.8</ele>
        <time>2017-10-28T14:07:57Z</time>
      </trkpt>
      <trkpt lat="62.628040346652" lon="17.939394415867">
        <ele>56</ele>
        <time>2017-10-28T14:07:58Z</time>
      </trkpt>
      <trkpt lat="62.628054344425" lon="17.93930363989">
        <ele>56</ele>
        <time>2017-10-28T14:07:59Z</time>
      </trkpt>
      <trkpt lat="62.62807236551" lon="17.939218731243">
        <ele>55.8</ele>
        <time>2017-10-28T14:08:00Z</time>
      </trkpt>
      <trkpt lat="62.628089716043" lon="17.939142288315">
        <ele>56</ele>
        <time>2017-10-28T14:08:01Z</time>
      </trkpt>
      <trkpt lat="62.628108994413" lon="17.939078418237">
        <ele>56</ele>
        <time>2017-10-28T14:08:02Z</time>
      </trkpt>
      <trkpt lat="62.628132044638" lon="17.939016475996">
        <ele>56.2</ele>
        <time>2017-10-28T14:08:03Z</time>
      </trkpt>
      <trkpt lat="62.628161968021" lon="17.93897842217">
        <ele>56.2</ele>
        <time>2017-10-28T14:08:04Z</time>
      </trkpt>
      <trkpt lat="62.628203374607" lon="17.938948834063">
        <ele>56</ele>
        <time>2017-10-28T14:08:05Z</time>
      </trkpt>
      <trkpt lat="62.628244026822" lon="17.938950258986">
        <ele>56.2</ele>
        <time>2017-10-28T14:08:06Z</time>
      </trkpt>
      <trkpt lat="62.628280823363" lon="17.938965178768">
        <ele>56</ele>
        <time>2017-10-28T14:08:07Z</time>
      </trkpt>
      <trkpt lat="62.628321140302" lon="17.938976997247">
        <ele>56.2</ele>
        <time>2017-10-28T14:08:08Z</time>
      </trkpt>
      <trkpt lat="62.628359613223" lon="17.938993593409">
        <ele>56.2</ele>
        <time>2017-10-28T14:08:09Z</time>
      </trkpt>
      <trkpt lat="62.62840261237" lon="17.939007842639">
        <ele>56.4</ele>
        <time>2017-10-28T14:08:10Z</time>
      </trkpt>
      <trkpt lat="62.628448629001" lon="17.939029132665">
        <ele>56.6</ele>
        <time>2017-10-28T14:08:11Z</time>
      </trkpt>
      <trkpt lat="62.62849732784" lon="17.939048662492">
        <ele>56.8</ele>
        <time>2017-10-28T14:08:12Z</time>
      </trkpt>
      <trkpt lat="62.6285425901" lon="17.939064588102">
        <ele>56.8</ele>
        <time>2017-10-28T14:08:13Z</time>
      </trkpt>
      <trkpt lat="62.628581063021" lon="17.939076993314">
        <ele>56.8</ele>
        <time>2017-10-28T14:08:14Z</time>
      </trkpt>
      <trkpt lat="62.628633449896" lon="17.9391016361">
        <ele>57</ele>
        <time>2017-10-28T14:08:15Z</time>
      </trkpt>
      <trkpt lat="62.628678879794" lon="17.939121082108">
        <ele>57</ele>
        <time>2017-10-28T14:08:16Z</time>
      </trkpt>
      <trkpt lat="62.628725902253" lon="17.939144216152">
        <ele>57</ele>
        <time>2017-10-28T14:08:17Z</time>
      </trkpt>
      <trkpt lat="62.628770242504" lon="17.939160225581">
        <ele>56.8</ele>
        <time>2017-10-28T14:08:18Z</time>
      </trkpt>
      <trkpt lat="62.628810056529" lon="17.939178079028">
        <ele>56.8</ele>
        <time>2017-10-28T14:08:19Z</time>
      </trkpt>
      <trkpt lat="62.628856995169" lon="17.939205739298">
        <ele>56.8</ele>
        <time>2017-10-28T14:08:20Z</time>
      </trkpt>
      <trkpt lat="62.628896473918" lon="17.939231387912">
        <ele>56.8</ele>
        <time>2017-10-28T14:08:21Z</time>
      </trkpt>
      <trkpt lat="62.628925475292" lon="17.939271118118">
        <ele>56.6</ele>
        <time>2017-10-28T14:08:22Z</time>
      </trkpt>
      <trkpt lat="62.628947100594" lon="17.939320152233">
        <ele>56.6</ele>
        <time>2017-10-28T14:08:23Z</time>
      </trkpt>
      <trkpt lat="62.628969731724" lon="17.939345046476">
        <ele>56.4</ele>
        <time>2017-10-28T14:08:24Z</time>
      </trkpt>
      <trkpt lat="62.62899605089" lon="17.939347812503">
        <ele>56.4</ele>
        <time>2017-10-28T14:08:25Z</time>
      </trkpt>
      <trkpt lat="62.62901952021" lon="17.939317218568">
        <ele>56.6</ele>
        <time>2017-10-28T14:08:26Z</time>
      </trkpt>
      <trkpt lat="62.629036703105" lon="17.939271453394">
        <ele>56.8</ele>
        <time>2017-10-28T14:08:27Z</time>
      </trkpt>
      <trkpt lat="62.629039972046" lon="17.939214540293">
        <ele>57</ele>
        <time>2017-10-28T14:08:28Z</time>
      </trkpt>
      <trkpt lat="62.629038295666" lon="17.939161566685">
        <ele>57.2</ele>
        <time>2017-10-28T14:08:29Z</time>
      </trkpt>
      <trkpt lat="62.629039469132" lon="17.939091494001">
        <ele>57.8</ele>
        <time>2017-10-28T14:08:30Z</time>
      </trkpt>
      <trkpt lat="62.62903963677" lon="17.939028126837">
        <ele>58.2</ele>
        <time>2017-10-28T14:08:31Z</time>
      </trkpt>
      <trkpt lat="62.629038882399" lon="17.938958473248">
        <ele>58.6</ele>
        <time>2017-10-28T14:08:32Z</time>
      </trkpt>
      <trkpt lat="62.62904047496" lon="17.938898039749">
        <ele>59</ele>
        <time>2017-10-28T14:08:33Z</time>
      </trkpt>
      <trkpt lat="62.629039133856" lon="17.938844144132">
        <ele>59</ele>
        <time>2017-10-28T14:08:34Z</time>
      </trkpt>
      <trkpt lat="62.62903879858" lon="17.938774574362">
        <ele>59.2</ele>
        <time>2017-10-28T14:08:35Z</time>
      </trkpt>
      <trkpt lat="62.629034942906" lon="17.938711542474">
        <ele>59</ele>
        <time>2017-10-28T14:08:36Z</time>
      </trkpt>
      <trkpt lat="62.629035613458" lon="17.938640463962">
        <ele>59</ele>
        <time>2017-10-28T14:08:37Z</time>
      </trkpt>
      <trkpt lat="62.62904131315" lon="17.9385651945">
        <ele>59</ele>
        <time>2017-10-28T14:08:38Z</time>
      </trkpt>
      <trkpt lat="62.629052293439" lon="17.938490679409">
        <ele>59</ele>
        <time>2017-10-28T14:08:39Z</time>
      </trkpt>
      <trkpt lat="62.629066123574" lon="17.938401412174">
        <ele>59</ele>
        <time>2017-10-28T14:08:40Z</time>
      </trkpt>
      <trkpt lat="62.629082803555" lon="17.938315246242">
        <ele>59</ele>
        <time>2017-10-28T14:08:41Z</time>
      </trkpt>
      <trkpt lat="62.62910753016" lon="17.938243078083">
        <ele>59</ele>
        <time>2017-10-28T14:08:42Z</time>
      </trkpt>
      <trkpt lat="62.629140722484" lon="17.938187841362">
        <ele>58.8</ele>
        <time>2017-10-28T14:08:43Z</time>
      </trkpt>
      <trkpt lat="62.6291712326" lon="17.938153559391">
        <ele>58.6</ele>
        <time>2017-10-28T14:08:44Z</time>
      </trkpt>
      <trkpt lat="62.629212136272" lon="17.938111482253">
        <ele>58.4</ele>
        <time>2017-10-28T14:08:45Z</time>
      </trkpt>
      <trkpt lat="62.629248094623" lon="17.938091365693">
        <ele>58</ele>
        <time>2017-10-28T14:08:46Z</time>
      </trkpt>
      <trkpt lat="62.629286316087" lon="17.93807485335">
        <ele>57.8</ele>
        <time>2017-10-28T14:08:47Z</time>
      </trkpt>
      <trkpt lat="62.62932378318" lon="17.93804300213">
        <ele>57.2</ele>
        <time>2017-10-28T14:08:48Z</time>
      </trkpt>
      <trkpt lat="62.62935898716" lon="17.93800109263">
        <ele>56.8</ele>
        <time>2017-10-28T14:08:49Z</time>
      </trkpt>
      <trkpt lat="62.629397962995" lon="17.937950549773">
        <ele>56.6</ele>
        <time>2017-10-28T14:08:50Z</time>
      </trkpt>
      <trkpt lat="62.629439034305" lon="17.937918614734">
        <ele>56.6</ele>
        <time>2017-10-28T14:08:51Z</time>
      </trkpt>
      <trkpt lat="62.629476249941" lon="17.937889948636">
        <ele>56.8</ele>
        <time>2017-10-28T14:08:52Z</time>
      </trkpt>
      <trkpt lat="62.629518410898" lon="17.93787536413">
        <ele>57</ele>
        <time>2017-10-28T14:08:53Z</time>
      </trkpt>
      <trkpt lat="62.62955512362" lon="17.937863378013">
        <ele>57.2</ele>
        <time>2017-10-28T14:08:54Z</time>
      </trkpt>
      <trkpt lat="62.62958446027" lon="17.937844015824">
        <ele>57.2</ele>
        <time>2017-10-28T14:08:55Z</time>
      </trkpt>
      <trkpt lat="62.629628632883" lon="17.937804285618">
        <ele>57.2</ele>
        <time>2017-10-28T14:08:56Z</time>
      </trkpt>
      <trkpt lat="62.629670877659" lon="17.937767153801">
        <ele>57</ele>
        <time>2017-10-28T14:08:57Z</time>
      </trkpt>
      <trkpt lat="62.629709685856" lon="17.937741505187">
        <ele>57</ele>
        <time>2017-10-28T14:08:58Z</time>
      </trkpt>
      <trkpt lat="62.629744806017" lon="17.93771778441">
        <ele>56.8</ele>
        <time>2017-10-28T14:08:59Z</time>
      </trkpt>
      <trkpt lat="62.629787553707" lon="17.937691046149">
        <ele>56.8</ele>
        <time>2017-10-28T14:09:00Z</time>
      </trkpt>
      <trkpt lat="62.629822673868" lon="17.937667073915">
        <ele>56.8</ele>
        <time>2017-10-28T14:09:01Z</time>
      </trkpt>
      <trkpt lat="62.62985687202" lon="17.937640922387">
        <ele>57</ele>
        <time>2017-10-28T14:09:02Z</time>
      </trkpt>
      <trkpt lat="62.629889896706" lon="17.937619213266">
        <ele>57</ele>
        <time>2017-10-28T14:09:03Z</time>
      </trkpt>
      <trkpt lat="62.629916467329" lon="17.937600773086">
        <ele>57.2</ele>
        <time>2017-10-28T14:09:04Z</time>
      </trkpt>
      <trkpt lat="62.629942702676" lon="17.93757026297">
        <ele>57.4</ele>
        <time>2017-10-28T14:09:05Z</time>
      </trkpt>
      <trkpt lat="62.629964914711" lon="17.937553918265">
        <ele>57.6</ele>
        <time>2017-10-28T14:09:06Z</time>
      </trkpt>
      <trkpt lat="62.62998260052" lon="17.93753841175">
        <ele>57.8</ele>
        <time>2017-10-28T14:09:07Z</time>
      </trkpt>
      <trkpt lat="62.629996598293" lon="17.937523994882">
        <ele>58</ele>
        <time>2017-10-28T14:09:08Z</time>
      </trkpt>
      <trkpt lat="62.630007075668" lon="17.937507482539">
        <ele>58</ele>
        <time>2017-10-28T14:09:09Z</time>
      </trkpt>
      <trkpt lat="62.630017385405" lon="17.937500106467">
        <ele>58.4</ele>
        <time>2017-10-28T14:09:10Z</time>
      </trkpt>
      <trkpt lat="62.630017720681" lon="17.937480325183">
        <ele>58.4</ele>
        <time>2017-10-28T14:09:11Z</time>
      </trkpt>
      <trkpt lat="62.630013529731" lon="17.937454173655">
        <ele>58.6</ele>
        <time>2017-10-28T14:09:12Z</time>
      </trkpt>
      <trkpt lat="62.630013948826" lon="17.937421484245">
        <ele>58.8</ele>
        <time>2017-10-28T14:09:13Z</time>
      </trkpt>
      <trkpt lat="62.630017720681" lon="17.937390135939">
        <ele>58.8</ele>
        <time>2017-10-28T14:09:14Z</time>
      </trkpt>
      <trkpt lat="62.630022330726" lon="17.937338503435">
        <ele>58.8</ele>
        <time>2017-10-28T14:09:15Z</time>
      </trkpt>
      <trkpt lat="62.630041357639" lon="17.937293073537">
        <ele>59</ele>
        <time>2017-10-28T14:09:16Z</time>
      </trkpt>
      <trkpt lat="62.630070023737" lon="17.937259378299">
        <ele>59.2</ele>
        <time>2017-10-28T14:09:17Z</time>
      </trkpt>
      <trkpt lat="62.63008737427" lon="17.937200369723">
        <ele>59</ele>
        <time>2017-10-28T14:09:18Z</time>
      </trkpt>
      <trkpt lat="62.63010329988" lon="17.937135158541">
        <ele>58.8</ele>
        <time>2017-10-28T14:09:19Z</time>
      </trkpt>
      <trkpt lat="62.630111095047" lon="17.937060978726">
        <ele>58.6</ele>
        <time>2017-10-28T14:09:20Z</time>
      </trkpt>
      <trkpt lat="62.630098186921" lon="17.93698436816">
        <ele>58.6</ele>
        <time>2017-10-28T14:09:21Z</time>
      </trkpt>
      <trkpt lat="62.630082009854" lon="17.936912116182">
        <ele>58.6</ele>
        <time>2017-10-28T14:09:22Z</time>
      </trkpt>
      <trkpt lat="62.630070359013" lon="17.936840953851">
        <ele>58.6</ele>
        <time>2017-10-28T14:09:23Z</time>
      </trkpt>
      <trkpt lat="62.630049823358" lon="17.936729977495">
        <ele>58.4</ele>
        <time>2017-10-28T14:09:24Z</time>
      </trkpt>
      <trkpt lat="62.630031466997" lon="17.936633250369">
        <ele>58.4</ele>
        <time>2017-10-28T14:09:25Z</time>
      </trkpt>
      <trkpt lat="62.630016295758" lon="17.936537948166">
        <ele>58.4</ele>
        <time>2017-10-28T14:09:26Z</time>
      </trkpt>
      <trkpt lat="62.630001711252" lon="17.936441807773">
        <ele>58.4</ele>
        <time>2017-10-28T14:09:27Z</time>
      </trkpt>
      <trkpt lat="62.629986875289" lon="17.936358324049">
        <ele>58.4</ele>
        <time>2017-10-28T14:09:28Z</time>
      </trkpt>
      <trkpt lat="62.629976397914" lon="17.936272661031">
        <ele>58.4</ele>
        <time>2017-10-28T14:09:29Z</time>
      </trkpt>
      <trkpt lat="62.629960556123" lon="17.936183226158">
        <ele>58.4</ele>
        <time>2017-10-28T14:09:30Z</time>
      </trkpt>
      <trkpt lat="62.629945636341" lon="17.936107956696">
        <ele>58.4</ele>
        <time>2017-10-28T14:09:31Z</time>
      </trkpt>
      <trkpt lat="62.629930716559" lon="17.936035369442">
        <ele>58.2</ele>
        <time>2017-10-28T14:09:32Z</time>
      </trkpt>
      <trkpt lat="62.629917305519" lon="17.935963033645">
        <ele>58.4</ele>
        <time>2017-10-28T14:09:33Z</time>
      </trkpt>
      <trkpt lat="62.629907247239" lon="17.935896900454">
        <ele>58.4</ele>
        <time>2017-10-28T14:09:34Z</time>
      </trkpt>
      <trkpt lat="62.62989626695" lon="17.935822301544">
        <ele>58.4</ele>
        <time>2017-10-28T14:09:35Z</time>
      </trkpt>
      <trkpt lat="62.629880257521" lon="17.935755078706">
        <ele>58.4</ele>
        <time>2017-10-28T14:09:36Z</time>
      </trkpt>
      <trkpt lat="62.629867097938" lon="17.93567427719">
        <ele>58.4</ele>
        <time>2017-10-28T14:09:37Z</time>
      </trkpt>
      <trkpt lat="62.629853100165" lon="17.935603114859">
        <ele>58.4</ele>
        <time>2017-10-28T14:09:38Z</time>
      </trkpt>
      <trkpt lat="62.629835665813" lon="17.935536981668">
        <ele>58.4</ele>
        <time>2017-10-28T14:09:39Z</time>
      </trkpt>
      <trkpt lat="62.629814040511" lon="17.935466573708">
        <ele>58.4</ele>
        <time>2017-10-28T14:09:40Z</time>
      </trkpt>
      <trkpt lat="62.629794510684" lon="17.935399769965">
        <ele>58.4</ele>
        <time>2017-10-28T14:09:41Z</time>
      </trkpt>
      <trkpt lat="62.629776992513" lon="17.935325841607">
        <ele>58.6</ele>
        <time>2017-10-28T14:09:42Z</time>
      </trkpt>
      <trkpt lat="62.629763581473" lon="17.9352459621">
        <ele>58.6</ele>
        <time>2017-10-28T14:09:43Z</time>
      </trkpt>
      <trkpt lat="62.629754193745" lon="17.935169267715">
        <ele>58.6</ele>
        <time>2017-10-28T14:09:44Z</time>
      </trkpt>
      <trkpt lat="62.62974371637" lon="17.935068182001">
        <ele>58.8</ele>
        <time>2017-10-28T14:09:45Z</time>
      </trkpt>
      <trkpt lat="62.629735250651" lon="17.934982099888">
        <ele>59</ele>
        <time>2017-10-28T14:09:46Z</time>
      </trkpt>
      <trkpt lat="62.629729131864" lon="17.934882942011">
        <ele>59.2</ele>
        <time>2017-10-28T14:09:47Z</time>
      </trkpt>
      <trkpt lat="62.629722510163" lon="17.934779760822">
        <ele>59.2</ele>
        <time>2017-10-28T14:09:48Z</time>
      </trkpt>
      <trkpt lat="62.629717145747" lon="17.934697199107">
        <ele>59.4</ele>
        <time>2017-10-28T14:09:49Z</time>
      </trkpt>
      <trkpt lat="62.629705411087" lon="17.934611368451">
        <ele>59.2</ele>
        <time>2017-10-28T14:09:50Z</time>
      </trkpt>
      <trkpt lat="62.629693005875" lon="17.934549677667">
        <ele>59.4</ele>
        <time>2017-10-28T14:09:51Z</time>
      </trkpt>
      <trkpt lat="62.629680516844" lon="17.934490166177">
        <ele>59.2</ele>
        <time>2017-10-28T14:09:52Z</time>
      </trkpt>
      <trkpt lat="62.62966911746" lon="17.934424452081">
        <ele>59</ele>
        <time>2017-10-28T14:09:53Z</time>
      </trkpt>
      <trkpt lat="62.629657718076" lon="17.93436753898">
        <ele>59</ele>
        <time>2017-10-28T14:09:54Z</time>
      </trkpt>
      <trkpt lat="62.629642714475" lon="17.93430802749">
        <ele>59</ele>
        <time>2017-10-28T14:09:55Z</time>
      </trkpt>
      <trkpt lat="62.629630728358" lon="17.934247174896">
        <ele>59</ele>
        <time>2017-10-28T14:09:56Z</time>
      </trkpt>
      <trkpt lat="62.629619831888" lon="17.934180287334">
        <ele>59.2</ele>
        <time>2017-10-28T14:09:57Z</time>
      </trkpt>
      <trkpt lat="62.629608432504" lon="17.934109125003">
        <ele>59</ele>
        <time>2017-10-28T14:09:58Z</time>
      </trkpt>
      <trkpt lat="62.629598038948" lon="17.934030754238">
        <ele>59</ele>
        <time>2017-10-28T14:09:59Z</time>
      </trkpt>
      <trkpt lat="62.629585633736" lon="17.933945761772">
        <ele>58.8</ele>
        <time>2017-10-28T14:10:00Z</time>
      </trkpt>
      <trkpt lat="62.629577251836" lon="17.933865211713">
        <ele>58.6</ele>
        <time>2017-10-28T14:10:01Z</time>
      </trkpt>
      <trkpt lat="62.629567193556" lon="17.933793462649">
        <ele>58.6</ele>
        <time>2017-10-28T14:10:02Z</time>
      </trkpt>
      <trkpt lat="62.629558895475" lon="17.933723138508">
        <ele>58.6</ele>
        <time>2017-10-28T14:10:03Z</time>
      </trkpt>
      <trkpt lat="62.629566523004" lon="17.93366681214">
        <ele>58.6</ele>
        <time>2017-10-28T14:10:04Z</time>
      </trkpt>
      <trkpt lat="62.629593093627" lon="17.933612497428">
        <ele>58.6</ele>
        <time>2017-10-28T14:10:05Z</time>
      </trkpt>
      <trkpt lat="62.62962469339" lon="17.933576119982">
        <ele>58.8</ele>
        <time>2017-10-28T14:10:06Z</time>
      </trkpt>
      <trkpt lat="62.629665177967" lon="17.933540916002">
        <ele>58.8</ele>
        <time>2017-10-28T14:10:07Z</time>
      </trkpt>
      <trkpt lat="62.629705746363" lon="17.933497916855">
        <ele>59</ele>
        <time>2017-10-28T14:10:08Z</time>
      </trkpt>
      <trkpt lat="62.629750840985" lon="17.933460198305">
        <ele>59.2</ele>
        <time>2017-10-28T14:10:09Z</time>
      </trkpt>
      <trkpt lat="62.629800461833" lon="17.933429688189">
        <ele>59.4</ele>
        <time>2017-10-28T14:10:10Z</time>
      </trkpt>
      <trkpt lat="62.629850417957" lon="17.933408398163">
        <ele>59.6</ele>
        <time>2017-10-28T14:10:11Z</time>
      </trkpt>
      <trkpt lat="62.629900122624" lon="17.933389035974">
        <ele>59.4</ele>
        <time>2017-10-28T14:10:12Z</time>
      </trkpt>
      <trkpt lat="62.629948402368" lon="17.933357100935">
        <ele>59</ele>
        <time>2017-10-28T14:10:13Z</time>
      </trkpt>
      <trkpt lat="62.62999601156" lon="17.93332231605">
        <ele>58.8</ele>
        <time>2017-10-28T14:10:14Z</time>
      </trkpt>
      <trkpt lat="62.630048314616" lon="17.933272946659">
        <ele>58.4</ele>
        <time>2017-10-28T14:10:15Z</time>
      </trkpt>
      <trkpt lat="62.630092654867" lon="17.933215363006">
        <ele>58.2</ele>
        <time>2017-10-28T14:10:16Z</time>
      </trkpt>
      <trkpt lat="62.63013682748" lon="17.93314545796">
        <ele>58</ele>
        <time>2017-10-28T14:10:17Z</time>
      </trkpt>
      <trkpt lat="62.630182676473" lon="17.933060465494">
        <ele>58</ele>
        <time>2017-10-28T14:10:18Z</time>
      </trkpt>
      <trkpt lat="62.630222909593" lon="17.932974131924">
        <ele>58.2</ele>
        <time>2017-10-28T14:10:19Z</time>
      </trkpt>
      <trkpt lat="62.63026842331" lon="17.9328738844">
        <ele>58.2</ele>
        <time>2017-10-28T14:10:20Z</time>
      </trkpt>
      <trkpt lat="62.630311087181" lon="17.93278755083">
        <ele>58</ele>
        <time>2017-10-28T14:10:21Z</time>
      </trkpt>
      <trkpt lat="62.630357019993" lon="17.932697361586">
        <ele>57.8</ele>
        <time>2017-10-28T14:10:22Z</time>
      </trkpt>
      <trkpt lat="62.630408652497" lon="17.932605328324">
        <ele>57.8</ele>
        <time>2017-10-28T14:10:23Z</time>
      </trkpt>
      <trkpt lat="62.630456429327" lon="17.932526454645">
        <ele>57.6</ele>
        <time>2017-10-28T14:10:24Z</time>
      </trkpt>
      <trkpt lat="62.63051066022" lon="17.932440707808">
        <ele>57.2</ele>
        <time>2017-10-28T14:10:25Z</time>
      </trkpt>
      <trkpt lat="62.630560532525" lon="17.93236091212">
        <ele>56.8</ele>
        <time>2017-10-28T14:10:26Z</time>
      </trkpt>
      <trkpt lat="62.630608309355" lon="17.932281032613">
        <ele>56.4</ele>
        <time>2017-10-28T14:10:27Z</time>
      </trkpt>
      <trkpt lat="62.630650470312" lon="17.93220836154">
        <ele>56</ele>
        <time>2017-10-28T14:10:28Z</time>
      </trkpt>
      <trkpt lat="62.630692128355" lon="17.93212705711">
        <ele>55.8</ele>
        <time>2017-10-28T14:10:29Z</time>
      </trkpt>
      <trkpt lat="62.630733283484" lon="17.932053547847">
        <ele>55.6</ele>
        <time>2017-10-28T14:10:30Z</time>
      </trkpt>
      <trkpt lat="62.6307721755" lon="17.931994120176">
        <ele>55.4</ele>
        <time>2017-10-28T14:10:31Z</time>
      </trkpt>
      <trkpt lat="62.630809977869" lon="17.931933267582">
        <ele>55.2</ele>
        <time>2017-10-28T14:10:32Z</time>
      </trkpt>
      <trkpt lat="62.630846271496" lon="17.931868307857">
        <ele>55.2</ele>
        <time>2017-10-28T14:10:33Z</time>
      </trkpt>
      <trkpt lat="62.63087862563" lon="17.931809131643">
        <ele>55.4</ele>
        <time>2017-10-28T14:10:34Z</time>
      </trkpt>
      <trkpt lat="62.630923636433" lon="17.931738053131">
        <ele>55.8</ele>
        <time>2017-10-28T14:10:35Z</time>
      </trkpt>
      <trkpt lat="62.630965294476" lon="17.931673931596">
        <ele>56.2</ele>
        <time>2017-10-28T14:10:36Z</time>
      </trkpt>
      <trkpt lat="62.63100938327" lon="17.931592375709">
        <ele>56.4</ele>
        <time>2017-10-28T14:10:37Z</time>
      </trkpt>
      <trkpt lat="62.631052717693" lon="17.931516770971">
        <ele>56.6</ele>
        <time>2017-10-28T14:10:38Z</time>
      </trkpt>
      <trkpt lat="62.631091693528" lon="17.931444602812">
        <ele>56.8</ele>
        <time>2017-10-28T14:10:39Z</time>
      </trkpt>
      <trkpt lat="62.631131088458" lon="17.931362124916">
        <ele>56.8</ele>
        <time>2017-10-28T14:10:40Z</time>
      </trkpt>
      <trkpt lat="62.631166460076" lon="17.931268918188">
        <ele>56.8</ele>
        <time>2017-10-28T14:10:41Z</time>
      </trkpt>
      <trkpt lat="62.631200322952" lon="17.931176801107">
        <ele>56.8</ele>
        <time>2017-10-28T14:10:42Z</time>
      </trkpt>
      <trkpt lat="62.63123318" lon="17.931094071754">
        <ele>57</ele>
        <time>2017-10-28T14:10:43Z</time>
      </trkpt>
      <trkpt lat="62.631263773935" lon="17.931019556663">
        <ele>56.8</ele>
        <time>2017-10-28T14:10:44Z</time>
      </trkpt>
      <trkpt lat="62.631298307363" lon="17.930938587509">
        <ele>56.8</ele>
        <time>2017-10-28T14:10:45Z</time>
      </trkpt>
      <trkpt lat="62.631326805823" lon="17.930869101558">
        <ele>56.8</ele>
        <time>2017-10-28T14:10:46Z</time>
      </trkpt>
      <trkpt lat="62.631353208808" lon="17.930793161544">
        <ele>56.8</ele>
        <time>2017-10-28T14:10:47Z</time>
      </trkpt>
      <trkpt lat="62.63138070144" lon="17.93072895619">
        <ele>56.8</ele>
        <time>2017-10-28T14:10:48Z</time>
      </trkpt>
      <trkpt lat="62.631406517692" lon="17.93067195927">
        <ele>57</ele>
        <time>2017-10-28T14:10:49Z</time>
      </trkpt>
      <trkpt lat="62.63143518379" lon="17.930613621246">
        <ele>57.4</ele>
        <time>2017-10-28T14:10:50Z</time>
      </trkpt>
      <trkpt lat="62.631462676422" lon="17.93056550914">
        <ele>57.6</ele>
        <time>2017-10-28T14:10:51Z</time>
      </trkpt>
      <trkpt lat="62.631490336692" lon="17.930520079242">
        <ele>57.8</ele>
        <time>2017-10-28T14:10:52Z</time>
      </trkpt>
      <trkpt lat="62.631520846808" lon="17.930476325724">
        <ele>58</ele>
        <time>2017-10-28T14:10:53Z</time>
      </trkpt>
      <trkpt lat="62.631547165974" lon="17.930435757328">
        <ele>58</ele>
        <time>2017-10-28T14:10:54Z</time>
      </trkpt>
      <trkpt lat="62.631575664434" lon="17.930389573059">
        <ele>58.2</ele>
        <time>2017-10-28T14:10:55Z</time>
      </trkpt>
      <trkpt lat="62.63159946903" lon="17.930348837025">
        <ele>58</ele>
        <time>2017-10-28T14:10:56Z</time>
      </trkpt>
      <trkpt lat="62.631624698549" lon="17.930314638873">
        <ele>58</ele>
        <time>2017-10-28T14:10:57Z</time>
      </trkpt>
      <trkpt lat="62.631646742946" lon="17.930282871472">
        <ele>58.2</ele>
        <time>2017-10-28T14:10:58Z</time>
      </trkpt>
      <trkpt lat="62.631667949153" lon="17.930244314732">
        <ele>58.6</ele>
        <time>2017-10-28T14:10:59Z</time>
      </trkpt>
      <trkpt lat="62.631691586111" lon="17.930201986137">
        <ele>59.2</ele>
        <time>2017-10-28T14:11:00Z</time>
      </trkpt>
      <trkpt lat="62.631714468698" lon="17.93016233975">
        <ele>59.6</ele>
        <time>2017-10-28T14:11:01Z</time>
      </trkpt>
      <trkpt lat="62.631739614398" lon="17.930121855173">
        <ele>60</ele>
        <time>2017-10-28T14:11:02Z</time>
      </trkpt>
      <trkpt lat="62.631767274668" lon="17.930078269293">
        <ele>60.2</ele>
        <time>2017-10-28T14:11:03Z</time>
      </trkpt>
      <trkpt lat="62.63179644368" lon="17.930052201584">
        <ele>60.2</ele>
        <time>2017-10-28T14:11:04Z</time>
      </trkpt>
      <trkpt lat="62.631818739534" lon="17.93001984745">
        <ele>60.2</ele>
        <time>2017-10-28T14:11:05Z</time>
      </trkpt>
      <trkpt lat="62.6318534406" lon="17.929952540793">
        <ele>60.4</ele>
        <time>2017-10-28T14:11:06Z</time>
      </trkpt>
      <trkpt lat="62.631884285992" lon="17.929889760362">
        <ele>60.4</ele>
        <time>2017-10-28T14:11:07Z</time>
      </trkpt>
      <trkpt lat="62.631916053393" lon="17.929832763442">
        <ele>60.4</ele>
        <time>2017-10-28T14:11:08Z</time>
      </trkpt>
      <trkpt lat="62.631945054767" lon="17.929780208929">
        <ele>60.6</ele>
        <time>2017-10-28T14:11:09Z</time>
      </trkpt>
      <trkpt lat="62.631965925698" lon="17.929737293601">
        <ele>60.6</ele>
        <time>2017-10-28T14:11:10Z</time>
      </trkpt>
      <trkpt lat="62.63200515299" lon="17.929665963632">
        <ele>60.6</ele>
        <time>2017-10-28T14:11:11Z</time>
      </trkpt>
      <trkpt lat="62.632034824916" lon="17.929613409119">
        <ele>60.4</ele>
        <time>2017-10-28T14:11:12Z</time>
      </trkpt>
      <trkpt lat="62.632060808806" lon="17.929558340036">
        <ele>60.4</ele>
        <time>2017-10-28T14:11:13Z</time>
      </trkpt>
      <trkpt lat="62.632085954506" lon="17.929507545722">
        <ele>60.6</ele>
        <time>2017-10-28T14:11:14Z</time>
      </trkpt>
      <trkpt lat="62.632116464622" lon="17.929455577942">
        <ele>60.6</ele>
        <time>2017-10-28T14:11:15Z</time>
      </trkpt>
      <trkpt lat="62.63214513072" lon="17.929412494976">
        <ele>60.4</ele>
        <time>2017-10-28T14:11:16Z</time>
      </trkpt>
      <trkpt lat="62.632187794591" lon="17.92938198486">
        <ele>60.2</ele>
        <time>2017-10-28T14:11:17Z</time>
      </trkpt>
      <trkpt lat="62.632234314136" lon="17.929377290996">
        <ele>60</ele>
        <time>2017-10-28T14:11:18Z</time>
      </trkpt>
      <trkpt lat="62.632279744034" lon="17.929385924353">
        <ele>59.6</ele>
        <time>2017-10-28T14:11:19Z</time>
      </trkpt>
      <trkpt lat="62.632336657135" lon="17.929390282941">
        <ele>59.2</ele>
        <time>2017-10-28T14:11:20Z</time>
      </trkpt>
      <trkpt lat="62.632387870544" lon="17.929392210778">
        <ele>58.8</ele>
        <time>2017-10-28T14:11:21Z</time>
      </trkpt>
      <trkpt lat="62.632444448369" lon="17.929387433095">
        <ele>58.6</ele>
        <time>2017-10-28T14:11:22Z</time>
      </trkpt>
      <trkpt lat="62.632507061162" lon="17.929388271285">
        <ele>58.2</ele>
        <time>2017-10-28T14:11:23Z</time>
      </trkpt>
      <trkpt lat="62.632563303711" lon="17.929392713692">
        <ele>58</ele>
        <time>2017-10-28T14:11:24Z</time>
      </trkpt>
      <trkpt lat="62.632631783834" lon="17.929394222434">
        <ele>57.8</ele>
        <time>2017-10-28T14:11:25Z</time>
      </trkpt>
      <trkpt lat="62.632697749387" lon="17.929406124732">
        <ele>57.8</ele>
        <time>2017-10-28T14:11:26Z</time>
      </trkpt>
      <trkpt lat="62.632763044388" lon="17.92943479083">
        <ele>57.6</ele>
        <time>2017-10-28T14:11:27Z</time>
      </trkpt>
      <trkpt lat="62.632820125127" lon="17.929460104168">
        <ele>57.8</ele>
        <time>2017-10-28T14:11:28Z</time>
      </trkpt>
      <trkpt lat="62.632876702952" lon="17.929496649252">
        <ele>57.6</ele>
        <time>2017-10-28T14:11:29Z</time>
      </trkpt>
      <trkpt lat="62.63293219113" lon="17.929526740273">
        <ele>57.2</ele>
        <time>2017-10-28T14:11:30Z</time>
      </trkpt>
      <trkpt lat="62.632985583833" lon="17.929544509901">
        <ele>57</ele>
        <time>2017-10-28T14:11:31Z</time>
      </trkpt>
      <trkpt lat="62.633038389803" lon="17.929554316724">
        <ele>56.8</ele>
        <time>2017-10-28T14:11:32Z</time>
      </trkpt>
      <trkpt lat="62.633087423918" lon="17.929540067494">
        <ele>56.8</ele>
        <time>2017-10-28T14:11:33Z</time>
      </trkpt>
      <trkpt lat="62.63313084216" lon="17.929513915966">
        <ele>56.4</ele>
        <time>2017-10-28T14:11:34Z</time>
      </trkpt>
      <trkpt lat="62.633184318682" lon="17.9294875968">
        <ele>56.2</ele>
        <time>2017-10-28T14:11:35Z</time>
      </trkpt>
      <trkpt lat="62.633229413304" lon="17.929464630394">
        <ele>56.2</ele>
        <time>2017-10-28T14:11:36Z</time>
      </trkpt>
      <trkpt lat="62.633276268125" lon="17.92942808531">
        <ele>56.4</ele>
        <time>2017-10-28T14:11:37Z</time>
      </trkpt>
      <trkpt lat="62.6333202731" lon="17.929390534398">
        <ele>56.6</ele>
        <time>2017-10-28T14:11:38Z</time>
      </trkpt>
      <trkpt lat="62.633361260591" lon="17.929371256028">
        <ele>56.8</ele>
        <time>2017-10-28T14:11:39Z</time>
      </trkpt>
      <trkpt lat="62.633407361041" lon="17.929347702889">
        <ele>57.2</ele>
        <time>2017-10-28T14:11:40Z</time>
      </trkpt>
      <trkpt lat="62.633452371844" lon="17.929321970456">
        <ele>57.8</ele>
        <time>2017-10-28T14:11:41Z</time>
      </trkpt>
      <trkpt lat="62.633495538629" lon="17.929286934114">
        <ele>58.2</ele>
        <time>2017-10-28T14:11:42Z</time>
      </trkpt>
      <trkpt lat="62.633538453957" lon="17.929264051527">
        <ele>58.4</ele>
        <time>2017-10-28T14:11:43Z</time>
      </trkpt>
      <trkpt lat="62.633578770896" lon="17.929233960506">
        <ele>58.8</ele>
        <time>2017-10-28T14:11:44Z</time>
      </trkpt>
      <trkpt lat="62.633625709536" lon="17.92920596496">
        <ele>59</ele>
        <time>2017-10-28T14:11:45Z</time>
      </trkpt>
      <trkpt lat="62.63366644557" lon="17.929181070717">
        <ele>59.2</ele>
        <time>2017-10-28T14:11:46Z</time>
      </trkpt>
      <trkpt lat="62.633713216572" lon="17.929153075171">
        <ele>59</ele>
        <time>2017-10-28T14:11:47Z</time>
      </trkpt>
      <trkpt lat="62.633759903755" lon="17.929126588367">
        <ele>58.8</ele>
        <time>2017-10-28T14:11:48Z</time>
      </trkpt>
      <trkpt lat="62.633801561798" lon="17.929105298341">
        <ele>58.8</ele>
        <time>2017-10-28T14:11:49Z</time>
      </trkpt>
      <trkpt lat="62.633844560945" lon="17.929077051338">
        <ele>58.6</ele>
        <time>2017-10-28T14:11:50Z</time>
      </trkpt>
      <trkpt lat="62.633879513468" lon="17.929053833475">
        <ele>58.4</ele>
        <time>2017-10-28T14:11:51Z</time>
      </trkpt>
      <trkpt lat="62.633915639457" lon="17.929027681947">
        <ele>58.4</ele>
        <time>2017-10-28T14:11:52Z</time>
      </trkpt>
      <trkpt lat="62.633943299727" lon="17.929011085785">
        <ele>58.2</ele>
        <time>2017-10-28T14:11:53Z</time>
      </trkpt>
      <trkpt lat="62.633992417661" lon="17.928983928429">
        <ele>58.2</ele>
        <time>2017-10-28T14:11:54Z</time>
      </trkpt>
      <trkpt lat="62.634035668265" lon="17.928954591779">
        <ele>58.2</ele>
        <time>2017-10-28T14:11:55Z</time>
      </trkpt>
      <trkpt lat="62.634076823394" lon="17.928919639256">
        <ele>58.2</ele>
        <time>2017-10-28T14:11:56Z</time>
      </trkpt>
      <trkpt lat="62.634115966867" lon="17.928883429448">
        <ele>58.2</ele>
        <time>2017-10-28T14:11:57Z</time>
      </trkpt>
      <trkpt lat="62.634148823915" lon="17.92884554326">
        <ele>58</ele>
        <time>2017-10-28T14:11:58Z</time>
      </trkpt>
      <trkpt lat="62.634176735642" lon="17.92879776643">
        <ele>58.2</ele>
        <time>2017-10-28T14:11:59Z</time>
      </trkpt>
      <trkpt lat="62.634202132799" lon="17.92873574037">
        <ele>58</ele>
        <time>2017-10-28T14:12:00Z</time>
      </trkpt>
      <trkpt lat="62.634227529956" lon="17.928691148662">
        <ele>57.8</ele>
        <time>2017-10-28T14:12:01Z</time>
      </trkpt>
      <trkpt lat="62.634248736163" lon="17.928659297442">
        <ele>57.8</ele>
        <time>2017-10-28T14:12:02Z</time>
      </trkpt>
      <trkpt lat="62.634275055329" lon="17.928630547525">
        <ele>58</ele>
        <time>2017-10-28T14:12:03Z</time>
      </trkpt>
      <trkpt lat="62.634306403635" lon="17.928641779271">
        <ele>58</ele>
        <time>2017-10-28T14:12:04Z</time>
      </trkpt>
      <trkpt lat="62.634340517968" lon="17.928683269676">
        <ele>58</ele>
        <time>2017-10-28T14:12:05Z</time>
      </trkpt>
      <trkpt lat="62.634372285369" lon="17.928729202488">
        <ele>58</ele>
        <time>2017-10-28T14:12:06Z</time>
      </trkpt>
      <trkpt lat="62.634412602308" lon="17.928777901327">
        <ele>58</ele>
        <time>2017-10-28T14:12:07Z</time>
      </trkpt>
      <trkpt lat="62.634451242867" lon="17.928832886591">
        <ele>58</ele>
        <time>2017-10-28T14:12:08Z</time>
      </trkpt>
      <trkpt lat="62.634487368856" lon="17.92888158543">
        <ele>57.8</ele>
        <time>2017-10-28T14:12:09Z</time>
      </trkpt>
      <trkpt lat="62.634527769614" lon="17.928930284269">
        <ele>57.8</ele>
        <time>2017-10-28T14:12:10Z</time>
      </trkpt>
      <trkpt lat="62.634566745449" lon="17.928979066927">
        <ele>57.8</ele>
        <time>2017-10-28T14:12:11Z</time>
      </trkpt>
      <trkpt lat="62.634599015764" lon="17.929024664463">
        <ele>57.6</ele>
        <time>2017-10-28T14:12:12Z</time>
      </trkpt>
      <trkpt lat="62.634626927491" lon="17.929070932551">
        <ele>57.6</ele>
        <time>2017-10-28T14:12:13Z</time>
      </trkpt>
      <trkpt lat="62.634656180322" lon="17.929117284458">
        <ele>57.4</ele>
        <time>2017-10-28T14:12:14Z</time>
      </trkpt>
      <trkpt lat="62.634687612447" lon="17.92915315899">
        <ele>57.2</ele>
        <time>2017-10-28T14:12:15Z</time>
      </trkpt>
      <trkpt lat="62.634715188898" lon="17.929142094882">
        <ele>57</ele>
        <time>2017-10-28T14:12:16Z</time>
      </trkpt>
      <trkpt lat="62.634739412589" lon="17.929090043283">
        <ele>56.8</ele>
        <time>2017-10-28T14:12:17Z</time>
      </trkpt>
      <trkpt lat="62.634753410362" lon="17.929020641151">
        <ele>56.8</ele>
        <time>2017-10-28T14:12:18Z</time>
      </trkpt>
      <trkpt lat="62.634761373167" lon="17.928948389173">
        <ele>56.6</ele>
        <time>2017-10-28T14:12:19Z</time>
      </trkpt>
      <trkpt lat="62.634767911049" lon="17.928856272092">
        <ele>56.8</ele>
        <time>2017-10-28T14:12:20Z</time>
      </trkpt>
      <trkpt lat="62.634775706216" lon="17.928756443663">
        <ele>56.8</ele>
        <time>2017-10-28T14:12:21Z</time>
      </trkpt>
      <trkpt lat="62.634790039265" lon="17.92863599576">
        <ele>57</ele>
        <time>2017-10-28T14:12:22Z</time>
      </trkpt>
      <trkpt lat="62.634810742558" lon="17.928512027459">
        <ele>57</ele>
        <time>2017-10-28T14:12:23Z</time>
      </trkpt>
      <trkpt lat="62.634825159426" lon="17.92838286238">
        <ele>56.8</ele>
        <time>2017-10-28T14:12:24Z</time>
      </trkpt>
      <trkpt lat="62.634843599606" lon="17.928254284034">
        <ele>56.8</ele>
        <time>2017-10-28T14:12:25Z</time>
      </trkpt>
      <trkpt lat="62.634865308727" lon="17.928107181689">
        <ele>56.6</ele>
        <time>2017-10-28T14:12:26Z</time>
      </trkpt>
      <trkpt lat="62.634929094986" lon="17.92747677899">
        <ele>55.4</ele>
        <time>2017-10-28T14:12:30Z</time>
      </trkpt>
      <trkpt lat="62.634946110243" lon="17.927366221729">
        <ele>55</ele>
        <time>2017-10-28T14:12:31Z</time>
      </trkpt>
      <trkpt lat="62.634962957862" lon="17.92725130588">
        <ele>54.6</ele>
        <time>2017-10-28T14:12:32Z</time>
      </trkpt>
      <trkpt lat="62.634977626187" lon="17.927146951225">
        <ele>54.6</ele>
        <time>2017-10-28T14:12:33Z</time>
      </trkpt>
      <trkpt lat="62.634986846277" lon="17.927059695646">
        <ele>54.6</ele>
        <time>2017-10-28T14:12:34Z</time>
      </trkpt>
      <trkpt lat="62.635001430783" lon="17.926957855561">
        <ele>54.8</ele>
        <time>2017-10-28T14:12:35Z</time>
      </trkpt>
      <trkpt lat="62.635016937298" lon="17.926874539475">
        <ele>55</ele>
        <time>2017-10-28T14:12:36Z</time>
      </trkpt>
      <trkpt lat="62.635030264519" lon="17.926784601688">
        <ele>55</ele>
        <time>2017-10-28T14:12:37Z</time>
      </trkpt>
      <trkpt lat="62.63504442993" lon="17.926706230923">
        <ele>55.2</ele>
        <time>2017-10-28T14:12:38Z</time>
      </trkpt>
      <trkpt lat="62.635060774635" lon="17.926633643669">
        <ele>55.8</ele>
        <time>2017-10-28T14:12:39Z</time>
      </trkpt>
      <trkpt lat="62.63507795753" lon="17.926569941229">
        <ele>56.2</ele>
        <time>2017-10-28T14:12:40Z</time>
      </trkpt>
      <trkpt lat="62.635091452389" lon="17.926506238789">
        <ele>56.8</ele>
        <time>2017-10-28T14:12:41Z</time>
      </trkpt>
      <trkpt lat="62.635098493185" lon="17.926442703987">
        <ele>57.4</ele>
        <time>2017-10-28T14:12:42Z</time>
      </trkpt>
      <trkpt lat="62.635107126542" lon="17.926381348479">
        <ele>58</ele>
        <time>2017-10-28T14:12:43Z</time>
      </trkpt>
      <trkpt lat="62.635125566722" lon="17.926317143125">
        <ele>58.4</ele>
        <time>2017-10-28T14:12:44Z</time>
      </trkpt>
      <trkpt lat="62.635156663571" lon="17.926270204485">
        <ele>59</ele>
        <time>2017-10-28T14:12:45Z</time>
      </trkpt>
      <trkpt lat="62.635189520619" lon="17.926229971365">
        <ele>59.2</ele>
        <time>2017-10-28T14:12:46Z</time>
      </trkpt>
      <trkpt lat="62.63522799354" lon="17.926192420453">
        <ele>59.2</ele>
        <time>2017-10-28T14:12:47Z</time>
      </trkpt>
      <trkpt lat="62.63526403571" lon="17.926150343315">
        <ele>59.4</ele>
        <time>2017-10-28T14:12:48Z</time>
      </trkpt>
      <trkpt lat="62.635298736776" lon="17.926115139335">
        <ele>59.4</ele>
        <time>2017-10-28T14:12:49Z</time>
      </trkpt>
      <trkpt lat="62.635343412303" lon="17.926090915644">
        <ele>59.4</ele>
        <time>2017-10-28T14:12:50Z</time>
      </trkpt>
      <trkpt lat="62.635383226328" lon="17.926078091337">
        <ele>59.4</ele>
        <time>2017-10-28T14:12:51Z</time>
      </trkpt>
      <trkpt lat="62.635425722561" lon="17.926058393872">
        <ele>59.4</ele>
        <time>2017-10-28T14:12:52Z</time>
      </trkpt>
      <trkpt lat="62.63547023045" lon="17.926032996715">
        <ele>59.2</ele>
        <time>2017-10-28T14:12:53Z</time>
      </trkpt>
      <trkpt lat="62.635510044475" lon="17.926016568191">
        <ele>59.2</ele>
        <time>2017-10-28T14:12:54Z</time>
      </trkpt>
      <trkpt lat="62.635556144925" lon="17.925999217658">
        <ele>59.2</ele>
        <time>2017-10-28T14:12:55Z</time>
      </trkpt>
      <trkpt lat="62.635599814624" lon="17.925981950944">
        <ele>59.2</ele>
        <time>2017-10-28T14:12:56Z</time>
      </trkpt>
      <trkpt lat="62.635645244522" lon="17.925964432773">
        <ele>59.2</ele>
        <time>2017-10-28T14:12:57Z</time>
      </trkpt>
      <trkpt lat="62.63568564528" lon="17.925950351181">
        <ele>59.2</ele>
        <time>2017-10-28T14:12:58Z</time>
      </trkpt>
      <trkpt lat="62.635727219504" lon="17.925932749191">
        <ele>59.2</ele>
        <time>2017-10-28T14:12:59Z</time>
      </trkpt>
      <trkpt lat="62.635785138433" lon="17.92590601093">
        <ele>59</ele>
        <time>2017-10-28T14:13:00Z</time>
      </trkpt>
      <trkpt lat="62.635833921091" lon="17.925889833863">
        <ele>59</ele>
        <time>2017-10-28T14:13:01Z</time>
      </trkpt>
      <trkpt lat="62.635882200835" lon="17.925880446135">
        <ele>59</ele>
        <time>2017-10-28T14:13:02Z</time>
      </trkpt>
      <trkpt lat="62.635930732036" lon="17.92586493962">
        <ele>58.8</ele>
        <time>2017-10-28T14:13:03Z</time>
      </trkpt>
      <trkpt lat="62.635961745066" lon="17.925855132797">
        <ele>59</ele>
        <time>2017-10-28T14:13:04Z</time>
      </trkpt>
      <trkpt lat="62.636030476646" lon="17.925834178047">
        <ele>59</ele>
        <time>2017-10-28T14:13:05Z</time>
      </trkpt>
      <trkpt lat="62.636080265132" lon="17.925814229125">
        <ele>59.2</ele>
        <time>2017-10-28T14:13:06Z</time>
      </trkpt>
      <trkpt lat="62.636136842957" lon="17.925794280203">
        <ele>59.2</ele>
        <time>2017-10-28T14:13:07Z</time>
      </trkpt>
      <trkpt lat="62.636190151841" lon="17.925775840023">
        <ele>59.2</ele>
        <time>2017-10-28T14:13:08Z</time>
      </trkpt>
      <trkpt lat="62.636240443241" lon="17.925756896929">
        <ele>59</ele>
        <time>2017-10-28T14:13:09Z</time>
      </trkpt>
      <trkpt lat="62.636294841772" lon="17.925734684894">
        <ele>59</ele>
        <time>2017-10-28T14:13:10Z</time>
      </trkpt>
      <trkpt lat="62.636351335778" lon="17.925711467031">
        <ele>58.8</ele>
        <time>2017-10-28T14:13:11Z</time>
      </trkpt>
      <trkpt lat="62.636406572499" lon="17.925689338815">
        <ele>58.8</ele>
        <time>2017-10-28T14:13:12Z</time>
      </trkpt>
      <trkpt lat="62.636457450632" lon="17.925670898635">
        <ele>58.6</ele>
        <time>2017-10-28T14:13:13Z</time>
      </trkpt>
      <trkpt lat="62.636508915498" lon="17.92564198108">
        <ele>58.6</ele>
        <time>2017-10-28T14:13:14Z</time>
      </trkpt>
      <trkpt lat="62.636565074228" lon="17.92560929167">
        <ele>58.4</ele>
        <time>2017-10-28T14:13:15Z</time>
      </trkpt>
      <trkpt lat="62.6366143598" lon="17.925583391599">
        <ele>58.4</ele>
        <time>2017-10-28T14:13:16Z</time>
      </trkpt>
      <trkpt lat="62.636668339236" lon="17.925554390225">
        <ele>58.2</ele>
        <time>2017-10-28T14:13:17Z</time>
      </trkpt>
      <trkpt lat="62.636722318672" lon="17.925527568145">
        <ele>58.4</ele>
        <time>2017-10-28T14:13:18Z</time>
      </trkpt>
      <trkpt lat="62.636772693891" lon="17.92551709077">
        <ele>58.2</ele>
        <time>2017-10-28T14:13:19Z</time>
      </trkpt>
      <trkpt lat="62.63682977463" lon="17.925516168761">
        <ele>58.4</ele>
        <time>2017-10-28T14:13:20Z</time>
      </trkpt>
      <trkpt lat="62.63688006603" lon="17.925532681104">
        <ele>58.4</ele>
        <time>2017-10-28T14:13:21Z</time>
      </trkpt>
      <trkpt lat="62.636929016326" lon="17.925574674423">
        <ele>58.4</ele>
        <time>2017-10-28T14:13:22Z</time>
      </trkpt>
      <trkpt lat="62.636979223907" lon="17.925633180085">
        <ele>58.4</ele>
        <time>2017-10-28T14:13:23Z</time>
      </trkpt>
      <trkpt lat="62.6370250729" lon="17.925669725169">
        <ele>58.4</ele>
        <time>2017-10-28T14:13:24Z</time>
      </trkpt>
      <trkpt lat="62.637077459775" lon="17.925681124553">
        <ele>58.2</ele>
        <time>2017-10-28T14:13:25Z</time>
      </trkpt>
      <trkpt lat="62.637125404243" lon="17.925655559758">
        <ele>58.2</ele>
        <time>2017-10-28T14:13:26Z</time>
      </trkpt>
      <trkpt lat="62.637169493037" lon="17.925610632774">
        <ele>58.2</ele>
        <time>2017-10-28T14:13:27Z</time>
      </trkpt>
      <trkpt lat="62.637207882139" lon="17.925568807093">
        <ele>58</ele>
        <time>2017-10-28T14:13:28Z</time>
      </trkpt>
      <trkpt lat="62.637256664797" lon="17.925527484326">
        <ele>58</ele>
        <time>2017-10-28T14:13:29Z</time>
      </trkpt>
      <trkpt lat="62.637308716396" lon="17.925509127965">
        <ele>58.2</ele>
        <time>2017-10-28T14:13:30Z</time>
      </trkpt>
      <trkpt lat="62.637356409407" lon="17.925507786861">
        <ele>58.4</ele>
        <time>2017-10-28T14:13:31Z</time>
      </trkpt>
      <trkpt lat="62.63740142021" lon="17.925511642535">
        <ele>58.6</ele>
        <time>2017-10-28T14:13:32Z</time>
      </trkpt>
      <trkpt lat="62.637444586995" lon="17.925522622824">
        <ele>58.8</ele>
        <time>2017-10-28T14:13:33Z</time>
      </trkpt>
      <trkpt lat="62.637479204242" lon="17.925530837086">
        <ele>59</ele>
        <time>2017-10-28T14:13:34Z</time>
      </trkpt>
      <trkpt lat="62.637522203389" lon="17.925546678877">
        <ele>59</ele>
        <time>2017-10-28T14:13:35Z</time>
      </trkpt>
      <trkpt lat="62.637557239731" lon="17.925557742985">
        <ele>59.2</ele>
        <time>2017-10-28T14:13:36Z</time>
      </trkpt>
      <trkpt lat="62.637594287729" lon="17.925564364686">
        <ele>59.6</ele>
        <time>2017-10-28T14:13:37Z</time>
      </trkpt>
      <trkpt lat="62.637630665175" lon="17.925577356631">
        <ele>59.8</ele>
        <time>2017-10-28T14:13:38Z</time>
      </trkpt>
      <trkpt lat="62.637663270766" lon="17.925590767671">
        <ele>60</ele>
        <time>2017-10-28T14:13:39Z</time>
      </trkpt>
      <trkpt lat="62.637699061479" lon="17.925598479019">
        <ele>60.2</ele>
        <time>2017-10-28T14:13:40Z</time>
      </trkpt>
      <trkpt lat="62.637736947667" lon="17.925607447652">
        <ele>60.4</ele>
        <time>2017-10-28T14:13:41Z</time>
      </trkpt>
      <trkpt lat="62.637772151647" lon="17.925619266131">
        <ele>60.4</ele>
        <time>2017-10-28T14:13:42Z</time>
      </trkpt>
      <trkpt lat="62.63780794236" lon="17.925628653859">
        <ele>60.8</ele>
        <time>2017-10-28T14:13:43Z</time>
      </trkpt>
      <trkpt lat="62.637841218503" lon="17.925637287216">
        <ele>60.8</ele>
        <time>2017-10-28T14:13:44Z</time>
      </trkpt>
      <trkpt lat="62.637878685596" lon="17.925639382691">
        <ele>61.2</ele>
        <time>2017-10-28T14:13:45Z</time>
      </trkpt>
      <trkpt lat="62.637913386662" lon="17.925650446799">
        <ele>61.4</ele>
        <time>2017-10-28T14:13:46Z</time>
      </trkpt>
      <trkpt lat="62.637948255366" lon="17.925669389893">
        <ele>61.6</ele>
        <time>2017-10-28T14:13:47Z</time>
      </trkpt>
      <trkpt lat="62.637980106586" lon="17.925675089585">
        <ele>62</ele>
        <time>2017-10-28T14:13:48Z</time>
      </trkpt>
      <trkpt lat="62.638008605046" lon="17.92567299411">
        <ele>62.2</ele>
        <time>2017-10-28T14:13:49Z</time>
      </trkpt>
      <trkpt lat="62.638034505117" lon="17.925658325785">
        <ele>62.4</ele>
        <time>2017-10-28T14:13:50Z</time>
      </trkpt>
      <trkpt lat="62.638067445984" lon="17.925635359379">
        <ele>62.6</ele>
        <time>2017-10-28T14:13:51Z</time>
      </trkpt>
      <trkpt lat="62.638103739611" lon="17.925589342748">
        <ele>63</ele>
        <time>2017-10-28T14:13:52Z</time>
      </trkpt>
      <trkpt lat="62.638127628026" lon="17.925514073286">
        <ele>63.2</ele>
        <time>2017-10-28T14:13:53Z</time>
      </trkpt>
      <trkpt lat="62.638141122885" lon="17.925437295082">
        <ele>63.4</ele>
        <time>2017-10-28T14:13:54Z</time>
      </trkpt>
      <trkpt lat="62.638151097346" lon="17.925347105838">
        <ele>63.4</ele>
        <time>2017-10-28T14:13:55Z</time>
      </trkpt>
      <trkpt lat="62.638152103174" lon="17.925261945734">
        <ele>63.4</ele>
        <time>2017-10-28T14:13:56Z</time>
      </trkpt>
      <trkpt lat="62.638147828405" lon="17.92517510925">
        <ele>63.4</ele>
        <time>2017-10-28T14:13:57Z</time>
      </trkpt>
      <trkpt lat="62.638142799265" lon="17.925098163408">
        <ele>63.4</ele>
        <time>2017-10-28T14:13:58Z</time>
      </trkpt>
      <trkpt lat="62.638140619971" lon="17.925003615576">
        <ele>63.4</ele>
        <time>2017-10-28T14:13:59Z</time>
      </trkpt>
      <trkpt lat="62.638139111229" lon="17.924908061916">
        <ele>63.4</ele>
        <time>2017-10-28T14:14:00Z</time>
      </trkpt>
      <trkpt lat="62.638133746813" lon="17.924820471061">
        <ele>63.4</ele>
        <time>2017-10-28T14:14:01Z</time>
      </trkpt>
      <trkpt lat="62.638132238071" lon="17.924728437799">
        <ele>63.4</ele>
        <time>2017-10-28T14:14:02Z</time>
      </trkpt>
      <trkpt lat="62.638130896967" lon="17.924639673478">
        <ele>63.6</ele>
        <time>2017-10-28T14:14:03Z</time>
      </trkpt>
      <trkpt lat="62.638125448732" lon="17.924561135075">
        <ele>63.8</ele>
        <time>2017-10-28T14:14:04Z</time>
      </trkpt>
      <trkpt lat="62.638117988841" lon="17.924456948058">
        <ele>63.8</ele>
        <time>2017-10-28T14:14:05Z</time>
      </trkpt>
      <trkpt lat="62.638109858398" lon="17.924366674995">
        <ele>64</ele>
        <time>2017-10-28T14:14:06Z</time>
      </trkpt>
      <trkpt lat="62.638106421819" lon="17.924269109679">
        <ele>64.2</ele>
        <time>2017-10-28T14:14:07Z</time>
      </trkpt>
      <trkpt lat="62.638103404335" lon="17.924176573503">
        <ele>64.4</ele>
        <time>2017-10-28T14:14:08Z</time>
      </trkpt>
      <trkpt lat="62.638102733783" lon="17.924089066467">
        <ele>64.4</ele>
        <time>2017-10-28T14:14:09Z</time>
      </trkpt>
      <trkpt lat="62.638101476498" lon="17.923994602454">
        <ele>64.4</ele>
        <time>2017-10-28T14:14:10Z</time>
      </trkpt>
      <trkpt lat="62.638106421819" lon="17.923893852016">
        <ele>64.4</ele>
        <time>2017-10-28T14:14:11Z</time>
      </trkpt>
      <trkpt lat="62.63812896913" lon="17.923809027188">
        <ele>64.6</ele>
        <time>2017-10-28T14:14:12Z</time>
      </trkpt>
      <trkpt lat="62.638158138142" lon="17.923749599517">
        <ele>64.6</ele>
        <time>2017-10-28T14:14:13Z</time>
      </trkpt>
      <trkpt lat="62.638189654086" lon="17.923687908733">
        <ele>64.6</ele>
        <time>2017-10-28T14:14:14Z</time>
      </trkpt>
      <trkpt lat="62.638225780075" lon="17.923633845478">
        <ele>64.6</ele>
        <time>2017-10-28T14:14:15Z</time>
      </trkpt>
      <trkpt lat="62.638257966571" lon="17.923594785824">
        <ele>64.6</ele>
        <time>2017-10-28T14:14:16Z</time>
      </trkpt>
      <trkpt lat="62.638286884126" lon="17.923536615438">
        <ele>64.8</ele>
        <time>2017-10-28T14:14:17Z</time>
      </trkpt>
      <trkpt lat="62.638307587419" lon="17.923473415912">
        <ele>64.8</ele>
        <time>2017-10-28T14:14:18Z</time>
      </trkpt>
      <trkpt lat="62.638328206893" lon="17.923425387625">
        <ele>64.8</ele>
        <time>2017-10-28T14:14:19Z</time>
      </trkpt>
      <trkpt lat="62.638353687869" lon="17.923372497836">
        <ele>65</ele>
        <time>2017-10-28T14:14:20Z</time>
      </trkpt>
      <trkpt lat="62.638375816085" lon="17.923325559196">
        <ele>65.2</ele>
        <time>2017-10-28T14:14:21Z</time>
      </trkpt>
      <trkpt lat="62.638397357568" lon="17.923281805678">
        <ele>65.4</ele>
        <time>2017-10-28T14:14:22Z</time>
      </trkpt>
      <trkpt lat="62.638421245983" lon="17.923226736595">
        <ele>65.6</ele>
        <time>2017-10-28T14:14:23Z</time>
      </trkpt>
      <trkpt lat="62.638442284552" lon="17.923181306697">
        <ele>65.8</ele>
        <time>2017-10-28T14:14:24Z</time>
      </trkpt>
      <trkpt lat="62.63846759789" lon="17.92312824927">
        <ele>66</ele>
        <time>2017-10-28T14:14:25Z</time>
      </trkpt>
      <trkpt lat="62.638492073038" lon="17.923082735553">
        <ele>66.2</ele>
        <time>2017-10-28T14:14:26Z</time>
      </trkpt>
      <trkpt lat="62.638516883462" lon="17.923035880732">
        <ele>66.4</ele>
        <time>2017-10-28T14:14:27Z</time>
      </trkpt>
      <trkpt lat="62.638537670574" lon="17.922994306508">
        <ele>66.4</ele>
        <time>2017-10-28T14:14:28Z</time>
      </trkpt>
      <trkpt lat="62.638556613668" lon="17.922954995397">
        <ele>66.6</ele>
        <time>2017-10-28T14:14:29Z</time>
      </trkpt>
      <trkpt lat="62.638580418264" lon="17.922893807527">
        <ele>66.8</ele>
        <time>2017-10-28T14:14:30Z</time>
      </trkpt>
      <trkpt lat="62.638599445177" lon="17.9228323682">
        <ele>67.2</ele>
        <time>2017-10-28T14:14:31Z</time>
      </trkpt>
      <trkpt lat="62.638618555909" lon="17.922770425959">
        <ele>67.6</ele>
        <time>2017-10-28T14:14:32Z</time>
      </trkpt>
      <trkpt lat="62.638634481519" lon="17.922710327736">
        <ele>67.8</ele>
        <time>2017-10-28T14:14:33Z</time>
      </trkpt>
      <trkpt lat="62.638643953066" lon="17.922658192318">
        <ele>68</ele>
        <time>2017-10-28T14:14:34Z</time>
      </trkpt>
      <trkpt lat="62.638642025229" lon="17.922602033588">
        <ele>68.2</ele>
        <time>2017-10-28T14:14:35Z</time>
      </trkpt>
      <trkpt lat="62.638629117103" lon="17.922548137971">
        <ele>68.2</ele>
        <time>2017-10-28T14:14:36Z</time>
      </trkpt>
      <trkpt lat="62.638622914497" lon="17.922491727784">
        <ele>68.2</ele>
        <time>2017-10-28T14:14:37Z</time>
      </trkpt>
      <trkpt lat="62.638611096018" lon="17.922442693669">
        <ele>68.2</ele>
        <time>2017-10-28T14:14:38Z</time>
      </trkpt>
      <trkpt lat="62.638594583675" lon="17.922412351191">
        <ele>68.4</ele>
        <time>2017-10-28T14:14:39Z</time>
      </trkpt>
      <trkpt lat="62.638576143495" lon="17.922382595446">
        <ele>68.4</ele>
        <time>2017-10-28T14:14:40Z</time>
      </trkpt>
      <trkpt lat="62.638558457686" lon="17.922335070073">
        <ele>68.4</ele>
        <time>2017-10-28T14:14:41Z</time>
      </trkpt>
      <trkpt lat="62.638544543732" lon="17.922286874148">
        <ele>68.4</ele>
        <time>2017-10-28T14:14:42Z</time>
      </trkpt>
      <trkpt lat="62.638530043045" lon="17.9222456352">
        <ele>68.8</ele>
        <time>2017-10-28T14:14:43Z</time>
      </trkpt>
      <trkpt lat="62.638512441055" lon="17.922205653537">
        <ele>69</ele>
        <time>2017-10-28T14:14:44Z</time>
      </trkpt>
      <trkpt lat="62.638492492133" lon="17.922160558915">
        <ele>69.4</ele>
        <time>2017-10-28T14:14:45Z</time>
      </trkpt>
      <trkpt lat="62.638478159084" lon="17.922120409614">
        <ele>69.8</ele>
        <time>2017-10-28T14:14:46Z</time>
      </trkpt>
      <trkpt lat="62.638462652569" lon="17.922069699119">
        <ele>70</ele>
        <time>2017-10-28T14:14:47Z</time>
      </trkpt>
      <trkpt lat="62.638444799122" lon="17.922024436859">
        <ele>70.4</ele>
        <time>2017-10-28T14:14:48Z</time>
      </trkpt>
      <trkpt lat="62.638426107485" lon="17.921987891775">
        <ele>70.8</ele>
        <time>2017-10-28T14:14:49Z</time>
      </trkpt>
      <trkpt lat="62.638404063088" lon="17.921945814637">
        <ele>71.2</ele>
        <time>2017-10-28T14:14:50Z</time>
      </trkpt>
      <trkpt lat="62.638384784718" lon="17.921905413879">
        <ele>71.4</ele>
        <time>2017-10-28T14:14:51Z</time>
      </trkpt>
      <trkpt lat="62.638366931271" lon="17.921866018949">
        <ele>71.6</ele>
        <time>2017-10-28T14:14:52Z</time>
      </trkpt>
      <trkpt lat="62.638345976521" lon="17.921820840508">
        <ele>71.8</ele>
        <time>2017-10-28T14:14:53Z</time>
      </trkpt>
      <trkpt lat="62.638325776142" lon="17.92178127794">
        <ele>72</ele>
        <time>2017-10-28T14:14:54Z</time>
      </trkpt>
      <trkpt lat="62.638305156668" lon="17.921736686232">
        <ele>72</ele>
        <time>2017-10-28T14:14:55Z</time>
      </trkpt>
      <trkpt lat="62.638283615185" lon="17.921696369293">
        <ele>72.2</ele>
        <time>2017-10-28T14:14:56Z</time>
      </trkpt>
      <trkpt lat="62.638259475313" lon="17.921657142001">
        <ele>72.2</ele>
        <time>2017-10-28T14:14:57Z</time>
      </trkpt>
      <trkpt lat="62.63823877202" lon="17.921617663252">
        <ele>72.4</ele>
        <time>2017-10-28T14:14:58Z</time>
      </trkpt>
      <trkpt lat="62.638213793958" lon="17.921565527834">
        <ele>72.4</ele>
        <time>2017-10-28T14:14:59Z</time>
      </trkpt>
      <trkpt lat="62.638182780928" lon="17.92152060085">
        <ele>72.6</ele>
        <time>2017-10-28T14:15:00Z</time>
      </trkpt>
      <trkpt lat="62.638154869201" lon="17.921468465432">
        <ele>72.6</ele>
        <time>2017-10-28T14:15:01Z</time>
      </trkpt>
      <trkpt lat="62.638129304406" lon="17.921412641978">
        <ele>72.8</ele>
        <time>2017-10-28T14:15:02Z</time>
      </trkpt>
      <trkpt lat="62.638102817602" lon="17.921353465764">
        <ele>72.8</ele>
        <time>2017-10-28T14:15:03Z</time>
      </trkpt>
      <trkpt lat="62.638077336626" lon="17.92130518602">
        <ele>72.8</ele>
        <time>2017-10-28T14:15:04Z</time>
      </trkpt>
      <trkpt lat="62.638044814854" lon="17.921240729209">
        <ele>73</ele>
        <time>2017-10-28T14:15:05Z</time>
      </trkpt>
      <trkpt lat="62.638017070765" lon="17.921182894099">
        <ele>73</ele>
        <time>2017-10-28T14:15:06Z</time>
      </trkpt>
      <trkpt lat="62.637990583961" lon="17.921126148636">
        <ele>73</ele>
        <time>2017-10-28T14:15:07Z</time>
      </trkpt>
      <trkpt lat="62.637960744397" lon="17.921073342666">
        <ele>73</ele>
        <time>2017-10-28T14:15:08Z</time>
      </trkpt>
      <trkpt lat="62.637923947856" lon="17.921032019899">
        <ele>73.2</ele>
        <time>2017-10-28T14:15:09Z</time>
      </trkpt>
      <trkpt lat="62.637890001161" lon="17.920972759866">
        <ele>73.4</ele>
        <time>2017-10-28T14:15:10Z</time>
      </trkpt>
      <trkpt lat="62.637856054466" lon="17.920905453209">
        <ele>73.8</ele>
        <time>2017-10-28T14:15:11Z</time>
      </trkpt>
      <trkpt lat="62.637819509382" lon="17.920847199004">
        <ele>73.8</ele>
        <time>2017-10-28T14:15:12Z</time>
      </trkpt>
      <trkpt lat="62.637784221583" lon="17.92079305193">
        <ele>74.2</ele>
        <time>2017-10-28T14:15:13Z</time>
      </trkpt>
      <trkpt lat="62.637746586852" lon="17.920730020042">
        <ele>74.2</ele>
        <time>2017-10-28T14:15:14Z</time>
      </trkpt>
      <trkpt lat="62.637707862474" lon="17.920654247666">
        <ele>74.2</ele>
        <time>2017-10-28T14:15:15Z</time>
      </trkpt>
      <trkpt lat="62.637674753969" lon="17.920592556882">
        <ele>74.2</ele>
        <time>2017-10-28T14:15:16Z</time>
      </trkpt>
      <trkpt lat="62.637629156433" lon="17.920530279365">
        <ele>74.2</ele>
        <time>2017-10-28T14:15:17Z</time>
      </trkpt>
      <trkpt lat="62.637585738191" lon="17.920460458138">
        <ele>74</ele>
        <time>2017-10-28T14:15:18Z</time>
      </trkpt>
      <trkpt lat="62.637547432908" lon="17.920393402938">
        <ele>74</ele>
        <time>2017-10-28T14:15:19Z</time>
      </trkpt>
      <trkpt lat="62.637505691046" lon="17.920326850652">
        <ele>73.8</ele>
        <time>2017-10-28T14:15:20Z</time>
      </trkpt>
      <trkpt lat="62.637470654704" lon="17.920269686094">
        <ele>73.6</ele>
        <time>2017-10-28T14:15:21Z</time>
      </trkpt>
      <trkpt lat="62.63745087342" lon="17.920233643924">
        <ele>73.6</ele>
        <time>2017-10-28T14:15:22Z</time>
      </trkpt>
      <trkpt lat="62.637406365531" lon="17.920157284815">
        <ele>73.4</ele>
        <time>2017-10-28T14:15:23Z</time>
      </trkpt>
      <trkpt lat="62.637376525967" lon="17.92010657432">
        <ele>73.4</ele>
        <time>2017-10-28T14:15:24Z</time>
      </trkpt>
      <trkpt lat="62.63734526148" lon="17.920050331771">
        <ele>73.6</ele>
        <time>2017-10-28T14:15:25Z</time>
      </trkpt>
      <trkpt lat="62.637319361409" lon="17.919999705095">
        <ele>73.6</ele>
        <time>2017-10-28T14:15:26Z</time>
      </trkpt>
      <trkpt lat="62.637293628976" lon="17.919955867758">
        <ele>73.8</ele>
        <time>2017-10-28T14:15:27Z</time>
      </trkpt>
      <trkpt lat="62.637270075837" lon="17.919923932719">
        <ele>73.8</ele>
        <time>2017-10-28T14:15:28Z</time>
      </trkpt>
      <trkpt lat="62.637235039495" lon="17.919881185029">
        <ele>73.8</ele>
        <time>2017-10-28T14:15:29Z</time>
      </trkpt>
      <trkpt lat="62.637197572402" lon="17.919829468706">
        <ele>74</ele>
        <time>2017-10-28T14:15:30Z</time>
      </trkpt>
      <trkpt lat="62.637160943499" lon="17.91977465108">
        <ele>74</ele>
        <time>2017-10-28T14:15:31Z</time>
      </trkpt>
      <trkpt lat="62.637123895501" lon="17.919714720495">
        <ele>74</ele>
        <time>2017-10-28T14:15:32Z</time>
      </trkpt>
      <trkpt lat="62.637085925494" lon="17.919648671123">
        <ele>73.8</ele>
        <time>2017-10-28T14:15:33Z</time>
      </trkpt>
      <trkpt lat="62.637050470057" lon="17.919588740538">
        <ele>73.8</ele>
        <time>2017-10-28T14:15:34Z</time>
      </trkpt>
      <trkpt lat="62.637005710711" lon="17.919513638714">
        <ele>73.8</ele>
        <time>2017-10-28T14:15:35Z</time>
      </trkpt>
      <trkpt lat="62.636965477591" lon="17.919439626537">
        <ele>73.8</ele>
        <time>2017-10-28T14:15:36Z</time>
      </trkpt>
      <trkpt lat="62.636922226987" lon="17.919368883301">
        <ele>73.6</ele>
        <time>2017-10-28T14:15:37Z</time>
      </trkpt>
      <trkpt lat="62.63687922784" lon="17.919299481169">
        <ele>73.6</ele>
        <time>2017-10-28T14:15:38Z</time>
      </trkpt>
      <trkpt lat="62.636837821254" lon="17.919244831181">
        <ele>73.6</ele>
        <time>2017-10-28T14:15:39Z</time>
      </trkpt>
      <trkpt lat="62.636793061908" lon="17.919192528125">
        <ele>73.6</ele>
        <time>2017-10-28T14:15:40Z</time>
      </trkpt>
      <trkpt lat="62.636748805476" lon="17.919135866481">
        <ele>73.4</ele>
        <time>2017-10-28T14:15:41Z</time>
      </trkpt>
      <trkpt lat="62.636714607324" lon="17.919072834593">
        <ele>73.4</ele>
        <time>2017-10-28T14:15:42Z</time>
      </trkpt>
      <trkpt lat="62.636688288158" lon="17.919010808533">
        <ele>73.4</ele>
        <time>2017-10-28T14:15:43Z</time>
      </trkpt>
      <trkpt lat="62.636657861861" lon="17.918946351722">
        <ele>73.4</ele>
        <time>2017-10-28T14:15:44Z</time>
      </trkpt>
      <trkpt lat="62.636626597374" lon="17.918872842459">
        <ele>73.4</ele>
        <time>2017-10-28T14:15:45Z</time>
      </trkpt>
      <trkpt lat="62.636595165249" lon="17.918818360109">
        <ele>73.4</ele>
        <time>2017-10-28T14:15:46Z</time>
      </trkpt>
      <trkpt lat="62.636557530518" lon="17.918759016257">
        <ele>73.2</ele>
        <time>2017-10-28T14:15:47Z</time>
      </trkpt>
      <trkpt lat="62.636523416185" lon="17.918702186975">
        <ele>73.2</ele>
        <time>2017-10-28T14:15:48Z</time>
      </trkpt>
      <trkpt lat="62.636492486974" lon="17.918646195883">
        <ele>73.4</ele>
        <time>2017-10-28T14:15:49Z</time>
      </trkpt>
      <trkpt lat="62.636455606614" lon="17.918586684393">
        <ele>73.4</ele>
        <time>2017-10-28T14:15:50Z</time>
      </trkpt>
      <trkpt lat="62.636422833385" lon="17.918538153192">
        <ele>73.4</ele>
        <time>2017-10-28T14:15:51Z</time>
      </trkpt>
      <trkpt lat="62.636393161459" lon="17.918497165701">
        <ele>73.4</ele>
        <time>2017-10-28T14:15:52Z</time>
      </trkpt>
      <trkpt lat="62.636359214764" lon="17.918455926753">
        <ele>73.6</ele>
        <time>2017-10-28T14:15:53Z</time>
      </trkpt>
      <trkpt lat="62.636330883942" lon="17.918413179063">
        <ele>73.8</ele>
        <time>2017-10-28T14:15:54Z</time>
      </trkpt>
      <trkpt lat="62.636301798749" lon="17.918364983138">
        <ele>74</ele>
        <time>2017-10-28T14:15:55Z</time>
      </trkpt>
      <trkpt lat="62.636273970841" lon="17.918325588208">
        <ele>74.4</ele>
        <time>2017-10-28T14:15:56Z</time>
      </trkpt>
      <trkpt lat="62.63624723258" lon="17.91829189297">
        <ele>74.8</ele>
        <time>2017-10-28T14:15:57Z</time>
      </trkpt>
      <trkpt lat="62.636231390789" lon="17.918260628483">
        <ele>75</ele>
        <time>2017-10-28T14:15:58Z</time>
      </trkpt>
      <trkpt lat="62.636211274229" lon="17.918222239381">
        <ele>75.4</ele>
        <time>2017-10-28T14:15:59Z</time>
      </trkpt>
      <trkpt lat="62.636191409126" lon="17.91818376646">
        <ele>75.8</ele>
        <time>2017-10-28T14:16:00Z</time>
      </trkpt>
      <trkpt lat="62.636175232059" lon="17.91814353334">
        <ele>76.2</ele>
        <time>2017-10-28T14:16:01Z</time>
      </trkpt>
      <trkpt lat="62.636158300621" lon="17.918095169777">
        <ele>76.6</ele>
        <time>2017-10-28T14:16:02Z</time>
      </trkpt>
      <trkpt lat="62.636144805762" lon="17.918034736278">
        <ele>77</ele>
        <time>2017-10-28T14:16:03Z</time>
      </trkpt>
      <trkpt lat="62.636133993111" lon="17.917983355231">
        <ele>77.4</ele>
        <time>2017-10-28T14:16:04Z</time>
      </trkpt>
      <trkpt lat="62.636113541275" lon="17.917920239524">
        <ele>77.6</ele>
        <time>2017-10-28T14:16:05Z</time>
      </trkpt>
      <trkpt lat="62.63609132924" lon="17.91787112159">
        <ele>77.8</ele>
        <time>2017-10-28T14:16:06Z</time>
      </trkpt>
      <trkpt lat="62.6360611544" lon="17.917828038624">
        <ele>78</ele>
        <time>2017-10-28T14:16:07Z</time>
      </trkpt>
      <trkpt lat="62.636032236845" lon="17.917787889323">
        <ele>78</ele>
        <time>2017-10-28T14:16:08Z</time>
      </trkpt>
      <trkpt lat="62.63600499567" lon="17.917752601524">
        <ele>78</ele>
        <time>2017-10-28T14:16:09Z</time>
      </trkpt>
      <trkpt lat="62.635977754495" lon="17.917708680368">
        <ele>78</ele>
        <time>2017-10-28T14:16:10Z</time>
      </trkpt>
      <trkpt lat="62.635950429501" lon="17.917661825547">
        <ele>77.8</ele>
        <time>2017-10-28T14:16:11Z</time>
      </trkpt>
      <trkpt lat="62.635922182498" lon="17.917621424789">
        <ele>77.8</ele>
        <time>2017-10-28T14:16:12Z</time>
      </trkpt>
      <trkpt lat="62.635898461721" lon="17.917577587452">
        <ele>77.8</ele>
        <time>2017-10-28T14:16:13Z</time>
      </trkpt>
      <trkpt lat="62.635872980745" lon="17.917537019056">
        <ele>77.8</ele>
        <time>2017-10-28T14:16:14Z</time>
      </trkpt>
      <trkpt lat="62.63584406319" lon="17.917495780108">
        <ele>77.8</ele>
        <time>2017-10-28T14:16:15Z</time>
      </trkpt>
      <trkpt lat="62.635815900006" lon="17.917458564472">
        <ele>78</ele>
        <time>2017-10-28T14:16:16Z</time>
      </trkpt>
      <trkpt lat="62.635785641347" lon="17.917418163714">
        <ele>78.4</ele>
        <time>2017-10-28T14:16:17Z</time>
      </trkpt>
      <trkpt lat="62.635756556154" lon="17.917374494015">
        <ele>78.8</ele>
        <time>2017-10-28T14:16:18Z</time>
      </trkpt>
      <trkpt lat="62.635729566436" lon="17.917331997782">
        <ele>79</ele>
        <time>2017-10-28T14:16:19Z</time>
      </trkpt>
      <trkpt lat="62.635700145967" lon="17.917284556228">
        <ele>79.6</ele>
        <time>2017-10-28T14:16:20Z</time>
      </trkpt>
      <trkpt lat="62.635671982783" lon="17.917241473262">
        <ele>80.2</ele>
        <time>2017-10-28T14:16:21Z</time>
      </trkpt>
      <trkpt lat="62.635645160703" lon="17.917204006169">
        <ele>80.4</ele>
        <time>2017-10-28T14:16:22Z</time>
      </trkpt>
      <trkpt lat="62.635624541229" lon="17.917172657863">
        <ele>80.6</ele>
        <time>2017-10-28T14:16:23Z</time>
      </trkpt>
      <trkpt lat="62.635590259258" lon="17.917123288472">
        <ele>80.8</ele>
        <time>2017-10-28T14:16:24Z</time>
      </trkpt>
      <trkpt lat="62.635559330047" lon="17.917084228818">
        <ele>81</ele>
        <time>2017-10-28T14:16:25Z</time>
      </trkpt>
      <trkpt lat="62.63553141832" lon="17.91704215168">
        <ele>81.4</ele>
        <time>2017-10-28T14:16:26Z</time>
      </trkpt>
      <trkpt lat="62.635506440258" lon="17.916993788117">
        <ele>81.4</ele>
        <time>2017-10-28T14:16:27Z</time>
      </trkpt>
      <trkpt lat="62.635490095553" lon="17.916939641043">
        <ele>81.6</ele>
        <time>2017-10-28T14:16:28Z</time>
      </trkpt>
      <trkpt lat="62.635478025617" lon="17.916859593898">
        <ele>81.8</ele>
        <time>2017-10-28T14:16:29Z</time>
      </trkpt>
      <trkpt lat="62.635482384205" lon="17.916782396599">
        <ele>82.2</ele>
        <time>2017-10-28T14:16:30Z</time>
      </trkpt>
      <trkpt lat="62.635496717254" lon="17.91672028672">
        <ele>82.2</ele>
        <time>2017-10-28T14:16:31Z</time>
      </trkpt>
      <trkpt lat="62.635513648692" lon="17.916664463266">
        <ele>82.6</ele>
        <time>2017-10-28T14:16:32Z</time>
      </trkpt>
      <trkpt lat="62.635532424148" lon="17.916609897097">
        <ele>82.8</ele>
        <time>2017-10-28T14:16:33Z</time>
      </trkpt>
      <trkpt lat="62.63554650574" lon="17.916560024792">
        <ele>83.2</ele>
        <time>2017-10-28T14:16:34Z</time>
      </trkpt>
      <trkpt lat="62.635563520997" lon="17.916492047583">
        <ele>83.4</ele>
        <time>2017-10-28T14:16:35Z</time>
      </trkpt>
      <trkpt lat="62.635579446607" lon="17.916435469758">
        <ele>83.8</ele>
        <time>2017-10-28T14:16:36Z</time>
      </trkpt>
      <trkpt lat="62.635596294226" lon="17.916379646304">
        <ele>84.2</ele>
        <time>2017-10-28T14:16:37Z</time>
      </trkpt>
      <trkpt lat="62.635612219836" lon="17.916327510886">
        <ele>84.4</ele>
        <time>2017-10-28T14:16:38Z</time>
      </trkpt>
      <trkpt lat="62.63562613379" lon="17.916273615269">
        <ele>84.6</ele>
        <time>2017-10-28T14:16:39Z</time>
      </trkpt>
      <trkpt lat="62.635644238694" lon="17.91621821091">
        <ele>84.8</ele>
        <time>2017-10-28T14:16:40Z</time>
      </trkpt>
      <trkpt lat="62.635662762693" lon="17.916163058008">
        <ele>85.2</ele>
        <time>2017-10-28T14:16:41Z</time>
      </trkpt>
      <trkpt lat="62.635680783778" lon="17.916106312545">
        <ele>85.4</ele>
        <time>2017-10-28T14:16:42Z</time>
      </trkpt>
      <trkpt lat="62.635695368284" lon="17.916058200439">
        <ele>85.6</ele>
        <time>2017-10-28T14:16:43Z</time>
      </trkpt>
      <trkpt lat="62.635709366057" lon="17.916001287338">
        <ele>85.6</ele>
        <time>2017-10-28T14:16:44Z</time>
      </trkpt>
      <trkpt lat="62.635726213676" lon="17.915944709513">
        <ele>85.8</ele>
        <time>2017-10-28T14:16:45Z</time>
      </trkpt>
      <trkpt lat="62.635738367431" lon="17.915894082837">
        <ele>86</ele>
        <time>2017-10-28T14:16:46Z</time>
      </trkpt>
      <trkpt lat="62.635753957765" lon="17.91584353998">
        <ele>86</ele>
        <time>2017-10-28T14:16:47Z</time>
      </trkpt>
      <trkpt lat="62.635761417656" lon="17.915794170589">
        <ele>86.2</ele>
        <time>2017-10-28T14:16:48Z</time>
      </trkpt>
      <trkpt lat="62.635776588895" lon="17.915730468149">
        <ele>86.4</ele>
        <time>2017-10-28T14:16:49Z</time>
      </trkpt>
      <trkpt lat="62.635782120949" lon="17.915672884496">
        <ele>86.6</ele>
        <time>2017-10-28T14:16:50Z</time>
      </trkpt>
      <trkpt lat="62.635791508677" lon="17.915625107666">
        <ele>86.8</ele>
        <time>2017-10-28T14:16:51Z</time>
      </trkpt>
      <trkpt lat="62.635800728767" lon="17.915587221478">
        <ele>87</ele>
        <time>2017-10-28T14:16:52Z</time>
      </trkpt>
      <trkpt lat="62.635807518106" lon="17.915553358602">
        <ele>87.2</ele>
        <time>2017-10-28T14:16:53Z</time>
      </trkpt>
      <trkpt lat="62.635806009364" lon="17.915540199019">
        <ele>87.2</ele>
        <time>2017-10-28T14:16:54Z</time>
      </trkpt>
      <trkpt lat="62.635804500622" lon="17.915547155996">
        <ele>87.4</ele>
        <time>2017-10-28T14:16:55Z</time>
      </trkpt>
      <trkpt lat="62.635808188658" lon="17.915548916195">
        <ele>87.4</ele>
        <time>2017-10-28T14:16:56Z</time>
      </trkpt>
      <trkpt lat="62.635813133979" lon="17.915557130457">
        <ele>87.6</ele>
        <time>2017-10-28T14:16:57Z</time>
      </trkpt>
    </trkseg>
  </trk>
</gpx>